<?xml version="1.0" encoding="UTF-8" standalone="no" ?>
<gpx xmlns="http://www.topografix.com/GPX/1/1" xmlns:xsi="http://www.w3.org/2001/XMLSchema-instance" xsi:schemaLocation="http://www.topografix.com/GPX/1/1 http://www.topografix.com/GPX/1/1/gpx.xsd" version="1.1" creator="VisuGPX - https://www.visugpx.com">
  <metadata>
    <name>Villers bocage </name>
  </metadata>
  <trk>
    <name><![CDATA[Villers bocage _1]]></name>
    <trkseg>
      <trkpt lat="49.99669" lon="2.31892">
        <ele>132.7</ele>
        <time>2023-11-22T13:00:50Z</time>
      </trkpt>
      <trkpt lat="49.99669" lon="2.31892">
        <ele>132.7</ele>
        <time>2023-11-22T13:00:51Z</time>
      </trkpt>
      <trkpt lat="49.99669" lon="2.31892">
        <ele>132.7</ele>
        <time>2023-11-22T13:00:52Z</time>
      </trkpt>
      <trkpt lat="49.99669" lon="2.31892">
        <ele>132.7</ele>
        <time>2023-11-22T13:00:53Z</time>
      </trkpt>
      <trkpt lat="49.99669" lon="2.31891">
        <ele>132.7</ele>
        <time>2023-11-22T13:00:54Z</time>
      </trkpt>
      <trkpt lat="49.9967" lon="2.3189">
        <ele>132.7</ele>
        <time>2023-11-22T13:00:55Z</time>
      </trkpt>
      <trkpt lat="49.9967" lon="2.31891">
        <ele>132.7</ele>
        <time>2023-11-22T13:00:57Z</time>
      </trkpt>
      <trkpt lat="49.99671" lon="2.31891">
        <ele>132.7</ele>
        <time>2023-11-22T13:00:58Z</time>
      </trkpt>
      <trkpt lat="49.99672" lon="2.3189">
        <ele>132.7</ele>
        <time>2023-11-22T13:00:59Z</time>
      </trkpt>
      <trkpt lat="49.99673" lon="2.3189">
        <ele>132.7</ele>
        <time>2023-11-22T13:01:00Z</time>
      </trkpt>
      <trkpt lat="49.99674" lon="2.3189">
        <ele>132.7</ele>
        <time>2023-11-22T13:01:01Z</time>
      </trkpt>
      <trkpt lat="49.99675" lon="2.3189">
        <ele>132.7</ele>
        <time>2023-11-22T13:01:02Z</time>
      </trkpt>
      <trkpt lat="49.99676" lon="2.3189">
        <ele>132.7</ele>
        <time>2023-11-22T13:01:03Z</time>
      </trkpt>
      <trkpt lat="49.99678" lon="2.3189">
        <ele>132.7</ele>
        <time>2023-11-22T13:01:05Z</time>
      </trkpt>
      <trkpt lat="49.99679" lon="2.31889">
        <ele>132.7</ele>
        <time>2023-11-22T13:01:06Z</time>
      </trkpt>
      <trkpt lat="49.9968" lon="2.3189">
        <ele>132.7</ele>
        <time>2023-11-22T13:01:07Z</time>
      </trkpt>
      <trkpt lat="49.99681" lon="2.3189">
        <ele>132.7</ele>
        <time>2023-11-22T13:01:08Z</time>
      </trkpt>
      <trkpt lat="49.99682" lon="2.3189">
        <ele>132.7</ele>
        <time>2023-11-22T13:01:10Z</time>
      </trkpt>
      <trkpt lat="49.99683" lon="2.31891">
        <ele>132.7</ele>
        <time>2023-11-22T13:01:11Z</time>
      </trkpt>
      <trkpt lat="49.99684" lon="2.31891">
        <ele>132.7</ele>
        <time>2023-11-22T13:01:12Z</time>
      </trkpt>
      <trkpt lat="49.99685" lon="2.31892">
        <ele>132.7</ele>
        <time>2023-11-22T13:01:13Z</time>
      </trkpt>
      <trkpt lat="49.99686" lon="2.31892">
        <ele>132.6</ele>
        <time>2023-11-22T13:01:15Z</time>
      </trkpt>
      <trkpt lat="49.99686" lon="2.31893">
        <ele>132.6</ele>
        <time>2023-11-22T13:01:16Z</time>
      </trkpt>
      <trkpt lat="49.99687" lon="2.31893">
        <ele>132.6</ele>
        <time>2023-11-22T13:01:17Z</time>
      </trkpt>
      <trkpt lat="49.99687" lon="2.31893">
        <ele>132.6</ele>
        <time>2023-11-22T13:01:19Z</time>
      </trkpt>
      <trkpt lat="49.99688" lon="2.31893">
        <ele>132.6</ele>
        <time>2023-11-22T13:01:21Z</time>
      </trkpt>
      <trkpt lat="49.99689" lon="2.31893">
        <ele>132.6</ele>
        <time>2023-11-22T13:01:22Z</time>
      </trkpt>
      <trkpt lat="49.99689" lon="2.31894">
        <ele>132.6</ele>
        <time>2023-11-22T13:01:23Z</time>
      </trkpt>
      <trkpt lat="49.99689" lon="2.31894">
        <ele>132.6</ele>
        <time>2023-11-22T13:01:24Z</time>
      </trkpt>
      <trkpt lat="49.9969" lon="2.31894">
        <ele>132.6</ele>
        <time>2023-11-22T13:01:25Z</time>
      </trkpt>
      <trkpt lat="49.9969" lon="2.31894">
        <ele>132.6</ele>
        <time>2023-11-22T13:01:27Z</time>
      </trkpt>
      <trkpt lat="49.99691" lon="2.31894">
        <ele>132.6</ele>
        <time>2023-11-22T13:01:28Z</time>
      </trkpt>
      <trkpt lat="49.99692" lon="2.31894">
        <ele>132.6</ele>
        <time>2023-11-22T13:01:29Z</time>
      </trkpt>
      <trkpt lat="49.99693" lon="2.31895">
        <ele>132.6</ele>
        <time>2023-11-22T13:01:30Z</time>
      </trkpt>
      <trkpt lat="49.99694" lon="2.31895">
        <ele>132.6</ele>
        <time>2023-11-22T13:01:32Z</time>
      </trkpt>
      <trkpt lat="49.99695" lon="2.31895">
        <ele>132.6</ele>
        <time>2023-11-22T13:01:33Z</time>
      </trkpt>
      <trkpt lat="49.99696" lon="2.31896">
        <ele>132.6</ele>
        <time>2023-11-22T13:01:34Z</time>
      </trkpt>
      <trkpt lat="49.99697" lon="2.31897">
        <ele>132.6</ele>
        <time>2023-11-22T13:01:35Z</time>
      </trkpt>
      <trkpt lat="49.99697" lon="2.31898">
        <ele>132.6</ele>
        <time>2023-11-22T13:01:36Z</time>
      </trkpt>
      <trkpt lat="49.99698" lon="2.31898">
        <ele>132.6</ele>
        <time>2023-11-22T13:01:37Z</time>
      </trkpt>
      <trkpt lat="49.99699" lon="2.31899">
        <ele>132.6</ele>
        <time>2023-11-22T13:01:39Z</time>
      </trkpt>
      <trkpt lat="49.997" lon="2.31899">
        <ele>132.5</ele>
        <time>2023-11-22T13:01:40Z</time>
      </trkpt>
      <trkpt lat="49.997" lon="2.31899">
        <ele>132.5</ele>
        <time>2023-11-22T13:01:41Z</time>
      </trkpt>
      <trkpt lat="49.99701" lon="2.31899">
        <ele>132.5</ele>
        <time>2023-11-22T13:01:42Z</time>
      </trkpt>
      <trkpt lat="49.99702" lon="2.31899">
        <ele>132.5</ele>
        <time>2023-11-22T13:01:43Z</time>
      </trkpt>
      <trkpt lat="49.99704" lon="2.31899">
        <ele>132.5</ele>
        <time>2023-11-22T13:01:45Z</time>
      </trkpt>
      <trkpt lat="49.99705" lon="2.31899">
        <ele>132.5</ele>
        <time>2023-11-22T13:01:46Z</time>
      </trkpt>
      <trkpt lat="49.99706" lon="2.31899">
        <ele>132.5</ele>
        <time>2023-11-22T13:01:47Z</time>
      </trkpt>
      <trkpt lat="49.99707" lon="2.31899">
        <ele>132.5</ele>
        <time>2023-11-22T13:01:49Z</time>
      </trkpt>
      <trkpt lat="49.99708" lon="2.31899">
        <ele>132.4</ele>
        <time>2023-11-22T13:01:50Z</time>
      </trkpt>
      <trkpt lat="49.9971" lon="2.31899">
        <ele>132.4</ele>
        <time>2023-11-22T13:01:51Z</time>
      </trkpt>
      <trkpt lat="49.9971" lon="2.31899">
        <ele>132.4</ele>
        <time>2023-11-22T13:01:52Z</time>
      </trkpt>
      <trkpt lat="49.99711" lon="2.31899">
        <ele>132.4</ele>
        <time>2023-11-22T13:01:53Z</time>
      </trkpt>
      <trkpt lat="49.99713" lon="2.319">
        <ele>132.4</ele>
        <time>2023-11-22T13:01:55Z</time>
      </trkpt>
      <trkpt lat="49.99714" lon="2.319">
        <ele>132.4</ele>
        <time>2023-11-22T13:01:56Z</time>
      </trkpt>
      <trkpt lat="49.99715" lon="2.31901">
        <ele>132.4</ele>
        <time>2023-11-22T13:01:57Z</time>
      </trkpt>
      <trkpt lat="49.99716" lon="2.31901">
        <ele>132.4</ele>
        <time>2023-11-22T13:01:58Z</time>
      </trkpt>
      <trkpt lat="49.99717" lon="2.31902">
        <ele>132.3</ele>
        <time>2023-11-22T13:01:59Z</time>
      </trkpt>
      <trkpt lat="49.99718" lon="2.31903">
        <ele>132.3</ele>
        <time>2023-11-22T13:02:00Z</time>
      </trkpt>
      <trkpt lat="49.99719" lon="2.31905">
        <ele>132.3</ele>
        <time>2023-11-22T13:02:01Z</time>
      </trkpt>
      <trkpt lat="49.9972" lon="2.31906">
        <ele>132.3</ele>
        <time>2023-11-22T13:02:03Z</time>
      </trkpt>
      <trkpt lat="49.99722" lon="2.31908">
        <ele>132.3</ele>
        <time>2023-11-22T13:02:04Z</time>
      </trkpt>
      <trkpt lat="49.99724" lon="2.3191">
        <ele>132.2</ele>
        <time>2023-11-22T13:02:06Z</time>
      </trkpt>
      <trkpt lat="49.99725" lon="2.31911">
        <ele>132.2</ele>
        <time>2023-11-22T13:02:07Z</time>
      </trkpt>
      <trkpt lat="49.99727" lon="2.31912">
        <ele>132.2</ele>
        <time>2023-11-22T13:02:08Z</time>
      </trkpt>
      <trkpt lat="49.99728" lon="2.31913">
        <ele>132.2</ele>
        <time>2023-11-22T13:02:09Z</time>
      </trkpt>
      <trkpt lat="49.9973" lon="2.31914">
        <ele>132.2</ele>
        <time>2023-11-22T13:02:11Z</time>
      </trkpt>
      <trkpt lat="49.99732" lon="2.31915">
        <ele>132.1</ele>
        <time>2023-11-22T13:02:13Z</time>
      </trkpt>
      <trkpt lat="49.99734" lon="2.31916">
        <ele>132.1</ele>
        <time>2023-11-22T13:02:15Z</time>
      </trkpt>
      <trkpt lat="49.99736" lon="2.31916">
        <ele>132.1</ele>
        <time>2023-11-22T13:02:16Z</time>
      </trkpt>
      <trkpt lat="49.99737" lon="2.31916">
        <ele>132.1</ele>
        <time>2023-11-22T13:02:17Z</time>
      </trkpt>
      <trkpt lat="49.99738" lon="2.31916">
        <ele>132.1</ele>
        <time>2023-11-22T13:02:19Z</time>
      </trkpt>
      <trkpt lat="49.99738" lon="2.31916">
        <ele>132.1</ele>
        <time>2023-11-22T13:02:20Z</time>
      </trkpt>
      <trkpt lat="49.99739" lon="2.31916">
        <ele>132</ele>
        <time>2023-11-22T13:02:21Z</time>
      </trkpt>
      <trkpt lat="49.9974" lon="2.31916">
        <ele>132</ele>
        <time>2023-11-22T13:02:23Z</time>
      </trkpt>
      <trkpt lat="49.9974" lon="2.31916">
        <ele>132</ele>
        <time>2023-11-22T13:02:24Z</time>
      </trkpt>
      <trkpt lat="49.99741" lon="2.31916">
        <ele>132</ele>
        <time>2023-11-22T13:02:25Z</time>
      </trkpt>
      <trkpt lat="49.99741" lon="2.31916">
        <ele>132</ele>
        <time>2023-11-22T13:02:26Z</time>
      </trkpt>
      <trkpt lat="49.99742" lon="2.31916">
        <ele>132</ele>
        <time>2023-11-22T13:02:27Z</time>
      </trkpt>
      <trkpt lat="49.99742" lon="2.31916">
        <ele>132</ele>
        <time>2023-11-22T13:02:28Z</time>
      </trkpt>
      <trkpt lat="49.99743" lon="2.31916">
        <ele>132</ele>
        <time>2023-11-22T13:02:29Z</time>
      </trkpt>
      <trkpt lat="49.99744" lon="2.31916">
        <ele>132</ele>
        <time>2023-11-22T13:02:30Z</time>
      </trkpt>
      <trkpt lat="49.99745" lon="2.31917">
        <ele>132</ele>
        <time>2023-11-22T13:02:32Z</time>
      </trkpt>
      <trkpt lat="49.99746" lon="2.31918">
        <ele>132</ele>
        <time>2023-11-22T13:02:34Z</time>
      </trkpt>
      <trkpt lat="49.99746" lon="2.31918">
        <ele>132</ele>
        <time>2023-11-22T13:02:35Z</time>
      </trkpt>
      <trkpt lat="49.99746" lon="2.31919">
        <ele>132</ele>
        <time>2023-11-22T13:02:36Z</time>
      </trkpt>
      <trkpt lat="49.99746" lon="2.31919">
        <ele>132</ele>
        <time>2023-11-22T13:02:37Z</time>
      </trkpt>
      <trkpt lat="49.99746" lon="2.3192">
        <ele>132</ele>
        <time>2023-11-22T13:02:38Z</time>
      </trkpt>
      <trkpt lat="49.99745" lon="2.31921">
        <ele>132</ele>
        <time>2023-11-22T13:02:39Z</time>
      </trkpt>
      <trkpt lat="49.99744" lon="2.31922">
        <ele>132</ele>
        <time>2023-11-22T13:02:40Z</time>
      </trkpt>
      <trkpt lat="49.99743" lon="2.31924">
        <ele>132</ele>
        <time>2023-11-22T13:02:41Z</time>
      </trkpt>
      <trkpt lat="49.99742" lon="2.31929">
        <ele>132</ele>
        <time>2023-11-22T13:02:43Z</time>
      </trkpt>
      <trkpt lat="49.99739" lon="2.31934">
        <ele>132.1</ele>
        <time>2023-11-22T13:02:44Z</time>
      </trkpt>
      <trkpt lat="49.99737" lon="2.31939">
        <ele>132.1</ele>
        <time>2023-11-22T13:02:46Z</time>
      </trkpt>
      <trkpt lat="49.99736" lon="2.31944">
        <ele>132.1</ele>
        <time>2023-11-22T13:02:47Z</time>
      </trkpt>
      <trkpt lat="49.99736" lon="2.31945">
        <ele>132.1</ele>
        <time>2023-11-22T13:02:48Z</time>
      </trkpt>
      <trkpt lat="49.99735" lon="2.3195">
        <ele>132.2</ele>
        <time>2023-11-22T13:02:49Z</time>
      </trkpt>
      <trkpt lat="49.99734" lon="2.31951">
        <ele>132.2</ele>
        <time>2023-11-22T13:02:50Z</time>
      </trkpt>
      <trkpt lat="49.99734" lon="2.31954">
        <ele>132.2</ele>
        <time>2023-11-22T13:02:51Z</time>
      </trkpt>
      <trkpt lat="49.99733" lon="2.31957">
        <ele>132.2</ele>
        <time>2023-11-22T13:02:53Z</time>
      </trkpt>
      <trkpt lat="49.99732" lon="2.31962">
        <ele>132.2</ele>
        <time>2023-11-22T13:02:54Z</time>
      </trkpt>
      <trkpt lat="49.99732" lon="2.31963">
        <ele>132.3</ele>
        <time>2023-11-22T13:02:55Z</time>
      </trkpt>
      <trkpt lat="49.99731" lon="2.31966">
        <ele>132.3</ele>
        <time>2023-11-22T13:02:56Z</time>
      </trkpt>
      <trkpt lat="49.99731" lon="2.31968">
        <ele>132.3</ele>
        <time>2023-11-22T13:02:57Z</time>
      </trkpt>
      <trkpt lat="49.9973" lon="2.31972">
        <ele>132.3</ele>
        <time>2023-11-22T13:02:59Z</time>
      </trkpt>
      <trkpt lat="49.99729" lon="2.31974">
        <ele>132.3</ele>
        <time>2023-11-22T13:03:00Z</time>
      </trkpt>
      <trkpt lat="49.99729" lon="2.31975">
        <ele>132.3</ele>
        <time>2023-11-22T13:03:02Z</time>
      </trkpt>
      <trkpt lat="49.99728" lon="2.31977">
        <ele>132.3</ele>
        <time>2023-11-22T13:03:03Z</time>
      </trkpt>
      <trkpt lat="49.99727" lon="2.31979">
        <ele>132.4</ele>
        <time>2023-11-22T13:03:04Z</time>
      </trkpt>
      <trkpt lat="49.99727" lon="2.31979">
        <ele>132.4</ele>
        <time>2023-11-22T13:03:05Z</time>
      </trkpt>
      <trkpt lat="49.99726" lon="2.3198">
        <ele>132.4</ele>
        <time>2023-11-22T13:03:06Z</time>
      </trkpt>
      <trkpt lat="49.99726" lon="2.31983">
        <ele>132.4</ele>
        <time>2023-11-22T13:03:08Z</time>
      </trkpt>
      <trkpt lat="49.99726" lon="2.31984">
        <ele>132.4</ele>
        <time>2023-11-22T13:03:09Z</time>
      </trkpt>
      <trkpt lat="49.99725" lon="2.31986">
        <ele>132.4</ele>
        <time>2023-11-22T13:03:10Z</time>
      </trkpt>
      <trkpt lat="49.99725" lon="2.31988">
        <ele>132.4</ele>
        <time>2023-11-22T13:03:12Z</time>
      </trkpt>
      <trkpt lat="49.99725" lon="2.31989">
        <ele>132.4</ele>
        <time>2023-11-22T13:03:13Z</time>
      </trkpt>
      <trkpt lat="49.99724" lon="2.3199">
        <ele>132.4</ele>
        <time>2023-11-22T13:03:14Z</time>
      </trkpt>
      <trkpt lat="49.99724" lon="2.31992">
        <ele>132.4</ele>
        <time>2023-11-22T13:03:15Z</time>
      </trkpt>
      <trkpt lat="49.99723" lon="2.31995">
        <ele>132.5</ele>
        <time>2023-11-22T13:03:16Z</time>
      </trkpt>
      <trkpt lat="49.99723" lon="2.31998">
        <ele>132.5</ele>
        <time>2023-11-22T13:03:17Z</time>
      </trkpt>
      <trkpt lat="49.99723" lon="2.32">
        <ele>132.5</ele>
        <time>2023-11-22T13:03:18Z</time>
      </trkpt>
      <trkpt lat="49.99723" lon="2.32004">
        <ele>132.5</ele>
        <time>2023-11-22T13:03:20Z</time>
      </trkpt>
      <trkpt lat="49.99722" lon="2.32009">
        <ele>132.5</ele>
        <time>2023-11-22T13:03:21Z</time>
      </trkpt>
      <trkpt lat="49.99722" lon="2.3201">
        <ele>132.5</ele>
        <time>2023-11-22T13:03:22Z</time>
      </trkpt>
      <trkpt lat="49.99722" lon="2.32013">
        <ele>132.6</ele>
        <time>2023-11-22T13:03:23Z</time>
      </trkpt>
      <trkpt lat="49.99722" lon="2.32017">
        <ele>132.6</ele>
        <time>2023-11-22T13:03:25Z</time>
      </trkpt>
      <trkpt lat="49.99722" lon="2.32019">
        <ele>132.6</ele>
        <time>2023-11-22T13:03:26Z</time>
      </trkpt>
      <trkpt lat="49.99723" lon="2.32022">
        <ele>132.6</ele>
        <time>2023-11-22T13:03:27Z</time>
      </trkpt>
      <trkpt lat="49.99723" lon="2.32024">
        <ele>132.6</ele>
        <time>2023-11-22T13:03:28Z</time>
      </trkpt>
      <trkpt lat="49.99724" lon="2.32027">
        <ele>132.7</ele>
        <time>2023-11-22T13:03:30Z</time>
      </trkpt>
      <trkpt lat="49.99724" lon="2.3203">
        <ele>132.7</ele>
        <time>2023-11-22T13:03:31Z</time>
      </trkpt>
      <trkpt lat="49.99725" lon="2.32032">
        <ele>132.7</ele>
        <time>2023-11-22T13:03:32Z</time>
      </trkpt>
      <trkpt lat="49.99725" lon="2.32035">
        <ele>132.7</ele>
        <time>2023-11-22T13:03:34Z</time>
      </trkpt>
      <trkpt lat="49.99725" lon="2.32037">
        <ele>132.7</ele>
        <time>2023-11-22T13:03:35Z</time>
      </trkpt>
      <trkpt lat="49.99726" lon="2.32039">
        <ele>132.7</ele>
        <time>2023-11-22T13:03:36Z</time>
      </trkpt>
      <trkpt lat="49.99726" lon="2.32041">
        <ele>132.7</ele>
        <time>2023-11-22T13:03:37Z</time>
      </trkpt>
      <trkpt lat="49.99726" lon="2.32042">
        <ele>132.7</ele>
        <time>2023-11-22T13:03:38Z</time>
      </trkpt>
      <trkpt lat="49.99726" lon="2.32044">
        <ele>132.8</ele>
        <time>2023-11-22T13:03:39Z</time>
      </trkpt>
      <trkpt lat="49.99727" lon="2.32046">
        <ele>132.8</ele>
        <time>2023-11-22T13:03:41Z</time>
      </trkpt>
      <trkpt lat="49.99727" lon="2.32048">
        <ele>132.8</ele>
        <time>2023-11-22T13:03:42Z</time>
      </trkpt>
      <trkpt lat="49.99727" lon="2.32049">
        <ele>132.8</ele>
        <time>2023-11-22T13:03:43Z</time>
      </trkpt>
      <trkpt lat="49.99728" lon="2.32052">
        <ele>132.8</ele>
        <time>2023-11-22T13:03:45Z</time>
      </trkpt>
      <trkpt lat="49.99728" lon="2.32054">
        <ele>132.8</ele>
        <time>2023-11-22T13:03:46Z</time>
      </trkpt>
      <trkpt lat="49.99729" lon="2.32056">
        <ele>132.8</ele>
        <time>2023-11-22T13:03:47Z</time>
      </trkpt>
      <trkpt lat="49.99729" lon="2.32058">
        <ele>132.8</ele>
        <time>2023-11-22T13:03:48Z</time>
      </trkpt>
      <trkpt lat="49.9973" lon="2.32059">
        <ele>132.8</ele>
        <time>2023-11-22T13:03:49Z</time>
      </trkpt>
      <trkpt lat="49.9973" lon="2.32061">
        <ele>132.9</ele>
        <time>2023-11-22T13:03:50Z</time>
      </trkpt>
      <trkpt lat="49.99731" lon="2.32063">
        <ele>132.9</ele>
        <time>2023-11-22T13:03:51Z</time>
      </trkpt>
      <trkpt lat="49.99731" lon="2.32064">
        <ele>132.9</ele>
        <time>2023-11-22T13:03:52Z</time>
      </trkpt>
      <trkpt lat="49.99732" lon="2.32067">
        <ele>132.9</ele>
        <time>2023-11-22T13:03:54Z</time>
      </trkpt>
      <trkpt lat="49.99733" lon="2.3207">
        <ele>132.9</ele>
        <time>2023-11-22T13:03:55Z</time>
      </trkpt>
      <trkpt lat="49.99733" lon="2.32071">
        <ele>132.9</ele>
        <time>2023-11-22T13:03:56Z</time>
      </trkpt>
      <trkpt lat="49.99734" lon="2.32073">
        <ele>132.9</ele>
        <time>2023-11-22T13:03:57Z</time>
      </trkpt>
      <trkpt lat="49.99734" lon="2.32075">
        <ele>133</ele>
        <time>2023-11-22T13:03:58Z</time>
      </trkpt>
      <trkpt lat="49.99735" lon="2.32078">
        <ele>133</ele>
        <time>2023-11-22T13:04:00Z</time>
      </trkpt>
      <trkpt lat="49.99736" lon="2.32081">
        <ele>133</ele>
        <time>2023-11-22T13:04:01Z</time>
      </trkpt>
      <trkpt lat="49.99736" lon="2.32082">
        <ele>133</ele>
        <time>2023-11-22T13:04:02Z</time>
      </trkpt>
      <trkpt lat="49.99737" lon="2.32083">
        <ele>133</ele>
        <time>2023-11-22T13:04:03Z</time>
      </trkpt>
      <trkpt lat="49.99737" lon="2.32085">
        <ele>133</ele>
        <time>2023-11-22T13:04:04Z</time>
      </trkpt>
      <trkpt lat="49.99738" lon="2.32087">
        <ele>133</ele>
        <time>2023-11-22T13:04:05Z</time>
      </trkpt>
      <trkpt lat="49.99738" lon="2.32089">
        <ele>133</ele>
        <time>2023-11-22T13:04:07Z</time>
      </trkpt>
      <trkpt lat="49.99739" lon="2.32091">
        <ele>133.1</ele>
        <time>2023-11-22T13:04:08Z</time>
      </trkpt>
      <trkpt lat="49.99739" lon="2.32093">
        <ele>133.1</ele>
        <time>2023-11-22T13:04:09Z</time>
      </trkpt>
      <trkpt lat="49.9974" lon="2.32096">
        <ele>133.1</ele>
        <time>2023-11-22T13:04:11Z</time>
      </trkpt>
      <trkpt lat="49.99741" lon="2.32097">
        <ele>133.1</ele>
        <time>2023-11-22T13:04:12Z</time>
      </trkpt>
      <trkpt lat="49.99741" lon="2.321">
        <ele>133.1</ele>
        <time>2023-11-22T13:04:13Z</time>
      </trkpt>
      <trkpt lat="49.99742" lon="2.32102">
        <ele>133.1</ele>
        <time>2023-11-22T13:04:14Z</time>
      </trkpt>
      <trkpt lat="49.99742" lon="2.32105">
        <ele>133.1</ele>
        <time>2023-11-22T13:04:16Z</time>
      </trkpt>
      <trkpt lat="49.99743" lon="2.32106">
        <ele>133.2</ele>
        <time>2023-11-22T13:04:17Z</time>
      </trkpt>
      <trkpt lat="49.99743" lon="2.32108">
        <ele>133.2</ele>
        <time>2023-11-22T13:04:18Z</time>
      </trkpt>
      <trkpt lat="49.99743" lon="2.32111">
        <ele>133.2</ele>
        <time>2023-11-22T13:04:20Z</time>
      </trkpt>
      <trkpt lat="49.99744" lon="2.32113">
        <ele>133.2</ele>
        <time>2023-11-22T13:04:21Z</time>
      </trkpt>
      <trkpt lat="49.99744" lon="2.32115">
        <ele>133.2</ele>
        <time>2023-11-22T13:04:22Z</time>
      </trkpt>
      <trkpt lat="49.99745" lon="2.32118">
        <ele>133.2</ele>
        <time>2023-11-22T13:04:24Z</time>
      </trkpt>
      <trkpt lat="49.99745" lon="2.32121">
        <ele>133.2</ele>
        <time>2023-11-22T13:04:25Z</time>
      </trkpt>
      <trkpt lat="49.99746" lon="2.32124">
        <ele>133.3</ele>
        <time>2023-11-22T13:04:27Z</time>
      </trkpt>
      <trkpt lat="49.99746" lon="2.32126">
        <ele>133.3</ele>
        <time>2023-11-22T13:04:28Z</time>
      </trkpt>
      <trkpt lat="49.99747" lon="2.32127">
        <ele>133.3</ele>
        <time>2023-11-22T13:04:29Z</time>
      </trkpt>
      <trkpt lat="49.99747" lon="2.32129">
        <ele>133.3</ele>
        <time>2023-11-22T13:04:30Z</time>
      </trkpt>
      <trkpt lat="49.99747" lon="2.3213">
        <ele>133.3</ele>
        <time>2023-11-22T13:04:31Z</time>
      </trkpt>
      <trkpt lat="49.99748" lon="2.32132">
        <ele>133.3</ele>
        <time>2023-11-22T13:04:32Z</time>
      </trkpt>
      <trkpt lat="49.99748" lon="2.32134">
        <ele>133.3</ele>
        <time>2023-11-22T13:04:33Z</time>
      </trkpt>
      <trkpt lat="49.99748" lon="2.32136">
        <ele>133.3</ele>
        <time>2023-11-22T13:04:35Z</time>
      </trkpt>
      <trkpt lat="49.99749" lon="2.32138">
        <ele>133.4</ele>
        <time>2023-11-22T13:04:36Z</time>
      </trkpt>
      <trkpt lat="49.99749" lon="2.32141">
        <ele>133.4</ele>
        <time>2023-11-22T13:04:37Z</time>
      </trkpt>
      <trkpt lat="49.9975" lon="2.32144">
        <ele>133.4</ele>
        <time>2023-11-22T13:04:39Z</time>
      </trkpt>
      <trkpt lat="49.9975" lon="2.32146">
        <ele>133.4</ele>
        <time>2023-11-22T13:04:40Z</time>
      </trkpt>
      <trkpt lat="49.9975" lon="2.32148">
        <ele>133.4</ele>
        <time>2023-11-22T13:04:41Z</time>
      </trkpt>
      <trkpt lat="49.99751" lon="2.3215">
        <ele>133.4</ele>
        <time>2023-11-22T13:04:42Z</time>
      </trkpt>
      <trkpt lat="49.99751" lon="2.32152">
        <ele>133.4</ele>
        <time>2023-11-22T13:04:43Z</time>
      </trkpt>
      <trkpt lat="49.99751" lon="2.32154">
        <ele>133.4</ele>
        <time>2023-11-22T13:04:44Z</time>
      </trkpt>
      <trkpt lat="49.99752" lon="2.32155">
        <ele>133.5</ele>
        <time>2023-11-22T13:04:45Z</time>
      </trkpt>
      <trkpt lat="49.99752" lon="2.32157">
        <ele>133.5</ele>
        <time>2023-11-22T13:04:46Z</time>
      </trkpt>
      <trkpt lat="49.99753" lon="2.3216">
        <ele>133.5</ele>
        <time>2023-11-22T13:04:48Z</time>
      </trkpt>
      <trkpt lat="49.99753" lon="2.32162">
        <ele>133.5</ele>
        <time>2023-11-22T13:04:49Z</time>
      </trkpt>
      <trkpt lat="49.99754" lon="2.32164">
        <ele>133.5</ele>
        <time>2023-11-22T13:04:50Z</time>
      </trkpt>
      <trkpt lat="49.99755" lon="2.32167">
        <ele>133.5</ele>
        <time>2023-11-22T13:04:52Z</time>
      </trkpt>
      <trkpt lat="49.99755" lon="2.32169">
        <ele>133.5</ele>
        <time>2023-11-22T13:04:53Z</time>
      </trkpt>
      <trkpt lat="49.99755" lon="2.32172">
        <ele>133.6</ele>
        <time>2023-11-22T13:04:54Z</time>
      </trkpt>
      <trkpt lat="49.99756" lon="2.32173">
        <ele>133.6</ele>
        <time>2023-11-22T13:04:55Z</time>
      </trkpt>
      <trkpt lat="49.99756" lon="2.32174">
        <ele>133.6</ele>
        <time>2023-11-22T13:04:56Z</time>
      </trkpt>
      <trkpt lat="49.99756" lon="2.32176">
        <ele>133.6</ele>
        <time>2023-11-22T13:04:57Z</time>
      </trkpt>
      <trkpt lat="49.99756" lon="2.32178">
        <ele>133.6</ele>
        <time>2023-11-22T13:04:58Z</time>
      </trkpt>
      <trkpt lat="49.99756" lon="2.32179">
        <ele>133.6</ele>
        <time>2023-11-22T13:04:59Z</time>
      </trkpt>
      <trkpt lat="49.99756" lon="2.32182">
        <ele>133.6</ele>
        <time>2023-11-22T13:05:01Z</time>
      </trkpt>
      <trkpt lat="49.99757" lon="2.32185">
        <ele>133.6</ele>
        <time>2023-11-22T13:05:02Z</time>
      </trkpt>
      <trkpt lat="49.99757" lon="2.32188">
        <ele>133.7</ele>
        <time>2023-11-22T13:05:03Z</time>
      </trkpt>
      <trkpt lat="49.99757" lon="2.3219">
        <ele>133.7</ele>
        <time>2023-11-22T13:05:04Z</time>
      </trkpt>
      <trkpt lat="49.99757" lon="2.32195">
        <ele>133.7</ele>
        <time>2023-11-22T13:05:06Z</time>
      </trkpt>
      <trkpt lat="49.99757" lon="2.32196">
        <ele>133.7</ele>
        <time>2023-11-22T13:05:07Z</time>
      </trkpt>
      <trkpt lat="49.99757" lon="2.322">
        <ele>133.7</ele>
        <time>2023-11-22T13:05:09Z</time>
      </trkpt>
      <trkpt lat="49.99757" lon="2.32202">
        <ele>133.7</ele>
        <time>2023-11-22T13:05:10Z</time>
      </trkpt>
      <trkpt lat="49.99757" lon="2.32203">
        <ele>133.8</ele>
        <time>2023-11-22T13:05:11Z</time>
      </trkpt>
      <trkpt lat="49.99757" lon="2.32205">
        <ele>133.8</ele>
        <time>2023-11-22T13:05:12Z</time>
      </trkpt>
      <trkpt lat="49.99757" lon="2.32207">
        <ele>133.8</ele>
        <time>2023-11-22T13:05:13Z</time>
      </trkpt>
      <trkpt lat="49.99757" lon="2.32208">
        <ele>133.8</ele>
        <time>2023-11-22T13:05:14Z</time>
      </trkpt>
      <trkpt lat="49.99757" lon="2.3221">
        <ele>133.8</ele>
        <time>2023-11-22T13:05:15Z</time>
      </trkpt>
      <trkpt lat="49.99757" lon="2.32212">
        <ele>133.8</ele>
        <time>2023-11-22T13:05:16Z</time>
      </trkpt>
      <trkpt lat="49.99757" lon="2.32214">
        <ele>133.8</ele>
        <time>2023-11-22T13:05:17Z</time>
      </trkpt>
      <trkpt lat="49.99758" lon="2.32217">
        <ele>133.8</ele>
        <time>2023-11-22T13:05:19Z</time>
      </trkpt>
      <trkpt lat="49.99758" lon="2.32219">
        <ele>133.8</ele>
        <time>2023-11-22T13:05:20Z</time>
      </trkpt>
      <trkpt lat="49.99759" lon="2.32222">
        <ele>133.9</ele>
        <time>2023-11-22T13:05:22Z</time>
      </trkpt>
      <trkpt lat="49.99759" lon="2.32224">
        <ele>133.9</ele>
        <time>2023-11-22T13:05:23Z</time>
      </trkpt>
      <trkpt lat="49.9976" lon="2.32226">
        <ele>133.9</ele>
        <time>2023-11-22T13:05:24Z</time>
      </trkpt>
      <trkpt lat="49.9976" lon="2.32227">
        <ele>133.9</ele>
        <time>2023-11-22T13:05:25Z</time>
      </trkpt>
      <trkpt lat="49.99761" lon="2.32229">
        <ele>133.9</ele>
        <time>2023-11-22T13:05:26Z</time>
      </trkpt>
      <trkpt lat="49.99761" lon="2.3223">
        <ele>133.9</ele>
        <time>2023-11-22T13:05:27Z</time>
      </trkpt>
      <trkpt lat="49.99761" lon="2.32232">
        <ele>133.9</ele>
        <time>2023-11-22T13:05:28Z</time>
      </trkpt>
      <trkpt lat="49.99761" lon="2.32233">
        <ele>133.9</ele>
        <time>2023-11-22T13:05:29Z</time>
      </trkpt>
      <trkpt lat="49.99762" lon="2.32234">
        <ele>133.9</ele>
        <time>2023-11-22T13:05:30Z</time>
      </trkpt>
      <trkpt lat="49.99762" lon="2.32236">
        <ele>134</ele>
        <time>2023-11-22T13:05:31Z</time>
      </trkpt>
      <trkpt lat="49.99762" lon="2.32238">
        <ele>134</ele>
        <time>2023-11-22T13:05:32Z</time>
      </trkpt>
      <trkpt lat="49.99762" lon="2.32241">
        <ele>134</ele>
        <time>2023-11-22T13:05:34Z</time>
      </trkpt>
      <trkpt lat="49.99763" lon="2.32243">
        <ele>134</ele>
        <time>2023-11-22T13:05:35Z</time>
      </trkpt>
      <trkpt lat="49.99763" lon="2.32245">
        <ele>134</ele>
        <time>2023-11-22T13:05:36Z</time>
      </trkpt>
      <trkpt lat="49.99764" lon="2.32247">
        <ele>134</ele>
        <time>2023-11-22T13:05:38Z</time>
      </trkpt>
      <trkpt lat="49.99764" lon="2.32249">
        <ele>134</ele>
        <time>2023-11-22T13:05:39Z</time>
      </trkpt>
      <trkpt lat="49.99765" lon="2.3225">
        <ele>134</ele>
        <time>2023-11-22T13:05:40Z</time>
      </trkpt>
      <trkpt lat="49.99765" lon="2.32253">
        <ele>134.1</ele>
        <time>2023-11-22T13:05:41Z</time>
      </trkpt>
      <trkpt lat="49.99766" lon="2.32255">
        <ele>134.1</ele>
        <time>2023-11-22T13:05:42Z</time>
      </trkpt>
      <trkpt lat="49.99766" lon="2.32256">
        <ele>134.1</ele>
        <time>2023-11-22T13:05:43Z</time>
      </trkpt>
      <trkpt lat="49.99767" lon="2.32259">
        <ele>134.1</ele>
        <time>2023-11-22T13:05:44Z</time>
      </trkpt>
      <trkpt lat="49.99768" lon="2.32261">
        <ele>134.1</ele>
        <time>2023-11-22T13:05:45Z</time>
      </trkpt>
      <trkpt lat="49.99768" lon="2.32262">
        <ele>134.1</ele>
        <time>2023-11-22T13:05:46Z</time>
      </trkpt>
      <trkpt lat="49.99769" lon="2.32265">
        <ele>134.1</ele>
        <time>2023-11-22T13:05:48Z</time>
      </trkpt>
      <trkpt lat="49.99769" lon="2.32267">
        <ele>134.1</ele>
        <time>2023-11-22T13:05:49Z</time>
      </trkpt>
      <trkpt lat="49.99769" lon="2.32268">
        <ele>134.2</ele>
        <time>2023-11-22T13:05:50Z</time>
      </trkpt>
      <trkpt lat="49.9977" lon="2.3227">
        <ele>134.2</ele>
        <time>2023-11-22T13:05:51Z</time>
      </trkpt>
      <trkpt lat="49.9977" lon="2.32272">
        <ele>134.2</ele>
        <time>2023-11-22T13:05:53Z</time>
      </trkpt>
      <trkpt lat="49.9977" lon="2.32274">
        <ele>134.2</ele>
        <time>2023-11-22T13:05:54Z</time>
      </trkpt>
      <trkpt lat="49.99771" lon="2.32276">
        <ele>134.2</ele>
        <time>2023-11-22T13:05:55Z</time>
      </trkpt>
      <trkpt lat="49.99771" lon="2.32277">
        <ele>134.2</ele>
        <time>2023-11-22T13:05:56Z</time>
      </trkpt>
      <trkpt lat="49.99771" lon="2.32279">
        <ele>134.2</ele>
        <time>2023-11-22T13:05:57Z</time>
      </trkpt>
      <trkpt lat="49.99771" lon="2.32281">
        <ele>134.2</ele>
        <time>2023-11-22T13:05:58Z</time>
      </trkpt>
      <trkpt lat="49.99772" lon="2.32283">
        <ele>134.2</ele>
        <time>2023-11-22T13:05:59Z</time>
      </trkpt>
      <trkpt lat="49.99772" lon="2.32285">
        <ele>134.3</ele>
        <time>2023-11-22T13:06:00Z</time>
      </trkpt>
      <trkpt lat="49.99772" lon="2.32287">
        <ele>134.3</ele>
        <time>2023-11-22T13:06:01Z</time>
      </trkpt>
      <trkpt lat="49.99772" lon="2.3229">
        <ele>134.3</ele>
        <time>2023-11-22T13:06:02Z</time>
      </trkpt>
      <trkpt lat="49.99772" lon="2.32293">
        <ele>134.3</ele>
        <time>2023-11-22T13:06:03Z</time>
      </trkpt>
      <trkpt lat="49.99772" lon="2.32295">
        <ele>134.3</ele>
        <time>2023-11-22T13:06:04Z</time>
      </trkpt>
      <trkpt lat="49.99772" lon="2.32299">
        <ele>134.4</ele>
        <time>2023-11-22T13:06:06Z</time>
      </trkpt>
      <trkpt lat="49.99771" lon="2.32302">
        <ele>134.4</ele>
        <time>2023-11-22T13:06:07Z</time>
      </trkpt>
      <trkpt lat="49.9977" lon="2.32305">
        <ele>134.5</ele>
        <time>2023-11-22T13:06:09Z</time>
      </trkpt>
      <trkpt lat="49.9977" lon="2.32307">
        <ele>134.5</ele>
        <time>2023-11-22T13:06:10Z</time>
      </trkpt>
      <trkpt lat="49.9977" lon="2.32308">
        <ele>134.5</ele>
        <time>2023-11-22T13:06:11Z</time>
      </trkpt>
      <trkpt lat="49.99769" lon="2.3231">
        <ele>134.6</ele>
        <time>2023-11-22T13:06:12Z</time>
      </trkpt>
      <trkpt lat="49.99768" lon="2.32312">
        <ele>134.6</ele>
        <time>2023-11-22T13:06:13Z</time>
      </trkpt>
      <trkpt lat="49.99767" lon="2.32313">
        <ele>134.6</ele>
        <time>2023-11-22T13:06:14Z</time>
      </trkpt>
      <trkpt lat="49.99766" lon="2.32315">
        <ele>134.7</ele>
        <time>2023-11-22T13:06:16Z</time>
      </trkpt>
      <trkpt lat="49.99766" lon="2.32317">
        <ele>134.7</ele>
        <time>2023-11-22T13:06:17Z</time>
      </trkpt>
      <trkpt lat="49.99764" lon="2.32318">
        <ele>134.7</ele>
        <time>2023-11-22T13:06:18Z</time>
      </trkpt>
      <trkpt lat="49.99762" lon="2.32319">
        <ele>134.8</ele>
        <time>2023-11-22T13:06:19Z</time>
      </trkpt>
      <trkpt lat="49.99761" lon="2.32321">
        <ele>134.8</ele>
        <time>2023-11-22T13:06:21Z</time>
      </trkpt>
      <trkpt lat="49.99759" lon="2.32322">
        <ele>134.8</ele>
        <time>2023-11-22T13:06:22Z</time>
      </trkpt>
      <trkpt lat="49.99758" lon="2.32324">
        <ele>134.9</ele>
        <time>2023-11-22T13:06:23Z</time>
      </trkpt>
      <trkpt lat="49.99755" lon="2.32326">
        <ele>135</ele>
        <time>2023-11-22T13:06:25Z</time>
      </trkpt>
      <trkpt lat="49.99754" lon="2.32326">
        <ele>135</ele>
        <time>2023-11-22T13:06:26Z</time>
      </trkpt>
      <trkpt lat="49.99751" lon="2.32328">
        <ele>135</ele>
        <time>2023-11-22T13:06:27Z</time>
      </trkpt>
      <trkpt lat="49.9975" lon="2.32328">
        <ele>135.1</ele>
        <time>2023-11-22T13:06:28Z</time>
      </trkpt>
      <trkpt lat="49.99748" lon="2.32329">
        <ele>135.1</ele>
        <time>2023-11-22T13:06:30Z</time>
      </trkpt>
      <trkpt lat="49.99747" lon="2.3233">
        <ele>135.1</ele>
        <time>2023-11-22T13:06:31Z</time>
      </trkpt>
      <trkpt lat="49.99745" lon="2.32331">
        <ele>135.2</ele>
        <time>2023-11-22T13:06:32Z</time>
      </trkpt>
      <trkpt lat="49.99744" lon="2.32332">
        <ele>135.2</ele>
        <time>2023-11-22T13:06:34Z</time>
      </trkpt>
      <trkpt lat="49.99743" lon="2.32333">
        <ele>135.2</ele>
        <time>2023-11-22T13:06:35Z</time>
      </trkpt>
      <trkpt lat="49.99742" lon="2.32334">
        <ele>135.3</ele>
        <time>2023-11-22T13:06:36Z</time>
      </trkpt>
      <trkpt lat="49.99741" lon="2.32335">
        <ele>135.3</ele>
        <time>2023-11-22T13:06:37Z</time>
      </trkpt>
      <trkpt lat="49.9974" lon="2.32336">
        <ele>135.3</ele>
        <time>2023-11-22T13:06:38Z</time>
      </trkpt>
      <trkpt lat="49.99739" lon="2.32338">
        <ele>135.4</ele>
        <time>2023-11-22T13:06:39Z</time>
      </trkpt>
      <trkpt lat="49.99738" lon="2.32339">
        <ele>135.4</ele>
        <time>2023-11-22T13:06:40Z</time>
      </trkpt>
      <trkpt lat="49.99736" lon="2.3234">
        <ele>135.4</ele>
        <time>2023-11-22T13:06:41Z</time>
      </trkpt>
      <trkpt lat="49.99735" lon="2.32342">
        <ele>135.5</ele>
        <time>2023-11-22T13:06:43Z</time>
      </trkpt>
      <trkpt lat="49.99733" lon="2.32343">
        <ele>135.5</ele>
        <time>2023-11-22T13:06:44Z</time>
      </trkpt>
      <trkpt lat="49.99731" lon="2.32344">
        <ele>135.6</ele>
        <time>2023-11-22T13:06:45Z</time>
      </trkpt>
      <trkpt lat="49.99731" lon="2.32344">
        <ele>135.6</ele>
        <time>2023-11-22T13:06:46Z</time>
      </trkpt>
      <trkpt lat="49.9973" lon="2.32345">
        <ele>135.6</ele>
        <time>2023-11-22T13:06:47Z</time>
      </trkpt>
      <trkpt lat="49.99729" lon="2.32346">
        <ele>135.6</ele>
        <time>2023-11-22T13:06:48Z</time>
      </trkpt>
      <trkpt lat="49.99728" lon="2.32346">
        <ele>135.6</ele>
        <time>2023-11-22T13:06:49Z</time>
      </trkpt>
      <trkpt lat="49.99727" lon="2.32347">
        <ele>135.7</ele>
        <time>2023-11-22T13:06:51Z</time>
      </trkpt>
      <trkpt lat="49.99726" lon="2.32347">
        <ele>135.7</ele>
        <time>2023-11-22T13:06:52Z</time>
      </trkpt>
      <trkpt lat="49.99725" lon="2.32347">
        <ele>135.7</ele>
        <time>2023-11-22T13:06:53Z</time>
      </trkpt>
      <trkpt lat="49.99723" lon="2.32347">
        <ele>135.8</ele>
        <time>2023-11-22T13:06:54Z</time>
      </trkpt>
      <trkpt lat="49.99722" lon="2.32347">
        <ele>135.8</ele>
        <time>2023-11-22T13:06:55Z</time>
      </trkpt>
      <trkpt lat="49.99719" lon="2.32348">
        <ele>135.9</ele>
        <time>2023-11-22T13:06:57Z</time>
      </trkpt>
      <trkpt lat="49.99718" lon="2.32348">
        <ele>135.9</ele>
        <time>2023-11-22T13:06:58Z</time>
      </trkpt>
      <trkpt lat="49.99717" lon="2.32349">
        <ele>135.9</ele>
        <time>2023-11-22T13:06:59Z</time>
      </trkpt>
      <trkpt lat="49.99715" lon="2.3235">
        <ele>136</ele>
        <time>2023-11-22T13:07:00Z</time>
      </trkpt>
      <trkpt lat="49.99714" lon="2.32351">
        <ele>136</ele>
        <time>2023-11-22T13:07:02Z</time>
      </trkpt>
      <trkpt lat="49.99713" lon="2.32351">
        <ele>136</ele>
        <time>2023-11-22T13:07:03Z</time>
      </trkpt>
      <trkpt lat="49.99712" lon="2.32352">
        <ele>136.1</ele>
        <time>2023-11-22T13:07:04Z</time>
      </trkpt>
      <trkpt lat="49.9971" lon="2.32353">
        <ele>136.1</ele>
        <time>2023-11-22T13:07:05Z</time>
      </trkpt>
      <trkpt lat="49.99709" lon="2.32354">
        <ele>136.1</ele>
        <time>2023-11-22T13:07:06Z</time>
      </trkpt>
      <trkpt lat="49.99708" lon="2.32355">
        <ele>136.1</ele>
        <time>2023-11-22T13:07:07Z</time>
      </trkpt>
      <trkpt lat="49.99707" lon="2.32356">
        <ele>136.1</ele>
        <time>2023-11-22T13:07:08Z</time>
      </trkpt>
      <trkpt lat="49.99705" lon="2.32357">
        <ele>136.2</ele>
        <time>2023-11-22T13:07:10Z</time>
      </trkpt>
      <trkpt lat="49.99704" lon="2.32358">
        <ele>136.2</ele>
        <time>2023-11-22T13:07:11Z</time>
      </trkpt>
      <trkpt lat="49.99703" lon="2.32358">
        <ele>136.2</ele>
        <time>2023-11-22T13:07:12Z</time>
      </trkpt>
      <trkpt lat="49.99702" lon="2.32359">
        <ele>136.2</ele>
        <time>2023-11-22T13:07:13Z</time>
      </trkpt>
      <trkpt lat="49.99699" lon="2.32361">
        <ele>136.2</ele>
        <time>2023-11-22T13:07:15Z</time>
      </trkpt>
      <trkpt lat="49.99699" lon="2.32361">
        <ele>136.2</ele>
        <time>2023-11-22T13:07:16Z</time>
      </trkpt>
      <trkpt lat="49.99698" lon="2.32362">
        <ele>136.2</ele>
        <time>2023-11-22T13:07:17Z</time>
      </trkpt>
      <trkpt lat="49.99697" lon="2.32364">
        <ele>136.2</ele>
        <time>2023-11-22T13:07:18Z</time>
      </trkpt>
      <trkpt lat="49.99696" lon="2.32365">
        <ele>136.2</ele>
        <time>2023-11-22T13:07:19Z</time>
      </trkpt>
      <trkpt lat="49.99696" lon="2.32365">
        <ele>136.3</ele>
        <time>2023-11-22T13:07:20Z</time>
      </trkpt>
      <trkpt lat="49.99695" lon="2.32367">
        <ele>136.3</ele>
        <time>2023-11-22T13:07:21Z</time>
      </trkpt>
      <trkpt lat="49.99693" lon="2.32369">
        <ele>136.3</ele>
        <time>2023-11-22T13:07:22Z</time>
      </trkpt>
      <trkpt lat="49.99691" lon="2.32371">
        <ele>136.3</ele>
        <time>2023-11-22T13:07:23Z</time>
      </trkpt>
      <trkpt lat="49.99691" lon="2.32372">
        <ele>136.3</ele>
        <time>2023-11-22T13:07:25Z</time>
      </trkpt>
      <trkpt lat="49.9969" lon="2.32372">
        <ele>136.3</ele>
        <time>2023-11-22T13:07:26Z</time>
      </trkpt>
      <trkpt lat="49.99688" lon="2.32374">
        <ele>136.3</ele>
        <time>2023-11-22T13:07:27Z</time>
      </trkpt>
      <trkpt lat="49.99687" lon="2.32375">
        <ele>136.3</ele>
        <time>2023-11-22T13:07:28Z</time>
      </trkpt>
      <trkpt lat="49.99687" lon="2.32376">
        <ele>136.3</ele>
        <time>2023-11-22T13:07:29Z</time>
      </trkpt>
      <trkpt lat="49.99685" lon="2.32377">
        <ele>136.3</ele>
        <time>2023-11-22T13:07:31Z</time>
      </trkpt>
      <trkpt lat="49.99684" lon="2.32378">
        <ele>136.3</ele>
        <time>2023-11-22T13:07:32Z</time>
      </trkpt>
      <trkpt lat="49.99683" lon="2.3238">
        <ele>136.3</ele>
        <time>2023-11-22T13:07:33Z</time>
      </trkpt>
      <trkpt lat="49.99682" lon="2.32381">
        <ele>136.3</ele>
        <time>2023-11-22T13:07:34Z</time>
      </trkpt>
      <trkpt lat="49.99681" lon="2.32383">
        <ele>136.3</ele>
        <time>2023-11-22T13:07:36Z</time>
      </trkpt>
      <trkpt lat="49.9968" lon="2.32384">
        <ele>136.3</ele>
        <time>2023-11-22T13:07:37Z</time>
      </trkpt>
      <trkpt lat="49.99679" lon="2.32386">
        <ele>136.2</ele>
        <time>2023-11-22T13:07:38Z</time>
      </trkpt>
      <trkpt lat="49.99678" lon="2.32387">
        <ele>136.2</ele>
        <time>2023-11-22T13:07:39Z</time>
      </trkpt>
      <trkpt lat="49.99676" lon="2.32389">
        <ele>136.2</ele>
        <time>2023-11-22T13:07:40Z</time>
      </trkpt>
      <trkpt lat="49.99675" lon="2.3239">
        <ele>136.2</ele>
        <time>2023-11-22T13:07:41Z</time>
      </trkpt>
      <trkpt lat="49.99674" lon="2.32391">
        <ele>136.2</ele>
        <time>2023-11-22T13:07:42Z</time>
      </trkpt>
      <trkpt lat="49.99673" lon="2.32392">
        <ele>136.2</ele>
        <time>2023-11-22T13:07:43Z</time>
      </trkpt>
      <trkpt lat="49.99671" lon="2.32395">
        <ele>136.1</ele>
        <time>2023-11-22T13:07:45Z</time>
      </trkpt>
      <trkpt lat="49.9967" lon="2.32395">
        <ele>136.1</ele>
        <time>2023-11-22T13:07:46Z</time>
      </trkpt>
      <trkpt lat="49.99667" lon="2.32397">
        <ele>136.1</ele>
        <time>2023-11-22T13:07:47Z</time>
      </trkpt>
      <trkpt lat="49.99666" lon="2.32398">
        <ele>136.1</ele>
        <time>2023-11-22T13:07:49Z</time>
      </trkpt>
      <trkpt lat="49.99665" lon="2.32399">
        <ele>136.1</ele>
        <time>2023-11-22T13:07:50Z</time>
      </trkpt>
      <trkpt lat="49.99664" lon="2.32399">
        <ele>136</ele>
        <time>2023-11-22T13:07:52Z</time>
      </trkpt>
      <trkpt lat="49.99663" lon="2.324">
        <ele>136</ele>
        <time>2023-11-22T13:07:53Z</time>
      </trkpt>
      <trkpt lat="49.99662" lon="2.324">
        <ele>136</ele>
        <time>2023-11-22T13:07:54Z</time>
      </trkpt>
      <trkpt lat="49.99661" lon="2.32401">
        <ele>136</ele>
        <time>2023-11-22T13:07:55Z</time>
      </trkpt>
      <trkpt lat="49.9966" lon="2.32402">
        <ele>136</ele>
        <time>2023-11-22T13:07:56Z</time>
      </trkpt>
      <trkpt lat="49.99659" lon="2.32402">
        <ele>136</ele>
        <time>2023-11-22T13:07:57Z</time>
      </trkpt>
      <trkpt lat="49.99658" lon="2.32402">
        <ele>136</ele>
        <time>2023-11-22T13:07:58Z</time>
      </trkpt>
      <trkpt lat="49.99657" lon="2.32404">
        <ele>135.9</ele>
        <time>2023-11-22T13:08:00Z</time>
      </trkpt>
      <trkpt lat="49.99656" lon="2.32405">
        <ele>135.9</ele>
        <time>2023-11-22T13:08:01Z</time>
      </trkpt>
      <trkpt lat="49.99655" lon="2.32406">
        <ele>135.9</ele>
        <time>2023-11-22T13:08:02Z</time>
      </trkpt>
      <trkpt lat="49.99654" lon="2.32407">
        <ele>135.9</ele>
        <time>2023-11-22T13:08:04Z</time>
      </trkpt>
      <trkpt lat="49.99653" lon="2.32408">
        <ele>135.9</ele>
        <time>2023-11-22T13:08:05Z</time>
      </trkpt>
      <trkpt lat="49.99652" lon="2.32409">
        <ele>135.8</ele>
        <time>2023-11-22T13:08:06Z</time>
      </trkpt>
      <trkpt lat="49.99651" lon="2.3241">
        <ele>135.8</ele>
        <time>2023-11-22T13:08:08Z</time>
      </trkpt>
      <trkpt lat="49.9965" lon="2.32411">
        <ele>135.8</ele>
        <time>2023-11-22T13:08:09Z</time>
      </trkpt>
      <trkpt lat="49.99649" lon="2.32412">
        <ele>135.8</ele>
        <time>2023-11-22T13:08:10Z</time>
      </trkpt>
      <trkpt lat="49.99648" lon="2.32413">
        <ele>135.8</ele>
        <time>2023-11-22T13:08:11Z</time>
      </trkpt>
      <trkpt lat="49.99645" lon="2.32416">
        <ele>135.7</ele>
        <time>2023-11-22T13:08:12Z</time>
      </trkpt>
      <trkpt lat="49.99645" lon="2.32417">
        <ele>135.7</ele>
        <time>2023-11-22T13:08:13Z</time>
      </trkpt>
      <trkpt lat="49.99643" lon="2.3242">
        <ele>135.6</ele>
        <time>2023-11-22T13:08:15Z</time>
      </trkpt>
      <trkpt lat="49.99641" lon="2.32421">
        <ele>135.6</ele>
        <time>2023-11-22T13:08:17Z</time>
      </trkpt>
      <trkpt lat="49.9964" lon="2.32422">
        <ele>135.6</ele>
        <time>2023-11-22T13:08:18Z</time>
      </trkpt>
      <trkpt lat="49.99639" lon="2.32424">
        <ele>135.6</ele>
        <time>2023-11-22T13:08:19Z</time>
      </trkpt>
      <trkpt lat="49.99638" lon="2.32425">
        <ele>135.5</ele>
        <time>2023-11-22T13:08:21Z</time>
      </trkpt>
      <trkpt lat="49.99637" lon="2.32426">
        <ele>135.5</ele>
        <time>2023-11-22T13:08:22Z</time>
      </trkpt>
      <trkpt lat="49.99636" lon="2.32426">
        <ele>135.5</ele>
        <time>2023-11-22T13:08:23Z</time>
      </trkpt>
      <trkpt lat="49.99635" lon="2.32427">
        <ele>135.5</ele>
        <time>2023-11-22T13:08:24Z</time>
      </trkpt>
      <trkpt lat="49.99635" lon="2.32428">
        <ele>135.4</ele>
        <time>2023-11-22T13:08:25Z</time>
      </trkpt>
      <trkpt lat="49.99634" lon="2.32428">
        <ele>135.4</ele>
        <time>2023-11-22T13:08:26Z</time>
      </trkpt>
      <trkpt lat="49.99633" lon="2.32429">
        <ele>135.4</ele>
        <time>2023-11-22T13:08:27Z</time>
      </trkpt>
      <trkpt lat="49.99632" lon="2.32429">
        <ele>135.4</ele>
        <time>2023-11-22T13:08:29Z</time>
      </trkpt>
      <trkpt lat="49.9963" lon="2.3243">
        <ele>135.3</ele>
        <time>2023-11-22T13:08:30Z</time>
      </trkpt>
      <trkpt lat="49.99629" lon="2.32431">
        <ele>135.3</ele>
        <time>2023-11-22T13:08:31Z</time>
      </trkpt>
      <trkpt lat="49.99628" lon="2.32432">
        <ele>135.3</ele>
        <time>2023-11-22T13:08:32Z</time>
      </trkpt>
      <trkpt lat="49.99626" lon="2.32434">
        <ele>135.2</ele>
        <time>2023-11-22T13:08:34Z</time>
      </trkpt>
      <trkpt lat="49.99625" lon="2.32435">
        <ele>135.2</ele>
        <time>2023-11-22T13:08:35Z</time>
      </trkpt>
      <trkpt lat="49.99624" lon="2.32436">
        <ele>135.2</ele>
        <time>2023-11-22T13:08:36Z</time>
      </trkpt>
      <trkpt lat="49.99622" lon="2.32437">
        <ele>135.1</ele>
        <time>2023-11-22T13:08:37Z</time>
      </trkpt>
      <trkpt lat="49.9962" lon="2.32439">
        <ele>135.1</ele>
        <time>2023-11-22T13:08:39Z</time>
      </trkpt>
      <trkpt lat="49.99619" lon="2.3244">
        <ele>135.1</ele>
        <time>2023-11-22T13:08:40Z</time>
      </trkpt>
      <trkpt lat="49.99618" lon="2.32441">
        <ele>135</ele>
        <time>2023-11-22T13:08:41Z</time>
      </trkpt>
      <trkpt lat="49.99615" lon="2.32444">
        <ele>134.9</ele>
        <time>2023-11-22T13:08:43Z</time>
      </trkpt>
      <trkpt lat="49.99614" lon="2.32445">
        <ele>134.9</ele>
        <time>2023-11-22T13:08:44Z</time>
      </trkpt>
      <trkpt lat="49.99612" lon="2.32446">
        <ele>134.9</ele>
        <time>2023-11-22T13:08:45Z</time>
      </trkpt>
      <trkpt lat="49.99611" lon="2.32447">
        <ele>134.9</ele>
        <time>2023-11-22T13:08:46Z</time>
      </trkpt>
      <trkpt lat="49.99609" lon="2.32449">
        <ele>134.8</ele>
        <time>2023-11-22T13:08:47Z</time>
      </trkpt>
      <trkpt lat="49.99608" lon="2.3245">
        <ele>134.8</ele>
        <time>2023-11-22T13:08:48Z</time>
      </trkpt>
      <trkpt lat="49.99607" lon="2.3245">
        <ele>134.8</ele>
        <time>2023-11-22T13:08:49Z</time>
      </trkpt>
      <trkpt lat="49.99606" lon="2.32452">
        <ele>134.7</ele>
        <time>2023-11-22T13:08:50Z</time>
      </trkpt>
      <trkpt lat="49.99605" lon="2.32452">
        <ele>134.7</ele>
        <time>2023-11-22T13:08:51Z</time>
      </trkpt>
      <trkpt lat="49.99604" lon="2.32453">
        <ele>134.7</ele>
        <time>2023-11-22T13:08:52Z</time>
      </trkpt>
      <trkpt lat="49.99602" lon="2.32455">
        <ele>134.6</ele>
        <time>2023-11-22T13:08:53Z</time>
      </trkpt>
      <trkpt lat="49.99602" lon="2.32455">
        <ele>134.6</ele>
        <time>2023-11-22T13:08:54Z</time>
      </trkpt>
      <trkpt lat="49.99601" lon="2.32456">
        <ele>134.6</ele>
        <time>2023-11-22T13:08:55Z</time>
      </trkpt>
      <trkpt lat="49.996" lon="2.32457">
        <ele>134.6</ele>
        <time>2023-11-22T13:08:56Z</time>
      </trkpt>
      <trkpt lat="49.99598" lon="2.32459">
        <ele>134.5</ele>
        <time>2023-11-22T13:08:58Z</time>
      </trkpt>
      <trkpt lat="49.99597" lon="2.3246">
        <ele>134.5</ele>
        <time>2023-11-22T13:08:59Z</time>
      </trkpt>
      <trkpt lat="49.99595" lon="2.32461">
        <ele>134.4</ele>
        <time>2023-11-22T13:09:00Z</time>
      </trkpt>
      <trkpt lat="49.99594" lon="2.32463">
        <ele>134.4</ele>
        <time>2023-11-22T13:09:02Z</time>
      </trkpt>
      <trkpt lat="49.99592" lon="2.32464">
        <ele>134.4</ele>
        <time>2023-11-22T13:09:03Z</time>
      </trkpt>
      <trkpt lat="49.99591" lon="2.32465">
        <ele>134.3</ele>
        <time>2023-11-22T13:09:04Z</time>
      </trkpt>
      <trkpt lat="49.9959" lon="2.32466">
        <ele>134.3</ele>
        <time>2023-11-22T13:09:05Z</time>
      </trkpt>
      <trkpt lat="49.99588" lon="2.32467">
        <ele>134.3</ele>
        <time>2023-11-22T13:09:06Z</time>
      </trkpt>
      <trkpt lat="49.99587" lon="2.32468">
        <ele>134.2</ele>
        <time>2023-11-22T13:09:07Z</time>
      </trkpt>
      <trkpt lat="49.99585" lon="2.32469">
        <ele>134.2</ele>
        <time>2023-11-22T13:09:08Z</time>
      </trkpt>
      <trkpt lat="49.99584" lon="2.3247">
        <ele>134.1</ele>
        <time>2023-11-22T13:09:09Z</time>
      </trkpt>
      <trkpt lat="49.99581" lon="2.32472">
        <ele>134.1</ele>
        <time>2023-11-22T13:09:11Z</time>
      </trkpt>
      <trkpt lat="49.99581" lon="2.32473">
        <ele>134.1</ele>
        <time>2023-11-22T13:09:12Z</time>
      </trkpt>
      <trkpt lat="49.99579" lon="2.32474">
        <ele>134</ele>
        <time>2023-11-22T13:09:13Z</time>
      </trkpt>
      <trkpt lat="49.99577" lon="2.32475">
        <ele>134</ele>
        <time>2023-11-22T13:09:15Z</time>
      </trkpt>
      <trkpt lat="49.99575" lon="2.32477">
        <ele>133.9</ele>
        <time>2023-11-22T13:09:16Z</time>
      </trkpt>
      <trkpt lat="49.99575" lon="2.32478">
        <ele>133.9</ele>
        <time>2023-11-22T13:09:17Z</time>
      </trkpt>
      <trkpt lat="49.99574" lon="2.32478">
        <ele>133.9</ele>
        <time>2023-11-22T13:09:18Z</time>
      </trkpt>
      <trkpt lat="49.99573" lon="2.32479">
        <ele>133.9</ele>
        <time>2023-11-22T13:09:19Z</time>
      </trkpt>
      <trkpt lat="49.99572" lon="2.3248">
        <ele>133.9</ele>
        <time>2023-11-22T13:09:20Z</time>
      </trkpt>
      <trkpt lat="49.9957" lon="2.32482">
        <ele>133.8</ele>
        <time>2023-11-22T13:09:22Z</time>
      </trkpt>
      <trkpt lat="49.99568" lon="2.32484">
        <ele>133.8</ele>
        <time>2023-11-22T13:09:23Z</time>
      </trkpt>
      <trkpt lat="49.99567" lon="2.32484">
        <ele>133.7</ele>
        <time>2023-11-22T13:09:24Z</time>
      </trkpt>
      <trkpt lat="49.99566" lon="2.32485">
        <ele>133.7</ele>
        <time>2023-11-22T13:09:25Z</time>
      </trkpt>
      <trkpt lat="49.99565" lon="2.32487">
        <ele>133.7</ele>
        <time>2023-11-22T13:09:26Z</time>
      </trkpt>
      <trkpt lat="49.99563" lon="2.32488">
        <ele>133.6</ele>
        <time>2023-11-22T13:09:28Z</time>
      </trkpt>
      <trkpt lat="49.99561" lon="2.32489">
        <ele>133.6</ele>
        <time>2023-11-22T13:09:29Z</time>
      </trkpt>
      <trkpt lat="49.9956" lon="2.3249">
        <ele>133.6</ele>
        <time>2023-11-22T13:09:30Z</time>
      </trkpt>
      <trkpt lat="49.99558" lon="2.32492">
        <ele>133.6</ele>
        <time>2023-11-22T13:09:31Z</time>
      </trkpt>
      <trkpt lat="49.99557" lon="2.32492">
        <ele>133.6</ele>
        <time>2023-11-22T13:09:32Z</time>
      </trkpt>
      <trkpt lat="49.99556" lon="2.32493">
        <ele>133.5</ele>
        <time>2023-11-22T13:09:33Z</time>
      </trkpt>
      <trkpt lat="49.99555" lon="2.32494">
        <ele>133.5</ele>
        <time>2023-11-22T13:09:34Z</time>
      </trkpt>
      <trkpt lat="49.99554" lon="2.32495">
        <ele>133.5</ele>
        <time>2023-11-22T13:09:35Z</time>
      </trkpt>
      <trkpt lat="49.99553" lon="2.32497">
        <ele>133.5</ele>
        <time>2023-11-22T13:09:37Z</time>
      </trkpt>
      <trkpt lat="49.9955" lon="2.32499">
        <ele>133.4</ele>
        <time>2023-11-22T13:09:38Z</time>
      </trkpt>
      <trkpt lat="49.9955" lon="2.325">
        <ele>133.4</ele>
        <time>2023-11-22T13:09:39Z</time>
      </trkpt>
      <trkpt lat="49.99547" lon="2.32503">
        <ele>133.4</ele>
        <time>2023-11-22T13:09:41Z</time>
      </trkpt>
      <trkpt lat="49.99546" lon="2.32503">
        <ele>133.4</ele>
        <time>2023-11-22T13:09:42Z</time>
      </trkpt>
      <trkpt lat="49.99545" lon="2.32504">
        <ele>133.4</ele>
        <time>2023-11-22T13:09:44Z</time>
      </trkpt>
      <trkpt lat="49.99545" lon="2.32505">
        <ele>133.3</ele>
        <time>2023-11-22T13:09:45Z</time>
      </trkpt>
      <trkpt lat="49.99544" lon="2.32506">
        <ele>133.3</ele>
        <time>2023-11-22T13:09:46Z</time>
      </trkpt>
      <trkpt lat="49.99542" lon="2.32508">
        <ele>133.3</ele>
        <time>2023-11-22T13:09:47Z</time>
      </trkpt>
      <trkpt lat="49.99541" lon="2.32508">
        <ele>133.3</ele>
        <time>2023-11-22T13:09:48Z</time>
      </trkpt>
      <trkpt lat="49.9954" lon="2.32509">
        <ele>133.3</ele>
        <time>2023-11-22T13:09:49Z</time>
      </trkpt>
      <trkpt lat="49.99539" lon="2.3251">
        <ele>133.3</ele>
        <time>2023-11-22T13:09:50Z</time>
      </trkpt>
      <trkpt lat="49.99538" lon="2.32511">
        <ele>133.3</ele>
        <time>2023-11-22T13:09:51Z</time>
      </trkpt>
      <trkpt lat="49.99537" lon="2.32512">
        <ele>133.2</ele>
        <time>2023-11-22T13:09:52Z</time>
      </trkpt>
      <trkpt lat="49.99536" lon="2.32512">
        <ele>133.2</ele>
        <time>2023-11-22T13:09:53Z</time>
      </trkpt>
      <trkpt lat="49.99534" lon="2.32514">
        <ele>133.2</ele>
        <time>2023-11-22T13:09:55Z</time>
      </trkpt>
      <trkpt lat="49.99533" lon="2.32515">
        <ele>133.2</ele>
        <time>2023-11-22T13:09:56Z</time>
      </trkpt>
      <trkpt lat="49.99532" lon="2.32516">
        <ele>133.2</ele>
        <time>2023-11-22T13:09:57Z</time>
      </trkpt>
      <trkpt lat="49.99531" lon="2.32516">
        <ele>133.2</ele>
        <time>2023-11-22T13:09:58Z</time>
      </trkpt>
      <trkpt lat="49.9953" lon="2.32517">
        <ele>133.2</ele>
        <time>2023-11-22T13:10:00Z</time>
      </trkpt>
      <trkpt lat="49.99529" lon="2.32517">
        <ele>133.2</ele>
        <time>2023-11-22T13:10:01Z</time>
      </trkpt>
      <trkpt lat="49.99528" lon="2.32518">
        <ele>133.1</ele>
        <time>2023-11-22T13:10:02Z</time>
      </trkpt>
      <trkpt lat="49.99527" lon="2.32518">
        <ele>133.1</ele>
        <time>2023-11-22T13:10:03Z</time>
      </trkpt>
      <trkpt lat="49.99526" lon="2.32519">
        <ele>133.1</ele>
        <time>2023-11-22T13:10:04Z</time>
      </trkpt>
      <trkpt lat="49.99525" lon="2.3252">
        <ele>133.1</ele>
        <time>2023-11-22T13:10:05Z</time>
      </trkpt>
      <trkpt lat="49.99524" lon="2.32521">
        <ele>133.1</ele>
        <time>2023-11-22T13:10:06Z</time>
      </trkpt>
      <trkpt lat="49.99524" lon="2.32521">
        <ele>133.1</ele>
        <time>2023-11-22T13:10:07Z</time>
      </trkpt>
      <trkpt lat="49.99523" lon="2.32522">
        <ele>133.1</ele>
        <time>2023-11-22T13:10:08Z</time>
      </trkpt>
      <trkpt lat="49.99522" lon="2.32523">
        <ele>133.1</ele>
        <time>2023-11-22T13:10:09Z</time>
      </trkpt>
      <trkpt lat="49.99521" lon="2.32525">
        <ele>133.1</ele>
        <time>2023-11-22T13:10:11Z</time>
      </trkpt>
      <trkpt lat="49.9952" lon="2.32526">
        <ele>133.1</ele>
        <time>2023-11-22T13:10:12Z</time>
      </trkpt>
      <trkpt lat="49.99519" lon="2.32527">
        <ele>133.1</ele>
        <time>2023-11-22T13:10:13Z</time>
      </trkpt>
      <trkpt lat="49.99519" lon="2.32527">
        <ele>133.1</ele>
        <time>2023-11-22T13:10:14Z</time>
      </trkpt>
      <trkpt lat="49.99518" lon="2.32528">
        <ele>133.1</ele>
        <time>2023-11-22T13:10:15Z</time>
      </trkpt>
      <trkpt lat="49.99517" lon="2.32529">
        <ele>133.1</ele>
        <time>2023-11-22T13:10:16Z</time>
      </trkpt>
      <trkpt lat="49.99516" lon="2.32529">
        <ele>133.1</ele>
        <time>2023-11-22T13:10:17Z</time>
      </trkpt>
      <trkpt lat="49.99516" lon="2.3253">
        <ele>133.1</ele>
        <time>2023-11-22T13:10:18Z</time>
      </trkpt>
      <trkpt lat="49.99514" lon="2.32531">
        <ele>133.1</ele>
        <time>2023-11-22T13:10:20Z</time>
      </trkpt>
      <trkpt lat="49.99514" lon="2.32532">
        <ele>133.1</ele>
        <time>2023-11-22T13:10:21Z</time>
      </trkpt>
      <trkpt lat="49.99513" lon="2.32535">
        <ele>133.1</ele>
        <time>2023-11-22T13:10:22Z</time>
      </trkpt>
      <trkpt lat="49.99513" lon="2.32537">
        <ele>133.1</ele>
        <time>2023-11-22T13:10:23Z</time>
      </trkpt>
      <trkpt lat="49.99513" lon="2.32538">
        <ele>133.1</ele>
        <time>2023-11-22T13:10:24Z</time>
      </trkpt>
      <trkpt lat="49.99513" lon="2.3254">
        <ele>133.1</ele>
        <time>2023-11-22T13:10:25Z</time>
      </trkpt>
      <trkpt lat="49.99514" lon="2.32541">
        <ele>133.1</ele>
        <time>2023-11-22T13:10:26Z</time>
      </trkpt>
      <trkpt lat="49.99515" lon="2.32542">
        <ele>133.1</ele>
        <time>2023-11-22T13:10:27Z</time>
      </trkpt>
      <trkpt lat="49.99516" lon="2.32542">
        <ele>133.1</ele>
        <time>2023-11-22T13:10:28Z</time>
      </trkpt>
      <trkpt lat="49.99517" lon="2.32542">
        <ele>133.1</ele>
        <time>2023-11-22T13:10:29Z</time>
      </trkpt>
      <trkpt lat="49.99517" lon="2.32542">
        <ele>133.1</ele>
        <time>2023-11-22T13:10:30Z</time>
      </trkpt>
      <trkpt lat="49.99517" lon="2.32542">
        <ele>133.1</ele>
        <time>2023-11-22T13:10:31Z</time>
      </trkpt>
      <trkpt lat="49.99516" lon="2.32541">
        <ele>133.1</ele>
        <time>2023-11-22T13:10:32Z</time>
      </trkpt>
      <trkpt lat="49.99516" lon="2.32541">
        <ele>133.1</ele>
        <time>2023-11-22T13:10:33Z</time>
      </trkpt>
      <trkpt lat="49.99516" lon="2.32541">
        <ele>133.1</ele>
        <time>2023-11-22T13:10:34Z</time>
      </trkpt>
      <trkpt lat="49.99515" lon="2.3254">
        <ele>133.1</ele>
        <time>2023-11-22T13:10:35Z</time>
      </trkpt>
      <trkpt lat="49.99515" lon="2.3254">
        <ele>133.1</ele>
        <time>2023-11-22T13:10:36Z</time>
      </trkpt>
      <trkpt lat="49.99515" lon="2.3254">
        <ele>133.1</ele>
        <time>2023-11-22T13:10:37Z</time>
      </trkpt>
      <trkpt lat="49.99515" lon="2.3254">
        <ele>133.1</ele>
        <time>2023-11-22T13:10:38Z</time>
      </trkpt>
      <trkpt lat="49.99515" lon="2.3254">
        <ele>133.1</ele>
        <time>2023-11-22T13:10:39Z</time>
      </trkpt>
      <trkpt lat="49.99515" lon="2.32539">
        <ele>133.1</ele>
        <time>2023-11-22T13:10:40Z</time>
      </trkpt>
      <trkpt lat="49.99515" lon="2.32539">
        <ele>133.1</ele>
        <time>2023-11-22T13:10:41Z</time>
      </trkpt>
      <trkpt lat="49.99515" lon="2.32539">
        <ele>133.1</ele>
        <time>2023-11-22T13:10:42Z</time>
      </trkpt>
      <trkpt lat="49.99515" lon="2.32539">
        <ele>133.1</ele>
        <time>2023-11-22T13:10:43Z</time>
      </trkpt>
      <trkpt lat="49.99515" lon="2.32539">
        <ele>133.1</ele>
        <time>2023-11-22T13:10:44Z</time>
      </trkpt>
      <trkpt lat="49.99515" lon="2.32537">
        <ele>133.1</ele>
        <time>2023-11-22T13:10:45Z</time>
      </trkpt>
      <trkpt lat="49.99516" lon="2.32537">
        <ele>133.1</ele>
        <time>2023-11-22T13:10:46Z</time>
      </trkpt>
      <trkpt lat="49.99516" lon="2.32536">
        <ele>133.1</ele>
        <time>2023-11-22T13:10:47Z</time>
      </trkpt>
      <trkpt lat="49.99516" lon="2.32536">
        <ele>133.1</ele>
        <time>2023-11-22T13:10:48Z</time>
      </trkpt>
      <trkpt lat="49.99516" lon="2.32536">
        <ele>133.1</ele>
        <time>2023-11-22T13:10:49Z</time>
      </trkpt>
      <trkpt lat="49.99516" lon="2.32536">
        <ele>133.1</ele>
        <time>2023-11-22T13:10:50Z</time>
      </trkpt>
      <trkpt lat="49.99513" lon="2.3254">
        <ele>133</ele>
        <time>2023-11-22T13:11:19Z</time>
      </trkpt>
      <trkpt lat="49.99513" lon="2.32541">
        <ele>133</ele>
        <time>2023-11-22T13:11:21Z</time>
      </trkpt>
      <trkpt lat="49.99513" lon="2.32542">
        <ele>133</ele>
        <time>2023-11-22T13:11:22Z</time>
      </trkpt>
      <trkpt lat="49.99513" lon="2.32543">
        <ele>133</ele>
        <time>2023-11-22T13:11:23Z</time>
      </trkpt>
      <trkpt lat="49.99514" lon="2.32544">
        <ele>133</ele>
        <time>2023-11-22T13:11:25Z</time>
      </trkpt>
      <trkpt lat="49.99515" lon="2.32545">
        <ele>133</ele>
        <time>2023-11-22T13:11:26Z</time>
      </trkpt>
      <trkpt lat="49.99515" lon="2.32546">
        <ele>133</ele>
        <time>2023-11-22T13:11:27Z</time>
      </trkpt>
      <trkpt lat="49.99516" lon="2.32546">
        <ele>133</ele>
        <time>2023-11-22T13:11:28Z</time>
      </trkpt>
      <trkpt lat="49.99516" lon="2.32547">
        <ele>133</ele>
        <time>2023-11-22T13:11:29Z</time>
      </trkpt>
      <trkpt lat="49.99517" lon="2.32548">
        <ele>133</ele>
        <time>2023-11-22T13:11:30Z</time>
      </trkpt>
      <trkpt lat="49.99518" lon="2.32549">
        <ele>133.1</ele>
        <time>2023-11-22T13:11:32Z</time>
      </trkpt>
      <trkpt lat="49.99518" lon="2.32549">
        <ele>133.1</ele>
        <time>2023-11-22T13:11:33Z</time>
      </trkpt>
      <trkpt lat="49.99518" lon="2.3255">
        <ele>133.1</ele>
        <time>2023-11-22T13:11:34Z</time>
      </trkpt>
      <trkpt lat="49.99519" lon="2.32551">
        <ele>133.1</ele>
        <time>2023-11-22T13:11:35Z</time>
      </trkpt>
      <trkpt lat="49.99519" lon="2.32551">
        <ele>133.1</ele>
        <time>2023-11-22T13:11:36Z</time>
      </trkpt>
      <trkpt lat="49.99519" lon="2.32551">
        <ele>133.1</ele>
        <time>2023-11-22T13:11:37Z</time>
      </trkpt>
      <trkpt lat="49.99519" lon="2.32551">
        <ele>133.1</ele>
        <time>2023-11-22T13:11:38Z</time>
      </trkpt>
      <trkpt lat="49.99519" lon="2.32551">
        <ele>133.1</ele>
        <time>2023-11-22T13:11:39Z</time>
      </trkpt>
      <trkpt lat="49.99519" lon="2.32551">
        <ele>133.1</ele>
        <time>2023-11-22T13:11:40Z</time>
      </trkpt>
      <trkpt lat="49.99519" lon="2.32551">
        <ele>133.1</ele>
        <time>2023-11-22T13:11:41Z</time>
      </trkpt>
      <trkpt lat="49.99519" lon="2.3255">
        <ele>133.1</ele>
        <time>2023-11-22T13:11:42Z</time>
      </trkpt>
      <trkpt lat="49.9952" lon="2.3255">
        <ele>133.1</ele>
        <time>2023-11-22T13:11:43Z</time>
      </trkpt>
      <trkpt lat="49.9952" lon="2.32549">
        <ele>133.1</ele>
        <time>2023-11-22T13:11:44Z</time>
      </trkpt>
      <trkpt lat="49.9952" lon="2.32549">
        <ele>133.1</ele>
        <time>2023-11-22T13:11:45Z</time>
      </trkpt>
      <trkpt lat="49.9952" lon="2.32549">
        <ele>133.1</ele>
        <time>2023-11-22T13:11:46Z</time>
      </trkpt>
      <trkpt lat="49.9952" lon="2.32549">
        <ele>133.1</ele>
        <time>2023-11-22T13:11:47Z</time>
      </trkpt>
      <trkpt lat="49.9952" lon="2.32549">
        <ele>133.1</ele>
        <time>2023-11-22T13:11:48Z</time>
      </trkpt>
      <trkpt lat="49.99519" lon="2.32549">
        <ele>133.1</ele>
        <time>2023-11-22T13:11:49Z</time>
      </trkpt>
      <trkpt lat="49.99519" lon="2.32549">
        <ele>133.1</ele>
        <time>2023-11-22T13:11:50Z</time>
      </trkpt>
      <trkpt lat="49.99519" lon="2.32549">
        <ele>133.1</ele>
        <time>2023-11-22T13:11:51Z</time>
      </trkpt>
      <trkpt lat="49.9952" lon="2.32555">
        <ele>133.1</ele>
        <time>2023-11-22T13:12:00Z</time>
      </trkpt>
      <trkpt lat="49.99521" lon="2.32557">
        <ele>133.1</ele>
        <time>2023-11-22T13:12:02Z</time>
      </trkpt>
      <trkpt lat="49.99521" lon="2.32559">
        <ele>133.1</ele>
        <time>2023-11-22T13:12:03Z</time>
      </trkpt>
      <trkpt lat="49.99521" lon="2.32564">
        <ele>133.1</ele>
        <time>2023-11-22T13:12:04Z</time>
      </trkpt>
      <trkpt lat="49.99522" lon="2.32565">
        <ele>133.1</ele>
        <time>2023-11-22T13:12:05Z</time>
      </trkpt>
      <trkpt lat="49.99522" lon="2.32567">
        <ele>133.1</ele>
        <time>2023-11-22T13:12:06Z</time>
      </trkpt>
      <trkpt lat="49.99522" lon="2.3257">
        <ele>133.1</ele>
        <time>2023-11-22T13:12:08Z</time>
      </trkpt>
      <trkpt lat="49.99522" lon="2.32573">
        <ele>133.1</ele>
        <time>2023-11-22T13:12:10Z</time>
      </trkpt>
      <trkpt lat="49.99523" lon="2.32575">
        <ele>133.1</ele>
        <time>2023-11-22T13:12:11Z</time>
      </trkpt>
      <trkpt lat="49.99523" lon="2.32578">
        <ele>133.1</ele>
        <time>2023-11-22T13:12:12Z</time>
      </trkpt>
      <trkpt lat="49.99523" lon="2.32579">
        <ele>133.1</ele>
        <time>2023-11-22T13:12:13Z</time>
      </trkpt>
      <trkpt lat="49.99523" lon="2.3258">
        <ele>133.1</ele>
        <time>2023-11-22T13:12:14Z</time>
      </trkpt>
      <trkpt lat="49.99523" lon="2.32581">
        <ele>133.1</ele>
        <time>2023-11-22T13:12:15Z</time>
      </trkpt>
      <trkpt lat="49.99523" lon="2.32584">
        <ele>133.1</ele>
        <time>2023-11-22T13:12:17Z</time>
      </trkpt>
      <trkpt lat="49.99524" lon="2.32587">
        <ele>133.1</ele>
        <time>2023-11-22T13:12:18Z</time>
      </trkpt>
      <trkpt lat="49.99525" lon="2.32593">
        <ele>133.1</ele>
        <time>2023-11-22T13:12:20Z</time>
      </trkpt>
      <trkpt lat="49.99525" lon="2.32595">
        <ele>133.2</ele>
        <time>2023-11-22T13:12:21Z</time>
      </trkpt>
      <trkpt lat="49.99525" lon="2.32597">
        <ele>133.2</ele>
        <time>2023-11-22T13:12:22Z</time>
      </trkpt>
      <trkpt lat="49.99526" lon="2.326">
        <ele>133.2</ele>
        <time>2023-11-22T13:12:23Z</time>
      </trkpt>
      <trkpt lat="49.99526" lon="2.32602">
        <ele>133.2</ele>
        <time>2023-11-22T13:12:24Z</time>
      </trkpt>
      <trkpt lat="49.99527" lon="2.32604">
        <ele>133.2</ele>
        <time>2023-11-22T13:12:25Z</time>
      </trkpt>
      <trkpt lat="49.99527" lon="2.32607">
        <ele>133.2</ele>
        <time>2023-11-22T13:12:26Z</time>
      </trkpt>
      <trkpt lat="49.99528" lon="2.32612">
        <ele>133.2</ele>
        <time>2023-11-22T13:12:28Z</time>
      </trkpt>
      <trkpt lat="49.99528" lon="2.32614">
        <ele>133.2</ele>
        <time>2023-11-22T13:12:29Z</time>
      </trkpt>
      <trkpt lat="49.99529" lon="2.32615">
        <ele>133.2</ele>
        <time>2023-11-22T13:12:30Z</time>
      </trkpt>
      <trkpt lat="49.9953" lon="2.32619">
        <ele>133.3</ele>
        <time>2023-11-22T13:12:32Z</time>
      </trkpt>
      <trkpt lat="49.9953" lon="2.32621">
        <ele>133.3</ele>
        <time>2023-11-22T13:12:33Z</time>
      </trkpt>
      <trkpt lat="49.99531" lon="2.32623">
        <ele>133.3</ele>
        <time>2023-11-22T13:12:34Z</time>
      </trkpt>
      <trkpt lat="49.99531" lon="2.32625">
        <ele>133.3</ele>
        <time>2023-11-22T13:12:35Z</time>
      </trkpt>
      <trkpt lat="49.99532" lon="2.32627">
        <ele>133.3</ele>
        <time>2023-11-22T13:12:36Z</time>
      </trkpt>
      <trkpt lat="49.99532" lon="2.3263">
        <ele>133.3</ele>
        <time>2023-11-22T13:12:37Z</time>
      </trkpt>
      <trkpt lat="49.99533" lon="2.32632">
        <ele>133.3</ele>
        <time>2023-11-22T13:12:38Z</time>
      </trkpt>
      <trkpt lat="49.99533" lon="2.32633">
        <ele>133.4</ele>
        <time>2023-11-22T13:12:39Z</time>
      </trkpt>
      <trkpt lat="49.99533" lon="2.32635">
        <ele>133.4</ele>
        <time>2023-11-22T13:12:40Z</time>
      </trkpt>
      <trkpt lat="49.99534" lon="2.32637">
        <ele>133.4</ele>
        <time>2023-11-22T13:12:42Z</time>
      </trkpt>
      <trkpt lat="49.99534" lon="2.32638">
        <ele>133.4</ele>
        <time>2023-11-22T13:12:43Z</time>
      </trkpt>
      <trkpt lat="49.99534" lon="2.32639">
        <ele>133.4</ele>
        <time>2023-11-22T13:12:44Z</time>
      </trkpt>
      <trkpt lat="49.99535" lon="2.32641">
        <ele>133.4</ele>
        <time>2023-11-22T13:12:46Z</time>
      </trkpt>
      <trkpt lat="49.99535" lon="2.32643">
        <ele>133.4</ele>
        <time>2023-11-22T13:12:47Z</time>
      </trkpt>
      <trkpt lat="49.99535" lon="2.32645">
        <ele>133.5</ele>
        <time>2023-11-22T13:12:48Z</time>
      </trkpt>
      <trkpt lat="49.99536" lon="2.32646">
        <ele>133.5</ele>
        <time>2023-11-22T13:12:49Z</time>
      </trkpt>
      <trkpt lat="49.99536" lon="2.32648">
        <ele>133.5</ele>
        <time>2023-11-22T13:12:50Z</time>
      </trkpt>
      <trkpt lat="49.99536" lon="2.3265">
        <ele>133.5</ele>
        <time>2023-11-22T13:12:51Z</time>
      </trkpt>
      <trkpt lat="49.99536" lon="2.32652">
        <ele>133.5</ele>
        <time>2023-11-22T13:12:52Z</time>
      </trkpt>
      <trkpt lat="49.99537" lon="2.32654">
        <ele>133.5</ele>
        <time>2023-11-22T13:12:53Z</time>
      </trkpt>
      <trkpt lat="49.99537" lon="2.32657">
        <ele>133.6</ele>
        <time>2023-11-22T13:12:55Z</time>
      </trkpt>
      <trkpt lat="49.99537" lon="2.32659">
        <ele>133.6</ele>
        <time>2023-11-22T13:12:56Z</time>
      </trkpt>
      <trkpt lat="49.99538" lon="2.32661">
        <ele>133.6</ele>
        <time>2023-11-22T13:12:57Z</time>
      </trkpt>
      <trkpt lat="49.99538" lon="2.32665">
        <ele>133.6</ele>
        <time>2023-11-22T13:12:59Z</time>
      </trkpt>
      <trkpt lat="49.99538" lon="2.32667">
        <ele>133.6</ele>
        <time>2023-11-22T13:13:01Z</time>
      </trkpt>
      <trkpt lat="49.99539" lon="2.32669">
        <ele>133.6</ele>
        <time>2023-11-22T13:13:02Z</time>
      </trkpt>
      <trkpt lat="49.99539" lon="2.32671">
        <ele>133.6</ele>
        <time>2023-11-22T13:13:03Z</time>
      </trkpt>
      <trkpt lat="49.99539" lon="2.32672">
        <ele>133.7</ele>
        <time>2023-11-22T13:13:04Z</time>
      </trkpt>
      <trkpt lat="49.99539" lon="2.32674">
        <ele>133.7</ele>
        <time>2023-11-22T13:13:05Z</time>
      </trkpt>
      <trkpt lat="49.9954" lon="2.32677">
        <ele>133.7</ele>
        <time>2023-11-22T13:13:06Z</time>
      </trkpt>
      <trkpt lat="49.9954" lon="2.32679">
        <ele>133.7</ele>
        <time>2023-11-22T13:13:07Z</time>
      </trkpt>
      <trkpt lat="49.9954" lon="2.32681">
        <ele>133.7</ele>
        <time>2023-11-22T13:13:08Z</time>
      </trkpt>
      <trkpt lat="49.9954" lon="2.32684">
        <ele>133.7</ele>
        <time>2023-11-22T13:13:10Z</time>
      </trkpt>
      <trkpt lat="49.9954" lon="2.32687">
        <ele>133.7</ele>
        <time>2023-11-22T13:13:11Z</time>
      </trkpt>
      <trkpt lat="49.99541" lon="2.32689">
        <ele>133.7</ele>
        <time>2023-11-22T13:13:12Z</time>
      </trkpt>
      <trkpt lat="49.99541" lon="2.3269">
        <ele>133.7</ele>
        <time>2023-11-22T13:13:13Z</time>
      </trkpt>
      <trkpt lat="49.99541" lon="2.32693">
        <ele>133.7</ele>
        <time>2023-11-22T13:13:15Z</time>
      </trkpt>
      <trkpt lat="49.99542" lon="2.32697">
        <ele>133.7</ele>
        <time>2023-11-22T13:13:16Z</time>
      </trkpt>
      <trkpt lat="49.99542" lon="2.32698">
        <ele>133.7</ele>
        <time>2023-11-22T13:13:17Z</time>
      </trkpt>
      <trkpt lat="49.99542" lon="2.32699">
        <ele>133.7</ele>
        <time>2023-11-22T13:13:18Z</time>
      </trkpt>
      <trkpt lat="49.99542" lon="2.32703">
        <ele>133.7</ele>
        <time>2023-11-22T13:13:19Z</time>
      </trkpt>
      <trkpt lat="49.99543" lon="2.32704">
        <ele>133.7</ele>
        <time>2023-11-22T13:13:20Z</time>
      </trkpt>
      <trkpt lat="49.99543" lon="2.32706">
        <ele>133.7</ele>
        <time>2023-11-22T13:13:21Z</time>
      </trkpt>
      <trkpt lat="49.99543" lon="2.32708">
        <ele>133.7</ele>
        <time>2023-11-22T13:13:22Z</time>
      </trkpt>
      <trkpt lat="49.99544" lon="2.3271">
        <ele>133.7</ele>
        <time>2023-11-22T13:13:23Z</time>
      </trkpt>
      <trkpt lat="49.99544" lon="2.32714">
        <ele>133.7</ele>
        <time>2023-11-22T13:13:25Z</time>
      </trkpt>
      <trkpt lat="49.99544" lon="2.32716">
        <ele>133.7</ele>
        <time>2023-11-22T13:13:26Z</time>
      </trkpt>
      <trkpt lat="49.99545" lon="2.32718">
        <ele>133.7</ele>
        <time>2023-11-22T13:13:27Z</time>
      </trkpt>
      <trkpt lat="49.99545" lon="2.32721">
        <ele>133.6</ele>
        <time>2023-11-22T13:13:29Z</time>
      </trkpt>
      <trkpt lat="49.99545" lon="2.32724">
        <ele>133.6</ele>
        <time>2023-11-22T13:13:31Z</time>
      </trkpt>
      <trkpt lat="49.99545" lon="2.32725">
        <ele>133.6</ele>
        <time>2023-11-22T13:13:32Z</time>
      </trkpt>
      <trkpt lat="49.99545" lon="2.32729">
        <ele>133.6</ele>
        <time>2023-11-22T13:13:33Z</time>
      </trkpt>
      <trkpt lat="49.99546" lon="2.3273">
        <ele>133.6</ele>
        <time>2023-11-22T13:13:34Z</time>
      </trkpt>
      <trkpt lat="49.99546" lon="2.32732">
        <ele>133.6</ele>
        <time>2023-11-22T13:13:35Z</time>
      </trkpt>
      <trkpt lat="49.99546" lon="2.32735">
        <ele>133.6</ele>
        <time>2023-11-22T13:13:36Z</time>
      </trkpt>
      <trkpt lat="49.99546" lon="2.32736">
        <ele>133.6</ele>
        <time>2023-11-22T13:13:37Z</time>
      </trkpt>
      <trkpt lat="49.99546" lon="2.32738">
        <ele>133.6</ele>
        <time>2023-11-22T13:13:38Z</time>
      </trkpt>
      <trkpt lat="49.99547" lon="2.3274">
        <ele>133.6</ele>
        <time>2023-11-22T13:13:40Z</time>
      </trkpt>
      <trkpt lat="49.99547" lon="2.32742">
        <ele>133.6</ele>
        <time>2023-11-22T13:13:41Z</time>
      </trkpt>
      <trkpt lat="49.99547" lon="2.32745">
        <ele>133.6</ele>
        <time>2023-11-22T13:13:43Z</time>
      </trkpt>
      <trkpt lat="49.99547" lon="2.32746">
        <ele>133.6</ele>
        <time>2023-11-22T13:13:44Z</time>
      </trkpt>
      <trkpt lat="49.99548" lon="2.3275">
        <ele>133.6</ele>
        <time>2023-11-22T13:13:45Z</time>
      </trkpt>
      <trkpt lat="49.99548" lon="2.32751">
        <ele>133.6</ele>
        <time>2023-11-22T13:13:46Z</time>
      </trkpt>
      <trkpt lat="49.99548" lon="2.32752">
        <ele>133.6</ele>
        <time>2023-11-22T13:13:47Z</time>
      </trkpt>
      <trkpt lat="49.99549" lon="2.32755">
        <ele>133.6</ele>
        <time>2023-11-22T13:13:48Z</time>
      </trkpt>
      <trkpt lat="49.99549" lon="2.32756">
        <ele>133.6</ele>
        <time>2023-11-22T13:13:49Z</time>
      </trkpt>
      <trkpt lat="49.99549" lon="2.32757">
        <ele>133.6</ele>
        <time>2023-11-22T13:13:50Z</time>
      </trkpt>
      <trkpt lat="49.9955" lon="2.32759">
        <ele>133.6</ele>
        <time>2023-11-22T13:13:51Z</time>
      </trkpt>
      <trkpt lat="49.9955" lon="2.32762">
        <ele>133.6</ele>
        <time>2023-11-22T13:13:53Z</time>
      </trkpt>
      <trkpt lat="49.99551" lon="2.32763">
        <ele>133.6</ele>
        <time>2023-11-22T13:13:54Z</time>
      </trkpt>
      <trkpt lat="49.99551" lon="2.32765">
        <ele>133.6</ele>
        <time>2023-11-22T13:13:55Z</time>
      </trkpt>
      <trkpt lat="49.99552" lon="2.32768">
        <ele>133.6</ele>
        <time>2023-11-22T13:13:57Z</time>
      </trkpt>
      <trkpt lat="49.99552" lon="2.32771">
        <ele>133.6</ele>
        <time>2023-11-22T13:13:58Z</time>
      </trkpt>
      <trkpt lat="49.99553" lon="2.32772">
        <ele>133.6</ele>
        <time>2023-11-22T13:13:59Z</time>
      </trkpt>
      <trkpt lat="49.99553" lon="2.32773">
        <ele>133.5</ele>
        <time>2023-11-22T13:14:00Z</time>
      </trkpt>
      <trkpt lat="49.99553" lon="2.32775">
        <ele>133.5</ele>
        <time>2023-11-22T13:14:01Z</time>
      </trkpt>
      <trkpt lat="49.99554" lon="2.32778">
        <ele>133.5</ele>
        <time>2023-11-22T13:14:02Z</time>
      </trkpt>
      <trkpt lat="49.99554" lon="2.3278">
        <ele>133.5</ele>
        <time>2023-11-22T13:14:03Z</time>
      </trkpt>
      <trkpt lat="49.99555" lon="2.32782">
        <ele>133.5</ele>
        <time>2023-11-22T13:14:05Z</time>
      </trkpt>
      <trkpt lat="49.99555" lon="2.32784">
        <ele>133.5</ele>
        <time>2023-11-22T13:14:06Z</time>
      </trkpt>
      <trkpt lat="49.99556" lon="2.32785">
        <ele>133.5</ele>
        <time>2023-11-22T13:14:07Z</time>
      </trkpt>
      <trkpt lat="49.99556" lon="2.32787">
        <ele>133.5</ele>
        <time>2023-11-22T13:14:08Z</time>
      </trkpt>
      <trkpt lat="49.99556" lon="2.32789">
        <ele>133.5</ele>
        <time>2023-11-22T13:14:09Z</time>
      </trkpt>
      <trkpt lat="49.99557" lon="2.32791">
        <ele>133.4</ele>
        <time>2023-11-22T13:14:10Z</time>
      </trkpt>
      <trkpt lat="49.99557" lon="2.32793">
        <ele>133.4</ele>
        <time>2023-11-22T13:14:12Z</time>
      </trkpt>
      <trkpt lat="49.99557" lon="2.32796">
        <ele>133.4</ele>
        <time>2023-11-22T13:14:13Z</time>
      </trkpt>
      <trkpt lat="49.99557" lon="2.32798">
        <ele>133.4</ele>
        <time>2023-11-22T13:14:14Z</time>
      </trkpt>
      <trkpt lat="49.99557" lon="2.32801">
        <ele>133.4</ele>
        <time>2023-11-22T13:14:15Z</time>
      </trkpt>
      <trkpt lat="49.99556" lon="2.32802">
        <ele>133.4</ele>
        <time>2023-11-22T13:14:17Z</time>
      </trkpt>
      <trkpt lat="49.99556" lon="2.32803">
        <ele>133.3</ele>
        <time>2023-11-22T13:14:18Z</time>
      </trkpt>
      <trkpt lat="49.99556" lon="2.32805">
        <ele>133.3</ele>
        <time>2023-11-22T13:14:19Z</time>
      </trkpt>
      <trkpt lat="49.99556" lon="2.32806">
        <ele>133.3</ele>
        <time>2023-11-22T13:14:20Z</time>
      </trkpt>
      <trkpt lat="49.99557" lon="2.32808">
        <ele>133.3</ele>
        <time>2023-11-22T13:14:22Z</time>
      </trkpt>
      <trkpt lat="49.99557" lon="2.3281">
        <ele>133.2</ele>
        <time>2023-11-22T13:14:23Z</time>
      </trkpt>
      <trkpt lat="49.99557" lon="2.32812">
        <ele>133.2</ele>
        <time>2023-11-22T13:14:24Z</time>
      </trkpt>
      <trkpt lat="49.99557" lon="2.32813">
        <ele>133.2</ele>
        <time>2023-11-22T13:14:25Z</time>
      </trkpt>
      <trkpt lat="49.99557" lon="2.32816">
        <ele>133.2</ele>
        <time>2023-11-22T13:14:26Z</time>
      </trkpt>
      <trkpt lat="49.99557" lon="2.32818">
        <ele>133.1</ele>
        <time>2023-11-22T13:14:27Z</time>
      </trkpt>
      <trkpt lat="49.99557" lon="2.32819">
        <ele>133.1</ele>
        <time>2023-11-22T13:14:28Z</time>
      </trkpt>
      <trkpt lat="49.99557" lon="2.32822">
        <ele>133.1</ele>
        <time>2023-11-22T13:14:30Z</time>
      </trkpt>
      <trkpt lat="49.99558" lon="2.32823">
        <ele>133.1</ele>
        <time>2023-11-22T13:14:31Z</time>
      </trkpt>
      <trkpt lat="49.99558" lon="2.32826">
        <ele>133.1</ele>
        <time>2023-11-22T13:14:33Z</time>
      </trkpt>
      <trkpt lat="49.99558" lon="2.32828">
        <ele>133.1</ele>
        <time>2023-11-22T13:14:34Z</time>
      </trkpt>
      <trkpt lat="49.99558" lon="2.32831">
        <ele>133</ele>
        <time>2023-11-22T13:14:35Z</time>
      </trkpt>
      <trkpt lat="49.99558" lon="2.32832">
        <ele>133</ele>
        <time>2023-11-22T13:14:36Z</time>
      </trkpt>
      <trkpt lat="49.99558" lon="2.32834">
        <ele>133</ele>
        <time>2023-11-22T13:14:37Z</time>
      </trkpt>
      <trkpt lat="49.99559" lon="2.32835">
        <ele>133</ele>
        <time>2023-11-22T13:14:38Z</time>
      </trkpt>
      <trkpt lat="49.99559" lon="2.32838">
        <ele>133</ele>
        <time>2023-11-22T13:14:39Z</time>
      </trkpt>
      <trkpt lat="49.9956" lon="2.3284">
        <ele>133</ele>
        <time>2023-11-22T13:14:41Z</time>
      </trkpt>
      <trkpt lat="49.9956" lon="2.32843">
        <ele>132.9</ele>
        <time>2023-11-22T13:14:42Z</time>
      </trkpt>
      <trkpt lat="49.9956" lon="2.32845">
        <ele>132.9</ele>
        <time>2023-11-22T13:14:43Z</time>
      </trkpt>
      <trkpt lat="49.9956" lon="2.32847">
        <ele>132.9</ele>
        <time>2023-11-22T13:14:44Z</time>
      </trkpt>
      <trkpt lat="49.9956" lon="2.32849">
        <ele>132.9</ele>
        <time>2023-11-22T13:14:46Z</time>
      </trkpt>
      <trkpt lat="49.99561" lon="2.32852">
        <ele>132.9</ele>
        <time>2023-11-22T13:14:47Z</time>
      </trkpt>
      <trkpt lat="49.99561" lon="2.32854">
        <ele>132.9</ele>
        <time>2023-11-22T13:14:49Z</time>
      </trkpt>
      <trkpt lat="49.99561" lon="2.32855">
        <ele>132.8</ele>
        <time>2023-11-22T13:14:50Z</time>
      </trkpt>
      <trkpt lat="49.99561" lon="2.32857">
        <ele>132.8</ele>
        <time>2023-11-22T13:14:51Z</time>
      </trkpt>
      <trkpt lat="49.99562" lon="2.32859">
        <ele>132.8</ele>
        <time>2023-11-22T13:14:52Z</time>
      </trkpt>
      <trkpt lat="49.99562" lon="2.32861">
        <ele>132.8</ele>
        <time>2023-11-22T13:14:53Z</time>
      </trkpt>
      <trkpt lat="49.99562" lon="2.32863">
        <ele>132.8</ele>
        <time>2023-11-22T13:14:54Z</time>
      </trkpt>
      <trkpt lat="49.99562" lon="2.32865">
        <ele>132.8</ele>
        <time>2023-11-22T13:14:55Z</time>
      </trkpt>
      <trkpt lat="49.99563" lon="2.32867">
        <ele>132.8</ele>
        <time>2023-11-22T13:14:56Z</time>
      </trkpt>
      <trkpt lat="49.99563" lon="2.3287">
        <ele>132.8</ele>
        <time>2023-11-22T13:14:57Z</time>
      </trkpt>
      <trkpt lat="49.99564" lon="2.32872">
        <ele>132.8</ele>
        <time>2023-11-22T13:14:58Z</time>
      </trkpt>
      <trkpt lat="49.99564" lon="2.32874">
        <ele>132.8</ele>
        <time>2023-11-22T13:14:59Z</time>
      </trkpt>
      <trkpt lat="49.99564" lon="2.32876">
        <ele>132.7</ele>
        <time>2023-11-22T13:15:00Z</time>
      </trkpt>
      <trkpt lat="49.99565" lon="2.32878">
        <ele>132.7</ele>
        <time>2023-11-22T13:15:01Z</time>
      </trkpt>
      <trkpt lat="49.99565" lon="2.32881">
        <ele>132.7</ele>
        <time>2023-11-22T13:15:02Z</time>
      </trkpt>
      <trkpt lat="49.99565" lon="2.32884">
        <ele>132.7</ele>
        <time>2023-11-22T13:15:04Z</time>
      </trkpt>
      <trkpt lat="49.99565" lon="2.32886">
        <ele>132.7</ele>
        <time>2023-11-22T13:15:05Z</time>
      </trkpt>
      <trkpt lat="49.99565" lon="2.32888">
        <ele>132.7</ele>
        <time>2023-11-22T13:15:06Z</time>
      </trkpt>
      <trkpt lat="49.99565" lon="2.32889">
        <ele>132.7</ele>
        <time>2023-11-22T13:15:07Z</time>
      </trkpt>
      <trkpt lat="49.99565" lon="2.32891">
        <ele>132.7</ele>
        <time>2023-11-22T13:15:08Z</time>
      </trkpt>
      <trkpt lat="49.99565" lon="2.32895">
        <ele>132.7</ele>
        <time>2023-11-22T13:15:09Z</time>
      </trkpt>
      <trkpt lat="49.99565" lon="2.32896">
        <ele>132.7</ele>
        <time>2023-11-22T13:15:11Z</time>
      </trkpt>
      <trkpt lat="49.99566" lon="2.32898">
        <ele>132.7</ele>
        <time>2023-11-22T13:15:12Z</time>
      </trkpt>
      <trkpt lat="49.99566" lon="2.329">
        <ele>132.7</ele>
        <time>2023-11-22T13:15:13Z</time>
      </trkpt>
      <trkpt lat="49.99566" lon="2.32902">
        <ele>132.7</ele>
        <time>2023-11-22T13:15:14Z</time>
      </trkpt>
      <trkpt lat="49.99566" lon="2.32904">
        <ele>132.7</ele>
        <time>2023-11-22T13:15:15Z</time>
      </trkpt>
      <trkpt lat="49.99567" lon="2.32906">
        <ele>132.7</ele>
        <time>2023-11-22T13:15:16Z</time>
      </trkpt>
      <trkpt lat="49.99567" lon="2.32908">
        <ele>132.7</ele>
        <time>2023-11-22T13:15:18Z</time>
      </trkpt>
      <trkpt lat="49.99568" lon="2.32911">
        <ele>132.6</ele>
        <time>2023-11-22T13:15:19Z</time>
      </trkpt>
      <trkpt lat="49.99569" lon="2.32912">
        <ele>132.6</ele>
        <time>2023-11-22T13:15:20Z</time>
      </trkpt>
      <trkpt lat="49.99569" lon="2.32914">
        <ele>132.6</ele>
        <time>2023-11-22T13:15:21Z</time>
      </trkpt>
      <trkpt lat="49.99569" lon="2.32915">
        <ele>132.6</ele>
        <time>2023-11-22T13:15:23Z</time>
      </trkpt>
      <trkpt lat="49.9957" lon="2.32917">
        <ele>132.6</ele>
        <time>2023-11-22T13:15:24Z</time>
      </trkpt>
      <trkpt lat="49.99571" lon="2.32919">
        <ele>132.6</ele>
        <time>2023-11-22T13:15:26Z</time>
      </trkpt>
      <trkpt lat="49.99571" lon="2.32922">
        <ele>132.6</ele>
        <time>2023-11-22T13:15:27Z</time>
      </trkpt>
      <trkpt lat="49.99571" lon="2.32923">
        <ele>132.6</ele>
        <time>2023-11-22T13:15:28Z</time>
      </trkpt>
      <trkpt lat="49.99572" lon="2.32925">
        <ele>132.6</ele>
        <time>2023-11-22T13:15:29Z</time>
      </trkpt>
      <trkpt lat="49.99572" lon="2.32928">
        <ele>132.6</ele>
        <time>2023-11-22T13:15:30Z</time>
      </trkpt>
      <trkpt lat="49.99573" lon="2.32929">
        <ele>132.6</ele>
        <time>2023-11-22T13:15:31Z</time>
      </trkpt>
      <trkpt lat="49.99573" lon="2.32931">
        <ele>132.6</ele>
        <time>2023-11-22T13:15:32Z</time>
      </trkpt>
      <trkpt lat="49.99574" lon="2.32934">
        <ele>132.6</ele>
        <time>2023-11-22T13:15:33Z</time>
      </trkpt>
      <trkpt lat="49.99574" lon="2.32935">
        <ele>132.5</ele>
        <time>2023-11-22T13:15:34Z</time>
      </trkpt>
      <trkpt lat="49.99574" lon="2.32936">
        <ele>132.5</ele>
        <time>2023-11-22T13:15:35Z</time>
      </trkpt>
      <trkpt lat="49.99574" lon="2.3294">
        <ele>132.5</ele>
        <time>2023-11-22T13:15:37Z</time>
      </trkpt>
      <trkpt lat="49.99575" lon="2.32941">
        <ele>132.5</ele>
        <time>2023-11-22T13:15:38Z</time>
      </trkpt>
      <trkpt lat="49.99575" lon="2.32942">
        <ele>132.5</ele>
        <time>2023-11-22T13:15:39Z</time>
      </trkpt>
      <trkpt lat="49.99575" lon="2.32944">
        <ele>132.5</ele>
        <time>2023-11-22T13:15:40Z</time>
      </trkpt>
      <trkpt lat="49.99575" lon="2.32946">
        <ele>132.5</ele>
        <time>2023-11-22T13:15:41Z</time>
      </trkpt>
      <trkpt lat="49.99575" lon="2.32947">
        <ele>132.5</ele>
        <time>2023-11-22T13:15:43Z</time>
      </trkpt>
      <trkpt lat="49.99576" lon="2.32948">
        <ele>132.5</ele>
        <time>2023-11-22T13:15:44Z</time>
      </trkpt>
      <trkpt lat="49.99576" lon="2.3295">
        <ele>132.5</ele>
        <time>2023-11-22T13:15:45Z</time>
      </trkpt>
      <trkpt lat="49.99576" lon="2.32952">
        <ele>132.5</ele>
        <time>2023-11-22T13:15:47Z</time>
      </trkpt>
      <trkpt lat="49.99577" lon="2.32954">
        <ele>132.5</ele>
        <time>2023-11-22T13:15:48Z</time>
      </trkpt>
      <trkpt lat="49.99577" lon="2.32956">
        <ele>132.5</ele>
        <time>2023-11-22T13:15:50Z</time>
      </trkpt>
      <trkpt lat="49.99577" lon="2.32958">
        <ele>132.5</ele>
        <time>2023-11-22T13:15:51Z</time>
      </trkpt>
      <trkpt lat="49.99578" lon="2.3296">
        <ele>132.5</ele>
        <time>2023-11-22T13:15:52Z</time>
      </trkpt>
      <trkpt lat="49.99578" lon="2.32961">
        <ele>132.5</ele>
        <time>2023-11-22T13:15:53Z</time>
      </trkpt>
      <trkpt lat="49.99578" lon="2.32965">
        <ele>132.5</ele>
        <time>2023-11-22T13:15:54Z</time>
      </trkpt>
      <trkpt lat="49.99578" lon="2.32966">
        <ele>132.5</ele>
        <time>2023-11-22T13:15:55Z</time>
      </trkpt>
      <trkpt lat="49.99578" lon="2.32968">
        <ele>132.5</ele>
        <time>2023-11-22T13:15:56Z</time>
      </trkpt>
      <trkpt lat="49.99578" lon="2.32971">
        <ele>132.5</ele>
        <time>2023-11-22T13:15:58Z</time>
      </trkpt>
      <trkpt lat="49.99578" lon="2.32973">
        <ele>132.5</ele>
        <time>2023-11-22T13:15:59Z</time>
      </trkpt>
      <trkpt lat="49.99579" lon="2.32974">
        <ele>132.5</ele>
        <time>2023-11-22T13:16:00Z</time>
      </trkpt>
      <trkpt lat="49.99579" lon="2.32976">
        <ele>132.5</ele>
        <time>2023-11-22T13:16:01Z</time>
      </trkpt>
      <trkpt lat="49.99579" lon="2.32979">
        <ele>132.5</ele>
        <time>2023-11-22T13:16:03Z</time>
      </trkpt>
      <trkpt lat="49.99579" lon="2.32982">
        <ele>132.5</ele>
        <time>2023-11-22T13:16:04Z</time>
      </trkpt>
      <trkpt lat="49.99579" lon="2.32983">
        <ele>132.5</ele>
        <time>2023-11-22T13:16:05Z</time>
      </trkpt>
      <trkpt lat="49.99579" lon="2.32985">
        <ele>132.5</ele>
        <time>2023-11-22T13:16:06Z</time>
      </trkpt>
      <trkpt lat="49.9958" lon="2.32988">
        <ele>132.5</ele>
        <time>2023-11-22T13:16:07Z</time>
      </trkpt>
      <trkpt lat="49.9958" lon="2.32989">
        <ele>132.4</ele>
        <time>2023-11-22T13:16:09Z</time>
      </trkpt>
      <trkpt lat="49.9958" lon="2.32991">
        <ele>132.4</ele>
        <time>2023-11-22T13:16:10Z</time>
      </trkpt>
      <trkpt lat="49.9958" lon="2.32992">
        <ele>132.4</ele>
        <time>2023-11-22T13:16:11Z</time>
      </trkpt>
      <trkpt lat="49.9958" lon="2.32994">
        <ele>132.4</ele>
        <time>2023-11-22T13:16:12Z</time>
      </trkpt>
      <trkpt lat="49.99581" lon="2.32997">
        <ele>132.4</ele>
        <time>2023-11-22T13:16:14Z</time>
      </trkpt>
      <trkpt lat="49.99581" lon="2.33001">
        <ele>132.3</ele>
        <time>2023-11-22T13:16:15Z</time>
      </trkpt>
      <trkpt lat="49.99581" lon="2.33002">
        <ele>132.3</ele>
        <time>2023-11-22T13:16:16Z</time>
      </trkpt>
      <trkpt lat="49.99581" lon="2.33004">
        <ele>132.3</ele>
        <time>2023-11-22T13:16:17Z</time>
      </trkpt>
      <trkpt lat="49.99582" lon="2.33007">
        <ele>132.3</ele>
        <time>2023-11-22T13:16:18Z</time>
      </trkpt>
      <trkpt lat="49.99582" lon="2.33009">
        <ele>132.2</ele>
        <time>2023-11-22T13:16:19Z</time>
      </trkpt>
      <trkpt lat="49.99582" lon="2.3301">
        <ele>132.2</ele>
        <time>2023-11-22T13:16:20Z</time>
      </trkpt>
      <trkpt lat="49.99582" lon="2.33014">
        <ele>132.2</ele>
        <time>2023-11-22T13:16:21Z</time>
      </trkpt>
      <trkpt lat="49.99582" lon="2.33015">
        <ele>132.2</ele>
        <time>2023-11-22T13:16:22Z</time>
      </trkpt>
      <trkpt lat="49.99582" lon="2.33016">
        <ele>132.2</ele>
        <time>2023-11-22T13:16:23Z</time>
      </trkpt>
      <trkpt lat="49.99582" lon="2.33019">
        <ele>132.1</ele>
        <time>2023-11-22T13:16:25Z</time>
      </trkpt>
      <trkpt lat="49.99582" lon="2.33022">
        <ele>132.1</ele>
        <time>2023-11-22T13:16:26Z</time>
      </trkpt>
      <trkpt lat="49.99582" lon="2.33024">
        <ele>132.1</ele>
        <time>2023-11-22T13:16:27Z</time>
      </trkpt>
      <trkpt lat="49.99582" lon="2.33026">
        <ele>132</ele>
        <time>2023-11-22T13:16:28Z</time>
      </trkpt>
      <trkpt lat="49.99582" lon="2.33031">
        <ele>132</ele>
        <time>2023-11-22T13:16:30Z</time>
      </trkpt>
      <trkpt lat="49.99582" lon="2.33032">
        <ele>132</ele>
        <time>2023-11-22T13:16:32Z</time>
      </trkpt>
      <trkpt lat="49.99582" lon="2.33034">
        <ele>132</ele>
        <time>2023-11-22T13:16:33Z</time>
      </trkpt>
      <trkpt lat="49.99582" lon="2.33036">
        <ele>132</ele>
        <time>2023-11-22T13:16:34Z</time>
      </trkpt>
      <trkpt lat="49.99582" lon="2.33038">
        <ele>131.9</ele>
        <time>2023-11-22T13:16:35Z</time>
      </trkpt>
      <trkpt lat="49.99583" lon="2.33041">
        <ele>131.9</ele>
        <time>2023-11-22T13:16:36Z</time>
      </trkpt>
      <trkpt lat="49.99583" lon="2.33042">
        <ele>131.9</ele>
        <time>2023-11-22T13:16:37Z</time>
      </trkpt>
      <trkpt lat="49.99583" lon="2.33044">
        <ele>131.9</ele>
        <time>2023-11-22T13:16:38Z</time>
      </trkpt>
      <trkpt lat="49.99584" lon="2.33047">
        <ele>131.8</ele>
        <time>2023-11-22T13:16:39Z</time>
      </trkpt>
      <trkpt lat="49.99584" lon="2.33049">
        <ele>131.8</ele>
        <time>2023-11-22T13:16:40Z</time>
      </trkpt>
      <trkpt lat="49.99584" lon="2.3305">
        <ele>131.8</ele>
        <time>2023-11-22T13:16:41Z</time>
      </trkpt>
      <trkpt lat="49.99585" lon="2.33054">
        <ele>131.8</ele>
        <time>2023-11-22T13:16:43Z</time>
      </trkpt>
      <trkpt lat="49.99585" lon="2.33056">
        <ele>131.8</ele>
        <time>2023-11-22T13:16:44Z</time>
      </trkpt>
      <trkpt lat="49.99585" lon="2.33058">
        <ele>131.8</ele>
        <time>2023-11-22T13:16:45Z</time>
      </trkpt>
      <trkpt lat="49.99585" lon="2.3306">
        <ele>131.7</ele>
        <time>2023-11-22T13:16:46Z</time>
      </trkpt>
      <trkpt lat="49.99585" lon="2.33063">
        <ele>131.7</ele>
        <time>2023-11-22T13:16:48Z</time>
      </trkpt>
      <trkpt lat="49.99585" lon="2.33064">
        <ele>131.7</ele>
        <time>2023-11-22T13:16:49Z</time>
      </trkpt>
      <trkpt lat="49.99585" lon="2.33066">
        <ele>131.7</ele>
        <time>2023-11-22T13:16:50Z</time>
      </trkpt>
      <trkpt lat="49.99585" lon="2.33069">
        <ele>131.7</ele>
        <time>2023-11-22T13:16:52Z</time>
      </trkpt>
      <trkpt lat="49.99585" lon="2.33071">
        <ele>131.7</ele>
        <time>2023-11-22T13:16:53Z</time>
      </trkpt>
      <trkpt lat="49.99586" lon="2.33072">
        <ele>131.7</ele>
        <time>2023-11-22T13:16:54Z</time>
      </trkpt>
      <trkpt lat="49.99586" lon="2.33074">
        <ele>131.7</ele>
        <time>2023-11-22T13:16:55Z</time>
      </trkpt>
      <trkpt lat="49.99586" lon="2.33075">
        <ele>131.7</ele>
        <time>2023-11-22T13:16:57Z</time>
      </trkpt>
      <trkpt lat="49.99586" lon="2.33076">
        <ele>131.7</ele>
        <time>2023-11-22T13:16:58Z</time>
      </trkpt>
      <trkpt lat="49.99586" lon="2.33078">
        <ele>131.7</ele>
        <time>2023-11-22T13:16:59Z</time>
      </trkpt>
      <trkpt lat="49.99586" lon="2.3308">
        <ele>131.7</ele>
        <time>2023-11-22T13:17:00Z</time>
      </trkpt>
      <trkpt lat="49.99586" lon="2.33081">
        <ele>131.7</ele>
        <time>2023-11-22T13:17:01Z</time>
      </trkpt>
      <trkpt lat="49.99586" lon="2.33083">
        <ele>131.7</ele>
        <time>2023-11-22T13:17:02Z</time>
      </trkpt>
      <trkpt lat="49.99586" lon="2.33084">
        <ele>131.7</ele>
        <time>2023-11-22T13:17:03Z</time>
      </trkpt>
      <trkpt lat="49.99586" lon="2.33087">
        <ele>131.6</ele>
        <time>2023-11-22T13:17:04Z</time>
      </trkpt>
      <trkpt lat="49.99587" lon="2.33089">
        <ele>131.6</ele>
        <time>2023-11-22T13:17:06Z</time>
      </trkpt>
      <trkpt lat="49.99587" lon="2.3309">
        <ele>131.6</ele>
        <time>2023-11-22T13:17:07Z</time>
      </trkpt>
      <trkpt lat="49.99587" lon="2.33093">
        <ele>131.6</ele>
        <time>2023-11-22T13:17:09Z</time>
      </trkpt>
      <trkpt lat="49.99587" lon="2.33095">
        <ele>131.6</ele>
        <time>2023-11-22T13:17:10Z</time>
      </trkpt>
      <trkpt lat="49.99588" lon="2.33098">
        <ele>131.7</ele>
        <time>2023-11-22T13:17:11Z</time>
      </trkpt>
      <trkpt lat="49.99588" lon="2.33099">
        <ele>131.7</ele>
        <time>2023-11-22T13:17:12Z</time>
      </trkpt>
      <trkpt lat="49.99588" lon="2.33101">
        <ele>131.7</ele>
        <time>2023-11-22T13:17:13Z</time>
      </trkpt>
      <trkpt lat="49.99589" lon="2.33104">
        <ele>131.7</ele>
        <time>2023-11-22T13:17:14Z</time>
      </trkpt>
      <trkpt lat="49.99589" lon="2.33105">
        <ele>131.7</ele>
        <time>2023-11-22T13:17:15Z</time>
      </trkpt>
      <trkpt lat="49.99589" lon="2.33106">
        <ele>131.7</ele>
        <time>2023-11-22T13:17:16Z</time>
      </trkpt>
      <trkpt lat="49.9959" lon="2.33111">
        <ele>131.7</ele>
        <time>2023-11-22T13:17:18Z</time>
      </trkpt>
      <trkpt lat="49.9959" lon="2.33112">
        <ele>131.7</ele>
        <time>2023-11-22T13:17:19Z</time>
      </trkpt>
      <trkpt lat="49.9959" lon="2.33114">
        <ele>131.7</ele>
        <time>2023-11-22T13:17:20Z</time>
      </trkpt>
      <trkpt lat="49.9959" lon="2.33117">
        <ele>131.7</ele>
        <time>2023-11-22T13:17:22Z</time>
      </trkpt>
      <trkpt lat="49.99591" lon="2.3312">
        <ele>131.7</ele>
        <time>2023-11-22T13:17:23Z</time>
      </trkpt>
      <trkpt lat="49.99591" lon="2.33122">
        <ele>131.7</ele>
        <time>2023-11-22T13:17:24Z</time>
      </trkpt>
      <trkpt lat="49.99591" lon="2.33124">
        <ele>131.7</ele>
        <time>2023-11-22T13:17:25Z</time>
      </trkpt>
      <trkpt lat="49.99591" lon="2.33126">
        <ele>131.6</ele>
        <time>2023-11-22T13:17:26Z</time>
      </trkpt>
      <trkpt lat="49.99592" lon="2.33128">
        <ele>131.6</ele>
        <time>2023-11-22T13:17:27Z</time>
      </trkpt>
      <trkpt lat="49.99592" lon="2.33129">
        <ele>131.6</ele>
        <time>2023-11-22T13:17:28Z</time>
      </trkpt>
      <trkpt lat="49.99592" lon="2.33131">
        <ele>131.6</ele>
        <time>2023-11-22T13:17:29Z</time>
      </trkpt>
      <trkpt lat="49.99592" lon="2.33134">
        <ele>131.6</ele>
        <time>2023-11-22T13:17:31Z</time>
      </trkpt>
      <trkpt lat="49.99593" lon="2.33136">
        <ele>131.6</ele>
        <time>2023-11-22T13:17:32Z</time>
      </trkpt>
      <trkpt lat="49.99593" lon="2.33138">
        <ele>131.5</ele>
        <time>2023-11-22T13:17:33Z</time>
      </trkpt>
      <trkpt lat="49.99593" lon="2.33142">
        <ele>131.5</ele>
        <time>2023-11-22T13:17:35Z</time>
      </trkpt>
      <trkpt lat="49.99594" lon="2.33144">
        <ele>131.5</ele>
        <time>2023-11-22T13:17:36Z</time>
      </trkpt>
      <trkpt lat="49.99594" lon="2.33146">
        <ele>131.5</ele>
        <time>2023-11-22T13:17:37Z</time>
      </trkpt>
      <trkpt lat="49.99594" lon="2.33148">
        <ele>131.5</ele>
        <time>2023-11-22T13:17:38Z</time>
      </trkpt>
      <trkpt lat="49.99594" lon="2.3315">
        <ele>131.5</ele>
        <time>2023-11-22T13:17:39Z</time>
      </trkpt>
      <trkpt lat="49.99595" lon="2.33151">
        <ele>131.5</ele>
        <time>2023-11-22T13:17:40Z</time>
      </trkpt>
      <trkpt lat="49.99595" lon="2.33153">
        <ele>131.5</ele>
        <time>2023-11-22T13:17:41Z</time>
      </trkpt>
      <trkpt lat="49.99595" lon="2.33156">
        <ele>131.5</ele>
        <time>2023-11-22T13:17:43Z</time>
      </trkpt>
      <trkpt lat="49.99594" lon="2.33158">
        <ele>131.5</ele>
        <time>2023-11-22T13:17:44Z</time>
      </trkpt>
      <trkpt lat="49.99594" lon="2.3316">
        <ele>131.5</ele>
        <time>2023-11-22T13:17:45Z</time>
      </trkpt>
      <trkpt lat="49.99594" lon="2.33163">
        <ele>131.5</ele>
        <time>2023-11-22T13:17:46Z</time>
      </trkpt>
      <trkpt lat="49.99594" lon="2.33166">
        <ele>131.5</ele>
        <time>2023-11-22T13:17:48Z</time>
      </trkpt>
      <trkpt lat="49.99594" lon="2.33168">
        <ele>131.5</ele>
        <time>2023-11-22T13:17:49Z</time>
      </trkpt>
      <trkpt lat="49.99593" lon="2.33169">
        <ele>131.5</ele>
        <time>2023-11-22T13:17:50Z</time>
      </trkpt>
      <trkpt lat="49.99593" lon="2.33171">
        <ele>131.5</ele>
        <time>2023-11-22T13:17:51Z</time>
      </trkpt>
      <trkpt lat="49.99593" lon="2.33173">
        <ele>131.5</ele>
        <time>2023-11-22T13:17:52Z</time>
      </trkpt>
      <trkpt lat="49.99593" lon="2.33174">
        <ele>131.5</ele>
        <time>2023-11-22T13:17:53Z</time>
      </trkpt>
      <trkpt lat="49.99593" lon="2.33176">
        <ele>131.5</ele>
        <time>2023-11-22T13:17:54Z</time>
      </trkpt>
      <trkpt lat="49.99593" lon="2.33179">
        <ele>131.4</ele>
        <time>2023-11-22T13:17:55Z</time>
      </trkpt>
      <trkpt lat="49.99593" lon="2.3318">
        <ele>131.4</ele>
        <time>2023-11-22T13:17:56Z</time>
      </trkpt>
      <trkpt lat="49.99593" lon="2.33182">
        <ele>131.4</ele>
        <time>2023-11-22T13:17:57Z</time>
      </trkpt>
      <trkpt lat="49.99593" lon="2.33185">
        <ele>131.4</ele>
        <time>2023-11-22T13:17:59Z</time>
      </trkpt>
      <trkpt lat="49.99593" lon="2.33187">
        <ele>131.4</ele>
        <time>2023-11-22T13:18:00Z</time>
      </trkpt>
      <trkpt lat="49.99593" lon="2.33191">
        <ele>131.4</ele>
        <time>2023-11-22T13:18:01Z</time>
      </trkpt>
      <trkpt lat="49.99593" lon="2.33192">
        <ele>131.4</ele>
        <time>2023-11-22T13:18:02Z</time>
      </trkpt>
      <trkpt lat="49.99593" lon="2.33193">
        <ele>131.4</ele>
        <time>2023-11-22T13:18:03Z</time>
      </trkpt>
      <trkpt lat="49.99593" lon="2.33195">
        <ele>131.4</ele>
        <time>2023-11-22T13:18:04Z</time>
      </trkpt>
      <trkpt lat="49.99593" lon="2.33197">
        <ele>131.4</ele>
        <time>2023-11-22T13:18:06Z</time>
      </trkpt>
      <trkpt lat="49.99594" lon="2.33198">
        <ele>131.4</ele>
        <time>2023-11-22T13:18:07Z</time>
      </trkpt>
      <trkpt lat="49.99594" lon="2.332">
        <ele>131.4</ele>
        <time>2023-11-22T13:18:08Z</time>
      </trkpt>
      <trkpt lat="49.99594" lon="2.33202">
        <ele>131.4</ele>
        <time>2023-11-22T13:18:09Z</time>
      </trkpt>
      <trkpt lat="49.99595" lon="2.33205">
        <ele>131.4</ele>
        <time>2023-11-22T13:18:11Z</time>
      </trkpt>
      <trkpt lat="49.99595" lon="2.33209">
        <ele>131.4</ele>
        <time>2023-11-22T13:18:12Z</time>
      </trkpt>
      <trkpt lat="49.99595" lon="2.33211">
        <ele>131.4</ele>
        <time>2023-11-22T13:18:14Z</time>
      </trkpt>
      <trkpt lat="49.99596" lon="2.33212">
        <ele>131.4</ele>
        <time>2023-11-22T13:18:15Z</time>
      </trkpt>
      <trkpt lat="49.99596" lon="2.33214">
        <ele>131.3</ele>
        <time>2023-11-22T13:18:16Z</time>
      </trkpt>
      <trkpt lat="49.99596" lon="2.33216">
        <ele>131.3</ele>
        <time>2023-11-22T13:18:17Z</time>
      </trkpt>
      <trkpt lat="49.99596" lon="2.33217">
        <ele>131.3</ele>
        <time>2023-11-22T13:18:18Z</time>
      </trkpt>
      <trkpt lat="49.99597" lon="2.33219">
        <ele>131.3</ele>
        <time>2023-11-22T13:18:19Z</time>
      </trkpt>
      <trkpt lat="49.99597" lon="2.33221">
        <ele>131.3</ele>
        <time>2023-11-22T13:18:21Z</time>
      </trkpt>
      <trkpt lat="49.99597" lon="2.33223">
        <ele>131.3</ele>
        <time>2023-11-22T13:18:22Z</time>
      </trkpt>
      <trkpt lat="49.99598" lon="2.33225">
        <ele>131.4</ele>
        <time>2023-11-22T13:18:23Z</time>
      </trkpt>
      <trkpt lat="49.99598" lon="2.33227">
        <ele>131.4</ele>
        <time>2023-11-22T13:18:25Z</time>
      </trkpt>
      <trkpt lat="49.99599" lon="2.33231">
        <ele>131.4</ele>
        <time>2023-11-22T13:18:26Z</time>
      </trkpt>
      <trkpt lat="49.99599" lon="2.33232">
        <ele>131.4</ele>
        <time>2023-11-22T13:18:27Z</time>
      </trkpt>
      <trkpt lat="49.99599" lon="2.33233">
        <ele>131.4</ele>
        <time>2023-11-22T13:18:28Z</time>
      </trkpt>
      <trkpt lat="49.99599" lon="2.33235">
        <ele>131.4</ele>
        <time>2023-11-22T13:18:29Z</time>
      </trkpt>
      <trkpt lat="49.99599" lon="2.33236">
        <ele>131.4</ele>
        <time>2023-11-22T13:18:30Z</time>
      </trkpt>
      <trkpt lat="49.996" lon="2.33238">
        <ele>131.4</ele>
        <time>2023-11-22T13:18:31Z</time>
      </trkpt>
      <trkpt lat="49.996" lon="2.33241">
        <ele>131.4</ele>
        <time>2023-11-22T13:18:33Z</time>
      </trkpt>
      <trkpt lat="49.996" lon="2.33243">
        <ele>131.4</ele>
        <time>2023-11-22T13:18:34Z</time>
      </trkpt>
      <trkpt lat="49.99601" lon="2.33246">
        <ele>131.5</ele>
        <time>2023-11-22T13:18:36Z</time>
      </trkpt>
      <trkpt lat="49.99601" lon="2.33248">
        <ele>131.5</ele>
        <time>2023-11-22T13:18:37Z</time>
      </trkpt>
      <trkpt lat="49.99601" lon="2.33249">
        <ele>131.5</ele>
        <time>2023-11-22T13:18:38Z</time>
      </trkpt>
      <trkpt lat="49.99601" lon="2.33251">
        <ele>131.5</ele>
        <time>2023-11-22T13:18:39Z</time>
      </trkpt>
      <trkpt lat="49.99602" lon="2.33253">
        <ele>131.5</ele>
        <time>2023-11-22T13:18:40Z</time>
      </trkpt>
      <trkpt lat="49.99602" lon="2.33256">
        <ele>131.5</ele>
        <time>2023-11-22T13:18:42Z</time>
      </trkpt>
      <trkpt lat="49.99602" lon="2.33258">
        <ele>131.5</ele>
        <time>2023-11-22T13:18:43Z</time>
      </trkpt>
      <trkpt lat="49.99603" lon="2.3326">
        <ele>131.5</ele>
        <time>2023-11-22T13:18:44Z</time>
      </trkpt>
      <trkpt lat="49.99603" lon="2.33263">
        <ele>131.5</ele>
        <time>2023-11-22T13:18:46Z</time>
      </trkpt>
      <trkpt lat="49.99603" lon="2.33265">
        <ele>131.5</ele>
        <time>2023-11-22T13:18:47Z</time>
      </trkpt>
      <trkpt lat="49.99604" lon="2.33268">
        <ele>131.5</ele>
        <time>2023-11-22T13:18:48Z</time>
      </trkpt>
      <trkpt lat="49.99604" lon="2.33271">
        <ele>131.5</ele>
        <time>2023-11-22T13:18:49Z</time>
      </trkpt>
      <trkpt lat="49.99604" lon="2.33272">
        <ele>131.5</ele>
        <time>2023-11-22T13:18:50Z</time>
      </trkpt>
      <trkpt lat="49.99604" lon="2.33273">
        <ele>131.5</ele>
        <time>2023-11-22T13:18:51Z</time>
      </trkpt>
      <trkpt lat="49.99605" lon="2.33276">
        <ele>131.4</ele>
        <time>2023-11-22T13:18:53Z</time>
      </trkpt>
      <trkpt lat="49.99605" lon="2.33278">
        <ele>131.4</ele>
        <time>2023-11-22T13:18:54Z</time>
      </trkpt>
      <trkpt lat="49.99606" lon="2.33281">
        <ele>131.4</ele>
        <time>2023-11-22T13:18:56Z</time>
      </trkpt>
      <trkpt lat="49.99606" lon="2.33283">
        <ele>131.4</ele>
        <time>2023-11-22T13:18:57Z</time>
      </trkpt>
      <trkpt lat="49.99606" lon="2.33285">
        <ele>131.4</ele>
        <time>2023-11-22T13:18:58Z</time>
      </trkpt>
      <trkpt lat="49.99606" lon="2.33287">
        <ele>131.4</ele>
        <time>2023-11-22T13:18:59Z</time>
      </trkpt>
      <trkpt lat="49.99606" lon="2.33289">
        <ele>131.4</ele>
        <time>2023-11-22T13:19:00Z</time>
      </trkpt>
      <trkpt lat="49.99606" lon="2.3329">
        <ele>131.4</ele>
        <time>2023-11-22T13:19:01Z</time>
      </trkpt>
      <trkpt lat="49.99606" lon="2.33293">
        <ele>131.4</ele>
        <time>2023-11-22T13:19:03Z</time>
      </trkpt>
      <trkpt lat="49.99607" lon="2.33295">
        <ele>131.4</ele>
        <time>2023-11-22T13:19:04Z</time>
      </trkpt>
      <trkpt lat="49.99607" lon="2.33297">
        <ele>131.4</ele>
        <time>2023-11-22T13:19:05Z</time>
      </trkpt>
      <trkpt lat="49.99607" lon="2.33298">
        <ele>131.4</ele>
        <time>2023-11-22T13:19:06Z</time>
      </trkpt>
      <trkpt lat="49.99607" lon="2.33301">
        <ele>131.4</ele>
        <time>2023-11-22T13:19:08Z</time>
      </trkpt>
      <trkpt lat="49.99607" lon="2.33303">
        <ele>131.4</ele>
        <time>2023-11-22T13:19:09Z</time>
      </trkpt>
      <trkpt lat="49.99607" lon="2.33305">
        <ele>131.4</ele>
        <time>2023-11-22T13:19:10Z</time>
      </trkpt>
      <trkpt lat="49.99607" lon="2.33307">
        <ele>131.4</ele>
        <time>2023-11-22T13:19:11Z</time>
      </trkpt>
      <trkpt lat="49.99608" lon="2.33309">
        <ele>131.4</ele>
        <time>2023-11-22T13:19:12Z</time>
      </trkpt>
      <trkpt lat="49.99608" lon="2.33311">
        <ele>131.4</ele>
        <time>2023-11-22T13:19:14Z</time>
      </trkpt>
      <trkpt lat="49.99608" lon="2.33313">
        <ele>131.4</ele>
        <time>2023-11-22T13:19:15Z</time>
      </trkpt>
      <trkpt lat="49.99608" lon="2.33316">
        <ele>131.4</ele>
        <time>2023-11-22T13:19:17Z</time>
      </trkpt>
      <trkpt lat="49.99608" lon="2.33318">
        <ele>131.4</ele>
        <time>2023-11-22T13:19:18Z</time>
      </trkpt>
      <trkpt lat="49.99608" lon="2.33321">
        <ele>131.4</ele>
        <time>2023-11-22T13:19:19Z</time>
      </trkpt>
      <trkpt lat="49.99608" lon="2.33323">
        <ele>131.4</ele>
        <time>2023-11-22T13:19:20Z</time>
      </trkpt>
      <trkpt lat="49.99608" lon="2.33324">
        <ele>131.4</ele>
        <time>2023-11-22T13:19:21Z</time>
      </trkpt>
      <trkpt lat="49.99608" lon="2.33327">
        <ele>131.4</ele>
        <time>2023-11-22T13:19:22Z</time>
      </trkpt>
      <trkpt lat="49.99608" lon="2.33329">
        <ele>131.4</ele>
        <time>2023-11-22T13:19:23Z</time>
      </trkpt>
      <trkpt lat="49.99608" lon="2.3333">
        <ele>131.4</ele>
        <time>2023-11-22T13:19:24Z</time>
      </trkpt>
      <trkpt lat="49.99608" lon="2.33333">
        <ele>131.4</ele>
        <time>2023-11-22T13:19:26Z</time>
      </trkpt>
      <trkpt lat="49.99608" lon="2.33335">
        <ele>131.4</ele>
        <time>2023-11-22T13:19:27Z</time>
      </trkpt>
      <trkpt lat="49.99609" lon="2.33338">
        <ele>131.4</ele>
        <time>2023-11-22T13:19:28Z</time>
      </trkpt>
      <trkpt lat="49.99609" lon="2.33339">
        <ele>131.4</ele>
        <time>2023-11-22T13:19:29Z</time>
      </trkpt>
      <trkpt lat="49.99609" lon="2.33344">
        <ele>131.4</ele>
        <time>2023-11-22T13:19:31Z</time>
      </trkpt>
      <trkpt lat="49.9961" lon="2.33345">
        <ele>131.4</ele>
        <time>2023-11-22T13:19:32Z</time>
      </trkpt>
      <trkpt lat="49.9961" lon="2.33347">
        <ele>131.4</ele>
        <time>2023-11-22T13:19:33Z</time>
      </trkpt>
      <trkpt lat="49.9961" lon="2.33349">
        <ele>131.4</ele>
        <time>2023-11-22T13:19:34Z</time>
      </trkpt>
      <trkpt lat="49.9961" lon="2.3335">
        <ele>131.4</ele>
        <time>2023-11-22T13:19:35Z</time>
      </trkpt>
      <trkpt lat="49.9961" lon="2.33352">
        <ele>131.4</ele>
        <time>2023-11-22T13:19:36Z</time>
      </trkpt>
      <trkpt lat="49.99611" lon="2.33355">
        <ele>131.4</ele>
        <time>2023-11-22T13:19:38Z</time>
      </trkpt>
      <trkpt lat="49.99611" lon="2.33357">
        <ele>131.4</ele>
        <time>2023-11-22T13:19:39Z</time>
      </trkpt>
      <trkpt lat="49.99611" lon="2.3336">
        <ele>131.4</ele>
        <time>2023-11-22T13:19:40Z</time>
      </trkpt>
      <trkpt lat="49.9961" lon="2.33363">
        <ele>131.4</ele>
        <time>2023-11-22T13:19:42Z</time>
      </trkpt>
      <trkpt lat="49.9961" lon="2.33365">
        <ele>131.4</ele>
        <time>2023-11-22T13:19:43Z</time>
      </trkpt>
      <trkpt lat="49.9961" lon="2.33366">
        <ele>131.4</ele>
        <time>2023-11-22T13:19:44Z</time>
      </trkpt>
      <trkpt lat="49.9961" lon="2.33368">
        <ele>131.4</ele>
        <time>2023-11-22T13:19:45Z</time>
      </trkpt>
      <trkpt lat="49.9961" lon="2.33369">
        <ele>131.4</ele>
        <time>2023-11-22T13:19:46Z</time>
      </trkpt>
      <trkpt lat="49.9961" lon="2.33371">
        <ele>131.4</ele>
        <time>2023-11-22T13:19:47Z</time>
      </trkpt>
      <trkpt lat="49.9961" lon="2.33374">
        <ele>131.4</ele>
        <time>2023-11-22T13:19:49Z</time>
      </trkpt>
      <trkpt lat="49.9961" lon="2.33376">
        <ele>131.4</ele>
        <time>2023-11-22T13:19:50Z</time>
      </trkpt>
      <trkpt lat="49.9961" lon="2.33377">
        <ele>131.4</ele>
        <time>2023-11-22T13:19:51Z</time>
      </trkpt>
      <trkpt lat="49.9961" lon="2.33379">
        <ele>131.4</ele>
        <time>2023-11-22T13:19:52Z</time>
      </trkpt>
      <trkpt lat="49.99611" lon="2.33381">
        <ele>131.4</ele>
        <time>2023-11-22T13:19:53Z</time>
      </trkpt>
      <trkpt lat="49.99611" lon="2.33384">
        <ele>131.4</ele>
        <time>2023-11-22T13:19:55Z</time>
      </trkpt>
      <trkpt lat="49.99611" lon="2.33385">
        <ele>131.4</ele>
        <time>2023-11-22T13:19:56Z</time>
      </trkpt>
      <trkpt lat="49.99611" lon="2.33387">
        <ele>131.4</ele>
        <time>2023-11-22T13:19:57Z</time>
      </trkpt>
      <trkpt lat="49.99611" lon="2.33389">
        <ele>131.4</ele>
        <time>2023-11-22T13:19:58Z</time>
      </trkpt>
      <trkpt lat="49.99612" lon="2.33392">
        <ele>131.4</ele>
        <time>2023-11-22T13:20:00Z</time>
      </trkpt>
      <trkpt lat="49.99612" lon="2.33395">
        <ele>131.4</ele>
        <time>2023-11-22T13:20:02Z</time>
      </trkpt>
      <trkpt lat="49.99612" lon="2.33398">
        <ele>131.4</ele>
        <time>2023-11-22T13:20:03Z</time>
      </trkpt>
      <trkpt lat="49.99613" lon="2.33399">
        <ele>131.4</ele>
        <time>2023-11-22T13:20:04Z</time>
      </trkpt>
      <trkpt lat="49.99613" lon="2.33401">
        <ele>131.4</ele>
        <time>2023-11-22T13:20:05Z</time>
      </trkpt>
      <trkpt lat="49.99613" lon="2.33402">
        <ele>131.4</ele>
        <time>2023-11-22T13:20:06Z</time>
      </trkpt>
      <trkpt lat="49.99613" lon="2.33404">
        <ele>131.4</ele>
        <time>2023-11-22T13:20:07Z</time>
      </trkpt>
      <trkpt lat="49.99614" lon="2.33406">
        <ele>131.4</ele>
        <time>2023-11-22T13:20:08Z</time>
      </trkpt>
      <trkpt lat="49.99614" lon="2.33409">
        <ele>131.4</ele>
        <time>2023-11-22T13:20:10Z</time>
      </trkpt>
      <trkpt lat="49.99614" lon="2.33411">
        <ele>131.4</ele>
        <time>2023-11-22T13:20:11Z</time>
      </trkpt>
      <trkpt lat="49.99615" lon="2.33413">
        <ele>131.4</ele>
        <time>2023-11-22T13:20:12Z</time>
      </trkpt>
      <trkpt lat="49.99615" lon="2.33417">
        <ele>131.4</ele>
        <time>2023-11-22T13:20:14Z</time>
      </trkpt>
      <trkpt lat="49.99616" lon="2.33418">
        <ele>131.4</ele>
        <time>2023-11-22T13:20:15Z</time>
      </trkpt>
      <trkpt lat="49.99616" lon="2.3342">
        <ele>131.5</ele>
        <time>2023-11-22T13:20:16Z</time>
      </trkpt>
      <trkpt lat="49.99616" lon="2.33422">
        <ele>131.5</ele>
        <time>2023-11-22T13:20:17Z</time>
      </trkpt>
      <trkpt lat="49.99616" lon="2.33424">
        <ele>131.5</ele>
        <time>2023-11-22T13:20:18Z</time>
      </trkpt>
      <trkpt lat="49.99617" lon="2.33427">
        <ele>131.5</ele>
        <time>2023-11-22T13:20:20Z</time>
      </trkpt>
      <trkpt lat="49.99617" lon="2.33429">
        <ele>131.5</ele>
        <time>2023-11-22T13:20:21Z</time>
      </trkpt>
      <trkpt lat="49.99617" lon="2.33431">
        <ele>131.5</ele>
        <time>2023-11-22T13:20:22Z</time>
      </trkpt>
      <trkpt lat="49.99617" lon="2.33434">
        <ele>131.6</ele>
        <time>2023-11-22T13:20:24Z</time>
      </trkpt>
      <trkpt lat="49.99617" lon="2.33435">
        <ele>131.6</ele>
        <time>2023-11-22T13:20:25Z</time>
      </trkpt>
      <trkpt lat="49.99617" lon="2.33437">
        <ele>131.6</ele>
        <time>2023-11-22T13:20:26Z</time>
      </trkpt>
      <trkpt lat="49.99618" lon="2.33439">
        <ele>131.6</ele>
        <time>2023-11-22T13:20:27Z</time>
      </trkpt>
      <trkpt lat="49.99618" lon="2.33442">
        <ele>131.6</ele>
        <time>2023-11-22T13:20:29Z</time>
      </trkpt>
      <trkpt lat="49.99618" lon="2.33444">
        <ele>131.5</ele>
        <time>2023-11-22T13:20:30Z</time>
      </trkpt>
      <trkpt lat="49.99618" lon="2.33446">
        <ele>131.5</ele>
        <time>2023-11-22T13:20:31Z</time>
      </trkpt>
      <trkpt lat="49.99618" lon="2.33448">
        <ele>131.5</ele>
        <time>2023-11-22T13:20:32Z</time>
      </trkpt>
      <trkpt lat="49.99618" lon="2.33452">
        <ele>131.5</ele>
        <time>2023-11-22T13:20:34Z</time>
      </trkpt>
      <trkpt lat="49.99618" lon="2.33453">
        <ele>131.5</ele>
        <time>2023-11-22T13:20:35Z</time>
      </trkpt>
      <trkpt lat="49.99618" lon="2.33457">
        <ele>131.4</ele>
        <time>2023-11-22T13:20:36Z</time>
      </trkpt>
      <trkpt lat="49.99618" lon="2.33458">
        <ele>131.4</ele>
        <time>2023-11-22T13:20:37Z</time>
      </trkpt>
      <trkpt lat="49.99618" lon="2.3346">
        <ele>131.4</ele>
        <time>2023-11-22T13:20:38Z</time>
      </trkpt>
      <trkpt lat="49.99618" lon="2.33462">
        <ele>131.4</ele>
        <time>2023-11-22T13:20:40Z</time>
      </trkpt>
      <trkpt lat="49.99618" lon="2.33464">
        <ele>131.4</ele>
        <time>2023-11-22T13:20:41Z</time>
      </trkpt>
      <trkpt lat="49.99618" lon="2.33467">
        <ele>131.3</ele>
        <time>2023-11-22T13:20:42Z</time>
      </trkpt>
      <trkpt lat="49.99618" lon="2.33469">
        <ele>131.3</ele>
        <time>2023-11-22T13:20:43Z</time>
      </trkpt>
      <trkpt lat="49.99618" lon="2.33472">
        <ele>131.3</ele>
        <time>2023-11-22T13:20:44Z</time>
      </trkpt>
      <trkpt lat="49.99618" lon="2.33474">
        <ele>131.3</ele>
        <time>2023-11-22T13:20:45Z</time>
      </trkpt>
      <trkpt lat="49.99619" lon="2.33475">
        <ele>131.3</ele>
        <time>2023-11-22T13:20:46Z</time>
      </trkpt>
      <trkpt lat="49.99619" lon="2.33478">
        <ele>131.3</ele>
        <time>2023-11-22T13:20:48Z</time>
      </trkpt>
      <trkpt lat="49.99619" lon="2.3348">
        <ele>131.3</ele>
        <time>2023-11-22T13:20:49Z</time>
      </trkpt>
      <trkpt lat="49.99619" lon="2.33481">
        <ele>131.3</ele>
        <time>2023-11-22T13:20:50Z</time>
      </trkpt>
      <trkpt lat="49.99619" lon="2.33483">
        <ele>131.3</ele>
        <time>2023-11-22T13:20:51Z</time>
      </trkpt>
      <trkpt lat="49.99619" lon="2.33484">
        <ele>131.3</ele>
        <time>2023-11-22T13:20:52Z</time>
      </trkpt>
      <trkpt lat="49.9962" lon="2.33486">
        <ele>131.3</ele>
        <time>2023-11-22T13:20:53Z</time>
      </trkpt>
      <trkpt lat="49.9962" lon="2.33488">
        <ele>131.3</ele>
        <time>2023-11-22T13:20:54Z</time>
      </trkpt>
      <trkpt lat="49.9962" lon="2.33491">
        <ele>131.3</ele>
        <time>2023-11-22T13:20:55Z</time>
      </trkpt>
      <trkpt lat="49.9962" lon="2.33493">
        <ele>131.3</ele>
        <time>2023-11-22T13:20:57Z</time>
      </trkpt>
      <trkpt lat="49.9962" lon="2.33495">
        <ele>131.3</ele>
        <time>2023-11-22T13:20:58Z</time>
      </trkpt>
      <trkpt lat="49.9962" lon="2.33497">
        <ele>131.3</ele>
        <time>2023-11-22T13:20:59Z</time>
      </trkpt>
      <trkpt lat="49.9962" lon="2.33499">
        <ele>131.2</ele>
        <time>2023-11-22T13:21:00Z</time>
      </trkpt>
      <trkpt lat="49.9962" lon="2.335">
        <ele>131.2</ele>
        <time>2023-11-22T13:21:01Z</time>
      </trkpt>
      <trkpt lat="49.9962" lon="2.33502">
        <ele>131.2</ele>
        <time>2023-11-22T13:21:02Z</time>
      </trkpt>
      <trkpt lat="49.9962" lon="2.33505">
        <ele>131.2</ele>
        <time>2023-11-22T13:21:03Z</time>
      </trkpt>
      <trkpt lat="49.9962" lon="2.33507">
        <ele>131.2</ele>
        <time>2023-11-22T13:21:04Z</time>
      </trkpt>
      <trkpt lat="49.9962" lon="2.33509">
        <ele>131.2</ele>
        <time>2023-11-22T13:21:06Z</time>
      </trkpt>
      <trkpt lat="49.99621" lon="2.33511">
        <ele>131.2</ele>
        <time>2023-11-22T13:21:07Z</time>
      </trkpt>
      <trkpt lat="49.99621" lon="2.33513">
        <ele>131.2</ele>
        <time>2023-11-22T13:21:08Z</time>
      </trkpt>
      <trkpt lat="49.99621" lon="2.33516">
        <ele>131.2</ele>
        <time>2023-11-22T13:21:09Z</time>
      </trkpt>
      <trkpt lat="49.99621" lon="2.33518">
        <ele>131.2</ele>
        <time>2023-11-22T13:21:10Z</time>
      </trkpt>
      <trkpt lat="49.99621" lon="2.33519">
        <ele>131.2</ele>
        <time>2023-11-22T13:21:11Z</time>
      </trkpt>
      <trkpt lat="49.99621" lon="2.33521">
        <ele>131.2</ele>
        <time>2023-11-22T13:21:12Z</time>
      </trkpt>
      <trkpt lat="49.99621" lon="2.33523">
        <ele>131.2</ele>
        <time>2023-11-22T13:21:14Z</time>
      </trkpt>
      <trkpt lat="49.99622" lon="2.33526">
        <ele>131.2</ele>
        <time>2023-11-22T13:21:15Z</time>
      </trkpt>
      <trkpt lat="49.99622" lon="2.33528">
        <ele>131.2</ele>
        <time>2023-11-22T13:21:16Z</time>
      </trkpt>
      <trkpt lat="49.99622" lon="2.33529">
        <ele>131.2</ele>
        <time>2023-11-22T13:21:17Z</time>
      </trkpt>
      <trkpt lat="49.99623" lon="2.33531">
        <ele>131.2</ele>
        <time>2023-11-22T13:21:18Z</time>
      </trkpt>
      <trkpt lat="49.99623" lon="2.33534">
        <ele>131.2</ele>
        <time>2023-11-22T13:21:20Z</time>
      </trkpt>
      <trkpt lat="49.99623" lon="2.33536">
        <ele>131.2</ele>
        <time>2023-11-22T13:21:21Z</time>
      </trkpt>
      <trkpt lat="49.99623" lon="2.33538">
        <ele>131.2</ele>
        <time>2023-11-22T13:21:22Z</time>
      </trkpt>
      <trkpt lat="49.99624" lon="2.33541">
        <ele>131.2</ele>
        <time>2023-11-22T13:21:24Z</time>
      </trkpt>
      <trkpt lat="49.99624" lon="2.33542">
        <ele>131.2</ele>
        <time>2023-11-22T13:21:25Z</time>
      </trkpt>
      <trkpt lat="49.99624" lon="2.33544">
        <ele>131.1</ele>
        <time>2023-11-22T13:21:26Z</time>
      </trkpt>
      <trkpt lat="49.99625" lon="2.33546">
        <ele>131.1</ele>
        <time>2023-11-22T13:21:27Z</time>
      </trkpt>
      <trkpt lat="49.99625" lon="2.33548">
        <ele>131.1</ele>
        <time>2023-11-22T13:21:28Z</time>
      </trkpt>
      <trkpt lat="49.99625" lon="2.3355">
        <ele>131.1</ele>
        <time>2023-11-22T13:21:29Z</time>
      </trkpt>
      <trkpt lat="49.99626" lon="2.33552">
        <ele>131.1</ele>
        <time>2023-11-22T13:21:31Z</time>
      </trkpt>
      <trkpt lat="49.99626" lon="2.33556">
        <ele>131.1</ele>
        <time>2023-11-22T13:21:32Z</time>
      </trkpt>
      <trkpt lat="49.99626" lon="2.33557">
        <ele>131.1</ele>
        <time>2023-11-22T13:21:33Z</time>
      </trkpt>
      <trkpt lat="49.99626" lon="2.33558">
        <ele>131.1</ele>
        <time>2023-11-22T13:21:34Z</time>
      </trkpt>
      <trkpt lat="49.99626" lon="2.3356">
        <ele>131.1</ele>
        <time>2023-11-22T13:21:35Z</time>
      </trkpt>
      <trkpt lat="49.99626" lon="2.33562">
        <ele>131.1</ele>
        <time>2023-11-22T13:21:36Z</time>
      </trkpt>
      <trkpt lat="49.99626" lon="2.33564">
        <ele>131.1</ele>
        <time>2023-11-22T13:21:38Z</time>
      </trkpt>
      <trkpt lat="49.99626" lon="2.33566">
        <ele>131.1</ele>
        <time>2023-11-22T13:21:39Z</time>
      </trkpt>
      <trkpt lat="49.99626" lon="2.33567">
        <ele>131.1</ele>
        <time>2023-11-22T13:21:40Z</time>
      </trkpt>
      <trkpt lat="49.99626" lon="2.33569">
        <ele>131.1</ele>
        <time>2023-11-22T13:21:41Z</time>
      </trkpt>
      <trkpt lat="49.99626" lon="2.33572">
        <ele>131.1</ele>
        <time>2023-11-22T13:21:42Z</time>
      </trkpt>
      <trkpt lat="49.99627" lon="2.33573">
        <ele>131.1</ele>
        <time>2023-11-22T13:21:44Z</time>
      </trkpt>
      <trkpt lat="49.99627" lon="2.33575">
        <ele>131.1</ele>
        <time>2023-11-22T13:21:45Z</time>
      </trkpt>
      <trkpt lat="49.99627" lon="2.33577">
        <ele>131.1</ele>
        <time>2023-11-22T13:21:46Z</time>
      </trkpt>
      <trkpt lat="49.99627" lon="2.33578">
        <ele>131.1</ele>
        <time>2023-11-22T13:21:47Z</time>
      </trkpt>
      <trkpt lat="49.99628" lon="2.3358">
        <ele>131.1</ele>
        <time>2023-11-22T13:21:49Z</time>
      </trkpt>
      <trkpt lat="49.99628" lon="2.33582">
        <ele>131</ele>
        <time>2023-11-22T13:21:50Z</time>
      </trkpt>
      <trkpt lat="49.99628" lon="2.33584">
        <ele>131</ele>
        <time>2023-11-22T13:21:51Z</time>
      </trkpt>
      <trkpt lat="49.99628" lon="2.33587">
        <ele>131</ele>
        <time>2023-11-22T13:21:53Z</time>
      </trkpt>
      <trkpt lat="49.99628" lon="2.33589">
        <ele>131</ele>
        <time>2023-11-22T13:21:54Z</time>
      </trkpt>
      <trkpt lat="49.99628" lon="2.33591">
        <ele>131</ele>
        <time>2023-11-22T13:21:55Z</time>
      </trkpt>
      <trkpt lat="49.99628" lon="2.33593">
        <ele>130.9</ele>
        <time>2023-11-22T13:21:56Z</time>
      </trkpt>
      <trkpt lat="49.99629" lon="2.33596">
        <ele>130.9</ele>
        <time>2023-11-22T13:21:58Z</time>
      </trkpt>
      <trkpt lat="49.99629" lon="2.33597">
        <ele>130.9</ele>
        <time>2023-11-22T13:21:59Z</time>
      </trkpt>
      <trkpt lat="49.99629" lon="2.33598">
        <ele>130.9</ele>
        <time>2023-11-22T13:22:00Z</time>
      </trkpt>
      <trkpt lat="49.99629" lon="2.336">
        <ele>130.9</ele>
        <time>2023-11-22T13:22:01Z</time>
      </trkpt>
      <trkpt lat="49.99629" lon="2.33602">
        <ele>130.9</ele>
        <time>2023-11-22T13:22:02Z</time>
      </trkpt>
      <trkpt lat="49.9963" lon="2.33604">
        <ele>130.9</ele>
        <time>2023-11-22T13:22:04Z</time>
      </trkpt>
      <trkpt lat="49.9963" lon="2.33606">
        <ele>130.8</ele>
        <time>2023-11-22T13:22:05Z</time>
      </trkpt>
      <trkpt lat="49.9963" lon="2.33608">
        <ele>130.8</ele>
        <time>2023-11-22T13:22:06Z</time>
      </trkpt>
      <trkpt lat="49.9963" lon="2.33609">
        <ele>130.8</ele>
        <time>2023-11-22T13:22:07Z</time>
      </trkpt>
      <trkpt lat="49.99631" lon="2.33611">
        <ele>130.8</ele>
        <time>2023-11-22T13:22:08Z</time>
      </trkpt>
      <trkpt lat="49.99631" lon="2.33613">
        <ele>130.8</ele>
        <time>2023-11-22T13:22:09Z</time>
      </trkpt>
      <trkpt lat="49.99631" lon="2.33615">
        <ele>130.8</ele>
        <time>2023-11-22T13:22:10Z</time>
      </trkpt>
      <trkpt lat="49.99632" lon="2.33618">
        <ele>130.7</ele>
        <time>2023-11-22T13:22:12Z</time>
      </trkpt>
      <trkpt lat="49.99632" lon="2.33619">
        <ele>130.7</ele>
        <time>2023-11-22T13:22:13Z</time>
      </trkpt>
      <trkpt lat="49.99632" lon="2.3362">
        <ele>130.7</ele>
        <time>2023-11-22T13:22:14Z</time>
      </trkpt>
      <trkpt lat="49.99633" lon="2.33623">
        <ele>130.7</ele>
        <time>2023-11-22T13:22:15Z</time>
      </trkpt>
      <trkpt lat="49.99633" lon="2.33625">
        <ele>130.7</ele>
        <time>2023-11-22T13:22:16Z</time>
      </trkpt>
      <trkpt lat="49.99633" lon="2.33626">
        <ele>130.7</ele>
        <time>2023-11-22T13:22:17Z</time>
      </trkpt>
      <trkpt lat="49.99634" lon="2.33629">
        <ele>130.7</ele>
        <time>2023-11-22T13:22:18Z</time>
      </trkpt>
      <trkpt lat="49.99634" lon="2.3363">
        <ele>130.7</ele>
        <time>2023-11-22T13:22:20Z</time>
      </trkpt>
      <trkpt lat="49.99634" lon="2.33631">
        <ele>130.7</ele>
        <time>2023-11-22T13:22:21Z</time>
      </trkpt>
      <trkpt lat="49.99635" lon="2.33633">
        <ele>130.7</ele>
        <time>2023-11-22T13:22:22Z</time>
      </trkpt>
      <trkpt lat="49.99635" lon="2.33634">
        <ele>130.7</ele>
        <time>2023-11-22T13:22:23Z</time>
      </trkpt>
      <trkpt lat="49.99635" lon="2.33636">
        <ele>130.6</ele>
        <time>2023-11-22T13:22:24Z</time>
      </trkpt>
      <trkpt lat="49.99635" lon="2.33639">
        <ele>130.6</ele>
        <time>2023-11-22T13:22:26Z</time>
      </trkpt>
      <trkpt lat="49.99635" lon="2.33641">
        <ele>130.6</ele>
        <time>2023-11-22T13:22:27Z</time>
      </trkpt>
      <trkpt lat="49.99635" lon="2.33643">
        <ele>130.6</ele>
        <time>2023-11-22T13:22:28Z</time>
      </trkpt>
      <trkpt lat="49.99635" lon="2.33646">
        <ele>130.6</ele>
        <time>2023-11-22T13:22:29Z</time>
      </trkpt>
      <trkpt lat="49.99635" lon="2.33649">
        <ele>130.6</ele>
        <time>2023-11-22T13:22:31Z</time>
      </trkpt>
      <trkpt lat="49.99635" lon="2.3365">
        <ele>130.6</ele>
        <time>2023-11-22T13:22:32Z</time>
      </trkpt>
      <trkpt lat="49.99635" lon="2.33652">
        <ele>130.6</ele>
        <time>2023-11-22T13:22:33Z</time>
      </trkpt>
      <trkpt lat="49.99634" lon="2.33654">
        <ele>130.6</ele>
        <time>2023-11-22T13:22:34Z</time>
      </trkpt>
      <trkpt lat="49.99634" lon="2.33656">
        <ele>130.6</ele>
        <time>2023-11-22T13:22:35Z</time>
      </trkpt>
      <trkpt lat="49.99634" lon="2.33658">
        <ele>130.5</ele>
        <time>2023-11-22T13:22:36Z</time>
      </trkpt>
      <trkpt lat="49.99634" lon="2.3366">
        <ele>130.5</ele>
        <time>2023-11-22T13:22:38Z</time>
      </trkpt>
      <trkpt lat="49.99634" lon="2.33662">
        <ele>130.5</ele>
        <time>2023-11-22T13:22:39Z</time>
      </trkpt>
      <trkpt lat="49.99634" lon="2.33664">
        <ele>130.5</ele>
        <time>2023-11-22T13:22:40Z</time>
      </trkpt>
      <trkpt lat="49.99634" lon="2.33666">
        <ele>130.5</ele>
        <time>2023-11-22T13:22:41Z</time>
      </trkpt>
      <trkpt lat="49.99634" lon="2.33668">
        <ele>130.5</ele>
        <time>2023-11-22T13:22:43Z</time>
      </trkpt>
      <trkpt lat="49.99635" lon="2.33672">
        <ele>130.5</ele>
        <time>2023-11-22T13:22:44Z</time>
      </trkpt>
      <trkpt lat="49.99635" lon="2.33673">
        <ele>130.5</ele>
        <time>2023-11-22T13:22:45Z</time>
      </trkpt>
      <trkpt lat="49.99635" lon="2.33674">
        <ele>130.5</ele>
        <time>2023-11-22T13:22:46Z</time>
      </trkpt>
      <trkpt lat="49.99635" lon="2.33677">
        <ele>130.5</ele>
        <time>2023-11-22T13:22:48Z</time>
      </trkpt>
      <trkpt lat="49.99635" lon="2.33679">
        <ele>130.5</ele>
        <time>2023-11-22T13:22:49Z</time>
      </trkpt>
      <trkpt lat="49.99635" lon="2.3368">
        <ele>130.5</ele>
        <time>2023-11-22T13:22:50Z</time>
      </trkpt>
      <trkpt lat="49.99635" lon="2.33682">
        <ele>130.5</ele>
        <time>2023-11-22T13:22:51Z</time>
      </trkpt>
      <trkpt lat="49.99635" lon="2.33683">
        <ele>130.5</ele>
        <time>2023-11-22T13:22:52Z</time>
      </trkpt>
      <trkpt lat="49.99636" lon="2.33685">
        <ele>130.5</ele>
        <time>2023-11-22T13:22:54Z</time>
      </trkpt>
      <trkpt lat="49.99636" lon="2.33687">
        <ele>130.5</ele>
        <time>2023-11-22T13:22:55Z</time>
      </trkpt>
      <trkpt lat="49.99636" lon="2.33689">
        <ele>130.5</ele>
        <time>2023-11-22T13:22:56Z</time>
      </trkpt>
      <trkpt lat="49.99636" lon="2.33691">
        <ele>130.5</ele>
        <time>2023-11-22T13:22:57Z</time>
      </trkpt>
      <trkpt lat="49.99636" lon="2.33693">
        <ele>130.5</ele>
        <time>2023-11-22T13:22:59Z</time>
      </trkpt>
      <trkpt lat="49.99637" lon="2.33695">
        <ele>130.5</ele>
        <time>2023-11-22T13:23:00Z</time>
      </trkpt>
      <trkpt lat="49.99637" lon="2.33697">
        <ele>130.5</ele>
        <time>2023-11-22T13:23:01Z</time>
      </trkpt>
      <trkpt lat="49.99637" lon="2.33699">
        <ele>130.5</ele>
        <time>2023-11-22T13:23:03Z</time>
      </trkpt>
      <trkpt lat="49.99638" lon="2.33701">
        <ele>130.5</ele>
        <time>2023-11-22T13:23:04Z</time>
      </trkpt>
      <trkpt lat="49.99638" lon="2.33703">
        <ele>130.5</ele>
        <time>2023-11-22T13:23:06Z</time>
      </trkpt>
      <trkpt lat="49.99638" lon="2.33705">
        <ele>130.5</ele>
        <time>2023-11-22T13:23:07Z</time>
      </trkpt>
      <trkpt lat="49.99639" lon="2.33708">
        <ele>130.5</ele>
        <time>2023-11-22T13:23:08Z</time>
      </trkpt>
      <trkpt lat="49.99639" lon="2.33709">
        <ele>130.5</ele>
        <time>2023-11-22T13:23:09Z</time>
      </trkpt>
      <trkpt lat="49.9964" lon="2.33711">
        <ele>130.5</ele>
        <time>2023-11-22T13:23:10Z</time>
      </trkpt>
      <trkpt lat="49.9964" lon="2.33712">
        <ele>130.5</ele>
        <time>2023-11-22T13:23:12Z</time>
      </trkpt>
      <trkpt lat="49.9964" lon="2.33714">
        <ele>130.5</ele>
        <time>2023-11-22T13:23:13Z</time>
      </trkpt>
      <trkpt lat="49.99641" lon="2.33715">
        <ele>130.5</ele>
        <time>2023-11-22T13:23:14Z</time>
      </trkpt>
      <trkpt lat="49.99641" lon="2.33719">
        <ele>130.5</ele>
        <time>2023-11-22T13:23:15Z</time>
      </trkpt>
      <trkpt lat="49.99642" lon="2.3372">
        <ele>130.5</ele>
        <time>2023-11-22T13:23:16Z</time>
      </trkpt>
      <trkpt lat="49.99642" lon="2.33721">
        <ele>130.5</ele>
        <time>2023-11-22T13:23:17Z</time>
      </trkpt>
      <trkpt lat="49.99643" lon="2.33725">
        <ele>130.5</ele>
        <time>2023-11-22T13:23:18Z</time>
      </trkpt>
      <trkpt lat="49.99643" lon="2.33726">
        <ele>130.5</ele>
        <time>2023-11-22T13:23:20Z</time>
      </trkpt>
      <trkpt lat="49.99643" lon="2.33727">
        <ele>130.5</ele>
        <time>2023-11-22T13:23:21Z</time>
      </trkpt>
      <trkpt lat="49.99643" lon="2.3373">
        <ele>130.5</ele>
        <time>2023-11-22T13:23:22Z</time>
      </trkpt>
      <trkpt lat="49.99643" lon="2.33732">
        <ele>130.5</ele>
        <time>2023-11-22T13:23:23Z</time>
      </trkpt>
      <trkpt lat="49.99643" lon="2.33733">
        <ele>130.5</ele>
        <time>2023-11-22T13:23:24Z</time>
      </trkpt>
      <trkpt lat="49.99643" lon="2.33735">
        <ele>130.4</ele>
        <time>2023-11-22T13:23:25Z</time>
      </trkpt>
      <trkpt lat="49.99643" lon="2.33737">
        <ele>130.4</ele>
        <time>2023-11-22T13:23:26Z</time>
      </trkpt>
      <trkpt lat="49.99643" lon="2.33739">
        <ele>130.4</ele>
        <time>2023-11-22T13:23:28Z</time>
      </trkpt>
      <trkpt lat="49.99644" lon="2.33742">
        <ele>130.4</ele>
        <time>2023-11-22T13:23:29Z</time>
      </trkpt>
      <trkpt lat="49.99644" lon="2.33744">
        <ele>130.4</ele>
        <time>2023-11-22T13:23:30Z</time>
      </trkpt>
      <trkpt lat="49.99644" lon="2.33745">
        <ele>130.4</ele>
        <time>2023-11-22T13:23:31Z</time>
      </trkpt>
      <trkpt lat="49.99644" lon="2.33748">
        <ele>130.3</ele>
        <time>2023-11-22T13:23:32Z</time>
      </trkpt>
      <trkpt lat="49.99644" lon="2.3375">
        <ele>130.3</ele>
        <time>2023-11-22T13:23:34Z</time>
      </trkpt>
      <trkpt lat="49.99644" lon="2.33751">
        <ele>130.3</ele>
        <time>2023-11-22T13:23:35Z</time>
      </trkpt>
      <trkpt lat="49.99644" lon="2.33754">
        <ele>130.3</ele>
        <time>2023-11-22T13:23:36Z</time>
      </trkpt>
      <trkpt lat="49.99644" lon="2.33755">
        <ele>130.3</ele>
        <time>2023-11-22T13:23:37Z</time>
      </trkpt>
      <trkpt lat="49.99644" lon="2.33757">
        <ele>130.3</ele>
        <time>2023-11-22T13:23:38Z</time>
      </trkpt>
      <trkpt lat="49.99644" lon="2.33759">
        <ele>130.3</ele>
        <time>2023-11-22T13:23:39Z</time>
      </trkpt>
      <trkpt lat="49.99644" lon="2.33761">
        <ele>130.3</ele>
        <time>2023-11-22T13:23:40Z</time>
      </trkpt>
      <trkpt lat="49.99644" lon="2.33763">
        <ele>130.2</ele>
        <time>2023-11-22T13:23:42Z</time>
      </trkpt>
      <trkpt lat="49.99644" lon="2.33765">
        <ele>130.2</ele>
        <time>2023-11-22T13:23:43Z</time>
      </trkpt>
      <trkpt lat="49.99644" lon="2.33768">
        <ele>130.2</ele>
        <time>2023-11-22T13:23:45Z</time>
      </trkpt>
      <trkpt lat="49.99644" lon="2.3377">
        <ele>130.2</ele>
        <time>2023-11-22T13:23:46Z</time>
      </trkpt>
      <trkpt lat="49.99644" lon="2.33772">
        <ele>130.2</ele>
        <time>2023-11-22T13:23:47Z</time>
      </trkpt>
      <trkpt lat="49.99645" lon="2.33775">
        <ele>130.2</ele>
        <time>2023-11-22T13:23:48Z</time>
      </trkpt>
      <trkpt lat="49.99645" lon="2.33776">
        <ele>130.2</ele>
        <time>2023-11-22T13:23:49Z</time>
      </trkpt>
      <trkpt lat="49.99645" lon="2.33778">
        <ele>130.2</ele>
        <time>2023-11-22T13:23:50Z</time>
      </trkpt>
      <trkpt lat="49.99645" lon="2.33781">
        <ele>130.1</ele>
        <time>2023-11-22T13:23:52Z</time>
      </trkpt>
      <trkpt lat="49.99645" lon="2.33783">
        <ele>130.1</ele>
        <time>2023-11-22T13:23:53Z</time>
      </trkpt>
      <trkpt lat="49.99645" lon="2.33785">
        <ele>130.1</ele>
        <time>2023-11-22T13:23:54Z</time>
      </trkpt>
      <trkpt lat="49.99645" lon="2.33788">
        <ele>130.1</ele>
        <time>2023-11-22T13:23:56Z</time>
      </trkpt>
      <trkpt lat="49.99645" lon="2.3379">
        <ele>130</ele>
        <time>2023-11-22T13:23:57Z</time>
      </trkpt>
      <trkpt lat="49.99645" lon="2.33791">
        <ele>130</ele>
        <time>2023-11-22T13:23:58Z</time>
      </trkpt>
      <trkpt lat="49.99645" lon="2.33793">
        <ele>130</ele>
        <time>2023-11-22T13:23:59Z</time>
      </trkpt>
      <trkpt lat="49.99645" lon="2.33797">
        <ele>130</ele>
        <time>2023-11-22T13:24:00Z</time>
      </trkpt>
      <trkpt lat="49.99645" lon="2.33798">
        <ele>130</ele>
        <time>2023-11-22T13:24:02Z</time>
      </trkpt>
      <trkpt lat="49.99645" lon="2.338">
        <ele>129.9</ele>
        <time>2023-11-22T13:24:03Z</time>
      </trkpt>
      <trkpt lat="49.99645" lon="2.33803">
        <ele>129.9</ele>
        <time>2023-11-22T13:24:04Z</time>
      </trkpt>
      <trkpt lat="49.99645" lon="2.33804">
        <ele>129.9</ele>
        <time>2023-11-22T13:24:06Z</time>
      </trkpt>
      <trkpt lat="49.99645" lon="2.33806">
        <ele>129.9</ele>
        <time>2023-11-22T13:24:07Z</time>
      </trkpt>
      <trkpt lat="49.99645" lon="2.33809">
        <ele>129.8</ele>
        <time>2023-11-22T13:24:09Z</time>
      </trkpt>
      <trkpt lat="49.99646" lon="2.3381">
        <ele>129.8</ele>
        <time>2023-11-22T13:24:10Z</time>
      </trkpt>
      <trkpt lat="49.99646" lon="2.33812">
        <ele>129.8</ele>
        <time>2023-11-22T13:24:11Z</time>
      </trkpt>
      <trkpt lat="49.99646" lon="2.33813">
        <ele>129.8</ele>
        <time>2023-11-22T13:24:12Z</time>
      </trkpt>
      <trkpt lat="49.99646" lon="2.33815">
        <ele>129.8</ele>
        <time>2023-11-22T13:24:13Z</time>
      </trkpt>
      <trkpt lat="49.99646" lon="2.33818">
        <ele>129.8</ele>
        <time>2023-11-22T13:24:15Z</time>
      </trkpt>
      <trkpt lat="49.99646" lon="2.33821">
        <ele>129.7</ele>
        <time>2023-11-22T13:24:16Z</time>
      </trkpt>
      <trkpt lat="49.99646" lon="2.33823">
        <ele>129.7</ele>
        <time>2023-11-22T13:24:17Z</time>
      </trkpt>
      <trkpt lat="49.99646" lon="2.33824">
        <ele>129.7</ele>
        <time>2023-11-22T13:24:18Z</time>
      </trkpt>
      <trkpt lat="49.99647" lon="2.33826">
        <ele>129.7</ele>
        <time>2023-11-22T13:24:20Z</time>
      </trkpt>
      <trkpt lat="49.99647" lon="2.33829">
        <ele>129.7</ele>
        <time>2023-11-22T13:24:21Z</time>
      </trkpt>
      <trkpt lat="49.99647" lon="2.33831">
        <ele>129.7</ele>
        <time>2023-11-22T13:24:22Z</time>
      </trkpt>
      <trkpt lat="49.99648" lon="2.33834">
        <ele>129.7</ele>
        <time>2023-11-22T13:24:24Z</time>
      </trkpt>
      <trkpt lat="49.99648" lon="2.33836">
        <ele>129.7</ele>
        <time>2023-11-22T13:24:25Z</time>
      </trkpt>
      <trkpt lat="49.99648" lon="2.33838">
        <ele>129.7</ele>
        <time>2023-11-22T13:24:26Z</time>
      </trkpt>
      <trkpt lat="49.99649" lon="2.33841">
        <ele>129.7</ele>
        <time>2023-11-22T13:24:27Z</time>
      </trkpt>
      <trkpt lat="49.99649" lon="2.33843">
        <ele>129.7</ele>
        <time>2023-11-22T13:24:28Z</time>
      </trkpt>
      <trkpt lat="49.99649" lon="2.33844">
        <ele>129.7</ele>
        <time>2023-11-22T13:24:29Z</time>
      </trkpt>
      <trkpt lat="49.99649" lon="2.33847">
        <ele>129.6</ele>
        <time>2023-11-22T13:24:31Z</time>
      </trkpt>
      <trkpt lat="49.9965" lon="2.33849">
        <ele>129.6</ele>
        <time>2023-11-22T13:24:32Z</time>
      </trkpt>
      <trkpt lat="49.9965" lon="2.33851">
        <ele>129.6</ele>
        <time>2023-11-22T13:24:33Z</time>
      </trkpt>
      <trkpt lat="49.9965" lon="2.33853">
        <ele>129.6</ele>
        <time>2023-11-22T13:24:34Z</time>
      </trkpt>
      <trkpt lat="49.99651" lon="2.33855">
        <ele>129.6</ele>
        <time>2023-11-22T13:24:35Z</time>
      </trkpt>
      <trkpt lat="49.99651" lon="2.33857">
        <ele>129.6</ele>
        <time>2023-11-22T13:24:37Z</time>
      </trkpt>
      <trkpt lat="49.99651" lon="2.33858">
        <ele>129.6</ele>
        <time>2023-11-22T13:24:38Z</time>
      </trkpt>
      <trkpt lat="49.99652" lon="2.33862">
        <ele>129.5</ele>
        <time>2023-11-22T13:24:39Z</time>
      </trkpt>
      <trkpt lat="49.99652" lon="2.33863">
        <ele>129.5</ele>
        <time>2023-11-22T13:24:40Z</time>
      </trkpt>
      <trkpt lat="49.99652" lon="2.33864">
        <ele>129.5</ele>
        <time>2023-11-22T13:24:41Z</time>
      </trkpt>
      <trkpt lat="49.99652" lon="2.33868">
        <ele>129.5</ele>
        <time>2023-11-22T13:24:43Z</time>
      </trkpt>
      <trkpt lat="49.99653" lon="2.3387">
        <ele>129.5</ele>
        <time>2023-11-22T13:24:44Z</time>
      </trkpt>
      <trkpt lat="49.99653" lon="2.33872">
        <ele>129.4</ele>
        <time>2023-11-22T13:24:45Z</time>
      </trkpt>
      <trkpt lat="49.99653" lon="2.33873">
        <ele>129.4</ele>
        <time>2023-11-22T13:24:46Z</time>
      </trkpt>
      <trkpt lat="49.99653" lon="2.33875">
        <ele>129.4</ele>
        <time>2023-11-22T13:24:47Z</time>
      </trkpt>
      <trkpt lat="49.99653" lon="2.33876">
        <ele>129.4</ele>
        <time>2023-11-22T13:24:48Z</time>
      </trkpt>
      <trkpt lat="49.99653" lon="2.33879">
        <ele>129.3</ele>
        <time>2023-11-22T13:24:50Z</time>
      </trkpt>
      <trkpt lat="49.99654" lon="2.33881">
        <ele>129.3</ele>
        <time>2023-11-22T13:24:51Z</time>
      </trkpt>
      <trkpt lat="49.99654" lon="2.33884">
        <ele>129.3</ele>
        <time>2023-11-22T13:24:53Z</time>
      </trkpt>
      <trkpt lat="49.99654" lon="2.33886">
        <ele>129.2</ele>
        <time>2023-11-22T13:24:54Z</time>
      </trkpt>
      <trkpt lat="49.99654" lon="2.33887">
        <ele>129.2</ele>
        <time>2023-11-22T13:24:55Z</time>
      </trkpt>
      <trkpt lat="49.99654" lon="2.33889">
        <ele>129.2</ele>
        <time>2023-11-22T13:24:56Z</time>
      </trkpt>
      <trkpt lat="49.99654" lon="2.33891">
        <ele>129.2</ele>
        <time>2023-11-22T13:24:57Z</time>
      </trkpt>
      <trkpt lat="49.99654" lon="2.33893">
        <ele>129.1</ele>
        <time>2023-11-22T13:24:58Z</time>
      </trkpt>
      <trkpt lat="49.99655" lon="2.33895">
        <ele>129.1</ele>
        <time>2023-11-22T13:25:00Z</time>
      </trkpt>
      <trkpt lat="49.99655" lon="2.33897">
        <ele>129.1</ele>
        <time>2023-11-22T13:25:01Z</time>
      </trkpt>
      <trkpt lat="49.99655" lon="2.33899">
        <ele>129.1</ele>
        <time>2023-11-22T13:25:02Z</time>
      </trkpt>
      <trkpt lat="49.99655" lon="2.33901">
        <ele>129.1</ele>
        <time>2023-11-22T13:25:03Z</time>
      </trkpt>
      <trkpt lat="49.99654" lon="2.33902">
        <ele>129</ele>
        <time>2023-11-22T13:25:04Z</time>
      </trkpt>
      <trkpt lat="49.99654" lon="2.33904">
        <ele>129</ele>
        <time>2023-11-22T13:25:05Z</time>
      </trkpt>
      <trkpt lat="49.99655" lon="2.33906">
        <ele>129</ele>
        <time>2023-11-22T13:25:07Z</time>
      </trkpt>
      <trkpt lat="49.99655" lon="2.33908">
        <ele>129</ele>
        <time>2023-11-22T13:25:08Z</time>
      </trkpt>
      <trkpt lat="49.99655" lon="2.3391">
        <ele>129</ele>
        <time>2023-11-22T13:25:09Z</time>
      </trkpt>
      <trkpt lat="49.99655" lon="2.33912">
        <ele>128.9</ele>
        <time>2023-11-22T13:25:10Z</time>
      </trkpt>
      <trkpt lat="49.99656" lon="2.33915">
        <ele>128.9</ele>
        <time>2023-11-22T13:25:11Z</time>
      </trkpt>
      <trkpt lat="49.99656" lon="2.33916">
        <ele>128.9</ele>
        <time>2023-11-22T13:25:12Z</time>
      </trkpt>
      <trkpt lat="49.99656" lon="2.33917">
        <ele>128.9</ele>
        <time>2023-11-22T13:25:13Z</time>
      </trkpt>
      <trkpt lat="49.99657" lon="2.3392">
        <ele>128.9</ele>
        <time>2023-11-22T13:25:15Z</time>
      </trkpt>
      <trkpt lat="49.99657" lon="2.33922">
        <ele>128.8</ele>
        <time>2023-11-22T13:25:16Z</time>
      </trkpt>
      <trkpt lat="49.99658" lon="2.33924">
        <ele>128.8</ele>
        <time>2023-11-22T13:25:17Z</time>
      </trkpt>
      <trkpt lat="49.99658" lon="2.33925">
        <ele>128.8</ele>
        <time>2023-11-22T13:25:18Z</time>
      </trkpt>
      <trkpt lat="49.99659" lon="2.33928">
        <ele>128.8</ele>
        <time>2023-11-22T13:25:20Z</time>
      </trkpt>
      <trkpt lat="49.99659" lon="2.33929">
        <ele>128.8</ele>
        <time>2023-11-22T13:25:21Z</time>
      </trkpt>
      <trkpt lat="49.99659" lon="2.33931">
        <ele>128.8</ele>
        <time>2023-11-22T13:25:22Z</time>
      </trkpt>
      <trkpt lat="49.9966" lon="2.33932">
        <ele>128.8</ele>
        <time>2023-11-22T13:25:23Z</time>
      </trkpt>
      <trkpt lat="49.9966" lon="2.33935">
        <ele>128.7</ele>
        <time>2023-11-22T13:25:25Z</time>
      </trkpt>
      <trkpt lat="49.99661" lon="2.33936">
        <ele>128.7</ele>
        <time>2023-11-22T13:25:26Z</time>
      </trkpt>
      <trkpt lat="49.99661" lon="2.33938">
        <ele>128.7</ele>
        <time>2023-11-22T13:25:28Z</time>
      </trkpt>
      <trkpt lat="49.99661" lon="2.33938">
        <ele>128.7</ele>
        <time>2023-11-22T13:25:29Z</time>
      </trkpt>
      <trkpt lat="49.99662" lon="2.33938">
        <ele>128.7</ele>
        <time>2023-11-22T13:25:30Z</time>
      </trkpt>
      <trkpt lat="49.99662" lon="2.33938">
        <ele>128.7</ele>
        <time>2023-11-22T13:25:31Z</time>
      </trkpt>
      <trkpt lat="49.99662" lon="2.33938">
        <ele>128.7</ele>
        <time>2023-11-22T13:25:32Z</time>
      </trkpt>
      <trkpt lat="49.99662" lon="2.33937">
        <ele>128.7</ele>
        <time>2023-11-22T13:25:33Z</time>
      </trkpt>
      <trkpt lat="49.99663" lon="2.33937">
        <ele>128.7</ele>
        <time>2023-11-22T13:25:34Z</time>
      </trkpt>
      <trkpt lat="49.99663" lon="2.33936">
        <ele>128.7</ele>
        <time>2023-11-22T13:25:35Z</time>
      </trkpt>
      <trkpt lat="49.99663" lon="2.33936">
        <ele>128.7</ele>
        <time>2023-11-22T13:25:36Z</time>
      </trkpt>
      <trkpt lat="49.99663" lon="2.33935">
        <ele>128.7</ele>
        <time>2023-11-22T13:25:37Z</time>
      </trkpt>
      <trkpt lat="49.99662" lon="2.33935">
        <ele>128.7</ele>
        <time>2023-11-22T13:25:38Z</time>
      </trkpt>
      <trkpt lat="49.99662" lon="2.33934">
        <ele>128.7</ele>
        <time>2023-11-22T13:25:39Z</time>
      </trkpt>
      <trkpt lat="49.99662" lon="2.33934">
        <ele>128.7</ele>
        <time>2023-11-22T13:25:40Z</time>
      </trkpt>
      <trkpt lat="49.99662" lon="2.33934">
        <ele>128.7</ele>
        <time>2023-11-22T13:25:41Z</time>
      </trkpt>
      <trkpt lat="49.99663" lon="2.33933">
        <ele>128.7</ele>
        <time>2023-11-22T13:25:42Z</time>
      </trkpt>
      <trkpt lat="49.99662" lon="2.33933">
        <ele>128.7</ele>
        <time>2023-11-22T13:25:43Z</time>
      </trkpt>
      <trkpt lat="49.99662" lon="2.33933">
        <ele>128.7</ele>
        <time>2023-11-22T13:25:44Z</time>
      </trkpt>
      <trkpt lat="49.99662" lon="2.33933">
        <ele>128.7</ele>
        <time>2023-11-22T13:25:45Z</time>
      </trkpt>
      <trkpt lat="49.99662" lon="2.33932">
        <ele>128.7</ele>
        <time>2023-11-22T13:25:46Z</time>
      </trkpt>
      <trkpt lat="49.99662" lon="2.33931">
        <ele>128.6</ele>
        <time>2023-11-22T13:25:47Z</time>
      </trkpt>
      <trkpt lat="49.99662" lon="2.3393">
        <ele>128.6</ele>
        <time>2023-11-22T13:25:48Z</time>
      </trkpt>
      <trkpt lat="49.99662" lon="2.3393">
        <ele>128.6</ele>
        <time>2023-11-22T13:25:49Z</time>
      </trkpt>
      <trkpt lat="49.99662" lon="2.33931">
        <ele>128.6</ele>
        <time>2023-11-22T13:25:50Z</time>
      </trkpt>
      <trkpt lat="49.99663" lon="2.33931">
        <ele>128.6</ele>
        <time>2023-11-22T13:25:51Z</time>
      </trkpt>
      <trkpt lat="49.99664" lon="2.33932">
        <ele>128.6</ele>
        <time>2023-11-22T13:27:05Z</time>
      </trkpt>
      <trkpt lat="49.99664" lon="2.33933">
        <ele>128.6</ele>
        <time>2023-11-22T13:27:06Z</time>
      </trkpt>
      <trkpt lat="49.99665" lon="2.33933">
        <ele>128.6</ele>
        <time>2023-11-22T13:27:07Z</time>
      </trkpt>
      <trkpt lat="49.99666" lon="2.33934">
        <ele>128.6</ele>
        <time>2023-11-22T13:27:08Z</time>
      </trkpt>
      <trkpt lat="49.99667" lon="2.33935">
        <ele>128.6</ele>
        <time>2023-11-22T13:27:09Z</time>
      </trkpt>
      <trkpt lat="49.99668" lon="2.33936">
        <ele>128.5</ele>
        <time>2023-11-22T13:27:10Z</time>
      </trkpt>
      <trkpt lat="49.9967" lon="2.33938">
        <ele>128.5</ele>
        <time>2023-11-22T13:27:11Z</time>
      </trkpt>
      <trkpt lat="49.9967" lon="2.33939">
        <ele>128.5</ele>
        <time>2023-11-22T13:27:12Z</time>
      </trkpt>
      <trkpt lat="49.99671" lon="2.33939">
        <ele>128.5</ele>
        <time>2023-11-22T13:27:13Z</time>
      </trkpt>
      <trkpt lat="49.99672" lon="2.3394">
        <ele>128.4</ele>
        <time>2023-11-22T13:27:14Z</time>
      </trkpt>
      <trkpt lat="49.99673" lon="2.33942">
        <ele>128.4</ele>
        <time>2023-11-22T13:27:15Z</time>
      </trkpt>
      <trkpt lat="49.99674" lon="2.33943">
        <ele>128.4</ele>
        <time>2023-11-22T13:27:16Z</time>
      </trkpt>
      <trkpt lat="49.99676" lon="2.33944">
        <ele>128.4</ele>
        <time>2023-11-22T13:27:17Z</time>
      </trkpt>
      <trkpt lat="49.99677" lon="2.33946">
        <ele>128.3</ele>
        <time>2023-11-22T13:27:18Z</time>
      </trkpt>
      <trkpt lat="49.99678" lon="2.33947">
        <ele>128.3</ele>
        <time>2023-11-22T13:27:19Z</time>
      </trkpt>
      <trkpt lat="49.99679" lon="2.33948">
        <ele>128.3</ele>
        <time>2023-11-22T13:27:20Z</time>
      </trkpt>
      <trkpt lat="49.99679" lon="2.33949">
        <ele>128.3</ele>
        <time>2023-11-22T13:27:21Z</time>
      </trkpt>
      <trkpt lat="49.9968" lon="2.3395">
        <ele>128.2</ele>
        <time>2023-11-22T13:27:22Z</time>
      </trkpt>
      <trkpt lat="49.99681" lon="2.33951">
        <ele>128.2</ele>
        <time>2023-11-22T13:27:23Z</time>
      </trkpt>
      <trkpt lat="49.99682" lon="2.33952">
        <ele>128.2</ele>
        <time>2023-11-22T13:27:24Z</time>
      </trkpt>
      <trkpt lat="49.99683" lon="2.33954">
        <ele>128.1</ele>
        <time>2023-11-22T13:27:25Z</time>
      </trkpt>
      <trkpt lat="49.99684" lon="2.33955">
        <ele>128.1</ele>
        <time>2023-11-22T13:27:26Z</time>
      </trkpt>
      <trkpt lat="49.99685" lon="2.33956">
        <ele>128.1</ele>
        <time>2023-11-22T13:27:27Z</time>
      </trkpt>
      <trkpt lat="49.99686" lon="2.33957">
        <ele>128.1</ele>
        <time>2023-11-22T13:27:28Z</time>
      </trkpt>
      <trkpt lat="49.99687" lon="2.33958">
        <ele>128</ele>
        <time>2023-11-22T13:27:29Z</time>
      </trkpt>
      <trkpt lat="49.99688" lon="2.33959">
        <ele>128</ele>
        <time>2023-11-22T13:27:30Z</time>
      </trkpt>
      <trkpt lat="49.99689" lon="2.3396">
        <ele>128</ele>
        <time>2023-11-22T13:27:31Z</time>
      </trkpt>
      <trkpt lat="49.99689" lon="2.3396">
        <ele>128</ele>
        <time>2023-11-22T13:27:32Z</time>
      </trkpt>
      <trkpt lat="49.9969" lon="2.33961">
        <ele>128</ele>
        <time>2023-11-22T13:27:33Z</time>
      </trkpt>
      <trkpt lat="49.99691" lon="2.33962">
        <ele>128</ele>
        <time>2023-11-22T13:27:34Z</time>
      </trkpt>
      <trkpt lat="49.99692" lon="2.33963">
        <ele>128</ele>
        <time>2023-11-22T13:27:35Z</time>
      </trkpt>
      <trkpt lat="49.99692" lon="2.33964">
        <ele>128</ele>
        <time>2023-11-22T13:27:36Z</time>
      </trkpt>
      <trkpt lat="49.99693" lon="2.33965">
        <ele>127.9</ele>
        <time>2023-11-22T13:27:37Z</time>
      </trkpt>
      <trkpt lat="49.99694" lon="2.33966">
        <ele>127.9</ele>
        <time>2023-11-22T13:27:38Z</time>
      </trkpt>
      <trkpt lat="49.99695" lon="2.33967">
        <ele>127.9</ele>
        <time>2023-11-22T13:27:39Z</time>
      </trkpt>
      <trkpt lat="49.99696" lon="2.33968">
        <ele>127.9</ele>
        <time>2023-11-22T13:27:40Z</time>
      </trkpt>
      <trkpt lat="49.99698" lon="2.3397">
        <ele>127.9</ele>
        <time>2023-11-22T13:27:41Z</time>
      </trkpt>
      <trkpt lat="49.99699" lon="2.33971">
        <ele>127.9</ele>
        <time>2023-11-22T13:27:42Z</time>
      </trkpt>
      <trkpt lat="49.99699" lon="2.33972">
        <ele>127.9</ele>
        <time>2023-11-22T13:27:43Z</time>
      </trkpt>
      <trkpt lat="49.99701" lon="2.33973">
        <ele>127.9</ele>
        <time>2023-11-22T13:27:44Z</time>
      </trkpt>
      <trkpt lat="49.99702" lon="2.33974">
        <ele>127.9</ele>
        <time>2023-11-22T13:27:45Z</time>
      </trkpt>
      <trkpt lat="49.99702" lon="2.33975">
        <ele>127.9</ele>
        <time>2023-11-22T13:27:46Z</time>
      </trkpt>
      <trkpt lat="49.99703" lon="2.33976">
        <ele>127.9</ele>
        <time>2023-11-22T13:27:47Z</time>
      </trkpt>
      <trkpt lat="49.99704" lon="2.33977">
        <ele>127.9</ele>
        <time>2023-11-22T13:27:48Z</time>
      </trkpt>
      <trkpt lat="49.99705" lon="2.33978">
        <ele>127.9</ele>
        <time>2023-11-22T13:27:49Z</time>
      </trkpt>
      <trkpt lat="49.99707" lon="2.3398">
        <ele>127.9</ele>
        <time>2023-11-22T13:27:50Z</time>
      </trkpt>
      <trkpt lat="49.99708" lon="2.3398">
        <ele>127.9</ele>
        <time>2023-11-22T13:27:51Z</time>
      </trkpt>
      <trkpt lat="49.99708" lon="2.33981">
        <ele>127.9</ele>
        <time>2023-11-22T13:27:52Z</time>
      </trkpt>
      <trkpt lat="49.9971" lon="2.33983">
        <ele>127.9</ele>
        <time>2023-11-22T13:27:53Z</time>
      </trkpt>
      <trkpt lat="49.99711" lon="2.33984">
        <ele>127.9</ele>
        <time>2023-11-22T13:27:54Z</time>
      </trkpt>
      <trkpt lat="49.99711" lon="2.33985">
        <ele>127.9</ele>
        <time>2023-11-22T13:27:55Z</time>
      </trkpt>
      <trkpt lat="49.99712" lon="2.33986">
        <ele>127.9</ele>
        <time>2023-11-22T13:27:56Z</time>
      </trkpt>
      <trkpt lat="49.99713" lon="2.33987">
        <ele>127.9</ele>
        <time>2023-11-22T13:27:57Z</time>
      </trkpt>
      <trkpt lat="49.99714" lon="2.33988">
        <ele>127.9</ele>
        <time>2023-11-22T13:27:58Z</time>
      </trkpt>
      <trkpt lat="49.99715" lon="2.33989">
        <ele>127.9</ele>
        <time>2023-11-22T13:27:59Z</time>
      </trkpt>
      <trkpt lat="49.99716" lon="2.3399">
        <ele>127.9</ele>
        <time>2023-11-22T13:28:00Z</time>
      </trkpt>
      <trkpt lat="49.99717" lon="2.33991">
        <ele>127.9</ele>
        <time>2023-11-22T13:28:01Z</time>
      </trkpt>
      <trkpt lat="49.99718" lon="2.33993">
        <ele>127.9</ele>
        <time>2023-11-22T13:28:02Z</time>
      </trkpt>
      <trkpt lat="49.99719" lon="2.33994">
        <ele>127.9</ele>
        <time>2023-11-22T13:28:03Z</time>
      </trkpt>
      <trkpt lat="49.9972" lon="2.33994">
        <ele>127.9</ele>
        <time>2023-11-22T13:28:04Z</time>
      </trkpt>
      <trkpt lat="49.99721" lon="2.33996">
        <ele>127.9</ele>
        <time>2023-11-22T13:28:05Z</time>
      </trkpt>
      <trkpt lat="49.99722" lon="2.33997">
        <ele>127.9</ele>
        <time>2023-11-22T13:28:06Z</time>
      </trkpt>
      <trkpt lat="49.99723" lon="2.33998">
        <ele>127.9</ele>
        <time>2023-11-22T13:28:07Z</time>
      </trkpt>
      <trkpt lat="49.99723" lon="2.33999">
        <ele>127.9</ele>
        <time>2023-11-22T13:28:08Z</time>
      </trkpt>
      <trkpt lat="49.99724" lon="2.34">
        <ele>127.8</ele>
        <time>2023-11-22T13:28:09Z</time>
      </trkpt>
      <trkpt lat="49.99725" lon="2.34001">
        <ele>127.8</ele>
        <time>2023-11-22T13:28:10Z</time>
      </trkpt>
      <trkpt lat="49.99725" lon="2.34002">
        <ele>127.8</ele>
        <time>2023-11-22T13:28:11Z</time>
      </trkpt>
      <trkpt lat="49.99726" lon="2.34003">
        <ele>127.8</ele>
        <time>2023-11-22T13:28:12Z</time>
      </trkpt>
      <trkpt lat="49.99727" lon="2.34004">
        <ele>127.8</ele>
        <time>2023-11-22T13:28:13Z</time>
      </trkpt>
      <trkpt lat="49.99727" lon="2.34005">
        <ele>127.8</ele>
        <time>2023-11-22T13:28:14Z</time>
      </trkpt>
      <trkpt lat="49.99728" lon="2.34007">
        <ele>127.8</ele>
        <time>2023-11-22T13:28:15Z</time>
      </trkpt>
      <trkpt lat="49.99729" lon="2.34008">
        <ele>127.8</ele>
        <time>2023-11-22T13:28:16Z</time>
      </trkpt>
      <trkpt lat="49.9973" lon="2.34009">
        <ele>127.8</ele>
        <time>2023-11-22T13:28:17Z</time>
      </trkpt>
      <trkpt lat="49.99731" lon="2.3401">
        <ele>127.8</ele>
        <time>2023-11-22T13:28:18Z</time>
      </trkpt>
      <trkpt lat="49.99732" lon="2.34011">
        <ele>127.8</ele>
        <time>2023-11-22T13:28:19Z</time>
      </trkpt>
      <trkpt lat="49.99734" lon="2.34013">
        <ele>127.8</ele>
        <time>2023-11-22T13:28:20Z</time>
      </trkpt>
      <trkpt lat="49.99734" lon="2.34013">
        <ele>127.8</ele>
        <time>2023-11-22T13:28:21Z</time>
      </trkpt>
      <trkpt lat="49.99735" lon="2.34014">
        <ele>127.8</ele>
        <time>2023-11-22T13:28:22Z</time>
      </trkpt>
      <trkpt lat="49.99736" lon="2.34015">
        <ele>127.8</ele>
        <time>2023-11-22T13:28:23Z</time>
      </trkpt>
      <trkpt lat="49.99737" lon="2.34016">
        <ele>127.8</ele>
        <time>2023-11-22T13:28:24Z</time>
      </trkpt>
      <trkpt lat="49.99738" lon="2.34017">
        <ele>127.8</ele>
        <time>2023-11-22T13:28:25Z</time>
      </trkpt>
      <trkpt lat="49.99739" lon="2.34018">
        <ele>127.8</ele>
        <time>2023-11-22T13:28:26Z</time>
      </trkpt>
      <trkpt lat="49.9974" lon="2.34019">
        <ele>127.8</ele>
        <time>2023-11-22T13:28:27Z</time>
      </trkpt>
      <trkpt lat="49.99741" lon="2.3402">
        <ele>127.8</ele>
        <time>2023-11-22T13:28:28Z</time>
      </trkpt>
      <trkpt lat="49.99742" lon="2.34021">
        <ele>127.8</ele>
        <time>2023-11-22T13:28:29Z</time>
      </trkpt>
      <trkpt lat="49.99742" lon="2.34022">
        <ele>127.8</ele>
        <time>2023-11-22T13:28:30Z</time>
      </trkpt>
      <trkpt lat="49.99743" lon="2.34024">
        <ele>127.8</ele>
        <time>2023-11-22T13:28:31Z</time>
      </trkpt>
      <trkpt lat="49.99744" lon="2.34025">
        <ele>127.8</ele>
        <time>2023-11-22T13:28:32Z</time>
      </trkpt>
      <trkpt lat="49.99745" lon="2.34026">
        <ele>127.8</ele>
        <time>2023-11-22T13:28:33Z</time>
      </trkpt>
      <trkpt lat="49.99746" lon="2.34027">
        <ele>127.8</ele>
        <time>2023-11-22T13:28:34Z</time>
      </trkpt>
      <trkpt lat="49.99747" lon="2.34028">
        <ele>127.8</ele>
        <time>2023-11-22T13:28:35Z</time>
      </trkpt>
      <trkpt lat="49.99748" lon="2.3403">
        <ele>127.8</ele>
        <time>2023-11-22T13:28:36Z</time>
      </trkpt>
      <trkpt lat="49.99748" lon="2.34031">
        <ele>127.8</ele>
        <time>2023-11-22T13:28:37Z</time>
      </trkpt>
      <trkpt lat="49.99749" lon="2.34032">
        <ele>127.8</ele>
        <time>2023-11-22T13:28:38Z</time>
      </trkpt>
      <trkpt lat="49.9975" lon="2.34033">
        <ele>127.8</ele>
        <time>2023-11-22T13:28:39Z</time>
      </trkpt>
      <trkpt lat="49.99751" lon="2.34034">
        <ele>127.8</ele>
        <time>2023-11-22T13:28:40Z</time>
      </trkpt>
      <trkpt lat="49.99753" lon="2.34036">
        <ele>127.8</ele>
        <time>2023-11-22T13:28:41Z</time>
      </trkpt>
      <trkpt lat="49.99753" lon="2.34037">
        <ele>127.8</ele>
        <time>2023-11-22T13:28:42Z</time>
      </trkpt>
      <trkpt lat="49.99754" lon="2.34038">
        <ele>127.8</ele>
        <time>2023-11-22T13:28:43Z</time>
      </trkpt>
      <trkpt lat="49.99755" lon="2.34041">
        <ele>127.8</ele>
        <time>2023-11-22T13:28:44Z</time>
      </trkpt>
      <trkpt lat="49.99756" lon="2.34042">
        <ele>127.8</ele>
        <time>2023-11-22T13:28:45Z</time>
      </trkpt>
      <trkpt lat="49.99756" lon="2.34043">
        <ele>127.8</ele>
        <time>2023-11-22T13:28:46Z</time>
      </trkpt>
      <trkpt lat="49.99758" lon="2.34045">
        <ele>127.8</ele>
        <time>2023-11-22T13:28:47Z</time>
      </trkpt>
      <trkpt lat="49.99758" lon="2.34047">
        <ele>127.8</ele>
        <time>2023-11-22T13:28:48Z</time>
      </trkpt>
      <trkpt lat="49.99759" lon="2.34048">
        <ele>127.8</ele>
        <time>2023-11-22T13:28:49Z</time>
      </trkpt>
      <trkpt lat="49.99759" lon="2.34049">
        <ele>127.8</ele>
        <time>2023-11-22T13:28:50Z</time>
      </trkpt>
      <trkpt lat="49.9976" lon="2.34051">
        <ele>127.8</ele>
        <time>2023-11-22T13:28:51Z</time>
      </trkpt>
      <trkpt lat="49.99761" lon="2.34052">
        <ele>127.8</ele>
        <time>2023-11-22T13:28:52Z</time>
      </trkpt>
      <trkpt lat="49.99761" lon="2.34053">
        <ele>127.8</ele>
        <time>2023-11-22T13:28:53Z</time>
      </trkpt>
      <trkpt lat="49.99762" lon="2.34055">
        <ele>127.8</ele>
        <time>2023-11-22T13:28:54Z</time>
      </trkpt>
      <trkpt lat="49.99763" lon="2.34056">
        <ele>127.8</ele>
        <time>2023-11-22T13:28:55Z</time>
      </trkpt>
      <trkpt lat="49.99763" lon="2.34058">
        <ele>127.8</ele>
        <time>2023-11-22T13:28:56Z</time>
      </trkpt>
      <trkpt lat="49.99764" lon="2.34059">
        <ele>127.7</ele>
        <time>2023-11-22T13:28:57Z</time>
      </trkpt>
      <trkpt lat="49.99765" lon="2.34061">
        <ele>127.7</ele>
        <time>2023-11-22T13:28:58Z</time>
      </trkpt>
      <trkpt lat="49.99766" lon="2.34063">
        <ele>127.7</ele>
        <time>2023-11-22T13:28:59Z</time>
      </trkpt>
      <trkpt lat="49.99766" lon="2.34064">
        <ele>127.7</ele>
        <time>2023-11-22T13:29:00Z</time>
      </trkpt>
      <trkpt lat="49.99767" lon="2.34065">
        <ele>127.7</ele>
        <time>2023-11-22T13:29:01Z</time>
      </trkpt>
      <trkpt lat="49.99767" lon="2.34067">
        <ele>127.6</ele>
        <time>2023-11-22T13:29:02Z</time>
      </trkpt>
      <trkpt lat="49.99768" lon="2.34069">
        <ele>127.6</ele>
        <time>2023-11-22T13:29:03Z</time>
      </trkpt>
      <trkpt lat="49.99769" lon="2.3407">
        <ele>127.6</ele>
        <time>2023-11-22T13:29:04Z</time>
      </trkpt>
      <trkpt lat="49.99769" lon="2.34071">
        <ele>127.6</ele>
        <time>2023-11-22T13:29:05Z</time>
      </trkpt>
      <trkpt lat="49.9977" lon="2.34073">
        <ele>127.6</ele>
        <time>2023-11-22T13:29:06Z</time>
      </trkpt>
      <trkpt lat="49.9977" lon="2.34074">
        <ele>127.5</ele>
        <time>2023-11-22T13:29:07Z</time>
      </trkpt>
      <trkpt lat="49.99772" lon="2.34077">
        <ele>127.5</ele>
        <time>2023-11-22T13:29:08Z</time>
      </trkpt>
      <trkpt lat="49.99772" lon="2.34078">
        <ele>127.5</ele>
        <time>2023-11-22T13:29:09Z</time>
      </trkpt>
      <trkpt lat="49.99773" lon="2.34079">
        <ele>127.5</ele>
        <time>2023-11-22T13:29:10Z</time>
      </trkpt>
      <trkpt lat="49.99774" lon="2.34081">
        <ele>127.5</ele>
        <time>2023-11-22T13:29:11Z</time>
      </trkpt>
      <trkpt lat="49.99774" lon="2.34083">
        <ele>127.5</ele>
        <time>2023-11-22T13:29:12Z</time>
      </trkpt>
      <trkpt lat="49.99775" lon="2.34084">
        <ele>127.5</ele>
        <time>2023-11-22T13:29:13Z</time>
      </trkpt>
      <trkpt lat="49.99776" lon="2.34086">
        <ele>127.4</ele>
        <time>2023-11-22T13:29:14Z</time>
      </trkpt>
      <trkpt lat="49.99777" lon="2.34087">
        <ele>127.4</ele>
        <time>2023-11-22T13:29:15Z</time>
      </trkpt>
      <trkpt lat="49.99777" lon="2.34088">
        <ele>127.4</ele>
        <time>2023-11-22T13:29:16Z</time>
      </trkpt>
      <trkpt lat="49.99779" lon="2.34091">
        <ele>127.4</ele>
        <time>2023-11-22T13:29:17Z</time>
      </trkpt>
      <trkpt lat="49.99779" lon="2.34092">
        <ele>127.4</ele>
        <time>2023-11-22T13:29:18Z</time>
      </trkpt>
      <trkpt lat="49.9978" lon="2.34093">
        <ele>127.4</ele>
        <time>2023-11-22T13:29:19Z</time>
      </trkpt>
      <trkpt lat="49.99781" lon="2.34094">
        <ele>127.4</ele>
        <time>2023-11-22T13:29:20Z</time>
      </trkpt>
      <trkpt lat="49.99781" lon="2.34096">
        <ele>127.4</ele>
        <time>2023-11-22T13:29:21Z</time>
      </trkpt>
      <trkpt lat="49.99782" lon="2.34097">
        <ele>127.4</ele>
        <time>2023-11-22T13:29:22Z</time>
      </trkpt>
      <trkpt lat="49.99784" lon="2.34099">
        <ele>127.4</ele>
        <time>2023-11-22T13:29:23Z</time>
      </trkpt>
      <trkpt lat="49.99784" lon="2.341">
        <ele>127.4</ele>
        <time>2023-11-22T13:29:24Z</time>
      </trkpt>
      <trkpt lat="49.99785" lon="2.34101">
        <ele>127.4</ele>
        <time>2023-11-22T13:29:25Z</time>
      </trkpt>
      <trkpt lat="49.99787" lon="2.34104">
        <ele>127.4</ele>
        <time>2023-11-22T13:29:26Z</time>
      </trkpt>
      <trkpt lat="49.99787" lon="2.34105">
        <ele>127.4</ele>
        <time>2023-11-22T13:29:27Z</time>
      </trkpt>
      <trkpt lat="49.99788" lon="2.34106">
        <ele>127.4</ele>
        <time>2023-11-22T13:29:28Z</time>
      </trkpt>
      <trkpt lat="49.99789" lon="2.34108">
        <ele>127.4</ele>
        <time>2023-11-22T13:29:29Z</time>
      </trkpt>
      <trkpt lat="49.9979" lon="2.34109">
        <ele>127.4</ele>
        <time>2023-11-22T13:29:30Z</time>
      </trkpt>
      <trkpt lat="49.99791" lon="2.3411">
        <ele>127.4</ele>
        <time>2023-11-22T13:29:31Z</time>
      </trkpt>
      <trkpt lat="49.99792" lon="2.34112">
        <ele>127.4</ele>
        <time>2023-11-22T13:29:32Z</time>
      </trkpt>
      <trkpt lat="49.99793" lon="2.34113">
        <ele>127.4</ele>
        <time>2023-11-22T13:29:33Z</time>
      </trkpt>
      <trkpt lat="49.99793" lon="2.34114">
        <ele>127.4</ele>
        <time>2023-11-22T13:29:34Z</time>
      </trkpt>
      <trkpt lat="49.99794" lon="2.34116">
        <ele>127.4</ele>
        <time>2023-11-22T13:29:35Z</time>
      </trkpt>
      <trkpt lat="49.99795" lon="2.34117">
        <ele>127.4</ele>
        <time>2023-11-22T13:29:36Z</time>
      </trkpt>
      <trkpt lat="49.99795" lon="2.34118">
        <ele>127.4</ele>
        <time>2023-11-22T13:29:37Z</time>
      </trkpt>
      <trkpt lat="49.99796" lon="2.3412">
        <ele>127.4</ele>
        <time>2023-11-22T13:29:38Z</time>
      </trkpt>
      <trkpt lat="49.99797" lon="2.34121">
        <ele>127.4</ele>
        <time>2023-11-22T13:29:39Z</time>
      </trkpt>
      <trkpt lat="49.99797" lon="2.34122">
        <ele>127.4</ele>
        <time>2023-11-22T13:29:40Z</time>
      </trkpt>
      <trkpt lat="49.99798" lon="2.34123">
        <ele>127.4</ele>
        <time>2023-11-22T13:29:41Z</time>
      </trkpt>
      <trkpt lat="49.99798" lon="2.34124">
        <ele>127.4</ele>
        <time>2023-11-22T13:29:42Z</time>
      </trkpt>
      <trkpt lat="49.99799" lon="2.34125">
        <ele>127.4</ele>
        <time>2023-11-22T13:29:43Z</time>
      </trkpt>
      <trkpt lat="49.99799" lon="2.34127">
        <ele>127.3</ele>
        <time>2023-11-22T13:29:44Z</time>
      </trkpt>
      <trkpt lat="49.998" lon="2.34128">
        <ele>127.3</ele>
        <time>2023-11-22T13:29:45Z</time>
      </trkpt>
      <trkpt lat="49.99801" lon="2.34129">
        <ele>127.3</ele>
        <time>2023-11-22T13:29:46Z</time>
      </trkpt>
      <trkpt lat="49.99801" lon="2.3413">
        <ele>127.3</ele>
        <time>2023-11-22T13:29:47Z</time>
      </trkpt>
      <trkpt lat="49.99802" lon="2.34132">
        <ele>127.3</ele>
        <time>2023-11-22T13:29:48Z</time>
      </trkpt>
      <trkpt lat="49.99803" lon="2.34133">
        <ele>127.3</ele>
        <time>2023-11-22T13:29:49Z</time>
      </trkpt>
      <trkpt lat="49.99804" lon="2.34135">
        <ele>127.2</ele>
        <time>2023-11-22T13:29:50Z</time>
      </trkpt>
      <trkpt lat="49.99804" lon="2.34136">
        <ele>127.2</ele>
        <time>2023-11-22T13:29:51Z</time>
      </trkpt>
      <trkpt lat="49.99805" lon="2.34137">
        <ele>127.2</ele>
        <time>2023-11-22T13:29:52Z</time>
      </trkpt>
      <trkpt lat="49.99806" lon="2.34139">
        <ele>127.2</ele>
        <time>2023-11-22T13:29:53Z</time>
      </trkpt>
      <trkpt lat="49.99807" lon="2.34141">
        <ele>127.1</ele>
        <time>2023-11-22T13:29:54Z</time>
      </trkpt>
      <trkpt lat="49.99808" lon="2.34142">
        <ele>127.1</ele>
        <time>2023-11-22T13:29:55Z</time>
      </trkpt>
      <trkpt lat="49.99808" lon="2.34143">
        <ele>127.1</ele>
        <time>2023-11-22T13:29:56Z</time>
      </trkpt>
      <trkpt lat="49.9981" lon="2.34146">
        <ele>127.1</ele>
        <time>2023-11-22T13:29:57Z</time>
      </trkpt>
      <trkpt lat="49.9981" lon="2.34147">
        <ele>127.1</ele>
        <time>2023-11-22T13:29:58Z</time>
      </trkpt>
      <trkpt lat="49.99811" lon="2.34148">
        <ele>127.1</ele>
        <time>2023-11-22T13:29:59Z</time>
      </trkpt>
      <trkpt lat="49.99812" lon="2.34149">
        <ele>127</ele>
        <time>2023-11-22T13:30:00Z</time>
      </trkpt>
      <trkpt lat="49.99813" lon="2.3415">
        <ele>127</ele>
        <time>2023-11-22T13:30:01Z</time>
      </trkpt>
      <trkpt lat="49.99813" lon="2.34151">
        <ele>127</ele>
        <time>2023-11-22T13:30:02Z</time>
      </trkpt>
      <trkpt lat="49.99814" lon="2.34153">
        <ele>127</ele>
        <time>2023-11-22T13:30:03Z</time>
      </trkpt>
      <trkpt lat="49.99815" lon="2.34154">
        <ele>127</ele>
        <time>2023-11-22T13:30:04Z</time>
      </trkpt>
      <trkpt lat="49.99816" lon="2.34156">
        <ele>127</ele>
        <time>2023-11-22T13:30:05Z</time>
      </trkpt>
      <trkpt lat="49.99817" lon="2.34158">
        <ele>127</ele>
        <time>2023-11-22T13:30:06Z</time>
      </trkpt>
      <trkpt lat="49.99817" lon="2.34159">
        <ele>127</ele>
        <time>2023-11-22T13:30:07Z</time>
      </trkpt>
      <trkpt lat="49.99818" lon="2.3416">
        <ele>127</ele>
        <time>2023-11-22T13:30:08Z</time>
      </trkpt>
      <trkpt lat="49.9982" lon="2.34163">
        <ele>126.9</ele>
        <time>2023-11-22T13:30:09Z</time>
      </trkpt>
      <trkpt lat="49.9982" lon="2.34164">
        <ele>126.9</ele>
        <time>2023-11-22T13:30:10Z</time>
      </trkpt>
      <trkpt lat="49.99821" lon="2.34165">
        <ele>126.9</ele>
        <time>2023-11-22T13:30:11Z</time>
      </trkpt>
      <trkpt lat="49.99822" lon="2.34167">
        <ele>126.9</ele>
        <time>2023-11-22T13:30:12Z</time>
      </trkpt>
      <trkpt lat="49.99823" lon="2.34168">
        <ele>126.9</ele>
        <time>2023-11-22T13:30:13Z</time>
      </trkpt>
      <trkpt lat="49.99823" lon="2.34169">
        <ele>126.9</ele>
        <time>2023-11-22T13:30:14Z</time>
      </trkpt>
      <trkpt lat="49.99824" lon="2.34171">
        <ele>126.9</ele>
        <time>2023-11-22T13:30:15Z</time>
      </trkpt>
      <trkpt lat="49.99825" lon="2.34172">
        <ele>126.9</ele>
        <time>2023-11-22T13:30:16Z</time>
      </trkpt>
      <trkpt lat="49.99825" lon="2.34173">
        <ele>126.9</ele>
        <time>2023-11-22T13:30:17Z</time>
      </trkpt>
      <trkpt lat="49.99826" lon="2.34174">
        <ele>126.9</ele>
        <time>2023-11-22T13:30:18Z</time>
      </trkpt>
      <trkpt lat="49.99827" lon="2.34175">
        <ele>126.9</ele>
        <time>2023-11-22T13:30:19Z</time>
      </trkpt>
      <trkpt lat="49.99827" lon="2.34177">
        <ele>126.9</ele>
        <time>2023-11-22T13:30:20Z</time>
      </trkpt>
      <trkpt lat="49.99828" lon="2.34178">
        <ele>126.9</ele>
        <time>2023-11-22T13:30:21Z</time>
      </trkpt>
      <trkpt lat="49.99829" lon="2.34179">
        <ele>126.9</ele>
        <time>2023-11-22T13:30:22Z</time>
      </trkpt>
      <trkpt lat="49.99829" lon="2.34181">
        <ele>126.9</ele>
        <time>2023-11-22T13:30:23Z</time>
      </trkpt>
      <trkpt lat="49.9983" lon="2.34182">
        <ele>126.9</ele>
        <time>2023-11-22T13:30:24Z</time>
      </trkpt>
      <trkpt lat="49.99831" lon="2.34183">
        <ele>126.9</ele>
        <time>2023-11-22T13:30:25Z</time>
      </trkpt>
      <trkpt lat="49.99832" lon="2.34185">
        <ele>126.9</ele>
        <time>2023-11-22T13:30:26Z</time>
      </trkpt>
      <trkpt lat="49.99832" lon="2.34186">
        <ele>126.9</ele>
        <time>2023-11-22T13:30:27Z</time>
      </trkpt>
      <trkpt lat="49.99833" lon="2.34188">
        <ele>126.9</ele>
        <time>2023-11-22T13:30:28Z</time>
      </trkpt>
      <trkpt lat="49.99833" lon="2.34189">
        <ele>126.9</ele>
        <time>2023-11-22T13:30:29Z</time>
      </trkpt>
      <trkpt lat="49.99834" lon="2.3419">
        <ele>126.9</ele>
        <time>2023-11-22T13:30:30Z</time>
      </trkpt>
      <trkpt lat="49.99834" lon="2.34191">
        <ele>126.9</ele>
        <time>2023-11-22T13:30:31Z</time>
      </trkpt>
      <trkpt lat="49.99835" lon="2.34192">
        <ele>126.9</ele>
        <time>2023-11-22T13:30:32Z</time>
      </trkpt>
      <trkpt lat="49.99836" lon="2.34193">
        <ele>126.9</ele>
        <time>2023-11-22T13:30:33Z</time>
      </trkpt>
      <trkpt lat="49.99836" lon="2.34195">
        <ele>126.9</ele>
        <time>2023-11-22T13:30:34Z</time>
      </trkpt>
      <trkpt lat="49.99837" lon="2.34196">
        <ele>126.9</ele>
        <time>2023-11-22T13:30:35Z</time>
      </trkpt>
      <trkpt lat="49.99838" lon="2.34197">
        <ele>126.9</ele>
        <time>2023-11-22T13:30:36Z</time>
      </trkpt>
      <trkpt lat="49.99839" lon="2.34199">
        <ele>126.9</ele>
        <time>2023-11-22T13:30:37Z</time>
      </trkpt>
      <trkpt lat="49.99839" lon="2.342">
        <ele>126.9</ele>
        <time>2023-11-22T13:30:38Z</time>
      </trkpt>
      <trkpt lat="49.9984" lon="2.34201">
        <ele>126.9</ele>
        <time>2023-11-22T13:30:39Z</time>
      </trkpt>
      <trkpt lat="49.99841" lon="2.34202">
        <ele>126.9</ele>
        <time>2023-11-22T13:30:40Z</time>
      </trkpt>
      <trkpt lat="49.99841" lon="2.34204">
        <ele>126.9</ele>
        <time>2023-11-22T13:30:41Z</time>
      </trkpt>
      <trkpt lat="49.99842" lon="2.34205">
        <ele>126.9</ele>
        <time>2023-11-22T13:30:42Z</time>
      </trkpt>
      <trkpt lat="49.99843" lon="2.34206">
        <ele>126.9</ele>
        <time>2023-11-22T13:30:43Z</time>
      </trkpt>
      <trkpt lat="49.99844" lon="2.34207">
        <ele>126.9</ele>
        <time>2023-11-22T13:30:44Z</time>
      </trkpt>
      <trkpt lat="49.99845" lon="2.34209">
        <ele>126.9</ele>
        <time>2023-11-22T13:30:45Z</time>
      </trkpt>
      <trkpt lat="49.99846" lon="2.3421">
        <ele>126.9</ele>
        <time>2023-11-22T13:30:46Z</time>
      </trkpt>
      <trkpt lat="49.99847" lon="2.34212">
        <ele>126.9</ele>
        <time>2023-11-22T13:30:47Z</time>
      </trkpt>
      <trkpt lat="49.99848" lon="2.34213">
        <ele>126.9</ele>
        <time>2023-11-22T13:30:48Z</time>
      </trkpt>
      <trkpt lat="49.9985" lon="2.34215">
        <ele>126.9</ele>
        <time>2023-11-22T13:30:49Z</time>
      </trkpt>
      <trkpt lat="49.9985" lon="2.34216">
        <ele>126.9</ele>
        <time>2023-11-22T13:30:50Z</time>
      </trkpt>
      <trkpt lat="49.99851" lon="2.34217">
        <ele>126.9</ele>
        <time>2023-11-22T13:30:51Z</time>
      </trkpt>
      <trkpt lat="49.99852" lon="2.3422">
        <ele>127</ele>
        <time>2023-11-22T13:30:52Z</time>
      </trkpt>
      <trkpt lat="49.99853" lon="2.34221">
        <ele>127</ele>
        <time>2023-11-22T13:30:53Z</time>
      </trkpt>
      <trkpt lat="49.99854" lon="2.34222">
        <ele>127</ele>
        <time>2023-11-22T13:30:54Z</time>
      </trkpt>
      <trkpt lat="49.99855" lon="2.34223">
        <ele>127</ele>
        <time>2023-11-22T13:30:55Z</time>
      </trkpt>
      <trkpt lat="49.99856" lon="2.34225">
        <ele>127</ele>
        <time>2023-11-22T13:30:56Z</time>
      </trkpt>
      <trkpt lat="49.99856" lon="2.34226">
        <ele>127</ele>
        <time>2023-11-22T13:30:57Z</time>
      </trkpt>
      <trkpt lat="49.99857" lon="2.34228">
        <ele>127</ele>
        <time>2023-11-22T13:30:58Z</time>
      </trkpt>
      <trkpt lat="49.99859" lon="2.3423">
        <ele>127</ele>
        <time>2023-11-22T13:30:59Z</time>
      </trkpt>
      <trkpt lat="49.99859" lon="2.34231">
        <ele>127</ele>
        <time>2023-11-22T13:31:00Z</time>
      </trkpt>
      <trkpt lat="49.9986" lon="2.34232">
        <ele>127</ele>
        <time>2023-11-22T13:31:01Z</time>
      </trkpt>
      <trkpt lat="49.99861" lon="2.34233">
        <ele>127</ele>
        <time>2023-11-22T13:31:02Z</time>
      </trkpt>
      <trkpt lat="49.99862" lon="2.34235">
        <ele>127</ele>
        <time>2023-11-22T13:31:03Z</time>
      </trkpt>
      <trkpt lat="49.99862" lon="2.34236">
        <ele>127</ele>
        <time>2023-11-22T13:31:04Z</time>
      </trkpt>
      <trkpt lat="49.99864" lon="2.34238">
        <ele>127</ele>
        <time>2023-11-22T13:31:05Z</time>
      </trkpt>
      <trkpt lat="49.99864" lon="2.34239">
        <ele>127</ele>
        <time>2023-11-22T13:31:06Z</time>
      </trkpt>
      <trkpt lat="49.99865" lon="2.3424">
        <ele>127</ele>
        <time>2023-11-22T13:31:07Z</time>
      </trkpt>
      <trkpt lat="49.99866" lon="2.34241">
        <ele>127</ele>
        <time>2023-11-22T13:31:08Z</time>
      </trkpt>
      <trkpt lat="49.99867" lon="2.34243">
        <ele>127</ele>
        <time>2023-11-22T13:31:09Z</time>
      </trkpt>
      <trkpt lat="49.99867" lon="2.34244">
        <ele>127</ele>
        <time>2023-11-22T13:31:10Z</time>
      </trkpt>
      <trkpt lat="49.99868" lon="2.34245">
        <ele>127</ele>
        <time>2023-11-22T13:31:11Z</time>
      </trkpt>
      <trkpt lat="49.99868" lon="2.34246">
        <ele>127</ele>
        <time>2023-11-22T13:31:12Z</time>
      </trkpt>
      <trkpt lat="49.99869" lon="2.34248">
        <ele>127</ele>
        <time>2023-11-22T13:31:13Z</time>
      </trkpt>
      <trkpt lat="49.9987" lon="2.34249">
        <ele>127</ele>
        <time>2023-11-22T13:31:14Z</time>
      </trkpt>
      <trkpt lat="49.9987" lon="2.3425">
        <ele>127</ele>
        <time>2023-11-22T13:31:15Z</time>
      </trkpt>
      <trkpt lat="49.99871" lon="2.34251">
        <ele>127</ele>
        <time>2023-11-22T13:31:16Z</time>
      </trkpt>
      <trkpt lat="49.99872" lon="2.34252">
        <ele>127</ele>
        <time>2023-11-22T13:31:17Z</time>
      </trkpt>
      <trkpt lat="49.99873" lon="2.34253">
        <ele>127</ele>
        <time>2023-11-22T13:31:18Z</time>
      </trkpt>
      <trkpt lat="49.99873" lon="2.34255">
        <ele>127</ele>
        <time>2023-11-22T13:31:19Z</time>
      </trkpt>
      <trkpt lat="49.99874" lon="2.34256">
        <ele>127</ele>
        <time>2023-11-22T13:31:20Z</time>
      </trkpt>
      <trkpt lat="49.99875" lon="2.34258">
        <ele>127</ele>
        <time>2023-11-22T13:31:21Z</time>
      </trkpt>
      <trkpt lat="49.99875" lon="2.34259">
        <ele>127</ele>
        <time>2023-11-22T13:31:22Z</time>
      </trkpt>
      <trkpt lat="49.99876" lon="2.34262">
        <ele>127</ele>
        <time>2023-11-22T13:31:23Z</time>
      </trkpt>
      <trkpt lat="49.99877" lon="2.34263">
        <ele>127</ele>
        <time>2023-11-22T13:31:24Z</time>
      </trkpt>
      <trkpt lat="49.99877" lon="2.34265">
        <ele>127</ele>
        <time>2023-11-22T13:31:25Z</time>
      </trkpt>
      <trkpt lat="49.99878" lon="2.34268">
        <ele>127</ele>
        <time>2023-11-22T13:31:26Z</time>
      </trkpt>
      <trkpt lat="49.99879" lon="2.34269">
        <ele>127</ele>
        <time>2023-11-22T13:31:27Z</time>
      </trkpt>
      <trkpt lat="49.99879" lon="2.3427">
        <ele>127</ele>
        <time>2023-11-22T13:31:28Z</time>
      </trkpt>
      <trkpt lat="49.9988" lon="2.34271">
        <ele>127</ele>
        <time>2023-11-22T13:31:29Z</time>
      </trkpt>
      <trkpt lat="49.99881" lon="2.34273">
        <ele>127</ele>
        <time>2023-11-22T13:31:30Z</time>
      </trkpt>
      <trkpt lat="49.99881" lon="2.34275">
        <ele>127</ele>
        <time>2023-11-22T13:31:31Z</time>
      </trkpt>
      <trkpt lat="49.99882" lon="2.34276">
        <ele>127</ele>
        <time>2023-11-22T13:31:32Z</time>
      </trkpt>
      <trkpt lat="49.99882" lon="2.34277">
        <ele>127</ele>
        <time>2023-11-22T13:31:33Z</time>
      </trkpt>
      <trkpt lat="49.99882" lon="2.34278">
        <ele>126.9</ele>
        <time>2023-11-22T13:31:34Z</time>
      </trkpt>
      <trkpt lat="49.99883" lon="2.3428">
        <ele>126.9</ele>
        <time>2023-11-22T13:31:35Z</time>
      </trkpt>
      <trkpt lat="49.99883" lon="2.34281">
        <ele>126.9</ele>
        <time>2023-11-22T13:31:36Z</time>
      </trkpt>
      <trkpt lat="49.99884" lon="2.34282">
        <ele>126.9</ele>
        <time>2023-11-22T13:31:37Z</time>
      </trkpt>
      <trkpt lat="49.99885" lon="2.34283">
        <ele>126.9</ele>
        <time>2023-11-22T13:31:38Z</time>
      </trkpt>
      <trkpt lat="49.99885" lon="2.34285">
        <ele>126.9</ele>
        <time>2023-11-22T13:31:39Z</time>
      </trkpt>
      <trkpt lat="49.99886" lon="2.34286">
        <ele>126.9</ele>
        <time>2023-11-22T13:31:40Z</time>
      </trkpt>
      <trkpt lat="49.99886" lon="2.34288">
        <ele>126.9</ele>
        <time>2023-11-22T13:31:41Z</time>
      </trkpt>
      <trkpt lat="49.99887" lon="2.34289">
        <ele>126.9</ele>
        <time>2023-11-22T13:31:42Z</time>
      </trkpt>
      <trkpt lat="49.99888" lon="2.34291">
        <ele>126.9</ele>
        <time>2023-11-22T13:31:43Z</time>
      </trkpt>
      <trkpt lat="49.99888" lon="2.34292">
        <ele>126.9</ele>
        <time>2023-11-22T13:31:44Z</time>
      </trkpt>
      <trkpt lat="49.99889" lon="2.34293">
        <ele>126.9</ele>
        <time>2023-11-22T13:31:45Z</time>
      </trkpt>
      <trkpt lat="49.9989" lon="2.34295">
        <ele>126.9</ele>
        <time>2023-11-22T13:31:46Z</time>
      </trkpt>
      <trkpt lat="49.9989" lon="2.34296">
        <ele>126.9</ele>
        <time>2023-11-22T13:31:47Z</time>
      </trkpt>
      <trkpt lat="49.99891" lon="2.34298">
        <ele>126.9</ele>
        <time>2023-11-22T13:31:48Z</time>
      </trkpt>
      <trkpt lat="49.99892" lon="2.34299">
        <ele>126.9</ele>
        <time>2023-11-22T13:31:49Z</time>
      </trkpt>
      <trkpt lat="49.99893" lon="2.343">
        <ele>126.9</ele>
        <time>2023-11-22T13:31:50Z</time>
      </trkpt>
      <trkpt lat="49.99893" lon="2.34302">
        <ele>126.9</ele>
        <time>2023-11-22T13:31:51Z</time>
      </trkpt>
      <trkpt lat="49.99894" lon="2.34303">
        <ele>126.9</ele>
        <time>2023-11-22T13:31:52Z</time>
      </trkpt>
      <trkpt lat="49.99895" lon="2.34305">
        <ele>126.9</ele>
        <time>2023-11-22T13:31:53Z</time>
      </trkpt>
      <trkpt lat="49.99895" lon="2.34306">
        <ele>126.9</ele>
        <time>2023-11-22T13:31:54Z</time>
      </trkpt>
      <trkpt lat="49.99896" lon="2.34307">
        <ele>126.9</ele>
        <time>2023-11-22T13:31:55Z</time>
      </trkpt>
      <trkpt lat="49.99896" lon="2.34308">
        <ele>126.9</ele>
        <time>2023-11-22T13:31:56Z</time>
      </trkpt>
      <trkpt lat="49.99897" lon="2.34309">
        <ele>126.9</ele>
        <time>2023-11-22T13:31:57Z</time>
      </trkpt>
      <trkpt lat="49.99897" lon="2.34311">
        <ele>126.9</ele>
        <time>2023-11-22T13:31:58Z</time>
      </trkpt>
      <trkpt lat="49.99898" lon="2.34312">
        <ele>126.9</ele>
        <time>2023-11-22T13:31:59Z</time>
      </trkpt>
      <trkpt lat="49.99898" lon="2.34313">
        <ele>126.9</ele>
        <time>2023-11-22T13:32:00Z</time>
      </trkpt>
      <trkpt lat="49.99899" lon="2.34315">
        <ele>126.9</ele>
        <time>2023-11-22T13:32:01Z</time>
      </trkpt>
      <trkpt lat="49.999" lon="2.34316">
        <ele>126.9</ele>
        <time>2023-11-22T13:32:02Z</time>
      </trkpt>
      <trkpt lat="49.999" lon="2.34317">
        <ele>126.9</ele>
        <time>2023-11-22T13:32:03Z</time>
      </trkpt>
      <trkpt lat="49.99901" lon="2.34319">
        <ele>126.9</ele>
        <time>2023-11-22T13:32:04Z</time>
      </trkpt>
      <trkpt lat="49.99902" lon="2.3432">
        <ele>126.9</ele>
        <time>2023-11-22T13:32:05Z</time>
      </trkpt>
      <trkpt lat="49.99903" lon="2.34321">
        <ele>126.9</ele>
        <time>2023-11-22T13:32:06Z</time>
      </trkpt>
      <trkpt lat="49.99903" lon="2.34323">
        <ele>126.9</ele>
        <time>2023-11-22T13:32:07Z</time>
      </trkpt>
      <trkpt lat="49.99904" lon="2.34324">
        <ele>126.9</ele>
        <time>2023-11-22T13:32:08Z</time>
      </trkpt>
      <trkpt lat="49.99905" lon="2.34325">
        <ele>126.9</ele>
        <time>2023-11-22T13:32:09Z</time>
      </trkpt>
      <trkpt lat="49.99905" lon="2.34326">
        <ele>126.9</ele>
        <time>2023-11-22T13:32:10Z</time>
      </trkpt>
      <trkpt lat="49.99906" lon="2.34327">
        <ele>126.9</ele>
        <time>2023-11-22T13:32:11Z</time>
      </trkpt>
      <trkpt lat="49.99907" lon="2.34328">
        <ele>126.9</ele>
        <time>2023-11-22T13:32:12Z</time>
      </trkpt>
      <trkpt lat="49.99908" lon="2.3433">
        <ele>126.9</ele>
        <time>2023-11-22T13:32:13Z</time>
      </trkpt>
      <trkpt lat="49.99909" lon="2.34331">
        <ele>126.9</ele>
        <time>2023-11-22T13:32:14Z</time>
      </trkpt>
      <trkpt lat="49.9991" lon="2.34332">
        <ele>126.9</ele>
        <time>2023-11-22T13:32:15Z</time>
      </trkpt>
      <trkpt lat="49.9991" lon="2.34333">
        <ele>126.9</ele>
        <time>2023-11-22T13:32:16Z</time>
      </trkpt>
      <trkpt lat="49.99911" lon="2.34335">
        <ele>126.9</ele>
        <time>2023-11-22T13:32:17Z</time>
      </trkpt>
      <trkpt lat="49.99912" lon="2.34336">
        <ele>126.9</ele>
        <time>2023-11-22T13:32:18Z</time>
      </trkpt>
      <trkpt lat="49.99913" lon="2.34337">
        <ele>126.8</ele>
        <time>2023-11-22T13:32:19Z</time>
      </trkpt>
      <trkpt lat="49.99914" lon="2.34338">
        <ele>126.8</ele>
        <time>2023-11-22T13:32:20Z</time>
      </trkpt>
      <trkpt lat="49.99915" lon="2.34341">
        <ele>126.8</ele>
        <time>2023-11-22T13:32:21Z</time>
      </trkpt>
      <trkpt lat="49.99916" lon="2.34342">
        <ele>126.8</ele>
        <time>2023-11-22T13:32:22Z</time>
      </trkpt>
      <trkpt lat="49.99917" lon="2.34343">
        <ele>126.8</ele>
        <time>2023-11-22T13:32:23Z</time>
      </trkpt>
      <trkpt lat="49.99918" lon="2.34344">
        <ele>126.8</ele>
        <time>2023-11-22T13:32:24Z</time>
      </trkpt>
      <trkpt lat="49.99919" lon="2.34345">
        <ele>126.8</ele>
        <time>2023-11-22T13:32:25Z</time>
      </trkpt>
      <trkpt lat="49.9992" lon="2.34348">
        <ele>126.8</ele>
        <time>2023-11-22T13:32:26Z</time>
      </trkpt>
      <trkpt lat="49.99921" lon="2.34349">
        <ele>126.8</ele>
        <time>2023-11-22T13:32:27Z</time>
      </trkpt>
      <trkpt lat="49.99921" lon="2.3435">
        <ele>126.8</ele>
        <time>2023-11-22T13:32:28Z</time>
      </trkpt>
      <trkpt lat="49.99923" lon="2.34352">
        <ele>126.8</ele>
        <time>2023-11-22T13:32:29Z</time>
      </trkpt>
      <trkpt lat="49.99923" lon="2.34353">
        <ele>126.7</ele>
        <time>2023-11-22T13:32:30Z</time>
      </trkpt>
      <trkpt lat="49.99924" lon="2.34354">
        <ele>126.7</ele>
        <time>2023-11-22T13:32:31Z</time>
      </trkpt>
      <trkpt lat="49.99926" lon="2.34356">
        <ele>126.7</ele>
        <time>2023-11-22T13:32:32Z</time>
      </trkpt>
      <trkpt lat="49.99926" lon="2.34357">
        <ele>126.7</ele>
        <time>2023-11-22T13:32:33Z</time>
      </trkpt>
      <trkpt lat="49.99927" lon="2.34358">
        <ele>126.7</ele>
        <time>2023-11-22T13:32:34Z</time>
      </trkpt>
      <trkpt lat="49.99928" lon="2.34359">
        <ele>126.7</ele>
        <time>2023-11-22T13:32:35Z</time>
      </trkpt>
      <trkpt lat="49.99928" lon="2.3436">
        <ele>126.7</ele>
        <time>2023-11-22T13:32:36Z</time>
      </trkpt>
      <trkpt lat="49.99929" lon="2.34361">
        <ele>126.7</ele>
        <time>2023-11-22T13:32:37Z</time>
      </trkpt>
      <trkpt lat="49.9993" lon="2.34362">
        <ele>126.7</ele>
        <time>2023-11-22T13:32:38Z</time>
      </trkpt>
      <trkpt lat="49.9993" lon="2.34364">
        <ele>126.7</ele>
        <time>2023-11-22T13:32:39Z</time>
      </trkpt>
      <trkpt lat="49.99931" lon="2.34365">
        <ele>126.7</ele>
        <time>2023-11-22T13:32:40Z</time>
      </trkpt>
      <trkpt lat="49.99933" lon="2.34368">
        <ele>126.7</ele>
        <time>2023-11-22T13:32:41Z</time>
      </trkpt>
      <trkpt lat="49.99933" lon="2.34369">
        <ele>126.7</ele>
        <time>2023-11-22T13:32:42Z</time>
      </trkpt>
      <trkpt lat="49.99934" lon="2.3437">
        <ele>126.7</ele>
        <time>2023-11-22T13:32:43Z</time>
      </trkpt>
      <trkpt lat="49.99935" lon="2.34372">
        <ele>126.7</ele>
        <time>2023-11-22T13:32:44Z</time>
      </trkpt>
      <trkpt lat="49.99936" lon="2.34373">
        <ele>126.7</ele>
        <time>2023-11-22T13:32:45Z</time>
      </trkpt>
      <trkpt lat="49.99937" lon="2.34374">
        <ele>126.7</ele>
        <time>2023-11-22T13:32:46Z</time>
      </trkpt>
      <trkpt lat="49.99938" lon="2.34376">
        <ele>126.7</ele>
        <time>2023-11-22T13:32:47Z</time>
      </trkpt>
      <trkpt lat="49.99939" lon="2.34377">
        <ele>126.7</ele>
        <time>2023-11-22T13:32:48Z</time>
      </trkpt>
      <trkpt lat="49.99939" lon="2.34378">
        <ele>126.7</ele>
        <time>2023-11-22T13:32:49Z</time>
      </trkpt>
      <trkpt lat="49.9994" lon="2.34379">
        <ele>126.7</ele>
        <time>2023-11-22T13:32:50Z</time>
      </trkpt>
      <trkpt lat="49.99941" lon="2.3438">
        <ele>126.7</ele>
        <time>2023-11-22T13:32:51Z</time>
      </trkpt>
      <trkpt lat="49.99941" lon="2.34381">
        <ele>126.7</ele>
        <time>2023-11-22T13:32:52Z</time>
      </trkpt>
      <trkpt lat="49.99942" lon="2.34383">
        <ele>126.6</ele>
        <time>2023-11-22T13:32:53Z</time>
      </trkpt>
      <trkpt lat="49.99942" lon="2.34384">
        <ele>126.6</ele>
        <time>2023-11-22T13:32:54Z</time>
      </trkpt>
      <trkpt lat="49.99943" lon="2.34385">
        <ele>126.6</ele>
        <time>2023-11-22T13:32:55Z</time>
      </trkpt>
      <trkpt lat="49.99944" lon="2.34386">
        <ele>126.6</ele>
        <time>2023-11-22T13:32:56Z</time>
      </trkpt>
      <trkpt lat="49.99944" lon="2.34388">
        <ele>126.6</ele>
        <time>2023-11-22T13:32:57Z</time>
      </trkpt>
      <trkpt lat="49.99945" lon="2.34389">
        <ele>126.6</ele>
        <time>2023-11-22T13:32:58Z</time>
      </trkpt>
      <trkpt lat="49.99945" lon="2.3439">
        <ele>126.6</ele>
        <time>2023-11-22T13:32:59Z</time>
      </trkpt>
      <trkpt lat="49.99946" lon="2.34392">
        <ele>126.6</ele>
        <time>2023-11-22T13:33:00Z</time>
      </trkpt>
      <trkpt lat="49.99947" lon="2.34393">
        <ele>126.6</ele>
        <time>2023-11-22T13:33:01Z</time>
      </trkpt>
      <trkpt lat="49.99947" lon="2.34394">
        <ele>126.6</ele>
        <time>2023-11-22T13:33:02Z</time>
      </trkpt>
      <trkpt lat="49.99948" lon="2.34396">
        <ele>126.6</ele>
        <time>2023-11-22T13:33:03Z</time>
      </trkpt>
      <trkpt lat="49.99948" lon="2.34397">
        <ele>126.6</ele>
        <time>2023-11-22T13:33:04Z</time>
      </trkpt>
      <trkpt lat="49.99949" lon="2.34398">
        <ele>126.6</ele>
        <time>2023-11-22T13:33:05Z</time>
      </trkpt>
      <trkpt lat="49.99949" lon="2.344">
        <ele>126.6</ele>
        <time>2023-11-22T13:33:06Z</time>
      </trkpt>
      <trkpt lat="49.9995" lon="2.34401">
        <ele>126.6</ele>
        <time>2023-11-22T13:33:07Z</time>
      </trkpt>
      <trkpt lat="49.9995" lon="2.34402">
        <ele>126.6</ele>
        <time>2023-11-22T13:33:08Z</time>
      </trkpt>
      <trkpt lat="49.99951" lon="2.34404">
        <ele>126.6</ele>
        <time>2023-11-22T13:33:09Z</time>
      </trkpt>
      <trkpt lat="49.99951" lon="2.34406">
        <ele>126.6</ele>
        <time>2023-11-22T13:33:10Z</time>
      </trkpt>
      <trkpt lat="49.99952" lon="2.34408">
        <ele>126.6</ele>
        <time>2023-11-22T13:33:11Z</time>
      </trkpt>
      <trkpt lat="49.99953" lon="2.34409">
        <ele>126.6</ele>
        <time>2023-11-22T13:33:12Z</time>
      </trkpt>
      <trkpt lat="49.99953" lon="2.3441">
        <ele>126.6</ele>
        <time>2023-11-22T13:33:13Z</time>
      </trkpt>
      <trkpt lat="49.99954" lon="2.34412">
        <ele>126.6</ele>
        <time>2023-11-22T13:33:14Z</time>
      </trkpt>
      <trkpt lat="49.99955" lon="2.34414">
        <ele>126.6</ele>
        <time>2023-11-22T13:33:15Z</time>
      </trkpt>
      <trkpt lat="49.99955" lon="2.34415">
        <ele>126.6</ele>
        <time>2023-11-22T13:33:16Z</time>
      </trkpt>
      <trkpt lat="49.99956" lon="2.34416">
        <ele>126.6</ele>
        <time>2023-11-22T13:33:17Z</time>
      </trkpt>
      <trkpt lat="49.99957" lon="2.34417">
        <ele>126.6</ele>
        <time>2023-11-22T13:33:18Z</time>
      </trkpt>
      <trkpt lat="49.99957" lon="2.34419">
        <ele>126.6</ele>
        <time>2023-11-22T13:33:19Z</time>
      </trkpt>
      <trkpt lat="49.99958" lon="2.3442">
        <ele>126.6</ele>
        <time>2023-11-22T13:33:20Z</time>
      </trkpt>
      <trkpt lat="49.99959" lon="2.34421">
        <ele>126.6</ele>
        <time>2023-11-22T13:33:21Z</time>
      </trkpt>
      <trkpt lat="49.99959" lon="2.34423">
        <ele>126.6</ele>
        <time>2023-11-22T13:33:22Z</time>
      </trkpt>
      <trkpt lat="49.9996" lon="2.34424">
        <ele>126.6</ele>
        <time>2023-11-22T13:33:23Z</time>
      </trkpt>
      <trkpt lat="49.99961" lon="2.34426">
        <ele>126.6</ele>
        <time>2023-11-22T13:33:24Z</time>
      </trkpt>
      <trkpt lat="49.99961" lon="2.34427">
        <ele>126.6</ele>
        <time>2023-11-22T13:33:25Z</time>
      </trkpt>
      <trkpt lat="49.99962" lon="2.34429">
        <ele>126.6</ele>
        <time>2023-11-22T13:33:26Z</time>
      </trkpt>
      <trkpt lat="49.99963" lon="2.3443">
        <ele>126.6</ele>
        <time>2023-11-22T13:33:27Z</time>
      </trkpt>
      <trkpt lat="49.99963" lon="2.34431">
        <ele>126.6</ele>
        <time>2023-11-22T13:33:28Z</time>
      </trkpt>
      <trkpt lat="49.99964" lon="2.34432">
        <ele>126.6</ele>
        <time>2023-11-22T13:33:29Z</time>
      </trkpt>
      <trkpt lat="49.99964" lon="2.34434">
        <ele>126.6</ele>
        <time>2023-11-22T13:33:30Z</time>
      </trkpt>
      <trkpt lat="49.99965" lon="2.34435">
        <ele>126.6</ele>
        <time>2023-11-22T13:33:31Z</time>
      </trkpt>
      <trkpt lat="49.99966" lon="2.34438">
        <ele>126.6</ele>
        <time>2023-11-22T13:33:32Z</time>
      </trkpt>
      <trkpt lat="49.99967" lon="2.34439">
        <ele>126.6</ele>
        <time>2023-11-22T13:33:33Z</time>
      </trkpt>
      <trkpt lat="49.99967" lon="2.3444">
        <ele>126.6</ele>
        <time>2023-11-22T13:33:34Z</time>
      </trkpt>
      <trkpt lat="49.99969" lon="2.34443">
        <ele>126.6</ele>
        <time>2023-11-22T13:33:35Z</time>
      </trkpt>
      <trkpt lat="49.99969" lon="2.34444">
        <ele>126.6</ele>
        <time>2023-11-22T13:33:36Z</time>
      </trkpt>
      <trkpt lat="49.9997" lon="2.34445">
        <ele>126.6</ele>
        <time>2023-11-22T13:33:37Z</time>
      </trkpt>
      <trkpt lat="49.99971" lon="2.34448">
        <ele>126.6</ele>
        <time>2023-11-22T13:33:38Z</time>
      </trkpt>
      <trkpt lat="49.99972" lon="2.34449">
        <ele>126.6</ele>
        <time>2023-11-22T13:33:39Z</time>
      </trkpt>
      <trkpt lat="49.99972" lon="2.3445">
        <ele>126.6</ele>
        <time>2023-11-22T13:33:40Z</time>
      </trkpt>
      <trkpt lat="49.99973" lon="2.34451">
        <ele>126.6</ele>
        <time>2023-11-22T13:33:41Z</time>
      </trkpt>
      <trkpt lat="49.99974" lon="2.34453">
        <ele>126.6</ele>
        <time>2023-11-22T13:33:42Z</time>
      </trkpt>
      <trkpt lat="49.99974" lon="2.34454">
        <ele>126.6</ele>
        <time>2023-11-22T13:33:43Z</time>
      </trkpt>
      <trkpt lat="49.99975" lon="2.34455">
        <ele>126.7</ele>
        <time>2023-11-22T13:33:44Z</time>
      </trkpt>
      <trkpt lat="49.99976" lon="2.34457">
        <ele>126.7</ele>
        <time>2023-11-22T13:33:45Z</time>
      </trkpt>
      <trkpt lat="49.99976" lon="2.34458">
        <ele>126.7</ele>
        <time>2023-11-22T13:33:46Z</time>
      </trkpt>
      <trkpt lat="49.99977" lon="2.3446">
        <ele>126.7</ele>
        <time>2023-11-22T13:33:47Z</time>
      </trkpt>
      <trkpt lat="49.99978" lon="2.34461">
        <ele>126.7</ele>
        <time>2023-11-22T13:33:48Z</time>
      </trkpt>
      <trkpt lat="49.99978" lon="2.34462">
        <ele>126.7</ele>
        <time>2023-11-22T13:33:49Z</time>
      </trkpt>
      <trkpt lat="49.99979" lon="2.34464">
        <ele>126.7</ele>
        <time>2023-11-22T13:33:50Z</time>
      </trkpt>
      <trkpt lat="49.9998" lon="2.34465">
        <ele>126.7</ele>
        <time>2023-11-22T13:33:51Z</time>
      </trkpt>
      <trkpt lat="49.9998" lon="2.34467">
        <ele>126.7</ele>
        <time>2023-11-22T13:33:52Z</time>
      </trkpt>
      <trkpt lat="49.99981" lon="2.34468">
        <ele>126.7</ele>
        <time>2023-11-22T13:33:53Z</time>
      </trkpt>
      <trkpt lat="49.99982" lon="2.34469">
        <ele>126.7</ele>
        <time>2023-11-22T13:33:54Z</time>
      </trkpt>
      <trkpt lat="49.99983" lon="2.3447">
        <ele>126.7</ele>
        <time>2023-11-22T13:33:55Z</time>
      </trkpt>
      <trkpt lat="49.99983" lon="2.34471">
        <ele>126.8</ele>
        <time>2023-11-22T13:33:56Z</time>
      </trkpt>
      <trkpt lat="49.99984" lon="2.34472">
        <ele>126.8</ele>
        <time>2023-11-22T13:33:57Z</time>
      </trkpt>
      <trkpt lat="49.99985" lon="2.34474">
        <ele>126.8</ele>
        <time>2023-11-22T13:33:58Z</time>
      </trkpt>
      <trkpt lat="49.99986" lon="2.34475">
        <ele>126.8</ele>
        <time>2023-11-22T13:33:59Z</time>
      </trkpt>
      <trkpt lat="49.99987" lon="2.34477">
        <ele>126.8</ele>
        <time>2023-11-22T13:34:00Z</time>
      </trkpt>
      <trkpt lat="49.99988" lon="2.34479">
        <ele>126.8</ele>
        <time>2023-11-22T13:34:01Z</time>
      </trkpt>
      <trkpt lat="49.99989" lon="2.3448">
        <ele>126.8</ele>
        <time>2023-11-22T13:34:02Z</time>
      </trkpt>
      <trkpt lat="49.9999" lon="2.34482">
        <ele>126.8</ele>
        <time>2023-11-22T13:34:03Z</time>
      </trkpt>
      <trkpt lat="49.99991" lon="2.34484">
        <ele>126.9</ele>
        <time>2023-11-22T13:34:04Z</time>
      </trkpt>
      <trkpt lat="49.99992" lon="2.34487">
        <ele>126.9</ele>
        <time>2023-11-22T13:34:05Z</time>
      </trkpt>
      <trkpt lat="49.99992" lon="2.34488">
        <ele>126.9</ele>
        <time>2023-11-22T13:34:06Z</time>
      </trkpt>
      <trkpt lat="49.99993" lon="2.34489">
        <ele>126.9</ele>
        <time>2023-11-22T13:34:07Z</time>
      </trkpt>
      <trkpt lat="49.99993" lon="2.34491">
        <ele>126.9</ele>
        <time>2023-11-22T13:34:08Z</time>
      </trkpt>
      <trkpt lat="49.99994" lon="2.34492">
        <ele>126.9</ele>
        <time>2023-11-22T13:34:09Z</time>
      </trkpt>
      <trkpt lat="49.99994" lon="2.34494">
        <ele>126.9</ele>
        <time>2023-11-22T13:34:10Z</time>
      </trkpt>
      <trkpt lat="49.99995" lon="2.34495">
        <ele>127</ele>
        <time>2023-11-22T13:34:11Z</time>
      </trkpt>
      <trkpt lat="49.99995" lon="2.34497">
        <ele>127</ele>
        <time>2023-11-22T13:34:12Z</time>
      </trkpt>
      <trkpt lat="49.99996" lon="2.34499">
        <ele>127</ele>
        <time>2023-11-22T13:34:13Z</time>
      </trkpt>
      <trkpt lat="49.99996" lon="2.345">
        <ele>127</ele>
        <time>2023-11-22T13:34:14Z</time>
      </trkpt>
      <trkpt lat="49.99997" lon="2.34502">
        <ele>127.1</ele>
        <time>2023-11-22T13:34:15Z</time>
      </trkpt>
      <trkpt lat="49.99998" lon="2.34503">
        <ele>127.1</ele>
        <time>2023-11-22T13:34:16Z</time>
      </trkpt>
      <trkpt lat="49.99998" lon="2.34505">
        <ele>127.1</ele>
        <time>2023-11-22T13:34:17Z</time>
      </trkpt>
      <trkpt lat="49.99999" lon="2.34506">
        <ele>127.1</ele>
        <time>2023-11-22T13:34:18Z</time>
      </trkpt>
      <trkpt lat="50" lon="2.34507">
        <ele>127.1</ele>
        <time>2023-11-22T13:34:19Z</time>
      </trkpt>
      <trkpt lat="50" lon="2.34508">
        <ele>127.2</ele>
        <time>2023-11-22T13:34:20Z</time>
      </trkpt>
      <trkpt lat="50.00001" lon="2.34509">
        <ele>127.2</ele>
        <time>2023-11-22T13:34:21Z</time>
      </trkpt>
      <trkpt lat="50.00002" lon="2.34509">
        <ele>127.2</ele>
        <time>2023-11-22T13:34:22Z</time>
      </trkpt>
      <trkpt lat="50.00002" lon="2.34511">
        <ele>127.2</ele>
        <time>2023-11-22T13:34:23Z</time>
      </trkpt>
      <trkpt lat="50.00003" lon="2.34512">
        <ele>127.2</ele>
        <time>2023-11-22T13:34:24Z</time>
      </trkpt>
      <trkpt lat="50.00004" lon="2.34513">
        <ele>127.2</ele>
        <time>2023-11-22T13:34:25Z</time>
      </trkpt>
      <trkpt lat="50.00004" lon="2.34514">
        <ele>127.3</ele>
        <time>2023-11-22T13:34:26Z</time>
      </trkpt>
      <trkpt lat="50.00005" lon="2.34515">
        <ele>127.3</ele>
        <time>2023-11-22T13:34:27Z</time>
      </trkpt>
      <trkpt lat="50.00005" lon="2.34516">
        <ele>127.3</ele>
        <time>2023-11-22T13:34:28Z</time>
      </trkpt>
      <trkpt lat="50.00006" lon="2.34517">
        <ele>127.3</ele>
        <time>2023-11-22T13:34:29Z</time>
      </trkpt>
      <trkpt lat="50.00006" lon="2.34518">
        <ele>127.3</ele>
        <time>2023-11-22T13:34:30Z</time>
      </trkpt>
      <trkpt lat="50.00006" lon="2.34518">
        <ele>127.3</ele>
        <time>2023-11-22T13:34:31Z</time>
      </trkpt>
      <trkpt lat="50.00007" lon="2.34519">
        <ele>127.3</ele>
        <time>2023-11-22T13:34:32Z</time>
      </trkpt>
      <trkpt lat="50.00007" lon="2.3452">
        <ele>127.3</ele>
        <time>2023-11-22T13:34:33Z</time>
      </trkpt>
      <trkpt lat="50.00008" lon="2.34521">
        <ele>127.3</ele>
        <time>2023-11-22T13:34:34Z</time>
      </trkpt>
      <trkpt lat="50.00009" lon="2.34522">
        <ele>127.3</ele>
        <time>2023-11-22T13:34:35Z</time>
      </trkpt>
      <trkpt lat="50.00009" lon="2.34523">
        <ele>127.3</ele>
        <time>2023-11-22T13:34:36Z</time>
      </trkpt>
      <trkpt lat="50.0001" lon="2.34524">
        <ele>127.3</ele>
        <time>2023-11-22T13:34:37Z</time>
      </trkpt>
      <trkpt lat="50.00011" lon="2.34525">
        <ele>127.3</ele>
        <time>2023-11-22T13:34:38Z</time>
      </trkpt>
      <trkpt lat="50.00012" lon="2.34525">
        <ele>127.3</ele>
        <time>2023-11-22T13:34:39Z</time>
      </trkpt>
      <trkpt lat="50.00012" lon="2.34526">
        <ele>127.3</ele>
        <time>2023-11-22T13:34:40Z</time>
      </trkpt>
      <trkpt lat="50.00013" lon="2.34527">
        <ele>127.3</ele>
        <time>2023-11-22T13:34:41Z</time>
      </trkpt>
      <trkpt lat="50.00014" lon="2.34528">
        <ele>127.3</ele>
        <time>2023-11-22T13:34:42Z</time>
      </trkpt>
      <trkpt lat="50.00015" lon="2.34528">
        <ele>127.3</ele>
        <time>2023-11-22T13:34:43Z</time>
      </trkpt>
      <trkpt lat="50.00015" lon="2.34529">
        <ele>127.3</ele>
        <time>2023-11-22T13:34:44Z</time>
      </trkpt>
      <trkpt lat="50.00016" lon="2.34529">
        <ele>127.3</ele>
        <time>2023-11-22T13:34:45Z</time>
      </trkpt>
      <trkpt lat="50.00016" lon="2.3453">
        <ele>127.3</ele>
        <time>2023-11-22T13:34:46Z</time>
      </trkpt>
      <trkpt lat="50.00017" lon="2.3453">
        <ele>127.3</ele>
        <time>2023-11-22T13:34:47Z</time>
      </trkpt>
      <trkpt lat="50.00017" lon="2.34529">
        <ele>127.3</ele>
        <time>2023-11-22T13:34:48Z</time>
      </trkpt>
      <trkpt lat="50.00017" lon="2.34529">
        <ele>127.3</ele>
        <time>2023-11-22T13:34:49Z</time>
      </trkpt>
      <trkpt lat="50.00016" lon="2.34529">
        <ele>127.3</ele>
        <time>2023-11-22T13:34:50Z</time>
      </trkpt>
      <trkpt lat="50.00016" lon="2.34528">
        <ele>127.3</ele>
        <time>2023-11-22T13:34:51Z</time>
      </trkpt>
      <trkpt lat="50.00016" lon="2.34528">
        <ele>127.3</ele>
        <time>2023-11-22T13:34:52Z</time>
      </trkpt>
      <trkpt lat="50.00016" lon="2.34528">
        <ele>127.3</ele>
        <time>2023-11-22T13:34:53Z</time>
      </trkpt>
      <trkpt lat="50.00015" lon="2.34528">
        <ele>127.3</ele>
        <time>2023-11-22T13:34:54Z</time>
      </trkpt>
      <trkpt lat="50.00015" lon="2.34527">
        <ele>127.3</ele>
        <time>2023-11-22T13:34:55Z</time>
      </trkpt>
      <trkpt lat="50.00015" lon="2.34527">
        <ele>127.3</ele>
        <time>2023-11-22T13:34:56Z</time>
      </trkpt>
      <trkpt lat="50.00015" lon="2.34527">
        <ele>127.3</ele>
        <time>2023-11-22T13:34:57Z</time>
      </trkpt>
      <trkpt lat="50.00015" lon="2.34527">
        <ele>127.3</ele>
        <time>2023-11-22T13:34:58Z</time>
      </trkpt>
      <trkpt lat="50.00015" lon="2.34527">
        <ele>127.3</ele>
        <time>2023-11-22T13:34:59Z</time>
      </trkpt>
      <trkpt lat="50.00015" lon="2.34527">
        <ele>127.3</ele>
        <time>2023-11-22T13:35:00Z</time>
      </trkpt>
      <trkpt lat="50.00015" lon="2.34527">
        <ele>127.3</ele>
        <time>2023-11-22T13:35:01Z</time>
      </trkpt>
      <trkpt lat="50.00015" lon="2.34527">
        <ele>127.3</ele>
        <time>2023-11-22T13:35:02Z</time>
      </trkpt>
      <trkpt lat="50.00015" lon="2.34527">
        <ele>127.3</ele>
        <time>2023-11-22T13:35:03Z</time>
      </trkpt>
      <trkpt lat="50.00015" lon="2.34527">
        <ele>127.3</ele>
        <time>2023-11-22T13:35:04Z</time>
      </trkpt>
      <trkpt lat="50.00014" lon="2.34527">
        <ele>127.3</ele>
        <time>2023-11-22T13:35:05Z</time>
      </trkpt>
      <trkpt lat="50.00014" lon="2.34527">
        <ele>127.3</ele>
        <time>2023-11-22T13:35:06Z</time>
      </trkpt>
      <trkpt lat="50.00014" lon="2.34527">
        <ele>127.3</ele>
        <time>2023-11-22T13:35:07Z</time>
      </trkpt>
      <trkpt lat="50.0001" lon="2.34527">
        <ele>127.3</ele>
        <time>2023-11-22T13:36:01Z</time>
      </trkpt>
      <trkpt lat="50.00009" lon="2.34527">
        <ele>127.3</ele>
        <time>2023-11-22T13:36:02Z</time>
      </trkpt>
      <trkpt lat="50.00009" lon="2.34527">
        <ele>127.3</ele>
        <time>2023-11-22T13:36:03Z</time>
      </trkpt>
      <trkpt lat="50.00009" lon="2.34527">
        <ele>127.3</ele>
        <time>2023-11-22T13:36:04Z</time>
      </trkpt>
      <trkpt lat="50.00009" lon="2.34527">
        <ele>127.3</ele>
        <time>2023-11-22T13:36:05Z</time>
      </trkpt>
      <trkpt lat="50.00009" lon="2.34527">
        <ele>127.3</ele>
        <time>2023-11-22T13:36:06Z</time>
      </trkpt>
      <trkpt lat="50.00009" lon="2.34527">
        <ele>127.3</ele>
        <time>2023-11-22T13:36:07Z</time>
      </trkpt>
      <trkpt lat="50.00009" lon="2.34527">
        <ele>127.3</ele>
        <time>2023-11-22T13:36:08Z</time>
      </trkpt>
      <trkpt lat="50.00009" lon="2.34527">
        <ele>127.3</ele>
        <time>2023-11-22T13:36:09Z</time>
      </trkpt>
      <trkpt lat="50.0001" lon="2.34528">
        <ele>127.3</ele>
        <time>2023-11-22T13:36:10Z</time>
      </trkpt>
      <trkpt lat="50.00011" lon="2.3453">
        <ele>127.3</ele>
        <time>2023-11-22T13:36:11Z</time>
      </trkpt>
      <trkpt lat="50.00012" lon="2.34531">
        <ele>127.3</ele>
        <time>2023-11-22T13:36:12Z</time>
      </trkpt>
      <trkpt lat="50.00014" lon="2.34533">
        <ele>127.3</ele>
        <time>2023-11-22T13:36:13Z</time>
      </trkpt>
      <trkpt lat="50.00015" lon="2.34534">
        <ele>127.3</ele>
        <time>2023-11-22T13:36:14Z</time>
      </trkpt>
      <trkpt lat="50.00016" lon="2.34536">
        <ele>127.3</ele>
        <time>2023-11-22T13:36:15Z</time>
      </trkpt>
      <trkpt lat="50.00018" lon="2.34537">
        <ele>127.3</ele>
        <time>2023-11-22T13:36:16Z</time>
      </trkpt>
      <trkpt lat="50.00019" lon="2.34538">
        <ele>127.3</ele>
        <time>2023-11-22T13:36:17Z</time>
      </trkpt>
      <trkpt lat="50.0002" lon="2.34539">
        <ele>127.3</ele>
        <time>2023-11-22T13:36:18Z</time>
      </trkpt>
      <trkpt lat="50.0002" lon="2.3454">
        <ele>127.2</ele>
        <time>2023-11-22T13:36:19Z</time>
      </trkpt>
      <trkpt lat="50.00021" lon="2.34541">
        <ele>127.2</ele>
        <time>2023-11-22T13:36:20Z</time>
      </trkpt>
      <trkpt lat="50.00021" lon="2.34542">
        <ele>127.2</ele>
        <time>2023-11-22T13:36:21Z</time>
      </trkpt>
      <trkpt lat="50.00021" lon="2.34543">
        <ele>127.2</ele>
        <time>2023-11-22T13:36:22Z</time>
      </trkpt>
      <trkpt lat="50.00022" lon="2.34545">
        <ele>127.2</ele>
        <time>2023-11-22T13:36:23Z</time>
      </trkpt>
      <trkpt lat="50.00023" lon="2.34546">
        <ele>127.2</ele>
        <time>2023-11-22T13:36:24Z</time>
      </trkpt>
      <trkpt lat="50.00024" lon="2.34547">
        <ele>127.2</ele>
        <time>2023-11-22T13:36:25Z</time>
      </trkpt>
      <trkpt lat="50.00024" lon="2.34548">
        <ele>127.1</ele>
        <time>2023-11-22T13:36:26Z</time>
      </trkpt>
      <trkpt lat="50.00025" lon="2.3455">
        <ele>127.1</ele>
        <time>2023-11-22T13:36:27Z</time>
      </trkpt>
      <trkpt lat="50.00026" lon="2.3455">
        <ele>127.1</ele>
        <time>2023-11-22T13:36:28Z</time>
      </trkpt>
      <trkpt lat="50.00026" lon="2.34551">
        <ele>127.1</ele>
        <time>2023-11-22T13:36:29Z</time>
      </trkpt>
      <trkpt lat="50.00027" lon="2.34552">
        <ele>127.1</ele>
        <time>2023-11-22T13:36:30Z</time>
      </trkpt>
      <trkpt lat="50.00027" lon="2.34553">
        <ele>127.1</ele>
        <time>2023-11-22T13:36:31Z</time>
      </trkpt>
      <trkpt lat="50.0003" lon="2.34556">
        <ele>127</ele>
        <time>2023-11-22T13:36:32Z</time>
      </trkpt>
      <trkpt lat="50.0003" lon="2.34557">
        <ele>127</ele>
        <time>2023-11-22T13:36:33Z</time>
      </trkpt>
      <trkpt lat="50.00033" lon="2.3456">
        <ele>127</ele>
        <time>2023-11-22T13:36:34Z</time>
      </trkpt>
      <trkpt lat="50.00033" lon="2.34561">
        <ele>127</ele>
        <time>2023-11-22T13:36:35Z</time>
      </trkpt>
      <trkpt lat="50.00035" lon="2.34563">
        <ele>127</ele>
        <time>2023-11-22T13:36:36Z</time>
      </trkpt>
      <trkpt lat="50.00036" lon="2.34565">
        <ele>127</ele>
        <time>2023-11-22T13:36:37Z</time>
      </trkpt>
      <trkpt lat="50.00037" lon="2.34566">
        <ele>127</ele>
        <time>2023-11-22T13:36:38Z</time>
      </trkpt>
      <trkpt lat="50.00038" lon="2.34568">
        <ele>127</ele>
        <time>2023-11-22T13:36:39Z</time>
      </trkpt>
      <trkpt lat="50.00039" lon="2.34569">
        <ele>127</ele>
        <time>2023-11-22T13:36:40Z</time>
      </trkpt>
      <trkpt lat="50.0004" lon="2.3457">
        <ele>127</ele>
        <time>2023-11-22T13:36:41Z</time>
      </trkpt>
      <trkpt lat="50.00041" lon="2.34571">
        <ele>127</ele>
        <time>2023-11-22T13:36:42Z</time>
      </trkpt>
      <trkpt lat="50.00042" lon="2.34571">
        <ele>127</ele>
        <time>2023-11-22T13:36:43Z</time>
      </trkpt>
      <trkpt lat="50.00043" lon="2.34572">
        <ele>127</ele>
        <time>2023-11-22T13:36:44Z</time>
      </trkpt>
      <trkpt lat="50.00044" lon="2.34573">
        <ele>127</ele>
        <time>2023-11-22T13:36:45Z</time>
      </trkpt>
      <trkpt lat="50.00045" lon="2.34574">
        <ele>127</ele>
        <time>2023-11-22T13:36:46Z</time>
      </trkpt>
      <trkpt lat="50.00046" lon="2.34575">
        <ele>127</ele>
        <time>2023-11-22T13:36:47Z</time>
      </trkpt>
      <trkpt lat="50.00047" lon="2.34575">
        <ele>127</ele>
        <time>2023-11-22T13:36:48Z</time>
      </trkpt>
      <trkpt lat="50.00048" lon="2.34576">
        <ele>127.1</ele>
        <time>2023-11-22T13:36:49Z</time>
      </trkpt>
      <trkpt lat="50.00049" lon="2.34577">
        <ele>127.1</ele>
        <time>2023-11-22T13:36:50Z</time>
      </trkpt>
      <trkpt lat="50.0005" lon="2.34577">
        <ele>127.1</ele>
        <time>2023-11-22T13:36:51Z</time>
      </trkpt>
      <trkpt lat="50.00051" lon="2.34578">
        <ele>127.1</ele>
        <time>2023-11-22T13:36:52Z</time>
      </trkpt>
      <trkpt lat="50.00052" lon="2.34579">
        <ele>127.1</ele>
        <time>2023-11-22T13:36:53Z</time>
      </trkpt>
      <trkpt lat="50.00053" lon="2.34579">
        <ele>127.1</ele>
        <time>2023-11-22T13:36:54Z</time>
      </trkpt>
      <trkpt lat="50.00054" lon="2.3458">
        <ele>127.1</ele>
        <time>2023-11-22T13:36:55Z</time>
      </trkpt>
      <trkpt lat="50.00056" lon="2.3458">
        <ele>127.1</ele>
        <time>2023-11-22T13:36:56Z</time>
      </trkpt>
      <trkpt lat="50.00057" lon="2.34581">
        <ele>127.1</ele>
        <time>2023-11-22T13:36:57Z</time>
      </trkpt>
      <trkpt lat="50.00059" lon="2.34582">
        <ele>127.1</ele>
        <time>2023-11-22T13:36:58Z</time>
      </trkpt>
      <trkpt lat="50.00059" lon="2.34583">
        <ele>127.1</ele>
        <time>2023-11-22T13:36:59Z</time>
      </trkpt>
      <trkpt lat="50.0006" lon="2.34583">
        <ele>127.1</ele>
        <time>2023-11-22T13:37:00Z</time>
      </trkpt>
      <trkpt lat="50.00061" lon="2.34584">
        <ele>127.1</ele>
        <time>2023-11-22T13:37:01Z</time>
      </trkpt>
      <trkpt lat="50.00062" lon="2.34585">
        <ele>127.1</ele>
        <time>2023-11-22T13:37:02Z</time>
      </trkpt>
      <trkpt lat="50.00063" lon="2.34586">
        <ele>127.1</ele>
        <time>2023-11-22T13:37:03Z</time>
      </trkpt>
      <trkpt lat="50.00064" lon="2.34586">
        <ele>127.1</ele>
        <time>2023-11-22T13:37:04Z</time>
      </trkpt>
      <trkpt lat="50.00065" lon="2.34587">
        <ele>127.1</ele>
        <time>2023-11-22T13:37:05Z</time>
      </trkpt>
      <trkpt lat="50.00066" lon="2.34588">
        <ele>127.1</ele>
        <time>2023-11-22T13:37:06Z</time>
      </trkpt>
      <trkpt lat="50.00067" lon="2.34589">
        <ele>127.1</ele>
        <time>2023-11-22T13:37:07Z</time>
      </trkpt>
      <trkpt lat="50.00068" lon="2.34589">
        <ele>127.1</ele>
        <time>2023-11-22T13:37:08Z</time>
      </trkpt>
      <trkpt lat="50.00069" lon="2.3459">
        <ele>127.1</ele>
        <time>2023-11-22T13:37:09Z</time>
      </trkpt>
      <trkpt lat="50.0007" lon="2.34591">
        <ele>127.1</ele>
        <time>2023-11-22T13:37:10Z</time>
      </trkpt>
      <trkpt lat="50.00071" lon="2.34592">
        <ele>127.1</ele>
        <time>2023-11-22T13:37:11Z</time>
      </trkpt>
      <trkpt lat="50.00072" lon="2.34593">
        <ele>127.1</ele>
        <time>2023-11-22T13:37:12Z</time>
      </trkpt>
      <trkpt lat="50.00074" lon="2.34595">
        <ele>127.1</ele>
        <time>2023-11-22T13:37:13Z</time>
      </trkpt>
      <trkpt lat="50.00075" lon="2.34596">
        <ele>127.1</ele>
        <time>2023-11-22T13:37:14Z</time>
      </trkpt>
      <trkpt lat="50.00075" lon="2.34596">
        <ele>127.1</ele>
        <time>2023-11-22T13:37:15Z</time>
      </trkpt>
      <trkpt lat="50.00076" lon="2.34597">
        <ele>127.1</ele>
        <time>2023-11-22T13:37:16Z</time>
      </trkpt>
      <trkpt lat="50.00077" lon="2.34598">
        <ele>127.1</ele>
        <time>2023-11-22T13:37:17Z</time>
      </trkpt>
      <trkpt lat="50.00078" lon="2.34599">
        <ele>127</ele>
        <time>2023-11-22T13:37:18Z</time>
      </trkpt>
      <trkpt lat="50.00079" lon="2.346">
        <ele>127</ele>
        <time>2023-11-22T13:37:19Z</time>
      </trkpt>
      <trkpt lat="50.0008" lon="2.34601">
        <ele>127</ele>
        <time>2023-11-22T13:37:20Z</time>
      </trkpt>
      <trkpt lat="50.00081" lon="2.34601">
        <ele>127</ele>
        <time>2023-11-22T13:37:21Z</time>
      </trkpt>
      <trkpt lat="50.00082" lon="2.34602">
        <ele>127</ele>
        <time>2023-11-22T13:37:22Z</time>
      </trkpt>
      <trkpt lat="50.00083" lon="2.34603">
        <ele>127</ele>
        <time>2023-11-22T13:37:23Z</time>
      </trkpt>
      <trkpt lat="50.00084" lon="2.34604">
        <ele>127</ele>
        <time>2023-11-22T13:37:24Z</time>
      </trkpt>
      <trkpt lat="50.00086" lon="2.34605">
        <ele>127</ele>
        <time>2023-11-22T13:37:25Z</time>
      </trkpt>
      <trkpt lat="50.00087" lon="2.34605">
        <ele>127</ele>
        <time>2023-11-22T13:37:26Z</time>
      </trkpt>
      <trkpt lat="50.00088" lon="2.34606">
        <ele>126.9</ele>
        <time>2023-11-22T13:37:27Z</time>
      </trkpt>
      <trkpt lat="50.00089" lon="2.34606">
        <ele>126.9</ele>
        <time>2023-11-22T13:37:28Z</time>
      </trkpt>
      <trkpt lat="50.0009" lon="2.34607">
        <ele>126.9</ele>
        <time>2023-11-22T13:37:29Z</time>
      </trkpt>
      <trkpt lat="50.00091" lon="2.34608">
        <ele>126.9</ele>
        <time>2023-11-22T13:37:30Z</time>
      </trkpt>
      <trkpt lat="50.00092" lon="2.34608">
        <ele>126.9</ele>
        <time>2023-11-22T13:37:31Z</time>
      </trkpt>
      <trkpt lat="50.00093" lon="2.34609">
        <ele>126.9</ele>
        <time>2023-11-22T13:37:32Z</time>
      </trkpt>
      <trkpt lat="50.00094" lon="2.3461">
        <ele>126.9</ele>
        <time>2023-11-22T13:37:33Z</time>
      </trkpt>
      <trkpt lat="50.00095" lon="2.3461">
        <ele>126.9</ele>
        <time>2023-11-22T13:37:34Z</time>
      </trkpt>
      <trkpt lat="50.00096" lon="2.34611">
        <ele>126.9</ele>
        <time>2023-11-22T13:37:35Z</time>
      </trkpt>
      <trkpt lat="50.00097" lon="2.34612">
        <ele>126.8</ele>
        <time>2023-11-22T13:37:36Z</time>
      </trkpt>
      <trkpt lat="50.00098" lon="2.34612">
        <ele>126.8</ele>
        <time>2023-11-22T13:37:37Z</time>
      </trkpt>
      <trkpt lat="50.00099" lon="2.34613">
        <ele>126.8</ele>
        <time>2023-11-22T13:37:38Z</time>
      </trkpt>
      <trkpt lat="50.001" lon="2.34614">
        <ele>126.8</ele>
        <time>2023-11-22T13:37:39Z</time>
      </trkpt>
      <trkpt lat="50.00101" lon="2.34614">
        <ele>126.8</ele>
        <time>2023-11-22T13:37:40Z</time>
      </trkpt>
      <trkpt lat="50.00102" lon="2.34615">
        <ele>126.8</ele>
        <time>2023-11-22T13:37:41Z</time>
      </trkpt>
      <trkpt lat="50.00103" lon="2.34616">
        <ele>126.8</ele>
        <time>2023-11-22T13:37:42Z</time>
      </trkpt>
      <trkpt lat="50.00104" lon="2.34617">
        <ele>126.8</ele>
        <time>2023-11-22T13:37:43Z</time>
      </trkpt>
      <trkpt lat="50.00105" lon="2.34617">
        <ele>126.8</ele>
        <time>2023-11-22T13:37:44Z</time>
      </trkpt>
      <trkpt lat="50.00106" lon="2.34618">
        <ele>126.8</ele>
        <time>2023-11-22T13:37:45Z</time>
      </trkpt>
      <trkpt lat="50.00107" lon="2.34619">
        <ele>126.8</ele>
        <time>2023-11-22T13:37:46Z</time>
      </trkpt>
      <trkpt lat="50.00108" lon="2.3462">
        <ele>126.8</ele>
        <time>2023-11-22T13:37:47Z</time>
      </trkpt>
      <trkpt lat="50.00109" lon="2.3462">
        <ele>126.8</ele>
        <time>2023-11-22T13:37:48Z</time>
      </trkpt>
      <trkpt lat="50.0011" lon="2.34621">
        <ele>126.7</ele>
        <time>2023-11-22T13:37:49Z</time>
      </trkpt>
      <trkpt lat="50.00111" lon="2.34622">
        <ele>126.7</ele>
        <time>2023-11-22T13:37:50Z</time>
      </trkpt>
      <trkpt lat="50.00112" lon="2.34622">
        <ele>126.7</ele>
        <time>2023-11-22T13:37:51Z</time>
      </trkpt>
      <trkpt lat="50.00114" lon="2.34624">
        <ele>126.7</ele>
        <time>2023-11-22T13:37:52Z</time>
      </trkpt>
      <trkpt lat="50.00115" lon="2.34624">
        <ele>126.7</ele>
        <time>2023-11-22T13:37:53Z</time>
      </trkpt>
      <trkpt lat="50.00115" lon="2.34624">
        <ele>126.7</ele>
        <time>2023-11-22T13:37:54Z</time>
      </trkpt>
      <trkpt lat="50.00117" lon="2.34626">
        <ele>126.7</ele>
        <time>2023-11-22T13:37:55Z</time>
      </trkpt>
      <trkpt lat="50.00118" lon="2.34626">
        <ele>126.7</ele>
        <time>2023-11-22T13:37:56Z</time>
      </trkpt>
      <trkpt lat="50.00119" lon="2.34627">
        <ele>126.6</ele>
        <time>2023-11-22T13:37:57Z</time>
      </trkpt>
      <trkpt lat="50.0012" lon="2.34628">
        <ele>126.6</ele>
        <time>2023-11-22T13:37:58Z</time>
      </trkpt>
      <trkpt lat="50.00121" lon="2.34629">
        <ele>126.6</ele>
        <time>2023-11-22T13:37:59Z</time>
      </trkpt>
      <trkpt lat="50.00122" lon="2.34629">
        <ele>126.6</ele>
        <time>2023-11-22T13:38:00Z</time>
      </trkpt>
      <trkpt lat="50.00123" lon="2.3463">
        <ele>126.6</ele>
        <time>2023-11-22T13:38:01Z</time>
      </trkpt>
      <trkpt lat="50.00124" lon="2.34631">
        <ele>126.6</ele>
        <time>2023-11-22T13:38:02Z</time>
      </trkpt>
      <trkpt lat="50.00126" lon="2.34632">
        <ele>126.6</ele>
        <time>2023-11-22T13:38:03Z</time>
      </trkpt>
      <trkpt lat="50.00127" lon="2.34633">
        <ele>126.6</ele>
        <time>2023-11-22T13:38:04Z</time>
      </trkpt>
      <trkpt lat="50.00128" lon="2.34635">
        <ele>126.6</ele>
        <time>2023-11-22T13:38:05Z</time>
      </trkpt>
      <trkpt lat="50.00129" lon="2.34636">
        <ele>126.6</ele>
        <time>2023-11-22T13:38:06Z</time>
      </trkpt>
      <trkpt lat="50.00131" lon="2.34637">
        <ele>126.6</ele>
        <time>2023-11-22T13:38:07Z</time>
      </trkpt>
      <trkpt lat="50.00132" lon="2.34638">
        <ele>126.6</ele>
        <time>2023-11-22T13:38:08Z</time>
      </trkpt>
      <trkpt lat="50.00133" lon="2.34639">
        <ele>126.6</ele>
        <time>2023-11-22T13:38:09Z</time>
      </trkpt>
      <trkpt lat="50.00134" lon="2.3464">
        <ele>126.6</ele>
        <time>2023-11-22T13:38:10Z</time>
      </trkpt>
      <trkpt lat="50.00135" lon="2.34641">
        <ele>126.6</ele>
        <time>2023-11-22T13:38:11Z</time>
      </trkpt>
      <trkpt lat="50.00136" lon="2.34643">
        <ele>126.6</ele>
        <time>2023-11-22T13:38:12Z</time>
      </trkpt>
      <trkpt lat="50.00137" lon="2.34644">
        <ele>126.6</ele>
        <time>2023-11-22T13:38:13Z</time>
      </trkpt>
      <trkpt lat="50.00138" lon="2.34644">
        <ele>126.6</ele>
        <time>2023-11-22T13:38:14Z</time>
      </trkpt>
      <trkpt lat="50.0014" lon="2.34646">
        <ele>126.6</ele>
        <time>2023-11-22T13:38:15Z</time>
      </trkpt>
      <trkpt lat="50.0014" lon="2.34647">
        <ele>126.6</ele>
        <time>2023-11-22T13:38:16Z</time>
      </trkpt>
      <trkpt lat="50.00141" lon="2.34647">
        <ele>126.6</ele>
        <time>2023-11-22T13:38:17Z</time>
      </trkpt>
      <trkpt lat="50.00142" lon="2.34648">
        <ele>126.6</ele>
        <time>2023-11-22T13:38:18Z</time>
      </trkpt>
      <trkpt lat="50.00143" lon="2.34649">
        <ele>126.6</ele>
        <time>2023-11-22T13:38:19Z</time>
      </trkpt>
      <trkpt lat="50.00144" lon="2.3465">
        <ele>126.6</ele>
        <time>2023-11-22T13:38:20Z</time>
      </trkpt>
      <trkpt lat="50.00145" lon="2.3465">
        <ele>126.6</ele>
        <time>2023-11-22T13:38:21Z</time>
      </trkpt>
      <trkpt lat="50.00146" lon="2.34651">
        <ele>126.6</ele>
        <time>2023-11-22T13:38:22Z</time>
      </trkpt>
      <trkpt lat="50.00147" lon="2.34652">
        <ele>126.6</ele>
        <time>2023-11-22T13:38:23Z</time>
      </trkpt>
      <trkpt lat="50.00147" lon="2.34653">
        <ele>126.6</ele>
        <time>2023-11-22T13:38:24Z</time>
      </trkpt>
      <trkpt lat="50.00148" lon="2.34653">
        <ele>126.6</ele>
        <time>2023-11-22T13:38:25Z</time>
      </trkpt>
      <trkpt lat="50.00149" lon="2.34654">
        <ele>126.6</ele>
        <time>2023-11-22T13:38:26Z</time>
      </trkpt>
      <trkpt lat="50.0015" lon="2.34655">
        <ele>126.6</ele>
        <time>2023-11-22T13:38:27Z</time>
      </trkpt>
      <trkpt lat="50.00151" lon="2.34656">
        <ele>126.6</ele>
        <time>2023-11-22T13:38:28Z</time>
      </trkpt>
      <trkpt lat="50.00152" lon="2.34656">
        <ele>126.6</ele>
        <time>2023-11-22T13:38:29Z</time>
      </trkpt>
      <trkpt lat="50.00152" lon="2.34657">
        <ele>126.6</ele>
        <time>2023-11-22T13:38:30Z</time>
      </trkpt>
      <trkpt lat="50.00153" lon="2.34658">
        <ele>126.6</ele>
        <time>2023-11-22T13:38:31Z</time>
      </trkpt>
      <trkpt lat="50.00154" lon="2.34659">
        <ele>126.6</ele>
        <time>2023-11-22T13:38:32Z</time>
      </trkpt>
      <trkpt lat="50.00155" lon="2.3466">
        <ele>126.6</ele>
        <time>2023-11-22T13:38:33Z</time>
      </trkpt>
      <trkpt lat="50.00156" lon="2.34661">
        <ele>126.6</ele>
        <time>2023-11-22T13:38:34Z</time>
      </trkpt>
      <trkpt lat="50.00157" lon="2.34661">
        <ele>126.6</ele>
        <time>2023-11-22T13:38:35Z</time>
      </trkpt>
      <trkpt lat="50.00159" lon="2.34663">
        <ele>126.6</ele>
        <time>2023-11-22T13:38:36Z</time>
      </trkpt>
      <trkpt lat="50.0016" lon="2.34664">
        <ele>126.6</ele>
        <time>2023-11-22T13:38:37Z</time>
      </trkpt>
      <trkpt lat="50.00161" lon="2.34664">
        <ele>126.7</ele>
        <time>2023-11-22T13:38:38Z</time>
      </trkpt>
      <trkpt lat="50.00163" lon="2.34666">
        <ele>126.7</ele>
        <time>2023-11-22T13:38:39Z</time>
      </trkpt>
      <trkpt lat="50.00164" lon="2.34667">
        <ele>126.7</ele>
        <time>2023-11-22T13:38:40Z</time>
      </trkpt>
      <trkpt lat="50.00164" lon="2.34667">
        <ele>126.7</ele>
        <time>2023-11-22T13:38:41Z</time>
      </trkpt>
      <trkpt lat="50.00165" lon="2.34668">
        <ele>126.7</ele>
        <time>2023-11-22T13:38:42Z</time>
      </trkpt>
      <trkpt lat="50.00166" lon="2.34669">
        <ele>126.7</ele>
        <time>2023-11-22T13:38:43Z</time>
      </trkpt>
      <trkpt lat="50.00167" lon="2.3467">
        <ele>126.7</ele>
        <time>2023-11-22T13:38:44Z</time>
      </trkpt>
      <trkpt lat="50.00169" lon="2.34672">
        <ele>126.7</ele>
        <time>2023-11-22T13:38:45Z</time>
      </trkpt>
      <trkpt lat="50.0017" lon="2.34673">
        <ele>126.7</ele>
        <time>2023-11-22T13:38:46Z</time>
      </trkpt>
      <trkpt lat="50.00171" lon="2.34673">
        <ele>126.7</ele>
        <time>2023-11-22T13:38:47Z</time>
      </trkpt>
      <trkpt lat="50.00172" lon="2.34675">
        <ele>126.7</ele>
        <time>2023-11-22T13:38:48Z</time>
      </trkpt>
      <trkpt lat="50.00173" lon="2.34676">
        <ele>126.7</ele>
        <time>2023-11-22T13:38:49Z</time>
      </trkpt>
      <trkpt lat="50.00174" lon="2.34677">
        <ele>126.7</ele>
        <time>2023-11-22T13:38:50Z</time>
      </trkpt>
      <trkpt lat="50.00175" lon="2.34678">
        <ele>126.7</ele>
        <time>2023-11-22T13:38:51Z</time>
      </trkpt>
      <trkpt lat="50.00175" lon="2.34679">
        <ele>126.7</ele>
        <time>2023-11-22T13:38:52Z</time>
      </trkpt>
      <trkpt lat="50.00176" lon="2.3468">
        <ele>126.7</ele>
        <time>2023-11-22T13:38:53Z</time>
      </trkpt>
      <trkpt lat="50.00177" lon="2.34681">
        <ele>126.7</ele>
        <time>2023-11-22T13:38:54Z</time>
      </trkpt>
      <trkpt lat="50.00177" lon="2.34682">
        <ele>126.7</ele>
        <time>2023-11-22T13:38:55Z</time>
      </trkpt>
      <trkpt lat="50.00178" lon="2.34683">
        <ele>126.7</ele>
        <time>2023-11-22T13:38:56Z</time>
      </trkpt>
      <trkpt lat="50.00179" lon="2.34684">
        <ele>126.7</ele>
        <time>2023-11-22T13:38:57Z</time>
      </trkpt>
      <trkpt lat="50.00179" lon="2.34685">
        <ele>126.7</ele>
        <time>2023-11-22T13:38:58Z</time>
      </trkpt>
      <trkpt lat="50.0018" lon="2.34686">
        <ele>126.7</ele>
        <time>2023-11-22T13:38:59Z</time>
      </trkpt>
      <trkpt lat="50.00181" lon="2.34687">
        <ele>126.7</ele>
        <time>2023-11-22T13:39:00Z</time>
      </trkpt>
      <trkpt lat="50.00182" lon="2.34688">
        <ele>126.7</ele>
        <time>2023-11-22T13:39:01Z</time>
      </trkpt>
      <trkpt lat="50.00183" lon="2.34689">
        <ele>126.7</ele>
        <time>2023-11-22T13:39:02Z</time>
      </trkpt>
      <trkpt lat="50.00183" lon="2.3469">
        <ele>126.7</ele>
        <time>2023-11-22T13:39:03Z</time>
      </trkpt>
      <trkpt lat="50.00184" lon="2.34691">
        <ele>126.7</ele>
        <time>2023-11-22T13:39:04Z</time>
      </trkpt>
      <trkpt lat="50.00185" lon="2.34692">
        <ele>126.7</ele>
        <time>2023-11-22T13:39:05Z</time>
      </trkpt>
      <trkpt lat="50.00186" lon="2.34693">
        <ele>126.7</ele>
        <time>2023-11-22T13:39:06Z</time>
      </trkpt>
      <trkpt lat="50.00186" lon="2.34694">
        <ele>126.7</ele>
        <time>2023-11-22T13:39:07Z</time>
      </trkpt>
      <trkpt lat="50.00187" lon="2.34695">
        <ele>126.7</ele>
        <time>2023-11-22T13:39:08Z</time>
      </trkpt>
      <trkpt lat="50.00188" lon="2.34696">
        <ele>126.7</ele>
        <time>2023-11-22T13:39:09Z</time>
      </trkpt>
      <trkpt lat="50.00189" lon="2.34697">
        <ele>126.7</ele>
        <time>2023-11-22T13:39:10Z</time>
      </trkpt>
      <trkpt lat="50.0019" lon="2.34698">
        <ele>126.7</ele>
        <time>2023-11-22T13:39:11Z</time>
      </trkpt>
      <trkpt lat="50.00191" lon="2.347">
        <ele>126.7</ele>
        <time>2023-11-22T13:39:12Z</time>
      </trkpt>
      <trkpt lat="50.00192" lon="2.34701">
        <ele>126.7</ele>
        <time>2023-11-22T13:39:13Z</time>
      </trkpt>
      <trkpt lat="50.00192" lon="2.34702">
        <ele>126.8</ele>
        <time>2023-11-22T13:39:14Z</time>
      </trkpt>
      <trkpt lat="50.00193" lon="2.34703">
        <ele>126.8</ele>
        <time>2023-11-22T13:39:15Z</time>
      </trkpt>
      <trkpt lat="50.00194" lon="2.34704">
        <ele>126.8</ele>
        <time>2023-11-22T13:39:16Z</time>
      </trkpt>
      <trkpt lat="50.00195" lon="2.34705">
        <ele>126.8</ele>
        <time>2023-11-22T13:39:17Z</time>
      </trkpt>
      <trkpt lat="50.00197" lon="2.34707">
        <ele>126.9</ele>
        <time>2023-11-22T13:39:18Z</time>
      </trkpt>
      <trkpt lat="50.00198" lon="2.34708">
        <ele>126.9</ele>
        <time>2023-11-22T13:39:19Z</time>
      </trkpt>
      <trkpt lat="50.00198" lon="2.34709">
        <ele>126.9</ele>
        <time>2023-11-22T13:39:20Z</time>
      </trkpt>
      <trkpt lat="50.002" lon="2.3471">
        <ele>126.9</ele>
        <time>2023-11-22T13:39:21Z</time>
      </trkpt>
      <trkpt lat="50.00201" lon="2.34711">
        <ele>127</ele>
        <time>2023-11-22T13:39:22Z</time>
      </trkpt>
      <trkpt lat="50.00202" lon="2.34712">
        <ele>127</ele>
        <time>2023-11-22T13:39:23Z</time>
      </trkpt>
      <trkpt lat="50.00203" lon="2.34713">
        <ele>127</ele>
        <time>2023-11-22T13:39:24Z</time>
      </trkpt>
      <trkpt lat="50.00203" lon="2.34713">
        <ele>127</ele>
        <time>2023-11-22T13:39:25Z</time>
      </trkpt>
      <trkpt lat="50.00204" lon="2.34714">
        <ele>127</ele>
        <time>2023-11-22T13:39:26Z</time>
      </trkpt>
      <trkpt lat="50.00205" lon="2.34715">
        <ele>127.1</ele>
        <time>2023-11-22T13:39:27Z</time>
      </trkpt>
      <trkpt lat="50.00206" lon="2.34716">
        <ele>127.1</ele>
        <time>2023-11-22T13:39:28Z</time>
      </trkpt>
      <trkpt lat="50.00207" lon="2.34716">
        <ele>127.1</ele>
        <time>2023-11-22T13:39:29Z</time>
      </trkpt>
      <trkpt lat="50.00209" lon="2.34718">
        <ele>127.1</ele>
        <time>2023-11-22T13:39:30Z</time>
      </trkpt>
      <trkpt lat="50.0021" lon="2.34718">
        <ele>127.1</ele>
        <time>2023-11-22T13:39:31Z</time>
      </trkpt>
      <trkpt lat="50.00211" lon="2.34719">
        <ele>127.1</ele>
        <time>2023-11-22T13:39:32Z</time>
      </trkpt>
      <trkpt lat="50.00212" lon="2.3472">
        <ele>127.1</ele>
        <time>2023-11-22T13:39:33Z</time>
      </trkpt>
      <trkpt lat="50.00213" lon="2.34721">
        <ele>127.1</ele>
        <time>2023-11-22T13:39:34Z</time>
      </trkpt>
      <trkpt lat="50.00214" lon="2.34722">
        <ele>127.2</ele>
        <time>2023-11-22T13:39:35Z</time>
      </trkpt>
      <trkpt lat="50.00216" lon="2.34723">
        <ele>127.2</ele>
        <time>2023-11-22T13:39:36Z</time>
      </trkpt>
      <trkpt lat="50.00216" lon="2.34724">
        <ele>127.2</ele>
        <time>2023-11-22T13:39:37Z</time>
      </trkpt>
      <trkpt lat="50.00217" lon="2.34724">
        <ele>127.2</ele>
        <time>2023-11-22T13:39:38Z</time>
      </trkpt>
      <trkpt lat="50.00219" lon="2.34726">
        <ele>127.2</ele>
        <time>2023-11-22T13:39:39Z</time>
      </trkpt>
      <trkpt lat="50.0022" lon="2.34726">
        <ele>127.2</ele>
        <time>2023-11-22T13:39:40Z</time>
      </trkpt>
      <trkpt lat="50.00221" lon="2.34727">
        <ele>127.3</ele>
        <time>2023-11-22T13:39:41Z</time>
      </trkpt>
      <trkpt lat="50.00222" lon="2.34728">
        <ele>127.3</ele>
        <time>2023-11-22T13:39:42Z</time>
      </trkpt>
      <trkpt lat="50.00222" lon="2.34728">
        <ele>127.3</ele>
        <time>2023-11-22T13:39:43Z</time>
      </trkpt>
      <trkpt lat="50.00223" lon="2.34729">
        <ele>127.3</ele>
        <time>2023-11-22T13:39:44Z</time>
      </trkpt>
      <trkpt lat="50.00224" lon="2.3473">
        <ele>127.3</ele>
        <time>2023-11-22T13:39:45Z</time>
      </trkpt>
      <trkpt lat="50.00225" lon="2.3473">
        <ele>127.3</ele>
        <time>2023-11-22T13:39:46Z</time>
      </trkpt>
      <trkpt lat="50.00225" lon="2.34731">
        <ele>127.4</ele>
        <time>2023-11-22T13:39:47Z</time>
      </trkpt>
      <trkpt lat="50.00226" lon="2.34732">
        <ele>127.4</ele>
        <time>2023-11-22T13:39:48Z</time>
      </trkpt>
      <trkpt lat="50.00227" lon="2.34733">
        <ele>127.4</ele>
        <time>2023-11-22T13:39:49Z</time>
      </trkpt>
      <trkpt lat="50.00228" lon="2.34734">
        <ele>127.4</ele>
        <time>2023-11-22T13:39:50Z</time>
      </trkpt>
      <trkpt lat="50.00228" lon="2.34735">
        <ele>127.4</ele>
        <time>2023-11-22T13:39:51Z</time>
      </trkpt>
      <trkpt lat="50.00229" lon="2.34736">
        <ele>127.4</ele>
        <time>2023-11-22T13:39:52Z</time>
      </trkpt>
      <trkpt lat="50.0023" lon="2.34737">
        <ele>127.5</ele>
        <time>2023-11-22T13:39:53Z</time>
      </trkpt>
      <trkpt lat="50.00231" lon="2.34738">
        <ele>127.5</ele>
        <time>2023-11-22T13:39:54Z</time>
      </trkpt>
      <trkpt lat="50.00231" lon="2.34739">
        <ele>127.5</ele>
        <time>2023-11-22T13:39:55Z</time>
      </trkpt>
      <trkpt lat="50.00232" lon="2.3474">
        <ele>127.5</ele>
        <time>2023-11-22T13:39:56Z</time>
      </trkpt>
      <trkpt lat="50.00233" lon="2.3474">
        <ele>127.5</ele>
        <time>2023-11-22T13:39:57Z</time>
      </trkpt>
      <trkpt lat="50.00234" lon="2.34741">
        <ele>127.6</ele>
        <time>2023-11-22T13:39:58Z</time>
      </trkpt>
      <trkpt lat="50.00235" lon="2.34742">
        <ele>127.6</ele>
        <time>2023-11-22T13:39:59Z</time>
      </trkpt>
      <trkpt lat="50.00236" lon="2.34743">
        <ele>127.6</ele>
        <time>2023-11-22T13:40:00Z</time>
      </trkpt>
      <trkpt lat="50.00237" lon="2.34743">
        <ele>127.6</ele>
        <time>2023-11-22T13:40:01Z</time>
      </trkpt>
      <trkpt lat="50.00238" lon="2.34744">
        <ele>127.6</ele>
        <time>2023-11-22T13:40:02Z</time>
      </trkpt>
      <trkpt lat="50.00239" lon="2.34745">
        <ele>127.7</ele>
        <time>2023-11-22T13:40:03Z</time>
      </trkpt>
      <trkpt lat="50.0024" lon="2.34746">
        <ele>127.7</ele>
        <time>2023-11-22T13:40:04Z</time>
      </trkpt>
      <trkpt lat="50.00241" lon="2.34746">
        <ele>127.7</ele>
        <time>2023-11-22T13:40:05Z</time>
      </trkpt>
      <trkpt lat="50.00242" lon="2.34747">
        <ele>127.7</ele>
        <time>2023-11-22T13:40:06Z</time>
      </trkpt>
      <trkpt lat="50.00242" lon="2.34748">
        <ele>127.8</ele>
        <time>2023-11-22T13:40:07Z</time>
      </trkpt>
      <trkpt lat="50.00243" lon="2.34748">
        <ele>127.8</ele>
        <time>2023-11-22T13:40:08Z</time>
      </trkpt>
      <trkpt lat="50.00244" lon="2.34749">
        <ele>127.8</ele>
        <time>2023-11-22T13:40:09Z</time>
      </trkpt>
      <trkpt lat="50.00245" lon="2.3475">
        <ele>127.8</ele>
        <time>2023-11-22T13:40:10Z</time>
      </trkpt>
      <trkpt lat="50.00245" lon="2.34751">
        <ele>127.8</ele>
        <time>2023-11-22T13:40:11Z</time>
      </trkpt>
      <trkpt lat="50.00246" lon="2.34752">
        <ele>127.8</ele>
        <time>2023-11-22T13:40:12Z</time>
      </trkpt>
      <trkpt lat="50.00247" lon="2.34752">
        <ele>127.8</ele>
        <time>2023-11-22T13:40:13Z</time>
      </trkpt>
      <trkpt lat="50.00247" lon="2.34753">
        <ele>127.8</ele>
        <time>2023-11-22T13:40:14Z</time>
      </trkpt>
      <trkpt lat="50.00248" lon="2.34754">
        <ele>127.9</ele>
        <time>2023-11-22T13:40:15Z</time>
      </trkpt>
      <trkpt lat="50.00248" lon="2.34755">
        <ele>127.9</ele>
        <time>2023-11-22T13:40:16Z</time>
      </trkpt>
      <trkpt lat="50.00249" lon="2.34756">
        <ele>127.9</ele>
        <time>2023-11-22T13:40:17Z</time>
      </trkpt>
      <trkpt lat="50.0025" lon="2.34757">
        <ele>127.9</ele>
        <time>2023-11-22T13:40:18Z</time>
      </trkpt>
      <trkpt lat="50.00251" lon="2.34758">
        <ele>127.9</ele>
        <time>2023-11-22T13:40:19Z</time>
      </trkpt>
      <trkpt lat="50.00252" lon="2.34759">
        <ele>127.9</ele>
        <time>2023-11-22T13:40:20Z</time>
      </trkpt>
      <trkpt lat="50.00253" lon="2.3476">
        <ele>127.9</ele>
        <time>2023-11-22T13:40:21Z</time>
      </trkpt>
      <trkpt lat="50.00254" lon="2.34761">
        <ele>127.9</ele>
        <time>2023-11-22T13:40:22Z</time>
      </trkpt>
      <trkpt lat="50.00255" lon="2.34762">
        <ele>127.9</ele>
        <time>2023-11-22T13:40:23Z</time>
      </trkpt>
      <trkpt lat="50.00255" lon="2.34763">
        <ele>128</ele>
        <time>2023-11-22T13:40:24Z</time>
      </trkpt>
      <trkpt lat="50.00256" lon="2.34764">
        <ele>128</ele>
        <time>2023-11-22T13:40:25Z</time>
      </trkpt>
      <trkpt lat="50.00257" lon="2.34765">
        <ele>128</ele>
        <time>2023-11-22T13:40:26Z</time>
      </trkpt>
      <trkpt lat="50.00258" lon="2.34766">
        <ele>128</ele>
        <time>2023-11-22T13:40:27Z</time>
      </trkpt>
      <trkpt lat="50.00259" lon="2.34767">
        <ele>128</ele>
        <time>2023-11-22T13:40:28Z</time>
      </trkpt>
      <trkpt lat="50.0026" lon="2.34768">
        <ele>128</ele>
        <time>2023-11-22T13:40:29Z</time>
      </trkpt>
      <trkpt lat="50.00261" lon="2.34769">
        <ele>128</ele>
        <time>2023-11-22T13:40:30Z</time>
      </trkpt>
      <trkpt lat="50.00262" lon="2.3477">
        <ele>128</ele>
        <time>2023-11-22T13:40:31Z</time>
      </trkpt>
      <trkpt lat="50.00262" lon="2.34771">
        <ele>128</ele>
        <time>2023-11-22T13:40:32Z</time>
      </trkpt>
      <trkpt lat="50.00263" lon="2.34772">
        <ele>128</ele>
        <time>2023-11-22T13:40:33Z</time>
      </trkpt>
      <trkpt lat="50.00264" lon="2.34773">
        <ele>128</ele>
        <time>2023-11-22T13:40:34Z</time>
      </trkpt>
      <trkpt lat="50.00265" lon="2.34774">
        <ele>128</ele>
        <time>2023-11-22T13:40:35Z</time>
      </trkpt>
      <trkpt lat="50.00265" lon="2.34775">
        <ele>128</ele>
        <time>2023-11-22T13:40:36Z</time>
      </trkpt>
      <trkpt lat="50.00266" lon="2.34776">
        <ele>128</ele>
        <time>2023-11-22T13:40:37Z</time>
      </trkpt>
      <trkpt lat="50.00267" lon="2.34777">
        <ele>128.1</ele>
        <time>2023-11-22T13:40:38Z</time>
      </trkpt>
      <trkpt lat="50.00267" lon="2.34778">
        <ele>128.1</ele>
        <time>2023-11-22T13:40:39Z</time>
      </trkpt>
      <trkpt lat="50.00268" lon="2.34779">
        <ele>128.1</ele>
        <time>2023-11-22T13:40:40Z</time>
      </trkpt>
      <trkpt lat="50.00269" lon="2.3478">
        <ele>128.1</ele>
        <time>2023-11-22T13:40:41Z</time>
      </trkpt>
      <trkpt lat="50.0027" lon="2.34781">
        <ele>128.1</ele>
        <time>2023-11-22T13:40:42Z</time>
      </trkpt>
      <trkpt lat="50.00271" lon="2.34782">
        <ele>128.1</ele>
        <time>2023-11-22T13:40:43Z</time>
      </trkpt>
      <trkpt lat="50.00271" lon="2.34783">
        <ele>128.1</ele>
        <time>2023-11-22T13:40:44Z</time>
      </trkpt>
      <trkpt lat="50.00272" lon="2.34784">
        <ele>128.1</ele>
        <time>2023-11-22T13:40:45Z</time>
      </trkpt>
      <trkpt lat="50.00273" lon="2.34784">
        <ele>128.1</ele>
        <time>2023-11-22T13:40:46Z</time>
      </trkpt>
      <trkpt lat="50.00273" lon="2.34785">
        <ele>128.1</ele>
        <time>2023-11-22T13:40:47Z</time>
      </trkpt>
      <trkpt lat="50.00274" lon="2.34786">
        <ele>128.1</ele>
        <time>2023-11-22T13:40:48Z</time>
      </trkpt>
      <trkpt lat="50.00275" lon="2.34787">
        <ele>128.1</ele>
        <time>2023-11-22T13:40:49Z</time>
      </trkpt>
      <trkpt lat="50.00276" lon="2.34788">
        <ele>128.1</ele>
        <time>2023-11-22T13:40:50Z</time>
      </trkpt>
      <trkpt lat="50.00276" lon="2.34789">
        <ele>128.1</ele>
        <time>2023-11-22T13:40:51Z</time>
      </trkpt>
      <trkpt lat="50.00277" lon="2.3479">
        <ele>128.1</ele>
        <time>2023-11-22T13:40:52Z</time>
      </trkpt>
      <trkpt lat="50.00278" lon="2.3479">
        <ele>128.1</ele>
        <time>2023-11-22T13:40:53Z</time>
      </trkpt>
      <trkpt lat="50.00279" lon="2.34791">
        <ele>128.1</ele>
        <time>2023-11-22T13:40:54Z</time>
      </trkpt>
      <trkpt lat="50.0028" lon="2.34792">
        <ele>128.1</ele>
        <time>2023-11-22T13:40:55Z</time>
      </trkpt>
      <trkpt lat="50.00281" lon="2.34793">
        <ele>128.1</ele>
        <time>2023-11-22T13:40:56Z</time>
      </trkpt>
      <trkpt lat="50.00282" lon="2.34794">
        <ele>128.1</ele>
        <time>2023-11-22T13:40:57Z</time>
      </trkpt>
      <trkpt lat="50.00283" lon="2.34796">
        <ele>128.1</ele>
        <time>2023-11-22T13:40:58Z</time>
      </trkpt>
      <trkpt lat="50.00284" lon="2.34797">
        <ele>128.1</ele>
        <time>2023-11-22T13:40:59Z</time>
      </trkpt>
      <trkpt lat="50.00285" lon="2.34798">
        <ele>128.2</ele>
        <time>2023-11-22T13:41:00Z</time>
      </trkpt>
      <trkpt lat="50.00286" lon="2.34799">
        <ele>128.2</ele>
        <time>2023-11-22T13:41:01Z</time>
      </trkpt>
      <trkpt lat="50.00287" lon="2.34799">
        <ele>128.2</ele>
        <time>2023-11-22T13:41:02Z</time>
      </trkpt>
      <trkpt lat="50.00288" lon="2.348">
        <ele>128.2</ele>
        <time>2023-11-22T13:41:03Z</time>
      </trkpt>
      <trkpt lat="50.00289" lon="2.34801">
        <ele>128.2</ele>
        <time>2023-11-22T13:41:04Z</time>
      </trkpt>
      <trkpt lat="50.0029" lon="2.34802">
        <ele>128.2</ele>
        <time>2023-11-22T13:41:05Z</time>
      </trkpt>
      <trkpt lat="50.00291" lon="2.34802">
        <ele>128.2</ele>
        <time>2023-11-22T13:41:06Z</time>
      </trkpt>
      <trkpt lat="50.00292" lon="2.34803">
        <ele>128.2</ele>
        <time>2023-11-22T13:41:07Z</time>
      </trkpt>
      <trkpt lat="50.00292" lon="2.34804">
        <ele>128.2</ele>
        <time>2023-11-22T13:41:08Z</time>
      </trkpt>
      <trkpt lat="50.00293" lon="2.34805">
        <ele>128.2</ele>
        <time>2023-11-22T13:41:09Z</time>
      </trkpt>
      <trkpt lat="50.00294" lon="2.34806">
        <ele>128.2</ele>
        <time>2023-11-22T13:41:10Z</time>
      </trkpt>
      <trkpt lat="50.00295" lon="2.34806">
        <ele>128.2</ele>
        <time>2023-11-22T13:41:11Z</time>
      </trkpt>
      <trkpt lat="50.00295" lon="2.34807">
        <ele>128.2</ele>
        <time>2023-11-22T13:41:12Z</time>
      </trkpt>
      <trkpt lat="50.00297" lon="2.34809">
        <ele>128.2</ele>
        <time>2023-11-22T13:41:13Z</time>
      </trkpt>
      <trkpt lat="50.00297" lon="2.34809">
        <ele>128.2</ele>
        <time>2023-11-22T13:41:14Z</time>
      </trkpt>
      <trkpt lat="50.00298" lon="2.3481">
        <ele>128.2</ele>
        <time>2023-11-22T13:41:15Z</time>
      </trkpt>
      <trkpt lat="50.00298" lon="2.34811">
        <ele>128.2</ele>
        <time>2023-11-22T13:41:16Z</time>
      </trkpt>
      <trkpt lat="50.00299" lon="2.34812">
        <ele>128.2</ele>
        <time>2023-11-22T13:41:17Z</time>
      </trkpt>
      <trkpt lat="50.003" lon="2.34813">
        <ele>128.2</ele>
        <time>2023-11-22T13:41:18Z</time>
      </trkpt>
      <trkpt lat="50.003" lon="2.34814">
        <ele>128.2</ele>
        <time>2023-11-22T13:41:19Z</time>
      </trkpt>
      <trkpt lat="50.00301" lon="2.34815">
        <ele>128.2</ele>
        <time>2023-11-22T13:41:20Z</time>
      </trkpt>
      <trkpt lat="50.00302" lon="2.34816">
        <ele>128.2</ele>
        <time>2023-11-22T13:41:21Z</time>
      </trkpt>
      <trkpt lat="50.00302" lon="2.34817">
        <ele>128.2</ele>
        <time>2023-11-22T13:41:22Z</time>
      </trkpt>
      <trkpt lat="50.00303" lon="2.34818">
        <ele>128.1</ele>
        <time>2023-11-22T13:41:23Z</time>
      </trkpt>
      <trkpt lat="50.00304" lon="2.3482">
        <ele>128.1</ele>
        <time>2023-11-22T13:41:24Z</time>
      </trkpt>
      <trkpt lat="50.00304" lon="2.34821">
        <ele>128.1</ele>
        <time>2023-11-22T13:41:25Z</time>
      </trkpt>
      <trkpt lat="50.00305" lon="2.34822">
        <ele>128.1</ele>
        <time>2023-11-22T13:41:26Z</time>
      </trkpt>
      <trkpt lat="50.00306" lon="2.34823">
        <ele>128.1</ele>
        <time>2023-11-22T13:41:27Z</time>
      </trkpt>
      <trkpt lat="50.00307" lon="2.34824">
        <ele>128.1</ele>
        <time>2023-11-22T13:41:28Z</time>
      </trkpt>
      <trkpt lat="50.00308" lon="2.34826">
        <ele>128.1</ele>
        <time>2023-11-22T13:41:29Z</time>
      </trkpt>
      <trkpt lat="50.00308" lon="2.34827">
        <ele>128.1</ele>
        <time>2023-11-22T13:41:30Z</time>
      </trkpt>
      <trkpt lat="50.00309" lon="2.34828">
        <ele>128.1</ele>
        <time>2023-11-22T13:41:31Z</time>
      </trkpt>
      <trkpt lat="50.0031" lon="2.34829">
        <ele>128.1</ele>
        <time>2023-11-22T13:41:32Z</time>
      </trkpt>
      <trkpt lat="50.00311" lon="2.3483">
        <ele>128.1</ele>
        <time>2023-11-22T13:41:33Z</time>
      </trkpt>
      <trkpt lat="50.00311" lon="2.34831">
        <ele>128.1</ele>
        <time>2023-11-22T13:41:34Z</time>
      </trkpt>
      <trkpt lat="50.00313" lon="2.34832">
        <ele>128</ele>
        <time>2023-11-22T13:41:35Z</time>
      </trkpt>
      <trkpt lat="50.00313" lon="2.34833">
        <ele>128</ele>
        <time>2023-11-22T13:41:36Z</time>
      </trkpt>
      <trkpt lat="50.00314" lon="2.34834">
        <ele>128</ele>
        <time>2023-11-22T13:41:37Z</time>
      </trkpt>
      <trkpt lat="50.00314" lon="2.34834">
        <ele>128</ele>
        <time>2023-11-22T13:41:38Z</time>
      </trkpt>
      <trkpt lat="50.00315" lon="2.34835">
        <ele>128</ele>
        <time>2023-11-22T13:41:39Z</time>
      </trkpt>
      <trkpt lat="50.00316" lon="2.34836">
        <ele>128</ele>
        <time>2023-11-22T13:41:40Z</time>
      </trkpt>
      <trkpt lat="50.00316" lon="2.34837">
        <ele>128</ele>
        <time>2023-11-22T13:41:41Z</time>
      </trkpt>
      <trkpt lat="50.00317" lon="2.34838">
        <ele>128</ele>
        <time>2023-11-22T13:41:42Z</time>
      </trkpt>
      <trkpt lat="50.00317" lon="2.34838">
        <ele>128</ele>
        <time>2023-11-22T13:41:43Z</time>
      </trkpt>
      <trkpt lat="50.00318" lon="2.34839">
        <ele>128</ele>
        <time>2023-11-22T13:41:44Z</time>
      </trkpt>
      <trkpt lat="50.00319" lon="2.3484">
        <ele>128</ele>
        <time>2023-11-22T13:41:45Z</time>
      </trkpt>
      <trkpt lat="50.00319" lon="2.34841">
        <ele>127.9</ele>
        <time>2023-11-22T13:41:46Z</time>
      </trkpt>
      <trkpt lat="50.0032" lon="2.34842">
        <ele>127.9</ele>
        <time>2023-11-22T13:41:47Z</time>
      </trkpt>
      <trkpt lat="50.00321" lon="2.34843">
        <ele>127.9</ele>
        <time>2023-11-22T13:41:48Z</time>
      </trkpt>
      <trkpt lat="50.00321" lon="2.34844">
        <ele>127.9</ele>
        <time>2023-11-22T13:41:49Z</time>
      </trkpt>
      <trkpt lat="50.00322" lon="2.34845">
        <ele>127.9</ele>
        <time>2023-11-22T13:41:50Z</time>
      </trkpt>
      <trkpt lat="50.00323" lon="2.34846">
        <ele>127.9</ele>
        <time>2023-11-22T13:41:51Z</time>
      </trkpt>
      <trkpt lat="50.00323" lon="2.34847">
        <ele>127.9</ele>
        <time>2023-11-22T13:41:52Z</time>
      </trkpt>
      <trkpt lat="50.00324" lon="2.34848">
        <ele>127.9</ele>
        <time>2023-11-22T13:41:53Z</time>
      </trkpt>
      <trkpt lat="50.00325" lon="2.34849">
        <ele>127.9</ele>
        <time>2023-11-22T13:41:54Z</time>
      </trkpt>
      <trkpt lat="50.00326" lon="2.34851">
        <ele>127.8</ele>
        <time>2023-11-22T13:41:55Z</time>
      </trkpt>
      <trkpt lat="50.00327" lon="2.34852">
        <ele>127.8</ele>
        <time>2023-11-22T13:41:56Z</time>
      </trkpt>
      <trkpt lat="50.00327" lon="2.34853">
        <ele>127.8</ele>
        <time>2023-11-22T13:41:57Z</time>
      </trkpt>
      <trkpt lat="50.00328" lon="2.34854">
        <ele>127.8</ele>
        <time>2023-11-22T13:41:58Z</time>
      </trkpt>
      <trkpt lat="50.00329" lon="2.34855">
        <ele>127.8</ele>
        <time>2023-11-22T13:41:59Z</time>
      </trkpt>
      <trkpt lat="50.0033" lon="2.34856">
        <ele>127.8</ele>
        <time>2023-11-22T13:42:00Z</time>
      </trkpt>
      <trkpt lat="50.00331" lon="2.34857">
        <ele>127.8</ele>
        <time>2023-11-22T13:42:01Z</time>
      </trkpt>
      <trkpt lat="50.00332" lon="2.34858">
        <ele>127.8</ele>
        <time>2023-11-22T13:42:02Z</time>
      </trkpt>
      <trkpt lat="50.00332" lon="2.34859">
        <ele>127.7</ele>
        <time>2023-11-22T13:42:03Z</time>
      </trkpt>
      <trkpt lat="50.00333" lon="2.3486">
        <ele>127.7</ele>
        <time>2023-11-22T13:42:04Z</time>
      </trkpt>
      <trkpt lat="50.00334" lon="2.34861">
        <ele>127.7</ele>
        <time>2023-11-22T13:42:05Z</time>
      </trkpt>
      <trkpt lat="50.00335" lon="2.34862">
        <ele>127.7</ele>
        <time>2023-11-22T13:42:06Z</time>
      </trkpt>
      <trkpt lat="50.00335" lon="2.34863">
        <ele>127.7</ele>
        <time>2023-11-22T13:42:07Z</time>
      </trkpt>
      <trkpt lat="50.00336" lon="2.34864">
        <ele>127.7</ele>
        <time>2023-11-22T13:42:08Z</time>
      </trkpt>
      <trkpt lat="50.00337" lon="2.34865">
        <ele>127.7</ele>
        <time>2023-11-22T13:42:09Z</time>
      </trkpt>
      <trkpt lat="50.00338" lon="2.34866">
        <ele>127.7</ele>
        <time>2023-11-22T13:42:10Z</time>
      </trkpt>
      <trkpt lat="50.00338" lon="2.34867">
        <ele>127.6</ele>
        <time>2023-11-22T13:42:11Z</time>
      </trkpt>
      <trkpt lat="50.00339" lon="2.34868">
        <ele>127.6</ele>
        <time>2023-11-22T13:42:12Z</time>
      </trkpt>
      <trkpt lat="50.0034" lon="2.34869">
        <ele>127.6</ele>
        <time>2023-11-22T13:42:13Z</time>
      </trkpt>
      <trkpt lat="50.00341" lon="2.3487">
        <ele>127.6</ele>
        <time>2023-11-22T13:42:14Z</time>
      </trkpt>
      <trkpt lat="50.00341" lon="2.34871">
        <ele>127.6</ele>
        <time>2023-11-22T13:42:15Z</time>
      </trkpt>
      <trkpt lat="50.00342" lon="2.34872">
        <ele>127.6</ele>
        <time>2023-11-22T13:42:16Z</time>
      </trkpt>
      <trkpt lat="50.00343" lon="2.34873">
        <ele>127.6</ele>
        <time>2023-11-22T13:42:17Z</time>
      </trkpt>
      <trkpt lat="50.00344" lon="2.34874">
        <ele>127.5</ele>
        <time>2023-11-22T13:42:18Z</time>
      </trkpt>
      <trkpt lat="50.00345" lon="2.34875">
        <ele>127.5</ele>
        <time>2023-11-22T13:42:19Z</time>
      </trkpt>
      <trkpt lat="50.00346" lon="2.34876">
        <ele>127.5</ele>
        <time>2023-11-22T13:42:20Z</time>
      </trkpt>
      <trkpt lat="50.00346" lon="2.34876">
        <ele>127.5</ele>
        <time>2023-11-22T13:42:21Z</time>
      </trkpt>
      <trkpt lat="50.00347" lon="2.34877">
        <ele>127.5</ele>
        <time>2023-11-22T13:42:22Z</time>
      </trkpt>
      <trkpt lat="50.00348" lon="2.34878">
        <ele>127.5</ele>
        <time>2023-11-22T13:42:23Z</time>
      </trkpt>
      <trkpt lat="50.00349" lon="2.34879">
        <ele>127.5</ele>
        <time>2023-11-22T13:42:24Z</time>
      </trkpt>
      <trkpt lat="50.00349" lon="2.3488">
        <ele>127.5</ele>
        <time>2023-11-22T13:42:25Z</time>
      </trkpt>
      <trkpt lat="50.0035" lon="2.34881">
        <ele>127.4</ele>
        <time>2023-11-22T13:42:26Z</time>
      </trkpt>
      <trkpt lat="50.00351" lon="2.34882">
        <ele>127.4</ele>
        <time>2023-11-22T13:42:27Z</time>
      </trkpt>
      <trkpt lat="50.00352" lon="2.34883">
        <ele>127.4</ele>
        <time>2023-11-22T13:42:28Z</time>
      </trkpt>
      <trkpt lat="50.00352" lon="2.34884">
        <ele>127.4</ele>
        <time>2023-11-22T13:42:29Z</time>
      </trkpt>
      <trkpt lat="50.00353" lon="2.34884">
        <ele>127.4</ele>
        <time>2023-11-22T13:42:30Z</time>
      </trkpt>
      <trkpt lat="50.00354" lon="2.34885">
        <ele>127.4</ele>
        <time>2023-11-22T13:42:31Z</time>
      </trkpt>
      <trkpt lat="50.00355" lon="2.34886">
        <ele>127.4</ele>
        <time>2023-11-22T13:42:32Z</time>
      </trkpt>
      <trkpt lat="50.00356" lon="2.34887">
        <ele>127.3</ele>
        <time>2023-11-22T13:42:33Z</time>
      </trkpt>
      <trkpt lat="50.00356" lon="2.34888">
        <ele>127.3</ele>
        <time>2023-11-22T13:42:34Z</time>
      </trkpt>
      <trkpt lat="50.00357" lon="2.3489">
        <ele>127.3</ele>
        <time>2023-11-22T13:42:35Z</time>
      </trkpt>
      <trkpt lat="50.00358" lon="2.34891">
        <ele>127.3</ele>
        <time>2023-11-22T13:42:36Z</time>
      </trkpt>
      <trkpt lat="50.00359" lon="2.34892">
        <ele>127.3</ele>
        <time>2023-11-22T13:42:37Z</time>
      </trkpt>
      <trkpt lat="50.00359" lon="2.34892">
        <ele>127.3</ele>
        <time>2023-11-22T13:42:38Z</time>
      </trkpt>
      <trkpt lat="50.0036" lon="2.34893">
        <ele>127.3</ele>
        <time>2023-11-22T13:42:39Z</time>
      </trkpt>
      <trkpt lat="50.00361" lon="2.34894">
        <ele>127.2</ele>
        <time>2023-11-22T13:42:40Z</time>
      </trkpt>
      <trkpt lat="50.00361" lon="2.34895">
        <ele>127.2</ele>
        <time>2023-11-22T13:42:41Z</time>
      </trkpt>
      <trkpt lat="50.00362" lon="2.34897">
        <ele>127.2</ele>
        <time>2023-11-22T13:42:42Z</time>
      </trkpt>
      <trkpt lat="50.00363" lon="2.34898">
        <ele>127.2</ele>
        <time>2023-11-22T13:42:43Z</time>
      </trkpt>
      <trkpt lat="50.00363" lon="2.34899">
        <ele>127.2</ele>
        <time>2023-11-22T13:42:44Z</time>
      </trkpt>
      <trkpt lat="50.00364" lon="2.349">
        <ele>127.2</ele>
        <time>2023-11-22T13:42:45Z</time>
      </trkpt>
      <trkpt lat="50.00365" lon="2.34901">
        <ele>127.1</ele>
        <time>2023-11-22T13:42:46Z</time>
      </trkpt>
      <trkpt lat="50.00365" lon="2.34902">
        <ele>127.1</ele>
        <time>2023-11-22T13:42:47Z</time>
      </trkpt>
      <trkpt lat="50.00366" lon="2.34903">
        <ele>127.1</ele>
        <time>2023-11-22T13:42:48Z</time>
      </trkpt>
      <trkpt lat="50.00367" lon="2.34905">
        <ele>127.1</ele>
        <time>2023-11-22T13:42:49Z</time>
      </trkpt>
      <trkpt lat="50.00369" lon="2.34907">
        <ele>127</ele>
        <time>2023-11-22T13:42:50Z</time>
      </trkpt>
      <trkpt lat="50.00369" lon="2.34908">
        <ele>127</ele>
        <time>2023-11-22T13:42:51Z</time>
      </trkpt>
      <trkpt lat="50.0037" lon="2.34909">
        <ele>127</ele>
        <time>2023-11-22T13:42:52Z</time>
      </trkpt>
      <trkpt lat="50.00371" lon="2.3491">
        <ele>127</ele>
        <time>2023-11-22T13:42:53Z</time>
      </trkpt>
      <trkpt lat="50.00372" lon="2.34911">
        <ele>127</ele>
        <time>2023-11-22T13:42:54Z</time>
      </trkpt>
      <trkpt lat="50.00372" lon="2.34913">
        <ele>126.9</ele>
        <time>2023-11-22T13:42:55Z</time>
      </trkpt>
      <trkpt lat="50.00373" lon="2.34914">
        <ele>126.9</ele>
        <time>2023-11-22T13:42:56Z</time>
      </trkpt>
      <trkpt lat="50.00374" lon="2.34915">
        <ele>126.9</ele>
        <time>2023-11-22T13:42:57Z</time>
      </trkpt>
      <trkpt lat="50.00375" lon="2.34916">
        <ele>126.9</ele>
        <time>2023-11-22T13:42:58Z</time>
      </trkpt>
      <trkpt lat="50.00376" lon="2.34918">
        <ele>126.8</ele>
        <time>2023-11-22T13:42:59Z</time>
      </trkpt>
      <trkpt lat="50.00377" lon="2.34919">
        <ele>126.8</ele>
        <time>2023-11-22T13:43:00Z</time>
      </trkpt>
      <trkpt lat="50.00377" lon="2.3492">
        <ele>126.8</ele>
        <time>2023-11-22T13:43:01Z</time>
      </trkpt>
      <trkpt lat="50.00379" lon="2.34922">
        <ele>126.8</ele>
        <time>2023-11-22T13:43:02Z</time>
      </trkpt>
      <trkpt lat="50.0038" lon="2.34923">
        <ele>126.8</ele>
        <time>2023-11-22T13:43:03Z</time>
      </trkpt>
      <trkpt lat="50.0038" lon="2.34924">
        <ele>126.8</ele>
        <time>2023-11-22T13:43:04Z</time>
      </trkpt>
      <trkpt lat="50.00382" lon="2.34927">
        <ele>126.7</ele>
        <time>2023-11-22T13:43:05Z</time>
      </trkpt>
      <trkpt lat="50.00382" lon="2.34928">
        <ele>126.7</ele>
        <time>2023-11-22T13:43:06Z</time>
      </trkpt>
      <trkpt lat="50.00383" lon="2.34929">
        <ele>126.7</ele>
        <time>2023-11-22T13:43:07Z</time>
      </trkpt>
      <trkpt lat="50.00383" lon="2.3493">
        <ele>126.7</ele>
        <time>2023-11-22T13:43:08Z</time>
      </trkpt>
      <trkpt lat="50.00384" lon="2.34931">
        <ele>126.7</ele>
        <time>2023-11-22T13:43:09Z</time>
      </trkpt>
      <trkpt lat="50.00385" lon="2.34932">
        <ele>126.7</ele>
        <time>2023-11-22T13:43:10Z</time>
      </trkpt>
      <trkpt lat="50.00386" lon="2.34934">
        <ele>126.7</ele>
        <time>2023-11-22T13:43:11Z</time>
      </trkpt>
      <trkpt lat="50.00386" lon="2.34935">
        <ele>126.7</ele>
        <time>2023-11-22T13:43:12Z</time>
      </trkpt>
      <trkpt lat="50.00387" lon="2.34936">
        <ele>126.7</ele>
        <time>2023-11-22T13:43:13Z</time>
      </trkpt>
      <trkpt lat="50.00388" lon="2.34938">
        <ele>126.7</ele>
        <time>2023-11-22T13:43:14Z</time>
      </trkpt>
      <trkpt lat="50.00389" lon="2.3494">
        <ele>126.7</ele>
        <time>2023-11-22T13:43:15Z</time>
      </trkpt>
      <trkpt lat="50.00389" lon="2.34941">
        <ele>126.7</ele>
        <time>2023-11-22T13:43:16Z</time>
      </trkpt>
      <trkpt lat="50.0039" lon="2.34942">
        <ele>126.6</ele>
        <time>2023-11-22T13:43:17Z</time>
      </trkpt>
      <trkpt lat="50.0039" lon="2.34944">
        <ele>126.6</ele>
        <time>2023-11-22T13:43:18Z</time>
      </trkpt>
      <trkpt lat="50.00391" lon="2.34945">
        <ele>126.6</ele>
        <time>2023-11-22T13:43:19Z</time>
      </trkpt>
      <trkpt lat="50.00393" lon="2.34946">
        <ele>126.6</ele>
        <time>2023-11-22T13:43:20Z</time>
      </trkpt>
      <trkpt lat="50.00394" lon="2.34947">
        <ele>126.6</ele>
        <time>2023-11-22T13:43:21Z</time>
      </trkpt>
      <trkpt lat="50.00395" lon="2.34948">
        <ele>126.6</ele>
        <time>2023-11-22T13:43:22Z</time>
      </trkpt>
      <trkpt lat="50.00396" lon="2.34949">
        <ele>126.6</ele>
        <time>2023-11-22T13:43:23Z</time>
      </trkpt>
      <trkpt lat="50.00397" lon="2.3495">
        <ele>126.6</ele>
        <time>2023-11-22T13:43:24Z</time>
      </trkpt>
      <trkpt lat="50.00398" lon="2.34951">
        <ele>126.6</ele>
        <time>2023-11-22T13:43:25Z</time>
      </trkpt>
      <trkpt lat="50.00399" lon="2.34951">
        <ele>126.6</ele>
        <time>2023-11-22T13:43:26Z</time>
      </trkpt>
      <trkpt lat="50.004" lon="2.34952">
        <ele>126.6</ele>
        <time>2023-11-22T13:43:27Z</time>
      </trkpt>
      <trkpt lat="50.004" lon="2.34953">
        <ele>126.6</ele>
        <time>2023-11-22T13:43:28Z</time>
      </trkpt>
      <trkpt lat="50.00401" lon="2.34954">
        <ele>126.6</ele>
        <time>2023-11-22T13:43:29Z</time>
      </trkpt>
      <trkpt lat="50.00402" lon="2.34955">
        <ele>126.6</ele>
        <time>2023-11-22T13:43:30Z</time>
      </trkpt>
      <trkpt lat="50.00403" lon="2.34956">
        <ele>126.6</ele>
        <time>2023-11-22T13:43:31Z</time>
      </trkpt>
      <trkpt lat="50.00404" lon="2.34957">
        <ele>126.6</ele>
        <time>2023-11-22T13:43:32Z</time>
      </trkpt>
      <trkpt lat="50.00405" lon="2.34958">
        <ele>126.6</ele>
        <time>2023-11-22T13:43:33Z</time>
      </trkpt>
      <trkpt lat="50.00406" lon="2.34958">
        <ele>126.5</ele>
        <time>2023-11-22T13:43:34Z</time>
      </trkpt>
      <trkpt lat="50.00407" lon="2.3496">
        <ele>126.5</ele>
        <time>2023-11-22T13:43:35Z</time>
      </trkpt>
      <trkpt lat="50.00408" lon="2.3496">
        <ele>126.5</ele>
        <time>2023-11-22T13:43:36Z</time>
      </trkpt>
      <trkpt lat="50.00408" lon="2.34961">
        <ele>126.5</ele>
        <time>2023-11-22T13:43:37Z</time>
      </trkpt>
      <trkpt lat="50.00409" lon="2.34961">
        <ele>126.5</ele>
        <time>2023-11-22T13:43:38Z</time>
      </trkpt>
      <trkpt lat="50.0041" lon="2.34962">
        <ele>126.5</ele>
        <time>2023-11-22T13:43:39Z</time>
      </trkpt>
      <trkpt lat="50.00411" lon="2.34962">
        <ele>126.5</ele>
        <time>2023-11-22T13:43:40Z</time>
      </trkpt>
      <trkpt lat="50.00411" lon="2.34963">
        <ele>126.5</ele>
        <time>2023-11-22T13:43:41Z</time>
      </trkpt>
      <trkpt lat="50.00412" lon="2.34963">
        <ele>126.5</ele>
        <time>2023-11-22T13:43:42Z</time>
      </trkpt>
      <trkpt lat="50.00413" lon="2.34964">
        <ele>126.4</ele>
        <time>2023-11-22T13:43:43Z</time>
      </trkpt>
      <trkpt lat="50.00414" lon="2.34965">
        <ele>126.4</ele>
        <time>2023-11-22T13:43:44Z</time>
      </trkpt>
      <trkpt lat="50.00414" lon="2.34965">
        <ele>126.4</ele>
        <time>2023-11-22T13:43:45Z</time>
      </trkpt>
      <trkpt lat="50.00415" lon="2.34965">
        <ele>126.4</ele>
        <time>2023-11-22T13:43:46Z</time>
      </trkpt>
      <trkpt lat="50.00415" lon="2.34966">
        <ele>126.4</ele>
        <time>2023-11-22T13:43:47Z</time>
      </trkpt>
      <trkpt lat="50.00416" lon="2.34966">
        <ele>126.4</ele>
        <time>2023-11-22T13:43:48Z</time>
      </trkpt>
      <trkpt lat="50.00416" lon="2.34966">
        <ele>126.4</ele>
        <time>2023-11-22T13:43:49Z</time>
      </trkpt>
      <trkpt lat="50.00416" lon="2.34966">
        <ele>126.4</ele>
        <time>2023-11-22T13:43:50Z</time>
      </trkpt>
      <trkpt lat="50.00416" lon="2.34966">
        <ele>126.4</ele>
        <time>2023-11-22T13:43:51Z</time>
      </trkpt>
      <trkpt lat="50.00417" lon="2.34966">
        <ele>126.4</ele>
        <time>2023-11-22T13:43:52Z</time>
      </trkpt>
      <trkpt lat="50.00417" lon="2.34966">
        <ele>126.3</ele>
        <time>2023-11-22T13:43:53Z</time>
      </trkpt>
      <trkpt lat="50.00417" lon="2.34966">
        <ele>126.3</ele>
        <time>2023-11-22T13:43:54Z</time>
      </trkpt>
      <trkpt lat="50.00418" lon="2.34966">
        <ele>126.3</ele>
        <time>2023-11-22T13:43:55Z</time>
      </trkpt>
      <trkpt lat="50.00418" lon="2.34967">
        <ele>126.3</ele>
        <time>2023-11-22T13:43:56Z</time>
      </trkpt>
      <trkpt lat="50.00419" lon="2.34967">
        <ele>126.3</ele>
        <time>2023-11-22T13:43:57Z</time>
      </trkpt>
      <trkpt lat="50.00419" lon="2.34966">
        <ele>126.3</ele>
        <time>2023-11-22T13:43:58Z</time>
      </trkpt>
      <trkpt lat="50.0042" lon="2.34967">
        <ele>126.3</ele>
        <time>2023-11-22T13:43:59Z</time>
      </trkpt>
      <trkpt lat="50.0042" lon="2.34967">
        <ele>126.3</ele>
        <time>2023-11-22T13:44:00Z</time>
      </trkpt>
      <trkpt lat="50.00421" lon="2.34967">
        <ele>126.3</ele>
        <time>2023-11-22T13:44:01Z</time>
      </trkpt>
      <trkpt lat="50.00422" lon="2.34968">
        <ele>126.2</ele>
        <time>2023-11-22T13:44:02Z</time>
      </trkpt>
      <trkpt lat="50.00422" lon="2.34968">
        <ele>126.2</ele>
        <time>2023-11-22T13:44:03Z</time>
      </trkpt>
      <trkpt lat="50.00423" lon="2.34969">
        <ele>126.2</ele>
        <time>2023-11-22T13:44:04Z</time>
      </trkpt>
      <trkpt lat="50.00424" lon="2.34969">
        <ele>126.2</ele>
        <time>2023-11-22T13:44:05Z</time>
      </trkpt>
      <trkpt lat="50.00424" lon="2.34969">
        <ele>126.2</ele>
        <time>2023-11-22T13:44:06Z</time>
      </trkpt>
      <trkpt lat="50.00425" lon="2.3497">
        <ele>126.2</ele>
        <time>2023-11-22T13:44:07Z</time>
      </trkpt>
      <trkpt lat="50.00425" lon="2.3497">
        <ele>126.1</ele>
        <time>2023-11-22T13:44:08Z</time>
      </trkpt>
      <trkpt lat="50.00426" lon="2.34971">
        <ele>126.1</ele>
        <time>2023-11-22T13:44:09Z</time>
      </trkpt>
      <trkpt lat="50.00426" lon="2.34972">
        <ele>126.1</ele>
        <time>2023-11-22T13:44:10Z</time>
      </trkpt>
      <trkpt lat="50.00427" lon="2.34972">
        <ele>126.1</ele>
        <time>2023-11-22T13:44:11Z</time>
      </trkpt>
      <trkpt lat="50.00427" lon="2.34973">
        <ele>126.1</ele>
        <time>2023-11-22T13:44:12Z</time>
      </trkpt>
      <trkpt lat="50.00428" lon="2.34974">
        <ele>126</ele>
        <time>2023-11-22T13:44:13Z</time>
      </trkpt>
      <trkpt lat="50.00429" lon="2.34974">
        <ele>126</ele>
        <time>2023-11-22T13:44:14Z</time>
      </trkpt>
      <trkpt lat="50.0043" lon="2.34975">
        <ele>126</ele>
        <time>2023-11-22T13:44:15Z</time>
      </trkpt>
      <trkpt lat="50.0043" lon="2.34976">
        <ele>126</ele>
        <time>2023-11-22T13:44:16Z</time>
      </trkpt>
      <trkpt lat="50.00431" lon="2.34976">
        <ele>126</ele>
        <time>2023-11-22T13:44:17Z</time>
      </trkpt>
      <trkpt lat="50.00432" lon="2.34977">
        <ele>125.9</ele>
        <time>2023-11-22T13:44:18Z</time>
      </trkpt>
      <trkpt lat="50.00433" lon="2.34977">
        <ele>125.9</ele>
        <time>2023-11-22T13:44:19Z</time>
      </trkpt>
      <trkpt lat="50.00434" lon="2.34977">
        <ele>125.9</ele>
        <time>2023-11-22T13:44:20Z</time>
      </trkpt>
      <trkpt lat="50.00435" lon="2.34977">
        <ele>125.9</ele>
        <time>2023-11-22T13:44:21Z</time>
      </trkpt>
      <trkpt lat="50.00435" lon="2.34977">
        <ele>125.8</ele>
        <time>2023-11-22T13:44:22Z</time>
      </trkpt>
      <trkpt lat="50.00436" lon="2.34977">
        <ele>125.8</ele>
        <time>2023-11-22T13:44:23Z</time>
      </trkpt>
      <trkpt lat="50.00437" lon="2.34977">
        <ele>125.8</ele>
        <time>2023-11-22T13:44:24Z</time>
      </trkpt>
      <trkpt lat="50.00438" lon="2.34978">
        <ele>125.8</ele>
        <time>2023-11-22T13:44:25Z</time>
      </trkpt>
      <trkpt lat="50.00439" lon="2.34978">
        <ele>125.7</ele>
        <time>2023-11-22T13:44:26Z</time>
      </trkpt>
      <trkpt lat="50.0044" lon="2.34978">
        <ele>125.7</ele>
        <time>2023-11-22T13:44:27Z</time>
      </trkpt>
      <trkpt lat="50.00441" lon="2.34978">
        <ele>125.7</ele>
        <time>2023-11-22T13:44:28Z</time>
      </trkpt>
      <trkpt lat="50.00441" lon="2.34977">
        <ele>125.6</ele>
        <time>2023-11-22T13:44:29Z</time>
      </trkpt>
      <trkpt lat="50.00442" lon="2.34977">
        <ele>125.6</ele>
        <time>2023-11-22T13:44:30Z</time>
      </trkpt>
      <trkpt lat="50.00443" lon="2.34976">
        <ele>125.6</ele>
        <time>2023-11-22T13:44:31Z</time>
      </trkpt>
      <trkpt lat="50.00444" lon="2.34976">
        <ele>125.6</ele>
        <time>2023-11-22T13:44:32Z</time>
      </trkpt>
      <trkpt lat="50.00444" lon="2.34976">
        <ele>125.5</ele>
        <time>2023-11-22T13:44:33Z</time>
      </trkpt>
      <trkpt lat="50.00445" lon="2.34976">
        <ele>125.5</ele>
        <time>2023-11-22T13:44:34Z</time>
      </trkpt>
      <trkpt lat="50.00446" lon="2.34976">
        <ele>125.5</ele>
        <time>2023-11-22T13:44:35Z</time>
      </trkpt>
      <trkpt lat="50.00447" lon="2.34976">
        <ele>125.4</ele>
        <time>2023-11-22T13:44:36Z</time>
      </trkpt>
      <trkpt lat="50.00448" lon="2.34976">
        <ele>125.4</ele>
        <time>2023-11-22T13:44:37Z</time>
      </trkpt>
      <trkpt lat="50.00449" lon="2.34976">
        <ele>125.3</ele>
        <time>2023-11-22T13:44:38Z</time>
      </trkpt>
      <trkpt lat="50.0045" lon="2.34977">
        <ele>125.3</ele>
        <time>2023-11-22T13:44:39Z</time>
      </trkpt>
      <trkpt lat="50.00451" lon="2.34977">
        <ele>125.3</ele>
        <time>2023-11-22T13:44:40Z</time>
      </trkpt>
      <trkpt lat="50.00452" lon="2.34978">
        <ele>125.2</ele>
        <time>2023-11-22T13:44:41Z</time>
      </trkpt>
      <trkpt lat="50.00453" lon="2.34978">
        <ele>125.2</ele>
        <time>2023-11-22T13:44:42Z</time>
      </trkpt>
      <trkpt lat="50.00455" lon="2.34979">
        <ele>125.1</ele>
        <time>2023-11-22T13:44:43Z</time>
      </trkpt>
      <trkpt lat="50.00456" lon="2.34979">
        <ele>125</ele>
        <time>2023-11-22T13:44:44Z</time>
      </trkpt>
      <trkpt lat="50.00457" lon="2.34979">
        <ele>125</ele>
        <time>2023-11-22T13:44:45Z</time>
      </trkpt>
      <trkpt lat="50.00458" lon="2.34979">
        <ele>124.9</ele>
        <time>2023-11-22T13:44:46Z</time>
      </trkpt>
      <trkpt lat="50.00459" lon="2.3498">
        <ele>124.9</ele>
        <time>2023-11-22T13:44:47Z</time>
      </trkpt>
      <trkpt lat="50.0046" lon="2.3498">
        <ele>124.8</ele>
        <time>2023-11-22T13:44:48Z</time>
      </trkpt>
      <trkpt lat="50.00461" lon="2.3498">
        <ele>124.8</ele>
        <time>2023-11-22T13:44:49Z</time>
      </trkpt>
      <trkpt lat="50.00462" lon="2.34981">
        <ele>124.7</ele>
        <time>2023-11-22T13:44:50Z</time>
      </trkpt>
      <trkpt lat="50.00463" lon="2.34981">
        <ele>124.6</ele>
        <time>2023-11-22T13:44:51Z</time>
      </trkpt>
      <trkpt lat="50.00465" lon="2.34981">
        <ele>124.6</ele>
        <time>2023-11-22T13:44:52Z</time>
      </trkpt>
      <trkpt lat="50.00466" lon="2.34982">
        <ele>124.5</ele>
        <time>2023-11-22T13:44:53Z</time>
      </trkpt>
      <trkpt lat="50.00467" lon="2.34982">
        <ele>124.4</ele>
        <time>2023-11-22T13:44:54Z</time>
      </trkpt>
      <trkpt lat="50.00468" lon="2.34982">
        <ele>124.4</ele>
        <time>2023-11-22T13:44:55Z</time>
      </trkpt>
      <trkpt lat="50.00469" lon="2.34982">
        <ele>124.3</ele>
        <time>2023-11-22T13:44:56Z</time>
      </trkpt>
      <trkpt lat="50.0047" lon="2.34983">
        <ele>124.3</ele>
        <time>2023-11-22T13:44:57Z</time>
      </trkpt>
      <trkpt lat="50.00471" lon="2.34983">
        <ele>124.2</ele>
        <time>2023-11-22T13:44:58Z</time>
      </trkpt>
      <trkpt lat="50.00472" lon="2.34983">
        <ele>124.1</ele>
        <time>2023-11-22T13:44:59Z</time>
      </trkpt>
      <trkpt lat="50.00473" lon="2.34983">
        <ele>124.1</ele>
        <time>2023-11-22T13:45:00Z</time>
      </trkpt>
      <trkpt lat="50.00474" lon="2.34983">
        <ele>124</ele>
        <time>2023-11-22T13:45:01Z</time>
      </trkpt>
      <trkpt lat="50.00475" lon="2.34984">
        <ele>123.9</ele>
        <time>2023-11-22T13:45:02Z</time>
      </trkpt>
      <trkpt lat="50.00476" lon="2.34984">
        <ele>123.9</ele>
        <time>2023-11-22T13:45:03Z</time>
      </trkpt>
      <trkpt lat="50.00477" lon="2.34984">
        <ele>123.8</ele>
        <time>2023-11-22T13:45:04Z</time>
      </trkpt>
      <trkpt lat="50.00478" lon="2.34984">
        <ele>123.7</ele>
        <time>2023-11-22T13:45:05Z</time>
      </trkpt>
      <trkpt lat="50.00479" lon="2.34984">
        <ele>123.7</ele>
        <time>2023-11-22T13:45:06Z</time>
      </trkpt>
      <trkpt lat="50.0048" lon="2.34984">
        <ele>123.6</ele>
        <time>2023-11-22T13:45:07Z</time>
      </trkpt>
      <trkpt lat="50.00481" lon="2.34984">
        <ele>123.5</ele>
        <time>2023-11-22T13:45:08Z</time>
      </trkpt>
      <trkpt lat="50.00482" lon="2.34985">
        <ele>123.4</ele>
        <time>2023-11-22T13:45:09Z</time>
      </trkpt>
      <trkpt lat="50.00483" lon="2.34985">
        <ele>123.4</ele>
        <time>2023-11-22T13:45:10Z</time>
      </trkpt>
      <trkpt lat="50.00484" lon="2.34985">
        <ele>123.3</ele>
        <time>2023-11-22T13:45:11Z</time>
      </trkpt>
      <trkpt lat="50.00485" lon="2.34985">
        <ele>123.2</ele>
        <time>2023-11-22T13:45:12Z</time>
      </trkpt>
      <trkpt lat="50.00486" lon="2.34985">
        <ele>123.2</ele>
        <time>2023-11-22T13:45:13Z</time>
      </trkpt>
      <trkpt lat="50.00487" lon="2.34985">
        <ele>123.1</ele>
        <time>2023-11-22T13:45:14Z</time>
      </trkpt>
      <trkpt lat="50.00488" lon="2.34985">
        <ele>123</ele>
        <time>2023-11-22T13:45:15Z</time>
      </trkpt>
      <trkpt lat="50.00488" lon="2.34985">
        <ele>123</ele>
        <time>2023-11-22T13:45:16Z</time>
      </trkpt>
      <trkpt lat="50.00489" lon="2.34985">
        <ele>122.9</ele>
        <time>2023-11-22T13:45:17Z</time>
      </trkpt>
      <trkpt lat="50.0049" lon="2.34985">
        <ele>122.9</ele>
        <time>2023-11-22T13:45:18Z</time>
      </trkpt>
      <trkpt lat="50.00491" lon="2.34985">
        <ele>122.8</ele>
        <time>2023-11-22T13:45:19Z</time>
      </trkpt>
      <trkpt lat="50.00491" lon="2.34985">
        <ele>122.8</ele>
        <time>2023-11-22T13:45:20Z</time>
      </trkpt>
      <trkpt lat="50.00491" lon="2.34985">
        <ele>122.8</ele>
        <time>2023-11-22T13:45:21Z</time>
      </trkpt>
      <trkpt lat="50.00492" lon="2.34985">
        <ele>122.7</ele>
        <time>2023-11-22T13:45:22Z</time>
      </trkpt>
      <trkpt lat="50.00492" lon="2.34985">
        <ele>122.7</ele>
        <time>2023-11-22T13:45:23Z</time>
      </trkpt>
      <trkpt lat="50.00493" lon="2.34985">
        <ele>122.7</ele>
        <time>2023-11-22T13:45:24Z</time>
      </trkpt>
      <trkpt lat="50.00493" lon="2.34985">
        <ele>122.7</ele>
        <time>2023-11-22T13:45:25Z</time>
      </trkpt>
      <trkpt lat="50.00493" lon="2.34985">
        <ele>122.6</ele>
        <time>2023-11-22T13:45:26Z</time>
      </trkpt>
      <trkpt lat="50.00493" lon="2.34985">
        <ele>122.6</ele>
        <time>2023-11-22T13:45:27Z</time>
      </trkpt>
      <trkpt lat="50.00493" lon="2.34985">
        <ele>122.6</ele>
        <time>2023-11-22T13:45:28Z</time>
      </trkpt>
      <trkpt lat="50.00494" lon="2.34985">
        <ele>122.6</ele>
        <time>2023-11-22T13:45:29Z</time>
      </trkpt>
      <trkpt lat="50.00494" lon="2.34985">
        <ele>122.6</ele>
        <time>2023-11-22T13:45:30Z</time>
      </trkpt>
      <trkpt lat="50.00494" lon="2.34985">
        <ele>122.6</ele>
        <time>2023-11-22T13:45:31Z</time>
      </trkpt>
      <trkpt lat="50.00494" lon="2.34985">
        <ele>122.6</ele>
        <time>2023-11-22T13:45:32Z</time>
      </trkpt>
      <trkpt lat="50.00494" lon="2.34985">
        <ele>122.6</ele>
        <time>2023-11-22T13:45:33Z</time>
      </trkpt>
      <trkpt lat="50.00494" lon="2.34985">
        <ele>122.6</ele>
        <time>2023-11-22T13:45:34Z</time>
      </trkpt>
      <trkpt lat="50.00495" lon="2.34985">
        <ele>122.5</ele>
        <time>2023-11-22T13:45:35Z</time>
      </trkpt>
      <trkpt lat="50.00495" lon="2.34985">
        <ele>122.5</ele>
        <time>2023-11-22T13:45:36Z</time>
      </trkpt>
      <trkpt lat="50.00495" lon="2.34985">
        <ele>122.5</ele>
        <time>2023-11-22T13:45:37Z</time>
      </trkpt>
      <trkpt lat="50.00496" lon="2.34985">
        <ele>122.4</ele>
        <time>2023-11-22T13:45:38Z</time>
      </trkpt>
      <trkpt lat="50.00496" lon="2.34985">
        <ele>122.4</ele>
        <time>2023-11-22T13:45:39Z</time>
      </trkpt>
      <trkpt lat="50.00496" lon="2.34985">
        <ele>122.4</ele>
        <time>2023-11-22T13:45:40Z</time>
      </trkpt>
      <trkpt lat="50.00497" lon="2.34985">
        <ele>122.3</ele>
        <time>2023-11-22T13:45:41Z</time>
      </trkpt>
      <trkpt lat="50.00497" lon="2.34985">
        <ele>122.3</ele>
        <time>2023-11-22T13:45:42Z</time>
      </trkpt>
      <trkpt lat="50.00498" lon="2.34985">
        <ele>122.3</ele>
        <time>2023-11-22T13:45:43Z</time>
      </trkpt>
      <trkpt lat="50.00498" lon="2.34985">
        <ele>122.2</ele>
        <time>2023-11-22T13:45:44Z</time>
      </trkpt>
      <trkpt lat="50.00499" lon="2.34985">
        <ele>122.1</ele>
        <time>2023-11-22T13:45:45Z</time>
      </trkpt>
      <trkpt lat="50.005" lon="2.34986">
        <ele>122</ele>
        <time>2023-11-22T13:45:46Z</time>
      </trkpt>
      <trkpt lat="50.00502" lon="2.34986">
        <ele>121.8</ele>
        <time>2023-11-22T13:45:47Z</time>
      </trkpt>
      <trkpt lat="50.00503" lon="2.34987">
        <ele>121.8</ele>
        <time>2023-11-22T13:45:48Z</time>
      </trkpt>
      <trkpt lat="50.00504" lon="2.34987">
        <ele>121.7</ele>
        <time>2023-11-22T13:45:49Z</time>
      </trkpt>
      <trkpt lat="50.00506" lon="2.34987">
        <ele>121.5</ele>
        <time>2023-11-22T13:45:50Z</time>
      </trkpt>
      <trkpt lat="50.00507" lon="2.34987">
        <ele>121.4</ele>
        <time>2023-11-22T13:45:51Z</time>
      </trkpt>
      <trkpt lat="50.00508" lon="2.34986">
        <ele>121.3</ele>
        <time>2023-11-22T13:45:52Z</time>
      </trkpt>
      <trkpt lat="50.0051" lon="2.34986">
        <ele>121.1</ele>
        <time>2023-11-22T13:45:53Z</time>
      </trkpt>
      <trkpt lat="50.00511" lon="2.34986">
        <ele>121</ele>
        <time>2023-11-22T13:45:54Z</time>
      </trkpt>
      <trkpt lat="50.00512" lon="2.34986">
        <ele>120.9</ele>
        <time>2023-11-22T13:45:55Z</time>
      </trkpt>
      <trkpt lat="50.00514" lon="2.34986">
        <ele>120.7</ele>
        <time>2023-11-22T13:45:56Z</time>
      </trkpt>
      <trkpt lat="50.00515" lon="2.34987">
        <ele>120.6</ele>
        <time>2023-11-22T13:45:57Z</time>
      </trkpt>
      <trkpt lat="50.00516" lon="2.34987">
        <ele>120.5</ele>
        <time>2023-11-22T13:45:58Z</time>
      </trkpt>
      <trkpt lat="50.00517" lon="2.34987">
        <ele>120.4</ele>
        <time>2023-11-22T13:45:59Z</time>
      </trkpt>
      <trkpt lat="50.00519" lon="2.34988">
        <ele>120.2</ele>
        <time>2023-11-22T13:46:00Z</time>
      </trkpt>
      <trkpt lat="50.0052" lon="2.34988">
        <ele>120.1</ele>
        <time>2023-11-22T13:46:01Z</time>
      </trkpt>
      <trkpt lat="50.00522" lon="2.34988">
        <ele>120</ele>
        <time>2023-11-22T13:46:02Z</time>
      </trkpt>
      <trkpt lat="50.00524" lon="2.34988">
        <ele>119.8</ele>
        <time>2023-11-22T13:46:03Z</time>
      </trkpt>
      <trkpt lat="50.00525" lon="2.34988">
        <ele>119.7</ele>
        <time>2023-11-22T13:46:04Z</time>
      </trkpt>
      <trkpt lat="50.00525" lon="2.34987">
        <ele>119.7</ele>
        <time>2023-11-22T13:46:05Z</time>
      </trkpt>
      <trkpt lat="50.00527" lon="2.34987">
        <ele>119.6</ele>
        <time>2023-11-22T13:46:06Z</time>
      </trkpt>
      <trkpt lat="50.00528" lon="2.34987">
        <ele>119.5</ele>
        <time>2023-11-22T13:46:07Z</time>
      </trkpt>
      <trkpt lat="50.00529" lon="2.34987">
        <ele>119.4</ele>
        <time>2023-11-22T13:46:08Z</time>
      </trkpt>
      <trkpt lat="50.00531" lon="2.34988">
        <ele>119.3</ele>
        <time>2023-11-22T13:46:09Z</time>
      </trkpt>
      <trkpt lat="50.00532" lon="2.34988">
        <ele>119.3</ele>
        <time>2023-11-22T13:46:10Z</time>
      </trkpt>
      <trkpt lat="50.00533" lon="2.34988">
        <ele>119.2</ele>
        <time>2023-11-22T13:46:11Z</time>
      </trkpt>
      <trkpt lat="50.00534" lon="2.34989">
        <ele>119.1</ele>
        <time>2023-11-22T13:46:12Z</time>
      </trkpt>
      <trkpt lat="50.00536" lon="2.34989">
        <ele>119</ele>
        <time>2023-11-22T13:46:13Z</time>
      </trkpt>
      <trkpt lat="50.00537" lon="2.3499">
        <ele>119</ele>
        <time>2023-11-22T13:46:14Z</time>
      </trkpt>
      <trkpt lat="50.00539" lon="2.3499">
        <ele>118.9</ele>
        <time>2023-11-22T13:46:15Z</time>
      </trkpt>
      <trkpt lat="50.00541" lon="2.3499">
        <ele>118.8</ele>
        <time>2023-11-22T13:46:16Z</time>
      </trkpt>
      <trkpt lat="50.00542" lon="2.3499">
        <ele>118.7</ele>
        <time>2023-11-22T13:46:17Z</time>
      </trkpt>
      <trkpt lat="50.00542" lon="2.3499">
        <ele>118.7</ele>
        <time>2023-11-22T13:46:18Z</time>
      </trkpt>
      <trkpt lat="50.00544" lon="2.3499">
        <ele>118.6</ele>
        <time>2023-11-22T13:46:19Z</time>
      </trkpt>
      <trkpt lat="50.00545" lon="2.3499">
        <ele>118.5</ele>
        <time>2023-11-22T13:46:20Z</time>
      </trkpt>
      <trkpt lat="50.00546" lon="2.3499">
        <ele>118.5</ele>
        <time>2023-11-22T13:46:21Z</time>
      </trkpt>
      <trkpt lat="50.00548" lon="2.34991">
        <ele>118.4</ele>
        <time>2023-11-22T13:46:22Z</time>
      </trkpt>
      <trkpt lat="50.00549" lon="2.34991">
        <ele>118.3</ele>
        <time>2023-11-22T13:46:23Z</time>
      </trkpt>
      <trkpt lat="50.0055" lon="2.34991">
        <ele>118.3</ele>
        <time>2023-11-22T13:46:24Z</time>
      </trkpt>
      <trkpt lat="50.00551" lon="2.34991">
        <ele>118.2</ele>
        <time>2023-11-22T13:46:25Z</time>
      </trkpt>
      <trkpt lat="50.00552" lon="2.34991">
        <ele>118.1</ele>
        <time>2023-11-22T13:46:26Z</time>
      </trkpt>
      <trkpt lat="50.00553" lon="2.34992">
        <ele>118.1</ele>
        <time>2023-11-22T13:46:27Z</time>
      </trkpt>
      <trkpt lat="50.00554" lon="2.34992">
        <ele>118</ele>
        <time>2023-11-22T13:46:28Z</time>
      </trkpt>
      <trkpt lat="50.00555" lon="2.34992">
        <ele>118</ele>
        <time>2023-11-22T13:46:29Z</time>
      </trkpt>
      <trkpt lat="50.00556" lon="2.34993">
        <ele>117.9</ele>
        <time>2023-11-22T13:46:30Z</time>
      </trkpt>
      <trkpt lat="50.00557" lon="2.34993">
        <ele>117.8</ele>
        <time>2023-11-22T13:46:31Z</time>
      </trkpt>
      <trkpt lat="50.00558" lon="2.34994">
        <ele>117.8</ele>
        <time>2023-11-22T13:46:32Z</time>
      </trkpt>
      <trkpt lat="50.00559" lon="2.34994">
        <ele>117.7</ele>
        <time>2023-11-22T13:46:33Z</time>
      </trkpt>
      <trkpt lat="50.0056" lon="2.34995">
        <ele>117.7</ele>
        <time>2023-11-22T13:46:34Z</time>
      </trkpt>
      <trkpt lat="50.00561" lon="2.34995">
        <ele>117.7</ele>
        <time>2023-11-22T13:46:35Z</time>
      </trkpt>
      <trkpt lat="50.00562" lon="2.34995">
        <ele>117.6</ele>
        <time>2023-11-22T13:46:36Z</time>
      </trkpt>
      <trkpt lat="50.00563" lon="2.34996">
        <ele>117.6</ele>
        <time>2023-11-22T13:46:37Z</time>
      </trkpt>
      <trkpt lat="50.00564" lon="2.34996">
        <ele>117.5</ele>
        <time>2023-11-22T13:46:38Z</time>
      </trkpt>
      <trkpt lat="50.00566" lon="2.34996">
        <ele>117.5</ele>
        <time>2023-11-22T13:46:39Z</time>
      </trkpt>
      <trkpt lat="50.00568" lon="2.34996">
        <ele>117.4</ele>
        <time>2023-11-22T13:46:40Z</time>
      </trkpt>
      <trkpt lat="50.00568" lon="2.34996">
        <ele>117.4</ele>
        <time>2023-11-22T13:46:41Z</time>
      </trkpt>
      <trkpt lat="50.00569" lon="2.34997">
        <ele>117.4</ele>
        <time>2023-11-22T13:46:42Z</time>
      </trkpt>
      <trkpt lat="50.00571" lon="2.34997">
        <ele>117.3</ele>
        <time>2023-11-22T13:46:43Z</time>
      </trkpt>
      <trkpt lat="50.00572" lon="2.34997">
        <ele>117.3</ele>
        <time>2023-11-22T13:46:44Z</time>
      </trkpt>
      <trkpt lat="50.00574" lon="2.34997">
        <ele>117.2</ele>
        <time>2023-11-22T13:46:45Z</time>
      </trkpt>
      <trkpt lat="50.00575" lon="2.34998">
        <ele>117.2</ele>
        <time>2023-11-22T13:46:46Z</time>
      </trkpt>
      <trkpt lat="50.00576" lon="2.34998">
        <ele>117.2</ele>
        <time>2023-11-22T13:46:47Z</time>
      </trkpt>
      <trkpt lat="50.00577" lon="2.34998">
        <ele>117.2</ele>
        <time>2023-11-22T13:46:48Z</time>
      </trkpt>
      <trkpt lat="50.00578" lon="2.34998">
        <ele>117.1</ele>
        <time>2023-11-22T13:46:49Z</time>
      </trkpt>
      <trkpt lat="50.00579" lon="2.34998">
        <ele>117.1</ele>
        <time>2023-11-22T13:46:50Z</time>
      </trkpt>
      <trkpt lat="50.0058" lon="2.34998">
        <ele>117.1</ele>
        <time>2023-11-22T13:46:51Z</time>
      </trkpt>
      <trkpt lat="50.00582" lon="2.34998">
        <ele>117</ele>
        <time>2023-11-22T13:46:52Z</time>
      </trkpt>
      <trkpt lat="50.00583" lon="2.34998">
        <ele>117</ele>
        <time>2023-11-22T13:46:53Z</time>
      </trkpt>
      <trkpt lat="50.00584" lon="2.34998">
        <ele>117</ele>
        <time>2023-11-22T13:46:54Z</time>
      </trkpt>
      <trkpt lat="50.00584" lon="2.34998">
        <ele>116.9</ele>
        <time>2023-11-22T13:46:55Z</time>
      </trkpt>
      <trkpt lat="50.00585" lon="2.34998">
        <ele>116.9</ele>
        <time>2023-11-22T13:46:56Z</time>
      </trkpt>
      <trkpt lat="50.00586" lon="2.34998">
        <ele>116.9</ele>
        <time>2023-11-22T13:46:57Z</time>
      </trkpt>
      <trkpt lat="50.00587" lon="2.34998">
        <ele>116.9</ele>
        <time>2023-11-22T13:46:58Z</time>
      </trkpt>
      <trkpt lat="50.00588" lon="2.34998">
        <ele>116.9</ele>
        <time>2023-11-22T13:46:59Z</time>
      </trkpt>
      <trkpt lat="50.00588" lon="2.34997">
        <ele>116.8</ele>
        <time>2023-11-22T13:47:00Z</time>
      </trkpt>
      <trkpt lat="50.00589" lon="2.34996">
        <ele>116.8</ele>
        <time>2023-11-22T13:47:01Z</time>
      </trkpt>
      <trkpt lat="50.00589" lon="2.34995">
        <ele>116.8</ele>
        <time>2023-11-22T13:47:02Z</time>
      </trkpt>
      <trkpt lat="50.0059" lon="2.34995">
        <ele>116.8</ele>
        <time>2023-11-22T13:47:03Z</time>
      </trkpt>
      <trkpt lat="50.0059" lon="2.34995">
        <ele>116.8</ele>
        <time>2023-11-22T13:47:04Z</time>
      </trkpt>
      <trkpt lat="50.00591" lon="2.34995">
        <ele>116.8</ele>
        <time>2023-11-22T13:47:05Z</time>
      </trkpt>
      <trkpt lat="50.00591" lon="2.34995">
        <ele>116.7</ele>
        <time>2023-11-22T13:47:06Z</time>
      </trkpt>
      <trkpt lat="50.00591" lon="2.34995">
        <ele>116.7</ele>
        <time>2023-11-22T13:47:07Z</time>
      </trkpt>
      <trkpt lat="50.00592" lon="2.34996">
        <ele>116.7</ele>
        <time>2023-11-22T13:47:08Z</time>
      </trkpt>
      <trkpt lat="50.00592" lon="2.34997">
        <ele>116.7</ele>
        <time>2023-11-22T13:47:09Z</time>
      </trkpt>
      <trkpt lat="50.00593" lon="2.34997">
        <ele>116.7</ele>
        <time>2023-11-22T13:47:10Z</time>
      </trkpt>
      <trkpt lat="50.00593" lon="2.34998">
        <ele>116.7</ele>
        <time>2023-11-22T13:47:11Z</time>
      </trkpt>
      <trkpt lat="50.00594" lon="2.34998">
        <ele>116.7</ele>
        <time>2023-11-22T13:47:12Z</time>
      </trkpt>
      <trkpt lat="50.00595" lon="2.34999">
        <ele>116.6</ele>
        <time>2023-11-22T13:47:13Z</time>
      </trkpt>
      <trkpt lat="50.00596" lon="2.34999">
        <ele>116.6</ele>
        <time>2023-11-22T13:47:14Z</time>
      </trkpt>
      <trkpt lat="50.00597" lon="2.34999">
        <ele>116.6</ele>
        <time>2023-11-22T13:47:15Z</time>
      </trkpt>
      <trkpt lat="50.00598" lon="2.35">
        <ele>116.6</ele>
        <time>2023-11-22T13:47:16Z</time>
      </trkpt>
      <trkpt lat="50.00599" lon="2.35">
        <ele>116.5</ele>
        <time>2023-11-22T13:47:17Z</time>
      </trkpt>
      <trkpt lat="50.00599" lon="2.35001">
        <ele>116.5</ele>
        <time>2023-11-22T13:47:18Z</time>
      </trkpt>
      <trkpt lat="50.006" lon="2.35002">
        <ele>116.5</ele>
        <time>2023-11-22T13:47:19Z</time>
      </trkpt>
      <trkpt lat="50.00601" lon="2.35002">
        <ele>116.5</ele>
        <time>2023-11-22T13:47:20Z</time>
      </trkpt>
      <trkpt lat="50.00602" lon="2.35002">
        <ele>116.4</ele>
        <time>2023-11-22T13:47:21Z</time>
      </trkpt>
      <trkpt lat="50.00603" lon="2.35002">
        <ele>116.4</ele>
        <time>2023-11-22T13:47:22Z</time>
      </trkpt>
      <trkpt lat="50.00603" lon="2.35002">
        <ele>116.4</ele>
        <time>2023-11-22T13:47:23Z</time>
      </trkpt>
      <trkpt lat="50.00604" lon="2.35002">
        <ele>116.4</ele>
        <time>2023-11-22T13:47:24Z</time>
      </trkpt>
      <trkpt lat="50.00605" lon="2.35002">
        <ele>116.3</ele>
        <time>2023-11-22T13:47:25Z</time>
      </trkpt>
      <trkpt lat="50.00606" lon="2.35002">
        <ele>116.3</ele>
        <time>2023-11-22T13:47:26Z</time>
      </trkpt>
      <trkpt lat="50.00608" lon="2.35003">
        <ele>116.3</ele>
        <time>2023-11-22T13:47:27Z</time>
      </trkpt>
      <trkpt lat="50.00609" lon="2.35003">
        <ele>116.2</ele>
        <time>2023-11-22T13:47:28Z</time>
      </trkpt>
      <trkpt lat="50.0061" lon="2.35003">
        <ele>116.2</ele>
        <time>2023-11-22T13:47:29Z</time>
      </trkpt>
      <trkpt lat="50.00611" lon="2.35003">
        <ele>116.2</ele>
        <time>2023-11-22T13:47:30Z</time>
      </trkpt>
      <trkpt lat="50.00612" lon="2.35003">
        <ele>116.1</ele>
        <time>2023-11-22T13:47:31Z</time>
      </trkpt>
      <trkpt lat="50.00613" lon="2.35003">
        <ele>116.1</ele>
        <time>2023-11-22T13:47:32Z</time>
      </trkpt>
      <trkpt lat="50.00614" lon="2.35003">
        <ele>116.1</ele>
        <time>2023-11-22T13:47:33Z</time>
      </trkpt>
      <trkpt lat="50.00615" lon="2.35004">
        <ele>116.1</ele>
        <time>2023-11-22T13:47:34Z</time>
      </trkpt>
      <trkpt lat="50.00616" lon="2.35004">
        <ele>116</ele>
        <time>2023-11-22T13:47:35Z</time>
      </trkpt>
      <trkpt lat="50.00617" lon="2.35004">
        <ele>116</ele>
        <time>2023-11-22T13:47:36Z</time>
      </trkpt>
      <trkpt lat="50.00618" lon="2.35004">
        <ele>116</ele>
        <time>2023-11-22T13:47:37Z</time>
      </trkpt>
      <trkpt lat="50.00619" lon="2.35004">
        <ele>115.9</ele>
        <time>2023-11-22T13:47:38Z</time>
      </trkpt>
      <trkpt lat="50.0062" lon="2.35004">
        <ele>115.9</ele>
        <time>2023-11-22T13:47:39Z</time>
      </trkpt>
      <trkpt lat="50.00621" lon="2.35004">
        <ele>115.9</ele>
        <time>2023-11-22T13:47:40Z</time>
      </trkpt>
      <trkpt lat="50.00622" lon="2.35004">
        <ele>115.9</ele>
        <time>2023-11-22T13:47:41Z</time>
      </trkpt>
      <trkpt lat="50.00623" lon="2.35005">
        <ele>115.9</ele>
        <time>2023-11-22T13:47:42Z</time>
      </trkpt>
      <trkpt lat="50.00624" lon="2.35005">
        <ele>115.8</ele>
        <time>2023-11-22T13:47:43Z</time>
      </trkpt>
      <trkpt lat="50.00625" lon="2.35005">
        <ele>115.8</ele>
        <time>2023-11-22T13:47:44Z</time>
      </trkpt>
      <trkpt lat="50.00626" lon="2.35005">
        <ele>115.8</ele>
        <time>2023-11-22T13:47:45Z</time>
      </trkpt>
      <trkpt lat="50.00627" lon="2.35005">
        <ele>115.8</ele>
        <time>2023-11-22T13:47:46Z</time>
      </trkpt>
      <trkpt lat="50.00628" lon="2.35005">
        <ele>115.8</ele>
        <time>2023-11-22T13:47:47Z</time>
      </trkpt>
      <trkpt lat="50.00629" lon="2.35006">
        <ele>115.8</ele>
        <time>2023-11-22T13:47:48Z</time>
      </trkpt>
      <trkpt lat="50.00631" lon="2.35006">
        <ele>115.7</ele>
        <time>2023-11-22T13:47:49Z</time>
      </trkpt>
      <trkpt lat="50.00632" lon="2.35006">
        <ele>115.7</ele>
        <time>2023-11-22T13:47:50Z</time>
      </trkpt>
      <trkpt lat="50.00633" lon="2.35006">
        <ele>115.7</ele>
        <time>2023-11-22T13:47:51Z</time>
      </trkpt>
      <trkpt lat="50.00634" lon="2.35006">
        <ele>115.7</ele>
        <time>2023-11-22T13:47:52Z</time>
      </trkpt>
      <trkpt lat="50.00635" lon="2.35006">
        <ele>115.7</ele>
        <time>2023-11-22T13:47:53Z</time>
      </trkpt>
      <trkpt lat="50.00636" lon="2.35006">
        <ele>115.6</ele>
        <time>2023-11-22T13:47:54Z</time>
      </trkpt>
      <trkpt lat="50.00637" lon="2.35006">
        <ele>115.6</ele>
        <time>2023-11-22T13:47:55Z</time>
      </trkpt>
      <trkpt lat="50.00638" lon="2.35006">
        <ele>115.6</ele>
        <time>2023-11-22T13:47:56Z</time>
      </trkpt>
      <trkpt lat="50.00639" lon="2.35007">
        <ele>115.6</ele>
        <time>2023-11-22T13:47:57Z</time>
      </trkpt>
      <trkpt lat="50.0064" lon="2.35007">
        <ele>115.6</ele>
        <time>2023-11-22T13:47:58Z</time>
      </trkpt>
      <trkpt lat="50.00641" lon="2.35007">
        <ele>115.5</ele>
        <time>2023-11-22T13:47:59Z</time>
      </trkpt>
      <trkpt lat="50.00642" lon="2.35007">
        <ele>115.5</ele>
        <time>2023-11-22T13:48:00Z</time>
      </trkpt>
      <trkpt lat="50.00643" lon="2.35007">
        <ele>115.5</ele>
        <time>2023-11-22T13:48:01Z</time>
      </trkpt>
      <trkpt lat="50.00645" lon="2.35007">
        <ele>115.5</ele>
        <time>2023-11-22T13:48:02Z</time>
      </trkpt>
      <trkpt lat="50.00646" lon="2.35007">
        <ele>115.5</ele>
        <time>2023-11-22T13:48:03Z</time>
      </trkpt>
      <trkpt lat="50.00647" lon="2.35007">
        <ele>115.5</ele>
        <time>2023-11-22T13:48:04Z</time>
      </trkpt>
      <trkpt lat="50.00648" lon="2.35007">
        <ele>115.4</ele>
        <time>2023-11-22T13:48:05Z</time>
      </trkpt>
      <trkpt lat="50.00649" lon="2.35008">
        <ele>115.4</ele>
        <time>2023-11-22T13:48:06Z</time>
      </trkpt>
      <trkpt lat="50.0065" lon="2.35008">
        <ele>115.4</ele>
        <time>2023-11-22T13:48:07Z</time>
      </trkpt>
      <trkpt lat="50.00651" lon="2.35009">
        <ele>115.4</ele>
        <time>2023-11-22T13:48:08Z</time>
      </trkpt>
      <trkpt lat="50.00653" lon="2.35009">
        <ele>115.4</ele>
        <time>2023-11-22T13:48:09Z</time>
      </trkpt>
      <trkpt lat="50.00654" lon="2.35009">
        <ele>115.4</ele>
        <time>2023-11-22T13:48:10Z</time>
      </trkpt>
      <trkpt lat="50.00655" lon="2.35009">
        <ele>115.4</ele>
        <time>2023-11-22T13:48:11Z</time>
      </trkpt>
      <trkpt lat="50.00656" lon="2.3501">
        <ele>115.4</ele>
        <time>2023-11-22T13:48:12Z</time>
      </trkpt>
      <trkpt lat="50.00657" lon="2.3501">
        <ele>115.4</ele>
        <time>2023-11-22T13:48:13Z</time>
      </trkpt>
      <trkpt lat="50.00658" lon="2.3501">
        <ele>115.3</ele>
        <time>2023-11-22T13:48:14Z</time>
      </trkpt>
      <trkpt lat="50.00659" lon="2.3501">
        <ele>115.3</ele>
        <time>2023-11-22T13:48:15Z</time>
      </trkpt>
      <trkpt lat="50.0066" lon="2.3501">
        <ele>115.3</ele>
        <time>2023-11-22T13:48:16Z</time>
      </trkpt>
      <trkpt lat="50.00661" lon="2.35011">
        <ele>115.3</ele>
        <time>2023-11-22T13:48:17Z</time>
      </trkpt>
      <trkpt lat="50.00662" lon="2.35011">
        <ele>115.3</ele>
        <time>2023-11-22T13:48:18Z</time>
      </trkpt>
      <trkpt lat="50.00663" lon="2.35011">
        <ele>115.3</ele>
        <time>2023-11-22T13:48:19Z</time>
      </trkpt>
      <trkpt lat="50.00664" lon="2.35011">
        <ele>115.3</ele>
        <time>2023-11-22T13:48:20Z</time>
      </trkpt>
      <trkpt lat="50.00665" lon="2.35012">
        <ele>115.3</ele>
        <time>2023-11-22T13:48:21Z</time>
      </trkpt>
      <trkpt lat="50.00666" lon="2.35012">
        <ele>115.3</ele>
        <time>2023-11-22T13:48:22Z</time>
      </trkpt>
      <trkpt lat="50.00668" lon="2.35012">
        <ele>115.2</ele>
        <time>2023-11-22T13:48:23Z</time>
      </trkpt>
      <trkpt lat="50.00669" lon="2.35011">
        <ele>115.2</ele>
        <time>2023-11-22T13:48:24Z</time>
      </trkpt>
      <trkpt lat="50.0067" lon="2.35011">
        <ele>115.2</ele>
        <time>2023-11-22T13:48:25Z</time>
      </trkpt>
      <trkpt lat="50.00671" lon="2.35011">
        <ele>115.2</ele>
        <time>2023-11-22T13:48:26Z</time>
      </trkpt>
      <trkpt lat="50.00672" lon="2.3501">
        <ele>115.2</ele>
        <time>2023-11-22T13:48:27Z</time>
      </trkpt>
      <trkpt lat="50.00673" lon="2.3501">
        <ele>115.2</ele>
        <time>2023-11-22T13:48:28Z</time>
      </trkpt>
      <trkpt lat="50.00674" lon="2.3501">
        <ele>115.2</ele>
        <time>2023-11-22T13:48:29Z</time>
      </trkpt>
      <trkpt lat="50.00675" lon="2.35011">
        <ele>115.2</ele>
        <time>2023-11-22T13:48:30Z</time>
      </trkpt>
      <trkpt lat="50.00675" lon="2.35011">
        <ele>115.2</ele>
        <time>2023-11-22T13:48:31Z</time>
      </trkpt>
      <trkpt lat="50.00676" lon="2.35011">
        <ele>115.2</ele>
        <time>2023-11-22T13:48:32Z</time>
      </trkpt>
      <trkpt lat="50.00677" lon="2.35011">
        <ele>115.1</ele>
        <time>2023-11-22T13:48:33Z</time>
      </trkpt>
      <trkpt lat="50.00678" lon="2.35011">
        <ele>115.1</ele>
        <time>2023-11-22T13:48:34Z</time>
      </trkpt>
      <trkpt lat="50.00679" lon="2.35011">
        <ele>115.1</ele>
        <time>2023-11-22T13:48:35Z</time>
      </trkpt>
      <trkpt lat="50.0068" lon="2.35012">
        <ele>115.1</ele>
        <time>2023-11-22T13:48:36Z</time>
      </trkpt>
      <trkpt lat="50.00681" lon="2.35012">
        <ele>115.1</ele>
        <time>2023-11-22T13:48:37Z</time>
      </trkpt>
      <trkpt lat="50.00682" lon="2.35012">
        <ele>115.1</ele>
        <time>2023-11-22T13:48:38Z</time>
      </trkpt>
      <trkpt lat="50.00682" lon="2.35013">
        <ele>115.1</ele>
        <time>2023-11-22T13:48:39Z</time>
      </trkpt>
      <trkpt lat="50.00683" lon="2.35013">
        <ele>115.1</ele>
        <time>2023-11-22T13:48:40Z</time>
      </trkpt>
      <trkpt lat="50.00684" lon="2.35014">
        <ele>115.1</ele>
        <time>2023-11-22T13:48:41Z</time>
      </trkpt>
      <trkpt lat="50.00685" lon="2.35014">
        <ele>115.1</ele>
        <time>2023-11-22T13:48:42Z</time>
      </trkpt>
      <trkpt lat="50.00687" lon="2.35015">
        <ele>115.1</ele>
        <time>2023-11-22T13:48:43Z</time>
      </trkpt>
      <trkpt lat="50.00688" lon="2.35015">
        <ele>115.1</ele>
        <time>2023-11-22T13:48:44Z</time>
      </trkpt>
      <trkpt lat="50.00689" lon="2.35015">
        <ele>115.1</ele>
        <time>2023-11-22T13:48:45Z</time>
      </trkpt>
      <trkpt lat="50.0069" lon="2.35015">
        <ele>115.1</ele>
        <time>2023-11-22T13:48:46Z</time>
      </trkpt>
      <trkpt lat="50.00691" lon="2.35015">
        <ele>115.1</ele>
        <time>2023-11-22T13:48:47Z</time>
      </trkpt>
      <trkpt lat="50.00692" lon="2.35015">
        <ele>115.1</ele>
        <time>2023-11-22T13:48:48Z</time>
      </trkpt>
      <trkpt lat="50.00693" lon="2.35015">
        <ele>115.1</ele>
        <time>2023-11-22T13:48:49Z</time>
      </trkpt>
      <trkpt lat="50.00694" lon="2.35015">
        <ele>115.1</ele>
        <time>2023-11-22T13:48:50Z</time>
      </trkpt>
      <trkpt lat="50.00695" lon="2.35016">
        <ele>115.1</ele>
        <time>2023-11-22T13:48:51Z</time>
      </trkpt>
      <trkpt lat="50.00696" lon="2.35016">
        <ele>115.1</ele>
        <time>2023-11-22T13:48:52Z</time>
      </trkpt>
      <trkpt lat="50.00697" lon="2.35016">
        <ele>115.1</ele>
        <time>2023-11-22T13:48:53Z</time>
      </trkpt>
      <trkpt lat="50.00698" lon="2.35016">
        <ele>115.1</ele>
        <time>2023-11-22T13:48:54Z</time>
      </trkpt>
      <trkpt lat="50.00699" lon="2.35016">
        <ele>115.1</ele>
        <time>2023-11-22T13:48:55Z</time>
      </trkpt>
      <trkpt lat="50.007" lon="2.35016">
        <ele>115.1</ele>
        <time>2023-11-22T13:48:56Z</time>
      </trkpt>
      <trkpt lat="50.00701" lon="2.35017">
        <ele>115.1</ele>
        <time>2023-11-22T13:48:57Z</time>
      </trkpt>
      <trkpt lat="50.00702" lon="2.35017">
        <ele>115.1</ele>
        <time>2023-11-22T13:48:58Z</time>
      </trkpt>
      <trkpt lat="50.00703" lon="2.35018">
        <ele>115.1</ele>
        <time>2023-11-22T13:48:59Z</time>
      </trkpt>
      <trkpt lat="50.00704" lon="2.35018">
        <ele>115.1</ele>
        <time>2023-11-22T13:49:00Z</time>
      </trkpt>
      <trkpt lat="50.00705" lon="2.35019">
        <ele>115.1</ele>
        <time>2023-11-22T13:49:01Z</time>
      </trkpt>
      <trkpt lat="50.00706" lon="2.3502">
        <ele>115.1</ele>
        <time>2023-11-22T13:49:02Z</time>
      </trkpt>
      <trkpt lat="50.00707" lon="2.3502">
        <ele>115.1</ele>
        <time>2023-11-22T13:49:03Z</time>
      </trkpt>
      <trkpt lat="50.00708" lon="2.35021">
        <ele>115.1</ele>
        <time>2023-11-22T13:49:04Z</time>
      </trkpt>
      <trkpt lat="50.00709" lon="2.35021">
        <ele>115.1</ele>
        <time>2023-11-22T13:49:05Z</time>
      </trkpt>
      <trkpt lat="50.0071" lon="2.35021">
        <ele>115.1</ele>
        <time>2023-11-22T13:49:06Z</time>
      </trkpt>
      <trkpt lat="50.00711" lon="2.35021">
        <ele>115.1</ele>
        <time>2023-11-22T13:49:07Z</time>
      </trkpt>
      <trkpt lat="50.00712" lon="2.35022">
        <ele>115.1</ele>
        <time>2023-11-22T13:49:08Z</time>
      </trkpt>
      <trkpt lat="50.00713" lon="2.35022">
        <ele>115.1</ele>
        <time>2023-11-22T13:49:09Z</time>
      </trkpt>
      <trkpt lat="50.00714" lon="2.35022">
        <ele>115.1</ele>
        <time>2023-11-22T13:49:10Z</time>
      </trkpt>
      <trkpt lat="50.00715" lon="2.35022">
        <ele>115.1</ele>
        <time>2023-11-22T13:49:11Z</time>
      </trkpt>
      <trkpt lat="50.00716" lon="2.35022">
        <ele>115.1</ele>
        <time>2023-11-22T13:49:12Z</time>
      </trkpt>
      <trkpt lat="50.00717" lon="2.35023">
        <ele>115.1</ele>
        <time>2023-11-22T13:49:13Z</time>
      </trkpt>
      <trkpt lat="50.00718" lon="2.35023">
        <ele>115.1</ele>
        <time>2023-11-22T13:49:14Z</time>
      </trkpt>
      <trkpt lat="50.00719" lon="2.35023">
        <ele>115.1</ele>
        <time>2023-11-22T13:49:15Z</time>
      </trkpt>
      <trkpt lat="50.0072" lon="2.35023">
        <ele>115.1</ele>
        <time>2023-11-22T13:49:16Z</time>
      </trkpt>
      <trkpt lat="50.00721" lon="2.35024">
        <ele>115.1</ele>
        <time>2023-11-22T13:49:17Z</time>
      </trkpt>
      <trkpt lat="50.00722" lon="2.35024">
        <ele>115.1</ele>
        <time>2023-11-22T13:49:18Z</time>
      </trkpt>
      <trkpt lat="50.00723" lon="2.35024">
        <ele>115.1</ele>
        <time>2023-11-22T13:49:19Z</time>
      </trkpt>
      <trkpt lat="50.00724" lon="2.35025">
        <ele>115.1</ele>
        <time>2023-11-22T13:49:20Z</time>
      </trkpt>
      <trkpt lat="50.00725" lon="2.35025">
        <ele>115.1</ele>
        <time>2023-11-22T13:49:21Z</time>
      </trkpt>
      <trkpt lat="50.00726" lon="2.35025">
        <ele>115.1</ele>
        <time>2023-11-22T13:49:22Z</time>
      </trkpt>
      <trkpt lat="50.00727" lon="2.35024">
        <ele>115.1</ele>
        <time>2023-11-22T13:49:23Z</time>
      </trkpt>
      <trkpt lat="50.00728" lon="2.35024">
        <ele>115.1</ele>
        <time>2023-11-22T13:49:24Z</time>
      </trkpt>
      <trkpt lat="50.00728" lon="2.35024">
        <ele>115.1</ele>
        <time>2023-11-22T13:49:25Z</time>
      </trkpt>
      <trkpt lat="50.00729" lon="2.35024">
        <ele>115.1</ele>
        <time>2023-11-22T13:49:26Z</time>
      </trkpt>
      <trkpt lat="50.0073" lon="2.35024">
        <ele>115.1</ele>
        <time>2023-11-22T13:49:27Z</time>
      </trkpt>
      <trkpt lat="50.00731" lon="2.35024">
        <ele>115.1</ele>
        <time>2023-11-22T13:49:28Z</time>
      </trkpt>
      <trkpt lat="50.00732" lon="2.35024">
        <ele>115.1</ele>
        <time>2023-11-22T13:49:29Z</time>
      </trkpt>
      <trkpt lat="50.00732" lon="2.35024">
        <ele>115.1</ele>
        <time>2023-11-22T13:49:30Z</time>
      </trkpt>
      <trkpt lat="50.00733" lon="2.35024">
        <ele>115.1</ele>
        <time>2023-11-22T13:49:31Z</time>
      </trkpt>
      <trkpt lat="50.00734" lon="2.35024">
        <ele>115.1</ele>
        <time>2023-11-22T13:49:32Z</time>
      </trkpt>
      <trkpt lat="50.00735" lon="2.35024">
        <ele>115.1</ele>
        <time>2023-11-22T13:49:33Z</time>
      </trkpt>
      <trkpt lat="50.00736" lon="2.35024">
        <ele>115.1</ele>
        <time>2023-11-22T13:49:34Z</time>
      </trkpt>
      <trkpt lat="50.00737" lon="2.35024">
        <ele>115.1</ele>
        <time>2023-11-22T13:49:35Z</time>
      </trkpt>
      <trkpt lat="50.00738" lon="2.35024">
        <ele>115.1</ele>
        <time>2023-11-22T13:49:36Z</time>
      </trkpt>
      <trkpt lat="50.00739" lon="2.35023">
        <ele>115.1</ele>
        <time>2023-11-22T13:49:37Z</time>
      </trkpt>
      <trkpt lat="50.0074" lon="2.35023">
        <ele>115.1</ele>
        <time>2023-11-22T13:49:38Z</time>
      </trkpt>
      <trkpt lat="50.00741" lon="2.35023">
        <ele>115</ele>
        <time>2023-11-22T13:49:39Z</time>
      </trkpt>
      <trkpt lat="50.00742" lon="2.35023">
        <ele>115</ele>
        <time>2023-11-22T13:49:40Z</time>
      </trkpt>
      <trkpt lat="50.00743" lon="2.35023">
        <ele>115</ele>
        <time>2023-11-22T13:49:41Z</time>
      </trkpt>
      <trkpt lat="50.00744" lon="2.35023">
        <ele>115</ele>
        <time>2023-11-22T13:49:42Z</time>
      </trkpt>
      <trkpt lat="50.00745" lon="2.35023">
        <ele>115</ele>
        <time>2023-11-22T13:49:43Z</time>
      </trkpt>
      <trkpt lat="50.00746" lon="2.35024">
        <ele>115</ele>
        <time>2023-11-22T13:49:44Z</time>
      </trkpt>
      <trkpt lat="50.00747" lon="2.35024">
        <ele>115</ele>
        <time>2023-11-22T13:49:45Z</time>
      </trkpt>
      <trkpt lat="50.00749" lon="2.35024">
        <ele>115</ele>
        <time>2023-11-22T13:49:46Z</time>
      </trkpt>
      <trkpt lat="50.0075" lon="2.35024">
        <ele>115</ele>
        <time>2023-11-22T13:49:47Z</time>
      </trkpt>
      <trkpt lat="50.00751" lon="2.35024">
        <ele>115</ele>
        <time>2023-11-22T13:49:48Z</time>
      </trkpt>
      <trkpt lat="50.00752" lon="2.35024">
        <ele>115</ele>
        <time>2023-11-22T13:49:49Z</time>
      </trkpt>
      <trkpt lat="50.00753" lon="2.35024">
        <ele>115</ele>
        <time>2023-11-22T13:49:50Z</time>
      </trkpt>
      <trkpt lat="50.00754" lon="2.35024">
        <ele>115</ele>
        <time>2023-11-22T13:49:51Z</time>
      </trkpt>
      <trkpt lat="50.00755" lon="2.35024">
        <ele>115</ele>
        <time>2023-11-22T13:49:52Z</time>
      </trkpt>
      <trkpt lat="50.00756" lon="2.35024">
        <ele>115</ele>
        <time>2023-11-22T13:49:53Z</time>
      </trkpt>
      <trkpt lat="50.00757" lon="2.35025">
        <ele>115</ele>
        <time>2023-11-22T13:49:54Z</time>
      </trkpt>
      <trkpt lat="50.00758" lon="2.35025">
        <ele>115</ele>
        <time>2023-11-22T13:49:55Z</time>
      </trkpt>
      <trkpt lat="50.00759" lon="2.35025">
        <ele>115</ele>
        <time>2023-11-22T13:49:56Z</time>
      </trkpt>
      <trkpt lat="50.0076" lon="2.35025">
        <ele>115</ele>
        <time>2023-11-22T13:49:57Z</time>
      </trkpt>
      <trkpt lat="50.00761" lon="2.35025">
        <ele>115</ele>
        <time>2023-11-22T13:49:58Z</time>
      </trkpt>
      <trkpt lat="50.00762" lon="2.35025">
        <ele>115</ele>
        <time>2023-11-22T13:49:59Z</time>
      </trkpt>
      <trkpt lat="50.00762" lon="2.35025">
        <ele>115</ele>
        <time>2023-11-22T13:50:00Z</time>
      </trkpt>
      <trkpt lat="50.00763" lon="2.35025">
        <ele>115</ele>
        <time>2023-11-22T13:50:01Z</time>
      </trkpt>
      <trkpt lat="50.00764" lon="2.35025">
        <ele>115</ele>
        <time>2023-11-22T13:50:02Z</time>
      </trkpt>
      <trkpt lat="50.00764" lon="2.35025">
        <ele>115</ele>
        <time>2023-11-22T13:50:03Z</time>
      </trkpt>
      <trkpt lat="50.00765" lon="2.35025">
        <ele>115</ele>
        <time>2023-11-22T13:50:04Z</time>
      </trkpt>
      <trkpt lat="50.00766" lon="2.35025">
        <ele>115</ele>
        <time>2023-11-22T13:50:05Z</time>
      </trkpt>
      <trkpt lat="50.00766" lon="2.35025">
        <ele>115</ele>
        <time>2023-11-22T13:50:06Z</time>
      </trkpt>
      <trkpt lat="50.00767" lon="2.35025">
        <ele>115</ele>
        <time>2023-11-22T13:50:07Z</time>
      </trkpt>
      <trkpt lat="50.00768" lon="2.35026">
        <ele>115</ele>
        <time>2023-11-22T13:50:08Z</time>
      </trkpt>
      <trkpt lat="50.00769" lon="2.35026">
        <ele>115</ele>
        <time>2023-11-22T13:50:09Z</time>
      </trkpt>
      <trkpt lat="50.0077" lon="2.35026">
        <ele>115</ele>
        <time>2023-11-22T13:50:10Z</time>
      </trkpt>
      <trkpt lat="50.00771" lon="2.35027">
        <ele>115</ele>
        <time>2023-11-22T13:50:11Z</time>
      </trkpt>
      <trkpt lat="50.00772" lon="2.35027">
        <ele>115</ele>
        <time>2023-11-22T13:50:12Z</time>
      </trkpt>
      <trkpt lat="50.00773" lon="2.35027">
        <ele>115</ele>
        <time>2023-11-22T13:50:13Z</time>
      </trkpt>
      <trkpt lat="50.00773" lon="2.35027">
        <ele>115.1</ele>
        <time>2023-11-22T13:50:14Z</time>
      </trkpt>
      <trkpt lat="50.00774" lon="2.35028">
        <ele>115.1</ele>
        <time>2023-11-22T13:50:15Z</time>
      </trkpt>
      <trkpt lat="50.00775" lon="2.35028">
        <ele>115.1</ele>
        <time>2023-11-22T13:50:16Z</time>
      </trkpt>
      <trkpt lat="50.00776" lon="2.35028">
        <ele>115.1</ele>
        <time>2023-11-22T13:50:17Z</time>
      </trkpt>
      <trkpt lat="50.00776" lon="2.35028">
        <ele>115.1</ele>
        <time>2023-11-22T13:50:18Z</time>
      </trkpt>
      <trkpt lat="50.00777" lon="2.35028">
        <ele>115.1</ele>
        <time>2023-11-22T13:50:19Z</time>
      </trkpt>
      <trkpt lat="50.00778" lon="2.35028">
        <ele>115.1</ele>
        <time>2023-11-22T13:50:20Z</time>
      </trkpt>
      <trkpt lat="50.00778" lon="2.35028">
        <ele>115.1</ele>
        <time>2023-11-22T13:50:21Z</time>
      </trkpt>
      <trkpt lat="50.00779" lon="2.35028">
        <ele>115.1</ele>
        <time>2023-11-22T13:50:22Z</time>
      </trkpt>
      <trkpt lat="50.0078" lon="2.35028">
        <ele>115.1</ele>
        <time>2023-11-22T13:50:23Z</time>
      </trkpt>
      <trkpt lat="50.00781" lon="2.35028">
        <ele>115.1</ele>
        <time>2023-11-22T13:50:24Z</time>
      </trkpt>
      <trkpt lat="50.00781" lon="2.35028">
        <ele>115.1</ele>
        <time>2023-11-22T13:50:25Z</time>
      </trkpt>
      <trkpt lat="50.00782" lon="2.35028">
        <ele>115.1</ele>
        <time>2023-11-22T13:50:26Z</time>
      </trkpt>
      <trkpt lat="50.00783" lon="2.35028">
        <ele>115.1</ele>
        <time>2023-11-22T13:50:27Z</time>
      </trkpt>
      <trkpt lat="50.00784" lon="2.35028">
        <ele>115.1</ele>
        <time>2023-11-22T13:50:28Z</time>
      </trkpt>
      <trkpt lat="50.00785" lon="2.35028">
        <ele>115.1</ele>
        <time>2023-11-22T13:50:29Z</time>
      </trkpt>
      <trkpt lat="50.00786" lon="2.35028">
        <ele>115.1</ele>
        <time>2023-11-22T13:50:30Z</time>
      </trkpt>
      <trkpt lat="50.00786" lon="2.35028">
        <ele>115.1</ele>
        <time>2023-11-22T13:50:31Z</time>
      </trkpt>
      <trkpt lat="50.00787" lon="2.35029">
        <ele>115.1</ele>
        <time>2023-11-22T13:50:32Z</time>
      </trkpt>
      <trkpt lat="50.00788" lon="2.35029">
        <ele>115.1</ele>
        <time>2023-11-22T13:50:33Z</time>
      </trkpt>
      <trkpt lat="50.00789" lon="2.35029">
        <ele>115.1</ele>
        <time>2023-11-22T13:50:34Z</time>
      </trkpt>
      <trkpt lat="50.0079" lon="2.35029">
        <ele>115.2</ele>
        <time>2023-11-22T13:50:35Z</time>
      </trkpt>
      <trkpt lat="50.00791" lon="2.35029">
        <ele>115.2</ele>
        <time>2023-11-22T13:50:36Z</time>
      </trkpt>
      <trkpt lat="50.00792" lon="2.35029">
        <ele>115.2</ele>
        <time>2023-11-22T13:50:37Z</time>
      </trkpt>
      <trkpt lat="50.00793" lon="2.35029">
        <ele>115.2</ele>
        <time>2023-11-22T13:50:38Z</time>
      </trkpt>
      <trkpt lat="50.00794" lon="2.35029">
        <ele>115.2</ele>
        <time>2023-11-22T13:50:39Z</time>
      </trkpt>
      <trkpt lat="50.00795" lon="2.35029">
        <ele>115.2</ele>
        <time>2023-11-22T13:50:40Z</time>
      </trkpt>
      <trkpt lat="50.00796" lon="2.3503">
        <ele>115.2</ele>
        <time>2023-11-22T13:50:41Z</time>
      </trkpt>
      <trkpt lat="50.00797" lon="2.3503">
        <ele>115.2</ele>
        <time>2023-11-22T13:50:42Z</time>
      </trkpt>
      <trkpt lat="50.00798" lon="2.3503">
        <ele>115.2</ele>
        <time>2023-11-22T13:50:43Z</time>
      </trkpt>
      <trkpt lat="50.008" lon="2.35031">
        <ele>115.2</ele>
        <time>2023-11-22T13:50:44Z</time>
      </trkpt>
      <trkpt lat="50.00801" lon="2.35031">
        <ele>115.2</ele>
        <time>2023-11-22T13:50:45Z</time>
      </trkpt>
      <trkpt lat="50.00802" lon="2.35031">
        <ele>115.2</ele>
        <time>2023-11-22T13:50:46Z</time>
      </trkpt>
      <trkpt lat="50.00803" lon="2.35032">
        <ele>115.2</ele>
        <time>2023-11-22T13:50:47Z</time>
      </trkpt>
      <trkpt lat="50.00804" lon="2.35032">
        <ele>115.2</ele>
        <time>2023-11-22T13:50:48Z</time>
      </trkpt>
      <trkpt lat="50.00805" lon="2.35032">
        <ele>115.3</ele>
        <time>2023-11-22T13:50:49Z</time>
      </trkpt>
      <trkpt lat="50.00806" lon="2.35032">
        <ele>115.3</ele>
        <time>2023-11-22T13:50:50Z</time>
      </trkpt>
      <trkpt lat="50.00807" lon="2.35032">
        <ele>115.3</ele>
        <time>2023-11-22T13:50:51Z</time>
      </trkpt>
      <trkpt lat="50.00808" lon="2.35033">
        <ele>115.3</ele>
        <time>2023-11-22T13:50:52Z</time>
      </trkpt>
      <trkpt lat="50.00809" lon="2.35033">
        <ele>115.3</ele>
        <time>2023-11-22T13:50:53Z</time>
      </trkpt>
      <trkpt lat="50.0081" lon="2.35033">
        <ele>115.3</ele>
        <time>2023-11-22T13:50:54Z</time>
      </trkpt>
      <trkpt lat="50.00811" lon="2.35033">
        <ele>115.3</ele>
        <time>2023-11-22T13:50:55Z</time>
      </trkpt>
      <trkpt lat="50.00812" lon="2.35033">
        <ele>115.3</ele>
        <time>2023-11-22T13:50:56Z</time>
      </trkpt>
      <trkpt lat="50.00813" lon="2.35034">
        <ele>115.3</ele>
        <time>2023-11-22T13:50:57Z</time>
      </trkpt>
      <trkpt lat="50.00814" lon="2.35034">
        <ele>115.3</ele>
        <time>2023-11-22T13:50:58Z</time>
      </trkpt>
      <trkpt lat="50.00815" lon="2.35035">
        <ele>115.3</ele>
        <time>2023-11-22T13:50:59Z</time>
      </trkpt>
      <trkpt lat="50.00816" lon="2.35035">
        <ele>115.4</ele>
        <time>2023-11-22T13:51:00Z</time>
      </trkpt>
      <trkpt lat="50.00817" lon="2.35035">
        <ele>115.4</ele>
        <time>2023-11-22T13:51:01Z</time>
      </trkpt>
      <trkpt lat="50.00818" lon="2.35035">
        <ele>115.4</ele>
        <time>2023-11-22T13:51:02Z</time>
      </trkpt>
      <trkpt lat="50.00818" lon="2.35036">
        <ele>115.4</ele>
        <time>2023-11-22T13:51:03Z</time>
      </trkpt>
      <trkpt lat="50.00819" lon="2.35036">
        <ele>115.4</ele>
        <time>2023-11-22T13:51:04Z</time>
      </trkpt>
      <trkpt lat="50.0082" lon="2.35036">
        <ele>115.4</ele>
        <time>2023-11-22T13:51:05Z</time>
      </trkpt>
      <trkpt lat="50.00821" lon="2.35036">
        <ele>115.4</ele>
        <time>2023-11-22T13:51:06Z</time>
      </trkpt>
      <trkpt lat="50.00822" lon="2.35036">
        <ele>115.4</ele>
        <time>2023-11-22T13:51:07Z</time>
      </trkpt>
      <trkpt lat="50.00823" lon="2.35036">
        <ele>115.4</ele>
        <time>2023-11-22T13:51:08Z</time>
      </trkpt>
      <trkpt lat="50.00824" lon="2.35036">
        <ele>115.4</ele>
        <time>2023-11-22T13:51:09Z</time>
      </trkpt>
      <trkpt lat="50.00825" lon="2.35036">
        <ele>115.4</ele>
        <time>2023-11-22T13:51:10Z</time>
      </trkpt>
      <trkpt lat="50.00826" lon="2.35037">
        <ele>115.4</ele>
        <time>2023-11-22T13:51:11Z</time>
      </trkpt>
      <trkpt lat="50.00827" lon="2.35037">
        <ele>115.4</ele>
        <time>2023-11-22T13:51:12Z</time>
      </trkpt>
      <trkpt lat="50.00828" lon="2.35037">
        <ele>115.4</ele>
        <time>2023-11-22T13:51:13Z</time>
      </trkpt>
      <trkpt lat="50.00829" lon="2.35037">
        <ele>115.4</ele>
        <time>2023-11-22T13:51:14Z</time>
      </trkpt>
      <trkpt lat="50.0083" lon="2.35037">
        <ele>115.4</ele>
        <time>2023-11-22T13:51:15Z</time>
      </trkpt>
      <trkpt lat="50.00831" lon="2.35037">
        <ele>115.4</ele>
        <time>2023-11-22T13:51:16Z</time>
      </trkpt>
      <trkpt lat="50.00832" lon="2.35037">
        <ele>115.4</ele>
        <time>2023-11-22T13:51:17Z</time>
      </trkpt>
      <trkpt lat="50.00833" lon="2.35037">
        <ele>115.5</ele>
        <time>2023-11-22T13:51:18Z</time>
      </trkpt>
      <trkpt lat="50.00834" lon="2.35037">
        <ele>115.5</ele>
        <time>2023-11-22T13:51:19Z</time>
      </trkpt>
      <trkpt lat="50.00835" lon="2.35037">
        <ele>115.5</ele>
        <time>2023-11-22T13:51:20Z</time>
      </trkpt>
      <trkpt lat="50.00836" lon="2.35037">
        <ele>115.5</ele>
        <time>2023-11-22T13:51:21Z</time>
      </trkpt>
      <trkpt lat="50.00837" lon="2.35037">
        <ele>115.5</ele>
        <time>2023-11-22T13:51:22Z</time>
      </trkpt>
      <trkpt lat="50.00838" lon="2.35037">
        <ele>115.5</ele>
        <time>2023-11-22T13:51:23Z</time>
      </trkpt>
      <trkpt lat="50.00839" lon="2.35038">
        <ele>115.5</ele>
        <time>2023-11-22T13:51:24Z</time>
      </trkpt>
      <trkpt lat="50.0084" lon="2.35038">
        <ele>115.5</ele>
        <time>2023-11-22T13:51:25Z</time>
      </trkpt>
      <trkpt lat="50.00841" lon="2.35038">
        <ele>115.5</ele>
        <time>2023-11-22T13:51:26Z</time>
      </trkpt>
      <trkpt lat="50.00842" lon="2.35038">
        <ele>115.5</ele>
        <time>2023-11-22T13:51:27Z</time>
      </trkpt>
      <trkpt lat="50.00843" lon="2.35038">
        <ele>115.5</ele>
        <time>2023-11-22T13:51:28Z</time>
      </trkpt>
      <trkpt lat="50.00844" lon="2.35038">
        <ele>115.5</ele>
        <time>2023-11-22T13:51:29Z</time>
      </trkpt>
      <trkpt lat="50.00845" lon="2.35038">
        <ele>115.5</ele>
        <time>2023-11-22T13:51:30Z</time>
      </trkpt>
      <trkpt lat="50.00845" lon="2.35038">
        <ele>115.5</ele>
        <time>2023-11-22T13:51:31Z</time>
      </trkpt>
      <trkpt lat="50.00846" lon="2.35038">
        <ele>115.4</ele>
        <time>2023-11-22T13:51:32Z</time>
      </trkpt>
      <trkpt lat="50.00847" lon="2.35038">
        <ele>115.4</ele>
        <time>2023-11-22T13:51:33Z</time>
      </trkpt>
      <trkpt lat="50.00849" lon="2.35038">
        <ele>115.4</ele>
        <time>2023-11-22T13:51:34Z</time>
      </trkpt>
      <trkpt lat="50.0085" lon="2.35038">
        <ele>115.4</ele>
        <time>2023-11-22T13:51:35Z</time>
      </trkpt>
      <trkpt lat="50.00851" lon="2.35038">
        <ele>115.4</ele>
        <time>2023-11-22T13:51:36Z</time>
      </trkpt>
      <trkpt lat="50.00852" lon="2.35037">
        <ele>115.4</ele>
        <time>2023-11-22T13:51:37Z</time>
      </trkpt>
      <trkpt lat="50.00853" lon="2.35037">
        <ele>115.4</ele>
        <time>2023-11-22T13:51:38Z</time>
      </trkpt>
      <trkpt lat="50.00854" lon="2.35037">
        <ele>115.4</ele>
        <time>2023-11-22T13:51:39Z</time>
      </trkpt>
      <trkpt lat="50.00856" lon="2.35037">
        <ele>115.4</ele>
        <time>2023-11-22T13:51:40Z</time>
      </trkpt>
      <trkpt lat="50.00857" lon="2.35037">
        <ele>115.4</ele>
        <time>2023-11-22T13:51:41Z</time>
      </trkpt>
      <trkpt lat="50.00857" lon="2.35037">
        <ele>115.4</ele>
        <time>2023-11-22T13:51:42Z</time>
      </trkpt>
      <trkpt lat="50.00859" lon="2.35036">
        <ele>115.4</ele>
        <time>2023-11-22T13:51:43Z</time>
      </trkpt>
      <trkpt lat="50.0086" lon="2.35036">
        <ele>115.4</ele>
        <time>2023-11-22T13:51:44Z</time>
      </trkpt>
      <trkpt lat="50.00861" lon="2.35036">
        <ele>115.4</ele>
        <time>2023-11-22T13:51:45Z</time>
      </trkpt>
      <trkpt lat="50.00863" lon="2.35037">
        <ele>115.4</ele>
        <time>2023-11-22T13:51:46Z</time>
      </trkpt>
      <trkpt lat="50.00864" lon="2.35037">
        <ele>115.4</ele>
        <time>2023-11-22T13:51:47Z</time>
      </trkpt>
      <trkpt lat="50.00865" lon="2.35037">
        <ele>115.4</ele>
        <time>2023-11-22T13:51:48Z</time>
      </trkpt>
      <trkpt lat="50.00867" lon="2.35037">
        <ele>115.4</ele>
        <time>2023-11-22T13:51:49Z</time>
      </trkpt>
      <trkpt lat="50.00868" lon="2.35037">
        <ele>115.4</ele>
        <time>2023-11-22T13:51:50Z</time>
      </trkpt>
      <trkpt lat="50.00869" lon="2.35038">
        <ele>115.4</ele>
        <time>2023-11-22T13:51:51Z</time>
      </trkpt>
      <trkpt lat="50.00871" lon="2.35038">
        <ele>115.4</ele>
        <time>2023-11-22T13:51:52Z</time>
      </trkpt>
      <trkpt lat="50.00871" lon="2.35038">
        <ele>115.4</ele>
        <time>2023-11-22T13:51:53Z</time>
      </trkpt>
      <trkpt lat="50.00872" lon="2.35038">
        <ele>115.4</ele>
        <time>2023-11-22T13:51:54Z</time>
      </trkpt>
      <trkpt lat="50.00873" lon="2.35038">
        <ele>115.4</ele>
        <time>2023-11-22T13:51:55Z</time>
      </trkpt>
      <trkpt lat="50.00874" lon="2.35039">
        <ele>115.4</ele>
        <time>2023-11-22T13:51:56Z</time>
      </trkpt>
      <trkpt lat="50.00875" lon="2.35039">
        <ele>115.4</ele>
        <time>2023-11-22T13:51:57Z</time>
      </trkpt>
      <trkpt lat="50.00876" lon="2.35039">
        <ele>115.4</ele>
        <time>2023-11-22T13:51:58Z</time>
      </trkpt>
      <trkpt lat="50.00877" lon="2.35039">
        <ele>115.4</ele>
        <time>2023-11-22T13:51:59Z</time>
      </trkpt>
      <trkpt lat="50.00878" lon="2.35039">
        <ele>115.4</ele>
        <time>2023-11-22T13:52:00Z</time>
      </trkpt>
      <trkpt lat="50.00879" lon="2.35039">
        <ele>115.4</ele>
        <time>2023-11-22T13:52:01Z</time>
      </trkpt>
      <trkpt lat="50.00881" lon="2.35039">
        <ele>115.4</ele>
        <time>2023-11-22T13:52:02Z</time>
      </trkpt>
      <trkpt lat="50.00882" lon="2.35039">
        <ele>115.4</ele>
        <time>2023-11-22T13:52:03Z</time>
      </trkpt>
      <trkpt lat="50.00883" lon="2.3504">
        <ele>115.4</ele>
        <time>2023-11-22T13:52:04Z</time>
      </trkpt>
      <trkpt lat="50.00884" lon="2.3504">
        <ele>115.4</ele>
        <time>2023-11-22T13:52:05Z</time>
      </trkpt>
      <trkpt lat="50.00885" lon="2.3504">
        <ele>115.4</ele>
        <time>2023-11-22T13:52:06Z</time>
      </trkpt>
      <trkpt lat="50.00886" lon="2.3504">
        <ele>115.4</ele>
        <time>2023-11-22T13:52:07Z</time>
      </trkpt>
      <trkpt lat="50.00887" lon="2.35041">
        <ele>115.4</ele>
        <time>2023-11-22T13:52:08Z</time>
      </trkpt>
      <trkpt lat="50.00889" lon="2.35041">
        <ele>115.4</ele>
        <time>2023-11-22T13:52:09Z</time>
      </trkpt>
      <trkpt lat="50.00891" lon="2.35041">
        <ele>115.4</ele>
        <time>2023-11-22T13:52:10Z</time>
      </trkpt>
      <trkpt lat="50.00892" lon="2.35041">
        <ele>115.4</ele>
        <time>2023-11-22T13:52:11Z</time>
      </trkpt>
      <trkpt lat="50.00892" lon="2.35041">
        <ele>115.4</ele>
        <time>2023-11-22T13:52:12Z</time>
      </trkpt>
      <trkpt lat="50.00894" lon="2.35042">
        <ele>115.4</ele>
        <time>2023-11-22T13:52:13Z</time>
      </trkpt>
      <trkpt lat="50.00895" lon="2.35042">
        <ele>115.4</ele>
        <time>2023-11-22T13:52:14Z</time>
      </trkpt>
      <trkpt lat="50.00897" lon="2.35042">
        <ele>115.4</ele>
        <time>2023-11-22T13:52:15Z</time>
      </trkpt>
      <trkpt lat="50.00898" lon="2.35042">
        <ele>115.4</ele>
        <time>2023-11-22T13:52:16Z</time>
      </trkpt>
      <trkpt lat="50.00899" lon="2.35042">
        <ele>115.4</ele>
        <time>2023-11-22T13:52:17Z</time>
      </trkpt>
      <trkpt lat="50.009" lon="2.35043">
        <ele>115.4</ele>
        <time>2023-11-22T13:52:18Z</time>
      </trkpt>
      <trkpt lat="50.00901" lon="2.35043">
        <ele>115.4</ele>
        <time>2023-11-22T13:52:19Z</time>
      </trkpt>
      <trkpt lat="50.00902" lon="2.35043">
        <ele>115.4</ele>
        <time>2023-11-22T13:52:20Z</time>
      </trkpt>
      <trkpt lat="50.00904" lon="2.35043">
        <ele>115.4</ele>
        <time>2023-11-22T13:52:21Z</time>
      </trkpt>
      <trkpt lat="50.00905" lon="2.35043">
        <ele>115.4</ele>
        <time>2023-11-22T13:52:22Z</time>
      </trkpt>
      <trkpt lat="50.00906" lon="2.35044">
        <ele>115.4</ele>
        <time>2023-11-22T13:52:23Z</time>
      </trkpt>
      <trkpt lat="50.00908" lon="2.35044">
        <ele>115.4</ele>
        <time>2023-11-22T13:52:24Z</time>
      </trkpt>
      <trkpt lat="50.00909" lon="2.35044">
        <ele>115.4</ele>
        <time>2023-11-22T13:52:25Z</time>
      </trkpt>
      <trkpt lat="50.0091" lon="2.35044">
        <ele>115.4</ele>
        <time>2023-11-22T13:52:26Z</time>
      </trkpt>
      <trkpt lat="50.00911" lon="2.35044">
        <ele>115.4</ele>
        <time>2023-11-22T13:52:27Z</time>
      </trkpt>
      <trkpt lat="50.00912" lon="2.35044">
        <ele>115.5</ele>
        <time>2023-11-22T13:52:28Z</time>
      </trkpt>
      <trkpt lat="50.00913" lon="2.35045">
        <ele>115.5</ele>
        <time>2023-11-22T13:52:29Z</time>
      </trkpt>
      <trkpt lat="50.00914" lon="2.35045">
        <ele>115.5</ele>
        <time>2023-11-22T13:52:30Z</time>
      </trkpt>
      <trkpt lat="50.00915" lon="2.35045">
        <ele>115.5</ele>
        <time>2023-11-22T13:52:31Z</time>
      </trkpt>
      <trkpt lat="50.00916" lon="2.35045">
        <ele>115.5</ele>
        <time>2023-11-22T13:52:32Z</time>
      </trkpt>
      <trkpt lat="50.00917" lon="2.35045">
        <ele>115.5</ele>
        <time>2023-11-22T13:52:33Z</time>
      </trkpt>
      <trkpt lat="50.00918" lon="2.35045">
        <ele>115.5</ele>
        <time>2023-11-22T13:52:34Z</time>
      </trkpt>
      <trkpt lat="50.00919" lon="2.35046">
        <ele>115.5</ele>
        <time>2023-11-22T13:52:35Z</time>
      </trkpt>
      <trkpt lat="50.0092" lon="2.35046">
        <ele>115.5</ele>
        <time>2023-11-22T13:52:36Z</time>
      </trkpt>
      <trkpt lat="50.00921" lon="2.35046">
        <ele>115.5</ele>
        <time>2023-11-22T13:52:37Z</time>
      </trkpt>
      <trkpt lat="50.00922" lon="2.35047">
        <ele>115.6</ele>
        <time>2023-11-22T13:52:38Z</time>
      </trkpt>
      <trkpt lat="50.00923" lon="2.35047">
        <ele>115.6</ele>
        <time>2023-11-22T13:52:39Z</time>
      </trkpt>
      <trkpt lat="50.00924" lon="2.35047">
        <ele>115.6</ele>
        <time>2023-11-22T13:52:40Z</time>
      </trkpt>
      <trkpt lat="50.00925" lon="2.35048">
        <ele>115.6</ele>
        <time>2023-11-22T13:52:41Z</time>
      </trkpt>
      <trkpt lat="50.00926" lon="2.35048">
        <ele>115.6</ele>
        <time>2023-11-22T13:52:42Z</time>
      </trkpt>
      <trkpt lat="50.00927" lon="2.35048">
        <ele>115.6</ele>
        <time>2023-11-22T13:52:43Z</time>
      </trkpt>
      <trkpt lat="50.00928" lon="2.35048">
        <ele>115.6</ele>
        <time>2023-11-22T13:52:44Z</time>
      </trkpt>
      <trkpt lat="50.00929" lon="2.35048">
        <ele>115.7</ele>
        <time>2023-11-22T13:52:45Z</time>
      </trkpt>
      <trkpt lat="50.0093" lon="2.35048">
        <ele>115.7</ele>
        <time>2023-11-22T13:52:46Z</time>
      </trkpt>
      <trkpt lat="50.00931" lon="2.35048">
        <ele>115.7</ele>
        <time>2023-11-22T13:52:47Z</time>
      </trkpt>
      <trkpt lat="50.00932" lon="2.35048">
        <ele>115.7</ele>
        <time>2023-11-22T13:52:48Z</time>
      </trkpt>
      <trkpt lat="50.00933" lon="2.35048">
        <ele>115.7</ele>
        <time>2023-11-22T13:52:49Z</time>
      </trkpt>
      <trkpt lat="50.00934" lon="2.35048">
        <ele>115.7</ele>
        <time>2023-11-22T13:52:50Z</time>
      </trkpt>
      <trkpt lat="50.00935" lon="2.35048">
        <ele>115.7</ele>
        <time>2023-11-22T13:52:51Z</time>
      </trkpt>
      <trkpt lat="50.00937" lon="2.35048">
        <ele>115.8</ele>
        <time>2023-11-22T13:52:52Z</time>
      </trkpt>
      <trkpt lat="50.00938" lon="2.35048">
        <ele>115.8</ele>
        <time>2023-11-22T13:52:53Z</time>
      </trkpt>
      <trkpt lat="50.00939" lon="2.35048">
        <ele>115.8</ele>
        <time>2023-11-22T13:52:54Z</time>
      </trkpt>
      <trkpt lat="50.0094" lon="2.35048">
        <ele>115.8</ele>
        <time>2023-11-22T13:52:55Z</time>
      </trkpt>
      <trkpt lat="50.0094" lon="2.35048">
        <ele>115.8</ele>
        <time>2023-11-22T13:52:56Z</time>
      </trkpt>
      <trkpt lat="50.00941" lon="2.35048">
        <ele>115.8</ele>
        <time>2023-11-22T13:52:57Z</time>
      </trkpt>
      <trkpt lat="50.00942" lon="2.35048">
        <ele>115.8</ele>
        <time>2023-11-22T13:52:58Z</time>
      </trkpt>
      <trkpt lat="50.00943" lon="2.35048">
        <ele>115.8</ele>
        <time>2023-11-22T13:52:59Z</time>
      </trkpt>
      <trkpt lat="50.00944" lon="2.35048">
        <ele>115.9</ele>
        <time>2023-11-22T13:53:00Z</time>
      </trkpt>
      <trkpt lat="50.00945" lon="2.35048">
        <ele>115.9</ele>
        <time>2023-11-22T13:53:01Z</time>
      </trkpt>
      <trkpt lat="50.00946" lon="2.35049">
        <ele>115.9</ele>
        <time>2023-11-22T13:53:02Z</time>
      </trkpt>
      <trkpt lat="50.00947" lon="2.35049">
        <ele>115.9</ele>
        <time>2023-11-22T13:53:03Z</time>
      </trkpt>
      <trkpt lat="50.00948" lon="2.35049">
        <ele>115.9</ele>
        <time>2023-11-22T13:53:04Z</time>
      </trkpt>
      <trkpt lat="50.00949" lon="2.3505">
        <ele>115.9</ele>
        <time>2023-11-22T13:53:05Z</time>
      </trkpt>
      <trkpt lat="50.0095" lon="2.3505">
        <ele>115.9</ele>
        <time>2023-11-22T13:53:06Z</time>
      </trkpt>
      <trkpt lat="50.00951" lon="2.3505">
        <ele>115.9</ele>
        <time>2023-11-22T13:53:07Z</time>
      </trkpt>
      <trkpt lat="50.00952" lon="2.35051">
        <ele>115.9</ele>
        <time>2023-11-22T13:53:08Z</time>
      </trkpt>
      <trkpt lat="50.00953" lon="2.35051">
        <ele>115.9</ele>
        <time>2023-11-22T13:53:09Z</time>
      </trkpt>
      <trkpt lat="50.00953" lon="2.35052">
        <ele>115.9</ele>
        <time>2023-11-22T13:53:10Z</time>
      </trkpt>
      <trkpt lat="50.00954" lon="2.35051">
        <ele>115.9</ele>
        <time>2023-11-22T13:53:11Z</time>
      </trkpt>
      <trkpt lat="50.00955" lon="2.35051">
        <ele>115.9</ele>
        <time>2023-11-22T13:53:12Z</time>
      </trkpt>
      <trkpt lat="50.00956" lon="2.35051">
        <ele>116</ele>
        <time>2023-11-22T13:53:13Z</time>
      </trkpt>
      <trkpt lat="50.00956" lon="2.35051">
        <ele>116</ele>
        <time>2023-11-22T13:53:14Z</time>
      </trkpt>
      <trkpt lat="50.00956" lon="2.35051">
        <ele>116</ele>
        <time>2023-11-22T13:53:15Z</time>
      </trkpt>
      <trkpt lat="50.00957" lon="2.35051">
        <ele>116</ele>
        <time>2023-11-22T13:53:16Z</time>
      </trkpt>
      <trkpt lat="50.00957" lon="2.35051">
        <ele>116</ele>
        <time>2023-11-22T13:53:17Z</time>
      </trkpt>
      <trkpt lat="50.00957" lon="2.35051">
        <ele>116</ele>
        <time>2023-11-22T13:53:18Z</time>
      </trkpt>
      <trkpt lat="50.00957" lon="2.35051">
        <ele>116</ele>
        <time>2023-11-22T13:53:19Z</time>
      </trkpt>
      <trkpt lat="50.00958" lon="2.35051">
        <ele>116</ele>
        <time>2023-11-22T13:53:20Z</time>
      </trkpt>
      <trkpt lat="50.00958" lon="2.35051">
        <ele>116</ele>
        <time>2023-11-22T13:53:21Z</time>
      </trkpt>
      <trkpt lat="50.00958" lon="2.35051">
        <ele>116</ele>
        <time>2023-11-22T13:53:22Z</time>
      </trkpt>
      <trkpt lat="50.00959" lon="2.35051">
        <ele>116</ele>
        <time>2023-11-22T13:53:23Z</time>
      </trkpt>
      <trkpt lat="50.00959" lon="2.35052">
        <ele>116</ele>
        <time>2023-11-22T13:53:24Z</time>
      </trkpt>
      <trkpt lat="50.00959" lon="2.35052">
        <ele>116</ele>
        <time>2023-11-22T13:53:25Z</time>
      </trkpt>
      <trkpt lat="50.00959" lon="2.35052">
        <ele>116</ele>
        <time>2023-11-22T13:53:26Z</time>
      </trkpt>
      <trkpt lat="50.0096" lon="2.35052">
        <ele>116</ele>
        <time>2023-11-22T13:53:27Z</time>
      </trkpt>
      <trkpt lat="50.0096" lon="2.35052">
        <ele>116</ele>
        <time>2023-11-22T13:53:28Z</time>
      </trkpt>
      <trkpt lat="50.0096" lon="2.35052">
        <ele>116.1</ele>
        <time>2023-11-22T13:53:29Z</time>
      </trkpt>
      <trkpt lat="50.0096" lon="2.35052">
        <ele>116.1</ele>
        <time>2023-11-22T13:53:30Z</time>
      </trkpt>
      <trkpt lat="50.00961" lon="2.35052">
        <ele>116.1</ele>
        <time>2023-11-22T13:53:31Z</time>
      </trkpt>
      <trkpt lat="50.00961" lon="2.35052">
        <ele>116.1</ele>
        <time>2023-11-22T13:53:32Z</time>
      </trkpt>
      <trkpt lat="50.00961" lon="2.35052">
        <ele>116.1</ele>
        <time>2023-11-22T13:53:33Z</time>
      </trkpt>
      <trkpt lat="50.00961" lon="2.35052">
        <ele>116.1</ele>
        <time>2023-11-22T13:54:39Z</time>
      </trkpt>
      <trkpt lat="50.00962" lon="2.35052">
        <ele>116.1</ele>
        <time>2023-11-22T13:54:40Z</time>
      </trkpt>
      <trkpt lat="50.00962" lon="2.35052">
        <ele>116.1</ele>
        <time>2023-11-22T13:54:41Z</time>
      </trkpt>
      <trkpt lat="50.00962" lon="2.35052">
        <ele>116.1</ele>
        <time>2023-11-22T13:54:42Z</time>
      </trkpt>
      <trkpt lat="50.00964" lon="2.35052">
        <ele>116.2</ele>
        <time>2023-11-22T13:54:43Z</time>
      </trkpt>
      <trkpt lat="50.00965" lon="2.35053">
        <ele>116.2</ele>
        <time>2023-11-22T13:54:44Z</time>
      </trkpt>
      <trkpt lat="50.00966" lon="2.35053">
        <ele>116.2</ele>
        <time>2023-11-22T13:54:45Z</time>
      </trkpt>
      <trkpt lat="50.00967" lon="2.35053">
        <ele>116.3</ele>
        <time>2023-11-22T13:54:46Z</time>
      </trkpt>
      <trkpt lat="50.00968" lon="2.35053">
        <ele>116.3</ele>
        <time>2023-11-22T13:54:47Z</time>
      </trkpt>
      <trkpt lat="50.00969" lon="2.35053">
        <ele>116.3</ele>
        <time>2023-11-22T13:54:48Z</time>
      </trkpt>
      <trkpt lat="50.0097" lon="2.35053">
        <ele>116.3</ele>
        <time>2023-11-22T13:54:49Z</time>
      </trkpt>
      <trkpt lat="50.00971" lon="2.35052">
        <ele>116.4</ele>
        <time>2023-11-22T13:54:50Z</time>
      </trkpt>
      <trkpt lat="50.00972" lon="2.35052">
        <ele>116.4</ele>
        <time>2023-11-22T13:54:51Z</time>
      </trkpt>
      <trkpt lat="50.00973" lon="2.35052">
        <ele>116.4</ele>
        <time>2023-11-22T13:54:52Z</time>
      </trkpt>
      <trkpt lat="50.00974" lon="2.35052">
        <ele>116.4</ele>
        <time>2023-11-22T13:54:53Z</time>
      </trkpt>
      <trkpt lat="50.00975" lon="2.35052">
        <ele>116.4</ele>
        <time>2023-11-22T13:54:54Z</time>
      </trkpt>
      <trkpt lat="50.00976" lon="2.35052">
        <ele>116.4</ele>
        <time>2023-11-22T13:54:55Z</time>
      </trkpt>
      <trkpt lat="50.00978" lon="2.35053">
        <ele>116.4</ele>
        <time>2023-11-22T13:54:56Z</time>
      </trkpt>
      <trkpt lat="50.00979" lon="2.35053">
        <ele>116.4</ele>
        <time>2023-11-22T13:54:57Z</time>
      </trkpt>
      <trkpt lat="50.00981" lon="2.35053">
        <ele>116.4</ele>
        <time>2023-11-22T13:54:58Z</time>
      </trkpt>
      <trkpt lat="50.00983" lon="2.35053">
        <ele>116.4</ele>
        <time>2023-11-22T13:54:59Z</time>
      </trkpt>
      <trkpt lat="50.00984" lon="2.35053">
        <ele>116.4</ele>
        <time>2023-11-22T13:55:00Z</time>
      </trkpt>
      <trkpt lat="50.00984" lon="2.35053">
        <ele>116.4</ele>
        <time>2023-11-22T13:55:01Z</time>
      </trkpt>
      <trkpt lat="50.00985" lon="2.35053">
        <ele>116.4</ele>
        <time>2023-11-22T13:55:02Z</time>
      </trkpt>
      <trkpt lat="50.00986" lon="2.35053">
        <ele>116.4</ele>
        <time>2023-11-22T13:55:03Z</time>
      </trkpt>
      <trkpt lat="50.00987" lon="2.35052">
        <ele>116.4</ele>
        <time>2023-11-22T13:55:04Z</time>
      </trkpt>
      <trkpt lat="50.00988" lon="2.35052">
        <ele>116.3</ele>
        <time>2023-11-22T13:55:05Z</time>
      </trkpt>
      <trkpt lat="50.00989" lon="2.35052">
        <ele>116.3</ele>
        <time>2023-11-22T13:55:06Z</time>
      </trkpt>
      <trkpt lat="50.0099" lon="2.35052">
        <ele>116.3</ele>
        <time>2023-11-22T13:55:07Z</time>
      </trkpt>
      <trkpt lat="50.00991" lon="2.35052">
        <ele>116.3</ele>
        <time>2023-11-22T13:55:08Z</time>
      </trkpt>
      <trkpt lat="50.00992" lon="2.35051">
        <ele>116.4</ele>
        <time>2023-11-22T13:55:09Z</time>
      </trkpt>
      <trkpt lat="50.00994" lon="2.35051">
        <ele>116.4</ele>
        <time>2023-11-22T13:55:10Z</time>
      </trkpt>
      <trkpt lat="50.00994" lon="2.35051">
        <ele>116.4</ele>
        <time>2023-11-22T13:55:11Z</time>
      </trkpt>
      <trkpt lat="50.00995" lon="2.35052">
        <ele>116.4</ele>
        <time>2023-11-22T13:55:12Z</time>
      </trkpt>
      <trkpt lat="50.00996" lon="2.35052">
        <ele>116.4</ele>
        <time>2023-11-22T13:55:13Z</time>
      </trkpt>
      <trkpt lat="50.00998" lon="2.35053">
        <ele>116.4</ele>
        <time>2023-11-22T13:55:14Z</time>
      </trkpt>
      <trkpt lat="50.00999" lon="2.35054">
        <ele>116.4</ele>
        <time>2023-11-22T13:55:15Z</time>
      </trkpt>
      <trkpt lat="50.01" lon="2.35054">
        <ele>116.4</ele>
        <time>2023-11-22T13:55:16Z</time>
      </trkpt>
      <trkpt lat="50.01002" lon="2.35054">
        <ele>116.4</ele>
        <time>2023-11-22T13:55:17Z</time>
      </trkpt>
      <trkpt lat="50.01003" lon="2.35055">
        <ele>116.5</ele>
        <time>2023-11-22T13:55:18Z</time>
      </trkpt>
      <trkpt lat="50.01004" lon="2.35055">
        <ele>116.5</ele>
        <time>2023-11-22T13:55:19Z</time>
      </trkpt>
      <trkpt lat="50.01006" lon="2.35055">
        <ele>116.5</ele>
        <time>2023-11-22T13:55:20Z</time>
      </trkpt>
      <trkpt lat="50.01007" lon="2.35055">
        <ele>116.5</ele>
        <time>2023-11-22T13:55:21Z</time>
      </trkpt>
      <trkpt lat="50.01008" lon="2.35054">
        <ele>116.5</ele>
        <time>2023-11-22T13:55:22Z</time>
      </trkpt>
      <trkpt lat="50.01009" lon="2.35054">
        <ele>116.5</ele>
        <time>2023-11-22T13:55:23Z</time>
      </trkpt>
      <trkpt lat="50.0101" lon="2.35054">
        <ele>116.5</ele>
        <time>2023-11-22T13:55:24Z</time>
      </trkpt>
      <trkpt lat="50.01011" lon="2.35054">
        <ele>116.5</ele>
        <time>2023-11-22T13:55:25Z</time>
      </trkpt>
      <trkpt lat="50.01012" lon="2.35054">
        <ele>116.5</ele>
        <time>2023-11-22T13:55:26Z</time>
      </trkpt>
      <trkpt lat="50.01013" lon="2.35054">
        <ele>116.5</ele>
        <time>2023-11-22T13:55:27Z</time>
      </trkpt>
      <trkpt lat="50.01014" lon="2.35054">
        <ele>116.5</ele>
        <time>2023-11-22T13:55:28Z</time>
      </trkpt>
      <trkpt lat="50.01015" lon="2.35054">
        <ele>116.5</ele>
        <time>2023-11-22T13:55:29Z</time>
      </trkpt>
      <trkpt lat="50.01016" lon="2.35054">
        <ele>116.5</ele>
        <time>2023-11-22T13:55:30Z</time>
      </trkpt>
      <trkpt lat="50.01017" lon="2.35054">
        <ele>116.5</ele>
        <time>2023-11-22T13:55:31Z</time>
      </trkpt>
      <trkpt lat="50.01018" lon="2.35054">
        <ele>116.5</ele>
        <time>2023-11-22T13:55:32Z</time>
      </trkpt>
      <trkpt lat="50.01019" lon="2.35054">
        <ele>116.5</ele>
        <time>2023-11-22T13:55:33Z</time>
      </trkpt>
      <trkpt lat="50.01019" lon="2.35054">
        <ele>116.5</ele>
        <time>2023-11-22T13:55:34Z</time>
      </trkpt>
      <trkpt lat="50.0102" lon="2.35054">
        <ele>116.5</ele>
        <time>2023-11-22T13:55:35Z</time>
      </trkpt>
      <trkpt lat="50.01021" lon="2.35055">
        <ele>116.5</ele>
        <time>2023-11-22T13:55:36Z</time>
      </trkpt>
      <trkpt lat="50.01021" lon="2.35055">
        <ele>116.5</ele>
        <time>2023-11-22T13:55:37Z</time>
      </trkpt>
      <trkpt lat="50.01022" lon="2.35056">
        <ele>116.5</ele>
        <time>2023-11-22T13:55:38Z</time>
      </trkpt>
      <trkpt lat="50.01023" lon="2.35056">
        <ele>116.5</ele>
        <time>2023-11-22T13:55:39Z</time>
      </trkpt>
      <trkpt lat="50.01024" lon="2.35056">
        <ele>116.5</ele>
        <time>2023-11-22T13:55:40Z</time>
      </trkpt>
      <trkpt lat="50.01025" lon="2.35057">
        <ele>116.5</ele>
        <time>2023-11-22T13:55:41Z</time>
      </trkpt>
      <trkpt lat="50.01026" lon="2.35057">
        <ele>116.5</ele>
        <time>2023-11-22T13:55:42Z</time>
      </trkpt>
      <trkpt lat="50.01027" lon="2.35057">
        <ele>116.5</ele>
        <time>2023-11-22T13:55:43Z</time>
      </trkpt>
      <trkpt lat="50.01027" lon="2.35057">
        <ele>116.5</ele>
        <time>2023-11-22T13:55:44Z</time>
      </trkpt>
      <trkpt lat="50.01028" lon="2.35057">
        <ele>116.5</ele>
        <time>2023-11-22T13:55:45Z</time>
      </trkpt>
      <trkpt lat="50.01029" lon="2.35058">
        <ele>116.5</ele>
        <time>2023-11-22T13:55:46Z</time>
      </trkpt>
      <trkpt lat="50.0103" lon="2.35058">
        <ele>116.5</ele>
        <time>2023-11-22T13:55:47Z</time>
      </trkpt>
      <trkpt lat="50.01031" lon="2.35058">
        <ele>116.5</ele>
        <time>2023-11-22T13:55:48Z</time>
      </trkpt>
      <trkpt lat="50.01033" lon="2.35059">
        <ele>116.5</ele>
        <time>2023-11-22T13:55:49Z</time>
      </trkpt>
      <trkpt lat="50.01034" lon="2.35059">
        <ele>116.5</ele>
        <time>2023-11-22T13:55:50Z</time>
      </trkpt>
      <trkpt lat="50.01035" lon="2.35059">
        <ele>116.5</ele>
        <time>2023-11-22T13:55:51Z</time>
      </trkpt>
      <trkpt lat="50.01037" lon="2.35061">
        <ele>116.5</ele>
        <time>2023-11-22T13:55:52Z</time>
      </trkpt>
      <trkpt lat="50.01038" lon="2.35061">
        <ele>116.5</ele>
        <time>2023-11-22T13:55:53Z</time>
      </trkpt>
      <trkpt lat="50.01038" lon="2.35062">
        <ele>116.5</ele>
        <time>2023-11-22T13:55:54Z</time>
      </trkpt>
      <trkpt lat="50.0104" lon="2.35063">
        <ele>116.5</ele>
        <time>2023-11-22T13:55:55Z</time>
      </trkpt>
      <trkpt lat="50.01041" lon="2.35064">
        <ele>116.5</ele>
        <time>2023-11-22T13:55:56Z</time>
      </trkpt>
      <trkpt lat="50.01042" lon="2.35064">
        <ele>116.5</ele>
        <time>2023-11-22T13:55:57Z</time>
      </trkpt>
      <trkpt lat="50.01044" lon="2.35065">
        <ele>116.5</ele>
        <time>2023-11-22T13:55:58Z</time>
      </trkpt>
      <trkpt lat="50.01045" lon="2.35066">
        <ele>116.5</ele>
        <time>2023-11-22T13:55:59Z</time>
      </trkpt>
      <trkpt lat="50.01045" lon="2.35066">
        <ele>116.5</ele>
        <time>2023-11-22T13:56:00Z</time>
      </trkpt>
      <trkpt lat="50.01047" lon="2.35067">
        <ele>116.5</ele>
        <time>2023-11-22T13:56:01Z</time>
      </trkpt>
      <trkpt lat="50.01048" lon="2.35067">
        <ele>116.5</ele>
        <time>2023-11-22T13:56:02Z</time>
      </trkpt>
      <trkpt lat="50.01049" lon="2.35068">
        <ele>116.5</ele>
        <time>2023-11-22T13:56:03Z</time>
      </trkpt>
      <trkpt lat="50.0105" lon="2.35068">
        <ele>116.5</ele>
        <time>2023-11-22T13:56:04Z</time>
      </trkpt>
      <trkpt lat="50.01051" lon="2.35068">
        <ele>116.5</ele>
        <time>2023-11-22T13:56:05Z</time>
      </trkpt>
      <trkpt lat="50.01052" lon="2.35068">
        <ele>116.6</ele>
        <time>2023-11-22T13:56:06Z</time>
      </trkpt>
      <trkpt lat="50.01053" lon="2.35069">
        <ele>116.6</ele>
        <time>2023-11-22T13:56:07Z</time>
      </trkpt>
      <trkpt lat="50.01054" lon="2.35069">
        <ele>116.6</ele>
        <time>2023-11-22T13:56:08Z</time>
      </trkpt>
      <trkpt lat="50.01055" lon="2.35069">
        <ele>116.6</ele>
        <time>2023-11-22T13:56:09Z</time>
      </trkpt>
      <trkpt lat="50.01056" lon="2.35069">
        <ele>116.6</ele>
        <time>2023-11-22T13:56:10Z</time>
      </trkpt>
      <trkpt lat="50.01057" lon="2.35069">
        <ele>116.6</ele>
        <time>2023-11-22T13:56:11Z</time>
      </trkpt>
      <trkpt lat="50.01058" lon="2.35069">
        <ele>116.6</ele>
        <time>2023-11-22T13:56:12Z</time>
      </trkpt>
      <trkpt lat="50.0106" lon="2.35069">
        <ele>116.7</ele>
        <time>2023-11-22T13:56:13Z</time>
      </trkpt>
      <trkpt lat="50.01061" lon="2.35069">
        <ele>116.7</ele>
        <time>2023-11-22T13:56:14Z</time>
      </trkpt>
      <trkpt lat="50.01062" lon="2.3507">
        <ele>116.7</ele>
        <time>2023-11-22T13:56:15Z</time>
      </trkpt>
      <trkpt lat="50.01063" lon="2.3507">
        <ele>116.7</ele>
        <time>2023-11-22T13:56:16Z</time>
      </trkpt>
      <trkpt lat="50.01064" lon="2.3507">
        <ele>116.7</ele>
        <time>2023-11-22T13:56:17Z</time>
      </trkpt>
      <trkpt lat="50.01065" lon="2.35069">
        <ele>116.7</ele>
        <time>2023-11-22T13:56:18Z</time>
      </trkpt>
      <trkpt lat="50.01066" lon="2.35069">
        <ele>116.8</ele>
        <time>2023-11-22T13:56:19Z</time>
      </trkpt>
      <trkpt lat="50.01067" lon="2.35069">
        <ele>116.8</ele>
        <time>2023-11-22T13:56:20Z</time>
      </trkpt>
      <trkpt lat="50.01068" lon="2.35069">
        <ele>116.8</ele>
        <time>2023-11-22T13:56:21Z</time>
      </trkpt>
      <trkpt lat="50.0107" lon="2.3507">
        <ele>116.9</ele>
        <time>2023-11-22T13:56:22Z</time>
      </trkpt>
      <trkpt lat="50.01071" lon="2.3507">
        <ele>116.9</ele>
        <time>2023-11-22T13:56:23Z</time>
      </trkpt>
      <trkpt lat="50.01072" lon="2.3507">
        <ele>116.9</ele>
        <time>2023-11-22T13:56:24Z</time>
      </trkpt>
      <trkpt lat="50.01074" lon="2.3507">
        <ele>117</ele>
        <time>2023-11-22T13:56:25Z</time>
      </trkpt>
      <trkpt lat="50.01075" lon="2.3507">
        <ele>117</ele>
        <time>2023-11-22T13:56:26Z</time>
      </trkpt>
      <trkpt lat="50.01076" lon="2.3507">
        <ele>117</ele>
        <time>2023-11-22T13:56:27Z</time>
      </trkpt>
      <trkpt lat="50.01077" lon="2.3507">
        <ele>117</ele>
        <time>2023-11-22T13:56:28Z</time>
      </trkpt>
      <trkpt lat="50.01078" lon="2.3507">
        <ele>117.1</ele>
        <time>2023-11-22T13:56:29Z</time>
      </trkpt>
      <trkpt lat="50.01079" lon="2.3507">
        <ele>117.1</ele>
        <time>2023-11-22T13:56:30Z</time>
      </trkpt>
      <trkpt lat="50.0108" lon="2.3507">
        <ele>117.1</ele>
        <time>2023-11-22T13:56:31Z</time>
      </trkpt>
      <trkpt lat="50.01081" lon="2.3507">
        <ele>117.1</ele>
        <time>2023-11-22T13:56:32Z</time>
      </trkpt>
      <trkpt lat="50.01082" lon="2.3507">
        <ele>117.2</ele>
        <time>2023-11-22T13:56:33Z</time>
      </trkpt>
      <trkpt lat="50.01083" lon="2.3507">
        <ele>117.2</ele>
        <time>2023-11-22T13:56:34Z</time>
      </trkpt>
      <trkpt lat="50.01084" lon="2.3507">
        <ele>117.2</ele>
        <time>2023-11-22T13:56:35Z</time>
      </trkpt>
      <trkpt lat="50.01085" lon="2.3507">
        <ele>117.2</ele>
        <time>2023-11-22T13:56:36Z</time>
      </trkpt>
      <trkpt lat="50.01086" lon="2.3507">
        <ele>117.2</ele>
        <time>2023-11-22T13:56:37Z</time>
      </trkpt>
      <trkpt lat="50.01086" lon="2.3507">
        <ele>117.2</ele>
        <time>2023-11-22T13:56:38Z</time>
      </trkpt>
      <trkpt lat="50.01087" lon="2.3507">
        <ele>117.3</ele>
        <time>2023-11-22T13:56:39Z</time>
      </trkpt>
      <trkpt lat="50.01088" lon="2.3507">
        <ele>117.3</ele>
        <time>2023-11-22T13:56:40Z</time>
      </trkpt>
      <trkpt lat="50.01089" lon="2.3507">
        <ele>117.3</ele>
        <time>2023-11-22T13:56:41Z</time>
      </trkpt>
      <trkpt lat="50.01089" lon="2.3507">
        <ele>117.3</ele>
        <time>2023-11-22T13:56:42Z</time>
      </trkpt>
      <trkpt lat="50.0109" lon="2.3507">
        <ele>117.3</ele>
        <time>2023-11-22T13:56:43Z</time>
      </trkpt>
      <trkpt lat="50.01091" lon="2.3507">
        <ele>117.4</ele>
        <time>2023-11-22T13:56:44Z</time>
      </trkpt>
      <trkpt lat="50.01092" lon="2.3507">
        <ele>117.4</ele>
        <time>2023-11-22T13:56:45Z</time>
      </trkpt>
      <trkpt lat="50.01093" lon="2.3507">
        <ele>117.4</ele>
        <time>2023-11-22T13:56:46Z</time>
      </trkpt>
      <trkpt lat="50.01093" lon="2.3507">
        <ele>117.4</ele>
        <time>2023-11-22T13:56:47Z</time>
      </trkpt>
      <trkpt lat="50.01094" lon="2.3507">
        <ele>117.5</ele>
        <time>2023-11-22T13:56:48Z</time>
      </trkpt>
      <trkpt lat="50.01095" lon="2.3507">
        <ele>117.5</ele>
        <time>2023-11-22T13:56:49Z</time>
      </trkpt>
      <trkpt lat="50.01096" lon="2.3507">
        <ele>117.5</ele>
        <time>2023-11-22T13:56:50Z</time>
      </trkpt>
      <trkpt lat="50.01096" lon="2.3507">
        <ele>117.5</ele>
        <time>2023-11-22T13:56:51Z</time>
      </trkpt>
      <trkpt lat="50.01097" lon="2.3507">
        <ele>117.5</ele>
        <time>2023-11-22T13:56:52Z</time>
      </trkpt>
      <trkpt lat="50.01098" lon="2.3507">
        <ele>117.6</ele>
        <time>2023-11-22T13:56:53Z</time>
      </trkpt>
      <trkpt lat="50.01099" lon="2.3507">
        <ele>117.6</ele>
        <time>2023-11-22T13:56:54Z</time>
      </trkpt>
      <trkpt lat="50.01099" lon="2.35071">
        <ele>117.6</ele>
        <time>2023-11-22T13:56:55Z</time>
      </trkpt>
      <trkpt lat="50.011" lon="2.35071">
        <ele>117.6</ele>
        <time>2023-11-22T13:56:56Z</time>
      </trkpt>
      <trkpt lat="50.01101" lon="2.35071">
        <ele>117.6</ele>
        <time>2023-11-22T13:56:57Z</time>
      </trkpt>
      <trkpt lat="50.01102" lon="2.35072">
        <ele>117.7</ele>
        <time>2023-11-22T13:56:58Z</time>
      </trkpt>
      <trkpt lat="50.01103" lon="2.35073">
        <ele>117.7</ele>
        <time>2023-11-22T13:56:59Z</time>
      </trkpt>
      <trkpt lat="50.01105" lon="2.35074">
        <ele>117.8</ele>
        <time>2023-11-22T13:57:00Z</time>
      </trkpt>
      <trkpt lat="50.01106" lon="2.35074">
        <ele>117.8</ele>
        <time>2023-11-22T13:57:01Z</time>
      </trkpt>
      <trkpt lat="50.01108" lon="2.35075">
        <ele>117.8</ele>
        <time>2023-11-22T13:57:02Z</time>
      </trkpt>
      <trkpt lat="50.01109" lon="2.35075">
        <ele>117.9</ele>
        <time>2023-11-22T13:57:03Z</time>
      </trkpt>
      <trkpt lat="50.01111" lon="2.35076">
        <ele>117.9</ele>
        <time>2023-11-22T13:57:04Z</time>
      </trkpt>
      <trkpt lat="50.01112" lon="2.35076">
        <ele>118</ele>
        <time>2023-11-22T13:57:05Z</time>
      </trkpt>
      <trkpt lat="50.01113" lon="2.35076">
        <ele>118</ele>
        <time>2023-11-22T13:57:06Z</time>
      </trkpt>
      <trkpt lat="50.01114" lon="2.35076">
        <ele>118</ele>
        <time>2023-11-22T13:57:07Z</time>
      </trkpt>
      <trkpt lat="50.01115" lon="2.35076">
        <ele>118.1</ele>
        <time>2023-11-22T13:57:08Z</time>
      </trkpt>
      <trkpt lat="50.01116" lon="2.35076">
        <ele>118.1</ele>
        <time>2023-11-22T13:57:09Z</time>
      </trkpt>
      <trkpt lat="50.01119" lon="2.35076">
        <ele>118.2</ele>
        <time>2023-11-22T13:57:10Z</time>
      </trkpt>
      <trkpt lat="50.01119" lon="2.35076">
        <ele>118.2</ele>
        <time>2023-11-22T13:57:11Z</time>
      </trkpt>
      <trkpt lat="50.0112" lon="2.35076">
        <ele>118.2</ele>
        <time>2023-11-22T13:57:12Z</time>
      </trkpt>
      <trkpt lat="50.01123" lon="2.35077">
        <ele>118.3</ele>
        <time>2023-11-22T13:57:13Z</time>
      </trkpt>
      <trkpt lat="50.01124" lon="2.35077">
        <ele>118.3</ele>
        <time>2023-11-22T13:57:14Z</time>
      </trkpt>
      <trkpt lat="50.01125" lon="2.35077">
        <ele>118.4</ele>
        <time>2023-11-22T13:57:15Z</time>
      </trkpt>
      <trkpt lat="50.01126" lon="2.35077">
        <ele>118.4</ele>
        <time>2023-11-22T13:57:16Z</time>
      </trkpt>
      <trkpt lat="50.01128" lon="2.35077">
        <ele>118.5</ele>
        <time>2023-11-22T13:57:17Z</time>
      </trkpt>
      <trkpt lat="50.01129" lon="2.35077">
        <ele>118.5</ele>
        <time>2023-11-22T13:57:18Z</time>
      </trkpt>
      <trkpt lat="50.0113" lon="2.35078">
        <ele>118.6</ele>
        <time>2023-11-22T13:57:19Z</time>
      </trkpt>
      <trkpt lat="50.01132" lon="2.35078">
        <ele>118.7</ele>
        <time>2023-11-22T13:57:20Z</time>
      </trkpt>
      <trkpt lat="50.01133" lon="2.35078">
        <ele>118.7</ele>
        <time>2023-11-22T13:57:21Z</time>
      </trkpt>
      <trkpt lat="50.01134" lon="2.35079">
        <ele>118.8</ele>
        <time>2023-11-22T13:57:22Z</time>
      </trkpt>
      <trkpt lat="50.01135" lon="2.35079">
        <ele>118.8</ele>
        <time>2023-11-22T13:57:23Z</time>
      </trkpt>
      <trkpt lat="50.01136" lon="2.35079">
        <ele>118.9</ele>
        <time>2023-11-22T13:57:24Z</time>
      </trkpt>
      <trkpt lat="50.01137" lon="2.35079">
        <ele>118.9</ele>
        <time>2023-11-22T13:57:25Z</time>
      </trkpt>
      <trkpt lat="50.01138" lon="2.3508">
        <ele>119</ele>
        <time>2023-11-22T13:57:26Z</time>
      </trkpt>
      <trkpt lat="50.01139" lon="2.3508">
        <ele>119</ele>
        <time>2023-11-22T13:57:27Z</time>
      </trkpt>
      <trkpt lat="50.0114" lon="2.3508">
        <ele>119.1</ele>
        <time>2023-11-22T13:57:28Z</time>
      </trkpt>
      <trkpt lat="50.01141" lon="2.35081">
        <ele>119.1</ele>
        <time>2023-11-22T13:57:29Z</time>
      </trkpt>
      <trkpt lat="50.01142" lon="2.35081">
        <ele>119.2</ele>
        <time>2023-11-22T13:57:30Z</time>
      </trkpt>
      <trkpt lat="50.01143" lon="2.35081">
        <ele>119.2</ele>
        <time>2023-11-22T13:57:31Z</time>
      </trkpt>
      <trkpt lat="50.01144" lon="2.35082">
        <ele>119.3</ele>
        <time>2023-11-22T13:57:32Z</time>
      </trkpt>
      <trkpt lat="50.01145" lon="2.35082">
        <ele>119.4</ele>
        <time>2023-11-22T13:57:33Z</time>
      </trkpt>
      <trkpt lat="50.01146" lon="2.35083">
        <ele>119.4</ele>
        <time>2023-11-22T13:57:34Z</time>
      </trkpt>
      <trkpt lat="50.01147" lon="2.35083">
        <ele>119.5</ele>
        <time>2023-11-22T13:57:35Z</time>
      </trkpt>
      <trkpt lat="50.01148" lon="2.35084">
        <ele>119.6</ele>
        <time>2023-11-22T13:57:36Z</time>
      </trkpt>
      <trkpt lat="50.01149" lon="2.35084">
        <ele>119.6</ele>
        <time>2023-11-22T13:57:37Z</time>
      </trkpt>
      <trkpt lat="50.01151" lon="2.35085">
        <ele>119.7</ele>
        <time>2023-11-22T13:57:38Z</time>
      </trkpt>
      <trkpt lat="50.01152" lon="2.35085">
        <ele>119.8</ele>
        <time>2023-11-22T13:57:39Z</time>
      </trkpt>
      <trkpt lat="50.01153" lon="2.35085">
        <ele>119.9</ele>
        <time>2023-11-22T13:57:40Z</time>
      </trkpt>
      <trkpt lat="50.01155" lon="2.35086">
        <ele>120</ele>
        <time>2023-11-22T13:57:41Z</time>
      </trkpt>
      <trkpt lat="50.01156" lon="2.35086">
        <ele>120</ele>
        <time>2023-11-22T13:57:42Z</time>
      </trkpt>
      <trkpt lat="50.01157" lon="2.35086">
        <ele>120.1</ele>
        <time>2023-11-22T13:57:43Z</time>
      </trkpt>
      <trkpt lat="50.01158" lon="2.35087">
        <ele>120.2</ele>
        <time>2023-11-22T13:57:44Z</time>
      </trkpt>
      <trkpt lat="50.01159" lon="2.35087">
        <ele>120.2</ele>
        <time>2023-11-22T13:57:45Z</time>
      </trkpt>
      <trkpt lat="50.0116" lon="2.35087">
        <ele>120.3</ele>
        <time>2023-11-22T13:57:46Z</time>
      </trkpt>
      <trkpt lat="50.01161" lon="2.35087">
        <ele>120.3</ele>
        <time>2023-11-22T13:57:47Z</time>
      </trkpt>
      <trkpt lat="50.01162" lon="2.35087">
        <ele>120.4</ele>
        <time>2023-11-22T13:57:48Z</time>
      </trkpt>
      <trkpt lat="50.01163" lon="2.35088">
        <ele>120.5</ele>
        <time>2023-11-22T13:57:49Z</time>
      </trkpt>
      <trkpt lat="50.01164" lon="2.35088">
        <ele>120.5</ele>
        <time>2023-11-22T13:57:50Z</time>
      </trkpt>
      <trkpt lat="50.01165" lon="2.35088">
        <ele>120.6</ele>
        <time>2023-11-22T13:57:51Z</time>
      </trkpt>
      <trkpt lat="50.01165" lon="2.35088">
        <ele>120.6</ele>
        <time>2023-11-22T13:57:52Z</time>
      </trkpt>
      <trkpt lat="50.01166" lon="2.35089">
        <ele>120.7</ele>
        <time>2023-11-22T13:57:53Z</time>
      </trkpt>
      <trkpt lat="50.01167" lon="2.35089">
        <ele>120.7</ele>
        <time>2023-11-22T13:57:54Z</time>
      </trkpt>
      <trkpt lat="50.01168" lon="2.35089">
        <ele>120.8</ele>
        <time>2023-11-22T13:57:55Z</time>
      </trkpt>
      <trkpt lat="50.01169" lon="2.35089">
        <ele>120.9</ele>
        <time>2023-11-22T13:57:56Z</time>
      </trkpt>
      <trkpt lat="50.0117" lon="2.35089">
        <ele>120.9</ele>
        <time>2023-11-22T13:57:57Z</time>
      </trkpt>
      <trkpt lat="50.01171" lon="2.3509">
        <ele>121</ele>
        <time>2023-11-22T13:57:58Z</time>
      </trkpt>
      <trkpt lat="50.01172" lon="2.3509">
        <ele>121</ele>
        <time>2023-11-22T13:57:59Z</time>
      </trkpt>
      <trkpt lat="50.01173" lon="2.35091">
        <ele>121.1</ele>
        <time>2023-11-22T13:58:00Z</time>
      </trkpt>
      <trkpt lat="50.01174" lon="2.35091">
        <ele>121.2</ele>
        <time>2023-11-22T13:58:01Z</time>
      </trkpt>
      <trkpt lat="50.01175" lon="2.35092">
        <ele>121.2</ele>
        <time>2023-11-22T13:58:02Z</time>
      </trkpt>
      <trkpt lat="50.01175" lon="2.35092">
        <ele>121.2</ele>
        <time>2023-11-22T13:58:03Z</time>
      </trkpt>
      <trkpt lat="50.01176" lon="2.35092">
        <ele>121.3</ele>
        <time>2023-11-22T13:58:04Z</time>
      </trkpt>
      <trkpt lat="50.01177" lon="2.35092">
        <ele>121.4</ele>
        <time>2023-11-22T13:58:05Z</time>
      </trkpt>
      <trkpt lat="50.01178" lon="2.35093">
        <ele>121.4</ele>
        <time>2023-11-22T13:58:06Z</time>
      </trkpt>
      <trkpt lat="50.01179" lon="2.35093">
        <ele>121.5</ele>
        <time>2023-11-22T13:58:07Z</time>
      </trkpt>
      <trkpt lat="50.0118" lon="2.35093">
        <ele>121.5</ele>
        <time>2023-11-22T13:58:08Z</time>
      </trkpt>
      <trkpt lat="50.01181" lon="2.35093">
        <ele>121.6</ele>
        <time>2023-11-22T13:58:09Z</time>
      </trkpt>
      <trkpt lat="50.01182" lon="2.35092">
        <ele>121.6</ele>
        <time>2023-11-22T13:58:10Z</time>
      </trkpt>
      <trkpt lat="50.01183" lon="2.35092">
        <ele>121.7</ele>
        <time>2023-11-22T13:58:11Z</time>
      </trkpt>
      <trkpt lat="50.01184" lon="2.35091">
        <ele>121.7</ele>
        <time>2023-11-22T13:58:12Z</time>
      </trkpt>
      <trkpt lat="50.01184" lon="2.35091">
        <ele>121.8</ele>
        <time>2023-11-22T13:58:13Z</time>
      </trkpt>
      <trkpt lat="50.01185" lon="2.35091">
        <ele>121.8</ele>
        <time>2023-11-22T13:58:14Z</time>
      </trkpt>
      <trkpt lat="50.01185" lon="2.3509">
        <ele>121.8</ele>
        <time>2023-11-22T13:58:15Z</time>
      </trkpt>
      <trkpt lat="50.01186" lon="2.35089">
        <ele>121.9</ele>
        <time>2023-11-22T13:58:16Z</time>
      </trkpt>
      <trkpt lat="50.01186" lon="2.35089">
        <ele>121.9</ele>
        <time>2023-11-22T13:58:17Z</time>
      </trkpt>
      <trkpt lat="50.01186" lon="2.35088">
        <ele>121.9</ele>
        <time>2023-11-22T13:58:18Z</time>
      </trkpt>
      <trkpt lat="50.01187" lon="2.35088">
        <ele>121.9</ele>
        <time>2023-11-22T13:58:19Z</time>
      </trkpt>
      <trkpt lat="50.01187" lon="2.35088">
        <ele>121.9</ele>
        <time>2023-11-22T13:58:20Z</time>
      </trkpt>
      <trkpt lat="50.01187" lon="2.35087">
        <ele>121.9</ele>
        <time>2023-11-22T13:58:21Z</time>
      </trkpt>
      <trkpt lat="50.01187" lon="2.35087">
        <ele>121.9</ele>
        <time>2023-11-22T13:58:22Z</time>
      </trkpt>
      <trkpt lat="50.01187" lon="2.35087">
        <ele>122</ele>
        <time>2023-11-22T13:58:23Z</time>
      </trkpt>
      <trkpt lat="50.01187" lon="2.35087">
        <ele>122</ele>
        <time>2023-11-22T13:58:24Z</time>
      </trkpt>
      <trkpt lat="50.01186" lon="2.35087">
        <ele>122</ele>
        <time>2023-11-22T13:58:25Z</time>
      </trkpt>
      <trkpt lat="50.01186" lon="2.35087">
        <ele>122</ele>
        <time>2023-11-22T13:58:27Z</time>
      </trkpt>
      <trkpt lat="50.01186" lon="2.35087">
        <ele>122</ele>
        <time>2023-11-22T13:58:28Z</time>
      </trkpt>
      <trkpt lat="50.01185" lon="2.35087">
        <ele>122</ele>
        <time>2023-11-22T13:58:29Z</time>
      </trkpt>
      <trkpt lat="50.01185" lon="2.35087">
        <ele>122</ele>
        <time>2023-11-22T13:58:31Z</time>
      </trkpt>
      <trkpt lat="50.01185" lon="2.35088">
        <ele>122.1</ele>
        <time>2023-11-22T13:58:32Z</time>
      </trkpt>
      <trkpt lat="50.01184" lon="2.35088">
        <ele>122.1</ele>
        <time>2023-11-22T13:58:34Z</time>
      </trkpt>
      <trkpt lat="50.01184" lon="2.35088">
        <ele>122.1</ele>
        <time>2023-11-22T13:58:37Z</time>
      </trkpt>
      <trkpt lat="50.01184" lon="2.35088">
        <ele>122.1</ele>
        <time>2023-11-22T13:58:38Z</time>
      </trkpt>
      <trkpt lat="50.01184" lon="2.35088">
        <ele>122.1</ele>
        <time>2023-11-22T13:58:39Z</time>
      </trkpt>
      <trkpt lat="50.01183" lon="2.35089">
        <ele>122.1</ele>
        <time>2023-11-22T13:58:40Z</time>
      </trkpt>
      <trkpt lat="50.01187" lon="2.35093">
        <ele>122.3</ele>
        <time>2023-11-22T13:58:56Z</time>
      </trkpt>
      <trkpt lat="50.01188" lon="2.35094">
        <ele>122.4</ele>
        <time>2023-11-22T13:58:57Z</time>
      </trkpt>
      <trkpt lat="50.01189" lon="2.35095">
        <ele>122.4</ele>
        <time>2023-11-22T13:58:58Z</time>
      </trkpt>
      <trkpt lat="50.0119" lon="2.35095">
        <ele>122.5</ele>
        <time>2023-11-22T13:58:59Z</time>
      </trkpt>
      <trkpt lat="50.01191" lon="2.35096">
        <ele>122.5</ele>
        <time>2023-11-22T13:59:00Z</time>
      </trkpt>
      <trkpt lat="50.01191" lon="2.35096">
        <ele>122.5</ele>
        <time>2023-11-22T13:59:01Z</time>
      </trkpt>
      <trkpt lat="50.01192" lon="2.35096">
        <ele>122.5</ele>
        <time>2023-11-22T13:59:02Z</time>
      </trkpt>
      <trkpt lat="50.01192" lon="2.35096">
        <ele>122.5</ele>
        <time>2023-11-22T13:59:03Z</time>
      </trkpt>
      <trkpt lat="50.01193" lon="2.35097">
        <ele>122.6</ele>
        <time>2023-11-22T13:59:04Z</time>
      </trkpt>
      <trkpt lat="50.01194" lon="2.35097">
        <ele>122.6</ele>
        <time>2023-11-22T13:59:05Z</time>
      </trkpt>
      <trkpt lat="50.01194" lon="2.35097">
        <ele>122.6</ele>
        <time>2023-11-22T13:59:06Z</time>
      </trkpt>
      <trkpt lat="50.01195" lon="2.35097">
        <ele>122.6</ele>
        <time>2023-11-22T13:59:07Z</time>
      </trkpt>
      <trkpt lat="50.01196" lon="2.35098">
        <ele>122.7</ele>
        <time>2023-11-22T13:59:08Z</time>
      </trkpt>
      <trkpt lat="50.01197" lon="2.35098">
        <ele>122.7</ele>
        <time>2023-11-22T13:59:09Z</time>
      </trkpt>
      <trkpt lat="50.01198" lon="2.35098">
        <ele>122.7</ele>
        <time>2023-11-22T13:59:10Z</time>
      </trkpt>
      <trkpt lat="50.01199" lon="2.35098">
        <ele>122.8</ele>
        <time>2023-11-22T13:59:11Z</time>
      </trkpt>
      <trkpt lat="50.012" lon="2.35099">
        <ele>122.8</ele>
        <time>2023-11-22T13:59:12Z</time>
      </trkpt>
      <trkpt lat="50.01201" lon="2.35099">
        <ele>122.8</ele>
        <time>2023-11-22T13:59:13Z</time>
      </trkpt>
      <trkpt lat="50.01202" lon="2.35099">
        <ele>122.9</ele>
        <time>2023-11-22T13:59:14Z</time>
      </trkpt>
      <trkpt lat="50.01203" lon="2.35099">
        <ele>122.9</ele>
        <time>2023-11-22T13:59:15Z</time>
      </trkpt>
      <trkpt lat="50.01204" lon="2.35099">
        <ele>122.9</ele>
        <time>2023-11-22T13:59:16Z</time>
      </trkpt>
      <trkpt lat="50.01205" lon="2.35099">
        <ele>122.9</ele>
        <time>2023-11-22T13:59:17Z</time>
      </trkpt>
      <trkpt lat="50.01205" lon="2.35099">
        <ele>123</ele>
        <time>2023-11-22T13:59:18Z</time>
      </trkpt>
      <trkpt lat="50.01206" lon="2.35099">
        <ele>123</ele>
        <time>2023-11-22T13:59:19Z</time>
      </trkpt>
      <trkpt lat="50.01209" lon="2.351">
        <ele>123.1</ele>
        <time>2023-11-22T13:59:21Z</time>
      </trkpt>
      <trkpt lat="50.01211" lon="2.351">
        <ele>123.1</ele>
        <time>2023-11-22T13:59:22Z</time>
      </trkpt>
      <trkpt lat="50.01212" lon="2.351">
        <ele>123.1</ele>
        <time>2023-11-22T13:59:23Z</time>
      </trkpt>
      <trkpt lat="50.01214" lon="2.35101">
        <ele>123.2</ele>
        <time>2023-11-22T13:59:24Z</time>
      </trkpt>
      <trkpt lat="50.01215" lon="2.35101">
        <ele>123.2</ele>
        <time>2023-11-22T13:59:25Z</time>
      </trkpt>
      <trkpt lat="50.01216" lon="2.35101">
        <ele>123.3</ele>
        <time>2023-11-22T13:59:26Z</time>
      </trkpt>
      <trkpt lat="50.01217" lon="2.35102">
        <ele>123.3</ele>
        <time>2023-11-22T13:59:27Z</time>
      </trkpt>
      <trkpt lat="50.01219" lon="2.35102">
        <ele>123.3</ele>
        <time>2023-11-22T13:59:28Z</time>
      </trkpt>
      <trkpt lat="50.0122" lon="2.35102">
        <ele>123.4</ele>
        <time>2023-11-22T13:59:29Z</time>
      </trkpt>
      <trkpt lat="50.01221" lon="2.35103">
        <ele>123.4</ele>
        <time>2023-11-22T13:59:30Z</time>
      </trkpt>
      <trkpt lat="50.01221" lon="2.35103">
        <ele>123.4</ele>
        <time>2023-11-22T13:59:31Z</time>
      </trkpt>
      <trkpt lat="50.01222" lon="2.35103">
        <ele>123.4</ele>
        <time>2023-11-22T13:59:32Z</time>
      </trkpt>
      <trkpt lat="50.01223" lon="2.35103">
        <ele>123.5</ele>
        <time>2023-11-22T13:59:33Z</time>
      </trkpt>
      <trkpt lat="50.01224" lon="2.35104">
        <ele>123.5</ele>
        <time>2023-11-22T13:59:34Z</time>
      </trkpt>
      <trkpt lat="50.01226" lon="2.35104">
        <ele>123.6</ele>
        <time>2023-11-22T13:59:35Z</time>
      </trkpt>
      <trkpt lat="50.01227" lon="2.35104">
        <ele>123.6</ele>
        <time>2023-11-22T13:59:36Z</time>
      </trkpt>
      <trkpt lat="50.01228" lon="2.35105">
        <ele>123.7</ele>
        <time>2023-11-22T13:59:37Z</time>
      </trkpt>
      <trkpt lat="50.01229" lon="2.35105">
        <ele>123.7</ele>
        <time>2023-11-22T13:59:38Z</time>
      </trkpt>
      <trkpt lat="50.01229" lon="2.35105">
        <ele>123.7</ele>
        <time>2023-11-22T13:59:39Z</time>
      </trkpt>
      <trkpt lat="50.0123" lon="2.35105">
        <ele>123.8</ele>
        <time>2023-11-22T13:59:40Z</time>
      </trkpt>
      <trkpt lat="50.0123" lon="2.35105">
        <ele>123.8</ele>
        <time>2023-11-22T13:59:41Z</time>
      </trkpt>
      <trkpt lat="50.01231" lon="2.35105">
        <ele>123.8</ele>
        <time>2023-11-22T13:59:42Z</time>
      </trkpt>
      <trkpt lat="50.01232" lon="2.35106">
        <ele>123.9</ele>
        <time>2023-11-22T13:59:43Z</time>
      </trkpt>
      <trkpt lat="50.01233" lon="2.35106">
        <ele>123.9</ele>
        <time>2023-11-22T13:59:44Z</time>
      </trkpt>
      <trkpt lat="50.01234" lon="2.35106">
        <ele>124</ele>
        <time>2023-11-22T13:59:45Z</time>
      </trkpt>
      <trkpt lat="50.01236" lon="2.35106">
        <ele>124</ele>
        <time>2023-11-22T13:59:46Z</time>
      </trkpt>
      <trkpt lat="50.01239" lon="2.35107">
        <ele>124.2</ele>
        <time>2023-11-22T13:59:47Z</time>
      </trkpt>
      <trkpt lat="50.0124" lon="2.35108">
        <ele>124.3</ele>
        <time>2023-11-22T13:59:48Z</time>
      </trkpt>
      <trkpt lat="50.01243" lon="2.35109">
        <ele>124.4</ele>
        <time>2023-11-22T13:59:49Z</time>
      </trkpt>
      <trkpt lat="50.01244" lon="2.35109">
        <ele>124.4</ele>
        <time>2023-11-22T13:59:50Z</time>
      </trkpt>
      <trkpt lat="50.01246" lon="2.35109">
        <ele>124.5</ele>
        <time>2023-11-22T13:59:51Z</time>
      </trkpt>
      <trkpt lat="50.01247" lon="2.35109">
        <ele>124.5</ele>
        <time>2023-11-22T13:59:52Z</time>
      </trkpt>
      <trkpt lat="50.01248" lon="2.3511">
        <ele>124.5</ele>
        <time>2023-11-22T13:59:53Z</time>
      </trkpt>
      <trkpt lat="50.01249" lon="2.3511">
        <ele>124.6</ele>
        <time>2023-11-22T13:59:54Z</time>
      </trkpt>
      <trkpt lat="50.01251" lon="2.3511">
        <ele>124.6</ele>
        <time>2023-11-22T13:59:55Z</time>
      </trkpt>
      <trkpt lat="50.01253" lon="2.3511">
        <ele>124.6</ele>
        <time>2023-11-22T13:59:56Z</time>
      </trkpt>
      <trkpt lat="50.01254" lon="2.35111">
        <ele>124.7</ele>
        <time>2023-11-22T13:59:57Z</time>
      </trkpt>
      <trkpt lat="50.01255" lon="2.35111">
        <ele>124.7</ele>
        <time>2023-11-22T13:59:58Z</time>
      </trkpt>
      <trkpt lat="50.01257" lon="2.35111">
        <ele>124.7</ele>
        <time>2023-11-22T13:59:59Z</time>
      </trkpt>
      <trkpt lat="50.01257" lon="2.35112">
        <ele>124.8</ele>
        <time>2023-11-22T14:00:00Z</time>
      </trkpt>
      <trkpt lat="50.01258" lon="2.35112">
        <ele>124.8</ele>
        <time>2023-11-22T14:00:01Z</time>
      </trkpt>
      <trkpt lat="50.01259" lon="2.35112">
        <ele>124.8</ele>
        <time>2023-11-22T14:00:02Z</time>
      </trkpt>
      <trkpt lat="50.0126" lon="2.35113">
        <ele>124.8</ele>
        <time>2023-11-22T14:00:03Z</time>
      </trkpt>
      <trkpt lat="50.01261" lon="2.35113">
        <ele>124.8</ele>
        <time>2023-11-22T14:00:04Z</time>
      </trkpt>
      <trkpt lat="50.01262" lon="2.35113">
        <ele>124.9</ele>
        <time>2023-11-22T14:00:05Z</time>
      </trkpt>
      <trkpt lat="50.01263" lon="2.35113">
        <ele>124.9</ele>
        <time>2023-11-22T14:00:06Z</time>
      </trkpt>
      <trkpt lat="50.01263" lon="2.35113">
        <ele>124.9</ele>
        <time>2023-11-22T14:00:07Z</time>
      </trkpt>
      <trkpt lat="50.01264" lon="2.35113">
        <ele>124.9</ele>
        <time>2023-11-22T14:00:08Z</time>
      </trkpt>
      <trkpt lat="50.01264" lon="2.35113">
        <ele>124.9</ele>
        <time>2023-11-22T14:00:09Z</time>
      </trkpt>
      <trkpt lat="50.01265" lon="2.35113">
        <ele>125</ele>
        <time>2023-11-22T14:00:10Z</time>
      </trkpt>
      <trkpt lat="50.01266" lon="2.35114">
        <ele>125</ele>
        <time>2023-11-22T14:00:11Z</time>
      </trkpt>
      <trkpt lat="50.01267" lon="2.35115">
        <ele>125</ele>
        <time>2023-11-22T14:00:12Z</time>
      </trkpt>
      <trkpt lat="50.01267" lon="2.35116">
        <ele>125</ele>
        <time>2023-11-22T14:00:13Z</time>
      </trkpt>
      <trkpt lat="50.01268" lon="2.35117">
        <ele>125.1</ele>
        <time>2023-11-22T14:00:14Z</time>
      </trkpt>
      <trkpt lat="50.01269" lon="2.35118">
        <ele>125.1</ele>
        <time>2023-11-22T14:00:15Z</time>
      </trkpt>
      <trkpt lat="50.01271" lon="2.35119">
        <ele>125.2</ele>
        <time>2023-11-22T14:00:16Z</time>
      </trkpt>
      <trkpt lat="50.01272" lon="2.3512">
        <ele>125.2</ele>
        <time>2023-11-22T14:00:17Z</time>
      </trkpt>
      <trkpt lat="50.01273" lon="2.3512">
        <ele>125.2</ele>
        <time>2023-11-22T14:00:18Z</time>
      </trkpt>
      <trkpt lat="50.01275" lon="2.35121">
        <ele>125.3</ele>
        <time>2023-11-22T14:00:19Z</time>
      </trkpt>
      <trkpt lat="50.01276" lon="2.35121">
        <ele>125.3</ele>
        <time>2023-11-22T14:00:20Z</time>
      </trkpt>
      <trkpt lat="50.01276" lon="2.35122">
        <ele>125.3</ele>
        <time>2023-11-22T14:00:21Z</time>
      </trkpt>
      <trkpt lat="50.01278" lon="2.35122">
        <ele>125.3</ele>
        <time>2023-11-22T14:00:22Z</time>
      </trkpt>
      <trkpt lat="50.01279" lon="2.35122">
        <ele>125.4</ele>
        <time>2023-11-22T14:00:23Z</time>
      </trkpt>
      <trkpt lat="50.0128" lon="2.35123">
        <ele>125.4</ele>
        <time>2023-11-22T14:00:24Z</time>
      </trkpt>
      <trkpt lat="50.01281" lon="2.35123">
        <ele>125.4</ele>
        <time>2023-11-22T14:00:25Z</time>
      </trkpt>
      <trkpt lat="50.01282" lon="2.35123">
        <ele>125.5</ele>
        <time>2023-11-22T14:00:26Z</time>
      </trkpt>
      <trkpt lat="50.01283" lon="2.35123">
        <ele>125.5</ele>
        <time>2023-11-22T14:00:27Z</time>
      </trkpt>
      <trkpt lat="50.01283" lon="2.35124">
        <ele>125.5</ele>
        <time>2023-11-22T14:00:28Z</time>
      </trkpt>
      <trkpt lat="50.01284" lon="2.35124">
        <ele>125.5</ele>
        <time>2023-11-22T14:00:29Z</time>
      </trkpt>
      <trkpt lat="50.01285" lon="2.35124">
        <ele>125.5</ele>
        <time>2023-11-22T14:00:30Z</time>
      </trkpt>
      <trkpt lat="50.01286" lon="2.35124">
        <ele>125.6</ele>
        <time>2023-11-22T14:00:31Z</time>
      </trkpt>
      <trkpt lat="50.01286" lon="2.35125">
        <ele>125.6</ele>
        <time>2023-11-22T14:00:32Z</time>
      </trkpt>
      <trkpt lat="50.01287" lon="2.35125">
        <ele>125.6</ele>
        <time>2023-11-22T14:00:33Z</time>
      </trkpt>
      <trkpt lat="50.01288" lon="2.35125">
        <ele>125.6</ele>
        <time>2023-11-22T14:00:34Z</time>
      </trkpt>
      <trkpt lat="50.01289" lon="2.35126">
        <ele>125.7</ele>
        <time>2023-11-22T14:00:35Z</time>
      </trkpt>
      <trkpt lat="50.0129" lon="2.35126">
        <ele>125.7</ele>
        <time>2023-11-22T14:00:36Z</time>
      </trkpt>
      <trkpt lat="50.0129" lon="2.35126">
        <ele>125.7</ele>
        <time>2023-11-22T14:00:37Z</time>
      </trkpt>
      <trkpt lat="50.01291" lon="2.35127">
        <ele>125.7</ele>
        <time>2023-11-22T14:00:38Z</time>
      </trkpt>
      <trkpt lat="50.01292" lon="2.35127">
        <ele>125.8</ele>
        <time>2023-11-22T14:00:39Z</time>
      </trkpt>
      <trkpt lat="50.01292" lon="2.35127">
        <ele>125.8</ele>
        <time>2023-11-22T14:00:40Z</time>
      </trkpt>
      <trkpt lat="50.01293" lon="2.35127">
        <ele>125.8</ele>
        <time>2023-11-22T14:00:41Z</time>
      </trkpt>
      <trkpt lat="50.01294" lon="2.35128">
        <ele>125.8</ele>
        <time>2023-11-22T14:00:42Z</time>
      </trkpt>
      <trkpt lat="50.01295" lon="2.35128">
        <ele>125.9</ele>
        <time>2023-11-22T14:00:43Z</time>
      </trkpt>
      <trkpt lat="50.01296" lon="2.35128">
        <ele>125.9</ele>
        <time>2023-11-22T14:00:44Z</time>
      </trkpt>
      <trkpt lat="50.01297" lon="2.35128">
        <ele>125.9</ele>
        <time>2023-11-22T14:00:45Z</time>
      </trkpt>
      <trkpt lat="50.01298" lon="2.35129">
        <ele>126</ele>
        <time>2023-11-22T14:00:46Z</time>
      </trkpt>
      <trkpt lat="50.01299" lon="2.35129">
        <ele>126</ele>
        <time>2023-11-22T14:00:47Z</time>
      </trkpt>
      <trkpt lat="50.013" lon="2.35129">
        <ele>126</ele>
        <time>2023-11-22T14:00:48Z</time>
      </trkpt>
      <trkpt lat="50.01301" lon="2.3513">
        <ele>126.1</ele>
        <time>2023-11-22T14:00:49Z</time>
      </trkpt>
      <trkpt lat="50.01301" lon="2.3513">
        <ele>126.1</ele>
        <time>2023-11-22T14:00:50Z</time>
      </trkpt>
      <trkpt lat="50.01302" lon="2.35131">
        <ele>126.1</ele>
        <time>2023-11-22T14:00:51Z</time>
      </trkpt>
      <trkpt lat="50.01303" lon="2.35131">
        <ele>126.2</ele>
        <time>2023-11-22T14:00:52Z</time>
      </trkpt>
      <trkpt lat="50.01304" lon="2.35131">
        <ele>126.2</ele>
        <time>2023-11-22T14:00:53Z</time>
      </trkpt>
      <trkpt lat="50.01305" lon="2.35132">
        <ele>126.2</ele>
        <time>2023-11-22T14:00:54Z</time>
      </trkpt>
      <trkpt lat="50.01306" lon="2.35132">
        <ele>126.2</ele>
        <time>2023-11-22T14:00:55Z</time>
      </trkpt>
      <trkpt lat="50.01307" lon="2.35133">
        <ele>126.3</ele>
        <time>2023-11-22T14:00:56Z</time>
      </trkpt>
      <trkpt lat="50.01308" lon="2.35133">
        <ele>126.3</ele>
        <time>2023-11-22T14:00:57Z</time>
      </trkpt>
      <trkpt lat="50.01309" lon="2.35134">
        <ele>126.3</ele>
        <time>2023-11-22T14:00:58Z</time>
      </trkpt>
      <trkpt lat="50.0131" lon="2.35134">
        <ele>126.3</ele>
        <time>2023-11-22T14:00:59Z</time>
      </trkpt>
      <trkpt lat="50.01311" lon="2.35135">
        <ele>126.4</ele>
        <time>2023-11-22T14:01:00Z</time>
      </trkpt>
      <trkpt lat="50.01312" lon="2.35135">
        <ele>126.4</ele>
        <time>2023-11-22T14:01:01Z</time>
      </trkpt>
      <trkpt lat="50.01312" lon="2.35136">
        <ele>126.4</ele>
        <time>2023-11-22T14:01:02Z</time>
      </trkpt>
      <trkpt lat="50.01313" lon="2.35136">
        <ele>126.4</ele>
        <time>2023-11-22T14:01:03Z</time>
      </trkpt>
      <trkpt lat="50.01314" lon="2.35137">
        <ele>126.4</ele>
        <time>2023-11-22T14:01:04Z</time>
      </trkpt>
      <trkpt lat="50.01315" lon="2.35137">
        <ele>126.5</ele>
        <time>2023-11-22T14:01:05Z</time>
      </trkpt>
      <trkpt lat="50.01317" lon="2.35138">
        <ele>126.5</ele>
        <time>2023-11-22T14:01:06Z</time>
      </trkpt>
      <trkpt lat="50.01318" lon="2.35138">
        <ele>126.5</ele>
        <time>2023-11-22T14:01:07Z</time>
      </trkpt>
      <trkpt lat="50.01319" lon="2.35138">
        <ele>126.5</ele>
        <time>2023-11-22T14:01:08Z</time>
      </trkpt>
      <trkpt lat="50.0132" lon="2.35138">
        <ele>126.5</ele>
        <time>2023-11-22T14:01:09Z</time>
      </trkpt>
      <trkpt lat="50.01321" lon="2.35139">
        <ele>126.6</ele>
        <time>2023-11-22T14:01:10Z</time>
      </trkpt>
      <trkpt lat="50.01322" lon="2.35139">
        <ele>126.6</ele>
        <time>2023-11-22T14:01:11Z</time>
      </trkpt>
      <trkpt lat="50.01323" lon="2.3514">
        <ele>126.6</ele>
        <time>2023-11-22T14:01:12Z</time>
      </trkpt>
      <trkpt lat="50.01324" lon="2.3514">
        <ele>126.6</ele>
        <time>2023-11-22T14:01:13Z</time>
      </trkpt>
      <trkpt lat="50.01325" lon="2.3514">
        <ele>126.6</ele>
        <time>2023-11-22T14:01:14Z</time>
      </trkpt>
      <trkpt lat="50.01326" lon="2.35141">
        <ele>126.6</ele>
        <time>2023-11-22T14:01:15Z</time>
      </trkpt>
      <trkpt lat="50.01327" lon="2.35141">
        <ele>126.6</ele>
        <time>2023-11-22T14:01:16Z</time>
      </trkpt>
      <trkpt lat="50.01328" lon="2.35141">
        <ele>126.7</ele>
        <time>2023-11-22T14:01:17Z</time>
      </trkpt>
      <trkpt lat="50.01329" lon="2.35142">
        <ele>126.7</ele>
        <time>2023-11-22T14:01:18Z</time>
      </trkpt>
      <trkpt lat="50.0133" lon="2.35142">
        <ele>126.7</ele>
        <time>2023-11-22T14:01:19Z</time>
      </trkpt>
      <trkpt lat="50.01331" lon="2.35143">
        <ele>126.7</ele>
        <time>2023-11-22T14:01:20Z</time>
      </trkpt>
      <trkpt lat="50.01333" lon="2.35143">
        <ele>126.7</ele>
        <time>2023-11-22T14:01:21Z</time>
      </trkpt>
      <trkpt lat="50.01333" lon="2.35143">
        <ele>126.7</ele>
        <time>2023-11-22T14:01:22Z</time>
      </trkpt>
      <trkpt lat="50.01334" lon="2.35143">
        <ele>126.8</ele>
        <time>2023-11-22T14:01:23Z</time>
      </trkpt>
      <trkpt lat="50.01335" lon="2.35143">
        <ele>126.8</ele>
        <time>2023-11-22T14:01:24Z</time>
      </trkpt>
      <trkpt lat="50.01336" lon="2.35144">
        <ele>126.8</ele>
        <time>2023-11-22T14:01:25Z</time>
      </trkpt>
      <trkpt lat="50.01338" lon="2.35144">
        <ele>126.8</ele>
        <time>2023-11-22T14:01:26Z</time>
      </trkpt>
      <trkpt lat="50.01339" lon="2.35144">
        <ele>126.8</ele>
        <time>2023-11-22T14:01:27Z</time>
      </trkpt>
      <trkpt lat="50.0134" lon="2.35144">
        <ele>126.8</ele>
        <time>2023-11-22T14:01:28Z</time>
      </trkpt>
      <trkpt lat="50.01341" lon="2.35144">
        <ele>126.8</ele>
        <time>2023-11-22T14:01:29Z</time>
      </trkpt>
      <trkpt lat="50.01342" lon="2.35144">
        <ele>126.9</ele>
        <time>2023-11-22T14:01:30Z</time>
      </trkpt>
      <trkpt lat="50.01343" lon="2.35145">
        <ele>126.9</ele>
        <time>2023-11-22T14:01:31Z</time>
      </trkpt>
      <trkpt lat="50.01344" lon="2.35145">
        <ele>126.9</ele>
        <time>2023-11-22T14:01:32Z</time>
      </trkpt>
      <trkpt lat="50.01345" lon="2.35145">
        <ele>126.9</ele>
        <time>2023-11-22T14:01:33Z</time>
      </trkpt>
      <trkpt lat="50.01346" lon="2.35145">
        <ele>126.9</ele>
        <time>2023-11-22T14:01:34Z</time>
      </trkpt>
      <trkpt lat="50.01347" lon="2.35145">
        <ele>127</ele>
        <time>2023-11-22T14:01:35Z</time>
      </trkpt>
      <trkpt lat="50.01348" lon="2.35146">
        <ele>127</ele>
        <time>2023-11-22T14:01:36Z</time>
      </trkpt>
      <trkpt lat="50.01349" lon="2.35146">
        <ele>127</ele>
        <time>2023-11-22T14:01:37Z</time>
      </trkpt>
      <trkpt lat="50.0135" lon="2.35146">
        <ele>127</ele>
        <time>2023-11-22T14:01:38Z</time>
      </trkpt>
      <trkpt lat="50.01351" lon="2.35146">
        <ele>127.1</ele>
        <time>2023-11-22T14:01:39Z</time>
      </trkpt>
      <trkpt lat="50.01351" lon="2.35146">
        <ele>127.1</ele>
        <time>2023-11-22T14:01:40Z</time>
      </trkpt>
      <trkpt lat="50.01352" lon="2.35146">
        <ele>127.1</ele>
        <time>2023-11-22T14:01:41Z</time>
      </trkpt>
      <trkpt lat="50.01353" lon="2.35146">
        <ele>127.1</ele>
        <time>2023-11-22T14:01:42Z</time>
      </trkpt>
      <trkpt lat="50.01354" lon="2.35147">
        <ele>127.1</ele>
        <time>2023-11-22T14:01:43Z</time>
      </trkpt>
      <trkpt lat="50.01354" lon="2.35147">
        <ele>127.1</ele>
        <time>2023-11-22T14:01:44Z</time>
      </trkpt>
      <trkpt lat="50.01355" lon="2.35147">
        <ele>127.2</ele>
        <time>2023-11-22T14:01:45Z</time>
      </trkpt>
      <trkpt lat="50.01356" lon="2.35147">
        <ele>127.2</ele>
        <time>2023-11-22T14:01:46Z</time>
      </trkpt>
      <trkpt lat="50.01357" lon="2.35148">
        <ele>127.2</ele>
        <time>2023-11-22T14:01:47Z</time>
      </trkpt>
      <trkpt lat="50.01357" lon="2.35148">
        <ele>127.2</ele>
        <time>2023-11-22T14:01:48Z</time>
      </trkpt>
      <trkpt lat="50.01358" lon="2.35148">
        <ele>127.2</ele>
        <time>2023-11-22T14:01:49Z</time>
      </trkpt>
      <trkpt lat="50.01359" lon="2.35149">
        <ele>127.3</ele>
        <time>2023-11-22T14:01:50Z</time>
      </trkpt>
      <trkpt lat="50.01359" lon="2.35149">
        <ele>127.3</ele>
        <time>2023-11-22T14:01:51Z</time>
      </trkpt>
      <trkpt lat="50.0136" lon="2.35149">
        <ele>127.3</ele>
        <time>2023-11-22T14:01:52Z</time>
      </trkpt>
      <trkpt lat="50.0136" lon="2.35149">
        <ele>127.3</ele>
        <time>2023-11-22T14:01:53Z</time>
      </trkpt>
      <trkpt lat="50.01361" lon="2.35149">
        <ele>127.3</ele>
        <time>2023-11-22T14:01:54Z</time>
      </trkpt>
      <trkpt lat="50.01361" lon="2.35149">
        <ele>127.3</ele>
        <time>2023-11-22T14:01:55Z</time>
      </trkpt>
      <trkpt lat="50.01362" lon="2.35149">
        <ele>127.3</ele>
        <time>2023-11-22T14:01:56Z</time>
      </trkpt>
      <trkpt lat="50.01363" lon="2.3515">
        <ele>127.3</ele>
        <time>2023-11-22T14:01:57Z</time>
      </trkpt>
      <trkpt lat="50.01363" lon="2.3515">
        <ele>127.3</ele>
        <time>2023-11-22T14:01:58Z</time>
      </trkpt>
      <trkpt lat="50.01363" lon="2.35149">
        <ele>127.4</ele>
        <time>2023-11-22T14:01:59Z</time>
      </trkpt>
      <trkpt lat="50.01364" lon="2.35149">
        <ele>127.4</ele>
        <time>2023-11-22T14:02:00Z</time>
      </trkpt>
      <trkpt lat="50.01365" lon="2.35148">
        <ele>127.4</ele>
        <time>2023-11-22T14:02:01Z</time>
      </trkpt>
      <trkpt lat="50.01365" lon="2.35147">
        <ele>127.4</ele>
        <time>2023-11-22T14:02:02Z</time>
      </trkpt>
      <trkpt lat="50.01365" lon="2.35145">
        <ele>127.4</ele>
        <time>2023-11-22T14:02:03Z</time>
      </trkpt>
      <trkpt lat="50.01365" lon="2.35144">
        <ele>127.4</ele>
        <time>2023-11-22T14:02:04Z</time>
      </trkpt>
      <trkpt lat="50.01365" lon="2.35143">
        <ele>127.5</ele>
        <time>2023-11-22T14:02:05Z</time>
      </trkpt>
      <trkpt lat="50.01366" lon="2.35142">
        <ele>127.5</ele>
        <time>2023-11-22T14:02:06Z</time>
      </trkpt>
      <trkpt lat="50.01366" lon="2.35141">
        <ele>127.5</ele>
        <time>2023-11-22T14:02:07Z</time>
      </trkpt>
      <trkpt lat="50.01366" lon="2.35141">
        <ele>127.5</ele>
        <time>2023-11-22T14:02:08Z</time>
      </trkpt>
      <trkpt lat="50.01367" lon="2.35141">
        <ele>127.5</ele>
        <time>2023-11-22T14:02:09Z</time>
      </trkpt>
      <trkpt lat="50.01367" lon="2.35142">
        <ele>127.5</ele>
        <time>2023-11-22T14:02:10Z</time>
      </trkpt>
      <trkpt lat="50.01367" lon="2.35142">
        <ele>127.5</ele>
        <time>2023-11-22T14:02:11Z</time>
      </trkpt>
      <trkpt lat="50.01367" lon="2.35142">
        <ele>127.5</ele>
        <time>2023-11-22T14:02:12Z</time>
      </trkpt>
      <trkpt lat="50.01367" lon="2.35143">
        <ele>127.5</ele>
        <time>2023-11-22T14:02:13Z</time>
      </trkpt>
      <trkpt lat="50.01367" lon="2.35143">
        <ele>127.5</ele>
        <time>2023-11-22T14:02:14Z</time>
      </trkpt>
      <trkpt lat="50.01367" lon="2.35143">
        <ele>127.5</ele>
        <time>2023-11-22T14:02:15Z</time>
      </trkpt>
      <trkpt lat="50.01367" lon="2.35143">
        <ele>127.5</ele>
        <time>2023-11-22T14:02:16Z</time>
      </trkpt>
      <trkpt lat="50.01367" lon="2.35143">
        <ele>127.5</ele>
        <time>2023-11-22T14:02:17Z</time>
      </trkpt>
      <trkpt lat="50.01367" lon="2.35143">
        <ele>127.5</ele>
        <time>2023-11-22T14:02:18Z</time>
      </trkpt>
      <trkpt lat="50.01367" lon="2.35143">
        <ele>127.5</ele>
        <time>2023-11-22T14:02:19Z</time>
      </trkpt>
      <trkpt lat="50.01367" lon="2.35143">
        <ele>127.5</ele>
        <time>2023-11-22T14:02:20Z</time>
      </trkpt>
      <trkpt lat="50.01367" lon="2.35143">
        <ele>127.5</ele>
        <time>2023-11-22T14:02:21Z</time>
      </trkpt>
      <trkpt lat="50.01367" lon="2.35143">
        <ele>127.5</ele>
        <time>2023-11-22T14:02:22Z</time>
      </trkpt>
      <trkpt lat="50.01367" lon="2.35143">
        <ele>127.5</ele>
        <time>2023-11-22T14:02:23Z</time>
      </trkpt>
      <trkpt lat="50.01365" lon="2.35147">
        <ele>127.6</ele>
        <time>2023-11-22T14:02:59Z</time>
      </trkpt>
      <trkpt lat="50.01365" lon="2.35148">
        <ele>127.6</ele>
        <time>2023-11-22T14:03:00Z</time>
      </trkpt>
      <trkpt lat="50.01366" lon="2.35148">
        <ele>127.6</ele>
        <time>2023-11-22T14:03:01Z</time>
      </trkpt>
      <trkpt lat="50.01367" lon="2.35148">
        <ele>127.6</ele>
        <time>2023-11-22T14:03:02Z</time>
      </trkpt>
      <trkpt lat="50.01368" lon="2.35147">
        <ele>127.7</ele>
        <time>2023-11-22T14:03:03Z</time>
      </trkpt>
      <trkpt lat="50.01369" lon="2.35147">
        <ele>127.7</ele>
        <time>2023-11-22T14:03:04Z</time>
      </trkpt>
      <trkpt lat="50.0137" lon="2.35147">
        <ele>127.7</ele>
        <time>2023-11-22T14:03:05Z</time>
      </trkpt>
      <trkpt lat="50.0137" lon="2.35147">
        <ele>127.7</ele>
        <time>2023-11-22T14:03:06Z</time>
      </trkpt>
      <trkpt lat="50.01371" lon="2.35147">
        <ele>127.7</ele>
        <time>2023-11-22T14:03:07Z</time>
      </trkpt>
      <trkpt lat="50.01372" lon="2.35147">
        <ele>127.8</ele>
        <time>2023-11-22T14:03:08Z</time>
      </trkpt>
      <trkpt lat="50.01372" lon="2.35147">
        <ele>127.8</ele>
        <time>2023-11-22T14:03:09Z</time>
      </trkpt>
      <trkpt lat="50.01373" lon="2.35148">
        <ele>127.8</ele>
        <time>2023-11-22T14:03:10Z</time>
      </trkpt>
      <trkpt lat="50.01373" lon="2.35148">
        <ele>127.8</ele>
        <time>2023-11-22T14:03:11Z</time>
      </trkpt>
      <trkpt lat="50.01374" lon="2.35149">
        <ele>127.8</ele>
        <time>2023-11-22T14:03:12Z</time>
      </trkpt>
      <trkpt lat="50.01375" lon="2.35149">
        <ele>127.8</ele>
        <time>2023-11-22T14:03:13Z</time>
      </trkpt>
      <trkpt lat="50.01375" lon="2.3515">
        <ele>127.8</ele>
        <time>2023-11-22T14:03:14Z</time>
      </trkpt>
      <trkpt lat="50.01376" lon="2.35151">
        <ele>127.9</ele>
        <time>2023-11-22T14:03:15Z</time>
      </trkpt>
      <trkpt lat="50.01377" lon="2.35151">
        <ele>127.9</ele>
        <time>2023-11-22T14:03:16Z</time>
      </trkpt>
      <trkpt lat="50.01377" lon="2.35152">
        <ele>127.9</ele>
        <time>2023-11-22T14:03:17Z</time>
      </trkpt>
      <trkpt lat="50.01378" lon="2.35152">
        <ele>127.9</ele>
        <time>2023-11-22T14:03:18Z</time>
      </trkpt>
      <trkpt lat="50.01378" lon="2.35153">
        <ele>127.9</ele>
        <time>2023-11-22T14:03:19Z</time>
      </trkpt>
      <trkpt lat="50.01379" lon="2.35154">
        <ele>127.9</ele>
        <time>2023-11-22T14:03:20Z</time>
      </trkpt>
      <trkpt lat="50.01379" lon="2.35155">
        <ele>127.9</ele>
        <time>2023-11-22T14:03:21Z</time>
      </trkpt>
      <trkpt lat="50.0138" lon="2.35155">
        <ele>127.9</ele>
        <time>2023-11-22T14:03:22Z</time>
      </trkpt>
      <trkpt lat="50.0138" lon="2.35156">
        <ele>127.9</ele>
        <time>2023-11-22T14:03:23Z</time>
      </trkpt>
      <trkpt lat="50.01381" lon="2.35156">
        <ele>127.9</ele>
        <time>2023-11-22T14:03:24Z</time>
      </trkpt>
      <trkpt lat="50.01381" lon="2.35156">
        <ele>127.9</ele>
        <time>2023-11-22T14:03:25Z</time>
      </trkpt>
      <trkpt lat="50.01382" lon="2.35156">
        <ele>128</ele>
        <time>2023-11-22T14:03:26Z</time>
      </trkpt>
      <trkpt lat="50.01382" lon="2.35157">
        <ele>128</ele>
        <time>2023-11-22T14:03:27Z</time>
      </trkpt>
      <trkpt lat="50.01383" lon="2.35157">
        <ele>128</ele>
        <time>2023-11-22T14:03:28Z</time>
      </trkpt>
      <trkpt lat="50.01383" lon="2.35157">
        <ele>128</ele>
        <time>2023-11-22T14:03:29Z</time>
      </trkpt>
      <trkpt lat="50.01384" lon="2.35157">
        <ele>128</ele>
        <time>2023-11-22T14:03:30Z</time>
      </trkpt>
      <trkpt lat="50.01384" lon="2.35158">
        <ele>128</ele>
        <time>2023-11-22T14:03:31Z</time>
      </trkpt>
      <trkpt lat="50.01385" lon="2.35158">
        <ele>128</ele>
        <time>2023-11-22T14:03:32Z</time>
      </trkpt>
      <trkpt lat="50.01385" lon="2.35158">
        <ele>128</ele>
        <time>2023-11-22T14:03:33Z</time>
      </trkpt>
      <trkpt lat="50.01385" lon="2.35159">
        <ele>128</ele>
        <time>2023-11-22T14:03:34Z</time>
      </trkpt>
      <trkpt lat="50.01386" lon="2.35159">
        <ele>128</ele>
        <time>2023-11-22T14:03:35Z</time>
      </trkpt>
      <trkpt lat="50.01386" lon="2.35159">
        <ele>128</ele>
        <time>2023-11-22T14:03:36Z</time>
      </trkpt>
      <trkpt lat="50.01387" lon="2.35159">
        <ele>128</ele>
        <time>2023-11-22T14:03:37Z</time>
      </trkpt>
      <trkpt lat="50.01387" lon="2.35159">
        <ele>128</ele>
        <time>2023-11-22T14:03:38Z</time>
      </trkpt>
      <trkpt lat="50.01387" lon="2.35159">
        <ele>128</ele>
        <time>2023-11-22T14:03:39Z</time>
      </trkpt>
      <trkpt lat="50.01388" lon="2.35159">
        <ele>128</ele>
        <time>2023-11-22T14:03:40Z</time>
      </trkpt>
      <trkpt lat="50.01388" lon="2.35159">
        <ele>128</ele>
        <time>2023-11-22T14:03:41Z</time>
      </trkpt>
      <trkpt lat="50.01388" lon="2.35159">
        <ele>128</ele>
        <time>2023-11-22T14:03:42Z</time>
      </trkpt>
      <trkpt lat="50.01388" lon="2.35159">
        <ele>128</ele>
        <time>2023-11-22T14:03:43Z</time>
      </trkpt>
      <trkpt lat="50.01388" lon="2.35159">
        <ele>128</ele>
        <time>2023-11-22T14:03:44Z</time>
      </trkpt>
      <trkpt lat="50.01388" lon="2.35158">
        <ele>128</ele>
        <time>2023-11-22T14:03:45Z</time>
      </trkpt>
      <trkpt lat="50.01388" lon="2.35158">
        <ele>128</ele>
        <time>2023-11-22T14:03:46Z</time>
      </trkpt>
      <trkpt lat="50.01388" lon="2.35158">
        <ele>128</ele>
        <time>2023-11-22T14:03:47Z</time>
      </trkpt>
      <trkpt lat="50.01388" lon="2.35158">
        <ele>128</ele>
        <time>2023-11-22T14:03:48Z</time>
      </trkpt>
      <trkpt lat="50.01388" lon="2.35158">
        <ele>128</ele>
        <time>2023-11-22T14:03:49Z</time>
      </trkpt>
      <trkpt lat="50.01388" lon="2.35158">
        <ele>128</ele>
        <time>2023-11-22T14:03:50Z</time>
      </trkpt>
      <trkpt lat="50.01388" lon="2.35158">
        <ele>128</ele>
        <time>2023-11-22T14:03:51Z</time>
      </trkpt>
      <trkpt lat="50.01388" lon="2.35158">
        <ele>128</ele>
        <time>2023-11-22T14:03:52Z</time>
      </trkpt>
      <trkpt lat="50.01388" lon="2.35158">
        <ele>128</ele>
        <time>2023-11-22T14:03:53Z</time>
      </trkpt>
      <trkpt lat="50.01388" lon="2.35158">
        <ele>128</ele>
        <time>2023-11-22T14:03:54Z</time>
      </trkpt>
      <trkpt lat="50.01388" lon="2.35158">
        <ele>128</ele>
        <time>2023-11-22T14:03:55Z</time>
      </trkpt>
      <trkpt lat="50.01391" lon="2.35159">
        <ele>128.1</ele>
        <time>2023-11-22T14:04:37Z</time>
      </trkpt>
      <trkpt lat="50.01392" lon="2.3516">
        <ele>128.1</ele>
        <time>2023-11-22T14:04:38Z</time>
      </trkpt>
      <trkpt lat="50.01393" lon="2.3516">
        <ele>128.1</ele>
        <time>2023-11-22T14:04:39Z</time>
      </trkpt>
      <trkpt lat="50.01395" lon="2.35161">
        <ele>128.1</ele>
        <time>2023-11-22T14:04:40Z</time>
      </trkpt>
      <trkpt lat="50.01396" lon="2.35161">
        <ele>128.1</ele>
        <time>2023-11-22T14:04:41Z</time>
      </trkpt>
      <trkpt lat="50.01397" lon="2.35162">
        <ele>128.1</ele>
        <time>2023-11-22T14:04:42Z</time>
      </trkpt>
      <trkpt lat="50.01398" lon="2.35162">
        <ele>128.1</ele>
        <time>2023-11-22T14:04:43Z</time>
      </trkpt>
      <trkpt lat="50.01399" lon="2.35163">
        <ele>128.1</ele>
        <time>2023-11-22T14:04:44Z</time>
      </trkpt>
      <trkpt lat="50.014" lon="2.35163">
        <ele>128.2</ele>
        <time>2023-11-22T14:04:45Z</time>
      </trkpt>
      <trkpt lat="50.01401" lon="2.35163">
        <ele>128.2</ele>
        <time>2023-11-22T14:04:46Z</time>
      </trkpt>
      <trkpt lat="50.01402" lon="2.35163">
        <ele>128.2</ele>
        <time>2023-11-22T14:04:47Z</time>
      </trkpt>
      <trkpt lat="50.01403" lon="2.35164">
        <ele>128.2</ele>
        <time>2023-11-22T14:04:48Z</time>
      </trkpt>
      <trkpt lat="50.01404" lon="2.35164">
        <ele>128.2</ele>
        <time>2023-11-22T14:04:49Z</time>
      </trkpt>
      <trkpt lat="50.01405" lon="2.35164">
        <ele>128.2</ele>
        <time>2023-11-22T14:04:50Z</time>
      </trkpt>
      <trkpt lat="50.01406" lon="2.35164">
        <ele>128.2</ele>
        <time>2023-11-22T14:04:51Z</time>
      </trkpt>
      <trkpt lat="50.01406" lon="2.35165">
        <ele>128.2</ele>
        <time>2023-11-22T14:04:52Z</time>
      </trkpt>
      <trkpt lat="50.01407" lon="2.35165">
        <ele>128.2</ele>
        <time>2023-11-22T14:04:53Z</time>
      </trkpt>
      <trkpt lat="50.01408" lon="2.35165">
        <ele>128.2</ele>
        <time>2023-11-22T14:04:54Z</time>
      </trkpt>
      <trkpt lat="50.01409" lon="2.35165">
        <ele>128.2</ele>
        <time>2023-11-22T14:04:55Z</time>
      </trkpt>
      <trkpt lat="50.01411" lon="2.35165">
        <ele>128.2</ele>
        <time>2023-11-22T14:04:56Z</time>
      </trkpt>
      <trkpt lat="50.01412" lon="2.35166">
        <ele>128.2</ele>
        <time>2023-11-22T14:04:57Z</time>
      </trkpt>
      <trkpt lat="50.01413" lon="2.35166">
        <ele>128.2</ele>
        <time>2023-11-22T14:04:58Z</time>
      </trkpt>
      <trkpt lat="50.01414" lon="2.35166">
        <ele>128.2</ele>
        <time>2023-11-22T14:04:59Z</time>
      </trkpt>
      <trkpt lat="50.01415" lon="2.35166">
        <ele>128.2</ele>
        <time>2023-11-22T14:05:00Z</time>
      </trkpt>
      <trkpt lat="50.01416" lon="2.35167">
        <ele>128.2</ele>
        <time>2023-11-22T14:05:01Z</time>
      </trkpt>
      <trkpt lat="50.01417" lon="2.35167">
        <ele>128.2</ele>
        <time>2023-11-22T14:05:02Z</time>
      </trkpt>
      <trkpt lat="50.01418" lon="2.35167">
        <ele>128.3</ele>
        <time>2023-11-22T14:05:03Z</time>
      </trkpt>
      <trkpt lat="50.01419" lon="2.35167">
        <ele>128.3</ele>
        <time>2023-11-22T14:05:04Z</time>
      </trkpt>
      <trkpt lat="50.0142" lon="2.35168">
        <ele>128.3</ele>
        <time>2023-11-22T14:05:05Z</time>
      </trkpt>
      <trkpt lat="50.01421" lon="2.35168">
        <ele>128.3</ele>
        <time>2023-11-22T14:05:06Z</time>
      </trkpt>
      <trkpt lat="50.01422" lon="2.35168">
        <ele>128.3</ele>
        <time>2023-11-22T14:05:07Z</time>
      </trkpt>
      <trkpt lat="50.01423" lon="2.35168">
        <ele>128.3</ele>
        <time>2023-11-22T14:05:08Z</time>
      </trkpt>
      <trkpt lat="50.01423" lon="2.35169">
        <ele>128.3</ele>
        <time>2023-11-22T14:05:09Z</time>
      </trkpt>
      <trkpt lat="50.01424" lon="2.35169">
        <ele>128.3</ele>
        <time>2023-11-22T14:05:10Z</time>
      </trkpt>
      <trkpt lat="50.01425" lon="2.3517">
        <ele>128.3</ele>
        <time>2023-11-22T14:05:11Z</time>
      </trkpt>
      <trkpt lat="50.01426" lon="2.3517">
        <ele>128.3</ele>
        <time>2023-11-22T14:05:12Z</time>
      </trkpt>
      <trkpt lat="50.01426" lon="2.3517">
        <ele>128.3</ele>
        <time>2023-11-22T14:05:13Z</time>
      </trkpt>
      <trkpt lat="50.01427" lon="2.35171">
        <ele>128.3</ele>
        <time>2023-11-22T14:05:14Z</time>
      </trkpt>
      <trkpt lat="50.01428" lon="2.35171">
        <ele>128.3</ele>
        <time>2023-11-22T14:05:15Z</time>
      </trkpt>
      <trkpt lat="50.01428" lon="2.35171">
        <ele>128.3</ele>
        <time>2023-11-22T14:05:16Z</time>
      </trkpt>
      <trkpt lat="50.01429" lon="2.35172">
        <ele>128.3</ele>
        <time>2023-11-22T14:05:17Z</time>
      </trkpt>
      <trkpt lat="50.0143" lon="2.35172">
        <ele>128.3</ele>
        <time>2023-11-22T14:05:18Z</time>
      </trkpt>
      <trkpt lat="50.01431" lon="2.35173">
        <ele>128.3</ele>
        <time>2023-11-22T14:05:19Z</time>
      </trkpt>
      <trkpt lat="50.01432" lon="2.35173">
        <ele>128.3</ele>
        <time>2023-11-22T14:05:20Z</time>
      </trkpt>
      <trkpt lat="50.01433" lon="2.35173">
        <ele>128.3</ele>
        <time>2023-11-22T14:05:21Z</time>
      </trkpt>
      <trkpt lat="50.01434" lon="2.35173">
        <ele>128.3</ele>
        <time>2023-11-22T14:05:22Z</time>
      </trkpt>
      <trkpt lat="50.01435" lon="2.35174">
        <ele>128.3</ele>
        <time>2023-11-22T14:05:23Z</time>
      </trkpt>
      <trkpt lat="50.01436" lon="2.35174">
        <ele>128.3</ele>
        <time>2023-11-22T14:05:24Z</time>
      </trkpt>
      <trkpt lat="50.01437" lon="2.35174">
        <ele>128.3</ele>
        <time>2023-11-22T14:05:25Z</time>
      </trkpt>
      <trkpt lat="50.01438" lon="2.35174">
        <ele>128.3</ele>
        <time>2023-11-22T14:05:26Z</time>
      </trkpt>
      <trkpt lat="50.01439" lon="2.35175">
        <ele>128.4</ele>
        <time>2023-11-22T14:05:27Z</time>
      </trkpt>
      <trkpt lat="50.01441" lon="2.35175">
        <ele>128.4</ele>
        <time>2023-11-22T14:05:28Z</time>
      </trkpt>
      <trkpt lat="50.01442" lon="2.35176">
        <ele>128.4</ele>
        <time>2023-11-22T14:05:29Z</time>
      </trkpt>
      <trkpt lat="50.01443" lon="2.35176">
        <ele>128.4</ele>
        <time>2023-11-22T14:05:30Z</time>
      </trkpt>
      <trkpt lat="50.01445" lon="2.35177">
        <ele>128.4</ele>
        <time>2023-11-22T14:05:31Z</time>
      </trkpt>
      <trkpt lat="50.01446" lon="2.35177">
        <ele>128.4</ele>
        <time>2023-11-22T14:05:32Z</time>
      </trkpt>
      <trkpt lat="50.01447" lon="2.35177">
        <ele>128.4</ele>
        <time>2023-11-22T14:05:33Z</time>
      </trkpt>
      <trkpt lat="50.01449" lon="2.35177">
        <ele>128.4</ele>
        <time>2023-11-22T14:05:34Z</time>
      </trkpt>
      <trkpt lat="50.0145" lon="2.35177">
        <ele>128.4</ele>
        <time>2023-11-22T14:05:35Z</time>
      </trkpt>
      <trkpt lat="50.0145" lon="2.35178">
        <ele>128.4</ele>
        <time>2023-11-22T14:05:36Z</time>
      </trkpt>
      <trkpt lat="50.01452" lon="2.35178">
        <ele>128.4</ele>
        <time>2023-11-22T14:05:37Z</time>
      </trkpt>
      <trkpt lat="50.01453" lon="2.35178">
        <ele>128.4</ele>
        <time>2023-11-22T14:05:38Z</time>
      </trkpt>
      <trkpt lat="50.01454" lon="2.35178">
        <ele>128.5</ele>
        <time>2023-11-22T14:05:39Z</time>
      </trkpt>
      <trkpt lat="50.01455" lon="2.35179">
        <ele>128.5</ele>
        <time>2023-11-22T14:05:40Z</time>
      </trkpt>
      <trkpt lat="50.01456" lon="2.35179">
        <ele>128.5</ele>
        <time>2023-11-22T14:05:41Z</time>
      </trkpt>
      <trkpt lat="50.01457" lon="2.35179">
        <ele>128.5</ele>
        <time>2023-11-22T14:05:42Z</time>
      </trkpt>
      <trkpt lat="50.01457" lon="2.3518">
        <ele>128.5</ele>
        <time>2023-11-22T14:05:43Z</time>
      </trkpt>
      <trkpt lat="50.01458" lon="2.3518">
        <ele>128.5</ele>
        <time>2023-11-22T14:05:44Z</time>
      </trkpt>
      <trkpt lat="50.01459" lon="2.3518">
        <ele>128.5</ele>
        <time>2023-11-22T14:05:45Z</time>
      </trkpt>
      <trkpt lat="50.0146" lon="2.35181">
        <ele>128.5</ele>
        <time>2023-11-22T14:05:46Z</time>
      </trkpt>
      <trkpt lat="50.01461" lon="2.35181">
        <ele>128.5</ele>
        <time>2023-11-22T14:05:47Z</time>
      </trkpt>
      <trkpt lat="50.01462" lon="2.35181">
        <ele>128.5</ele>
        <time>2023-11-22T14:05:48Z</time>
      </trkpt>
      <trkpt lat="50.01463" lon="2.35181">
        <ele>128.5</ele>
        <time>2023-11-22T14:05:49Z</time>
      </trkpt>
      <trkpt lat="50.01464" lon="2.35182">
        <ele>128.5</ele>
        <time>2023-11-22T14:05:50Z</time>
      </trkpt>
      <trkpt lat="50.01465" lon="2.35182">
        <ele>128.6</ele>
        <time>2023-11-22T14:05:51Z</time>
      </trkpt>
      <trkpt lat="50.01466" lon="2.35182">
        <ele>128.6</ele>
        <time>2023-11-22T14:05:52Z</time>
      </trkpt>
      <trkpt lat="50.01467" lon="2.35183">
        <ele>128.6</ele>
        <time>2023-11-22T14:05:53Z</time>
      </trkpt>
      <trkpt lat="50.01468" lon="2.35183">
        <ele>128.6</ele>
        <time>2023-11-22T14:05:54Z</time>
      </trkpt>
      <trkpt lat="50.01469" lon="2.35183">
        <ele>128.6</ele>
        <time>2023-11-22T14:05:55Z</time>
      </trkpt>
      <trkpt lat="50.0147" lon="2.35184">
        <ele>128.6</ele>
        <time>2023-11-22T14:05:56Z</time>
      </trkpt>
      <trkpt lat="50.01471" lon="2.35184">
        <ele>128.6</ele>
        <time>2023-11-22T14:05:57Z</time>
      </trkpt>
      <trkpt lat="50.01472" lon="2.35184">
        <ele>128.6</ele>
        <time>2023-11-22T14:05:58Z</time>
      </trkpt>
      <trkpt lat="50.01473" lon="2.35185">
        <ele>128.6</ele>
        <time>2023-11-22T14:05:59Z</time>
      </trkpt>
      <trkpt lat="50.01474" lon="2.35185">
        <ele>128.7</ele>
        <time>2023-11-22T14:06:00Z</time>
      </trkpt>
      <trkpt lat="50.01475" lon="2.35186">
        <ele>128.7</ele>
        <time>2023-11-22T14:06:01Z</time>
      </trkpt>
      <trkpt lat="50.01476" lon="2.35186">
        <ele>128.7</ele>
        <time>2023-11-22T14:06:02Z</time>
      </trkpt>
      <trkpt lat="50.01477" lon="2.35187">
        <ele>128.7</ele>
        <time>2023-11-22T14:06:03Z</time>
      </trkpt>
      <trkpt lat="50.01478" lon="2.35187">
        <ele>128.7</ele>
        <time>2023-11-22T14:06:04Z</time>
      </trkpt>
      <trkpt lat="50.0148" lon="2.35187">
        <ele>128.7</ele>
        <time>2023-11-22T14:06:05Z</time>
      </trkpt>
      <trkpt lat="50.01481" lon="2.35188">
        <ele>128.8</ele>
        <time>2023-11-22T14:06:06Z</time>
      </trkpt>
      <trkpt lat="50.01482" lon="2.35188">
        <ele>128.8</ele>
        <time>2023-11-22T14:06:07Z</time>
      </trkpt>
      <trkpt lat="50.01484" lon="2.35189">
        <ele>128.9</ele>
        <time>2023-11-22T14:06:08Z</time>
      </trkpt>
      <trkpt lat="50.01485" lon="2.35189">
        <ele>128.9</ele>
        <time>2023-11-22T14:06:09Z</time>
      </trkpt>
      <trkpt lat="50.01486" lon="2.35189">
        <ele>128.9</ele>
        <time>2023-11-22T14:06:10Z</time>
      </trkpt>
      <trkpt lat="50.01487" lon="2.35189">
        <ele>128.9</ele>
        <time>2023-11-22T14:06:11Z</time>
      </trkpt>
      <trkpt lat="50.01488" lon="2.35189">
        <ele>128.9</ele>
        <time>2023-11-22T14:06:12Z</time>
      </trkpt>
      <trkpt lat="50.01489" lon="2.3519">
        <ele>129</ele>
        <time>2023-11-22T14:06:13Z</time>
      </trkpt>
      <trkpt lat="50.0149" lon="2.3519">
        <ele>129</ele>
        <time>2023-11-22T14:06:14Z</time>
      </trkpt>
      <trkpt lat="50.01491" lon="2.3519">
        <ele>129</ele>
        <time>2023-11-22T14:06:15Z</time>
      </trkpt>
      <trkpt lat="50.01492" lon="2.35191">
        <ele>129.1</ele>
        <time>2023-11-22T14:06:16Z</time>
      </trkpt>
      <trkpt lat="50.01494" lon="2.35191">
        <ele>129.1</ele>
        <time>2023-11-22T14:06:17Z</time>
      </trkpt>
      <trkpt lat="50.01495" lon="2.35191">
        <ele>129.1</ele>
        <time>2023-11-22T14:06:18Z</time>
      </trkpt>
      <trkpt lat="50.01496" lon="2.35192">
        <ele>129.1</ele>
        <time>2023-11-22T14:06:19Z</time>
      </trkpt>
      <trkpt lat="50.01497" lon="2.35192">
        <ele>129.1</ele>
        <time>2023-11-22T14:06:20Z</time>
      </trkpt>
      <trkpt lat="50.01498" lon="2.35192">
        <ele>129.2</ele>
        <time>2023-11-22T14:06:21Z</time>
      </trkpt>
      <trkpt lat="50.01499" lon="2.35193">
        <ele>129.2</ele>
        <time>2023-11-22T14:06:22Z</time>
      </trkpt>
      <trkpt lat="50.015" lon="2.35194">
        <ele>129.2</ele>
        <time>2023-11-22T14:06:23Z</time>
      </trkpt>
      <trkpt lat="50.01501" lon="2.35194">
        <ele>129.2</ele>
        <time>2023-11-22T14:06:24Z</time>
      </trkpt>
      <trkpt lat="50.01502" lon="2.35195">
        <ele>129.2</ele>
        <time>2023-11-22T14:06:25Z</time>
      </trkpt>
      <trkpt lat="50.01503" lon="2.35195">
        <ele>129.2</ele>
        <time>2023-11-22T14:06:26Z</time>
      </trkpt>
      <trkpt lat="50.01505" lon="2.35196">
        <ele>129.2</ele>
        <time>2023-11-22T14:06:27Z</time>
      </trkpt>
      <trkpt lat="50.01505" lon="2.35196">
        <ele>129.2</ele>
        <time>2023-11-22T14:06:28Z</time>
      </trkpt>
      <trkpt lat="50.01506" lon="2.35197">
        <ele>129.3</ele>
        <time>2023-11-22T14:06:29Z</time>
      </trkpt>
      <trkpt lat="50.01507" lon="2.35197">
        <ele>129.3</ele>
        <time>2023-11-22T14:06:30Z</time>
      </trkpt>
      <trkpt lat="50.01508" lon="2.35197">
        <ele>129.3</ele>
        <time>2023-11-22T14:06:31Z</time>
      </trkpt>
      <trkpt lat="50.01509" lon="2.35198">
        <ele>129.3</ele>
        <time>2023-11-22T14:06:32Z</time>
      </trkpt>
      <trkpt lat="50.0151" lon="2.35198">
        <ele>129.3</ele>
        <time>2023-11-22T14:06:33Z</time>
      </trkpt>
      <trkpt lat="50.01511" lon="2.35199">
        <ele>129.3</ele>
        <time>2023-11-22T14:06:34Z</time>
      </trkpt>
      <trkpt lat="50.01513" lon="2.35199">
        <ele>129.3</ele>
        <time>2023-11-22T14:06:35Z</time>
      </trkpt>
      <trkpt lat="50.01514" lon="2.352">
        <ele>129.3</ele>
        <time>2023-11-22T14:06:36Z</time>
      </trkpt>
      <trkpt lat="50.01515" lon="2.352">
        <ele>129.3</ele>
        <time>2023-11-22T14:06:37Z</time>
      </trkpt>
      <trkpt lat="50.01516" lon="2.352">
        <ele>129.3</ele>
        <time>2023-11-22T14:06:38Z</time>
      </trkpt>
      <trkpt lat="50.01517" lon="2.35201">
        <ele>129.3</ele>
        <time>2023-11-22T14:06:39Z</time>
      </trkpt>
      <trkpt lat="50.01518" lon="2.35201">
        <ele>129.3</ele>
        <time>2023-11-22T14:06:40Z</time>
      </trkpt>
      <trkpt lat="50.01519" lon="2.35201">
        <ele>129.3</ele>
        <time>2023-11-22T14:06:41Z</time>
      </trkpt>
      <trkpt lat="50.0152" lon="2.35202">
        <ele>129.3</ele>
        <time>2023-11-22T14:06:42Z</time>
      </trkpt>
      <trkpt lat="50.01521" lon="2.35202">
        <ele>129.3</ele>
        <time>2023-11-22T14:06:43Z</time>
      </trkpt>
      <trkpt lat="50.01522" lon="2.35202">
        <ele>129.3</ele>
        <time>2023-11-22T14:06:44Z</time>
      </trkpt>
      <trkpt lat="50.01523" lon="2.35202">
        <ele>129.3</ele>
        <time>2023-11-22T14:06:45Z</time>
      </trkpt>
      <trkpt lat="50.01525" lon="2.35203">
        <ele>129.3</ele>
        <time>2023-11-22T14:06:46Z</time>
      </trkpt>
      <trkpt lat="50.01526" lon="2.35203">
        <ele>129.3</ele>
        <time>2023-11-22T14:06:47Z</time>
      </trkpt>
      <trkpt lat="50.01526" lon="2.35203">
        <ele>129.3</ele>
        <time>2023-11-22T14:06:48Z</time>
      </trkpt>
      <trkpt lat="50.01527" lon="2.35203">
        <ele>129.3</ele>
        <time>2023-11-22T14:06:49Z</time>
      </trkpt>
      <trkpt lat="50.01528" lon="2.35203">
        <ele>129.3</ele>
        <time>2023-11-22T14:06:50Z</time>
      </trkpt>
      <trkpt lat="50.01529" lon="2.35203">
        <ele>129.3</ele>
        <time>2023-11-22T14:06:51Z</time>
      </trkpt>
      <trkpt lat="50.0153" lon="2.35203">
        <ele>129.3</ele>
        <time>2023-11-22T14:06:52Z</time>
      </trkpt>
      <trkpt lat="50.01531" lon="2.35204">
        <ele>129.3</ele>
        <time>2023-11-22T14:06:53Z</time>
      </trkpt>
      <trkpt lat="50.01532" lon="2.35204">
        <ele>129.3</ele>
        <time>2023-11-22T14:06:54Z</time>
      </trkpt>
      <trkpt lat="50.01533" lon="2.35204">
        <ele>129.3</ele>
        <time>2023-11-22T14:06:55Z</time>
      </trkpt>
      <trkpt lat="50.01534" lon="2.35204">
        <ele>129.3</ele>
        <time>2023-11-22T14:06:56Z</time>
      </trkpt>
      <trkpt lat="50.01536" lon="2.35204">
        <ele>129.3</ele>
        <time>2023-11-22T14:06:57Z</time>
      </trkpt>
      <trkpt lat="50.01537" lon="2.35204">
        <ele>129.3</ele>
        <time>2023-11-22T14:06:58Z</time>
      </trkpt>
      <trkpt lat="50.01538" lon="2.35204">
        <ele>129.3</ele>
        <time>2023-11-22T14:06:59Z</time>
      </trkpt>
      <trkpt lat="50.01539" lon="2.35205">
        <ele>129.3</ele>
        <time>2023-11-22T14:07:00Z</time>
      </trkpt>
      <trkpt lat="50.0154" lon="2.35205">
        <ele>129.3</ele>
        <time>2023-11-22T14:07:01Z</time>
      </trkpt>
      <trkpt lat="50.01541" lon="2.35205">
        <ele>129.3</ele>
        <time>2023-11-22T14:07:02Z</time>
      </trkpt>
      <trkpt lat="50.01543" lon="2.35206">
        <ele>129.3</ele>
        <time>2023-11-22T14:07:03Z</time>
      </trkpt>
      <trkpt lat="50.01544" lon="2.35206">
        <ele>129.3</ele>
        <time>2023-11-22T14:07:04Z</time>
      </trkpt>
      <trkpt lat="50.01545" lon="2.35206">
        <ele>129.3</ele>
        <time>2023-11-22T14:07:05Z</time>
      </trkpt>
      <trkpt lat="50.01547" lon="2.35207">
        <ele>129.4</ele>
        <time>2023-11-22T14:07:06Z</time>
      </trkpt>
      <trkpt lat="50.01548" lon="2.35207">
        <ele>129.4</ele>
        <time>2023-11-22T14:07:07Z</time>
      </trkpt>
      <trkpt lat="50.01549" lon="2.35208">
        <ele>129.4</ele>
        <time>2023-11-22T14:07:08Z</time>
      </trkpt>
      <trkpt lat="50.0155" lon="2.35208">
        <ele>129.4</ele>
        <time>2023-11-22T14:07:09Z</time>
      </trkpt>
      <trkpt lat="50.01552" lon="2.35208">
        <ele>129.4</ele>
        <time>2023-11-22T14:07:10Z</time>
      </trkpt>
      <trkpt lat="50.01554" lon="2.35209">
        <ele>129.4</ele>
        <time>2023-11-22T14:07:11Z</time>
      </trkpt>
      <trkpt lat="50.01555" lon="2.35209">
        <ele>129.4</ele>
        <time>2023-11-22T14:07:12Z</time>
      </trkpt>
      <trkpt lat="50.01555" lon="2.35209">
        <ele>129.4</ele>
        <time>2023-11-22T14:07:13Z</time>
      </trkpt>
      <trkpt lat="50.01557" lon="2.35209">
        <ele>129.4</ele>
        <time>2023-11-22T14:07:14Z</time>
      </trkpt>
      <trkpt lat="50.01558" lon="2.35209">
        <ele>129.4</ele>
        <time>2023-11-22T14:07:15Z</time>
      </trkpt>
      <trkpt lat="50.0156" lon="2.3521">
        <ele>129.4</ele>
        <time>2023-11-22T14:07:16Z</time>
      </trkpt>
      <trkpt lat="50.01561" lon="2.3521">
        <ele>129.4</ele>
        <time>2023-11-22T14:07:17Z</time>
      </trkpt>
      <trkpt lat="50.01563" lon="2.3521">
        <ele>129.4</ele>
        <time>2023-11-22T14:07:18Z</time>
      </trkpt>
      <trkpt lat="50.01564" lon="2.3521">
        <ele>129.4</ele>
        <time>2023-11-22T14:07:19Z</time>
      </trkpt>
      <trkpt lat="50.01566" lon="2.3521">
        <ele>129.4</ele>
        <time>2023-11-22T14:07:20Z</time>
      </trkpt>
      <trkpt lat="50.01567" lon="2.35211">
        <ele>129.5</ele>
        <time>2023-11-22T14:07:21Z</time>
      </trkpt>
      <trkpt lat="50.01568" lon="2.35211">
        <ele>129.5</ele>
        <time>2023-11-22T14:07:22Z</time>
      </trkpt>
      <trkpt lat="50.01569" lon="2.35211">
        <ele>129.5</ele>
        <time>2023-11-22T14:07:23Z</time>
      </trkpt>
      <trkpt lat="50.0157" lon="2.35211">
        <ele>129.5</ele>
        <time>2023-11-22T14:07:24Z</time>
      </trkpt>
      <trkpt lat="50.01571" lon="2.35211">
        <ele>129.5</ele>
        <time>2023-11-22T14:07:25Z</time>
      </trkpt>
      <trkpt lat="50.01572" lon="2.35211">
        <ele>129.5</ele>
        <time>2023-11-22T14:07:26Z</time>
      </trkpt>
      <trkpt lat="50.01573" lon="2.35211">
        <ele>129.5</ele>
        <time>2023-11-22T14:07:27Z</time>
      </trkpt>
      <trkpt lat="50.01574" lon="2.35212">
        <ele>129.5</ele>
        <time>2023-11-22T14:07:28Z</time>
      </trkpt>
      <trkpt lat="50.01576" lon="2.35212">
        <ele>129.5</ele>
        <time>2023-11-22T14:07:29Z</time>
      </trkpt>
      <trkpt lat="50.01577" lon="2.35212">
        <ele>129.5</ele>
        <time>2023-11-22T14:07:30Z</time>
      </trkpt>
      <trkpt lat="50.01578" lon="2.35213">
        <ele>129.5</ele>
        <time>2023-11-22T14:07:31Z</time>
      </trkpt>
      <trkpt lat="50.0158" lon="2.35213">
        <ele>129.5</ele>
        <time>2023-11-22T14:07:32Z</time>
      </trkpt>
      <trkpt lat="50.01581" lon="2.35213">
        <ele>129.5</ele>
        <time>2023-11-22T14:07:33Z</time>
      </trkpt>
      <trkpt lat="50.01582" lon="2.35214">
        <ele>129.5</ele>
        <time>2023-11-22T14:07:34Z</time>
      </trkpt>
      <trkpt lat="50.01583" lon="2.35214">
        <ele>129.5</ele>
        <time>2023-11-22T14:07:35Z</time>
      </trkpt>
      <trkpt lat="50.01584" lon="2.35215">
        <ele>129.5</ele>
        <time>2023-11-22T14:07:36Z</time>
      </trkpt>
      <trkpt lat="50.01585" lon="2.35215">
        <ele>129.6</ele>
        <time>2023-11-22T14:07:37Z</time>
      </trkpt>
      <trkpt lat="50.01587" lon="2.35216">
        <ele>129.6</ele>
        <time>2023-11-22T14:07:38Z</time>
      </trkpt>
      <trkpt lat="50.01588" lon="2.35216">
        <ele>129.6</ele>
        <time>2023-11-22T14:07:39Z</time>
      </trkpt>
      <trkpt lat="50.01589" lon="2.35216">
        <ele>129.6</ele>
        <time>2023-11-22T14:07:40Z</time>
      </trkpt>
      <trkpt lat="50.01591" lon="2.35216">
        <ele>129.6</ele>
        <time>2023-11-22T14:07:41Z</time>
      </trkpt>
      <trkpt lat="50.01592" lon="2.35217">
        <ele>129.6</ele>
        <time>2023-11-22T14:07:42Z</time>
      </trkpt>
      <trkpt lat="50.01593" lon="2.35217">
        <ele>129.7</ele>
        <time>2023-11-22T14:07:43Z</time>
      </trkpt>
      <trkpt lat="50.01594" lon="2.35217">
        <ele>129.7</ele>
        <time>2023-11-22T14:07:44Z</time>
      </trkpt>
      <trkpt lat="50.01595" lon="2.35217">
        <ele>129.7</ele>
        <time>2023-11-22T14:07:45Z</time>
      </trkpt>
      <trkpt lat="50.01596" lon="2.35218">
        <ele>129.7</ele>
        <time>2023-11-22T14:07:46Z</time>
      </trkpt>
      <trkpt lat="50.01597" lon="2.35218">
        <ele>129.7</ele>
        <time>2023-11-22T14:07:47Z</time>
      </trkpt>
      <trkpt lat="50.01598" lon="2.35218">
        <ele>129.8</ele>
        <time>2023-11-22T14:07:48Z</time>
      </trkpt>
      <trkpt lat="50.01599" lon="2.35218">
        <ele>129.8</ele>
        <time>2023-11-22T14:07:49Z</time>
      </trkpt>
      <trkpt lat="50.016" lon="2.35219">
        <ele>129.8</ele>
        <time>2023-11-22T14:07:50Z</time>
      </trkpt>
      <trkpt lat="50.01601" lon="2.35219">
        <ele>129.8</ele>
        <time>2023-11-22T14:07:51Z</time>
      </trkpt>
      <trkpt lat="50.01602" lon="2.35219">
        <ele>129.8</ele>
        <time>2023-11-22T14:07:52Z</time>
      </trkpt>
      <trkpt lat="50.01603" lon="2.3522">
        <ele>129.8</ele>
        <time>2023-11-22T14:07:53Z</time>
      </trkpt>
      <trkpt lat="50.01604" lon="2.3522">
        <ele>129.9</ele>
        <time>2023-11-22T14:07:54Z</time>
      </trkpt>
      <trkpt lat="50.01605" lon="2.3522">
        <ele>129.9</ele>
        <time>2023-11-22T14:07:55Z</time>
      </trkpt>
      <trkpt lat="50.01606" lon="2.35221">
        <ele>129.9</ele>
        <time>2023-11-22T14:07:56Z</time>
      </trkpt>
      <trkpt lat="50.01607" lon="2.35221">
        <ele>129.9</ele>
        <time>2023-11-22T14:07:57Z</time>
      </trkpt>
      <trkpt lat="50.01608" lon="2.35221">
        <ele>129.9</ele>
        <time>2023-11-22T14:07:58Z</time>
      </trkpt>
      <trkpt lat="50.01609" lon="2.35221">
        <ele>129.9</ele>
        <time>2023-11-22T14:07:59Z</time>
      </trkpt>
      <trkpt lat="50.0161" lon="2.35222">
        <ele>129.9</ele>
        <time>2023-11-22T14:08:00Z</time>
      </trkpt>
      <trkpt lat="50.01611" lon="2.35222">
        <ele>129.9</ele>
        <time>2023-11-22T14:08:01Z</time>
      </trkpt>
      <trkpt lat="50.01613" lon="2.35223">
        <ele>129.9</ele>
        <time>2023-11-22T14:08:02Z</time>
      </trkpt>
      <trkpt lat="50.01614" lon="2.35223">
        <ele>129.9</ele>
        <time>2023-11-22T14:08:03Z</time>
      </trkpt>
      <trkpt lat="50.01615" lon="2.35223">
        <ele>129.9</ele>
        <time>2023-11-22T14:08:04Z</time>
      </trkpt>
      <trkpt lat="50.01616" lon="2.35223">
        <ele>130</ele>
        <time>2023-11-22T14:08:05Z</time>
      </trkpt>
      <trkpt lat="50.01617" lon="2.35224">
        <ele>130</ele>
        <time>2023-11-22T14:08:06Z</time>
      </trkpt>
      <trkpt lat="50.01619" lon="2.35224">
        <ele>130</ele>
        <time>2023-11-22T14:08:07Z</time>
      </trkpt>
      <trkpt lat="50.0162" lon="2.35225">
        <ele>130</ele>
        <time>2023-11-22T14:08:08Z</time>
      </trkpt>
      <trkpt lat="50.01622" lon="2.35225">
        <ele>130</ele>
        <time>2023-11-22T14:08:09Z</time>
      </trkpt>
      <trkpt lat="50.01623" lon="2.35226">
        <ele>130</ele>
        <time>2023-11-22T14:08:10Z</time>
      </trkpt>
      <trkpt lat="50.01624" lon="2.35226">
        <ele>130</ele>
        <time>2023-11-22T14:08:11Z</time>
      </trkpt>
      <trkpt lat="50.01625" lon="2.35226">
        <ele>130</ele>
        <time>2023-11-22T14:08:12Z</time>
      </trkpt>
      <trkpt lat="50.01625" lon="2.35226">
        <ele>130</ele>
        <time>2023-11-22T14:08:13Z</time>
      </trkpt>
      <trkpt lat="50.01626" lon="2.35227">
        <ele>130</ele>
        <time>2023-11-22T14:08:14Z</time>
      </trkpt>
      <trkpt lat="50.01627" lon="2.35227">
        <ele>130</ele>
        <time>2023-11-22T14:08:15Z</time>
      </trkpt>
      <trkpt lat="50.01628" lon="2.35228">
        <ele>130</ele>
        <time>2023-11-22T14:08:16Z</time>
      </trkpt>
      <trkpt lat="50.01629" lon="2.35228">
        <ele>130</ele>
        <time>2023-11-22T14:08:17Z</time>
      </trkpt>
      <trkpt lat="50.0163" lon="2.35228">
        <ele>130</ele>
        <time>2023-11-22T14:08:18Z</time>
      </trkpt>
      <trkpt lat="50.01631" lon="2.35228">
        <ele>130</ele>
        <time>2023-11-22T14:08:19Z</time>
      </trkpt>
      <trkpt lat="50.01632" lon="2.35229">
        <ele>130</ele>
        <time>2023-11-22T14:08:20Z</time>
      </trkpt>
      <trkpt lat="50.01633" lon="2.35229">
        <ele>130</ele>
        <time>2023-11-22T14:08:21Z</time>
      </trkpt>
      <trkpt lat="50.01634" lon="2.35229">
        <ele>130</ele>
        <time>2023-11-22T14:08:22Z</time>
      </trkpt>
      <trkpt lat="50.01636" lon="2.3523">
        <ele>130</ele>
        <time>2023-11-22T14:08:23Z</time>
      </trkpt>
      <trkpt lat="50.01637" lon="2.3523">
        <ele>130</ele>
        <time>2023-11-22T14:08:24Z</time>
      </trkpt>
      <trkpt lat="50.01638" lon="2.3523">
        <ele>130</ele>
        <time>2023-11-22T14:08:25Z</time>
      </trkpt>
      <trkpt lat="50.01639" lon="2.35231">
        <ele>130</ele>
        <time>2023-11-22T14:08:26Z</time>
      </trkpt>
      <trkpt lat="50.0164" lon="2.35231">
        <ele>130</ele>
        <time>2023-11-22T14:08:27Z</time>
      </trkpt>
      <trkpt lat="50.01641" lon="2.35231">
        <ele>130</ele>
        <time>2023-11-22T14:08:28Z</time>
      </trkpt>
      <trkpt lat="50.01642" lon="2.35232">
        <ele>130</ele>
        <time>2023-11-22T14:08:29Z</time>
      </trkpt>
      <trkpt lat="50.01644" lon="2.35233">
        <ele>130.1</ele>
        <time>2023-11-22T14:08:30Z</time>
      </trkpt>
      <trkpt lat="50.01645" lon="2.35233">
        <ele>130.1</ele>
        <time>2023-11-22T14:08:31Z</time>
      </trkpt>
      <trkpt lat="50.01646" lon="2.35233">
        <ele>130.1</ele>
        <time>2023-11-22T14:08:32Z</time>
      </trkpt>
      <trkpt lat="50.01648" lon="2.35234">
        <ele>130.1</ele>
        <time>2023-11-22T14:08:33Z</time>
      </trkpt>
      <trkpt lat="50.01649" lon="2.35235">
        <ele>130.1</ele>
        <time>2023-11-22T14:08:34Z</time>
      </trkpt>
      <trkpt lat="50.01649" lon="2.35235">
        <ele>130.1</ele>
        <time>2023-11-22T14:08:35Z</time>
      </trkpt>
      <trkpt lat="50.01651" lon="2.35236">
        <ele>130.1</ele>
        <time>2023-11-22T14:08:36Z</time>
      </trkpt>
      <trkpt lat="50.01652" lon="2.35236">
        <ele>130.1</ele>
        <time>2023-11-22T14:08:37Z</time>
      </trkpt>
      <trkpt lat="50.01653" lon="2.35237">
        <ele>130.1</ele>
        <time>2023-11-22T14:08:38Z</time>
      </trkpt>
      <trkpt lat="50.01655" lon="2.35237">
        <ele>130.1</ele>
        <time>2023-11-22T14:08:39Z</time>
      </trkpt>
      <trkpt lat="50.01655" lon="2.35237">
        <ele>130.1</ele>
        <time>2023-11-22T14:08:40Z</time>
      </trkpt>
      <trkpt lat="50.01656" lon="2.35238">
        <ele>130.1</ele>
        <time>2023-11-22T14:08:41Z</time>
      </trkpt>
      <trkpt lat="50.01658" lon="2.35238">
        <ele>130.1</ele>
        <time>2023-11-22T14:08:42Z</time>
      </trkpt>
      <trkpt lat="50.01659" lon="2.35238">
        <ele>130.1</ele>
        <time>2023-11-22T14:08:43Z</time>
      </trkpt>
      <trkpt lat="50.0166" lon="2.35238">
        <ele>130.1</ele>
        <time>2023-11-22T14:08:44Z</time>
      </trkpt>
      <trkpt lat="50.01661" lon="2.35239">
        <ele>130.2</ele>
        <time>2023-11-22T14:08:45Z</time>
      </trkpt>
      <trkpt lat="50.01662" lon="2.35239">
        <ele>130.2</ele>
        <time>2023-11-22T14:08:46Z</time>
      </trkpt>
      <trkpt lat="50.01663" lon="2.35239">
        <ele>130.2</ele>
        <time>2023-11-22T14:08:47Z</time>
      </trkpt>
      <trkpt lat="50.01664" lon="2.35239">
        <ele>130.2</ele>
        <time>2023-11-22T14:08:48Z</time>
      </trkpt>
      <trkpt lat="50.01665" lon="2.3524">
        <ele>130.2</ele>
        <time>2023-11-22T14:08:49Z</time>
      </trkpt>
      <trkpt lat="50.01666" lon="2.3524">
        <ele>130.2</ele>
        <time>2023-11-22T14:08:50Z</time>
      </trkpt>
      <trkpt lat="50.01667" lon="2.3524">
        <ele>130.2</ele>
        <time>2023-11-22T14:08:51Z</time>
      </trkpt>
      <trkpt lat="50.01668" lon="2.3524">
        <ele>130.2</ele>
        <time>2023-11-22T14:08:52Z</time>
      </trkpt>
      <trkpt lat="50.01669" lon="2.35241">
        <ele>130.2</ele>
        <time>2023-11-22T14:08:53Z</time>
      </trkpt>
      <trkpt lat="50.01671" lon="2.35241">
        <ele>130.2</ele>
        <time>2023-11-22T14:08:54Z</time>
      </trkpt>
      <trkpt lat="50.01672" lon="2.35242">
        <ele>130.2</ele>
        <time>2023-11-22T14:08:55Z</time>
      </trkpt>
      <trkpt lat="50.01673" lon="2.35242">
        <ele>130.2</ele>
        <time>2023-11-22T14:08:56Z</time>
      </trkpt>
      <trkpt lat="50.01674" lon="2.35242">
        <ele>130.2</ele>
        <time>2023-11-22T14:08:57Z</time>
      </trkpt>
      <trkpt lat="50.01675" lon="2.35243">
        <ele>130.2</ele>
        <time>2023-11-22T14:08:58Z</time>
      </trkpt>
      <trkpt lat="50.01677" lon="2.35244">
        <ele>130.3</ele>
        <time>2023-11-22T14:08:59Z</time>
      </trkpt>
      <trkpt lat="50.01678" lon="2.35244">
        <ele>130.3</ele>
        <time>2023-11-22T14:09:00Z</time>
      </trkpt>
      <trkpt lat="50.01679" lon="2.35244">
        <ele>130.3</ele>
        <time>2023-11-22T14:09:01Z</time>
      </trkpt>
      <trkpt lat="50.0168" lon="2.35244">
        <ele>130.3</ele>
        <time>2023-11-22T14:09:02Z</time>
      </trkpt>
      <trkpt lat="50.01682" lon="2.35245">
        <ele>130.3</ele>
        <time>2023-11-22T14:09:03Z</time>
      </trkpt>
      <trkpt lat="50.01683" lon="2.35245">
        <ele>130.3</ele>
        <time>2023-11-22T14:09:04Z</time>
      </trkpt>
      <trkpt lat="50.01683" lon="2.35245">
        <ele>130.4</ele>
        <time>2023-11-22T14:09:05Z</time>
      </trkpt>
      <trkpt lat="50.01685" lon="2.35245">
        <ele>130.4</ele>
        <time>2023-11-22T14:09:06Z</time>
      </trkpt>
      <trkpt lat="50.01686" lon="2.35246">
        <ele>130.4</ele>
        <time>2023-11-22T14:09:07Z</time>
      </trkpt>
      <trkpt lat="50.01687" lon="2.35246">
        <ele>130.4</ele>
        <time>2023-11-22T14:09:08Z</time>
      </trkpt>
      <trkpt lat="50.01688" lon="2.35246">
        <ele>130.5</ele>
        <time>2023-11-22T14:09:09Z</time>
      </trkpt>
      <trkpt lat="50.01689" lon="2.35246">
        <ele>130.5</ele>
        <time>2023-11-22T14:09:10Z</time>
      </trkpt>
      <trkpt lat="50.0169" lon="2.35247">
        <ele>130.5</ele>
        <time>2023-11-22T14:09:11Z</time>
      </trkpt>
      <trkpt lat="50.01691" lon="2.35247">
        <ele>130.6</ele>
        <time>2023-11-22T14:09:12Z</time>
      </trkpt>
      <trkpt lat="50.01692" lon="2.35247">
        <ele>130.6</ele>
        <time>2023-11-22T14:09:13Z</time>
      </trkpt>
      <trkpt lat="50.01693" lon="2.35247">
        <ele>130.6</ele>
        <time>2023-11-22T14:09:14Z</time>
      </trkpt>
      <trkpt lat="50.01694" lon="2.35248">
        <ele>130.6</ele>
        <time>2023-11-22T14:09:15Z</time>
      </trkpt>
      <trkpt lat="50.01695" lon="2.35248">
        <ele>130.7</ele>
        <time>2023-11-22T14:09:16Z</time>
      </trkpt>
      <trkpt lat="50.01696" lon="2.35248">
        <ele>130.7</ele>
        <time>2023-11-22T14:09:17Z</time>
      </trkpt>
      <trkpt lat="50.01697" lon="2.35249">
        <ele>130.7</ele>
        <time>2023-11-22T14:09:18Z</time>
      </trkpt>
      <trkpt lat="50.01698" lon="2.35249">
        <ele>130.7</ele>
        <time>2023-11-22T14:09:19Z</time>
      </trkpt>
      <trkpt lat="50.01699" lon="2.3525">
        <ele>130.7</ele>
        <time>2023-11-22T14:09:20Z</time>
      </trkpt>
      <trkpt lat="50.017" lon="2.3525">
        <ele>130.7</ele>
        <time>2023-11-22T14:09:21Z</time>
      </trkpt>
      <trkpt lat="50.01701" lon="2.3525">
        <ele>130.8</ele>
        <time>2023-11-22T14:09:22Z</time>
      </trkpt>
      <trkpt lat="50.01703" lon="2.35251">
        <ele>130.8</ele>
        <time>2023-11-22T14:09:23Z</time>
      </trkpt>
      <trkpt lat="50.01704" lon="2.35251">
        <ele>130.8</ele>
        <time>2023-11-22T14:09:24Z</time>
      </trkpt>
      <trkpt lat="50.01705" lon="2.35251">
        <ele>130.8</ele>
        <time>2023-11-22T14:09:25Z</time>
      </trkpt>
      <trkpt lat="50.01706" lon="2.35251">
        <ele>130.8</ele>
        <time>2023-11-22T14:09:26Z</time>
      </trkpt>
      <trkpt lat="50.01707" lon="2.35252">
        <ele>130.8</ele>
        <time>2023-11-22T14:09:27Z</time>
      </trkpt>
      <trkpt lat="50.01708" lon="2.35252">
        <ele>130.8</ele>
        <time>2023-11-22T14:09:28Z</time>
      </trkpt>
      <trkpt lat="50.0171" lon="2.35252">
        <ele>130.9</ele>
        <time>2023-11-22T14:09:29Z</time>
      </trkpt>
      <trkpt lat="50.01711" lon="2.35253">
        <ele>130.9</ele>
        <time>2023-11-22T14:09:30Z</time>
      </trkpt>
      <trkpt lat="50.01712" lon="2.35253">
        <ele>130.9</ele>
        <time>2023-11-22T14:09:31Z</time>
      </trkpt>
      <trkpt lat="50.01713" lon="2.35253">
        <ele>130.9</ele>
        <time>2023-11-22T14:09:32Z</time>
      </trkpt>
      <trkpt lat="50.01715" lon="2.35253">
        <ele>130.9</ele>
        <time>2023-11-22T14:09:33Z</time>
      </trkpt>
      <trkpt lat="50.01716" lon="2.35253">
        <ele>130.9</ele>
        <time>2023-11-22T14:09:34Z</time>
      </trkpt>
      <trkpt lat="50.01718" lon="2.35254">
        <ele>130.9</ele>
        <time>2023-11-22T14:09:35Z</time>
      </trkpt>
      <trkpt lat="50.01719" lon="2.35254">
        <ele>130.9</ele>
        <time>2023-11-22T14:09:36Z</time>
      </trkpt>
      <trkpt lat="50.0172" lon="2.35254">
        <ele>131</ele>
        <time>2023-11-22T14:09:37Z</time>
      </trkpt>
      <trkpt lat="50.01721" lon="2.35254">
        <ele>131</ele>
        <time>2023-11-22T14:09:38Z</time>
      </trkpt>
      <trkpt lat="50.01722" lon="2.35254">
        <ele>131</ele>
        <time>2023-11-22T14:09:39Z</time>
      </trkpt>
      <trkpt lat="50.01723" lon="2.35255">
        <ele>131</ele>
        <time>2023-11-22T14:09:40Z</time>
      </trkpt>
      <trkpt lat="50.01724" lon="2.35255">
        <ele>131</ele>
        <time>2023-11-22T14:09:41Z</time>
      </trkpt>
      <trkpt lat="50.01725" lon="2.35255">
        <ele>131</ele>
        <time>2023-11-22T14:09:42Z</time>
      </trkpt>
      <trkpt lat="50.01727" lon="2.35256">
        <ele>131</ele>
        <time>2023-11-22T14:09:43Z</time>
      </trkpt>
      <trkpt lat="50.01728" lon="2.35256">
        <ele>131</ele>
        <time>2023-11-22T14:09:44Z</time>
      </trkpt>
      <trkpt lat="50.01729" lon="2.35257">
        <ele>131</ele>
        <time>2023-11-22T14:09:45Z</time>
      </trkpt>
      <trkpt lat="50.01729" lon="2.35257">
        <ele>131</ele>
        <time>2023-11-22T14:09:46Z</time>
      </trkpt>
      <trkpt lat="50.0173" lon="2.35257">
        <ele>131</ele>
        <time>2023-11-22T14:09:47Z</time>
      </trkpt>
      <trkpt lat="50.01731" lon="2.35258">
        <ele>131</ele>
        <time>2023-11-22T14:09:48Z</time>
      </trkpt>
      <trkpt lat="50.01732" lon="2.35258">
        <ele>131.1</ele>
        <time>2023-11-22T14:09:49Z</time>
      </trkpt>
      <trkpt lat="50.01733" lon="2.35258">
        <ele>131.1</ele>
        <time>2023-11-22T14:09:50Z</time>
      </trkpt>
      <trkpt lat="50.01734" lon="2.35259">
        <ele>131.1</ele>
        <time>2023-11-22T14:09:51Z</time>
      </trkpt>
      <trkpt lat="50.01735" lon="2.35259">
        <ele>131.1</ele>
        <time>2023-11-22T14:09:52Z</time>
      </trkpt>
      <trkpt lat="50.01736" lon="2.3526">
        <ele>131.1</ele>
        <time>2023-11-22T14:09:53Z</time>
      </trkpt>
      <trkpt lat="50.01737" lon="2.3526">
        <ele>131.1</ele>
        <time>2023-11-22T14:09:54Z</time>
      </trkpt>
      <trkpt lat="50.01738" lon="2.3526">
        <ele>131.1</ele>
        <time>2023-11-22T14:09:55Z</time>
      </trkpt>
      <trkpt lat="50.01739" lon="2.35261">
        <ele>131.1</ele>
        <time>2023-11-22T14:09:56Z</time>
      </trkpt>
      <trkpt lat="50.0174" lon="2.35261">
        <ele>131.1</ele>
        <time>2023-11-22T14:09:57Z</time>
      </trkpt>
      <trkpt lat="50.01741" lon="2.35261">
        <ele>131.1</ele>
        <time>2023-11-22T14:09:58Z</time>
      </trkpt>
      <trkpt lat="50.01741" lon="2.35262">
        <ele>131.1</ele>
        <time>2023-11-22T14:09:59Z</time>
      </trkpt>
      <trkpt lat="50.01742" lon="2.35262">
        <ele>131.1</ele>
        <time>2023-11-22T14:10:00Z</time>
      </trkpt>
      <trkpt lat="50.01743" lon="2.35263">
        <ele>131.1</ele>
        <time>2023-11-22T14:10:01Z</time>
      </trkpt>
      <trkpt lat="50.01745" lon="2.35263">
        <ele>131.1</ele>
        <time>2023-11-22T14:10:02Z</time>
      </trkpt>
      <trkpt lat="50.01746" lon="2.35263">
        <ele>131.1</ele>
        <time>2023-11-22T14:10:03Z</time>
      </trkpt>
      <trkpt lat="50.01747" lon="2.35263">
        <ele>131.1</ele>
        <time>2023-11-22T14:10:04Z</time>
      </trkpt>
      <trkpt lat="50.01748" lon="2.35264">
        <ele>131.1</ele>
        <time>2023-11-22T14:10:05Z</time>
      </trkpt>
      <trkpt lat="50.01749" lon="2.35264">
        <ele>131.1</ele>
        <time>2023-11-22T14:10:06Z</time>
      </trkpt>
      <trkpt lat="50.0175" lon="2.35264">
        <ele>131.1</ele>
        <time>2023-11-22T14:10:07Z</time>
      </trkpt>
      <trkpt lat="50.01751" lon="2.35264">
        <ele>131.2</ele>
        <time>2023-11-22T14:10:08Z</time>
      </trkpt>
      <trkpt lat="50.01752" lon="2.35265">
        <ele>131.2</ele>
        <time>2023-11-22T14:10:09Z</time>
      </trkpt>
      <trkpt lat="50.01754" lon="2.35265">
        <ele>131.2</ele>
        <time>2023-11-22T14:10:10Z</time>
      </trkpt>
      <trkpt lat="50.01755" lon="2.35265">
        <ele>131.2</ele>
        <time>2023-11-22T14:10:11Z</time>
      </trkpt>
      <trkpt lat="50.01756" lon="2.35265">
        <ele>131.2</ele>
        <time>2023-11-22T14:10:12Z</time>
      </trkpt>
      <trkpt lat="50.01757" lon="2.35265">
        <ele>131.2</ele>
        <time>2023-11-22T14:10:13Z</time>
      </trkpt>
      <trkpt lat="50.01758" lon="2.35265">
        <ele>131.2</ele>
        <time>2023-11-22T14:10:14Z</time>
      </trkpt>
      <trkpt lat="50.01759" lon="2.35265">
        <ele>131.2</ele>
        <time>2023-11-22T14:10:15Z</time>
      </trkpt>
      <trkpt lat="50.0176" lon="2.35266">
        <ele>131.2</ele>
        <time>2023-11-22T14:10:16Z</time>
      </trkpt>
      <trkpt lat="50.01761" lon="2.35266">
        <ele>131.2</ele>
        <time>2023-11-22T14:10:17Z</time>
      </trkpt>
      <trkpt lat="50.01763" lon="2.35266">
        <ele>131.2</ele>
        <time>2023-11-22T14:10:18Z</time>
      </trkpt>
      <trkpt lat="50.01765" lon="2.35266">
        <ele>131.2</ele>
        <time>2023-11-22T14:10:19Z</time>
      </trkpt>
      <trkpt lat="50.01765" lon="2.35266">
        <ele>131.2</ele>
        <time>2023-11-22T14:10:20Z</time>
      </trkpt>
      <trkpt lat="50.01766" lon="2.35267">
        <ele>131.2</ele>
        <time>2023-11-22T14:10:21Z</time>
      </trkpt>
      <trkpt lat="50.01767" lon="2.35267">
        <ele>131.2</ele>
        <time>2023-11-22T14:10:22Z</time>
      </trkpt>
      <trkpt lat="50.01768" lon="2.35267">
        <ele>131.2</ele>
        <time>2023-11-22T14:10:23Z</time>
      </trkpt>
      <trkpt lat="50.01769" lon="2.35267">
        <ele>131.2</ele>
        <time>2023-11-22T14:10:24Z</time>
      </trkpt>
      <trkpt lat="50.0177" lon="2.35268">
        <ele>131.2</ele>
        <time>2023-11-22T14:10:25Z</time>
      </trkpt>
      <trkpt lat="50.01771" lon="2.35268">
        <ele>131.2</ele>
        <time>2023-11-22T14:10:26Z</time>
      </trkpt>
      <trkpt lat="50.01772" lon="2.35268">
        <ele>131.2</ele>
        <time>2023-11-22T14:10:27Z</time>
      </trkpt>
      <trkpt lat="50.01774" lon="2.35268">
        <ele>131.3</ele>
        <time>2023-11-22T14:10:28Z</time>
      </trkpt>
      <trkpt lat="50.01775" lon="2.35268">
        <ele>131.3</ele>
        <time>2023-11-22T14:10:29Z</time>
      </trkpt>
      <trkpt lat="50.01775" lon="2.35268">
        <ele>131.3</ele>
        <time>2023-11-22T14:10:30Z</time>
      </trkpt>
      <trkpt lat="50.01776" lon="2.35268">
        <ele>131.3</ele>
        <time>2023-11-22T14:10:31Z</time>
      </trkpt>
      <trkpt lat="50.01777" lon="2.35269">
        <ele>131.3</ele>
        <time>2023-11-22T14:10:32Z</time>
      </trkpt>
      <trkpt lat="50.01778" lon="2.35269">
        <ele>131.3</ele>
        <time>2023-11-22T14:10:33Z</time>
      </trkpt>
      <trkpt lat="50.01779" lon="2.35269">
        <ele>131.3</ele>
        <time>2023-11-22T14:10:34Z</time>
      </trkpt>
      <trkpt lat="50.0178" lon="2.3527">
        <ele>131.3</ele>
        <time>2023-11-22T14:10:35Z</time>
      </trkpt>
      <trkpt lat="50.01781" lon="2.3527">
        <ele>131.3</ele>
        <time>2023-11-22T14:10:36Z</time>
      </trkpt>
      <trkpt lat="50.01782" lon="2.35271">
        <ele>131.3</ele>
        <time>2023-11-22T14:10:37Z</time>
      </trkpt>
      <trkpt lat="50.01783" lon="2.35271">
        <ele>131.3</ele>
        <time>2023-11-22T14:10:38Z</time>
      </trkpt>
      <trkpt lat="50.01784" lon="2.35272">
        <ele>131.3</ele>
        <time>2023-11-22T14:10:39Z</time>
      </trkpt>
      <trkpt lat="50.01784" lon="2.35273">
        <ele>131.3</ele>
        <time>2023-11-22T14:10:40Z</time>
      </trkpt>
      <trkpt lat="50.01785" lon="2.35273">
        <ele>131.3</ele>
        <time>2023-11-22T14:10:41Z</time>
      </trkpt>
      <trkpt lat="50.01785" lon="2.35274">
        <ele>131.3</ele>
        <time>2023-11-22T14:10:42Z</time>
      </trkpt>
      <trkpt lat="50.01786" lon="2.35274">
        <ele>131.3</ele>
        <time>2023-11-22T14:10:43Z</time>
      </trkpt>
      <trkpt lat="50.01786" lon="2.35274">
        <ele>131.3</ele>
        <time>2023-11-22T14:10:44Z</time>
      </trkpt>
      <trkpt lat="50.01786" lon="2.35274">
        <ele>131.3</ele>
        <time>2023-11-22T14:10:45Z</time>
      </trkpt>
      <trkpt lat="50.01786" lon="2.35274">
        <ele>131.3</ele>
        <time>2023-11-22T14:10:46Z</time>
      </trkpt>
      <trkpt lat="50.01785" lon="2.35274">
        <ele>131.3</ele>
        <time>2023-11-22T14:10:47Z</time>
      </trkpt>
      <trkpt lat="50.01785" lon="2.35274">
        <ele>131.3</ele>
        <time>2023-11-22T14:10:48Z</time>
      </trkpt>
      <trkpt lat="50.01785" lon="2.35274">
        <ele>131.3</ele>
        <time>2023-11-22T14:10:49Z</time>
      </trkpt>
      <trkpt lat="50.01785" lon="2.35275">
        <ele>131.3</ele>
        <time>2023-11-22T14:10:50Z</time>
      </trkpt>
      <trkpt lat="50.01786" lon="2.35275">
        <ele>131.3</ele>
        <time>2023-11-22T14:10:51Z</time>
      </trkpt>
      <trkpt lat="50.01786" lon="2.35276">
        <ele>131.3</ele>
        <time>2023-11-22T14:10:52Z</time>
      </trkpt>
      <trkpt lat="50.01786" lon="2.35276">
        <ele>131.3</ele>
        <time>2023-11-22T14:10:53Z</time>
      </trkpt>
      <trkpt lat="50.01786" lon="2.35276">
        <ele>131.3</ele>
        <time>2023-11-22T14:10:54Z</time>
      </trkpt>
      <trkpt lat="50.01787" lon="2.35276">
        <ele>131.3</ele>
        <time>2023-11-22T14:10:55Z</time>
      </trkpt>
      <trkpt lat="50.01787" lon="2.35276">
        <ele>131.3</ele>
        <time>2023-11-22T14:10:56Z</time>
      </trkpt>
      <trkpt lat="50.01787" lon="2.35276">
        <ele>131.3</ele>
        <time>2023-11-22T14:10:57Z</time>
      </trkpt>
      <trkpt lat="50.01787" lon="2.35276">
        <ele>131.3</ele>
        <time>2023-11-22T14:10:58Z</time>
      </trkpt>
      <trkpt lat="50.01787" lon="2.35276">
        <ele>131.3</ele>
        <time>2023-11-22T14:10:59Z</time>
      </trkpt>
      <trkpt lat="50.01787" lon="2.35276">
        <ele>131.3</ele>
        <time>2023-11-22T14:11:00Z</time>
      </trkpt>
      <trkpt lat="50.01787" lon="2.35276">
        <ele>131.3</ele>
        <time>2023-11-22T14:11:01Z</time>
      </trkpt>
      <trkpt lat="50.01787" lon="2.35276">
        <ele>131.3</ele>
        <time>2023-11-22T14:11:02Z</time>
      </trkpt>
      <trkpt lat="50.01787" lon="2.35276">
        <ele>131.3</ele>
        <time>2023-11-22T14:11:03Z</time>
      </trkpt>
      <trkpt lat="50.01787" lon="2.35276">
        <ele>131.3</ele>
        <time>2023-11-22T14:11:04Z</time>
      </trkpt>
      <trkpt lat="50.01787" lon="2.35276">
        <ele>131.3</ele>
        <time>2023-11-22T14:11:05Z</time>
      </trkpt>
      <trkpt lat="50.01786" lon="2.35276">
        <ele>131.3</ele>
        <time>2023-11-22T14:11:06Z</time>
      </trkpt>
      <trkpt lat="50.01786" lon="2.35276">
        <ele>131.3</ele>
        <time>2023-11-22T14:11:07Z</time>
      </trkpt>
      <trkpt lat="50.01787" lon="2.3527">
        <ele>131.3</ele>
        <time>2023-11-22T14:12:30Z</time>
      </trkpt>
      <trkpt lat="50.01788" lon="2.35269">
        <ele>131.3</ele>
        <time>2023-11-22T14:12:31Z</time>
      </trkpt>
      <trkpt lat="50.01789" lon="2.35267">
        <ele>131.3</ele>
        <time>2023-11-22T14:12:32Z</time>
      </trkpt>
      <trkpt lat="50.0179" lon="2.35266">
        <ele>131.3</ele>
        <time>2023-11-22T14:12:33Z</time>
      </trkpt>
      <trkpt lat="50.0179" lon="2.35265">
        <ele>131.3</ele>
        <time>2023-11-22T14:12:34Z</time>
      </trkpt>
      <trkpt lat="50.01791" lon="2.35264">
        <ele>131.3</ele>
        <time>2023-11-22T14:12:35Z</time>
      </trkpt>
      <trkpt lat="50.01791" lon="2.35262">
        <ele>131.4</ele>
        <time>2023-11-22T14:12:36Z</time>
      </trkpt>
      <trkpt lat="50.01791" lon="2.35261">
        <ele>131.4</ele>
        <time>2023-11-22T14:12:37Z</time>
      </trkpt>
      <trkpt lat="50.01791" lon="2.35259">
        <ele>131.4</ele>
        <time>2023-11-22T14:12:38Z</time>
      </trkpt>
      <trkpt lat="50.01791" lon="2.35257">
        <ele>131.4</ele>
        <time>2023-11-22T14:12:39Z</time>
      </trkpt>
      <trkpt lat="50.01791" lon="2.35256">
        <ele>131.4</ele>
        <time>2023-11-22T14:12:40Z</time>
      </trkpt>
      <trkpt lat="50.01791" lon="2.35254">
        <ele>131.4</ele>
        <time>2023-11-22T14:12:41Z</time>
      </trkpt>
      <trkpt lat="50.01791" lon="2.35253">
        <ele>131.4</ele>
        <time>2023-11-22T14:12:42Z</time>
      </trkpt>
      <trkpt lat="50.01792" lon="2.35252">
        <ele>131.4</ele>
        <time>2023-11-22T14:12:43Z</time>
      </trkpt>
      <trkpt lat="50.01793" lon="2.35252">
        <ele>131.4</ele>
        <time>2023-11-22T14:12:44Z</time>
      </trkpt>
      <trkpt lat="50.01794" lon="2.35252">
        <ele>131.4</ele>
        <time>2023-11-22T14:12:45Z</time>
      </trkpt>
      <trkpt lat="50.01795" lon="2.35252">
        <ele>131.4</ele>
        <time>2023-11-22T14:12:46Z</time>
      </trkpt>
      <trkpt lat="50.01796" lon="2.35252">
        <ele>131.4</ele>
        <time>2023-11-22T14:12:47Z</time>
      </trkpt>
      <trkpt lat="50.01796" lon="2.35252">
        <ele>131.4</ele>
        <time>2023-11-22T14:12:48Z</time>
      </trkpt>
      <trkpt lat="50.01797" lon="2.35251">
        <ele>131.4</ele>
        <time>2023-11-22T14:12:49Z</time>
      </trkpt>
      <trkpt lat="50.01797" lon="2.35251">
        <ele>131.4</ele>
        <time>2023-11-22T14:12:50Z</time>
      </trkpt>
      <trkpt lat="50.01798" lon="2.3525">
        <ele>131.4</ele>
        <time>2023-11-22T14:12:51Z</time>
      </trkpt>
      <trkpt lat="50.01798" lon="2.35249">
        <ele>131.4</ele>
        <time>2023-11-22T14:12:52Z</time>
      </trkpt>
      <trkpt lat="50.01798" lon="2.35248">
        <ele>131.4</ele>
        <time>2023-11-22T14:12:53Z</time>
      </trkpt>
      <trkpt lat="50.01799" lon="2.35247">
        <ele>131.4</ele>
        <time>2023-11-22T14:12:54Z</time>
      </trkpt>
      <trkpt lat="50.01799" lon="2.35246">
        <ele>131.4</ele>
        <time>2023-11-22T14:12:55Z</time>
      </trkpt>
      <trkpt lat="50.01799" lon="2.35245">
        <ele>131.4</ele>
        <time>2023-11-22T14:12:56Z</time>
      </trkpt>
      <trkpt lat="50.018" lon="2.35244">
        <ele>131.4</ele>
        <time>2023-11-22T14:12:57Z</time>
      </trkpt>
      <trkpt lat="50.018" lon="2.35242">
        <ele>131.4</ele>
        <time>2023-11-22T14:12:58Z</time>
      </trkpt>
      <trkpt lat="50.018" lon="2.35241">
        <ele>131.4</ele>
        <time>2023-11-22T14:12:59Z</time>
      </trkpt>
      <trkpt lat="50.01801" lon="2.35239">
        <ele>131.4</ele>
        <time>2023-11-22T14:13:00Z</time>
      </trkpt>
      <trkpt lat="50.01801" lon="2.35238">
        <ele>131.4</ele>
        <time>2023-11-22T14:13:01Z</time>
      </trkpt>
      <trkpt lat="50.01802" lon="2.35236">
        <ele>131.4</ele>
        <time>2023-11-22T14:13:02Z</time>
      </trkpt>
      <trkpt lat="50.01803" lon="2.35236">
        <ele>131.4</ele>
        <time>2023-11-22T14:13:03Z</time>
      </trkpt>
      <trkpt lat="50.01803" lon="2.35235">
        <ele>131.4</ele>
        <time>2023-11-22T14:13:04Z</time>
      </trkpt>
      <trkpt lat="50.01804" lon="2.35234">
        <ele>131.4</ele>
        <time>2023-11-22T14:13:05Z</time>
      </trkpt>
      <trkpt lat="50.01805" lon="2.35234">
        <ele>131.4</ele>
        <time>2023-11-22T14:13:06Z</time>
      </trkpt>
      <trkpt lat="50.01805" lon="2.35233">
        <ele>131.4</ele>
        <time>2023-11-22T14:13:07Z</time>
      </trkpt>
      <trkpt lat="50.01806" lon="2.35232">
        <ele>131.4</ele>
        <time>2023-11-22T14:13:08Z</time>
      </trkpt>
      <trkpt lat="50.01806" lon="2.35231">
        <ele>131.4</ele>
        <time>2023-11-22T14:13:09Z</time>
      </trkpt>
      <trkpt lat="50.01807" lon="2.35231">
        <ele>131.4</ele>
        <time>2023-11-22T14:13:10Z</time>
      </trkpt>
      <trkpt lat="50.01807" lon="2.3523">
        <ele>131.4</ele>
        <time>2023-11-22T14:13:11Z</time>
      </trkpt>
      <trkpt lat="50.01807" lon="2.35229">
        <ele>131.4</ele>
        <time>2023-11-22T14:13:12Z</time>
      </trkpt>
      <trkpt lat="50.01807" lon="2.35228">
        <ele>131.4</ele>
        <time>2023-11-22T14:13:13Z</time>
      </trkpt>
      <trkpt lat="50.01807" lon="2.35228">
        <ele>131.4</ele>
        <time>2023-11-22T14:13:14Z</time>
      </trkpt>
      <trkpt lat="50.01808" lon="2.35227">
        <ele>131.4</ele>
        <time>2023-11-22T14:13:15Z</time>
      </trkpt>
      <trkpt lat="50.01808" lon="2.35227">
        <ele>131.4</ele>
        <time>2023-11-22T14:13:16Z</time>
      </trkpt>
      <trkpt lat="50.01808" lon="2.35227">
        <ele>131.4</ele>
        <time>2023-11-22T14:13:17Z</time>
      </trkpt>
      <trkpt lat="50.01809" lon="2.35226">
        <ele>131.4</ele>
        <time>2023-11-22T14:13:18Z</time>
      </trkpt>
      <trkpt lat="50.01809" lon="2.35225">
        <ele>131.4</ele>
        <time>2023-11-22T14:13:19Z</time>
      </trkpt>
      <trkpt lat="50.0181" lon="2.35224">
        <ele>131.4</ele>
        <time>2023-11-22T14:13:20Z</time>
      </trkpt>
      <trkpt lat="50.0181" lon="2.35224">
        <ele>131.4</ele>
        <time>2023-11-22T14:13:21Z</time>
      </trkpt>
      <trkpt lat="50.01811" lon="2.35222">
        <ele>131.5</ele>
        <time>2023-11-22T14:13:22Z</time>
      </trkpt>
      <trkpt lat="50.01811" lon="2.35221">
        <ele>131.5</ele>
        <time>2023-11-22T14:13:23Z</time>
      </trkpt>
      <trkpt lat="50.01811" lon="2.3522">
        <ele>131.5</ele>
        <time>2023-11-22T14:13:24Z</time>
      </trkpt>
      <trkpt lat="50.01812" lon="2.35218">
        <ele>131.5</ele>
        <time>2023-11-22T14:13:25Z</time>
      </trkpt>
      <trkpt lat="50.01812" lon="2.35216">
        <ele>131.5</ele>
        <time>2023-11-22T14:13:26Z</time>
      </trkpt>
      <trkpt lat="50.01813" lon="2.35215">
        <ele>131.5</ele>
        <time>2023-11-22T14:13:27Z</time>
      </trkpt>
      <trkpt lat="50.01813" lon="2.35213">
        <ele>131.5</ele>
        <time>2023-11-22T14:13:28Z</time>
      </trkpt>
      <trkpt lat="50.01814" lon="2.35212">
        <ele>131.5</ele>
        <time>2023-11-22T14:13:29Z</time>
      </trkpt>
      <trkpt lat="50.01815" lon="2.35211">
        <ele>131.5</ele>
        <time>2023-11-22T14:13:30Z</time>
      </trkpt>
      <trkpt lat="50.01815" lon="2.35209">
        <ele>131.5</ele>
        <time>2023-11-22T14:13:31Z</time>
      </trkpt>
      <trkpt lat="50.01816" lon="2.35208">
        <ele>131.5</ele>
        <time>2023-11-22T14:13:32Z</time>
      </trkpt>
      <trkpt lat="50.01816" lon="2.35206">
        <ele>131.6</ele>
        <time>2023-11-22T14:13:33Z</time>
      </trkpt>
      <trkpt lat="50.01817" lon="2.35204">
        <ele>131.6</ele>
        <time>2023-11-22T14:13:34Z</time>
      </trkpt>
      <trkpt lat="50.01817" lon="2.35203">
        <ele>131.6</ele>
        <time>2023-11-22T14:13:35Z</time>
      </trkpt>
      <trkpt lat="50.01818" lon="2.35201">
        <ele>131.6</ele>
        <time>2023-11-22T14:13:36Z</time>
      </trkpt>
      <trkpt lat="50.01818" lon="2.352">
        <ele>131.6</ele>
        <time>2023-11-22T14:13:37Z</time>
      </trkpt>
      <trkpt lat="50.01819" lon="2.35199">
        <ele>131.6</ele>
        <time>2023-11-22T14:13:38Z</time>
      </trkpt>
      <trkpt lat="50.01819" lon="2.35197">
        <ele>131.6</ele>
        <time>2023-11-22T14:13:39Z</time>
      </trkpt>
      <trkpt lat="50.0182" lon="2.35195">
        <ele>131.6</ele>
        <time>2023-11-22T14:13:40Z</time>
      </trkpt>
      <trkpt lat="50.0182" lon="2.35194">
        <ele>131.6</ele>
        <time>2023-11-22T14:13:41Z</time>
      </trkpt>
      <trkpt lat="50.01821" lon="2.35192">
        <ele>131.6</ele>
        <time>2023-11-22T14:13:42Z</time>
      </trkpt>
      <trkpt lat="50.01821" lon="2.35191">
        <ele>131.6</ele>
        <time>2023-11-22T14:13:43Z</time>
      </trkpt>
      <trkpt lat="50.01822" lon="2.35189">
        <ele>131.6</ele>
        <time>2023-11-22T14:13:44Z</time>
      </trkpt>
      <trkpt lat="50.01822" lon="2.35188">
        <ele>131.7</ele>
        <time>2023-11-22T14:13:45Z</time>
      </trkpt>
      <trkpt lat="50.01823" lon="2.35187">
        <ele>131.7</ele>
        <time>2023-11-22T14:13:46Z</time>
      </trkpt>
      <trkpt lat="50.01823" lon="2.35186">
        <ele>131.7</ele>
        <time>2023-11-22T14:13:47Z</time>
      </trkpt>
      <trkpt lat="50.01824" lon="2.35184">
        <ele>131.7</ele>
        <time>2023-11-22T14:13:48Z</time>
      </trkpt>
      <trkpt lat="50.01824" lon="2.35183">
        <ele>131.7</ele>
        <time>2023-11-22T14:13:49Z</time>
      </trkpt>
      <trkpt lat="50.01824" lon="2.35182">
        <ele>131.7</ele>
        <time>2023-11-22T14:13:50Z</time>
      </trkpt>
      <trkpt lat="50.01823" lon="2.35181">
        <ele>131.7</ele>
        <time>2023-11-22T14:13:51Z</time>
      </trkpt>
      <trkpt lat="50.01823" lon="2.3518">
        <ele>131.7</ele>
        <time>2023-11-22T14:13:52Z</time>
      </trkpt>
      <trkpt lat="50.01822" lon="2.3518">
        <ele>131.7</ele>
        <time>2023-11-22T14:13:53Z</time>
      </trkpt>
      <trkpt lat="50.01822" lon="2.3518">
        <ele>131.7</ele>
        <time>2023-11-22T14:13:54Z</time>
      </trkpt>
      <trkpt lat="50.01822" lon="2.3518">
        <ele>131.7</ele>
        <time>2023-11-22T14:13:55Z</time>
      </trkpt>
      <trkpt lat="50.01822" lon="2.3518">
        <ele>131.7</ele>
        <time>2023-11-22T14:13:56Z</time>
      </trkpt>
      <trkpt lat="50.01822" lon="2.3518">
        <ele>131.7</ele>
        <time>2023-11-22T14:13:57Z</time>
      </trkpt>
      <trkpt lat="50.01822" lon="2.3518">
        <ele>131.7</ele>
        <time>2023-11-22T14:13:58Z</time>
      </trkpt>
      <trkpt lat="50.01821" lon="2.3518">
        <ele>131.7</ele>
        <time>2023-11-22T14:13:59Z</time>
      </trkpt>
      <trkpt lat="50.01821" lon="2.3518">
        <ele>131.7</ele>
        <time>2023-11-22T14:14:00Z</time>
      </trkpt>
      <trkpt lat="50.01821" lon="2.35181">
        <ele>131.7</ele>
        <time>2023-11-22T14:14:01Z</time>
      </trkpt>
      <trkpt lat="50.01821" lon="2.35181">
        <ele>131.7</ele>
        <time>2023-11-22T14:14:02Z</time>
      </trkpt>
      <trkpt lat="50.01821" lon="2.35181">
        <ele>131.7</ele>
        <time>2023-11-22T14:14:03Z</time>
      </trkpt>
      <trkpt lat="50.01822" lon="2.35181">
        <ele>131.7</ele>
        <time>2023-11-22T14:14:04Z</time>
      </trkpt>
      <trkpt lat="50.01823" lon="2.35181">
        <ele>131.7</ele>
        <time>2023-11-22T14:14:05Z</time>
      </trkpt>
      <trkpt lat="50.01823" lon="2.35181">
        <ele>131.7</ele>
        <time>2023-11-22T14:14:06Z</time>
      </trkpt>
      <trkpt lat="50.01824" lon="2.3518">
        <ele>131.7</ele>
        <time>2023-11-22T14:14:07Z</time>
      </trkpt>
      <trkpt lat="50.01825" lon="2.35179">
        <ele>131.7</ele>
        <time>2023-11-22T14:14:08Z</time>
      </trkpt>
      <trkpt lat="50.01825" lon="2.35177">
        <ele>131.7</ele>
        <time>2023-11-22T14:14:09Z</time>
      </trkpt>
      <trkpt lat="50.01826" lon="2.35176">
        <ele>131.7</ele>
        <time>2023-11-22T14:14:10Z</time>
      </trkpt>
      <trkpt lat="50.01828" lon="2.3517">
        <ele>131.8</ele>
        <time>2023-11-22T14:14:13Z</time>
      </trkpt>
      <trkpt lat="50.01829" lon="2.35169">
        <ele>131.8</ele>
        <time>2023-11-22T14:14:14Z</time>
      </trkpt>
      <trkpt lat="50.01829" lon="2.35168">
        <ele>131.8</ele>
        <time>2023-11-22T14:14:15Z</time>
      </trkpt>
      <trkpt lat="50.0183" lon="2.35167">
        <ele>131.8</ele>
        <time>2023-11-22T14:14:16Z</time>
      </trkpt>
      <trkpt lat="50.0183" lon="2.35166">
        <ele>131.8</ele>
        <time>2023-11-22T14:14:17Z</time>
      </trkpt>
      <trkpt lat="50.01831" lon="2.35164">
        <ele>131.8</ele>
        <time>2023-11-22T14:14:18Z</time>
      </trkpt>
      <trkpt lat="50.01832" lon="2.35163">
        <ele>131.8</ele>
        <time>2023-11-22T14:14:19Z</time>
      </trkpt>
      <trkpt lat="50.01833" lon="2.35162">
        <ele>131.8</ele>
        <time>2023-11-22T14:14:20Z</time>
      </trkpt>
      <trkpt lat="50.01833" lon="2.3516">
        <ele>131.8</ele>
        <time>2023-11-22T14:14:21Z</time>
      </trkpt>
      <trkpt lat="50.01834" lon="2.35159">
        <ele>131.8</ele>
        <time>2023-11-22T14:14:22Z</time>
      </trkpt>
      <trkpt lat="50.01835" lon="2.35157">
        <ele>131.8</ele>
        <time>2023-11-22T14:14:23Z</time>
      </trkpt>
      <trkpt lat="50.01836" lon="2.35156">
        <ele>131.8</ele>
        <time>2023-11-22T14:14:24Z</time>
      </trkpt>
      <trkpt lat="50.01836" lon="2.35154">
        <ele>131.8</ele>
        <time>2023-11-22T14:14:25Z</time>
      </trkpt>
      <trkpt lat="50.01837" lon="2.35153">
        <ele>131.8</ele>
        <time>2023-11-22T14:14:26Z</time>
      </trkpt>
      <trkpt lat="50.01837" lon="2.35152">
        <ele>131.8</ele>
        <time>2023-11-22T14:14:27Z</time>
      </trkpt>
      <trkpt lat="50.01838" lon="2.3515">
        <ele>131.8</ele>
        <time>2023-11-22T14:14:28Z</time>
      </trkpt>
      <trkpt lat="50.01839" lon="2.35149">
        <ele>131.8</ele>
        <time>2023-11-22T14:14:29Z</time>
      </trkpt>
      <trkpt lat="50.01839" lon="2.35148">
        <ele>131.8</ele>
        <time>2023-11-22T14:14:30Z</time>
      </trkpt>
      <trkpt lat="50.0184" lon="2.35147">
        <ele>131.8</ele>
        <time>2023-11-22T14:14:31Z</time>
      </trkpt>
      <trkpt lat="50.01841" lon="2.35145">
        <ele>131.8</ele>
        <time>2023-11-22T14:14:32Z</time>
      </trkpt>
      <trkpt lat="50.01842" lon="2.35144">
        <ele>131.8</ele>
        <time>2023-11-22T14:14:33Z</time>
      </trkpt>
      <trkpt lat="50.01842" lon="2.35143">
        <ele>131.8</ele>
        <time>2023-11-22T14:14:34Z</time>
      </trkpt>
      <trkpt lat="50.01843" lon="2.35141">
        <ele>131.8</ele>
        <time>2023-11-22T14:14:35Z</time>
      </trkpt>
      <trkpt lat="50.01843" lon="2.3514">
        <ele>131.8</ele>
        <time>2023-11-22T14:14:36Z</time>
      </trkpt>
      <trkpt lat="50.01844" lon="2.35139">
        <ele>131.8</ele>
        <time>2023-11-22T14:14:37Z</time>
      </trkpt>
      <trkpt lat="50.01844" lon="2.35138">
        <ele>131.8</ele>
        <time>2023-11-22T14:14:38Z</time>
      </trkpt>
      <trkpt lat="50.01845" lon="2.35137">
        <ele>131.8</ele>
        <time>2023-11-22T14:14:39Z</time>
      </trkpt>
      <trkpt lat="50.01846" lon="2.35136">
        <ele>131.8</ele>
        <time>2023-11-22T14:14:40Z</time>
      </trkpt>
      <trkpt lat="50.01846" lon="2.35135">
        <ele>131.8</ele>
        <time>2023-11-22T14:14:41Z</time>
      </trkpt>
      <trkpt lat="50.01847" lon="2.35133">
        <ele>131.8</ele>
        <time>2023-11-22T14:14:42Z</time>
      </trkpt>
      <trkpt lat="50.01847" lon="2.35132">
        <ele>131.8</ele>
        <time>2023-11-22T14:14:43Z</time>
      </trkpt>
      <trkpt lat="50.01848" lon="2.35131">
        <ele>131.8</ele>
        <time>2023-11-22T14:14:44Z</time>
      </trkpt>
      <trkpt lat="50.01848" lon="2.35129">
        <ele>131.9</ele>
        <time>2023-11-22T14:14:45Z</time>
      </trkpt>
      <trkpt lat="50.01849" lon="2.35128">
        <ele>131.9</ele>
        <time>2023-11-22T14:14:46Z</time>
      </trkpt>
      <trkpt lat="50.01849" lon="2.35127">
        <ele>131.9</ele>
        <time>2023-11-22T14:14:47Z</time>
      </trkpt>
      <trkpt lat="50.0185" lon="2.35125">
        <ele>131.9</ele>
        <time>2023-11-22T14:14:48Z</time>
      </trkpt>
      <trkpt lat="50.0185" lon="2.35124">
        <ele>131.9</ele>
        <time>2023-11-22T14:14:49Z</time>
      </trkpt>
      <trkpt lat="50.01851" lon="2.35122">
        <ele>131.9</ele>
        <time>2023-11-22T14:14:50Z</time>
      </trkpt>
      <trkpt lat="50.01851" lon="2.35121">
        <ele>131.9</ele>
        <time>2023-11-22T14:14:51Z</time>
      </trkpt>
      <trkpt lat="50.01852" lon="2.3512">
        <ele>131.9</ele>
        <time>2023-11-22T14:14:52Z</time>
      </trkpt>
      <trkpt lat="50.01852" lon="2.35118">
        <ele>131.9</ele>
        <time>2023-11-22T14:14:53Z</time>
      </trkpt>
      <trkpt lat="50.01853" lon="2.35117">
        <ele>131.9</ele>
        <time>2023-11-22T14:14:54Z</time>
      </trkpt>
      <trkpt lat="50.01853" lon="2.35116">
        <ele>131.9</ele>
        <time>2023-11-22T14:14:55Z</time>
      </trkpt>
      <trkpt lat="50.01854" lon="2.35114">
        <ele>131.9</ele>
        <time>2023-11-22T14:14:56Z</time>
      </trkpt>
      <trkpt lat="50.01855" lon="2.35111">
        <ele>131.9</ele>
        <time>2023-11-22T14:14:57Z</time>
      </trkpt>
      <trkpt lat="50.01855" lon="2.3511">
        <ele>131.9</ele>
        <time>2023-11-22T14:14:58Z</time>
      </trkpt>
      <trkpt lat="50.01855" lon="2.35109">
        <ele>131.9</ele>
        <time>2023-11-22T14:14:59Z</time>
      </trkpt>
      <trkpt lat="50.01856" lon="2.35107">
        <ele>131.9</ele>
        <time>2023-11-22T14:15:00Z</time>
      </trkpt>
      <trkpt lat="50.01856" lon="2.35106">
        <ele>131.9</ele>
        <time>2023-11-22T14:15:01Z</time>
      </trkpt>
      <trkpt lat="50.01857" lon="2.35104">
        <ele>131.9</ele>
        <time>2023-11-22T14:15:02Z</time>
      </trkpt>
      <trkpt lat="50.01857" lon="2.35103">
        <ele>131.9</ele>
        <time>2023-11-22T14:15:03Z</time>
      </trkpt>
      <trkpt lat="50.01858" lon="2.35101">
        <ele>131.9</ele>
        <time>2023-11-22T14:15:04Z</time>
      </trkpt>
      <trkpt lat="50.01858" lon="2.35099">
        <ele>131.9</ele>
        <time>2023-11-22T14:15:05Z</time>
      </trkpt>
      <trkpt lat="50.01859" lon="2.35098">
        <ele>131.9</ele>
        <time>2023-11-22T14:15:06Z</time>
      </trkpt>
      <trkpt lat="50.01859" lon="2.35096">
        <ele>131.9</ele>
        <time>2023-11-22T14:15:07Z</time>
      </trkpt>
      <trkpt lat="50.0186" lon="2.35095">
        <ele>131.9</ele>
        <time>2023-11-22T14:15:08Z</time>
      </trkpt>
      <trkpt lat="50.01861" lon="2.35093">
        <ele>131.9</ele>
        <time>2023-11-22T14:15:09Z</time>
      </trkpt>
      <trkpt lat="50.01861" lon="2.35092">
        <ele>131.9</ele>
        <time>2023-11-22T14:15:10Z</time>
      </trkpt>
      <trkpt lat="50.01862" lon="2.35091">
        <ele>131.9</ele>
        <time>2023-11-22T14:15:11Z</time>
      </trkpt>
      <trkpt lat="50.01863" lon="2.3509">
        <ele>131.9</ele>
        <time>2023-11-22T14:15:12Z</time>
      </trkpt>
      <trkpt lat="50.01863" lon="2.35089">
        <ele>132</ele>
        <time>2023-11-22T14:15:13Z</time>
      </trkpt>
      <trkpt lat="50.01864" lon="2.35088">
        <ele>132</ele>
        <time>2023-11-22T14:15:14Z</time>
      </trkpt>
      <trkpt lat="50.01865" lon="2.35088">
        <ele>132</ele>
        <time>2023-11-22T14:15:15Z</time>
      </trkpt>
      <trkpt lat="50.01866" lon="2.35087">
        <ele>132</ele>
        <time>2023-11-22T14:15:16Z</time>
      </trkpt>
      <trkpt lat="50.01867" lon="2.35086">
        <ele>132</ele>
        <time>2023-11-22T14:15:17Z</time>
      </trkpt>
      <trkpt lat="50.01868" lon="2.35086">
        <ele>132</ele>
        <time>2023-11-22T14:15:18Z</time>
      </trkpt>
      <trkpt lat="50.01869" lon="2.35085">
        <ele>132</ele>
        <time>2023-11-22T14:15:19Z</time>
      </trkpt>
      <trkpt lat="50.0187" lon="2.35084">
        <ele>132</ele>
        <time>2023-11-22T14:15:20Z</time>
      </trkpt>
      <trkpt lat="50.0187" lon="2.35082">
        <ele>132</ele>
        <time>2023-11-22T14:15:21Z</time>
      </trkpt>
      <trkpt lat="50.0187" lon="2.35081">
        <ele>132</ele>
        <time>2023-11-22T14:15:22Z</time>
      </trkpt>
      <trkpt lat="50.0187" lon="2.35079">
        <ele>132</ele>
        <time>2023-11-22T14:15:23Z</time>
      </trkpt>
      <trkpt lat="50.0187" lon="2.35078">
        <ele>132</ele>
        <time>2023-11-22T14:15:24Z</time>
      </trkpt>
      <trkpt lat="50.0187" lon="2.35076">
        <ele>132</ele>
        <time>2023-11-22T14:15:25Z</time>
      </trkpt>
      <trkpt lat="50.01871" lon="2.35075">
        <ele>132</ele>
        <time>2023-11-22T14:15:26Z</time>
      </trkpt>
      <trkpt lat="50.01871" lon="2.35074">
        <ele>132</ele>
        <time>2023-11-22T14:15:27Z</time>
      </trkpt>
      <trkpt lat="50.01871" lon="2.35072">
        <ele>132</ele>
        <time>2023-11-22T14:15:28Z</time>
      </trkpt>
      <trkpt lat="50.01872" lon="2.35071">
        <ele>132</ele>
        <time>2023-11-22T14:15:29Z</time>
      </trkpt>
      <trkpt lat="50.01872" lon="2.3507">
        <ele>132</ele>
        <time>2023-11-22T14:15:30Z</time>
      </trkpt>
      <trkpt lat="50.01873" lon="2.35069">
        <ele>132</ele>
        <time>2023-11-22T14:15:31Z</time>
      </trkpt>
      <trkpt lat="50.01873" lon="2.35067">
        <ele>132</ele>
        <time>2023-11-22T14:15:32Z</time>
      </trkpt>
      <trkpt lat="50.01874" lon="2.35066">
        <ele>132</ele>
        <time>2023-11-22T14:15:33Z</time>
      </trkpt>
      <trkpt lat="50.01874" lon="2.35065">
        <ele>132</ele>
        <time>2023-11-22T14:15:34Z</time>
      </trkpt>
      <trkpt lat="50.01875" lon="2.35063">
        <ele>132</ele>
        <time>2023-11-22T14:15:35Z</time>
      </trkpt>
      <trkpt lat="50.01875" lon="2.35062">
        <ele>132</ele>
        <time>2023-11-22T14:15:36Z</time>
      </trkpt>
      <trkpt lat="50.01876" lon="2.3506">
        <ele>132</ele>
        <time>2023-11-22T14:15:37Z</time>
      </trkpt>
      <trkpt lat="50.01876" lon="2.35059">
        <ele>132</ele>
        <time>2023-11-22T14:15:38Z</time>
      </trkpt>
      <trkpt lat="50.01877" lon="2.35056">
        <ele>132</ele>
        <time>2023-11-22T14:15:39Z</time>
      </trkpt>
      <trkpt lat="50.01878" lon="2.35055">
        <ele>132</ele>
        <time>2023-11-22T14:15:40Z</time>
      </trkpt>
      <trkpt lat="50.01878" lon="2.35054">
        <ele>132</ele>
        <time>2023-11-22T14:15:41Z</time>
      </trkpt>
      <trkpt lat="50.01879" lon="2.35051">
        <ele>132</ele>
        <time>2023-11-22T14:15:42Z</time>
      </trkpt>
      <trkpt lat="50.0188" lon="2.3505">
        <ele>132</ele>
        <time>2023-11-22T14:15:43Z</time>
      </trkpt>
      <trkpt lat="50.0188" lon="2.35049">
        <ele>132</ele>
        <time>2023-11-22T14:15:44Z</time>
      </trkpt>
      <trkpt lat="50.01881" lon="2.35048">
        <ele>132</ele>
        <time>2023-11-22T14:15:45Z</time>
      </trkpt>
      <trkpt lat="50.01882" lon="2.35046">
        <ele>132</ele>
        <time>2023-11-22T14:15:46Z</time>
      </trkpt>
      <trkpt lat="50.01882" lon="2.35045">
        <ele>132</ele>
        <time>2023-11-22T14:15:47Z</time>
      </trkpt>
      <trkpt lat="50.01883" lon="2.35044">
        <ele>132</ele>
        <time>2023-11-22T14:15:48Z</time>
      </trkpt>
      <trkpt lat="50.01884" lon="2.35043">
        <ele>132</ele>
        <time>2023-11-22T14:15:49Z</time>
      </trkpt>
      <trkpt lat="50.01885" lon="2.35042">
        <ele>132</ele>
        <time>2023-11-22T14:15:50Z</time>
      </trkpt>
      <trkpt lat="50.01886" lon="2.35041">
        <ele>132</ele>
        <time>2023-11-22T14:15:51Z</time>
      </trkpt>
      <trkpt lat="50.01886" lon="2.3504">
        <ele>132</ele>
        <time>2023-11-22T14:15:52Z</time>
      </trkpt>
      <trkpt lat="50.01887" lon="2.35039">
        <ele>132</ele>
        <time>2023-11-22T14:15:53Z</time>
      </trkpt>
      <trkpt lat="50.01887" lon="2.35038">
        <ele>132</ele>
        <time>2023-11-22T14:15:54Z</time>
      </trkpt>
      <trkpt lat="50.01887" lon="2.35037">
        <ele>132</ele>
        <time>2023-11-22T14:15:55Z</time>
      </trkpt>
      <trkpt lat="50.01887" lon="2.35036">
        <ele>132</ele>
        <time>2023-11-22T14:15:56Z</time>
      </trkpt>
      <trkpt lat="50.01888" lon="2.35035">
        <ele>132</ele>
        <time>2023-11-22T14:15:57Z</time>
      </trkpt>
      <trkpt lat="50.01889" lon="2.35034">
        <ele>132</ele>
        <time>2023-11-22T14:15:58Z</time>
      </trkpt>
      <trkpt lat="50.01889" lon="2.35034">
        <ele>132</ele>
        <time>2023-11-22T14:15:59Z</time>
      </trkpt>
      <trkpt lat="50.0189" lon="2.35033">
        <ele>132</ele>
        <time>2023-11-22T14:16:00Z</time>
      </trkpt>
      <trkpt lat="50.0189" lon="2.35032">
        <ele>132</ele>
        <time>2023-11-22T14:16:01Z</time>
      </trkpt>
      <trkpt lat="50.0189" lon="2.35031">
        <ele>131.9</ele>
        <time>2023-11-22T14:16:02Z</time>
      </trkpt>
      <trkpt lat="50.01891" lon="2.3503">
        <ele>131.9</ele>
        <time>2023-11-22T14:16:03Z</time>
      </trkpt>
      <trkpt lat="50.01891" lon="2.35029">
        <ele>131.9</ele>
        <time>2023-11-22T14:16:04Z</time>
      </trkpt>
      <trkpt lat="50.01891" lon="2.35028">
        <ele>131.9</ele>
        <time>2023-11-22T14:16:05Z</time>
      </trkpt>
      <trkpt lat="50.01892" lon="2.35027">
        <ele>131.9</ele>
        <time>2023-11-22T14:16:06Z</time>
      </trkpt>
      <trkpt lat="50.01892" lon="2.35026">
        <ele>131.9</ele>
        <time>2023-11-22T14:16:07Z</time>
      </trkpt>
      <trkpt lat="50.01892" lon="2.35025">
        <ele>131.9</ele>
        <time>2023-11-22T14:16:08Z</time>
      </trkpt>
      <trkpt lat="50.01893" lon="2.35023">
        <ele>131.9</ele>
        <time>2023-11-22T14:16:09Z</time>
      </trkpt>
      <trkpt lat="50.01893" lon="2.35022">
        <ele>131.9</ele>
        <time>2023-11-22T14:16:10Z</time>
      </trkpt>
      <trkpt lat="50.01894" lon="2.35021">
        <ele>131.9</ele>
        <time>2023-11-22T14:16:11Z</time>
      </trkpt>
      <trkpt lat="50.01894" lon="2.3502">
        <ele>131.9</ele>
        <time>2023-11-22T14:16:12Z</time>
      </trkpt>
      <trkpt lat="50.01895" lon="2.35019">
        <ele>131.9</ele>
        <time>2023-11-22T14:16:13Z</time>
      </trkpt>
      <trkpt lat="50.01896" lon="2.35017">
        <ele>131.9</ele>
        <time>2023-11-22T14:16:14Z</time>
      </trkpt>
      <trkpt lat="50.01896" lon="2.35017">
        <ele>131.9</ele>
        <time>2023-11-22T14:16:15Z</time>
      </trkpt>
      <trkpt lat="50.01897" lon="2.35016">
        <ele>131.9</ele>
        <time>2023-11-22T14:16:16Z</time>
      </trkpt>
      <trkpt lat="50.01897" lon="2.35014">
        <ele>131.9</ele>
        <time>2023-11-22T14:16:17Z</time>
      </trkpt>
      <trkpt lat="50.01898" lon="2.35013">
        <ele>131.9</ele>
        <time>2023-11-22T14:16:18Z</time>
      </trkpt>
      <trkpt lat="50.01898" lon="2.35012">
        <ele>131.9</ele>
        <time>2023-11-22T14:16:19Z</time>
      </trkpt>
      <trkpt lat="50.01899" lon="2.35011">
        <ele>131.9</ele>
        <time>2023-11-22T14:16:20Z</time>
      </trkpt>
      <trkpt lat="50.01899" lon="2.3501">
        <ele>131.9</ele>
        <time>2023-11-22T14:16:21Z</time>
      </trkpt>
      <trkpt lat="50.01899" lon="2.35009">
        <ele>131.9</ele>
        <time>2023-11-22T14:16:22Z</time>
      </trkpt>
      <trkpt lat="50.019" lon="2.35009">
        <ele>131.9</ele>
        <time>2023-11-22T14:16:23Z</time>
      </trkpt>
      <trkpt lat="50.019" lon="2.35008">
        <ele>131.9</ele>
        <time>2023-11-22T14:16:24Z</time>
      </trkpt>
      <trkpt lat="50.019" lon="2.35007">
        <ele>131.9</ele>
        <time>2023-11-22T14:16:25Z</time>
      </trkpt>
      <trkpt lat="50.01901" lon="2.35006">
        <ele>131.9</ele>
        <time>2023-11-22T14:16:26Z</time>
      </trkpt>
      <trkpt lat="50.01901" lon="2.35005">
        <ele>131.9</ele>
        <time>2023-11-22T14:16:27Z</time>
      </trkpt>
      <trkpt lat="50.01901" lon="2.35005">
        <ele>131.9</ele>
        <time>2023-11-22T14:16:28Z</time>
      </trkpt>
      <trkpt lat="50.01902" lon="2.35004">
        <ele>131.9</ele>
        <time>2023-11-22T14:16:29Z</time>
      </trkpt>
      <trkpt lat="50.01902" lon="2.35004">
        <ele>131.9</ele>
        <time>2023-11-22T14:16:30Z</time>
      </trkpt>
      <trkpt lat="50.01902" lon="2.35003">
        <ele>131.9</ele>
        <time>2023-11-22T14:16:31Z</time>
      </trkpt>
      <trkpt lat="50.01903" lon="2.35002">
        <ele>131.9</ele>
        <time>2023-11-22T14:16:32Z</time>
      </trkpt>
      <trkpt lat="50.01903" lon="2.35001">
        <ele>131.9</ele>
        <time>2023-11-22T14:16:33Z</time>
      </trkpt>
      <trkpt lat="50.01904" lon="2.34999">
        <ele>131.9</ele>
        <time>2023-11-22T14:16:34Z</time>
      </trkpt>
      <trkpt lat="50.01904" lon="2.34999">
        <ele>131.9</ele>
        <time>2023-11-22T14:16:35Z</time>
      </trkpt>
      <trkpt lat="50.01904" lon="2.34998">
        <ele>131.9</ele>
        <time>2023-11-22T14:16:36Z</time>
      </trkpt>
      <trkpt lat="50.01905" lon="2.34996">
        <ele>131.9</ele>
        <time>2023-11-22T14:16:37Z</time>
      </trkpt>
      <trkpt lat="50.01906" lon="2.34995">
        <ele>131.9</ele>
        <time>2023-11-22T14:16:38Z</time>
      </trkpt>
      <trkpt lat="50.01906" lon="2.34994">
        <ele>131.9</ele>
        <time>2023-11-22T14:16:39Z</time>
      </trkpt>
      <trkpt lat="50.01907" lon="2.34993">
        <ele>131.9</ele>
        <time>2023-11-22T14:16:40Z</time>
      </trkpt>
      <trkpt lat="50.01908" lon="2.3499">
        <ele>131.9</ele>
        <time>2023-11-22T14:16:41Z</time>
      </trkpt>
      <trkpt lat="50.01908" lon="2.34989">
        <ele>131.9</ele>
        <time>2023-11-22T14:16:42Z</time>
      </trkpt>
      <trkpt lat="50.01909" lon="2.34988">
        <ele>131.9</ele>
        <time>2023-11-22T14:16:43Z</time>
      </trkpt>
      <trkpt lat="50.0191" lon="2.34985">
        <ele>131.9</ele>
        <time>2023-11-22T14:16:44Z</time>
      </trkpt>
      <trkpt lat="50.0191" lon="2.34984">
        <ele>131.9</ele>
        <time>2023-11-22T14:16:45Z</time>
      </trkpt>
      <trkpt lat="50.01911" lon="2.34983">
        <ele>131.9</ele>
        <time>2023-11-22T14:16:46Z</time>
      </trkpt>
      <trkpt lat="50.01911" lon="2.34982">
        <ele>131.9</ele>
        <time>2023-11-22T14:16:47Z</time>
      </trkpt>
      <trkpt lat="50.01912" lon="2.3498">
        <ele>131.9</ele>
        <time>2023-11-22T14:16:48Z</time>
      </trkpt>
      <trkpt lat="50.01912" lon="2.34979">
        <ele>131.9</ele>
        <time>2023-11-22T14:16:49Z</time>
      </trkpt>
      <trkpt lat="50.01913" lon="2.34978">
        <ele>131.9</ele>
        <time>2023-11-22T14:16:50Z</time>
      </trkpt>
      <trkpt lat="50.01913" lon="2.34976">
        <ele>131.9</ele>
        <time>2023-11-22T14:16:51Z</time>
      </trkpt>
      <trkpt lat="50.01914" lon="2.34975">
        <ele>131.9</ele>
        <time>2023-11-22T14:16:52Z</time>
      </trkpt>
      <trkpt lat="50.01915" lon="2.34974">
        <ele>131.9</ele>
        <time>2023-11-22T14:16:53Z</time>
      </trkpt>
      <trkpt lat="50.01915" lon="2.34973">
        <ele>131.9</ele>
        <time>2023-11-22T14:16:54Z</time>
      </trkpt>
      <trkpt lat="50.01916" lon="2.34971">
        <ele>131.9</ele>
        <time>2023-11-22T14:16:55Z</time>
      </trkpt>
      <trkpt lat="50.01916" lon="2.3497">
        <ele>131.9</ele>
        <time>2023-11-22T14:16:56Z</time>
      </trkpt>
      <trkpt lat="50.01917" lon="2.34968">
        <ele>131.9</ele>
        <time>2023-11-22T14:16:57Z</time>
      </trkpt>
      <trkpt lat="50.01917" lon="2.34967">
        <ele>132</ele>
        <time>2023-11-22T14:16:58Z</time>
      </trkpt>
      <trkpt lat="50.01918" lon="2.34965">
        <ele>132</ele>
        <time>2023-11-22T14:16:59Z</time>
      </trkpt>
      <trkpt lat="50.01918" lon="2.34964">
        <ele>132</ele>
        <time>2023-11-22T14:17:00Z</time>
      </trkpt>
      <trkpt lat="50.01919" lon="2.34963">
        <ele>132</ele>
        <time>2023-11-22T14:17:01Z</time>
      </trkpt>
      <trkpt lat="50.01919" lon="2.34961">
        <ele>132</ele>
        <time>2023-11-22T14:17:02Z</time>
      </trkpt>
      <trkpt lat="50.0192" lon="2.3496">
        <ele>132</ele>
        <time>2023-11-22T14:17:03Z</time>
      </trkpt>
      <trkpt lat="50.0192" lon="2.34959">
        <ele>132</ele>
        <time>2023-11-22T14:17:04Z</time>
      </trkpt>
      <trkpt lat="50.01921" lon="2.34957">
        <ele>132</ele>
        <time>2023-11-22T14:17:05Z</time>
      </trkpt>
      <trkpt lat="50.01922" lon="2.34956">
        <ele>132</ele>
        <time>2023-11-22T14:17:06Z</time>
      </trkpt>
      <trkpt lat="50.01922" lon="2.34954">
        <ele>132</ele>
        <time>2023-11-22T14:17:07Z</time>
      </trkpt>
      <trkpt lat="50.01923" lon="2.34953">
        <ele>132</ele>
        <time>2023-11-22T14:17:08Z</time>
      </trkpt>
      <trkpt lat="50.01924" lon="2.34952">
        <ele>132</ele>
        <time>2023-11-22T14:17:09Z</time>
      </trkpt>
      <trkpt lat="50.01924" lon="2.34951">
        <ele>132</ele>
        <time>2023-11-22T14:17:10Z</time>
      </trkpt>
      <trkpt lat="50.01925" lon="2.34949">
        <ele>132</ele>
        <time>2023-11-22T14:17:11Z</time>
      </trkpt>
      <trkpt lat="50.01925" lon="2.34948">
        <ele>132</ele>
        <time>2023-11-22T14:17:12Z</time>
      </trkpt>
      <trkpt lat="50.01926" lon="2.34946">
        <ele>132</ele>
        <time>2023-11-22T14:17:13Z</time>
      </trkpt>
      <trkpt lat="50.01927" lon="2.34945">
        <ele>132</ele>
        <time>2023-11-22T14:17:14Z</time>
      </trkpt>
      <trkpt lat="50.01927" lon="2.34943">
        <ele>132</ele>
        <time>2023-11-22T14:17:15Z</time>
      </trkpt>
      <trkpt lat="50.01928" lon="2.34942">
        <ele>132</ele>
        <time>2023-11-22T14:17:16Z</time>
      </trkpt>
      <trkpt lat="50.01928" lon="2.34941">
        <ele>132</ele>
        <time>2023-11-22T14:17:17Z</time>
      </trkpt>
      <trkpt lat="50.01929" lon="2.34939">
        <ele>132</ele>
        <time>2023-11-22T14:17:18Z</time>
      </trkpt>
      <trkpt lat="50.01929" lon="2.34938">
        <ele>132</ele>
        <time>2023-11-22T14:17:19Z</time>
      </trkpt>
      <trkpt lat="50.01929" lon="2.34936">
        <ele>132</ele>
        <time>2023-11-22T14:17:20Z</time>
      </trkpt>
      <trkpt lat="50.0193" lon="2.34935">
        <ele>132</ele>
        <time>2023-11-22T14:17:21Z</time>
      </trkpt>
      <trkpt lat="50.0193" lon="2.34933">
        <ele>132</ele>
        <time>2023-11-22T14:17:22Z</time>
      </trkpt>
      <trkpt lat="50.0193" lon="2.34931">
        <ele>132</ele>
        <time>2023-11-22T14:17:23Z</time>
      </trkpt>
      <trkpt lat="50.01931" lon="2.3493">
        <ele>132</ele>
        <time>2023-11-22T14:17:24Z</time>
      </trkpt>
      <trkpt lat="50.01932" lon="2.34928">
        <ele>132</ele>
        <time>2023-11-22T14:17:25Z</time>
      </trkpt>
      <trkpt lat="50.01932" lon="2.34927">
        <ele>132</ele>
        <time>2023-11-22T14:17:26Z</time>
      </trkpt>
      <trkpt lat="50.01933" lon="2.34926">
        <ele>132</ele>
        <time>2023-11-22T14:17:27Z</time>
      </trkpt>
      <trkpt lat="50.01934" lon="2.34925">
        <ele>132</ele>
        <time>2023-11-22T14:17:28Z</time>
      </trkpt>
      <trkpt lat="50.01934" lon="2.34923">
        <ele>132</ele>
        <time>2023-11-22T14:17:29Z</time>
      </trkpt>
      <trkpt lat="50.01935" lon="2.34922">
        <ele>132</ele>
        <time>2023-11-22T14:17:30Z</time>
      </trkpt>
      <trkpt lat="50.01936" lon="2.34921">
        <ele>132</ele>
        <time>2023-11-22T14:17:31Z</time>
      </trkpt>
      <trkpt lat="50.01936" lon="2.3492">
        <ele>132.1</ele>
        <time>2023-11-22T14:17:32Z</time>
      </trkpt>
      <trkpt lat="50.01937" lon="2.34919">
        <ele>132.1</ele>
        <time>2023-11-22T14:17:33Z</time>
      </trkpt>
      <trkpt lat="50.01938" lon="2.34917">
        <ele>132.1</ele>
        <time>2023-11-22T14:17:34Z</time>
      </trkpt>
      <trkpt lat="50.01938" lon="2.34916">
        <ele>132.1</ele>
        <time>2023-11-22T14:17:35Z</time>
      </trkpt>
      <trkpt lat="50.01939" lon="2.34915">
        <ele>132.1</ele>
        <time>2023-11-22T14:17:36Z</time>
      </trkpt>
      <trkpt lat="50.0194" lon="2.34913">
        <ele>132.1</ele>
        <time>2023-11-22T14:17:37Z</time>
      </trkpt>
      <trkpt lat="50.0194" lon="2.34912">
        <ele>132.1</ele>
        <time>2023-11-22T14:17:38Z</time>
      </trkpt>
      <trkpt lat="50.0194" lon="2.34911">
        <ele>132.1</ele>
        <time>2023-11-22T14:17:39Z</time>
      </trkpt>
      <trkpt lat="50.01941" lon="2.34909">
        <ele>132.1</ele>
        <time>2023-11-22T14:17:40Z</time>
      </trkpt>
      <trkpt lat="50.01941" lon="2.34908">
        <ele>132.1</ele>
        <time>2023-11-22T14:17:41Z</time>
      </trkpt>
      <trkpt lat="50.01942" lon="2.34907">
        <ele>132.1</ele>
        <time>2023-11-22T14:17:42Z</time>
      </trkpt>
      <trkpt lat="50.01942" lon="2.34906">
        <ele>132.1</ele>
        <time>2023-11-22T14:17:43Z</time>
      </trkpt>
      <trkpt lat="50.01943" lon="2.34905">
        <ele>132.1</ele>
        <time>2023-11-22T14:17:44Z</time>
      </trkpt>
      <trkpt lat="50.01943" lon="2.34904">
        <ele>132.1</ele>
        <time>2023-11-22T14:17:45Z</time>
      </trkpt>
      <trkpt lat="50.01944" lon="2.34904">
        <ele>132.1</ele>
        <time>2023-11-22T14:17:46Z</time>
      </trkpt>
      <trkpt lat="50.01944" lon="2.34903">
        <ele>132.1</ele>
        <time>2023-11-22T14:17:47Z</time>
      </trkpt>
      <trkpt lat="50.01945" lon="2.34902">
        <ele>132.1</ele>
        <time>2023-11-22T14:17:48Z</time>
      </trkpt>
      <trkpt lat="50.01946" lon="2.349">
        <ele>132.1</ele>
        <time>2023-11-22T14:17:49Z</time>
      </trkpt>
      <trkpt lat="50.01946" lon="2.34899">
        <ele>132.1</ele>
        <time>2023-11-22T14:17:50Z</time>
      </trkpt>
      <trkpt lat="50.01947" lon="2.34898">
        <ele>132.2</ele>
        <time>2023-11-22T14:17:51Z</time>
      </trkpt>
      <trkpt lat="50.01947" lon="2.34896">
        <ele>132.2</ele>
        <time>2023-11-22T14:17:52Z</time>
      </trkpt>
      <trkpt lat="50.01948" lon="2.34895">
        <ele>132.2</ele>
        <time>2023-11-22T14:17:53Z</time>
      </trkpt>
      <trkpt lat="50.01948" lon="2.34894">
        <ele>132.2</ele>
        <time>2023-11-22T14:17:54Z</time>
      </trkpt>
      <trkpt lat="50.01948" lon="2.34893">
        <ele>132.2</ele>
        <time>2023-11-22T14:17:55Z</time>
      </trkpt>
      <trkpt lat="50.01949" lon="2.34891">
        <ele>132.2</ele>
        <time>2023-11-22T14:17:56Z</time>
      </trkpt>
      <trkpt lat="50.01949" lon="2.3489">
        <ele>132.2</ele>
        <time>2023-11-22T14:17:57Z</time>
      </trkpt>
      <trkpt lat="50.0195" lon="2.34888">
        <ele>132.2</ele>
        <time>2023-11-22T14:17:58Z</time>
      </trkpt>
      <trkpt lat="50.0195" lon="2.34887">
        <ele>132.2</ele>
        <time>2023-11-22T14:17:59Z</time>
      </trkpt>
      <trkpt lat="50.01951" lon="2.34885">
        <ele>132.3</ele>
        <time>2023-11-22T14:18:00Z</time>
      </trkpt>
      <trkpt lat="50.01951" lon="2.34884">
        <ele>132.3</ele>
        <time>2023-11-22T14:18:01Z</time>
      </trkpt>
      <trkpt lat="50.01951" lon="2.34883">
        <ele>132.3</ele>
        <time>2023-11-22T14:18:02Z</time>
      </trkpt>
      <trkpt lat="50.01952" lon="2.34881">
        <ele>132.3</ele>
        <time>2023-11-22T14:18:03Z</time>
      </trkpt>
      <trkpt lat="50.01952" lon="2.34879">
        <ele>132.3</ele>
        <time>2023-11-22T14:18:04Z</time>
      </trkpt>
      <trkpt lat="50.01953" lon="2.34878">
        <ele>132.3</ele>
        <time>2023-11-22T14:18:05Z</time>
      </trkpt>
      <trkpt lat="50.01953" lon="2.34876">
        <ele>132.3</ele>
        <time>2023-11-22T14:18:06Z</time>
      </trkpt>
      <trkpt lat="50.01954" lon="2.34875">
        <ele>132.3</ele>
        <time>2023-11-22T14:18:07Z</time>
      </trkpt>
      <trkpt lat="50.01954" lon="2.34873">
        <ele>132.4</ele>
        <time>2023-11-22T14:18:08Z</time>
      </trkpt>
      <trkpt lat="50.01955" lon="2.34872">
        <ele>132.4</ele>
        <time>2023-11-22T14:18:09Z</time>
      </trkpt>
      <trkpt lat="50.01955" lon="2.34871">
        <ele>132.4</ele>
        <time>2023-11-22T14:18:10Z</time>
      </trkpt>
      <trkpt lat="50.01956" lon="2.34869">
        <ele>132.4</ele>
        <time>2023-11-22T14:18:11Z</time>
      </trkpt>
      <trkpt lat="50.01956" lon="2.34868">
        <ele>132.4</ele>
        <time>2023-11-22T14:18:12Z</time>
      </trkpt>
      <trkpt lat="50.01956" lon="2.34867">
        <ele>132.4</ele>
        <time>2023-11-22T14:18:13Z</time>
      </trkpt>
      <trkpt lat="50.01957" lon="2.34865">
        <ele>132.4</ele>
        <time>2023-11-22T14:18:14Z</time>
      </trkpt>
      <trkpt lat="50.01957" lon="2.34864">
        <ele>132.5</ele>
        <time>2023-11-22T14:18:15Z</time>
      </trkpt>
      <trkpt lat="50.01958" lon="2.34863">
        <ele>132.5</ele>
        <time>2023-11-22T14:18:16Z</time>
      </trkpt>
      <trkpt lat="50.01958" lon="2.34862">
        <ele>132.5</ele>
        <time>2023-11-22T14:18:17Z</time>
      </trkpt>
      <trkpt lat="50.01959" lon="2.34861">
        <ele>132.5</ele>
        <time>2023-11-22T14:18:18Z</time>
      </trkpt>
      <trkpt lat="50.01959" lon="2.3486">
        <ele>132.5</ele>
        <time>2023-11-22T14:18:19Z</time>
      </trkpt>
      <trkpt lat="50.0196" lon="2.34859">
        <ele>132.5</ele>
        <time>2023-11-22T14:18:20Z</time>
      </trkpt>
      <trkpt lat="50.01961" lon="2.34858">
        <ele>132.5</ele>
        <time>2023-11-22T14:18:21Z</time>
      </trkpt>
      <trkpt lat="50.01961" lon="2.34856">
        <ele>132.5</ele>
        <time>2023-11-22T14:18:22Z</time>
      </trkpt>
      <trkpt lat="50.01962" lon="2.34856">
        <ele>132.6</ele>
        <time>2023-11-22T14:18:23Z</time>
      </trkpt>
      <trkpt lat="50.01962" lon="2.34855">
        <ele>132.6</ele>
        <time>2023-11-22T14:18:24Z</time>
      </trkpt>
      <trkpt lat="50.01963" lon="2.34854">
        <ele>132.6</ele>
        <time>2023-11-22T14:18:25Z</time>
      </trkpt>
      <trkpt lat="50.01963" lon="2.34852">
        <ele>132.6</ele>
        <time>2023-11-22T14:18:26Z</time>
      </trkpt>
      <trkpt lat="50.01964" lon="2.34851">
        <ele>132.6</ele>
        <time>2023-11-22T14:18:27Z</time>
      </trkpt>
      <trkpt lat="50.01964" lon="2.34849">
        <ele>132.6</ele>
        <time>2023-11-22T14:18:28Z</time>
      </trkpt>
      <trkpt lat="50.01965" lon="2.34848">
        <ele>132.7</ele>
        <time>2023-11-22T14:18:29Z</time>
      </trkpt>
      <trkpt lat="50.01966" lon="2.34846">
        <ele>132.7</ele>
        <time>2023-11-22T14:18:30Z</time>
      </trkpt>
      <trkpt lat="50.01966" lon="2.34845">
        <ele>132.7</ele>
        <time>2023-11-22T14:18:31Z</time>
      </trkpt>
      <trkpt lat="50.01967" lon="2.34844">
        <ele>132.7</ele>
        <time>2023-11-22T14:18:32Z</time>
      </trkpt>
      <trkpt lat="50.01967" lon="2.34842">
        <ele>132.7</ele>
        <time>2023-11-22T14:18:33Z</time>
      </trkpt>
      <trkpt lat="50.01968" lon="2.34841">
        <ele>132.7</ele>
        <time>2023-11-22T14:18:34Z</time>
      </trkpt>
      <trkpt lat="50.01968" lon="2.34839">
        <ele>132.7</ele>
        <time>2023-11-22T14:18:35Z</time>
      </trkpt>
      <trkpt lat="50.01969" lon="2.34838">
        <ele>132.7</ele>
        <time>2023-11-22T14:18:36Z</time>
      </trkpt>
      <trkpt lat="50.01969" lon="2.34836">
        <ele>132.8</ele>
        <time>2023-11-22T14:18:37Z</time>
      </trkpt>
      <trkpt lat="50.0197" lon="2.34835">
        <ele>132.8</ele>
        <time>2023-11-22T14:18:38Z</time>
      </trkpt>
      <trkpt lat="50.0197" lon="2.34833">
        <ele>132.8</ele>
        <time>2023-11-22T14:18:39Z</time>
      </trkpt>
      <trkpt lat="50.01971" lon="2.34832">
        <ele>132.8</ele>
        <time>2023-11-22T14:18:40Z</time>
      </trkpt>
      <trkpt lat="50.01971" lon="2.34831">
        <ele>132.8</ele>
        <time>2023-11-22T14:18:41Z</time>
      </trkpt>
      <trkpt lat="50.01972" lon="2.3483">
        <ele>132.8</ele>
        <time>2023-11-22T14:18:42Z</time>
      </trkpt>
      <trkpt lat="50.01973" lon="2.34828">
        <ele>132.8</ele>
        <time>2023-11-22T14:18:43Z</time>
      </trkpt>
      <trkpt lat="50.01973" lon="2.34827">
        <ele>132.8</ele>
        <time>2023-11-22T14:18:44Z</time>
      </trkpt>
      <trkpt lat="50.01974" lon="2.34825">
        <ele>132.9</ele>
        <time>2023-11-22T14:18:45Z</time>
      </trkpt>
      <trkpt lat="50.01974" lon="2.34824">
        <ele>132.9</ele>
        <time>2023-11-22T14:18:46Z</time>
      </trkpt>
      <trkpt lat="50.01975" lon="2.34822">
        <ele>132.9</ele>
        <time>2023-11-22T14:18:47Z</time>
      </trkpt>
      <trkpt lat="50.01975" lon="2.34821">
        <ele>132.9</ele>
        <time>2023-11-22T14:18:48Z</time>
      </trkpt>
      <trkpt lat="50.01976" lon="2.3482">
        <ele>132.9</ele>
        <time>2023-11-22T14:18:49Z</time>
      </trkpt>
      <trkpt lat="50.01977" lon="2.34818">
        <ele>132.9</ele>
        <time>2023-11-22T14:18:50Z</time>
      </trkpt>
      <trkpt lat="50.01977" lon="2.34817">
        <ele>132.9</ele>
        <time>2023-11-22T14:18:51Z</time>
      </trkpt>
      <trkpt lat="50.01978" lon="2.34815">
        <ele>132.9</ele>
        <time>2023-11-22T14:18:52Z</time>
      </trkpt>
      <trkpt lat="50.01979" lon="2.34814">
        <ele>132.9</ele>
        <time>2023-11-22T14:18:53Z</time>
      </trkpt>
      <trkpt lat="50.01979" lon="2.34812">
        <ele>133</ele>
        <time>2023-11-22T14:18:54Z</time>
      </trkpt>
      <trkpt lat="50.0198" lon="2.34811">
        <ele>133</ele>
        <time>2023-11-22T14:18:55Z</time>
      </trkpt>
      <trkpt lat="50.0198" lon="2.3481">
        <ele>133</ele>
        <time>2023-11-22T14:18:56Z</time>
      </trkpt>
      <trkpt lat="50.01981" lon="2.34809">
        <ele>133</ele>
        <time>2023-11-22T14:18:57Z</time>
      </trkpt>
      <trkpt lat="50.01982" lon="2.34808">
        <ele>133</ele>
        <time>2023-11-22T14:18:58Z</time>
      </trkpt>
      <trkpt lat="50.01982" lon="2.34806">
        <ele>133</ele>
        <time>2023-11-22T14:18:59Z</time>
      </trkpt>
      <trkpt lat="50.01983" lon="2.34805">
        <ele>133</ele>
        <time>2023-11-22T14:19:00Z</time>
      </trkpt>
      <trkpt lat="50.01984" lon="2.34803">
        <ele>133</ele>
        <time>2023-11-22T14:19:01Z</time>
      </trkpt>
      <trkpt lat="50.01984" lon="2.34802">
        <ele>133</ele>
        <time>2023-11-22T14:19:02Z</time>
      </trkpt>
      <trkpt lat="50.01985" lon="2.34801">
        <ele>133</ele>
        <time>2023-11-22T14:19:03Z</time>
      </trkpt>
      <trkpt lat="50.01985" lon="2.348">
        <ele>133</ele>
        <time>2023-11-22T14:19:04Z</time>
      </trkpt>
      <trkpt lat="50.01986" lon="2.34799">
        <ele>133</ele>
        <time>2023-11-22T14:19:05Z</time>
      </trkpt>
      <trkpt lat="50.01987" lon="2.34798">
        <ele>133</ele>
        <time>2023-11-22T14:19:06Z</time>
      </trkpt>
      <trkpt lat="50.01987" lon="2.34797">
        <ele>133</ele>
        <time>2023-11-22T14:19:07Z</time>
      </trkpt>
      <trkpt lat="50.01988" lon="2.34796">
        <ele>133.1</ele>
        <time>2023-11-22T14:19:08Z</time>
      </trkpt>
      <trkpt lat="50.01989" lon="2.34794">
        <ele>133.1</ele>
        <time>2023-11-22T14:19:09Z</time>
      </trkpt>
      <trkpt lat="50.01989" lon="2.34793">
        <ele>133.1</ele>
        <time>2023-11-22T14:19:10Z</time>
      </trkpt>
      <trkpt lat="50.0199" lon="2.34792">
        <ele>133.1</ele>
        <time>2023-11-22T14:19:11Z</time>
      </trkpt>
      <trkpt lat="50.0199" lon="2.34791">
        <ele>133.1</ele>
        <time>2023-11-22T14:19:12Z</time>
      </trkpt>
      <trkpt lat="50.01991" lon="2.34789">
        <ele>133.1</ele>
        <time>2023-11-22T14:19:13Z</time>
      </trkpt>
      <trkpt lat="50.01991" lon="2.34788">
        <ele>133.1</ele>
        <time>2023-11-22T14:19:14Z</time>
      </trkpt>
      <trkpt lat="50.01992" lon="2.34787">
        <ele>133.1</ele>
        <time>2023-11-22T14:19:15Z</time>
      </trkpt>
      <trkpt lat="50.01992" lon="2.34785">
        <ele>133.1</ele>
        <time>2023-11-22T14:19:16Z</time>
      </trkpt>
      <trkpt lat="50.01993" lon="2.34784">
        <ele>133.1</ele>
        <time>2023-11-22T14:19:17Z</time>
      </trkpt>
      <trkpt lat="50.01994" lon="2.34783">
        <ele>133.1</ele>
        <time>2023-11-22T14:19:18Z</time>
      </trkpt>
      <trkpt lat="50.01994" lon="2.34782">
        <ele>133.1</ele>
        <time>2023-11-22T14:19:19Z</time>
      </trkpt>
      <trkpt lat="50.01995" lon="2.34781">
        <ele>133.1</ele>
        <time>2023-11-22T14:19:20Z</time>
      </trkpt>
      <trkpt lat="50.01995" lon="2.3478">
        <ele>133.1</ele>
        <time>2023-11-22T14:19:21Z</time>
      </trkpt>
      <trkpt lat="50.01996" lon="2.34779">
        <ele>133.1</ele>
        <time>2023-11-22T14:19:22Z</time>
      </trkpt>
      <trkpt lat="50.01996" lon="2.34778">
        <ele>133.1</ele>
        <time>2023-11-22T14:19:23Z</time>
      </trkpt>
      <trkpt lat="50.01997" lon="2.34777">
        <ele>133.1</ele>
        <time>2023-11-22T14:19:24Z</time>
      </trkpt>
      <trkpt lat="50.01998" lon="2.34776">
        <ele>133.1</ele>
        <time>2023-11-22T14:19:25Z</time>
      </trkpt>
      <trkpt lat="50.01998" lon="2.34775">
        <ele>133.1</ele>
        <time>2023-11-22T14:19:26Z</time>
      </trkpt>
      <trkpt lat="50.01999" lon="2.34774">
        <ele>133.1</ele>
        <time>2023-11-22T14:19:27Z</time>
      </trkpt>
      <trkpt lat="50.01999" lon="2.34772">
        <ele>133.1</ele>
        <time>2023-11-22T14:19:28Z</time>
      </trkpt>
      <trkpt lat="50.02" lon="2.34771">
        <ele>133.2</ele>
        <time>2023-11-22T14:19:29Z</time>
      </trkpt>
      <trkpt lat="50.02" lon="2.3477">
        <ele>133.2</ele>
        <time>2023-11-22T14:19:30Z</time>
      </trkpt>
      <trkpt lat="50.02001" lon="2.34769">
        <ele>133.2</ele>
        <time>2023-11-22T14:19:31Z</time>
      </trkpt>
      <trkpt lat="50.02001" lon="2.34768">
        <ele>133.2</ele>
        <time>2023-11-22T14:19:32Z</time>
      </trkpt>
      <trkpt lat="50.02002" lon="2.34766">
        <ele>133.2</ele>
        <time>2023-11-22T14:19:33Z</time>
      </trkpt>
      <trkpt lat="50.02002" lon="2.34765">
        <ele>133.2</ele>
        <time>2023-11-22T14:19:34Z</time>
      </trkpt>
      <trkpt lat="50.02003" lon="2.34764">
        <ele>133.2</ele>
        <time>2023-11-22T14:19:35Z</time>
      </trkpt>
      <trkpt lat="50.02003" lon="2.34762">
        <ele>133.2</ele>
        <time>2023-11-22T14:19:36Z</time>
      </trkpt>
      <trkpt lat="50.02004" lon="2.34761">
        <ele>133.2</ele>
        <time>2023-11-22T14:19:37Z</time>
      </trkpt>
      <trkpt lat="50.02004" lon="2.34759">
        <ele>133.2</ele>
        <time>2023-11-22T14:19:38Z</time>
      </trkpt>
      <trkpt lat="50.02005" lon="2.34758">
        <ele>133.2</ele>
        <time>2023-11-22T14:19:39Z</time>
      </trkpt>
      <trkpt lat="50.02005" lon="2.34757">
        <ele>133.2</ele>
        <time>2023-11-22T14:19:40Z</time>
      </trkpt>
      <trkpt lat="50.02006" lon="2.34756">
        <ele>133.3</ele>
        <time>2023-11-22T14:19:41Z</time>
      </trkpt>
      <trkpt lat="50.02006" lon="2.34754">
        <ele>133.3</ele>
        <time>2023-11-22T14:19:42Z</time>
      </trkpt>
      <trkpt lat="50.02007" lon="2.34753">
        <ele>133.3</ele>
        <time>2023-11-22T14:19:43Z</time>
      </trkpt>
      <trkpt lat="50.02007" lon="2.34751">
        <ele>133.3</ele>
        <time>2023-11-22T14:19:44Z</time>
      </trkpt>
      <trkpt lat="50.02008" lon="2.3475">
        <ele>133.3</ele>
        <time>2023-11-22T14:19:45Z</time>
      </trkpt>
      <trkpt lat="50.02008" lon="2.34748">
        <ele>133.3</ele>
        <time>2023-11-22T14:19:46Z</time>
      </trkpt>
      <trkpt lat="50.02009" lon="2.34746">
        <ele>133.3</ele>
        <time>2023-11-22T14:19:47Z</time>
      </trkpt>
      <trkpt lat="50.02009" lon="2.34745">
        <ele>133.3</ele>
        <time>2023-11-22T14:19:48Z</time>
      </trkpt>
      <trkpt lat="50.0201" lon="2.34743">
        <ele>133.3</ele>
        <time>2023-11-22T14:19:49Z</time>
      </trkpt>
      <trkpt lat="50.02011" lon="2.34742">
        <ele>133.3</ele>
        <time>2023-11-22T14:19:50Z</time>
      </trkpt>
      <trkpt lat="50.02011" lon="2.34741">
        <ele>133.3</ele>
        <time>2023-11-22T14:19:51Z</time>
      </trkpt>
      <trkpt lat="50.02012" lon="2.3474">
        <ele>133.3</ele>
        <time>2023-11-22T14:19:52Z</time>
      </trkpt>
      <trkpt lat="50.02012" lon="2.34739">
        <ele>133.3</ele>
        <time>2023-11-22T14:19:53Z</time>
      </trkpt>
      <trkpt lat="50.02013" lon="2.34738">
        <ele>133.3</ele>
        <time>2023-11-22T14:19:54Z</time>
      </trkpt>
      <trkpt lat="50.02014" lon="2.34736">
        <ele>133.3</ele>
        <time>2023-11-22T14:19:55Z</time>
      </trkpt>
      <trkpt lat="50.02015" lon="2.34735">
        <ele>133.3</ele>
        <time>2023-11-22T14:19:56Z</time>
      </trkpt>
      <trkpt lat="50.02015" lon="2.34734">
        <ele>133.3</ele>
        <time>2023-11-22T14:19:57Z</time>
      </trkpt>
      <trkpt lat="50.02016" lon="2.34733">
        <ele>133.3</ele>
        <time>2023-11-22T14:19:58Z</time>
      </trkpt>
      <trkpt lat="50.02017" lon="2.34731">
        <ele>133.3</ele>
        <time>2023-11-22T14:19:59Z</time>
      </trkpt>
      <trkpt lat="50.02017" lon="2.3473">
        <ele>133.3</ele>
        <time>2023-11-22T14:20:00Z</time>
      </trkpt>
      <trkpt lat="50.02018" lon="2.34729">
        <ele>133.3</ele>
        <time>2023-11-22T14:20:01Z</time>
      </trkpt>
      <trkpt lat="50.02018" lon="2.34728">
        <ele>133.3</ele>
        <time>2023-11-22T14:20:02Z</time>
      </trkpt>
      <trkpt lat="50.02019" lon="2.34726">
        <ele>133.3</ele>
        <time>2023-11-22T14:20:03Z</time>
      </trkpt>
      <trkpt lat="50.02019" lon="2.34725">
        <ele>133.3</ele>
        <time>2023-11-22T14:20:04Z</time>
      </trkpt>
      <trkpt lat="50.0202" lon="2.34724">
        <ele>133.3</ele>
        <time>2023-11-22T14:20:05Z</time>
      </trkpt>
      <trkpt lat="50.02021" lon="2.34722">
        <ele>133.3</ele>
        <time>2023-11-22T14:20:06Z</time>
      </trkpt>
      <trkpt lat="50.02021" lon="2.34721">
        <ele>133.3</ele>
        <time>2023-11-22T14:20:07Z</time>
      </trkpt>
      <trkpt lat="50.02022" lon="2.34719">
        <ele>133.3</ele>
        <time>2023-11-22T14:20:08Z</time>
      </trkpt>
      <trkpt lat="50.02022" lon="2.34718">
        <ele>133.3</ele>
        <time>2023-11-22T14:20:09Z</time>
      </trkpt>
      <trkpt lat="50.02023" lon="2.34717">
        <ele>133.3</ele>
        <time>2023-11-22T14:20:10Z</time>
      </trkpt>
      <trkpt lat="50.02023" lon="2.34716">
        <ele>133.3</ele>
        <time>2023-11-22T14:20:11Z</time>
      </trkpt>
      <trkpt lat="50.02024" lon="2.34715">
        <ele>133.3</ele>
        <time>2023-11-22T14:20:12Z</time>
      </trkpt>
      <trkpt lat="50.02024" lon="2.34713">
        <ele>133.3</ele>
        <time>2023-11-22T14:20:13Z</time>
      </trkpt>
      <trkpt lat="50.02025" lon="2.34712">
        <ele>133.3</ele>
        <time>2023-11-22T14:20:14Z</time>
      </trkpt>
      <trkpt lat="50.02025" lon="2.34711">
        <ele>133.3</ele>
        <time>2023-11-22T14:20:15Z</time>
      </trkpt>
      <trkpt lat="50.02026" lon="2.34709">
        <ele>133.3</ele>
        <time>2023-11-22T14:20:16Z</time>
      </trkpt>
      <trkpt lat="50.02026" lon="2.34708">
        <ele>133.2</ele>
        <time>2023-11-22T14:20:17Z</time>
      </trkpt>
      <trkpt lat="50.02026" lon="2.34707">
        <ele>133.2</ele>
        <time>2023-11-22T14:20:18Z</time>
      </trkpt>
      <trkpt lat="50.02027" lon="2.34706">
        <ele>133.2</ele>
        <time>2023-11-22T14:20:19Z</time>
      </trkpt>
      <trkpt lat="50.02028" lon="2.34705">
        <ele>133.2</ele>
        <time>2023-11-22T14:20:20Z</time>
      </trkpt>
      <trkpt lat="50.02028" lon="2.34704">
        <ele>133.2</ele>
        <time>2023-11-22T14:20:21Z</time>
      </trkpt>
      <trkpt lat="50.02029" lon="2.34703">
        <ele>133.2</ele>
        <time>2023-11-22T14:20:22Z</time>
      </trkpt>
      <trkpt lat="50.0203" lon="2.34702">
        <ele>133.2</ele>
        <time>2023-11-22T14:20:23Z</time>
      </trkpt>
      <trkpt lat="50.02031" lon="2.347">
        <ele>133.2</ele>
        <time>2023-11-22T14:20:24Z</time>
      </trkpt>
      <trkpt lat="50.02031" lon="2.34699">
        <ele>133.2</ele>
        <time>2023-11-22T14:20:25Z</time>
      </trkpt>
      <trkpt lat="50.02032" lon="2.34697">
        <ele>133.2</ele>
        <time>2023-11-22T14:20:26Z</time>
      </trkpt>
      <trkpt lat="50.02032" lon="2.34696">
        <ele>133.2</ele>
        <time>2023-11-22T14:20:27Z</time>
      </trkpt>
      <trkpt lat="50.02033" lon="2.34695">
        <ele>133.1</ele>
        <time>2023-11-22T14:20:28Z</time>
      </trkpt>
      <trkpt lat="50.02033" lon="2.34694">
        <ele>133.1</ele>
        <time>2023-11-22T14:20:29Z</time>
      </trkpt>
      <trkpt lat="50.02034" lon="2.34692">
        <ele>133.1</ele>
        <time>2023-11-22T14:20:30Z</time>
      </trkpt>
      <trkpt lat="50.02035" lon="2.34691">
        <ele>133.1</ele>
        <time>2023-11-22T14:20:31Z</time>
      </trkpt>
      <trkpt lat="50.02035" lon="2.3469">
        <ele>133.1</ele>
        <time>2023-11-22T14:20:32Z</time>
      </trkpt>
      <trkpt lat="50.02036" lon="2.34689">
        <ele>133.1</ele>
        <time>2023-11-22T14:20:33Z</time>
      </trkpt>
      <trkpt lat="50.02036" lon="2.34688">
        <ele>133.1</ele>
        <time>2023-11-22T14:20:34Z</time>
      </trkpt>
      <trkpt lat="50.02037" lon="2.34687">
        <ele>133.1</ele>
        <time>2023-11-22T14:20:35Z</time>
      </trkpt>
      <trkpt lat="50.02037" lon="2.34686">
        <ele>133.1</ele>
        <time>2023-11-22T14:20:36Z</time>
      </trkpt>
      <trkpt lat="50.02038" lon="2.34685">
        <ele>133.1</ele>
        <time>2023-11-22T14:20:37Z</time>
      </trkpt>
      <trkpt lat="50.02039" lon="2.34684">
        <ele>133.1</ele>
        <time>2023-11-22T14:20:38Z</time>
      </trkpt>
      <trkpt lat="50.02039" lon="2.34682">
        <ele>133.1</ele>
        <time>2023-11-22T14:20:39Z</time>
      </trkpt>
      <trkpt lat="50.0204" lon="2.34681">
        <ele>133.1</ele>
        <time>2023-11-22T14:20:40Z</time>
      </trkpt>
      <trkpt lat="50.02041" lon="2.3468">
        <ele>133</ele>
        <time>2023-11-22T14:20:41Z</time>
      </trkpt>
      <trkpt lat="50.02041" lon="2.34679">
        <ele>133</ele>
        <time>2023-11-22T14:20:42Z</time>
      </trkpt>
      <trkpt lat="50.02042" lon="2.34678">
        <ele>133</ele>
        <time>2023-11-22T14:20:43Z</time>
      </trkpt>
      <trkpt lat="50.02042" lon="2.34676">
        <ele>133</ele>
        <time>2023-11-22T14:20:44Z</time>
      </trkpt>
      <trkpt lat="50.02043" lon="2.34675">
        <ele>133</ele>
        <time>2023-11-22T14:20:45Z</time>
      </trkpt>
      <trkpt lat="50.02044" lon="2.34674">
        <ele>133</ele>
        <time>2023-11-22T14:20:46Z</time>
      </trkpt>
      <trkpt lat="50.02044" lon="2.34672">
        <ele>133</ele>
        <time>2023-11-22T14:20:47Z</time>
      </trkpt>
      <trkpt lat="50.02045" lon="2.34671">
        <ele>132.9</ele>
        <time>2023-11-22T14:20:48Z</time>
      </trkpt>
      <trkpt lat="50.02046" lon="2.3467">
        <ele>132.9</ele>
        <time>2023-11-22T14:20:49Z</time>
      </trkpt>
      <trkpt lat="50.02047" lon="2.34669">
        <ele>132.9</ele>
        <time>2023-11-22T14:20:50Z</time>
      </trkpt>
      <trkpt lat="50.02047" lon="2.34667">
        <ele>132.9</ele>
        <time>2023-11-22T14:20:51Z</time>
      </trkpt>
      <trkpt lat="50.02048" lon="2.34666">
        <ele>132.9</ele>
        <time>2023-11-22T14:20:52Z</time>
      </trkpt>
      <trkpt lat="50.02049" lon="2.34665">
        <ele>132.9</ele>
        <time>2023-11-22T14:20:53Z</time>
      </trkpt>
      <trkpt lat="50.02049" lon="2.34664">
        <ele>132.8</ele>
        <time>2023-11-22T14:20:54Z</time>
      </trkpt>
      <trkpt lat="50.0205" lon="2.34663">
        <ele>132.8</ele>
        <time>2023-11-22T14:20:55Z</time>
      </trkpt>
      <trkpt lat="50.0205" lon="2.34662">
        <ele>132.8</ele>
        <time>2023-11-22T14:20:56Z</time>
      </trkpt>
      <trkpt lat="50.02051" lon="2.3466">
        <ele>132.8</ele>
        <time>2023-11-22T14:20:57Z</time>
      </trkpt>
      <trkpt lat="50.02051" lon="2.34659">
        <ele>132.8</ele>
        <time>2023-11-22T14:20:58Z</time>
      </trkpt>
      <trkpt lat="50.02052" lon="2.34658">
        <ele>132.8</ele>
        <time>2023-11-22T14:20:59Z</time>
      </trkpt>
      <trkpt lat="50.02053" lon="2.34657">
        <ele>132.8</ele>
        <time>2023-11-22T14:21:00Z</time>
      </trkpt>
      <trkpt lat="50.02053" lon="2.34656">
        <ele>132.8</ele>
        <time>2023-11-22T14:21:01Z</time>
      </trkpt>
      <trkpt lat="50.02054" lon="2.34655">
        <ele>132.7</ele>
        <time>2023-11-22T14:21:02Z</time>
      </trkpt>
      <trkpt lat="50.02055" lon="2.34654">
        <ele>132.7</ele>
        <time>2023-11-22T14:21:03Z</time>
      </trkpt>
      <trkpt lat="50.02056" lon="2.34653">
        <ele>132.7</ele>
        <time>2023-11-22T14:21:04Z</time>
      </trkpt>
      <trkpt lat="50.02056" lon="2.34652">
        <ele>132.7</ele>
        <time>2023-11-22T14:21:05Z</time>
      </trkpt>
      <trkpt lat="50.02057" lon="2.34651">
        <ele>132.7</ele>
        <time>2023-11-22T14:21:06Z</time>
      </trkpt>
      <trkpt lat="50.02058" lon="2.34651">
        <ele>132.7</ele>
        <time>2023-11-22T14:21:07Z</time>
      </trkpt>
      <trkpt lat="50.02058" lon="2.3465">
        <ele>132.7</ele>
        <time>2023-11-22T14:21:08Z</time>
      </trkpt>
      <trkpt lat="50.02059" lon="2.34649">
        <ele>132.7</ele>
        <time>2023-11-22T14:21:09Z</time>
      </trkpt>
      <trkpt lat="50.0206" lon="2.34648">
        <ele>132.7</ele>
        <time>2023-11-22T14:21:10Z</time>
      </trkpt>
      <trkpt lat="50.02061" lon="2.34647">
        <ele>132.7</ele>
        <time>2023-11-22T14:21:11Z</time>
      </trkpt>
      <trkpt lat="50.02062" lon="2.34646">
        <ele>132.6</ele>
        <time>2023-11-22T14:21:12Z</time>
      </trkpt>
      <trkpt lat="50.02062" lon="2.34645">
        <ele>132.6</ele>
        <time>2023-11-22T14:21:13Z</time>
      </trkpt>
      <trkpt lat="50.02063" lon="2.34644">
        <ele>132.6</ele>
        <time>2023-11-22T14:21:14Z</time>
      </trkpt>
      <trkpt lat="50.02064" lon="2.34643">
        <ele>132.6</ele>
        <time>2023-11-22T14:21:15Z</time>
      </trkpt>
      <trkpt lat="50.02064" lon="2.34641">
        <ele>132.6</ele>
        <time>2023-11-22T14:21:16Z</time>
      </trkpt>
      <trkpt lat="50.02065" lon="2.3464">
        <ele>132.6</ele>
        <time>2023-11-22T14:21:17Z</time>
      </trkpt>
      <trkpt lat="50.02065" lon="2.34638">
        <ele>132.6</ele>
        <time>2023-11-22T14:21:18Z</time>
      </trkpt>
      <trkpt lat="50.02066" lon="2.34637">
        <ele>132.6</ele>
        <time>2023-11-22T14:21:19Z</time>
      </trkpt>
      <trkpt lat="50.02067" lon="2.34636">
        <ele>132.6</ele>
        <time>2023-11-22T14:21:20Z</time>
      </trkpt>
      <trkpt lat="50.02067" lon="2.34634">
        <ele>132.5</ele>
        <time>2023-11-22T14:21:21Z</time>
      </trkpt>
      <trkpt lat="50.02068" lon="2.34633">
        <ele>132.5</ele>
        <time>2023-11-22T14:21:22Z</time>
      </trkpt>
      <trkpt lat="50.02069" lon="2.34632">
        <ele>132.5</ele>
        <time>2023-11-22T14:21:23Z</time>
      </trkpt>
      <trkpt lat="50.02069" lon="2.34631">
        <ele>132.5</ele>
        <time>2023-11-22T14:21:24Z</time>
      </trkpt>
      <trkpt lat="50.0207" lon="2.3463">
        <ele>132.5</ele>
        <time>2023-11-22T14:21:25Z</time>
      </trkpt>
      <trkpt lat="50.02071" lon="2.34629">
        <ele>132.5</ele>
        <time>2023-11-22T14:21:26Z</time>
      </trkpt>
      <trkpt lat="50.02071" lon="2.34627">
        <ele>132.5</ele>
        <time>2023-11-22T14:21:27Z</time>
      </trkpt>
      <trkpt lat="50.02072" lon="2.34626">
        <ele>132.5</ele>
        <time>2023-11-22T14:21:28Z</time>
      </trkpt>
      <trkpt lat="50.02073" lon="2.34625">
        <ele>132.4</ele>
        <time>2023-11-22T14:21:29Z</time>
      </trkpt>
      <trkpt lat="50.02073" lon="2.34624">
        <ele>132.4</ele>
        <time>2023-11-22T14:21:30Z</time>
      </trkpt>
      <trkpt lat="50.02074" lon="2.34623">
        <ele>132.4</ele>
        <time>2023-11-22T14:21:31Z</time>
      </trkpt>
      <trkpt lat="50.02075" lon="2.34622">
        <ele>132.4</ele>
        <time>2023-11-22T14:21:32Z</time>
      </trkpt>
      <trkpt lat="50.02075" lon="2.3462">
        <ele>132.4</ele>
        <time>2023-11-22T14:21:33Z</time>
      </trkpt>
      <trkpt lat="50.02076" lon="2.34619">
        <ele>132.4</ele>
        <time>2023-11-22T14:21:34Z</time>
      </trkpt>
      <trkpt lat="50.02077" lon="2.34618">
        <ele>132.3</ele>
        <time>2023-11-22T14:21:35Z</time>
      </trkpt>
      <trkpt lat="50.02077" lon="2.34617">
        <ele>132.3</ele>
        <time>2023-11-22T14:21:36Z</time>
      </trkpt>
      <trkpt lat="50.02078" lon="2.34615">
        <ele>132.3</ele>
        <time>2023-11-22T14:21:37Z</time>
      </trkpt>
      <trkpt lat="50.02078" lon="2.34614">
        <ele>132.3</ele>
        <time>2023-11-22T14:21:38Z</time>
      </trkpt>
      <trkpt lat="50.02079" lon="2.34613">
        <ele>132.3</ele>
        <time>2023-11-22T14:21:39Z</time>
      </trkpt>
      <trkpt lat="50.0208" lon="2.34612">
        <ele>132.3</ele>
        <time>2023-11-22T14:21:40Z</time>
      </trkpt>
      <trkpt lat="50.0208" lon="2.34611">
        <ele>132.2</ele>
        <time>2023-11-22T14:21:41Z</time>
      </trkpt>
      <trkpt lat="50.02081" lon="2.3461">
        <ele>132.2</ele>
        <time>2023-11-22T14:21:42Z</time>
      </trkpt>
      <trkpt lat="50.02081" lon="2.34609">
        <ele>132.2</ele>
        <time>2023-11-22T14:21:43Z</time>
      </trkpt>
      <trkpt lat="50.02082" lon="2.34608">
        <ele>132.2</ele>
        <time>2023-11-22T14:21:44Z</time>
      </trkpt>
      <trkpt lat="50.02083" lon="2.34606">
        <ele>132.2</ele>
        <time>2023-11-22T14:21:45Z</time>
      </trkpt>
      <trkpt lat="50.02083" lon="2.34605">
        <ele>132.2</ele>
        <time>2023-11-22T14:21:46Z</time>
      </trkpt>
      <trkpt lat="50.02084" lon="2.34604">
        <ele>132.1</ele>
        <time>2023-11-22T14:21:47Z</time>
      </trkpt>
      <trkpt lat="50.02085" lon="2.34603">
        <ele>132.1</ele>
        <time>2023-11-22T14:21:48Z</time>
      </trkpt>
      <trkpt lat="50.02085" lon="2.34601">
        <ele>132.1</ele>
        <time>2023-11-22T14:21:49Z</time>
      </trkpt>
      <trkpt lat="50.02086" lon="2.346">
        <ele>132.1</ele>
        <time>2023-11-22T14:21:50Z</time>
      </trkpt>
      <trkpt lat="50.02087" lon="2.34599">
        <ele>132.1</ele>
        <time>2023-11-22T14:21:51Z</time>
      </trkpt>
      <trkpt lat="50.02087" lon="2.34598">
        <ele>132.1</ele>
        <time>2023-11-22T14:21:52Z</time>
      </trkpt>
      <trkpt lat="50.02088" lon="2.34597">
        <ele>132.1</ele>
        <time>2023-11-22T14:21:53Z</time>
      </trkpt>
      <trkpt lat="50.02088" lon="2.34596">
        <ele>132.1</ele>
        <time>2023-11-22T14:21:54Z</time>
      </trkpt>
      <trkpt lat="50.02089" lon="2.34594">
        <ele>132.1</ele>
        <time>2023-11-22T14:21:55Z</time>
      </trkpt>
      <trkpt lat="50.02089" lon="2.34592">
        <ele>132.1</ele>
        <time>2023-11-22T14:21:56Z</time>
      </trkpt>
      <trkpt lat="50.02089" lon="2.34591">
        <ele>132.1</ele>
        <time>2023-11-22T14:21:57Z</time>
      </trkpt>
      <trkpt lat="50.0209" lon="2.3459">
        <ele>132.1</ele>
        <time>2023-11-22T14:21:58Z</time>
      </trkpt>
      <trkpt lat="50.0209" lon="2.34589">
        <ele>132.1</ele>
        <time>2023-11-22T14:21:59Z</time>
      </trkpt>
      <trkpt lat="50.0209" lon="2.34588">
        <ele>132.1</ele>
        <time>2023-11-22T14:22:00Z</time>
      </trkpt>
      <trkpt lat="50.02091" lon="2.34587">
        <ele>132.1</ele>
        <time>2023-11-22T14:22:01Z</time>
      </trkpt>
      <trkpt lat="50.02091" lon="2.34585">
        <ele>132.1</ele>
        <time>2023-11-22T14:22:02Z</time>
      </trkpt>
      <trkpt lat="50.02091" lon="2.34584">
        <ele>132.1</ele>
        <time>2023-11-22T14:22:03Z</time>
      </trkpt>
      <trkpt lat="50.0209" lon="2.34583">
        <ele>132.1</ele>
        <time>2023-11-22T14:22:04Z</time>
      </trkpt>
      <trkpt lat="50.02089" lon="2.34583">
        <ele>132.1</ele>
        <time>2023-11-22T14:22:05Z</time>
      </trkpt>
      <trkpt lat="50.02089" lon="2.34582">
        <ele>132.1</ele>
        <time>2023-11-22T14:22:06Z</time>
      </trkpt>
      <trkpt lat="50.02088" lon="2.3458">
        <ele>132.1</ele>
        <time>2023-11-22T14:22:07Z</time>
      </trkpt>
      <trkpt lat="50.02088" lon="2.34579">
        <ele>132.1</ele>
        <time>2023-11-22T14:22:08Z</time>
      </trkpt>
      <trkpt lat="50.02087" lon="2.34578">
        <ele>132.1</ele>
        <time>2023-11-22T14:22:09Z</time>
      </trkpt>
      <trkpt lat="50.02087" lon="2.34578">
        <ele>132.1</ele>
        <time>2023-11-22T14:22:10Z</time>
      </trkpt>
      <trkpt lat="50.02087" lon="2.34578">
        <ele>132.1</ele>
        <time>2023-11-22T14:22:11Z</time>
      </trkpt>
      <trkpt lat="50.02087" lon="2.34578">
        <ele>132.1</ele>
        <time>2023-11-22T14:22:12Z</time>
      </trkpt>
      <trkpt lat="50.02087" lon="2.34579">
        <ele>132.1</ele>
        <time>2023-11-22T14:22:13Z</time>
      </trkpt>
      <trkpt lat="50.02088" lon="2.34579">
        <ele>132.1</ele>
        <time>2023-11-22T14:22:14Z</time>
      </trkpt>
      <trkpt lat="50.02089" lon="2.34579">
        <ele>132.1</ele>
        <time>2023-11-22T14:22:15Z</time>
      </trkpt>
      <trkpt lat="50.0209" lon="2.34579">
        <ele>132.1</ele>
        <time>2023-11-22T14:22:16Z</time>
      </trkpt>
      <trkpt lat="50.02092" lon="2.3458">
        <ele>132.1</ele>
        <time>2023-11-22T14:22:17Z</time>
      </trkpt>
      <trkpt lat="50.02093" lon="2.3458">
        <ele>132.1</ele>
        <time>2023-11-22T14:22:18Z</time>
      </trkpt>
      <trkpt lat="50.02093" lon="2.3458">
        <ele>132.1</ele>
        <time>2023-11-22T14:22:19Z</time>
      </trkpt>
      <trkpt lat="50.02094" lon="2.3458">
        <ele>132.1</ele>
        <time>2023-11-22T14:22:20Z</time>
      </trkpt>
      <trkpt lat="50.02095" lon="2.34579">
        <ele>132.1</ele>
        <time>2023-11-22T14:22:21Z</time>
      </trkpt>
      <trkpt lat="50.02095" lon="2.34578">
        <ele>132.1</ele>
        <time>2023-11-22T14:22:22Z</time>
      </trkpt>
      <trkpt lat="50.02096" lon="2.34578">
        <ele>132.1</ele>
        <time>2023-11-22T14:22:23Z</time>
      </trkpt>
      <trkpt lat="50.02096" lon="2.34577">
        <ele>132.1</ele>
        <time>2023-11-22T14:22:24Z</time>
      </trkpt>
      <trkpt lat="50.02097" lon="2.34576">
        <ele>132.2</ele>
        <time>2023-11-22T14:22:25Z</time>
      </trkpt>
      <trkpt lat="50.02097" lon="2.34575">
        <ele>132.2</ele>
        <time>2023-11-22T14:22:26Z</time>
      </trkpt>
      <trkpt lat="50.02098" lon="2.34573">
        <ele>132.2</ele>
        <time>2023-11-22T14:22:27Z</time>
      </trkpt>
      <trkpt lat="50.02098" lon="2.34572">
        <ele>132.2</ele>
        <time>2023-11-22T14:22:28Z</time>
      </trkpt>
      <trkpt lat="50.02099" lon="2.34571">
        <ele>132.2</ele>
        <time>2023-11-22T14:22:29Z</time>
      </trkpt>
      <trkpt lat="50.02099" lon="2.34569">
        <ele>132.2</ele>
        <time>2023-11-22T14:22:30Z</time>
      </trkpt>
      <trkpt lat="50.021" lon="2.34568">
        <ele>132.2</ele>
        <time>2023-11-22T14:22:31Z</time>
      </trkpt>
      <trkpt lat="50.021" lon="2.34567">
        <ele>132.2</ele>
        <time>2023-11-22T14:22:32Z</time>
      </trkpt>
      <trkpt lat="50.02101" lon="2.34565">
        <ele>132.2</ele>
        <time>2023-11-22T14:22:33Z</time>
      </trkpt>
      <trkpt lat="50.02101" lon="2.34564">
        <ele>132.2</ele>
        <time>2023-11-22T14:22:34Z</time>
      </trkpt>
      <trkpt lat="50.02102" lon="2.34562">
        <ele>132.2</ele>
        <time>2023-11-22T14:22:35Z</time>
      </trkpt>
      <trkpt lat="50.02103" lon="2.34559">
        <ele>132.2</ele>
        <time>2023-11-22T14:22:36Z</time>
      </trkpt>
      <trkpt lat="50.02103" lon="2.34557">
        <ele>132.1</ele>
        <time>2023-11-22T14:22:37Z</time>
      </trkpt>
      <trkpt lat="50.02104" lon="2.34554">
        <ele>132.1</ele>
        <time>2023-11-22T14:22:38Z</time>
      </trkpt>
      <trkpt lat="50.02105" lon="2.34552">
        <ele>132.1</ele>
        <time>2023-11-22T14:22:39Z</time>
      </trkpt>
      <trkpt lat="50.02105" lon="2.3455">
        <ele>132.1</ele>
        <time>2023-11-22T14:22:40Z</time>
      </trkpt>
      <trkpt lat="50.02106" lon="2.34547">
        <ele>132.1</ele>
        <time>2023-11-22T14:22:41Z</time>
      </trkpt>
      <trkpt lat="50.02106" lon="2.34546">
        <ele>132.1</ele>
        <time>2023-11-22T14:22:42Z</time>
      </trkpt>
      <trkpt lat="50.02107" lon="2.34545">
        <ele>132.1</ele>
        <time>2023-11-22T14:22:43Z</time>
      </trkpt>
      <trkpt lat="50.02107" lon="2.34542">
        <ele>132.1</ele>
        <time>2023-11-22T14:22:44Z</time>
      </trkpt>
      <trkpt lat="50.02108" lon="2.3454">
        <ele>132.1</ele>
        <time>2023-11-22T14:22:45Z</time>
      </trkpt>
      <trkpt lat="50.02108" lon="2.34539">
        <ele>132.1</ele>
        <time>2023-11-22T14:22:46Z</time>
      </trkpt>
      <trkpt lat="50.02109" lon="2.34537">
        <ele>132</ele>
        <time>2023-11-22T14:22:47Z</time>
      </trkpt>
      <trkpt lat="50.02109" lon="2.34536">
        <ele>132</ele>
        <time>2023-11-22T14:22:48Z</time>
      </trkpt>
      <trkpt lat="50.02109" lon="2.34534">
        <ele>132</ele>
        <time>2023-11-22T14:22:49Z</time>
      </trkpt>
      <trkpt lat="50.0211" lon="2.34533">
        <ele>132</ele>
        <time>2023-11-22T14:22:50Z</time>
      </trkpt>
      <trkpt lat="50.0211" lon="2.34531">
        <ele>132</ele>
        <time>2023-11-22T14:22:51Z</time>
      </trkpt>
      <trkpt lat="50.0211" lon="2.3453">
        <ele>132</ele>
        <time>2023-11-22T14:22:52Z</time>
      </trkpt>
      <trkpt lat="50.02111" lon="2.34528">
        <ele>132</ele>
        <time>2023-11-22T14:22:53Z</time>
      </trkpt>
      <trkpt lat="50.02111" lon="2.34527">
        <ele>132</ele>
        <time>2023-11-22T14:22:54Z</time>
      </trkpt>
      <trkpt lat="50.02112" lon="2.34525">
        <ele>132</ele>
        <time>2023-11-22T14:22:55Z</time>
      </trkpt>
      <trkpt lat="50.02112" lon="2.34524">
        <ele>132</ele>
        <time>2023-11-22T14:22:56Z</time>
      </trkpt>
      <trkpt lat="50.02113" lon="2.34523">
        <ele>132</ele>
        <time>2023-11-22T14:22:57Z</time>
      </trkpt>
      <trkpt lat="50.02113" lon="2.34521">
        <ele>132</ele>
        <time>2023-11-22T14:22:58Z</time>
      </trkpt>
      <trkpt lat="50.02114" lon="2.3452">
        <ele>132</ele>
        <time>2023-11-22T14:22:59Z</time>
      </trkpt>
      <trkpt lat="50.02114" lon="2.34519">
        <ele>132</ele>
        <time>2023-11-22T14:23:00Z</time>
      </trkpt>
      <trkpt lat="50.02115" lon="2.34517">
        <ele>132</ele>
        <time>2023-11-22T14:23:01Z</time>
      </trkpt>
      <trkpt lat="50.02115" lon="2.34516">
        <ele>132</ele>
        <time>2023-11-22T14:23:02Z</time>
      </trkpt>
      <trkpt lat="50.02116" lon="2.34514">
        <ele>132</ele>
        <time>2023-11-22T14:23:03Z</time>
      </trkpt>
      <trkpt lat="50.02116" lon="2.34513">
        <ele>132</ele>
        <time>2023-11-22T14:23:04Z</time>
      </trkpt>
      <trkpt lat="50.02117" lon="2.34511">
        <ele>132</ele>
        <time>2023-11-22T14:23:05Z</time>
      </trkpt>
      <trkpt lat="50.02118" lon="2.3451">
        <ele>132</ele>
        <time>2023-11-22T14:23:06Z</time>
      </trkpt>
      <trkpt lat="50.02118" lon="2.34509">
        <ele>132</ele>
        <time>2023-11-22T14:23:07Z</time>
      </trkpt>
      <trkpt lat="50.02118" lon="2.34508">
        <ele>132</ele>
        <time>2023-11-22T14:23:08Z</time>
      </trkpt>
      <trkpt lat="50.02119" lon="2.34507">
        <ele>132</ele>
        <time>2023-11-22T14:23:09Z</time>
      </trkpt>
      <trkpt lat="50.02119" lon="2.34505">
        <ele>132</ele>
        <time>2023-11-22T14:23:10Z</time>
      </trkpt>
      <trkpt lat="50.0212" lon="2.34504">
        <ele>132</ele>
        <time>2023-11-22T14:23:11Z</time>
      </trkpt>
      <trkpt lat="50.02121" lon="2.34502">
        <ele>132</ele>
        <time>2023-11-22T14:23:12Z</time>
      </trkpt>
      <trkpt lat="50.02121" lon="2.34501">
        <ele>132</ele>
        <time>2023-11-22T14:23:13Z</time>
      </trkpt>
      <trkpt lat="50.02122" lon="2.345">
        <ele>132</ele>
        <time>2023-11-22T14:23:14Z</time>
      </trkpt>
      <trkpt lat="50.02122" lon="2.34498">
        <ele>132</ele>
        <time>2023-11-22T14:23:15Z</time>
      </trkpt>
      <trkpt lat="50.02123" lon="2.34497">
        <ele>132</ele>
        <time>2023-11-22T14:23:16Z</time>
      </trkpt>
      <trkpt lat="50.02123" lon="2.34495">
        <ele>132</ele>
        <time>2023-11-22T14:23:17Z</time>
      </trkpt>
      <trkpt lat="50.02124" lon="2.34492">
        <ele>132</ele>
        <time>2023-11-22T14:23:18Z</time>
      </trkpt>
      <trkpt lat="50.02125" lon="2.34491">
        <ele>132</ele>
        <time>2023-11-22T14:23:19Z</time>
      </trkpt>
      <trkpt lat="50.02125" lon="2.3449">
        <ele>132</ele>
        <time>2023-11-22T14:23:20Z</time>
      </trkpt>
      <trkpt lat="50.02126" lon="2.34488">
        <ele>132.1</ele>
        <time>2023-11-22T14:23:21Z</time>
      </trkpt>
      <trkpt lat="50.02126" lon="2.34487">
        <ele>132.1</ele>
        <time>2023-11-22T14:23:22Z</time>
      </trkpt>
      <trkpt lat="50.02127" lon="2.34485">
        <ele>132.1</ele>
        <time>2023-11-22T14:23:23Z</time>
      </trkpt>
      <trkpt lat="50.02128" lon="2.34483">
        <ele>132.1</ele>
        <time>2023-11-22T14:23:24Z</time>
      </trkpt>
      <trkpt lat="50.02128" lon="2.34482">
        <ele>132.1</ele>
        <time>2023-11-22T14:23:25Z</time>
      </trkpt>
      <trkpt lat="50.02129" lon="2.34481">
        <ele>132.1</ele>
        <time>2023-11-22T14:23:26Z</time>
      </trkpt>
      <trkpt lat="50.0213" lon="2.34479">
        <ele>132.1</ele>
        <time>2023-11-22T14:23:27Z</time>
      </trkpt>
      <trkpt lat="50.0213" lon="2.34478">
        <ele>132.1</ele>
        <time>2023-11-22T14:23:28Z</time>
      </trkpt>
      <trkpt lat="50.02131" lon="2.34476">
        <ele>132.1</ele>
        <time>2023-11-22T14:23:29Z</time>
      </trkpt>
      <trkpt lat="50.02131" lon="2.34475">
        <ele>132.1</ele>
        <time>2023-11-22T14:23:30Z</time>
      </trkpt>
      <trkpt lat="50.02132" lon="2.34474">
        <ele>132.1</ele>
        <time>2023-11-22T14:23:31Z</time>
      </trkpt>
      <trkpt lat="50.02133" lon="2.34472">
        <ele>132.1</ele>
        <time>2023-11-22T14:23:32Z</time>
      </trkpt>
      <trkpt lat="50.02133" lon="2.34471">
        <ele>132.1</ele>
        <time>2023-11-22T14:23:33Z</time>
      </trkpt>
      <trkpt lat="50.02134" lon="2.3447">
        <ele>132.1</ele>
        <time>2023-11-22T14:23:34Z</time>
      </trkpt>
      <trkpt lat="50.02135" lon="2.34469">
        <ele>132.1</ele>
        <time>2023-11-22T14:23:35Z</time>
      </trkpt>
      <trkpt lat="50.02136" lon="2.34467">
        <ele>132.1</ele>
        <time>2023-11-22T14:23:36Z</time>
      </trkpt>
      <trkpt lat="50.02136" lon="2.34466">
        <ele>132.1</ele>
        <time>2023-11-22T14:23:37Z</time>
      </trkpt>
      <trkpt lat="50.02137" lon="2.34465">
        <ele>132.1</ele>
        <time>2023-11-22T14:23:38Z</time>
      </trkpt>
      <trkpt lat="50.02138" lon="2.34465">
        <ele>132.1</ele>
        <time>2023-11-22T14:23:39Z</time>
      </trkpt>
      <trkpt lat="50.02139" lon="2.34464">
        <ele>132.2</ele>
        <time>2023-11-22T14:23:40Z</time>
      </trkpt>
      <trkpt lat="50.0214" lon="2.34462">
        <ele>132.2</ele>
        <time>2023-11-22T14:23:41Z</time>
      </trkpt>
      <trkpt lat="50.0214" lon="2.34461">
        <ele>132.2</ele>
        <time>2023-11-22T14:23:42Z</time>
      </trkpt>
      <trkpt lat="50.02141" lon="2.3446">
        <ele>132.2</ele>
        <time>2023-11-22T14:23:43Z</time>
      </trkpt>
      <trkpt lat="50.02141" lon="2.34458">
        <ele>132.2</ele>
        <time>2023-11-22T14:23:44Z</time>
      </trkpt>
      <trkpt lat="50.02142" lon="2.34457">
        <ele>132.2</ele>
        <time>2023-11-22T14:23:45Z</time>
      </trkpt>
      <trkpt lat="50.02143" lon="2.34455">
        <ele>132.2</ele>
        <time>2023-11-22T14:23:46Z</time>
      </trkpt>
      <trkpt lat="50.02143" lon="2.34454">
        <ele>132.2</ele>
        <time>2023-11-22T14:23:47Z</time>
      </trkpt>
      <trkpt lat="50.02143" lon="2.34453">
        <ele>132.2</ele>
        <time>2023-11-22T14:23:48Z</time>
      </trkpt>
      <trkpt lat="50.02144" lon="2.34452">
        <ele>132.2</ele>
        <time>2023-11-22T14:23:49Z</time>
      </trkpt>
      <trkpt lat="50.02144" lon="2.34451">
        <ele>132.2</ele>
        <time>2023-11-22T14:23:50Z</time>
      </trkpt>
      <trkpt lat="50.02145" lon="2.3445">
        <ele>132.2</ele>
        <time>2023-11-22T14:23:51Z</time>
      </trkpt>
      <trkpt lat="50.02145" lon="2.34449">
        <ele>132.1</ele>
        <time>2023-11-22T14:23:52Z</time>
      </trkpt>
      <trkpt lat="50.02146" lon="2.34448">
        <ele>132.1</ele>
        <time>2023-11-22T14:23:53Z</time>
      </trkpt>
      <trkpt lat="50.02147" lon="2.34446">
        <ele>132.1</ele>
        <time>2023-11-22T14:23:54Z</time>
      </trkpt>
      <trkpt lat="50.02147" lon="2.34445">
        <ele>132.1</ele>
        <time>2023-11-22T14:23:55Z</time>
      </trkpt>
      <trkpt lat="50.02148" lon="2.34444">
        <ele>132.1</ele>
        <time>2023-11-22T14:23:56Z</time>
      </trkpt>
      <trkpt lat="50.02148" lon="2.34443">
        <ele>132.1</ele>
        <time>2023-11-22T14:23:57Z</time>
      </trkpt>
      <trkpt lat="50.02149" lon="2.34442">
        <ele>132.1</ele>
        <time>2023-11-22T14:23:58Z</time>
      </trkpt>
      <trkpt lat="50.0215" lon="2.34441">
        <ele>132.1</ele>
        <time>2023-11-22T14:23:59Z</time>
      </trkpt>
      <trkpt lat="50.0215" lon="2.3444">
        <ele>132.1</ele>
        <time>2023-11-22T14:24:00Z</time>
      </trkpt>
      <trkpt lat="50.02151" lon="2.34439">
        <ele>132.1</ele>
        <time>2023-11-22T14:24:01Z</time>
      </trkpt>
      <trkpt lat="50.02152" lon="2.34438">
        <ele>132.1</ele>
        <time>2023-11-22T14:24:02Z</time>
      </trkpt>
      <trkpt lat="50.02153" lon="2.34437">
        <ele>132</ele>
        <time>2023-11-22T14:24:03Z</time>
      </trkpt>
      <trkpt lat="50.02153" lon="2.34437">
        <ele>132</ele>
        <time>2023-11-22T14:24:04Z</time>
      </trkpt>
      <trkpt lat="50.02155" lon="2.34435">
        <ele>132</ele>
        <time>2023-11-22T14:24:05Z</time>
      </trkpt>
      <trkpt lat="50.02155" lon="2.34434">
        <ele>132</ele>
        <time>2023-11-22T14:24:06Z</time>
      </trkpt>
      <trkpt lat="50.02156" lon="2.34434">
        <ele>132</ele>
        <time>2023-11-22T14:24:07Z</time>
      </trkpt>
      <trkpt lat="50.02156" lon="2.34433">
        <ele>132</ele>
        <time>2023-11-22T14:24:08Z</time>
      </trkpt>
      <trkpt lat="50.02157" lon="2.34432">
        <ele>132</ele>
        <time>2023-11-22T14:24:09Z</time>
      </trkpt>
      <trkpt lat="50.02158" lon="2.34431">
        <ele>132</ele>
        <time>2023-11-22T14:24:10Z</time>
      </trkpt>
      <trkpt lat="50.02159" lon="2.3443">
        <ele>132</ele>
        <time>2023-11-22T14:24:11Z</time>
      </trkpt>
      <trkpt lat="50.02159" lon="2.34428">
        <ele>132</ele>
        <time>2023-11-22T14:24:12Z</time>
      </trkpt>
      <trkpt lat="50.0216" lon="2.34428">
        <ele>132</ele>
        <time>2023-11-22T14:24:13Z</time>
      </trkpt>
      <trkpt lat="50.02161" lon="2.34427">
        <ele>132</ele>
        <time>2023-11-22T14:24:14Z</time>
      </trkpt>
      <trkpt lat="50.02161" lon="2.34426">
        <ele>132</ele>
        <time>2023-11-22T14:24:15Z</time>
      </trkpt>
      <trkpt lat="50.02162" lon="2.34424">
        <ele>132</ele>
        <time>2023-11-22T14:24:16Z</time>
      </trkpt>
      <trkpt lat="50.02163" lon="2.34423">
        <ele>132</ele>
        <time>2023-11-22T14:24:17Z</time>
      </trkpt>
      <trkpt lat="50.02164" lon="2.34422">
        <ele>132</ele>
        <time>2023-11-22T14:24:18Z</time>
      </trkpt>
      <trkpt lat="50.02165" lon="2.34421">
        <ele>132</ele>
        <time>2023-11-22T14:24:19Z</time>
      </trkpt>
      <trkpt lat="50.02165" lon="2.34421">
        <ele>132</ele>
        <time>2023-11-22T14:24:20Z</time>
      </trkpt>
      <trkpt lat="50.02166" lon="2.3442">
        <ele>132</ele>
        <time>2023-11-22T14:24:21Z</time>
      </trkpt>
      <trkpt lat="50.02167" lon="2.34419">
        <ele>132.1</ele>
        <time>2023-11-22T14:24:22Z</time>
      </trkpt>
      <trkpt lat="50.02167" lon="2.34418">
        <ele>132.1</ele>
        <time>2023-11-22T14:24:23Z</time>
      </trkpt>
      <trkpt lat="50.02168" lon="2.34417">
        <ele>132.1</ele>
        <time>2023-11-22T14:24:24Z</time>
      </trkpt>
      <trkpt lat="50.02168" lon="2.34417">
        <ele>132.1</ele>
        <time>2023-11-22T14:24:25Z</time>
      </trkpt>
      <trkpt lat="50.02169" lon="2.34416">
        <ele>132.1</ele>
        <time>2023-11-22T14:24:26Z</time>
      </trkpt>
      <trkpt lat="50.02169" lon="2.34416">
        <ele>132.1</ele>
        <time>2023-11-22T14:24:27Z</time>
      </trkpt>
      <trkpt lat="50.0217" lon="2.34415">
        <ele>132.1</ele>
        <time>2023-11-22T14:24:28Z</time>
      </trkpt>
      <trkpt lat="50.02171" lon="2.34414">
        <ele>132.1</ele>
        <time>2023-11-22T14:24:29Z</time>
      </trkpt>
      <trkpt lat="50.02172" lon="2.34413">
        <ele>132.1</ele>
        <time>2023-11-22T14:24:30Z</time>
      </trkpt>
      <trkpt lat="50.02172" lon="2.34412">
        <ele>132.1</ele>
        <time>2023-11-22T14:24:31Z</time>
      </trkpt>
      <trkpt lat="50.02173" lon="2.34412">
        <ele>132.2</ele>
        <time>2023-11-22T14:24:32Z</time>
      </trkpt>
      <trkpt lat="50.02174" lon="2.34411">
        <ele>132.2</ele>
        <time>2023-11-22T14:24:33Z</time>
      </trkpt>
      <trkpt lat="50.02174" lon="2.3441">
        <ele>132.2</ele>
        <time>2023-11-22T14:24:34Z</time>
      </trkpt>
      <trkpt lat="50.02175" lon="2.34408">
        <ele>132.2</ele>
        <time>2023-11-22T14:24:35Z</time>
      </trkpt>
      <trkpt lat="50.02176" lon="2.34407">
        <ele>132.2</ele>
        <time>2023-11-22T14:24:36Z</time>
      </trkpt>
      <trkpt lat="50.02177" lon="2.34406">
        <ele>132.2</ele>
        <time>2023-11-22T14:24:37Z</time>
      </trkpt>
      <trkpt lat="50.02177" lon="2.34404">
        <ele>132.3</ele>
        <time>2023-11-22T14:24:38Z</time>
      </trkpt>
      <trkpt lat="50.02177" lon="2.34403">
        <ele>132.3</ele>
        <time>2023-11-22T14:24:39Z</time>
      </trkpt>
      <trkpt lat="50.02178" lon="2.34401">
        <ele>132.3</ele>
        <time>2023-11-22T14:24:40Z</time>
      </trkpt>
      <trkpt lat="50.02178" lon="2.344">
        <ele>132.3</ele>
        <time>2023-11-22T14:24:41Z</time>
      </trkpt>
      <trkpt lat="50.02178" lon="2.34399">
        <ele>132.3</ele>
        <time>2023-11-22T14:24:42Z</time>
      </trkpt>
      <trkpt lat="50.02179" lon="2.34397">
        <ele>132.3</ele>
        <time>2023-11-22T14:24:43Z</time>
      </trkpt>
      <trkpt lat="50.0218" lon="2.34396">
        <ele>132.3</ele>
        <time>2023-11-22T14:24:44Z</time>
      </trkpt>
      <trkpt lat="50.0218" lon="2.34395">
        <ele>132.4</ele>
        <time>2023-11-22T14:24:45Z</time>
      </trkpt>
      <trkpt lat="50.02181" lon="2.34393">
        <ele>132.4</ele>
        <time>2023-11-22T14:24:46Z</time>
      </trkpt>
      <trkpt lat="50.02181" lon="2.34392">
        <ele>132.4</ele>
        <time>2023-11-22T14:24:47Z</time>
      </trkpt>
      <trkpt lat="50.02182" lon="2.34391">
        <ele>132.4</ele>
        <time>2023-11-22T14:24:48Z</time>
      </trkpt>
      <trkpt lat="50.02183" lon="2.3439">
        <ele>132.4</ele>
        <time>2023-11-22T14:24:49Z</time>
      </trkpt>
      <trkpt lat="50.02184" lon="2.34389">
        <ele>132.4</ele>
        <time>2023-11-22T14:24:50Z</time>
      </trkpt>
      <trkpt lat="50.02184" lon="2.34388">
        <ele>132.4</ele>
        <time>2023-11-22T14:24:51Z</time>
      </trkpt>
      <trkpt lat="50.02185" lon="2.34387">
        <ele>132.4</ele>
        <time>2023-11-22T14:24:52Z</time>
      </trkpt>
      <trkpt lat="50.02186" lon="2.34386">
        <ele>132.5</ele>
        <time>2023-11-22T14:24:53Z</time>
      </trkpt>
      <trkpt lat="50.02187" lon="2.34385">
        <ele>132.5</ele>
        <time>2023-11-22T14:24:54Z</time>
      </trkpt>
      <trkpt lat="50.02187" lon="2.34384">
        <ele>132.5</ele>
        <time>2023-11-22T14:24:55Z</time>
      </trkpt>
      <trkpt lat="50.02188" lon="2.34382">
        <ele>132.5</ele>
        <time>2023-11-22T14:24:56Z</time>
      </trkpt>
      <trkpt lat="50.02189" lon="2.34381">
        <ele>132.5</ele>
        <time>2023-11-22T14:24:57Z</time>
      </trkpt>
      <trkpt lat="50.02189" lon="2.3438">
        <ele>132.5</ele>
        <time>2023-11-22T14:24:58Z</time>
      </trkpt>
      <trkpt lat="50.0219" lon="2.34379">
        <ele>132.5</ele>
        <time>2023-11-22T14:24:59Z</time>
      </trkpt>
      <trkpt lat="50.02191" lon="2.34378">
        <ele>132.5</ele>
        <time>2023-11-22T14:25:00Z</time>
      </trkpt>
      <trkpt lat="50.02191" lon="2.34377">
        <ele>132.6</ele>
        <time>2023-11-22T14:25:01Z</time>
      </trkpt>
      <trkpt lat="50.02192" lon="2.34376">
        <ele>132.6</ele>
        <time>2023-11-22T14:25:02Z</time>
      </trkpt>
      <trkpt lat="50.02193" lon="2.34375">
        <ele>132.6</ele>
        <time>2023-11-22T14:25:03Z</time>
      </trkpt>
      <trkpt lat="50.02193" lon="2.34373">
        <ele>132.6</ele>
        <time>2023-11-22T14:25:04Z</time>
      </trkpt>
      <trkpt lat="50.02194" lon="2.34372">
        <ele>132.6</ele>
        <time>2023-11-22T14:25:05Z</time>
      </trkpt>
      <trkpt lat="50.02195" lon="2.34371">
        <ele>132.6</ele>
        <time>2023-11-22T14:25:06Z</time>
      </trkpt>
      <trkpt lat="50.02196" lon="2.3437">
        <ele>132.6</ele>
        <time>2023-11-22T14:25:07Z</time>
      </trkpt>
      <trkpt lat="50.02196" lon="2.34369">
        <ele>132.6</ele>
        <time>2023-11-22T14:25:08Z</time>
      </trkpt>
      <trkpt lat="50.02197" lon="2.34368">
        <ele>132.6</ele>
        <time>2023-11-22T14:25:09Z</time>
      </trkpt>
      <trkpt lat="50.02197" lon="2.34367">
        <ele>132.6</ele>
        <time>2023-11-22T14:25:10Z</time>
      </trkpt>
      <trkpt lat="50.02198" lon="2.34366">
        <ele>132.6</ele>
        <time>2023-11-22T14:25:11Z</time>
      </trkpt>
      <trkpt lat="50.02199" lon="2.34365">
        <ele>132.6</ele>
        <time>2023-11-22T14:25:12Z</time>
      </trkpt>
      <trkpt lat="50.02199" lon="2.34364">
        <ele>132.6</ele>
        <time>2023-11-22T14:25:13Z</time>
      </trkpt>
      <trkpt lat="50.022" lon="2.34364">
        <ele>132.6</ele>
        <time>2023-11-22T14:25:14Z</time>
      </trkpt>
      <trkpt lat="50.022" lon="2.34363">
        <ele>132.6</ele>
        <time>2023-11-22T14:25:15Z</time>
      </trkpt>
      <trkpt lat="50.02201" lon="2.34362">
        <ele>132.6</ele>
        <time>2023-11-22T14:25:16Z</time>
      </trkpt>
      <trkpt lat="50.02202" lon="2.34361">
        <ele>132.7</ele>
        <time>2023-11-22T14:25:17Z</time>
      </trkpt>
      <trkpt lat="50.02202" lon="2.34361">
        <ele>132.7</ele>
        <time>2023-11-22T14:25:18Z</time>
      </trkpt>
      <trkpt lat="50.02203" lon="2.3436">
        <ele>132.7</ele>
        <time>2023-11-22T14:25:19Z</time>
      </trkpt>
      <trkpt lat="50.02203" lon="2.34359">
        <ele>132.7</ele>
        <time>2023-11-22T14:25:20Z</time>
      </trkpt>
      <trkpt lat="50.02203" lon="2.34358">
        <ele>132.7</ele>
        <time>2023-11-22T14:25:21Z</time>
      </trkpt>
      <trkpt lat="50.02203" lon="2.34356">
        <ele>132.7</ele>
        <time>2023-11-22T14:25:22Z</time>
      </trkpt>
      <trkpt lat="50.02203" lon="2.34355">
        <ele>132.7</ele>
        <time>2023-11-22T14:25:23Z</time>
      </trkpt>
      <trkpt lat="50.02203" lon="2.34354">
        <ele>132.7</ele>
        <time>2023-11-22T14:25:24Z</time>
      </trkpt>
      <trkpt lat="50.02204" lon="2.34353">
        <ele>132.7</ele>
        <time>2023-11-22T14:25:25Z</time>
      </trkpt>
      <trkpt lat="50.02204" lon="2.34352">
        <ele>132.7</ele>
        <time>2023-11-22T14:25:26Z</time>
      </trkpt>
      <trkpt lat="50.02205" lon="2.34351">
        <ele>132.7</ele>
        <time>2023-11-22T14:25:27Z</time>
      </trkpt>
      <trkpt lat="50.02205" lon="2.3435">
        <ele>132.7</ele>
        <time>2023-11-22T14:25:28Z</time>
      </trkpt>
      <trkpt lat="50.02206" lon="2.34349">
        <ele>132.6</ele>
        <time>2023-11-22T14:25:29Z</time>
      </trkpt>
      <trkpt lat="50.02207" lon="2.34348">
        <ele>132.6</ele>
        <time>2023-11-22T14:25:30Z</time>
      </trkpt>
      <trkpt lat="50.02207" lon="2.34347">
        <ele>132.6</ele>
        <time>2023-11-22T14:25:31Z</time>
      </trkpt>
      <trkpt lat="50.02208" lon="2.34346">
        <ele>132.6</ele>
        <time>2023-11-22T14:25:32Z</time>
      </trkpt>
      <trkpt lat="50.02209" lon="2.34345">
        <ele>132.6</ele>
        <time>2023-11-22T14:25:33Z</time>
      </trkpt>
      <trkpt lat="50.02209" lon="2.34344">
        <ele>132.6</ele>
        <time>2023-11-22T14:25:34Z</time>
      </trkpt>
      <trkpt lat="50.0221" lon="2.34342">
        <ele>132.6</ele>
        <time>2023-11-22T14:25:35Z</time>
      </trkpt>
      <trkpt lat="50.02211" lon="2.34341">
        <ele>132.6</ele>
        <time>2023-11-22T14:25:36Z</time>
      </trkpt>
      <trkpt lat="50.02212" lon="2.34339">
        <ele>132.6</ele>
        <time>2023-11-22T14:25:37Z</time>
      </trkpt>
      <trkpt lat="50.02212" lon="2.34338">
        <ele>132.6</ele>
        <time>2023-11-22T14:25:38Z</time>
      </trkpt>
      <trkpt lat="50.02213" lon="2.34337">
        <ele>132.6</ele>
        <time>2023-11-22T14:25:39Z</time>
      </trkpt>
      <trkpt lat="50.02214" lon="2.34336">
        <ele>132.5</ele>
        <time>2023-11-22T14:25:40Z</time>
      </trkpt>
      <trkpt lat="50.02214" lon="2.34335">
        <ele>132.5</ele>
        <time>2023-11-22T14:25:41Z</time>
      </trkpt>
      <trkpt lat="50.02215" lon="2.34333">
        <ele>132.5</ele>
        <time>2023-11-22T14:25:42Z</time>
      </trkpt>
      <trkpt lat="50.02215" lon="2.34332">
        <ele>132.5</ele>
        <time>2023-11-22T14:25:43Z</time>
      </trkpt>
      <trkpt lat="50.02216" lon="2.34331">
        <ele>132.5</ele>
        <time>2023-11-22T14:25:44Z</time>
      </trkpt>
      <trkpt lat="50.02217" lon="2.3433">
        <ele>132.5</ele>
        <time>2023-11-22T14:25:45Z</time>
      </trkpt>
      <trkpt lat="50.02218" lon="2.34329">
        <ele>132.5</ele>
        <time>2023-11-22T14:25:46Z</time>
      </trkpt>
      <trkpt lat="50.02218" lon="2.34328">
        <ele>132.5</ele>
        <time>2023-11-22T14:25:47Z</time>
      </trkpt>
      <trkpt lat="50.02219" lon="2.34327">
        <ele>132.5</ele>
        <time>2023-11-22T14:25:48Z</time>
      </trkpt>
      <trkpt lat="50.0222" lon="2.34325">
        <ele>132.5</ele>
        <time>2023-11-22T14:25:49Z</time>
      </trkpt>
      <trkpt lat="50.0222" lon="2.34324">
        <ele>132.5</ele>
        <time>2023-11-22T14:25:50Z</time>
      </trkpt>
      <trkpt lat="50.02221" lon="2.34323">
        <ele>132.5</ele>
        <time>2023-11-22T14:25:51Z</time>
      </trkpt>
      <trkpt lat="50.02223" lon="2.34321">
        <ele>132.5</ele>
        <time>2023-11-22T14:25:52Z</time>
      </trkpt>
      <trkpt lat="50.02223" lon="2.3432">
        <ele>132.4</ele>
        <time>2023-11-22T14:25:53Z</time>
      </trkpt>
      <trkpt lat="50.02224" lon="2.34319">
        <ele>132.4</ele>
        <time>2023-11-22T14:25:54Z</time>
      </trkpt>
      <trkpt lat="50.02225" lon="2.34318">
        <ele>132.4</ele>
        <time>2023-11-22T14:25:55Z</time>
      </trkpt>
      <trkpt lat="50.02226" lon="2.34317">
        <ele>132.4</ele>
        <time>2023-11-22T14:25:56Z</time>
      </trkpt>
      <trkpt lat="50.02227" lon="2.34315">
        <ele>132.4</ele>
        <time>2023-11-22T14:25:57Z</time>
      </trkpt>
      <trkpt lat="50.02227" lon="2.34314">
        <ele>132.4</ele>
        <time>2023-11-22T14:25:58Z</time>
      </trkpt>
      <trkpt lat="50.02228" lon="2.34312">
        <ele>132.4</ele>
        <time>2023-11-22T14:25:59Z</time>
      </trkpt>
      <trkpt lat="50.02229" lon="2.34311">
        <ele>132.4</ele>
        <time>2023-11-22T14:26:00Z</time>
      </trkpt>
      <trkpt lat="50.0223" lon="2.3431">
        <ele>132.4</ele>
        <time>2023-11-22T14:26:01Z</time>
      </trkpt>
      <trkpt lat="50.02231" lon="2.34309">
        <ele>132.4</ele>
        <time>2023-11-22T14:26:02Z</time>
      </trkpt>
      <trkpt lat="50.02231" lon="2.34308">
        <ele>132.4</ele>
        <time>2023-11-22T14:26:03Z</time>
      </trkpt>
      <trkpt lat="50.02232" lon="2.34308">
        <ele>132.4</ele>
        <time>2023-11-22T14:26:04Z</time>
      </trkpt>
      <trkpt lat="50.02233" lon="2.34307">
        <ele>132.4</ele>
        <time>2023-11-22T14:26:05Z</time>
      </trkpt>
      <trkpt lat="50.02234" lon="2.34306">
        <ele>132.4</ele>
        <time>2023-11-22T14:26:06Z</time>
      </trkpt>
      <trkpt lat="50.02234" lon="2.34305">
        <ele>132.4</ele>
        <time>2023-11-22T14:26:07Z</time>
      </trkpt>
      <trkpt lat="50.02235" lon="2.34304">
        <ele>132.4</ele>
        <time>2023-11-22T14:26:08Z</time>
      </trkpt>
      <trkpt lat="50.02236" lon="2.34303">
        <ele>132.4</ele>
        <time>2023-11-22T14:26:09Z</time>
      </trkpt>
      <trkpt lat="50.02237" lon="2.34302">
        <ele>132.4</ele>
        <time>2023-11-22T14:26:10Z</time>
      </trkpt>
      <trkpt lat="50.02238" lon="2.34301">
        <ele>132.5</ele>
        <time>2023-11-22T14:26:11Z</time>
      </trkpt>
      <trkpt lat="50.02239" lon="2.343">
        <ele>132.5</ele>
        <time>2023-11-22T14:26:12Z</time>
      </trkpt>
      <trkpt lat="50.02239" lon="2.34299">
        <ele>132.5</ele>
        <time>2023-11-22T14:26:13Z</time>
      </trkpt>
      <trkpt lat="50.0224" lon="2.34298">
        <ele>132.5</ele>
        <time>2023-11-22T14:26:14Z</time>
      </trkpt>
      <trkpt lat="50.02241" lon="2.34297">
        <ele>132.5</ele>
        <time>2023-11-22T14:26:15Z</time>
      </trkpt>
      <trkpt lat="50.02242" lon="2.34296">
        <ele>132.5</ele>
        <time>2023-11-22T14:26:16Z</time>
      </trkpt>
      <trkpt lat="50.02242" lon="2.34294">
        <ele>132.5</ele>
        <time>2023-11-22T14:26:17Z</time>
      </trkpt>
      <trkpt lat="50.02243" lon="2.34293">
        <ele>132.5</ele>
        <time>2023-11-22T14:26:18Z</time>
      </trkpt>
      <trkpt lat="50.02244" lon="2.34292">
        <ele>132.5</ele>
        <time>2023-11-22T14:26:19Z</time>
      </trkpt>
      <trkpt lat="50.02244" lon="2.34291">
        <ele>132.5</ele>
        <time>2023-11-22T14:26:20Z</time>
      </trkpt>
      <trkpt lat="50.02245" lon="2.3429">
        <ele>132.5</ele>
        <time>2023-11-22T14:26:21Z</time>
      </trkpt>
      <trkpt lat="50.02246" lon="2.34288">
        <ele>132.6</ele>
        <time>2023-11-22T14:26:22Z</time>
      </trkpt>
      <trkpt lat="50.02246" lon="2.34287">
        <ele>132.6</ele>
        <time>2023-11-22T14:26:23Z</time>
      </trkpt>
      <trkpt lat="50.02247" lon="2.34286">
        <ele>132.6</ele>
        <time>2023-11-22T14:26:24Z</time>
      </trkpt>
      <trkpt lat="50.02247" lon="2.34285">
        <ele>132.6</ele>
        <time>2023-11-22T14:26:25Z</time>
      </trkpt>
      <trkpt lat="50.02248" lon="2.34284">
        <ele>132.6</ele>
        <time>2023-11-22T14:26:26Z</time>
      </trkpt>
      <trkpt lat="50.02248" lon="2.34282">
        <ele>132.6</ele>
        <time>2023-11-22T14:26:27Z</time>
      </trkpt>
      <trkpt lat="50.02249" lon="2.34281">
        <ele>132.6</ele>
        <time>2023-11-22T14:26:28Z</time>
      </trkpt>
      <trkpt lat="50.0225" lon="2.3428">
        <ele>132.6</ele>
        <time>2023-11-22T14:26:29Z</time>
      </trkpt>
      <trkpt lat="50.0225" lon="2.34278">
        <ele>132.7</ele>
        <time>2023-11-22T14:26:30Z</time>
      </trkpt>
      <trkpt lat="50.02251" lon="2.34277">
        <ele>132.7</ele>
        <time>2023-11-22T14:26:31Z</time>
      </trkpt>
      <trkpt lat="50.02252" lon="2.34276">
        <ele>132.7</ele>
        <time>2023-11-22T14:26:32Z</time>
      </trkpt>
      <trkpt lat="50.02253" lon="2.34275">
        <ele>132.7</ele>
        <time>2023-11-22T14:26:33Z</time>
      </trkpt>
      <trkpt lat="50.02253" lon="2.34274">
        <ele>132.7</ele>
        <time>2023-11-22T14:26:34Z</time>
      </trkpt>
      <trkpt lat="50.02254" lon="2.34273">
        <ele>132.7</ele>
        <time>2023-11-22T14:26:35Z</time>
      </trkpt>
      <trkpt lat="50.02255" lon="2.34272">
        <ele>132.7</ele>
        <time>2023-11-22T14:26:36Z</time>
      </trkpt>
      <trkpt lat="50.02255" lon="2.34271">
        <ele>132.7</ele>
        <time>2023-11-22T14:26:37Z</time>
      </trkpt>
      <trkpt lat="50.02256" lon="2.3427">
        <ele>132.7</ele>
        <time>2023-11-22T14:26:38Z</time>
      </trkpt>
      <trkpt lat="50.02257" lon="2.34269">
        <ele>132.7</ele>
        <time>2023-11-22T14:26:39Z</time>
      </trkpt>
      <trkpt lat="50.02257" lon="2.34268">
        <ele>132.7</ele>
        <time>2023-11-22T14:26:40Z</time>
      </trkpt>
      <trkpt lat="50.02258" lon="2.34266">
        <ele>132.7</ele>
        <time>2023-11-22T14:26:41Z</time>
      </trkpt>
      <trkpt lat="50.02259" lon="2.34265">
        <ele>132.7</ele>
        <time>2023-11-22T14:26:42Z</time>
      </trkpt>
      <trkpt lat="50.02259" lon="2.34264">
        <ele>132.7</ele>
        <time>2023-11-22T14:26:43Z</time>
      </trkpt>
      <trkpt lat="50.0226" lon="2.34262">
        <ele>132.7</ele>
        <time>2023-11-22T14:26:44Z</time>
      </trkpt>
      <trkpt lat="50.0226" lon="2.34261">
        <ele>132.7</ele>
        <time>2023-11-22T14:26:45Z</time>
      </trkpt>
      <trkpt lat="50.0226" lon="2.3426">
        <ele>132.7</ele>
        <time>2023-11-22T14:26:46Z</time>
      </trkpt>
      <trkpt lat="50.02261" lon="2.34259">
        <ele>132.7</ele>
        <time>2023-11-22T14:26:47Z</time>
      </trkpt>
      <trkpt lat="50.02261" lon="2.34258">
        <ele>132.7</ele>
        <time>2023-11-22T14:26:48Z</time>
      </trkpt>
      <trkpt lat="50.02262" lon="2.34256">
        <ele>132.7</ele>
        <time>2023-11-22T14:26:49Z</time>
      </trkpt>
      <trkpt lat="50.02262" lon="2.34255">
        <ele>132.7</ele>
        <time>2023-11-22T14:26:50Z</time>
      </trkpt>
      <trkpt lat="50.02264" lon="2.34254">
        <ele>132.7</ele>
        <time>2023-11-22T14:26:51Z</time>
      </trkpt>
      <trkpt lat="50.02264" lon="2.34253">
        <ele>132.7</ele>
        <time>2023-11-22T14:26:52Z</time>
      </trkpt>
      <trkpt lat="50.02265" lon="2.34252">
        <ele>132.7</ele>
        <time>2023-11-22T14:26:53Z</time>
      </trkpt>
      <trkpt lat="50.02265" lon="2.34251">
        <ele>132.7</ele>
        <time>2023-11-22T14:26:54Z</time>
      </trkpt>
      <trkpt lat="50.02266" lon="2.3425">
        <ele>132.7</ele>
        <time>2023-11-22T14:26:55Z</time>
      </trkpt>
      <trkpt lat="50.02266" lon="2.34249">
        <ele>132.7</ele>
        <time>2023-11-22T14:26:56Z</time>
      </trkpt>
      <trkpt lat="50.02267" lon="2.34248">
        <ele>132.7</ele>
        <time>2023-11-22T14:26:57Z</time>
      </trkpt>
      <trkpt lat="50.02268" lon="2.34247">
        <ele>132.7</ele>
        <time>2023-11-22T14:26:58Z</time>
      </trkpt>
      <trkpt lat="50.02269" lon="2.34246">
        <ele>132.7</ele>
        <time>2023-11-22T14:26:59Z</time>
      </trkpt>
      <trkpt lat="50.02269" lon="2.34245">
        <ele>132.7</ele>
        <time>2023-11-22T14:27:00Z</time>
      </trkpt>
      <trkpt lat="50.0227" lon="2.34243">
        <ele>132.7</ele>
        <time>2023-11-22T14:27:01Z</time>
      </trkpt>
      <trkpt lat="50.02271" lon="2.34242">
        <ele>132.8</ele>
        <time>2023-11-22T14:27:02Z</time>
      </trkpt>
      <trkpt lat="50.02271" lon="2.34241">
        <ele>132.8</ele>
        <time>2023-11-22T14:27:03Z</time>
      </trkpt>
      <trkpt lat="50.02272" lon="2.34239">
        <ele>132.8</ele>
        <time>2023-11-22T14:27:04Z</time>
      </trkpt>
      <trkpt lat="50.02273" lon="2.34239">
        <ele>132.8</ele>
        <time>2023-11-22T14:27:05Z</time>
      </trkpt>
      <trkpt lat="50.02273" lon="2.34238">
        <ele>132.8</ele>
        <time>2023-11-22T14:27:06Z</time>
      </trkpt>
      <trkpt lat="50.02274" lon="2.34237">
        <ele>132.8</ele>
        <time>2023-11-22T14:27:07Z</time>
      </trkpt>
      <trkpt lat="50.02275" lon="2.34236">
        <ele>132.8</ele>
        <time>2023-11-22T14:27:08Z</time>
      </trkpt>
      <trkpt lat="50.02275" lon="2.34235">
        <ele>132.8</ele>
        <time>2023-11-22T14:27:09Z</time>
      </trkpt>
      <trkpt lat="50.02276" lon="2.34234">
        <ele>132.8</ele>
        <time>2023-11-22T14:27:10Z</time>
      </trkpt>
      <trkpt lat="50.02277" lon="2.34232">
        <ele>132.8</ele>
        <time>2023-11-22T14:27:11Z</time>
      </trkpt>
      <trkpt lat="50.02277" lon="2.34232">
        <ele>132.8</ele>
        <time>2023-11-22T14:27:12Z</time>
      </trkpt>
      <trkpt lat="50.02278" lon="2.3423">
        <ele>132.9</ele>
        <time>2023-11-22T14:27:13Z</time>
      </trkpt>
      <trkpt lat="50.02278" lon="2.34229">
        <ele>132.9</ele>
        <time>2023-11-22T14:27:14Z</time>
      </trkpt>
      <trkpt lat="50.02279" lon="2.34228">
        <ele>132.9</ele>
        <time>2023-11-22T14:27:15Z</time>
      </trkpt>
      <trkpt lat="50.0228" lon="2.34227">
        <ele>132.9</ele>
        <time>2023-11-22T14:27:16Z</time>
      </trkpt>
      <trkpt lat="50.0228" lon="2.34226">
        <ele>132.9</ele>
        <time>2023-11-22T14:27:17Z</time>
      </trkpt>
      <trkpt lat="50.02281" lon="2.34224">
        <ele>132.9</ele>
        <time>2023-11-22T14:27:18Z</time>
      </trkpt>
      <trkpt lat="50.02282" lon="2.34223">
        <ele>132.9</ele>
        <time>2023-11-22T14:27:19Z</time>
      </trkpt>
      <trkpt lat="50.02282" lon="2.34222">
        <ele>132.9</ele>
        <time>2023-11-22T14:27:20Z</time>
      </trkpt>
      <trkpt lat="50.02283" lon="2.34221">
        <ele>132.9</ele>
        <time>2023-11-22T14:27:21Z</time>
      </trkpt>
      <trkpt lat="50.02284" lon="2.3422">
        <ele>132.9</ele>
        <time>2023-11-22T14:27:22Z</time>
      </trkpt>
      <trkpt lat="50.02284" lon="2.34218">
        <ele>133</ele>
        <time>2023-11-22T14:27:23Z</time>
      </trkpt>
      <trkpt lat="50.02285" lon="2.34217">
        <ele>133</ele>
        <time>2023-11-22T14:27:24Z</time>
      </trkpt>
      <trkpt lat="50.02285" lon="2.34216">
        <ele>133</ele>
        <time>2023-11-22T14:27:25Z</time>
      </trkpt>
      <trkpt lat="50.02286" lon="2.34215">
        <ele>133</ele>
        <time>2023-11-22T14:27:26Z</time>
      </trkpt>
      <trkpt lat="50.02287" lon="2.34214">
        <ele>133</ele>
        <time>2023-11-22T14:27:27Z</time>
      </trkpt>
      <trkpt lat="50.02287" lon="2.34212">
        <ele>133</ele>
        <time>2023-11-22T14:27:28Z</time>
      </trkpt>
      <trkpt lat="50.02288" lon="2.34211">
        <ele>133</ele>
        <time>2023-11-22T14:27:29Z</time>
      </trkpt>
      <trkpt lat="50.02288" lon="2.3421">
        <ele>133</ele>
        <time>2023-11-22T14:27:30Z</time>
      </trkpt>
      <trkpt lat="50.02289" lon="2.34208">
        <ele>133</ele>
        <time>2023-11-22T14:27:31Z</time>
      </trkpt>
      <trkpt lat="50.02289" lon="2.34207">
        <ele>133</ele>
        <time>2023-11-22T14:27:32Z</time>
      </trkpt>
      <trkpt lat="50.0229" lon="2.34206">
        <ele>133</ele>
        <time>2023-11-22T14:27:33Z</time>
      </trkpt>
      <trkpt lat="50.0229" lon="2.34205">
        <ele>133</ele>
        <time>2023-11-22T14:27:34Z</time>
      </trkpt>
      <trkpt lat="50.02291" lon="2.34204">
        <ele>133</ele>
        <time>2023-11-22T14:27:35Z</time>
      </trkpt>
      <trkpt lat="50.02291" lon="2.34202">
        <ele>133</ele>
        <time>2023-11-22T14:27:36Z</time>
      </trkpt>
      <trkpt lat="50.02291" lon="2.34201">
        <ele>133</ele>
        <time>2023-11-22T14:27:37Z</time>
      </trkpt>
      <trkpt lat="50.02292" lon="2.342">
        <ele>133</ele>
        <time>2023-11-22T14:27:38Z</time>
      </trkpt>
      <trkpt lat="50.02292" lon="2.342">
        <ele>133</ele>
        <time>2023-11-22T14:27:39Z</time>
      </trkpt>
      <trkpt lat="50.02292" lon="2.34199">
        <ele>133</ele>
        <time>2023-11-22T14:27:40Z</time>
      </trkpt>
      <trkpt lat="50.02292" lon="2.34198">
        <ele>133</ele>
        <time>2023-11-22T14:27:41Z</time>
      </trkpt>
      <trkpt lat="50.02293" lon="2.34197">
        <ele>133</ele>
        <time>2023-11-22T14:27:42Z</time>
      </trkpt>
      <trkpt lat="50.02293" lon="2.34196">
        <ele>133</ele>
        <time>2023-11-22T14:27:43Z</time>
      </trkpt>
      <trkpt lat="50.02294" lon="2.34195">
        <ele>133</ele>
        <time>2023-11-22T14:27:44Z</time>
      </trkpt>
      <trkpt lat="50.02294" lon="2.34194">
        <ele>133</ele>
        <time>2023-11-22T14:27:45Z</time>
      </trkpt>
      <trkpt lat="50.02295" lon="2.34194">
        <ele>133</ele>
        <time>2023-11-22T14:27:46Z</time>
      </trkpt>
      <trkpt lat="50.02295" lon="2.34193">
        <ele>133</ele>
        <time>2023-11-22T14:27:47Z</time>
      </trkpt>
      <trkpt lat="50.02296" lon="2.34192">
        <ele>133</ele>
        <time>2023-11-22T14:27:48Z</time>
      </trkpt>
      <trkpt lat="50.02296" lon="2.34191">
        <ele>133</ele>
        <time>2023-11-22T14:27:49Z</time>
      </trkpt>
      <trkpt lat="50.02297" lon="2.3419">
        <ele>133</ele>
        <time>2023-11-22T14:27:50Z</time>
      </trkpt>
      <trkpt lat="50.02297" lon="2.34189">
        <ele>133</ele>
        <time>2023-11-22T14:27:51Z</time>
      </trkpt>
      <trkpt lat="50.02298" lon="2.34188">
        <ele>133</ele>
        <time>2023-11-22T14:27:52Z</time>
      </trkpt>
      <trkpt lat="50.02299" lon="2.34187">
        <ele>133</ele>
        <time>2023-11-22T14:27:53Z</time>
      </trkpt>
      <trkpt lat="50.023" lon="2.34187">
        <ele>133</ele>
        <time>2023-11-22T14:27:54Z</time>
      </trkpt>
      <trkpt lat="50.023" lon="2.34186">
        <ele>133</ele>
        <time>2023-11-22T14:27:55Z</time>
      </trkpt>
      <trkpt lat="50.02301" lon="2.34185">
        <ele>133.1</ele>
        <time>2023-11-22T14:27:56Z</time>
      </trkpt>
      <trkpt lat="50.02302" lon="2.34185">
        <ele>133.1</ele>
        <time>2023-11-22T14:27:57Z</time>
      </trkpt>
      <trkpt lat="50.02302" lon="2.34184">
        <ele>133.1</ele>
        <time>2023-11-22T14:27:58Z</time>
      </trkpt>
      <trkpt lat="50.02303" lon="2.34183">
        <ele>133.1</ele>
        <time>2023-11-22T14:27:59Z</time>
      </trkpt>
      <trkpt lat="50.02304" lon="2.34182">
        <ele>133.1</ele>
        <time>2023-11-22T14:28:00Z</time>
      </trkpt>
      <trkpt lat="50.02305" lon="2.34182">
        <ele>133.1</ele>
        <time>2023-11-22T14:28:01Z</time>
      </trkpt>
      <trkpt lat="50.02306" lon="2.34182">
        <ele>133.1</ele>
        <time>2023-11-22T14:28:02Z</time>
      </trkpt>
      <trkpt lat="50.02307" lon="2.34182">
        <ele>133.1</ele>
        <time>2023-11-22T14:28:03Z</time>
      </trkpt>
      <trkpt lat="50.02308" lon="2.34182">
        <ele>133.1</ele>
        <time>2023-11-22T14:28:04Z</time>
      </trkpt>
      <trkpt lat="50.02309" lon="2.34182">
        <ele>133.1</ele>
        <time>2023-11-22T14:28:05Z</time>
      </trkpt>
      <trkpt lat="50.02309" lon="2.34183">
        <ele>133.1</ele>
        <time>2023-11-22T14:28:06Z</time>
      </trkpt>
      <trkpt lat="50.0231" lon="2.34184">
        <ele>133.1</ele>
        <time>2023-11-22T14:28:07Z</time>
      </trkpt>
      <trkpt lat="50.0231" lon="2.34185">
        <ele>133.1</ele>
        <time>2023-11-22T14:28:08Z</time>
      </trkpt>
      <trkpt lat="50.02311" lon="2.34184">
        <ele>133.1</ele>
        <time>2023-11-22T14:28:09Z</time>
      </trkpt>
      <trkpt lat="50.02311" lon="2.34183">
        <ele>133.1</ele>
        <time>2023-11-22T14:28:10Z</time>
      </trkpt>
      <trkpt lat="50.02312" lon="2.34183">
        <ele>133.1</ele>
        <time>2023-11-22T14:28:11Z</time>
      </trkpt>
      <trkpt lat="50.02312" lon="2.34182">
        <ele>133.1</ele>
        <time>2023-11-22T14:28:12Z</time>
      </trkpt>
      <trkpt lat="50.02312" lon="2.34181">
        <ele>133.1</ele>
        <time>2023-11-22T14:28:13Z</time>
      </trkpt>
      <trkpt lat="50.02312" lon="2.3418">
        <ele>133.1</ele>
        <time>2023-11-22T14:28:14Z</time>
      </trkpt>
      <trkpt lat="50.02313" lon="2.34179">
        <ele>133.1</ele>
        <time>2023-11-22T14:28:15Z</time>
      </trkpt>
      <trkpt lat="50.02313" lon="2.34178">
        <ele>133.1</ele>
        <time>2023-11-22T14:28:16Z</time>
      </trkpt>
      <trkpt lat="50.02313" lon="2.34177">
        <ele>133.1</ele>
        <time>2023-11-22T14:28:17Z</time>
      </trkpt>
      <trkpt lat="50.02314" lon="2.34176">
        <ele>133.1</ele>
        <time>2023-11-22T14:28:18Z</time>
      </trkpt>
      <trkpt lat="50.02314" lon="2.34175">
        <ele>133.1</ele>
        <time>2023-11-22T14:28:19Z</time>
      </trkpt>
      <trkpt lat="50.02315" lon="2.34174">
        <ele>133.1</ele>
        <time>2023-11-22T14:28:20Z</time>
      </trkpt>
      <trkpt lat="50.02315" lon="2.34173">
        <ele>133.1</ele>
        <time>2023-11-22T14:28:21Z</time>
      </trkpt>
      <trkpt lat="50.02316" lon="2.34172">
        <ele>133.1</ele>
        <time>2023-11-22T14:28:22Z</time>
      </trkpt>
      <trkpt lat="50.02316" lon="2.34171">
        <ele>133.1</ele>
        <time>2023-11-22T14:28:23Z</time>
      </trkpt>
      <trkpt lat="50.02317" lon="2.3417">
        <ele>133.2</ele>
        <time>2023-11-22T14:28:24Z</time>
      </trkpt>
      <trkpt lat="50.02317" lon="2.34169">
        <ele>133.2</ele>
        <time>2023-11-22T14:28:25Z</time>
      </trkpt>
      <trkpt lat="50.02318" lon="2.34168">
        <ele>133.2</ele>
        <time>2023-11-22T14:28:26Z</time>
      </trkpt>
      <trkpt lat="50.02318" lon="2.34167">
        <ele>133.2</ele>
        <time>2023-11-22T14:28:27Z</time>
      </trkpt>
      <trkpt lat="50.02319" lon="2.34166">
        <ele>133.2</ele>
        <time>2023-11-22T14:28:28Z</time>
      </trkpt>
      <trkpt lat="50.02319" lon="2.34165">
        <ele>133.2</ele>
        <time>2023-11-22T14:28:29Z</time>
      </trkpt>
      <trkpt lat="50.02319" lon="2.34164">
        <ele>133.2</ele>
        <time>2023-11-22T14:28:30Z</time>
      </trkpt>
      <trkpt lat="50.0232" lon="2.34163">
        <ele>133.2</ele>
        <time>2023-11-22T14:28:31Z</time>
      </trkpt>
      <trkpt lat="50.0232" lon="2.34162">
        <ele>133.2</ele>
        <time>2023-11-22T14:28:32Z</time>
      </trkpt>
      <trkpt lat="50.02321" lon="2.34161">
        <ele>133.2</ele>
        <time>2023-11-22T14:28:33Z</time>
      </trkpt>
      <trkpt lat="50.02321" lon="2.3416">
        <ele>133.2</ele>
        <time>2023-11-22T14:28:34Z</time>
      </trkpt>
      <trkpt lat="50.02321" lon="2.34159">
        <ele>133.2</ele>
        <time>2023-11-22T14:28:35Z</time>
      </trkpt>
      <trkpt lat="50.02322" lon="2.34158">
        <ele>133.2</ele>
        <time>2023-11-22T14:28:36Z</time>
      </trkpt>
      <trkpt lat="50.02322" lon="2.34156">
        <ele>133.2</ele>
        <time>2023-11-22T14:28:37Z</time>
      </trkpt>
      <trkpt lat="50.02322" lon="2.34155">
        <ele>133.2</ele>
        <time>2023-11-22T14:28:38Z</time>
      </trkpt>
      <trkpt lat="50.02322" lon="2.34153">
        <ele>133.2</ele>
        <time>2023-11-22T14:28:39Z</time>
      </trkpt>
      <trkpt lat="50.02322" lon="2.34152">
        <ele>133.2</ele>
        <time>2023-11-22T14:28:40Z</time>
      </trkpt>
      <trkpt lat="50.02322" lon="2.3415">
        <ele>133.2</ele>
        <time>2023-11-22T14:28:41Z</time>
      </trkpt>
      <trkpt lat="50.02322" lon="2.34149">
        <ele>133.2</ele>
        <time>2023-11-22T14:28:42Z</time>
      </trkpt>
      <trkpt lat="50.02322" lon="2.34147">
        <ele>133.2</ele>
        <time>2023-11-22T14:28:43Z</time>
      </trkpt>
      <trkpt lat="50.02322" lon="2.34146">
        <ele>133.2</ele>
        <time>2023-11-22T14:28:44Z</time>
      </trkpt>
      <trkpt lat="50.02322" lon="2.34145">
        <ele>133.2</ele>
        <time>2023-11-22T14:28:45Z</time>
      </trkpt>
      <trkpt lat="50.02323" lon="2.34145">
        <ele>133.2</ele>
        <time>2023-11-22T14:28:46Z</time>
      </trkpt>
      <trkpt lat="50.02324" lon="2.34145">
        <ele>133.2</ele>
        <time>2023-11-22T14:28:47Z</time>
      </trkpt>
      <trkpt lat="50.02325" lon="2.34145">
        <ele>133.2</ele>
        <time>2023-11-22T14:28:48Z</time>
      </trkpt>
      <trkpt lat="50.02326" lon="2.34144">
        <ele>133.2</ele>
        <time>2023-11-22T14:28:49Z</time>
      </trkpt>
      <trkpt lat="50.02326" lon="2.34143">
        <ele>133.2</ele>
        <time>2023-11-22T14:28:50Z</time>
      </trkpt>
      <trkpt lat="50.02327" lon="2.34142">
        <ele>133.2</ele>
        <time>2023-11-22T14:28:51Z</time>
      </trkpt>
      <trkpt lat="50.02328" lon="2.34141">
        <ele>133.2</ele>
        <time>2023-11-22T14:28:52Z</time>
      </trkpt>
      <trkpt lat="50.02329" lon="2.34139">
        <ele>133.2</ele>
        <time>2023-11-22T14:28:53Z</time>
      </trkpt>
      <trkpt lat="50.02329" lon="2.34138">
        <ele>133.2</ele>
        <time>2023-11-22T14:28:54Z</time>
      </trkpt>
      <trkpt lat="50.0233" lon="2.34137">
        <ele>133.1</ele>
        <time>2023-11-22T14:28:55Z</time>
      </trkpt>
      <trkpt lat="50.0233" lon="2.34135">
        <ele>133.1</ele>
        <time>2023-11-22T14:28:56Z</time>
      </trkpt>
      <trkpt lat="50.02331" lon="2.34134">
        <ele>133.1</ele>
        <time>2023-11-22T14:28:57Z</time>
      </trkpt>
      <trkpt lat="50.02332" lon="2.34132">
        <ele>133.1</ele>
        <time>2023-11-22T14:28:58Z</time>
      </trkpt>
      <trkpt lat="50.02332" lon="2.34131">
        <ele>133.1</ele>
        <time>2023-11-22T14:28:59Z</time>
      </trkpt>
      <trkpt lat="50.02333" lon="2.34129">
        <ele>133.1</ele>
        <time>2023-11-22T14:29:00Z</time>
      </trkpt>
      <trkpt lat="50.02334" lon="2.34128">
        <ele>133.1</ele>
        <time>2023-11-22T14:29:01Z</time>
      </trkpt>
      <trkpt lat="50.02334" lon="2.34127">
        <ele>133.1</ele>
        <time>2023-11-22T14:29:02Z</time>
      </trkpt>
      <trkpt lat="50.02335" lon="2.34126">
        <ele>133.1</ele>
        <time>2023-11-22T14:29:03Z</time>
      </trkpt>
      <trkpt lat="50.02335" lon="2.34124">
        <ele>133.1</ele>
        <time>2023-11-22T14:29:04Z</time>
      </trkpt>
      <trkpt lat="50.02336" lon="2.34123">
        <ele>133.1</ele>
        <time>2023-11-22T14:29:05Z</time>
      </trkpt>
      <trkpt lat="50.02337" lon="2.34121">
        <ele>133.1</ele>
        <time>2023-11-22T14:29:06Z</time>
      </trkpt>
      <trkpt lat="50.02337" lon="2.3412">
        <ele>133.1</ele>
        <time>2023-11-22T14:29:07Z</time>
      </trkpt>
      <trkpt lat="50.02338" lon="2.34118">
        <ele>133.1</ele>
        <time>2023-11-22T14:29:08Z</time>
      </trkpt>
      <trkpt lat="50.02339" lon="2.34117">
        <ele>133.2</ele>
        <time>2023-11-22T14:29:09Z</time>
      </trkpt>
      <trkpt lat="50.02339" lon="2.34116">
        <ele>133.2</ele>
        <time>2023-11-22T14:29:10Z</time>
      </trkpt>
      <trkpt lat="50.0234" lon="2.34115">
        <ele>133.2</ele>
        <time>2023-11-22T14:29:11Z</time>
      </trkpt>
      <trkpt lat="50.02341" lon="2.34113">
        <ele>133.2</ele>
        <time>2023-11-22T14:29:12Z</time>
      </trkpt>
      <trkpt lat="50.02342" lon="2.34112">
        <ele>133.2</ele>
        <time>2023-11-22T14:29:13Z</time>
      </trkpt>
      <trkpt lat="50.02342" lon="2.34111">
        <ele>133.2</ele>
        <time>2023-11-22T14:29:14Z</time>
      </trkpt>
      <trkpt lat="50.02343" lon="2.3411">
        <ele>133.2</ele>
        <time>2023-11-22T14:29:15Z</time>
      </trkpt>
      <trkpt lat="50.02344" lon="2.34109">
        <ele>133.2</ele>
        <time>2023-11-22T14:29:16Z</time>
      </trkpt>
      <trkpt lat="50.02345" lon="2.34108">
        <ele>133.2</ele>
        <time>2023-11-22T14:29:17Z</time>
      </trkpt>
      <trkpt lat="50.02346" lon="2.34107">
        <ele>133.2</ele>
        <time>2023-11-22T14:29:18Z</time>
      </trkpt>
      <trkpt lat="50.02346" lon="2.34105">
        <ele>133.2</ele>
        <time>2023-11-22T14:29:19Z</time>
      </trkpt>
      <trkpt lat="50.02347" lon="2.34104">
        <ele>133.2</ele>
        <time>2023-11-22T14:29:20Z</time>
      </trkpt>
      <trkpt lat="50.02347" lon="2.34103">
        <ele>133.2</ele>
        <time>2023-11-22T14:29:21Z</time>
      </trkpt>
      <trkpt lat="50.02348" lon="2.34102">
        <ele>133.2</ele>
        <time>2023-11-22T14:29:22Z</time>
      </trkpt>
      <trkpt lat="50.02349" lon="2.341">
        <ele>133.2</ele>
        <time>2023-11-22T14:29:23Z</time>
      </trkpt>
      <trkpt lat="50.02349" lon="2.34099">
        <ele>133.2</ele>
        <time>2023-11-22T14:29:24Z</time>
      </trkpt>
      <trkpt lat="50.0235" lon="2.34098">
        <ele>133.2</ele>
        <time>2023-11-22T14:29:25Z</time>
      </trkpt>
      <trkpt lat="50.0235" lon="2.34097">
        <ele>133.2</ele>
        <time>2023-11-22T14:29:26Z</time>
      </trkpt>
      <trkpt lat="50.0235" lon="2.34096">
        <ele>133.3</ele>
        <time>2023-11-22T14:29:27Z</time>
      </trkpt>
      <trkpt lat="50.02351" lon="2.34095">
        <ele>133.3</ele>
        <time>2023-11-22T14:29:28Z</time>
      </trkpt>
      <trkpt lat="50.02351" lon="2.34094">
        <ele>133.3</ele>
        <time>2023-11-22T14:29:29Z</time>
      </trkpt>
      <trkpt lat="50.02352" lon="2.34093">
        <ele>133.3</ele>
        <time>2023-11-22T14:29:30Z</time>
      </trkpt>
      <trkpt lat="50.02352" lon="2.34091">
        <ele>133.3</ele>
        <time>2023-11-22T14:29:31Z</time>
      </trkpt>
      <trkpt lat="50.02352" lon="2.3409">
        <ele>133.3</ele>
        <time>2023-11-22T14:29:32Z</time>
      </trkpt>
      <trkpt lat="50.02353" lon="2.34089">
        <ele>133.3</ele>
        <time>2023-11-22T14:29:33Z</time>
      </trkpt>
      <trkpt lat="50.02353" lon="2.34088">
        <ele>133.3</ele>
        <time>2023-11-22T14:29:34Z</time>
      </trkpt>
      <trkpt lat="50.02354" lon="2.34087">
        <ele>133.3</ele>
        <time>2023-11-22T14:29:35Z</time>
      </trkpt>
      <trkpt lat="50.02354" lon="2.34086">
        <ele>133.3</ele>
        <time>2023-11-22T14:29:36Z</time>
      </trkpt>
      <trkpt lat="50.02354" lon="2.34085">
        <ele>133.4</ele>
        <time>2023-11-22T14:29:37Z</time>
      </trkpt>
      <trkpt lat="50.02355" lon="2.34083">
        <ele>133.4</ele>
        <time>2023-11-22T14:29:38Z</time>
      </trkpt>
      <trkpt lat="50.02355" lon="2.34082">
        <ele>133.4</ele>
        <time>2023-11-22T14:29:39Z</time>
      </trkpt>
      <trkpt lat="50.02356" lon="2.34081">
        <ele>133.4</ele>
        <time>2023-11-22T14:29:40Z</time>
      </trkpt>
      <trkpt lat="50.02356" lon="2.3408">
        <ele>133.4</ele>
        <time>2023-11-22T14:29:41Z</time>
      </trkpt>
      <trkpt lat="50.02357" lon="2.34079">
        <ele>133.4</ele>
        <time>2023-11-22T14:29:42Z</time>
      </trkpt>
      <trkpt lat="50.02357" lon="2.34078">
        <ele>133.4</ele>
        <time>2023-11-22T14:29:43Z</time>
      </trkpt>
      <trkpt lat="50.02358" lon="2.34076">
        <ele>133.5</ele>
        <time>2023-11-22T14:29:44Z</time>
      </trkpt>
      <trkpt lat="50.02358" lon="2.34075">
        <ele>133.5</ele>
        <time>2023-11-22T14:29:45Z</time>
      </trkpt>
      <trkpt lat="50.02359" lon="2.34074">
        <ele>133.5</ele>
        <time>2023-11-22T14:29:46Z</time>
      </trkpt>
      <trkpt lat="50.0236" lon="2.34073">
        <ele>133.5</ele>
        <time>2023-11-22T14:29:47Z</time>
      </trkpt>
      <trkpt lat="50.0236" lon="2.34072">
        <ele>133.5</ele>
        <time>2023-11-22T14:29:48Z</time>
      </trkpt>
      <trkpt lat="50.02361" lon="2.34071">
        <ele>133.5</ele>
        <time>2023-11-22T14:29:49Z</time>
      </trkpt>
      <trkpt lat="50.02361" lon="2.3407">
        <ele>133.5</ele>
        <time>2023-11-22T14:29:50Z</time>
      </trkpt>
      <trkpt lat="50.02362" lon="2.34069">
        <ele>133.5</ele>
        <time>2023-11-22T14:29:51Z</time>
      </trkpt>
      <trkpt lat="50.02362" lon="2.34068">
        <ele>133.6</ele>
        <time>2023-11-22T14:29:52Z</time>
      </trkpt>
      <trkpt lat="50.02362" lon="2.34067">
        <ele>133.6</ele>
        <time>2023-11-22T14:29:53Z</time>
      </trkpt>
      <trkpt lat="50.02363" lon="2.34066">
        <ele>133.6</ele>
        <time>2023-11-22T14:29:54Z</time>
      </trkpt>
      <trkpt lat="50.02363" lon="2.34065">
        <ele>133.6</ele>
        <time>2023-11-22T14:29:55Z</time>
      </trkpt>
      <trkpt lat="50.02364" lon="2.34064">
        <ele>133.6</ele>
        <time>2023-11-22T14:29:56Z</time>
      </trkpt>
      <trkpt lat="50.02364" lon="2.34064">
        <ele>133.6</ele>
        <time>2023-11-22T14:29:57Z</time>
      </trkpt>
      <trkpt lat="50.02365" lon="2.34063">
        <ele>133.6</ele>
        <time>2023-11-22T14:29:58Z</time>
      </trkpt>
      <trkpt lat="50.02365" lon="2.34062">
        <ele>133.6</ele>
        <time>2023-11-22T14:29:59Z</time>
      </trkpt>
      <trkpt lat="50.02366" lon="2.34062">
        <ele>133.6</ele>
        <time>2023-11-22T14:30:00Z</time>
      </trkpt>
      <trkpt lat="50.02366" lon="2.34061">
        <ele>133.6</ele>
        <time>2023-11-22T14:30:01Z</time>
      </trkpt>
      <trkpt lat="50.02366" lon="2.34061">
        <ele>133.7</ele>
        <time>2023-11-22T14:30:02Z</time>
      </trkpt>
      <trkpt lat="50.02366" lon="2.3406">
        <ele>133.7</ele>
        <time>2023-11-22T14:30:03Z</time>
      </trkpt>
      <trkpt lat="50.02366" lon="2.34059">
        <ele>133.7</ele>
        <time>2023-11-22T14:30:04Z</time>
      </trkpt>
      <trkpt lat="50.02366" lon="2.34059">
        <ele>133.7</ele>
        <time>2023-11-22T14:30:05Z</time>
      </trkpt>
      <trkpt lat="50.02366" lon="2.34059">
        <ele>133.7</ele>
        <time>2023-11-22T14:30:06Z</time>
      </trkpt>
      <trkpt lat="50.02366" lon="2.34059">
        <ele>133.7</ele>
        <time>2023-11-22T14:30:07Z</time>
      </trkpt>
      <trkpt lat="50.02365" lon="2.34059">
        <ele>133.7</ele>
        <time>2023-11-22T14:30:08Z</time>
      </trkpt>
      <trkpt lat="50.02365" lon="2.34059">
        <ele>133.7</ele>
        <time>2023-11-22T14:30:09Z</time>
      </trkpt>
      <trkpt lat="50.02365" lon="2.34059">
        <ele>133.7</ele>
        <time>2023-11-22T14:30:10Z</time>
      </trkpt>
      <trkpt lat="50.02365" lon="2.3406">
        <ele>133.7</ele>
        <time>2023-11-22T14:30:11Z</time>
      </trkpt>
      <trkpt lat="50.02365" lon="2.3406">
        <ele>133.7</ele>
        <time>2023-11-22T14:30:12Z</time>
      </trkpt>
      <trkpt lat="50.02365" lon="2.3406">
        <ele>133.7</ele>
        <time>2023-11-22T14:30:13Z</time>
      </trkpt>
      <trkpt lat="50.02366" lon="2.3406">
        <ele>133.7</ele>
        <time>2023-11-22T14:30:14Z</time>
      </trkpt>
      <trkpt lat="50.02366" lon="2.3406">
        <ele>133.7</ele>
        <time>2023-11-22T14:30:15Z</time>
      </trkpt>
      <trkpt lat="50.02365" lon="2.34059">
        <ele>133.7</ele>
        <time>2023-11-22T14:30:16Z</time>
      </trkpt>
      <trkpt lat="50.02365" lon="2.34059">
        <ele>133.7</ele>
        <time>2023-11-22T14:30:17Z</time>
      </trkpt>
      <trkpt lat="50.02365" lon="2.34059">
        <ele>133.7</ele>
        <time>2023-11-22T14:30:18Z</time>
      </trkpt>
      <trkpt lat="50.02364" lon="2.34059">
        <ele>133.7</ele>
        <time>2023-11-22T14:30:19Z</time>
      </trkpt>
      <trkpt lat="50.02364" lon="2.34059">
        <ele>133.7</ele>
        <time>2023-11-22T14:30:20Z</time>
      </trkpt>
      <trkpt lat="50.02364" lon="2.34059">
        <ele>133.7</ele>
        <time>2023-11-22T14:30:21Z</time>
      </trkpt>
      <trkpt lat="50.02364" lon="2.3406">
        <ele>133.7</ele>
        <time>2023-11-22T14:30:22Z</time>
      </trkpt>
      <trkpt lat="50.02365" lon="2.3406">
        <ele>133.7</ele>
        <time>2023-11-22T14:30:23Z</time>
      </trkpt>
      <trkpt lat="50.02365" lon="2.34061">
        <ele>133.7</ele>
        <time>2023-11-22T14:30:24Z</time>
      </trkpt>
      <trkpt lat="50.02365" lon="2.34061">
        <ele>133.7</ele>
        <time>2023-11-22T14:30:25Z</time>
      </trkpt>
      <trkpt lat="50.02365" lon="2.34062">
        <ele>133.7</ele>
        <time>2023-11-22T14:30:26Z</time>
      </trkpt>
      <trkpt lat="50.02365" lon="2.34062">
        <ele>133.7</ele>
        <time>2023-11-22T14:30:27Z</time>
      </trkpt>
      <trkpt lat="50.02366" lon="2.34062">
        <ele>133.7</ele>
        <time>2023-11-22T14:30:28Z</time>
      </trkpt>
      <trkpt lat="50.02366" lon="2.34062">
        <ele>133.8</ele>
        <time>2023-11-22T14:30:29Z</time>
      </trkpt>
      <trkpt lat="50.02366" lon="2.34063">
        <ele>133.8</ele>
        <time>2023-11-22T14:30:30Z</time>
      </trkpt>
      <trkpt lat="50.02366" lon="2.34063">
        <ele>133.8</ele>
        <time>2023-11-22T14:30:31Z</time>
      </trkpt>
      <trkpt lat="50.02366" lon="2.34063">
        <ele>133.8</ele>
        <time>2023-11-22T14:30:32Z</time>
      </trkpt>
      <trkpt lat="50.02367" lon="2.34066">
        <ele>133.8</ele>
        <time>2023-11-22T14:31:02Z</time>
      </trkpt>
      <trkpt lat="50.02368" lon="2.34067">
        <ele>133.8</ele>
        <time>2023-11-22T14:31:03Z</time>
      </trkpt>
      <trkpt lat="50.02368" lon="2.34067">
        <ele>133.8</ele>
        <time>2023-11-22T14:31:04Z</time>
      </trkpt>
      <trkpt lat="50.02368" lon="2.34067">
        <ele>133.8</ele>
        <time>2023-11-22T14:31:05Z</time>
      </trkpt>
      <trkpt lat="50.02368" lon="2.34067">
        <ele>133.8</ele>
        <time>2023-11-22T14:31:06Z</time>
      </trkpt>
      <trkpt lat="50.02368" lon="2.34068">
        <ele>133.8</ele>
        <time>2023-11-22T14:31:07Z</time>
      </trkpt>
      <trkpt lat="50.02368" lon="2.34068">
        <ele>133.8</ele>
        <time>2023-11-22T14:31:08Z</time>
      </trkpt>
      <trkpt lat="50.02368" lon="2.34068">
        <ele>133.8</ele>
        <time>2023-11-22T14:31:09Z</time>
      </trkpt>
      <trkpt lat="50.02368" lon="2.34068">
        <ele>133.8</ele>
        <time>2023-11-22T14:31:10Z</time>
      </trkpt>
      <trkpt lat="50.02368" lon="2.34068">
        <ele>133.8</ele>
        <time>2023-11-22T14:31:11Z</time>
      </trkpt>
      <trkpt lat="50.02368" lon="2.34068">
        <ele>133.8</ele>
        <time>2023-11-22T14:31:12Z</time>
      </trkpt>
      <trkpt lat="50.02368" lon="2.34068">
        <ele>133.8</ele>
        <time>2023-11-22T14:31:13Z</time>
      </trkpt>
      <trkpt lat="50.02369" lon="2.34062">
        <ele>133.8</ele>
        <time>2023-11-22T14:32:53Z</time>
      </trkpt>
      <trkpt lat="50.02369" lon="2.3406">
        <ele>133.9</ele>
        <time>2023-11-22T14:32:54Z</time>
      </trkpt>
      <trkpt lat="50.02368" lon="2.34057">
        <ele>133.9</ele>
        <time>2023-11-22T14:32:55Z</time>
      </trkpt>
      <trkpt lat="50.02368" lon="2.34055">
        <ele>133.9</ele>
        <time>2023-11-22T14:32:56Z</time>
      </trkpt>
      <trkpt lat="50.02367" lon="2.34054">
        <ele>133.9</ele>
        <time>2023-11-22T14:32:57Z</time>
      </trkpt>
      <trkpt lat="50.02367" lon="2.34052">
        <ele>133.9</ele>
        <time>2023-11-22T14:32:58Z</time>
      </trkpt>
      <trkpt lat="50.02367" lon="2.34051">
        <ele>133.9</ele>
        <time>2023-11-22T14:32:59Z</time>
      </trkpt>
      <trkpt lat="50.02367" lon="2.34049">
        <ele>133.9</ele>
        <time>2023-11-22T14:33:00Z</time>
      </trkpt>
      <trkpt lat="50.02366" lon="2.34047">
        <ele>133.9</ele>
        <time>2023-11-22T14:33:01Z</time>
      </trkpt>
      <trkpt lat="50.02366" lon="2.34044">
        <ele>133.9</ele>
        <time>2023-11-22T14:33:02Z</time>
      </trkpt>
      <trkpt lat="50.02366" lon="2.34043">
        <ele>133.9</ele>
        <time>2023-11-22T14:33:03Z</time>
      </trkpt>
      <trkpt lat="50.02366" lon="2.34042">
        <ele>133.9</ele>
        <time>2023-11-22T14:33:04Z</time>
      </trkpt>
      <trkpt lat="50.02365" lon="2.34039">
        <ele>133.9</ele>
        <time>2023-11-22T14:33:05Z</time>
      </trkpt>
      <trkpt lat="50.02365" lon="2.34037">
        <ele>134</ele>
        <time>2023-11-22T14:33:06Z</time>
      </trkpt>
      <trkpt lat="50.02365" lon="2.34035">
        <ele>134</ele>
        <time>2023-11-22T14:33:07Z</time>
      </trkpt>
      <trkpt lat="50.02365" lon="2.34032">
        <ele>134</ele>
        <time>2023-11-22T14:33:08Z</time>
      </trkpt>
      <trkpt lat="50.02365" lon="2.34031">
        <ele>134</ele>
        <time>2023-11-22T14:33:09Z</time>
      </trkpt>
      <trkpt lat="50.02364" lon="2.34029">
        <ele>134</ele>
        <time>2023-11-22T14:33:10Z</time>
      </trkpt>
      <trkpt lat="50.02364" lon="2.34027">
        <ele>134</ele>
        <time>2023-11-22T14:33:11Z</time>
      </trkpt>
      <trkpt lat="50.02364" lon="2.34026">
        <ele>134</ele>
        <time>2023-11-22T14:33:12Z</time>
      </trkpt>
      <trkpt lat="50.02364" lon="2.34024">
        <ele>134</ele>
        <time>2023-11-22T14:33:13Z</time>
      </trkpt>
      <trkpt lat="50.02364" lon="2.34022">
        <ele>134</ele>
        <time>2023-11-22T14:33:14Z</time>
      </trkpt>
      <trkpt lat="50.02364" lon="2.3402">
        <ele>134</ele>
        <time>2023-11-22T14:33:15Z</time>
      </trkpt>
      <trkpt lat="50.02364" lon="2.34017">
        <ele>134</ele>
        <time>2023-11-22T14:33:16Z</time>
      </trkpt>
      <trkpt lat="50.02363" lon="2.34014">
        <ele>134</ele>
        <time>2023-11-22T14:33:17Z</time>
      </trkpt>
      <trkpt lat="50.02363" lon="2.34012">
        <ele>134</ele>
        <time>2023-11-22T14:33:18Z</time>
      </trkpt>
      <trkpt lat="50.02363" lon="2.34011">
        <ele>134</ele>
        <time>2023-11-22T14:33:19Z</time>
      </trkpt>
      <trkpt lat="50.02362" lon="2.34008">
        <ele>134</ele>
        <time>2023-11-22T14:33:20Z</time>
      </trkpt>
      <trkpt lat="50.02362" lon="2.34007">
        <ele>134</ele>
        <time>2023-11-22T14:33:21Z</time>
      </trkpt>
      <trkpt lat="50.02362" lon="2.34006">
        <ele>134</ele>
        <time>2023-11-22T14:33:22Z</time>
      </trkpt>
      <trkpt lat="50.02361" lon="2.34003">
        <ele>134</ele>
        <time>2023-11-22T14:33:23Z</time>
      </trkpt>
      <trkpt lat="50.02361" lon="2.34002">
        <ele>134</ele>
        <time>2023-11-22T14:33:24Z</time>
      </trkpt>
      <trkpt lat="50.0236" lon="2.34">
        <ele>134</ele>
        <time>2023-11-22T14:33:25Z</time>
      </trkpt>
      <trkpt lat="50.0236" lon="2.33999">
        <ele>134</ele>
        <time>2023-11-22T14:33:26Z</time>
      </trkpt>
      <trkpt lat="50.02359" lon="2.33998">
        <ele>134</ele>
        <time>2023-11-22T14:33:27Z</time>
      </trkpt>
      <trkpt lat="50.02359" lon="2.33996">
        <ele>134</ele>
        <time>2023-11-22T14:33:28Z</time>
      </trkpt>
      <trkpt lat="50.02359" lon="2.33995">
        <ele>134</ele>
        <time>2023-11-22T14:33:29Z</time>
      </trkpt>
      <trkpt lat="50.02358" lon="2.33993">
        <ele>134</ele>
        <time>2023-11-22T14:33:30Z</time>
      </trkpt>
      <trkpt lat="50.02358" lon="2.33991">
        <ele>134</ele>
        <time>2023-11-22T14:33:31Z</time>
      </trkpt>
      <trkpt lat="50.02358" lon="2.3399">
        <ele>134</ele>
        <time>2023-11-22T14:33:32Z</time>
      </trkpt>
      <trkpt lat="50.02358" lon="2.33988">
        <ele>134</ele>
        <time>2023-11-22T14:33:33Z</time>
      </trkpt>
      <trkpt lat="50.02358" lon="2.33987">
        <ele>134</ele>
        <time>2023-11-22T14:33:34Z</time>
      </trkpt>
      <trkpt lat="50.02357" lon="2.33985">
        <ele>134</ele>
        <time>2023-11-22T14:33:35Z</time>
      </trkpt>
      <trkpt lat="50.02357" lon="2.33984">
        <ele>134</ele>
        <time>2023-11-22T14:33:36Z</time>
      </trkpt>
      <trkpt lat="50.02357" lon="2.33983">
        <ele>134</ele>
        <time>2023-11-22T14:33:37Z</time>
      </trkpt>
      <trkpt lat="50.02356" lon="2.33981">
        <ele>134</ele>
        <time>2023-11-22T14:33:38Z</time>
      </trkpt>
      <trkpt lat="50.02356" lon="2.3398">
        <ele>134</ele>
        <time>2023-11-22T14:33:39Z</time>
      </trkpt>
      <trkpt lat="50.02355" lon="2.33979">
        <ele>134</ele>
        <time>2023-11-22T14:33:40Z</time>
      </trkpt>
      <trkpt lat="50.02355" lon="2.33977">
        <ele>134</ele>
        <time>2023-11-22T14:33:41Z</time>
      </trkpt>
      <trkpt lat="50.02354" lon="2.33976">
        <ele>134</ele>
        <time>2023-11-22T14:33:42Z</time>
      </trkpt>
      <trkpt lat="50.02354" lon="2.33974">
        <ele>134.1</ele>
        <time>2023-11-22T14:33:43Z</time>
      </trkpt>
      <trkpt lat="50.02354" lon="2.33973">
        <ele>134.1</ele>
        <time>2023-11-22T14:33:44Z</time>
      </trkpt>
      <trkpt lat="50.02353" lon="2.33972">
        <ele>134.1</ele>
        <time>2023-11-22T14:33:45Z</time>
      </trkpt>
      <trkpt lat="50.02353" lon="2.3397">
        <ele>134.1</ele>
        <time>2023-11-22T14:33:46Z</time>
      </trkpt>
      <trkpt lat="50.02352" lon="2.33969">
        <ele>134.1</ele>
        <time>2023-11-22T14:33:47Z</time>
      </trkpt>
      <trkpt lat="50.02351" lon="2.33968">
        <ele>134.1</ele>
        <time>2023-11-22T14:33:48Z</time>
      </trkpt>
      <trkpt lat="50.02351" lon="2.33966">
        <ele>134.1</ele>
        <time>2023-11-22T14:33:49Z</time>
      </trkpt>
      <trkpt lat="50.0235" lon="2.33965">
        <ele>134.1</ele>
        <time>2023-11-22T14:33:50Z</time>
      </trkpt>
      <trkpt lat="50.0235" lon="2.33963">
        <ele>134.1</ele>
        <time>2023-11-22T14:33:51Z</time>
      </trkpt>
      <trkpt lat="50.0235" lon="2.33962">
        <ele>134.1</ele>
        <time>2023-11-22T14:33:52Z</time>
      </trkpt>
      <trkpt lat="50.02349" lon="2.3396">
        <ele>134.1</ele>
        <time>2023-11-22T14:33:53Z</time>
      </trkpt>
      <trkpt lat="50.02349" lon="2.33959">
        <ele>134.1</ele>
        <time>2023-11-22T14:33:54Z</time>
      </trkpt>
      <trkpt lat="50.02349" lon="2.33957">
        <ele>134.1</ele>
        <time>2023-11-22T14:33:55Z</time>
      </trkpt>
      <trkpt lat="50.02348" lon="2.33956">
        <ele>134.1</ele>
        <time>2023-11-22T14:33:56Z</time>
      </trkpt>
      <trkpt lat="50.02348" lon="2.33954">
        <ele>134.1</ele>
        <time>2023-11-22T14:33:57Z</time>
      </trkpt>
      <trkpt lat="50.02347" lon="2.33952">
        <ele>134.1</ele>
        <time>2023-11-22T14:33:58Z</time>
      </trkpt>
      <trkpt lat="50.02347" lon="2.3395">
        <ele>134.1</ele>
        <time>2023-11-22T14:33:59Z</time>
      </trkpt>
      <trkpt lat="50.02346" lon="2.33949">
        <ele>134.1</ele>
        <time>2023-11-22T14:34:00Z</time>
      </trkpt>
      <trkpt lat="50.02346" lon="2.33947">
        <ele>134.1</ele>
        <time>2023-11-22T14:34:01Z</time>
      </trkpt>
      <trkpt lat="50.02346" lon="2.33945">
        <ele>134.1</ele>
        <time>2023-11-22T14:34:02Z</time>
      </trkpt>
      <trkpt lat="50.02345" lon="2.33944">
        <ele>134.1</ele>
        <time>2023-11-22T14:34:03Z</time>
      </trkpt>
      <trkpt lat="50.02345" lon="2.33942">
        <ele>134.1</ele>
        <time>2023-11-22T14:34:04Z</time>
      </trkpt>
      <trkpt lat="50.02345" lon="2.3394">
        <ele>134.1</ele>
        <time>2023-11-22T14:34:05Z</time>
      </trkpt>
      <trkpt lat="50.02344" lon="2.33937">
        <ele>134.1</ele>
        <time>2023-11-22T14:34:06Z</time>
      </trkpt>
      <trkpt lat="50.02343" lon="2.33936">
        <ele>134.1</ele>
        <time>2023-11-22T14:34:07Z</time>
      </trkpt>
      <trkpt lat="50.02343" lon="2.33935">
        <ele>134.1</ele>
        <time>2023-11-22T14:34:08Z</time>
      </trkpt>
      <trkpt lat="50.02342" lon="2.33932">
        <ele>134.1</ele>
        <time>2023-11-22T14:34:09Z</time>
      </trkpt>
      <trkpt lat="50.02342" lon="2.33931">
        <ele>134</ele>
        <time>2023-11-22T14:34:10Z</time>
      </trkpt>
      <trkpt lat="50.02342" lon="2.3393">
        <ele>134</ele>
        <time>2023-11-22T14:34:11Z</time>
      </trkpt>
      <trkpt lat="50.02341" lon="2.33928">
        <ele>134</ele>
        <time>2023-11-22T14:34:12Z</time>
      </trkpt>
      <trkpt lat="50.02341" lon="2.33927">
        <ele>134</ele>
        <time>2023-11-22T14:34:13Z</time>
      </trkpt>
      <trkpt lat="50.0234" lon="2.33925">
        <ele>134</ele>
        <time>2023-11-22T14:34:14Z</time>
      </trkpt>
      <trkpt lat="50.02339" lon="2.33922">
        <ele>134</ele>
        <time>2023-11-22T14:34:15Z</time>
      </trkpt>
      <trkpt lat="50.02339" lon="2.33921">
        <ele>134</ele>
        <time>2023-11-22T14:34:16Z</time>
      </trkpt>
      <trkpt lat="50.02338" lon="2.3392">
        <ele>134</ele>
        <time>2023-11-22T14:34:17Z</time>
      </trkpt>
      <trkpt lat="50.02338" lon="2.33918">
        <ele>134</ele>
        <time>2023-11-22T14:34:18Z</time>
      </trkpt>
      <trkpt lat="50.02337" lon="2.33916">
        <ele>134</ele>
        <time>2023-11-22T14:34:19Z</time>
      </trkpt>
      <trkpt lat="50.02337" lon="2.33915">
        <ele>134</ele>
        <time>2023-11-22T14:34:20Z</time>
      </trkpt>
      <trkpt lat="50.02336" lon="2.33913">
        <ele>134</ele>
        <time>2023-11-22T14:34:21Z</time>
      </trkpt>
      <trkpt lat="50.02336" lon="2.33912">
        <ele>134</ele>
        <time>2023-11-22T14:34:22Z</time>
      </trkpt>
      <trkpt lat="50.02335" lon="2.33911">
        <ele>134</ele>
        <time>2023-11-22T14:34:23Z</time>
      </trkpt>
      <trkpt lat="50.02335" lon="2.33909">
        <ele>134</ele>
        <time>2023-11-22T14:34:24Z</time>
      </trkpt>
      <trkpt lat="50.02334" lon="2.33908">
        <ele>134</ele>
        <time>2023-11-22T14:34:25Z</time>
      </trkpt>
      <trkpt lat="50.02334" lon="2.33906">
        <ele>134</ele>
        <time>2023-11-22T14:34:26Z</time>
      </trkpt>
      <trkpt lat="50.02333" lon="2.33905">
        <ele>134</ele>
        <time>2023-11-22T14:34:27Z</time>
      </trkpt>
      <trkpt lat="50.02333" lon="2.33904">
        <ele>134</ele>
        <time>2023-11-22T14:34:28Z</time>
      </trkpt>
      <trkpt lat="50.02332" lon="2.33902">
        <ele>133.9</ele>
        <time>2023-11-22T14:34:29Z</time>
      </trkpt>
      <trkpt lat="50.02331" lon="2.33901">
        <ele>133.9</ele>
        <time>2023-11-22T14:34:30Z</time>
      </trkpt>
      <trkpt lat="50.0233" lon="2.33899">
        <ele>133.9</ele>
        <time>2023-11-22T14:34:31Z</time>
      </trkpt>
      <trkpt lat="50.0233" lon="2.33898">
        <ele>133.9</ele>
        <time>2023-11-22T14:34:32Z</time>
      </trkpt>
      <trkpt lat="50.02329" lon="2.33896">
        <ele>133.9</ele>
        <time>2023-11-22T14:34:33Z</time>
      </trkpt>
      <trkpt lat="50.02329" lon="2.33895">
        <ele>133.9</ele>
        <time>2023-11-22T14:34:34Z</time>
      </trkpt>
      <trkpt lat="50.02328" lon="2.33893">
        <ele>133.9</ele>
        <time>2023-11-22T14:34:35Z</time>
      </trkpt>
      <trkpt lat="50.02328" lon="2.33892">
        <ele>133.9</ele>
        <time>2023-11-22T14:34:36Z</time>
      </trkpt>
      <trkpt lat="50.02327" lon="2.3389">
        <ele>133.9</ele>
        <time>2023-11-22T14:34:37Z</time>
      </trkpt>
      <trkpt lat="50.02326" lon="2.33889">
        <ele>133.9</ele>
        <time>2023-11-22T14:34:38Z</time>
      </trkpt>
      <trkpt lat="50.02326" lon="2.33887">
        <ele>133.9</ele>
        <time>2023-11-22T14:34:39Z</time>
      </trkpt>
      <trkpt lat="50.02325" lon="2.33886">
        <ele>133.9</ele>
        <time>2023-11-22T14:34:40Z</time>
      </trkpt>
      <trkpt lat="50.02325" lon="2.33884">
        <ele>133.9</ele>
        <time>2023-11-22T14:34:41Z</time>
      </trkpt>
      <trkpt lat="50.02324" lon="2.33881">
        <ele>133.9</ele>
        <time>2023-11-22T14:34:42Z</time>
      </trkpt>
      <trkpt lat="50.02324" lon="2.3388">
        <ele>133.9</ele>
        <time>2023-11-22T14:34:43Z</time>
      </trkpt>
      <trkpt lat="50.02324" lon="2.33878">
        <ele>133.9</ele>
        <time>2023-11-22T14:34:44Z</time>
      </trkpt>
      <trkpt lat="50.02323" lon="2.33877">
        <ele>133.9</ele>
        <time>2023-11-22T14:34:45Z</time>
      </trkpt>
      <trkpt lat="50.02323" lon="2.33875">
        <ele>133.9</ele>
        <time>2023-11-22T14:34:46Z</time>
      </trkpt>
      <trkpt lat="50.02323" lon="2.33874">
        <ele>133.9</ele>
        <time>2023-11-22T14:34:47Z</time>
      </trkpt>
      <trkpt lat="50.02322" lon="2.33872">
        <ele>133.9</ele>
        <time>2023-11-22T14:34:48Z</time>
      </trkpt>
      <trkpt lat="50.02322" lon="2.33871">
        <ele>133.9</ele>
        <time>2023-11-22T14:34:49Z</time>
      </trkpt>
      <trkpt lat="50.02322" lon="2.33869">
        <ele>133.9</ele>
        <time>2023-11-22T14:34:50Z</time>
      </trkpt>
      <trkpt lat="50.02321" lon="2.33866">
        <ele>133.9</ele>
        <time>2023-11-22T14:34:51Z</time>
      </trkpt>
      <trkpt lat="50.02321" lon="2.33865">
        <ele>133.9</ele>
        <time>2023-11-22T14:34:52Z</time>
      </trkpt>
      <trkpt lat="50.02321" lon="2.33863">
        <ele>133.9</ele>
        <time>2023-11-22T14:34:53Z</time>
      </trkpt>
      <trkpt lat="50.0232" lon="2.3386">
        <ele>133.9</ele>
        <time>2023-11-22T14:34:54Z</time>
      </trkpt>
      <trkpt lat="50.0232" lon="2.33859">
        <ele>133.9</ele>
        <time>2023-11-22T14:34:55Z</time>
      </trkpt>
      <trkpt lat="50.0232" lon="2.33857">
        <ele>133.9</ele>
        <time>2023-11-22T14:34:56Z</time>
      </trkpt>
      <trkpt lat="50.0232" lon="2.33856">
        <ele>133.9</ele>
        <time>2023-11-22T14:34:57Z</time>
      </trkpt>
      <trkpt lat="50.02319" lon="2.33854">
        <ele>133.9</ele>
        <time>2023-11-22T14:34:58Z</time>
      </trkpt>
      <trkpt lat="50.02319" lon="2.33852">
        <ele>133.9</ele>
        <time>2023-11-22T14:34:59Z</time>
      </trkpt>
      <trkpt lat="50.02319" lon="2.33851">
        <ele>133.9</ele>
        <time>2023-11-22T14:35:00Z</time>
      </trkpt>
      <trkpt lat="50.02319" lon="2.33849">
        <ele>133.9</ele>
        <time>2023-11-22T14:35:01Z</time>
      </trkpt>
      <trkpt lat="50.02319" lon="2.33847">
        <ele>133.9</ele>
        <time>2023-11-22T14:35:02Z</time>
      </trkpt>
      <trkpt lat="50.02319" lon="2.33845">
        <ele>133.9</ele>
        <time>2023-11-22T14:35:03Z</time>
      </trkpt>
      <trkpt lat="50.02319" lon="2.33843">
        <ele>133.8</ele>
        <time>2023-11-22T14:35:04Z</time>
      </trkpt>
      <trkpt lat="50.02318" lon="2.33841">
        <ele>133.8</ele>
        <time>2023-11-22T14:35:05Z</time>
      </trkpt>
      <trkpt lat="50.02318" lon="2.3384">
        <ele>133.8</ele>
        <time>2023-11-22T14:35:06Z</time>
      </trkpt>
      <trkpt lat="50.02318" lon="2.33838">
        <ele>133.8</ele>
        <time>2023-11-22T14:35:07Z</time>
      </trkpt>
      <trkpt lat="50.02318" lon="2.33837">
        <ele>133.8</ele>
        <time>2023-11-22T14:35:08Z</time>
      </trkpt>
      <trkpt lat="50.02317" lon="2.33835">
        <ele>133.8</ele>
        <time>2023-11-22T14:35:09Z</time>
      </trkpt>
      <trkpt lat="50.02317" lon="2.33833">
        <ele>133.8</ele>
        <time>2023-11-22T14:35:10Z</time>
      </trkpt>
      <trkpt lat="50.02317" lon="2.33831">
        <ele>133.8</ele>
        <time>2023-11-22T14:35:11Z</time>
      </trkpt>
      <trkpt lat="50.02317" lon="2.3383">
        <ele>133.8</ele>
        <time>2023-11-22T14:35:12Z</time>
      </trkpt>
      <trkpt lat="50.02316" lon="2.33828">
        <ele>133.8</ele>
        <time>2023-11-22T14:35:13Z</time>
      </trkpt>
      <trkpt lat="50.02316" lon="2.33826">
        <ele>133.8</ele>
        <time>2023-11-22T14:35:14Z</time>
      </trkpt>
      <trkpt lat="50.02316" lon="2.33824">
        <ele>133.8</ele>
        <time>2023-11-22T14:35:15Z</time>
      </trkpt>
      <trkpt lat="50.02316" lon="2.33822">
        <ele>133.8</ele>
        <time>2023-11-22T14:35:16Z</time>
      </trkpt>
      <trkpt lat="50.02315" lon="2.33821">
        <ele>133.8</ele>
        <time>2023-11-22T14:35:17Z</time>
      </trkpt>
      <trkpt lat="50.02315" lon="2.33819">
        <ele>133.8</ele>
        <time>2023-11-22T14:35:18Z</time>
      </trkpt>
      <trkpt lat="50.02315" lon="2.33818">
        <ele>133.8</ele>
        <time>2023-11-22T14:35:19Z</time>
      </trkpt>
      <trkpt lat="50.02315" lon="2.33816">
        <ele>133.8</ele>
        <time>2023-11-22T14:35:20Z</time>
      </trkpt>
      <trkpt lat="50.02314" lon="2.33815">
        <ele>133.8</ele>
        <time>2023-11-22T14:35:21Z</time>
      </trkpt>
      <trkpt lat="50.02314" lon="2.33813">
        <ele>133.7</ele>
        <time>2023-11-22T14:35:22Z</time>
      </trkpt>
      <trkpt lat="50.02314" lon="2.33811">
        <ele>133.7</ele>
        <time>2023-11-22T14:35:23Z</time>
      </trkpt>
      <trkpt lat="50.02314" lon="2.33809">
        <ele>133.7</ele>
        <time>2023-11-22T14:35:24Z</time>
      </trkpt>
      <trkpt lat="50.02313" lon="2.33808">
        <ele>133.7</ele>
        <time>2023-11-22T14:35:25Z</time>
      </trkpt>
      <trkpt lat="50.02313" lon="2.33806">
        <ele>133.7</ele>
        <time>2023-11-22T14:35:26Z</time>
      </trkpt>
      <trkpt lat="50.02312" lon="2.33803">
        <ele>133.7</ele>
        <time>2023-11-22T14:35:27Z</time>
      </trkpt>
      <trkpt lat="50.02312" lon="2.33801">
        <ele>133.7</ele>
        <time>2023-11-22T14:35:28Z</time>
      </trkpt>
      <trkpt lat="50.02312" lon="2.338">
        <ele>133.7</ele>
        <time>2023-11-22T14:35:29Z</time>
      </trkpt>
      <trkpt lat="50.02312" lon="2.33798">
        <ele>133.7</ele>
        <time>2023-11-22T14:35:30Z</time>
      </trkpt>
      <trkpt lat="50.02311" lon="2.33797">
        <ele>133.7</ele>
        <time>2023-11-22T14:35:31Z</time>
      </trkpt>
      <trkpt lat="50.02311" lon="2.33795">
        <ele>133.7</ele>
        <time>2023-11-22T14:35:32Z</time>
      </trkpt>
      <trkpt lat="50.02311" lon="2.33794">
        <ele>133.7</ele>
        <time>2023-11-22T14:35:33Z</time>
      </trkpt>
      <trkpt lat="50.02311" lon="2.33792">
        <ele>133.7</ele>
        <time>2023-11-22T14:35:34Z</time>
      </trkpt>
      <trkpt lat="50.0231" lon="2.3379">
        <ele>133.7</ele>
        <time>2023-11-22T14:35:35Z</time>
      </trkpt>
      <trkpt lat="50.0231" lon="2.33788">
        <ele>133.6</ele>
        <time>2023-11-22T14:35:36Z</time>
      </trkpt>
      <trkpt lat="50.0231" lon="2.33786">
        <ele>133.6</ele>
        <time>2023-11-22T14:35:37Z</time>
      </trkpt>
      <trkpt lat="50.0231" lon="2.33785">
        <ele>133.6</ele>
        <time>2023-11-22T14:35:38Z</time>
      </trkpt>
      <trkpt lat="50.02309" lon="2.33783">
        <ele>133.6</ele>
        <time>2023-11-22T14:35:39Z</time>
      </trkpt>
      <trkpt lat="50.02309" lon="2.33781">
        <ele>133.6</ele>
        <time>2023-11-22T14:35:40Z</time>
      </trkpt>
      <trkpt lat="50.02309" lon="2.3378">
        <ele>133.6</ele>
        <time>2023-11-22T14:35:41Z</time>
      </trkpt>
      <trkpt lat="50.02309" lon="2.33778">
        <ele>133.6</ele>
        <time>2023-11-22T14:35:42Z</time>
      </trkpt>
      <trkpt lat="50.02308" lon="2.33777">
        <ele>133.6</ele>
        <time>2023-11-22T14:35:43Z</time>
      </trkpt>
      <trkpt lat="50.02308" lon="2.33775">
        <ele>133.6</ele>
        <time>2023-11-22T14:35:44Z</time>
      </trkpt>
      <trkpt lat="50.02308" lon="2.33773">
        <ele>133.6</ele>
        <time>2023-11-22T14:35:45Z</time>
      </trkpt>
      <trkpt lat="50.02308" lon="2.33772">
        <ele>133.6</ele>
        <time>2023-11-22T14:35:46Z</time>
      </trkpt>
      <trkpt lat="50.02307" lon="2.3377">
        <ele>133.6</ele>
        <time>2023-11-22T14:35:47Z</time>
      </trkpt>
      <trkpt lat="50.02307" lon="2.33767">
        <ele>133.6</ele>
        <time>2023-11-22T14:35:48Z</time>
      </trkpt>
      <trkpt lat="50.02307" lon="2.33766">
        <ele>133.6</ele>
        <time>2023-11-22T14:35:49Z</time>
      </trkpt>
      <trkpt lat="50.02307" lon="2.33765">
        <ele>133.6</ele>
        <time>2023-11-22T14:35:50Z</time>
      </trkpt>
      <trkpt lat="50.02306" lon="2.33763">
        <ele>133.5</ele>
        <time>2023-11-22T14:35:51Z</time>
      </trkpt>
      <trkpt lat="50.02306" lon="2.33761">
        <ele>133.5</ele>
        <time>2023-11-22T14:35:52Z</time>
      </trkpt>
      <trkpt lat="50.02306" lon="2.33759">
        <ele>133.5</ele>
        <time>2023-11-22T14:35:53Z</time>
      </trkpt>
      <trkpt lat="50.02305" lon="2.33758">
        <ele>133.5</ele>
        <time>2023-11-22T14:35:54Z</time>
      </trkpt>
      <trkpt lat="50.02305" lon="2.33756">
        <ele>133.5</ele>
        <time>2023-11-22T14:35:55Z</time>
      </trkpt>
      <trkpt lat="50.02305" lon="2.33754">
        <ele>133.5</ele>
        <time>2023-11-22T14:35:56Z</time>
      </trkpt>
      <trkpt lat="50.02304" lon="2.33751">
        <ele>133.5</ele>
        <time>2023-11-22T14:35:57Z</time>
      </trkpt>
      <trkpt lat="50.02304" lon="2.3375">
        <ele>133.5</ele>
        <time>2023-11-22T14:35:58Z</time>
      </trkpt>
      <trkpt lat="50.02304" lon="2.33749">
        <ele>133.5</ele>
        <time>2023-11-22T14:35:59Z</time>
      </trkpt>
      <trkpt lat="50.02303" lon="2.33745">
        <ele>133.4</ele>
        <time>2023-11-22T14:36:00Z</time>
      </trkpt>
      <trkpt lat="50.02303" lon="2.33744">
        <ele>133.4</ele>
        <time>2023-11-22T14:36:01Z</time>
      </trkpt>
      <trkpt lat="50.02302" lon="2.33743">
        <ele>133.4</ele>
        <time>2023-11-22T14:36:02Z</time>
      </trkpt>
      <trkpt lat="50.02302" lon="2.33741">
        <ele>133.4</ele>
        <time>2023-11-22T14:36:03Z</time>
      </trkpt>
      <trkpt lat="50.02301" lon="2.33739">
        <ele>133.4</ele>
        <time>2023-11-22T14:36:04Z</time>
      </trkpt>
      <trkpt lat="50.02301" lon="2.33738">
        <ele>133.4</ele>
        <time>2023-11-22T14:36:05Z</time>
      </trkpt>
      <trkpt lat="50.02301" lon="2.33736">
        <ele>133.4</ele>
        <time>2023-11-22T14:36:06Z</time>
      </trkpt>
      <trkpt lat="50.023" lon="2.33734">
        <ele>133.3</ele>
        <time>2023-11-22T14:36:07Z</time>
      </trkpt>
      <trkpt lat="50.023" lon="2.33733">
        <ele>133.3</ele>
        <time>2023-11-22T14:36:08Z</time>
      </trkpt>
      <trkpt lat="50.023" lon="2.33731">
        <ele>133.3</ele>
        <time>2023-11-22T14:36:09Z</time>
      </trkpt>
      <trkpt lat="50.023" lon="2.33729">
        <ele>133.3</ele>
        <time>2023-11-22T14:36:10Z</time>
      </trkpt>
      <trkpt lat="50.02299" lon="2.33727">
        <ele>133.3</ele>
        <time>2023-11-22T14:36:11Z</time>
      </trkpt>
      <trkpt lat="50.02299" lon="2.33726">
        <ele>133.3</ele>
        <time>2023-11-22T14:36:12Z</time>
      </trkpt>
      <trkpt lat="50.02299" lon="2.33724">
        <ele>133.3</ele>
        <time>2023-11-22T14:36:13Z</time>
      </trkpt>
      <trkpt lat="50.02299" lon="2.33722">
        <ele>133.2</ele>
        <time>2023-11-22T14:36:14Z</time>
      </trkpt>
      <trkpt lat="50.02299" lon="2.3372">
        <ele>133.2</ele>
        <time>2023-11-22T14:36:15Z</time>
      </trkpt>
      <trkpt lat="50.02298" lon="2.33719">
        <ele>133.2</ele>
        <time>2023-11-22T14:36:16Z</time>
      </trkpt>
      <trkpt lat="50.02298" lon="2.33717">
        <ele>133.2</ele>
        <time>2023-11-22T14:36:17Z</time>
      </trkpt>
      <trkpt lat="50.02298" lon="2.33716">
        <ele>133.2</ele>
        <time>2023-11-22T14:36:18Z</time>
      </trkpt>
      <trkpt lat="50.02298" lon="2.33714">
        <ele>133.2</ele>
        <time>2023-11-22T14:36:19Z</time>
      </trkpt>
      <trkpt lat="50.02298" lon="2.33713">
        <ele>133.2</ele>
        <time>2023-11-22T14:36:20Z</time>
      </trkpt>
      <trkpt lat="50.02298" lon="2.33711">
        <ele>133.2</ele>
        <time>2023-11-22T14:36:21Z</time>
      </trkpt>
      <trkpt lat="50.02297" lon="2.3371">
        <ele>133.2</ele>
        <time>2023-11-22T14:36:22Z</time>
      </trkpt>
      <trkpt lat="50.02297" lon="2.33708">
        <ele>133.1</ele>
        <time>2023-11-22T14:36:23Z</time>
      </trkpt>
      <trkpt lat="50.02297" lon="2.33706">
        <ele>133.1</ele>
        <time>2023-11-22T14:36:24Z</time>
      </trkpt>
      <trkpt lat="50.02297" lon="2.33704">
        <ele>133.1</ele>
        <time>2023-11-22T14:36:25Z</time>
      </trkpt>
      <trkpt lat="50.02297" lon="2.33702">
        <ele>133.1</ele>
        <time>2023-11-22T14:36:26Z</time>
      </trkpt>
      <trkpt lat="50.02296" lon="2.33699">
        <ele>133.1</ele>
        <time>2023-11-22T14:36:27Z</time>
      </trkpt>
      <trkpt lat="50.02296" lon="2.33698">
        <ele>133.1</ele>
        <time>2023-11-22T14:36:28Z</time>
      </trkpt>
      <trkpt lat="50.02296" lon="2.33696">
        <ele>133.1</ele>
        <time>2023-11-22T14:36:29Z</time>
      </trkpt>
      <trkpt lat="50.02296" lon="2.33693">
        <ele>133</ele>
        <time>2023-11-22T14:36:30Z</time>
      </trkpt>
      <trkpt lat="50.02295" lon="2.33692">
        <ele>133</ele>
        <time>2023-11-22T14:36:31Z</time>
      </trkpt>
      <trkpt lat="50.02295" lon="2.3369">
        <ele>133</ele>
        <time>2023-11-22T14:36:32Z</time>
      </trkpt>
      <trkpt lat="50.02295" lon="2.33689">
        <ele>133</ele>
        <time>2023-11-22T14:36:33Z</time>
      </trkpt>
      <trkpt lat="50.02295" lon="2.33687">
        <ele>133</ele>
        <time>2023-11-22T14:36:34Z</time>
      </trkpt>
      <trkpt lat="50.02294" lon="2.33686">
        <ele>133</ele>
        <time>2023-11-22T14:36:35Z</time>
      </trkpt>
      <trkpt lat="50.02294" lon="2.33684">
        <ele>133</ele>
        <time>2023-11-22T14:36:36Z</time>
      </trkpt>
      <trkpt lat="50.02294" lon="2.33682">
        <ele>133</ele>
        <time>2023-11-22T14:36:37Z</time>
      </trkpt>
      <trkpt lat="50.02293" lon="2.3368">
        <ele>133</ele>
        <time>2023-11-22T14:36:38Z</time>
      </trkpt>
      <trkpt lat="50.02293" lon="2.33679">
        <ele>132.9</ele>
        <time>2023-11-22T14:36:39Z</time>
      </trkpt>
      <trkpt lat="50.02293" lon="2.33677">
        <ele>132.9</ele>
        <time>2023-11-22T14:36:40Z</time>
      </trkpt>
      <trkpt lat="50.02292" lon="2.33675">
        <ele>132.9</ele>
        <time>2023-11-22T14:36:41Z</time>
      </trkpt>
      <trkpt lat="50.02292" lon="2.33674">
        <ele>132.9</ele>
        <time>2023-11-22T14:36:42Z</time>
      </trkpt>
      <trkpt lat="50.02292" lon="2.33672">
        <ele>132.9</ele>
        <time>2023-11-22T14:36:43Z</time>
      </trkpt>
      <trkpt lat="50.02292" lon="2.3367">
        <ele>132.9</ele>
        <time>2023-11-22T14:36:44Z</time>
      </trkpt>
      <trkpt lat="50.02292" lon="2.33668">
        <ele>132.9</ele>
        <time>2023-11-22T14:36:45Z</time>
      </trkpt>
      <trkpt lat="50.02292" lon="2.33666">
        <ele>132.9</ele>
        <time>2023-11-22T14:36:46Z</time>
      </trkpt>
      <trkpt lat="50.02292" lon="2.33665">
        <ele>132.8</ele>
        <time>2023-11-22T14:36:47Z</time>
      </trkpt>
      <trkpt lat="50.02292" lon="2.33663">
        <ele>132.8</ele>
        <time>2023-11-22T14:36:48Z</time>
      </trkpt>
      <trkpt lat="50.02292" lon="2.33661">
        <ele>132.8</ele>
        <time>2023-11-22T14:36:49Z</time>
      </trkpt>
      <trkpt lat="50.02292" lon="2.3366">
        <ele>132.8</ele>
        <time>2023-11-22T14:36:50Z</time>
      </trkpt>
      <trkpt lat="50.02292" lon="2.33658">
        <ele>132.8</ele>
        <time>2023-11-22T14:36:51Z</time>
      </trkpt>
      <trkpt lat="50.02292" lon="2.33657">
        <ele>132.8</ele>
        <time>2023-11-22T14:36:52Z</time>
      </trkpt>
      <trkpt lat="50.02293" lon="2.33655">
        <ele>132.8</ele>
        <time>2023-11-22T14:36:53Z</time>
      </trkpt>
      <trkpt lat="50.02293" lon="2.33653">
        <ele>132.8</ele>
        <time>2023-11-22T14:36:54Z</time>
      </trkpt>
      <trkpt lat="50.02293" lon="2.33652">
        <ele>132.7</ele>
        <time>2023-11-22T14:36:55Z</time>
      </trkpt>
      <trkpt lat="50.02294" lon="2.3365">
        <ele>132.7</ele>
        <time>2023-11-22T14:36:56Z</time>
      </trkpt>
      <trkpt lat="50.02294" lon="2.33648">
        <ele>132.7</ele>
        <time>2023-11-22T14:36:57Z</time>
      </trkpt>
      <trkpt lat="50.02295" lon="2.33646">
        <ele>132.7</ele>
        <time>2023-11-22T14:36:58Z</time>
      </trkpt>
      <trkpt lat="50.02295" lon="2.33645">
        <ele>132.7</ele>
        <time>2023-11-22T14:36:59Z</time>
      </trkpt>
      <trkpt lat="50.02296" lon="2.33643">
        <ele>132.7</ele>
        <time>2023-11-22T14:37:00Z</time>
      </trkpt>
      <trkpt lat="50.02296" lon="2.33642">
        <ele>132.6</ele>
        <time>2023-11-22T14:37:01Z</time>
      </trkpt>
      <trkpt lat="50.02297" lon="2.3364">
        <ele>132.6</ele>
        <time>2023-11-22T14:37:02Z</time>
      </trkpt>
      <trkpt lat="50.02298" lon="2.33639">
        <ele>132.6</ele>
        <time>2023-11-22T14:37:03Z</time>
      </trkpt>
      <trkpt lat="50.02299" lon="2.33637">
        <ele>132.6</ele>
        <time>2023-11-22T14:37:04Z</time>
      </trkpt>
      <trkpt lat="50.02299" lon="2.33636">
        <ele>132.6</ele>
        <time>2023-11-22T14:37:05Z</time>
      </trkpt>
      <trkpt lat="50.023" lon="2.33635">
        <ele>132.5</ele>
        <time>2023-11-22T14:37:06Z</time>
      </trkpt>
      <trkpt lat="50.02301" lon="2.33633">
        <ele>132.5</ele>
        <time>2023-11-22T14:37:07Z</time>
      </trkpt>
      <trkpt lat="50.02301" lon="2.33632">
        <ele>132.5</ele>
        <time>2023-11-22T14:37:08Z</time>
      </trkpt>
      <trkpt lat="50.02303" lon="2.33629">
        <ele>132.5</ele>
        <time>2023-11-22T14:37:09Z</time>
      </trkpt>
      <trkpt lat="50.02303" lon="2.33629">
        <ele>132.5</ele>
        <time>2023-11-22T14:37:10Z</time>
      </trkpt>
      <trkpt lat="50.02304" lon="2.33628">
        <ele>132.4</ele>
        <time>2023-11-22T14:37:11Z</time>
      </trkpt>
      <trkpt lat="50.02305" lon="2.33625">
        <ele>132.4</ele>
        <time>2023-11-22T14:37:12Z</time>
      </trkpt>
      <trkpt lat="50.02306" lon="2.33624">
        <ele>132.4</ele>
        <time>2023-11-22T14:37:13Z</time>
      </trkpt>
      <trkpt lat="50.02306" lon="2.33623">
        <ele>132.4</ele>
        <time>2023-11-22T14:37:14Z</time>
      </trkpt>
      <trkpt lat="50.02307" lon="2.33622">
        <ele>132.4</ele>
        <time>2023-11-22T14:37:15Z</time>
      </trkpt>
      <trkpt lat="50.02308" lon="2.33621">
        <ele>132.3</ele>
        <time>2023-11-22T14:37:16Z</time>
      </trkpt>
      <trkpt lat="50.02309" lon="2.33619">
        <ele>132.3</ele>
        <time>2023-11-22T14:37:17Z</time>
      </trkpt>
      <trkpt lat="50.02309" lon="2.33618">
        <ele>132.3</ele>
        <time>2023-11-22T14:37:18Z</time>
      </trkpt>
      <trkpt lat="50.0231" lon="2.33617">
        <ele>132.3</ele>
        <time>2023-11-22T14:37:19Z</time>
      </trkpt>
      <trkpt lat="50.0231" lon="2.33616">
        <ele>132.3</ele>
        <time>2023-11-22T14:37:20Z</time>
      </trkpt>
      <trkpt lat="50.02311" lon="2.33614">
        <ele>132.2</ele>
        <time>2023-11-22T14:37:21Z</time>
      </trkpt>
      <trkpt lat="50.02312" lon="2.33613">
        <ele>132.2</ele>
        <time>2023-11-22T14:37:22Z</time>
      </trkpt>
      <trkpt lat="50.02312" lon="2.33612">
        <ele>132.2</ele>
        <time>2023-11-22T14:37:23Z</time>
      </trkpt>
      <trkpt lat="50.02313" lon="2.3361">
        <ele>132.2</ele>
        <time>2023-11-22T14:37:24Z</time>
      </trkpt>
      <trkpt lat="50.02313" lon="2.33609">
        <ele>132.1</ele>
        <time>2023-11-22T14:37:25Z</time>
      </trkpt>
      <trkpt lat="50.02314" lon="2.33607">
        <ele>132.1</ele>
        <time>2023-11-22T14:37:26Z</time>
      </trkpt>
      <trkpt lat="50.02315" lon="2.33606">
        <ele>132.1</ele>
        <time>2023-11-22T14:37:27Z</time>
      </trkpt>
      <trkpt lat="50.02315" lon="2.33604">
        <ele>132.1</ele>
        <time>2023-11-22T14:37:28Z</time>
      </trkpt>
      <trkpt lat="50.02316" lon="2.33603">
        <ele>132.1</ele>
        <time>2023-11-22T14:37:29Z</time>
      </trkpt>
      <trkpt lat="50.02317" lon="2.33601">
        <ele>132</ele>
        <time>2023-11-22T14:37:30Z</time>
      </trkpt>
      <trkpt lat="50.02317" lon="2.336">
        <ele>132</ele>
        <time>2023-11-22T14:37:31Z</time>
      </trkpt>
      <trkpt lat="50.02318" lon="2.33598">
        <ele>132</ele>
        <time>2023-11-22T14:37:32Z</time>
      </trkpt>
      <trkpt lat="50.02319" lon="2.33597">
        <ele>132</ele>
        <time>2023-11-22T14:37:33Z</time>
      </trkpt>
      <trkpt lat="50.02319" lon="2.33595">
        <ele>132</ele>
        <time>2023-11-22T14:37:34Z</time>
      </trkpt>
      <trkpt lat="50.0232" lon="2.33594">
        <ele>131.9</ele>
        <time>2023-11-22T14:37:35Z</time>
      </trkpt>
      <trkpt lat="50.02321" lon="2.33591">
        <ele>131.9</ele>
        <time>2023-11-22T14:37:36Z</time>
      </trkpt>
      <trkpt lat="50.02321" lon="2.3359">
        <ele>131.9</ele>
        <time>2023-11-22T14:37:37Z</time>
      </trkpt>
      <trkpt lat="50.02322" lon="2.33589">
        <ele>131.9</ele>
        <time>2023-11-22T14:37:38Z</time>
      </trkpt>
      <trkpt lat="50.02322" lon="2.33587">
        <ele>131.9</ele>
        <time>2023-11-22T14:37:39Z</time>
      </trkpt>
      <trkpt lat="50.02323" lon="2.33585">
        <ele>131.9</ele>
        <time>2023-11-22T14:37:40Z</time>
      </trkpt>
      <trkpt lat="50.02323" lon="2.33584">
        <ele>131.8</ele>
        <time>2023-11-22T14:37:41Z</time>
      </trkpt>
      <trkpt lat="50.02323" lon="2.33582">
        <ele>131.8</ele>
        <time>2023-11-22T14:37:42Z</time>
      </trkpt>
      <trkpt lat="50.02324" lon="2.33581">
        <ele>131.8</ele>
        <time>2023-11-22T14:37:43Z</time>
      </trkpt>
      <trkpt lat="50.02324" lon="2.33579">
        <ele>131.8</ele>
        <time>2023-11-22T14:37:44Z</time>
      </trkpt>
      <trkpt lat="50.02324" lon="2.33578">
        <ele>131.8</ele>
        <time>2023-11-22T14:37:45Z</time>
      </trkpt>
      <trkpt lat="50.02324" lon="2.33577">
        <ele>131.8</ele>
        <time>2023-11-22T14:37:46Z</time>
      </trkpt>
      <trkpt lat="50.02324" lon="2.33575">
        <ele>131.7</ele>
        <time>2023-11-22T14:37:47Z</time>
      </trkpt>
      <trkpt lat="50.02323" lon="2.33574">
        <ele>131.7</ele>
        <time>2023-11-22T14:37:48Z</time>
      </trkpt>
      <trkpt lat="50.02323" lon="2.33573">
        <ele>131.7</ele>
        <time>2023-11-22T14:37:49Z</time>
      </trkpt>
      <trkpt lat="50.02322" lon="2.33571">
        <ele>131.7</ele>
        <time>2023-11-22T14:37:50Z</time>
      </trkpt>
      <trkpt lat="50.02322" lon="2.3357">
        <ele>131.7</ele>
        <time>2023-11-22T14:37:51Z</time>
      </trkpt>
      <trkpt lat="50.02321" lon="2.33569">
        <ele>131.7</ele>
        <time>2023-11-22T14:37:52Z</time>
      </trkpt>
      <trkpt lat="50.0232" lon="2.33569">
        <ele>131.7</ele>
        <time>2023-11-22T14:37:53Z</time>
      </trkpt>
      <trkpt lat="50.0232" lon="2.33568">
        <ele>131.6</ele>
        <time>2023-11-22T14:37:54Z</time>
      </trkpt>
      <trkpt lat="50.02319" lon="2.33567">
        <ele>131.6</ele>
        <time>2023-11-22T14:37:55Z</time>
      </trkpt>
      <trkpt lat="50.02318" lon="2.33566">
        <ele>131.6</ele>
        <time>2023-11-22T14:37:56Z</time>
      </trkpt>
      <trkpt lat="50.02318" lon="2.33565">
        <ele>131.6</ele>
        <time>2023-11-22T14:37:57Z</time>
      </trkpt>
      <trkpt lat="50.02317" lon="2.33564">
        <ele>131.6</ele>
        <time>2023-11-22T14:37:58Z</time>
      </trkpt>
      <trkpt lat="50.02316" lon="2.33563">
        <ele>131.6</ele>
        <time>2023-11-22T14:37:59Z</time>
      </trkpt>
      <trkpt lat="50.02315" lon="2.33562">
        <ele>131.6</ele>
        <time>2023-11-22T14:38:00Z</time>
      </trkpt>
      <trkpt lat="50.02314" lon="2.33561">
        <ele>131.6</ele>
        <time>2023-11-22T14:38:01Z</time>
      </trkpt>
      <trkpt lat="50.02314" lon="2.3356">
        <ele>131.6</ele>
        <time>2023-11-22T14:38:02Z</time>
      </trkpt>
      <trkpt lat="50.02313" lon="2.33559">
        <ele>131.6</ele>
        <time>2023-11-22T14:38:03Z</time>
      </trkpt>
      <trkpt lat="50.02312" lon="2.33558">
        <ele>131.6</ele>
        <time>2023-11-22T14:38:04Z</time>
      </trkpt>
      <trkpt lat="50.02311" lon="2.33557">
        <ele>131.6</ele>
        <time>2023-11-22T14:38:05Z</time>
      </trkpt>
      <trkpt lat="50.0231" lon="2.33556">
        <ele>131.6</ele>
        <time>2023-11-22T14:38:06Z</time>
      </trkpt>
      <trkpt lat="50.0231" lon="2.33555">
        <ele>131.6</ele>
        <time>2023-11-22T14:38:07Z</time>
      </trkpt>
      <trkpt lat="50.02309" lon="2.33554">
        <ele>131.6</ele>
        <time>2023-11-22T14:38:08Z</time>
      </trkpt>
      <trkpt lat="50.02308" lon="2.33553">
        <ele>131.5</ele>
        <time>2023-11-22T14:38:09Z</time>
      </trkpt>
      <trkpt lat="50.02307" lon="2.33552">
        <ele>131.5</ele>
        <time>2023-11-22T14:38:10Z</time>
      </trkpt>
      <trkpt lat="50.02307" lon="2.33551">
        <ele>131.5</ele>
        <time>2023-11-22T14:38:11Z</time>
      </trkpt>
      <trkpt lat="50.02306" lon="2.3355">
        <ele>131.5</ele>
        <time>2023-11-22T14:38:12Z</time>
      </trkpt>
      <trkpt lat="50.02304" lon="2.33547">
        <ele>131.5</ele>
        <time>2023-11-22T14:38:13Z</time>
      </trkpt>
      <trkpt lat="50.02304" lon="2.33546">
        <ele>131.5</ele>
        <time>2023-11-22T14:38:14Z</time>
      </trkpt>
      <trkpt lat="50.02303" lon="2.33546">
        <ele>131.5</ele>
        <time>2023-11-22T14:38:15Z</time>
      </trkpt>
      <trkpt lat="50.02302" lon="2.33543">
        <ele>131.5</ele>
        <time>2023-11-22T14:38:16Z</time>
      </trkpt>
      <trkpt lat="50.02301" lon="2.33542">
        <ele>131.5</ele>
        <time>2023-11-22T14:38:17Z</time>
      </trkpt>
      <trkpt lat="50.023" lon="2.33541">
        <ele>131.5</ele>
        <time>2023-11-22T14:38:18Z</time>
      </trkpt>
      <trkpt lat="50.023" lon="2.3354">
        <ele>131.5</ele>
        <time>2023-11-22T14:38:19Z</time>
      </trkpt>
      <trkpt lat="50.02299" lon="2.33539">
        <ele>131.5</ele>
        <time>2023-11-22T14:38:20Z</time>
      </trkpt>
      <trkpt lat="50.02298" lon="2.33538">
        <ele>131.5</ele>
        <time>2023-11-22T14:38:21Z</time>
      </trkpt>
      <trkpt lat="50.02297" lon="2.33536">
        <ele>131.5</ele>
        <time>2023-11-22T14:38:22Z</time>
      </trkpt>
      <trkpt lat="50.02296" lon="2.33535">
        <ele>131.5</ele>
        <time>2023-11-22T14:38:23Z</time>
      </trkpt>
      <trkpt lat="50.02295" lon="2.33534">
        <ele>131.5</ele>
        <time>2023-11-22T14:38:24Z</time>
      </trkpt>
      <trkpt lat="50.02294" lon="2.33531">
        <ele>131.5</ele>
        <time>2023-11-22T14:38:25Z</time>
      </trkpt>
      <trkpt lat="50.02293" lon="2.33531">
        <ele>131.6</ele>
        <time>2023-11-22T14:38:26Z</time>
      </trkpt>
      <trkpt lat="50.02293" lon="2.3353">
        <ele>131.6</ele>
        <time>2023-11-22T14:38:27Z</time>
      </trkpt>
      <trkpt lat="50.02291" lon="2.33527">
        <ele>131.6</ele>
        <time>2023-11-22T14:38:28Z</time>
      </trkpt>
      <trkpt lat="50.02291" lon="2.33527">
        <ele>131.6</ele>
        <time>2023-11-22T14:38:29Z</time>
      </trkpt>
      <trkpt lat="50.0229" lon="2.33526">
        <ele>131.6</ele>
        <time>2023-11-22T14:38:30Z</time>
      </trkpt>
      <trkpt lat="50.02289" lon="2.33524">
        <ele>131.6</ele>
        <time>2023-11-22T14:38:31Z</time>
      </trkpt>
      <trkpt lat="50.02288" lon="2.33523">
        <ele>131.6</ele>
        <time>2023-11-22T14:38:32Z</time>
      </trkpt>
      <trkpt lat="50.02288" lon="2.33522">
        <ele>131.6</ele>
        <time>2023-11-22T14:38:33Z</time>
      </trkpt>
      <trkpt lat="50.02287" lon="2.33521">
        <ele>131.6</ele>
        <time>2023-11-22T14:38:34Z</time>
      </trkpt>
      <trkpt lat="50.02286" lon="2.3352">
        <ele>131.6</ele>
        <time>2023-11-22T14:38:35Z</time>
      </trkpt>
      <trkpt lat="50.02286" lon="2.33519">
        <ele>131.6</ele>
        <time>2023-11-22T14:38:36Z</time>
      </trkpt>
      <trkpt lat="50.02285" lon="2.33518">
        <ele>131.6</ele>
        <time>2023-11-22T14:38:37Z</time>
      </trkpt>
      <trkpt lat="50.02284" lon="2.33517">
        <ele>131.6</ele>
        <time>2023-11-22T14:38:38Z</time>
      </trkpt>
      <trkpt lat="50.02283" lon="2.33515">
        <ele>131.6</ele>
        <time>2023-11-22T14:38:39Z</time>
      </trkpt>
      <trkpt lat="50.02282" lon="2.33514">
        <ele>131.6</ele>
        <time>2023-11-22T14:38:40Z</time>
      </trkpt>
      <trkpt lat="50.02282" lon="2.33513">
        <ele>131.5</ele>
        <time>2023-11-22T14:38:41Z</time>
      </trkpt>
      <trkpt lat="50.02281" lon="2.33511">
        <ele>131.5</ele>
        <time>2023-11-22T14:38:42Z</time>
      </trkpt>
      <trkpt lat="50.0228" lon="2.3351">
        <ele>131.5</ele>
        <time>2023-11-22T14:38:43Z</time>
      </trkpt>
      <trkpt lat="50.02279" lon="2.33509">
        <ele>131.5</ele>
        <time>2023-11-22T14:38:44Z</time>
      </trkpt>
      <trkpt lat="50.02279" lon="2.33507">
        <ele>131.5</ele>
        <time>2023-11-22T14:38:45Z</time>
      </trkpt>
      <trkpt lat="50.02278" lon="2.33506">
        <ele>131.5</ele>
        <time>2023-11-22T14:38:46Z</time>
      </trkpt>
      <trkpt lat="50.02277" lon="2.33505">
        <ele>131.5</ele>
        <time>2023-11-22T14:38:47Z</time>
      </trkpt>
      <trkpt lat="50.02277" lon="2.33504">
        <ele>131.5</ele>
        <time>2023-11-22T14:38:48Z</time>
      </trkpt>
      <trkpt lat="50.02276" lon="2.33503">
        <ele>131.5</ele>
        <time>2023-11-22T14:38:49Z</time>
      </trkpt>
      <trkpt lat="50.02275" lon="2.33501">
        <ele>131.5</ele>
        <time>2023-11-22T14:38:50Z</time>
      </trkpt>
      <trkpt lat="50.02274" lon="2.335">
        <ele>131.4</ele>
        <time>2023-11-22T14:38:51Z</time>
      </trkpt>
      <trkpt lat="50.02273" lon="2.33498">
        <ele>131.4</ele>
        <time>2023-11-22T14:38:52Z</time>
      </trkpt>
      <trkpt lat="50.02272" lon="2.33497">
        <ele>131.4</ele>
        <time>2023-11-22T14:38:53Z</time>
      </trkpt>
      <trkpt lat="50.02272" lon="2.33496">
        <ele>131.4</ele>
        <time>2023-11-22T14:38:54Z</time>
      </trkpt>
      <trkpt lat="50.0227" lon="2.33494">
        <ele>131.4</ele>
        <time>2023-11-22T14:38:55Z</time>
      </trkpt>
      <trkpt lat="50.02269" lon="2.33493">
        <ele>131.4</ele>
        <time>2023-11-22T14:38:56Z</time>
      </trkpt>
      <trkpt lat="50.02269" lon="2.33492">
        <ele>131.4</ele>
        <time>2023-11-22T14:38:57Z</time>
      </trkpt>
      <trkpt lat="50.02268" lon="2.33491">
        <ele>131.3</ele>
        <time>2023-11-22T14:38:58Z</time>
      </trkpt>
      <trkpt lat="50.02267" lon="2.3349">
        <ele>131.3</ele>
        <time>2023-11-22T14:38:59Z</time>
      </trkpt>
      <trkpt lat="50.02266" lon="2.33488">
        <ele>131.3</ele>
        <time>2023-11-22T14:39:00Z</time>
      </trkpt>
      <trkpt lat="50.02265" lon="2.33486">
        <ele>131.3</ele>
        <time>2023-11-22T14:39:01Z</time>
      </trkpt>
      <trkpt lat="50.02264" lon="2.33485">
        <ele>131.3</ele>
        <time>2023-11-22T14:39:02Z</time>
      </trkpt>
      <trkpt lat="50.02264" lon="2.33484">
        <ele>131.3</ele>
        <time>2023-11-22T14:39:03Z</time>
      </trkpt>
      <trkpt lat="50.02262" lon="2.33482">
        <ele>131.3</ele>
        <time>2023-11-22T14:39:04Z</time>
      </trkpt>
      <trkpt lat="50.02261" lon="2.33481">
        <ele>131.3</ele>
        <time>2023-11-22T14:39:05Z</time>
      </trkpt>
      <trkpt lat="50.02261" lon="2.3348">
        <ele>131.3</ele>
        <time>2023-11-22T14:39:06Z</time>
      </trkpt>
      <trkpt lat="50.02259" lon="2.33478">
        <ele>131.3</ele>
        <time>2023-11-22T14:39:07Z</time>
      </trkpt>
      <trkpt lat="50.02259" lon="2.33477">
        <ele>131.3</ele>
        <time>2023-11-22T14:39:08Z</time>
      </trkpt>
      <trkpt lat="50.02258" lon="2.33476">
        <ele>131.3</ele>
        <time>2023-11-22T14:39:09Z</time>
      </trkpt>
      <trkpt lat="50.02257" lon="2.33475">
        <ele>131.3</ele>
        <time>2023-11-22T14:39:10Z</time>
      </trkpt>
      <trkpt lat="50.02256" lon="2.33474">
        <ele>131.3</ele>
        <time>2023-11-22T14:39:11Z</time>
      </trkpt>
      <trkpt lat="50.02256" lon="2.33473">
        <ele>131.3</ele>
        <time>2023-11-22T14:39:12Z</time>
      </trkpt>
      <trkpt lat="50.02255" lon="2.33472">
        <ele>131.3</ele>
        <time>2023-11-22T14:39:13Z</time>
      </trkpt>
      <trkpt lat="50.02254" lon="2.33471">
        <ele>131.3</ele>
        <time>2023-11-22T14:39:14Z</time>
      </trkpt>
      <trkpt lat="50.02253" lon="2.3347">
        <ele>131.3</ele>
        <time>2023-11-22T14:39:15Z</time>
      </trkpt>
      <trkpt lat="50.02252" lon="2.33468">
        <ele>131.3</ele>
        <time>2023-11-22T14:39:16Z</time>
      </trkpt>
      <trkpt lat="50.02251" lon="2.33467">
        <ele>131.3</ele>
        <time>2023-11-22T14:39:17Z</time>
      </trkpt>
      <trkpt lat="50.0225" lon="2.33466">
        <ele>131.3</ele>
        <time>2023-11-22T14:39:18Z</time>
      </trkpt>
      <trkpt lat="50.02249" lon="2.33464">
        <ele>131.3</ele>
        <time>2023-11-22T14:39:19Z</time>
      </trkpt>
      <trkpt lat="50.02248" lon="2.33463">
        <ele>131.3</ele>
        <time>2023-11-22T14:39:20Z</time>
      </trkpt>
      <trkpt lat="50.02248" lon="2.33462">
        <ele>131.3</ele>
        <time>2023-11-22T14:39:21Z</time>
      </trkpt>
      <trkpt lat="50.02247" lon="2.33461">
        <ele>131.3</ele>
        <time>2023-11-22T14:39:22Z</time>
      </trkpt>
      <trkpt lat="50.02246" lon="2.3346">
        <ele>131.3</ele>
        <time>2023-11-22T14:39:23Z</time>
      </trkpt>
      <trkpt lat="50.02245" lon="2.33459">
        <ele>131.3</ele>
        <time>2023-11-22T14:39:24Z</time>
      </trkpt>
      <trkpt lat="50.02244" lon="2.33458">
        <ele>131.3</ele>
        <time>2023-11-22T14:39:25Z</time>
      </trkpt>
      <trkpt lat="50.02243" lon="2.33457">
        <ele>131.3</ele>
        <time>2023-11-22T14:39:26Z</time>
      </trkpt>
      <trkpt lat="50.02242" lon="2.33456">
        <ele>131.3</ele>
        <time>2023-11-22T14:39:27Z</time>
      </trkpt>
      <trkpt lat="50.02241" lon="2.33455">
        <ele>131.3</ele>
        <time>2023-11-22T14:39:28Z</time>
      </trkpt>
      <trkpt lat="50.0224" lon="2.33454">
        <ele>131.3</ele>
        <time>2023-11-22T14:39:29Z</time>
      </trkpt>
      <trkpt lat="50.02239" lon="2.33454">
        <ele>131.3</ele>
        <time>2023-11-22T14:39:30Z</time>
      </trkpt>
      <trkpt lat="50.02238" lon="2.33454">
        <ele>131.4</ele>
        <time>2023-11-22T14:39:31Z</time>
      </trkpt>
      <trkpt lat="50.02237" lon="2.33453">
        <ele>131.4</ele>
        <time>2023-11-22T14:39:32Z</time>
      </trkpt>
      <trkpt lat="50.02236" lon="2.33453">
        <ele>131.4</ele>
        <time>2023-11-22T14:39:33Z</time>
      </trkpt>
      <trkpt lat="50.02236" lon="2.33452">
        <ele>131.4</ele>
        <time>2023-11-22T14:39:34Z</time>
      </trkpt>
      <trkpt lat="50.02235" lon="2.33451">
        <ele>131.4</ele>
        <time>2023-11-22T14:39:35Z</time>
      </trkpt>
      <trkpt lat="50.02234" lon="2.3345">
        <ele>131.4</ele>
        <time>2023-11-22T14:39:36Z</time>
      </trkpt>
      <trkpt lat="50.02233" lon="2.33449">
        <ele>131.4</ele>
        <time>2023-11-22T14:39:37Z</time>
      </trkpt>
      <trkpt lat="50.02233" lon="2.33449">
        <ele>131.4</ele>
        <time>2023-11-22T14:39:38Z</time>
      </trkpt>
      <trkpt lat="50.02232" lon="2.33448">
        <ele>131.4</ele>
        <time>2023-11-22T14:39:39Z</time>
      </trkpt>
      <trkpt lat="50.02232" lon="2.33447">
        <ele>131.4</ele>
        <time>2023-11-22T14:39:40Z</time>
      </trkpt>
      <trkpt lat="50.02231" lon="2.33446">
        <ele>131.4</ele>
        <time>2023-11-22T14:39:41Z</time>
      </trkpt>
      <trkpt lat="50.02231" lon="2.33445">
        <ele>131.4</ele>
        <time>2023-11-22T14:39:42Z</time>
      </trkpt>
      <trkpt lat="50.0223" lon="2.33444">
        <ele>131.4</ele>
        <time>2023-11-22T14:39:43Z</time>
      </trkpt>
      <trkpt lat="50.0223" lon="2.33443">
        <ele>131.4</ele>
        <time>2023-11-22T14:39:44Z</time>
      </trkpt>
      <trkpt lat="50.02229" lon="2.33442">
        <ele>131.4</ele>
        <time>2023-11-22T14:39:45Z</time>
      </trkpt>
      <trkpt lat="50.02228" lon="2.3344">
        <ele>131.4</ele>
        <time>2023-11-22T14:39:46Z</time>
      </trkpt>
      <trkpt lat="50.02228" lon="2.33439">
        <ele>131.4</ele>
        <time>2023-11-22T14:39:47Z</time>
      </trkpt>
      <trkpt lat="50.02227" lon="2.33438">
        <ele>131.4</ele>
        <time>2023-11-22T14:39:48Z</time>
      </trkpt>
      <trkpt lat="50.02226" lon="2.33437">
        <ele>131.4</ele>
        <time>2023-11-22T14:39:49Z</time>
      </trkpt>
      <trkpt lat="50.02226" lon="2.33436">
        <ele>131.4</ele>
        <time>2023-11-22T14:39:50Z</time>
      </trkpt>
      <trkpt lat="50.02225" lon="2.33435">
        <ele>131.4</ele>
        <time>2023-11-22T14:39:51Z</time>
      </trkpt>
      <trkpt lat="50.02224" lon="2.33434">
        <ele>131.4</ele>
        <time>2023-11-22T14:39:52Z</time>
      </trkpt>
      <trkpt lat="50.02223" lon="2.33433">
        <ele>131.3</ele>
        <time>2023-11-22T14:39:53Z</time>
      </trkpt>
      <trkpt lat="50.02222" lon="2.33431">
        <ele>131.3</ele>
        <time>2023-11-22T14:39:54Z</time>
      </trkpt>
      <trkpt lat="50.02221" lon="2.3343">
        <ele>131.3</ele>
        <time>2023-11-22T14:39:55Z</time>
      </trkpt>
      <trkpt lat="50.0222" lon="2.33429">
        <ele>131.3</ele>
        <time>2023-11-22T14:39:56Z</time>
      </trkpt>
      <trkpt lat="50.02219" lon="2.33426">
        <ele>131.3</ele>
        <time>2023-11-22T14:39:57Z</time>
      </trkpt>
      <trkpt lat="50.02218" lon="2.33425">
        <ele>131.3</ele>
        <time>2023-11-22T14:39:58Z</time>
      </trkpt>
      <trkpt lat="50.02218" lon="2.33424">
        <ele>131.3</ele>
        <time>2023-11-22T14:39:59Z</time>
      </trkpt>
      <trkpt lat="50.02217" lon="2.33423">
        <ele>131.3</ele>
        <time>2023-11-22T14:40:00Z</time>
      </trkpt>
      <trkpt lat="50.02216" lon="2.33421">
        <ele>131.3</ele>
        <time>2023-11-22T14:40:01Z</time>
      </trkpt>
      <trkpt lat="50.02216" lon="2.3342">
        <ele>131.3</ele>
        <time>2023-11-22T14:40:02Z</time>
      </trkpt>
      <trkpt lat="50.02215" lon="2.33419">
        <ele>131.3</ele>
        <time>2023-11-22T14:40:03Z</time>
      </trkpt>
      <trkpt lat="50.02214" lon="2.33417">
        <ele>131.3</ele>
        <time>2023-11-22T14:40:04Z</time>
      </trkpt>
      <trkpt lat="50.02214" lon="2.33416">
        <ele>131.3</ele>
        <time>2023-11-22T14:40:05Z</time>
      </trkpt>
      <trkpt lat="50.02213" lon="2.33415">
        <ele>131.3</ele>
        <time>2023-11-22T14:40:06Z</time>
      </trkpt>
      <trkpt lat="50.02212" lon="2.33413">
        <ele>131.3</ele>
        <time>2023-11-22T14:40:07Z</time>
      </trkpt>
      <trkpt lat="50.02211" lon="2.33412">
        <ele>131.3</ele>
        <time>2023-11-22T14:40:08Z</time>
      </trkpt>
      <trkpt lat="50.02211" lon="2.3341">
        <ele>131.3</ele>
        <time>2023-11-22T14:40:09Z</time>
      </trkpt>
      <trkpt lat="50.0221" lon="2.33409">
        <ele>131.3</ele>
        <time>2023-11-22T14:40:10Z</time>
      </trkpt>
      <trkpt lat="50.02209" lon="2.33408">
        <ele>131.3</ele>
        <time>2023-11-22T14:40:11Z</time>
      </trkpt>
      <trkpt lat="50.02208" lon="2.33406">
        <ele>131.3</ele>
        <time>2023-11-22T14:40:12Z</time>
      </trkpt>
      <trkpt lat="50.02207" lon="2.33405">
        <ele>131.3</ele>
        <time>2023-11-22T14:40:13Z</time>
      </trkpt>
      <trkpt lat="50.02207" lon="2.33403">
        <ele>131.3</ele>
        <time>2023-11-22T14:40:14Z</time>
      </trkpt>
      <trkpt lat="50.02206" lon="2.33402">
        <ele>131.3</ele>
        <time>2023-11-22T14:40:15Z</time>
      </trkpt>
      <trkpt lat="50.02205" lon="2.33401">
        <ele>131.3</ele>
        <time>2023-11-22T14:40:16Z</time>
      </trkpt>
      <trkpt lat="50.02205" lon="2.334">
        <ele>131.3</ele>
        <time>2023-11-22T14:40:17Z</time>
      </trkpt>
      <trkpt lat="50.02204" lon="2.33399">
        <ele>131.3</ele>
        <time>2023-11-22T14:40:18Z</time>
      </trkpt>
      <trkpt lat="50.02203" lon="2.33397">
        <ele>131.3</ele>
        <time>2023-11-22T14:40:19Z</time>
      </trkpt>
      <trkpt lat="50.02202" lon="2.33396">
        <ele>131.3</ele>
        <time>2023-11-22T14:40:20Z</time>
      </trkpt>
      <trkpt lat="50.02201" lon="2.33395">
        <ele>131.3</ele>
        <time>2023-11-22T14:40:21Z</time>
      </trkpt>
      <trkpt lat="50.022" lon="2.33394">
        <ele>131.3</ele>
        <time>2023-11-22T14:40:22Z</time>
      </trkpt>
      <trkpt lat="50.022" lon="2.33392">
        <ele>131.3</ele>
        <time>2023-11-22T14:40:23Z</time>
      </trkpt>
      <trkpt lat="50.02199" lon="2.33391">
        <ele>131.3</ele>
        <time>2023-11-22T14:40:24Z</time>
      </trkpt>
      <trkpt lat="50.02198" lon="2.3339">
        <ele>131.3</ele>
        <time>2023-11-22T14:40:25Z</time>
      </trkpt>
      <trkpt lat="50.02197" lon="2.33389">
        <ele>131.3</ele>
        <time>2023-11-22T14:40:26Z</time>
      </trkpt>
      <trkpt lat="50.02197" lon="2.33388">
        <ele>131.3</ele>
        <time>2023-11-22T14:40:27Z</time>
      </trkpt>
      <trkpt lat="50.02196" lon="2.33386">
        <ele>131.3</ele>
        <time>2023-11-22T14:40:28Z</time>
      </trkpt>
      <trkpt lat="50.02195" lon="2.33385">
        <ele>131.3</ele>
        <time>2023-11-22T14:40:29Z</time>
      </trkpt>
      <trkpt lat="50.02195" lon="2.33384">
        <ele>131.3</ele>
        <time>2023-11-22T14:40:30Z</time>
      </trkpt>
      <trkpt lat="50.02194" lon="2.33383">
        <ele>131.3</ele>
        <time>2023-11-22T14:40:31Z</time>
      </trkpt>
      <trkpt lat="50.02193" lon="2.33381">
        <ele>131.3</ele>
        <time>2023-11-22T14:40:32Z</time>
      </trkpt>
      <trkpt lat="50.02192" lon="2.3338">
        <ele>131.3</ele>
        <time>2023-11-22T14:40:33Z</time>
      </trkpt>
      <trkpt lat="50.02192" lon="2.33379">
        <ele>131.3</ele>
        <time>2023-11-22T14:40:34Z</time>
      </trkpt>
      <trkpt lat="50.02191" lon="2.33377">
        <ele>131.3</ele>
        <time>2023-11-22T14:40:35Z</time>
      </trkpt>
      <trkpt lat="50.02189" lon="2.33375">
        <ele>131.3</ele>
        <time>2023-11-22T14:40:36Z</time>
      </trkpt>
      <trkpt lat="50.02188" lon="2.33375">
        <ele>131.3</ele>
        <time>2023-11-22T14:40:37Z</time>
      </trkpt>
      <trkpt lat="50.02188" lon="2.33374">
        <ele>131.3</ele>
        <time>2023-11-22T14:40:38Z</time>
      </trkpt>
      <trkpt lat="50.02187" lon="2.33373">
        <ele>131.3</ele>
        <time>2023-11-22T14:40:39Z</time>
      </trkpt>
      <trkpt lat="50.02186" lon="2.33372">
        <ele>131.3</ele>
        <time>2023-11-22T14:40:40Z</time>
      </trkpt>
      <trkpt lat="50.02186" lon="2.3337">
        <ele>131.3</ele>
        <time>2023-11-22T14:40:41Z</time>
      </trkpt>
      <trkpt lat="50.02185" lon="2.33369">
        <ele>131.3</ele>
        <time>2023-11-22T14:40:42Z</time>
      </trkpt>
      <trkpt lat="50.02184" lon="2.33368">
        <ele>131.3</ele>
        <time>2023-11-22T14:40:43Z</time>
      </trkpt>
      <trkpt lat="50.02183" lon="2.33367">
        <ele>131.3</ele>
        <time>2023-11-22T14:40:44Z</time>
      </trkpt>
      <trkpt lat="50.02181" lon="2.33365">
        <ele>131.3</ele>
        <time>2023-11-22T14:40:45Z</time>
      </trkpt>
      <trkpt lat="50.02181" lon="2.33364">
        <ele>131.3</ele>
        <time>2023-11-22T14:40:46Z</time>
      </trkpt>
      <trkpt lat="50.0218" lon="2.33363">
        <ele>131.3</ele>
        <time>2023-11-22T14:40:47Z</time>
      </trkpt>
      <trkpt lat="50.02179" lon="2.33362">
        <ele>131.3</ele>
        <time>2023-11-22T14:40:48Z</time>
      </trkpt>
      <trkpt lat="50.02178" lon="2.33361">
        <ele>131.3</ele>
        <time>2023-11-22T14:40:49Z</time>
      </trkpt>
      <trkpt lat="50.02177" lon="2.3336">
        <ele>131.3</ele>
        <time>2023-11-22T14:40:50Z</time>
      </trkpt>
      <trkpt lat="50.02177" lon="2.33359">
        <ele>131.3</ele>
        <time>2023-11-22T14:40:51Z</time>
      </trkpt>
      <trkpt lat="50.02176" lon="2.33358">
        <ele>131.3</ele>
        <time>2023-11-22T14:40:52Z</time>
      </trkpt>
      <trkpt lat="50.02175" lon="2.33357">
        <ele>131.3</ele>
        <time>2023-11-22T14:40:53Z</time>
      </trkpt>
      <trkpt lat="50.02174" lon="2.33356">
        <ele>131.3</ele>
        <time>2023-11-22T14:40:54Z</time>
      </trkpt>
      <trkpt lat="50.02173" lon="2.33355">
        <ele>131.3</ele>
        <time>2023-11-22T14:40:55Z</time>
      </trkpt>
      <trkpt lat="50.02172" lon="2.33354">
        <ele>131.3</ele>
        <time>2023-11-22T14:40:56Z</time>
      </trkpt>
      <trkpt lat="50.02171" lon="2.33353">
        <ele>131.3</ele>
        <time>2023-11-22T14:40:57Z</time>
      </trkpt>
      <trkpt lat="50.0217" lon="2.33352">
        <ele>131.3</ele>
        <time>2023-11-22T14:40:58Z</time>
      </trkpt>
      <trkpt lat="50.0217" lon="2.3335">
        <ele>131.3</ele>
        <time>2023-11-22T14:40:59Z</time>
      </trkpt>
      <trkpt lat="50.02169" lon="2.33349">
        <ele>131.3</ele>
        <time>2023-11-22T14:41:00Z</time>
      </trkpt>
      <trkpt lat="50.02168" lon="2.33348">
        <ele>131.3</ele>
        <time>2023-11-22T14:41:01Z</time>
      </trkpt>
      <trkpt lat="50.02167" lon="2.33347">
        <ele>131.3</ele>
        <time>2023-11-22T14:41:02Z</time>
      </trkpt>
      <trkpt lat="50.02166" lon="2.33346">
        <ele>131.3</ele>
        <time>2023-11-22T14:41:03Z</time>
      </trkpt>
      <trkpt lat="50.02166" lon="2.33344">
        <ele>131.3</ele>
        <time>2023-11-22T14:41:04Z</time>
      </trkpt>
      <trkpt lat="50.02165" lon="2.33343">
        <ele>131.3</ele>
        <time>2023-11-22T14:41:05Z</time>
      </trkpt>
      <trkpt lat="50.02163" lon="2.33341">
        <ele>131.3</ele>
        <time>2023-11-22T14:41:06Z</time>
      </trkpt>
      <trkpt lat="50.02162" lon="2.33341">
        <ele>131.3</ele>
        <time>2023-11-22T14:41:07Z</time>
      </trkpt>
      <trkpt lat="50.02162" lon="2.3334">
        <ele>131.3</ele>
        <time>2023-11-22T14:41:08Z</time>
      </trkpt>
      <trkpt lat="50.0216" lon="2.33338">
        <ele>131.3</ele>
        <time>2023-11-22T14:41:09Z</time>
      </trkpt>
      <trkpt lat="50.02159" lon="2.33337">
        <ele>131.3</ele>
        <time>2023-11-22T14:41:10Z</time>
      </trkpt>
      <trkpt lat="50.02159" lon="2.33336">
        <ele>131.3</ele>
        <time>2023-11-22T14:41:11Z</time>
      </trkpt>
      <trkpt lat="50.02158" lon="2.33335">
        <ele>131.3</ele>
        <time>2023-11-22T14:41:12Z</time>
      </trkpt>
      <trkpt lat="50.02157" lon="2.33334">
        <ele>131.3</ele>
        <time>2023-11-22T14:41:13Z</time>
      </trkpt>
      <trkpt lat="50.02156" lon="2.33333">
        <ele>131.3</ele>
        <time>2023-11-22T14:41:14Z</time>
      </trkpt>
      <trkpt lat="50.02155" lon="2.33332">
        <ele>131.3</ele>
        <time>2023-11-22T14:41:15Z</time>
      </trkpt>
      <trkpt lat="50.02155" lon="2.33331">
        <ele>131.3</ele>
        <time>2023-11-22T14:41:16Z</time>
      </trkpt>
      <trkpt lat="50.02154" lon="2.33329">
        <ele>131.3</ele>
        <time>2023-11-22T14:41:17Z</time>
      </trkpt>
      <trkpt lat="50.02153" lon="2.33328">
        <ele>131.3</ele>
        <time>2023-11-22T14:41:18Z</time>
      </trkpt>
      <trkpt lat="50.02152" lon="2.33327">
        <ele>131.3</ele>
        <time>2023-11-22T14:41:19Z</time>
      </trkpt>
      <trkpt lat="50.02152" lon="2.33325">
        <ele>131.3</ele>
        <time>2023-11-22T14:41:20Z</time>
      </trkpt>
      <trkpt lat="50.02151" lon="2.33324">
        <ele>131.3</ele>
        <time>2023-11-22T14:41:21Z</time>
      </trkpt>
      <trkpt lat="50.0215" lon="2.33323">
        <ele>131.3</ele>
        <time>2023-11-22T14:41:22Z</time>
      </trkpt>
      <trkpt lat="50.02149" lon="2.33322">
        <ele>131.3</ele>
        <time>2023-11-22T14:41:23Z</time>
      </trkpt>
      <trkpt lat="50.02148" lon="2.3332">
        <ele>131.3</ele>
        <time>2023-11-22T14:41:24Z</time>
      </trkpt>
      <trkpt lat="50.02148" lon="2.33319">
        <ele>131.3</ele>
        <time>2023-11-22T14:41:25Z</time>
      </trkpt>
      <trkpt lat="50.02147" lon="2.33318">
        <ele>131.3</ele>
        <time>2023-11-22T14:41:26Z</time>
      </trkpt>
      <trkpt lat="50.02146" lon="2.33317">
        <ele>131.3</ele>
        <time>2023-11-22T14:41:27Z</time>
      </trkpt>
      <trkpt lat="50.02146" lon="2.33316">
        <ele>131.3</ele>
        <time>2023-11-22T14:41:28Z</time>
      </trkpt>
      <trkpt lat="50.02145" lon="2.33315">
        <ele>131.3</ele>
        <time>2023-11-22T14:41:29Z</time>
      </trkpt>
      <trkpt lat="50.02144" lon="2.33314">
        <ele>131.3</ele>
        <time>2023-11-22T14:41:30Z</time>
      </trkpt>
      <trkpt lat="50.02143" lon="2.33312">
        <ele>131.3</ele>
        <time>2023-11-22T14:41:31Z</time>
      </trkpt>
      <trkpt lat="50.02142" lon="2.33311">
        <ele>131.3</ele>
        <time>2023-11-22T14:41:32Z</time>
      </trkpt>
      <trkpt lat="50.02141" lon="2.33309">
        <ele>131.3</ele>
        <time>2023-11-22T14:41:33Z</time>
      </trkpt>
      <trkpt lat="50.0214" lon="2.33308">
        <ele>131.3</ele>
        <time>2023-11-22T14:41:34Z</time>
      </trkpt>
      <trkpt lat="50.02139" lon="2.33307">
        <ele>131.3</ele>
        <time>2023-11-22T14:41:35Z</time>
      </trkpt>
      <trkpt lat="50.02138" lon="2.33306">
        <ele>131.3</ele>
        <time>2023-11-22T14:41:36Z</time>
      </trkpt>
      <trkpt lat="50.02138" lon="2.33305">
        <ele>131.3</ele>
        <time>2023-11-22T14:41:37Z</time>
      </trkpt>
      <trkpt lat="50.02137" lon="2.33304">
        <ele>131.3</ele>
        <time>2023-11-22T14:41:38Z</time>
      </trkpt>
      <trkpt lat="50.02136" lon="2.33303">
        <ele>131.3</ele>
        <time>2023-11-22T14:41:39Z</time>
      </trkpt>
      <trkpt lat="50.02135" lon="2.33302">
        <ele>131.3</ele>
        <time>2023-11-22T14:41:40Z</time>
      </trkpt>
      <trkpt lat="50.02134" lon="2.33301">
        <ele>131.3</ele>
        <time>2023-11-22T14:41:41Z</time>
      </trkpt>
      <trkpt lat="50.02133" lon="2.33299">
        <ele>131.3</ele>
        <time>2023-11-22T14:41:42Z</time>
      </trkpt>
      <trkpt lat="50.02133" lon="2.33298">
        <ele>131.3</ele>
        <time>2023-11-22T14:41:43Z</time>
      </trkpt>
      <trkpt lat="50.02132" lon="2.33297">
        <ele>131.3</ele>
        <time>2023-11-22T14:41:44Z</time>
      </trkpt>
      <trkpt lat="50.0213" lon="2.33295">
        <ele>131.4</ele>
        <time>2023-11-22T14:41:45Z</time>
      </trkpt>
      <trkpt lat="50.02129" lon="2.33294">
        <ele>131.4</ele>
        <time>2023-11-22T14:41:46Z</time>
      </trkpt>
      <trkpt lat="50.02129" lon="2.33293">
        <ele>131.4</ele>
        <time>2023-11-22T14:41:47Z</time>
      </trkpt>
      <trkpt lat="50.02128" lon="2.33292">
        <ele>131.4</ele>
        <time>2023-11-22T14:41:48Z</time>
      </trkpt>
      <trkpt lat="50.02127" lon="2.3329">
        <ele>131.4</ele>
        <time>2023-11-22T14:41:49Z</time>
      </trkpt>
      <trkpt lat="50.02126" lon="2.33289">
        <ele>131.4</ele>
        <time>2023-11-22T14:41:50Z</time>
      </trkpt>
      <trkpt lat="50.02125" lon="2.33288">
        <ele>131.4</ele>
        <time>2023-11-22T14:41:51Z</time>
      </trkpt>
      <trkpt lat="50.02125" lon="2.33287">
        <ele>131.4</ele>
        <time>2023-11-22T14:41:52Z</time>
      </trkpt>
      <trkpt lat="50.02124" lon="2.33285">
        <ele>131.4</ele>
        <time>2023-11-22T14:41:53Z</time>
      </trkpt>
      <trkpt lat="50.02123" lon="2.33284">
        <ele>131.4</ele>
        <time>2023-11-22T14:41:54Z</time>
      </trkpt>
      <trkpt lat="50.02122" lon="2.33283">
        <ele>131.4</ele>
        <time>2023-11-22T14:41:55Z</time>
      </trkpt>
      <trkpt lat="50.02122" lon="2.33282">
        <ele>131.4</ele>
        <time>2023-11-22T14:41:56Z</time>
      </trkpt>
      <trkpt lat="50.02121" lon="2.33281">
        <ele>131.4</ele>
        <time>2023-11-22T14:41:57Z</time>
      </trkpt>
      <trkpt lat="50.0212" lon="2.33279">
        <ele>131.4</ele>
        <time>2023-11-22T14:41:58Z</time>
      </trkpt>
      <trkpt lat="50.02119" lon="2.33278">
        <ele>131.4</ele>
        <time>2023-11-22T14:41:59Z</time>
      </trkpt>
      <trkpt lat="50.02119" lon="2.33277">
        <ele>131.4</ele>
        <time>2023-11-22T14:42:00Z</time>
      </trkpt>
      <trkpt lat="50.02118" lon="2.33276">
        <ele>131.4</ele>
        <time>2023-11-22T14:42:01Z</time>
      </trkpt>
      <trkpt lat="50.02117" lon="2.33275">
        <ele>131.4</ele>
        <time>2023-11-22T14:42:02Z</time>
      </trkpt>
      <trkpt lat="50.02117" lon="2.33274">
        <ele>131.4</ele>
        <time>2023-11-22T14:42:03Z</time>
      </trkpt>
      <trkpt lat="50.02116" lon="2.33273">
        <ele>131.4</ele>
        <time>2023-11-22T14:42:04Z</time>
      </trkpt>
      <trkpt lat="50.02115" lon="2.33272">
        <ele>131.4</ele>
        <time>2023-11-22T14:42:05Z</time>
      </trkpt>
      <trkpt lat="50.02114" lon="2.33271">
        <ele>131.4</ele>
        <time>2023-11-22T14:42:06Z</time>
      </trkpt>
      <trkpt lat="50.02113" lon="2.3327">
        <ele>131.4</ele>
        <time>2023-11-22T14:42:07Z</time>
      </trkpt>
      <trkpt lat="50.02112" lon="2.33269">
        <ele>131.4</ele>
        <time>2023-11-22T14:42:08Z</time>
      </trkpt>
      <trkpt lat="50.02112" lon="2.33267">
        <ele>131.4</ele>
        <time>2023-11-22T14:42:09Z</time>
      </trkpt>
      <trkpt lat="50.02111" lon="2.33266">
        <ele>131.4</ele>
        <time>2023-11-22T14:42:10Z</time>
      </trkpt>
      <trkpt lat="50.0211" lon="2.33265">
        <ele>131.4</ele>
        <time>2023-11-22T14:42:11Z</time>
      </trkpt>
      <trkpt lat="50.02109" lon="2.33264">
        <ele>131.4</ele>
        <time>2023-11-22T14:42:12Z</time>
      </trkpt>
      <trkpt lat="50.02108" lon="2.33262">
        <ele>131.4</ele>
        <time>2023-11-22T14:42:13Z</time>
      </trkpt>
      <trkpt lat="50.02107" lon="2.33261">
        <ele>131.4</ele>
        <time>2023-11-22T14:42:14Z</time>
      </trkpt>
      <trkpt lat="50.02107" lon="2.3326">
        <ele>131.5</ele>
        <time>2023-11-22T14:42:15Z</time>
      </trkpt>
      <trkpt lat="50.02106" lon="2.33259">
        <ele>131.5</ele>
        <time>2023-11-22T14:42:16Z</time>
      </trkpt>
      <trkpt lat="50.02105" lon="2.33258">
        <ele>131.5</ele>
        <time>2023-11-22T14:42:17Z</time>
      </trkpt>
      <trkpt lat="50.02104" lon="2.33257">
        <ele>131.5</ele>
        <time>2023-11-22T14:42:18Z</time>
      </trkpt>
      <trkpt lat="50.02103" lon="2.33256">
        <ele>131.5</ele>
        <time>2023-11-22T14:42:19Z</time>
      </trkpt>
      <trkpt lat="50.02102" lon="2.33255">
        <ele>131.5</ele>
        <time>2023-11-22T14:42:20Z</time>
      </trkpt>
      <trkpt lat="50.02102" lon="2.33254">
        <ele>131.5</ele>
        <time>2023-11-22T14:42:21Z</time>
      </trkpt>
      <trkpt lat="50.02101" lon="2.33252">
        <ele>131.5</ele>
        <time>2023-11-22T14:42:22Z</time>
      </trkpt>
      <trkpt lat="50.021" lon="2.33251">
        <ele>131.6</ele>
        <time>2023-11-22T14:42:23Z</time>
      </trkpt>
      <trkpt lat="50.02099" lon="2.3325">
        <ele>131.6</ele>
        <time>2023-11-22T14:42:24Z</time>
      </trkpt>
      <trkpt lat="50.02098" lon="2.33249">
        <ele>131.6</ele>
        <time>2023-11-22T14:42:25Z</time>
      </trkpt>
      <trkpt lat="50.02098" lon="2.33248">
        <ele>131.6</ele>
        <time>2023-11-22T14:42:26Z</time>
      </trkpt>
      <trkpt lat="50.02097" lon="2.33246">
        <ele>131.6</ele>
        <time>2023-11-22T14:42:27Z</time>
      </trkpt>
      <trkpt lat="50.02096" lon="2.33245">
        <ele>131.6</ele>
        <time>2023-11-22T14:42:28Z</time>
      </trkpt>
      <trkpt lat="50.02095" lon="2.33244">
        <ele>131.6</ele>
        <time>2023-11-22T14:42:29Z</time>
      </trkpt>
      <trkpt lat="50.02094" lon="2.33243">
        <ele>131.6</ele>
        <time>2023-11-22T14:42:30Z</time>
      </trkpt>
      <trkpt lat="50.02094" lon="2.33241">
        <ele>131.6</ele>
        <time>2023-11-22T14:42:31Z</time>
      </trkpt>
      <trkpt lat="50.02093" lon="2.3324">
        <ele>131.6</ele>
        <time>2023-11-22T14:42:32Z</time>
      </trkpt>
      <trkpt lat="50.02092" lon="2.33239">
        <ele>131.6</ele>
        <time>2023-11-22T14:42:33Z</time>
      </trkpt>
      <trkpt lat="50.02091" lon="2.33237">
        <ele>131.6</ele>
        <time>2023-11-22T14:42:34Z</time>
      </trkpt>
      <trkpt lat="50.0209" lon="2.33236">
        <ele>131.6</ele>
        <time>2023-11-22T14:42:35Z</time>
      </trkpt>
      <trkpt lat="50.02089" lon="2.33235">
        <ele>131.6</ele>
        <time>2023-11-22T14:42:36Z</time>
      </trkpt>
      <trkpt lat="50.02089" lon="2.33234">
        <ele>131.6</ele>
        <time>2023-11-22T14:42:37Z</time>
      </trkpt>
      <trkpt lat="50.02088" lon="2.33232">
        <ele>131.6</ele>
        <time>2023-11-22T14:42:38Z</time>
      </trkpt>
      <trkpt lat="50.02087" lon="2.33231">
        <ele>131.6</ele>
        <time>2023-11-22T14:42:39Z</time>
      </trkpt>
      <trkpt lat="50.02086" lon="2.3323">
        <ele>131.6</ele>
        <time>2023-11-22T14:42:40Z</time>
      </trkpt>
      <trkpt lat="50.02086" lon="2.33229">
        <ele>131.6</ele>
        <time>2023-11-22T14:42:41Z</time>
      </trkpt>
      <trkpt lat="50.02084" lon="2.33227">
        <ele>131.6</ele>
        <time>2023-11-22T14:42:42Z</time>
      </trkpt>
      <trkpt lat="50.02084" lon="2.33226">
        <ele>131.6</ele>
        <time>2023-11-22T14:42:43Z</time>
      </trkpt>
      <trkpt lat="50.02083" lon="2.33225">
        <ele>131.6</ele>
        <time>2023-11-22T14:42:44Z</time>
      </trkpt>
      <trkpt lat="50.02081" lon="2.33223">
        <ele>131.6</ele>
        <time>2023-11-22T14:42:45Z</time>
      </trkpt>
      <trkpt lat="50.02081" lon="2.33222">
        <ele>131.6</ele>
        <time>2023-11-22T14:42:46Z</time>
      </trkpt>
      <trkpt lat="50.0208" lon="2.33221">
        <ele>131.6</ele>
        <time>2023-11-22T14:42:47Z</time>
      </trkpt>
      <trkpt lat="50.02079" lon="2.3322">
        <ele>131.6</ele>
        <time>2023-11-22T14:42:48Z</time>
      </trkpt>
      <trkpt lat="50.02079" lon="2.33219">
        <ele>131.6</ele>
        <time>2023-11-22T14:42:49Z</time>
      </trkpt>
      <trkpt lat="50.02078" lon="2.33218">
        <ele>131.6</ele>
        <time>2023-11-22T14:42:50Z</time>
      </trkpt>
      <trkpt lat="50.02076" lon="2.33215">
        <ele>131.6</ele>
        <time>2023-11-22T14:42:51Z</time>
      </trkpt>
      <trkpt lat="50.02076" lon="2.33214">
        <ele>131.6</ele>
        <time>2023-11-22T14:42:52Z</time>
      </trkpt>
      <trkpt lat="50.02075" lon="2.33214">
        <ele>131.6</ele>
        <time>2023-11-22T14:42:53Z</time>
      </trkpt>
      <trkpt lat="50.02073" lon="2.33211">
        <ele>131.6</ele>
        <time>2023-11-22T14:42:54Z</time>
      </trkpt>
      <trkpt lat="50.02073" lon="2.3321">
        <ele>131.6</ele>
        <time>2023-11-22T14:42:55Z</time>
      </trkpt>
      <trkpt lat="50.02072" lon="2.3321">
        <ele>131.6</ele>
        <time>2023-11-22T14:42:56Z</time>
      </trkpt>
      <trkpt lat="50.02071" lon="2.33208">
        <ele>131.6</ele>
        <time>2023-11-22T14:42:57Z</time>
      </trkpt>
      <trkpt lat="50.0207" lon="2.33207">
        <ele>131.6</ele>
        <time>2023-11-22T14:42:58Z</time>
      </trkpt>
      <trkpt lat="50.0207" lon="2.33206">
        <ele>131.6</ele>
        <time>2023-11-22T14:42:59Z</time>
      </trkpt>
      <trkpt lat="50.02069" lon="2.33206">
        <ele>131.6</ele>
        <time>2023-11-22T14:43:00Z</time>
      </trkpt>
      <trkpt lat="50.02068" lon="2.33205">
        <ele>131.6</ele>
        <time>2023-11-22T14:43:01Z</time>
      </trkpt>
      <trkpt lat="50.02068" lon="2.33204">
        <ele>131.5</ele>
        <time>2023-11-22T14:43:02Z</time>
      </trkpt>
      <trkpt lat="50.02067" lon="2.33203">
        <ele>131.5</ele>
        <time>2023-11-22T14:43:03Z</time>
      </trkpt>
      <trkpt lat="50.02066" lon="2.33202">
        <ele>131.5</ele>
        <time>2023-11-22T14:43:04Z</time>
      </trkpt>
      <trkpt lat="50.02066" lon="2.33201">
        <ele>131.5</ele>
        <time>2023-11-22T14:43:05Z</time>
      </trkpt>
      <trkpt lat="50.02065" lon="2.332">
        <ele>131.5</ele>
        <time>2023-11-22T14:43:06Z</time>
      </trkpt>
      <trkpt lat="50.02064" lon="2.33199">
        <ele>131.5</ele>
        <time>2023-11-22T14:43:07Z</time>
      </trkpt>
      <trkpt lat="50.02063" lon="2.33198">
        <ele>131.5</ele>
        <time>2023-11-22T14:43:08Z</time>
      </trkpt>
      <trkpt lat="50.02063" lon="2.33197">
        <ele>131.5</ele>
        <time>2023-11-22T14:43:09Z</time>
      </trkpt>
      <trkpt lat="50.02062" lon="2.33196">
        <ele>131.5</ele>
        <time>2023-11-22T14:43:10Z</time>
      </trkpt>
      <trkpt lat="50.02061" lon="2.33195">
        <ele>131.5</ele>
        <time>2023-11-22T14:43:11Z</time>
      </trkpt>
      <trkpt lat="50.02061" lon="2.33194">
        <ele>131.5</ele>
        <time>2023-11-22T14:43:12Z</time>
      </trkpt>
      <trkpt lat="50.0206" lon="2.33193">
        <ele>131.5</ele>
        <time>2023-11-22T14:43:13Z</time>
      </trkpt>
      <trkpt lat="50.02059" lon="2.33192">
        <ele>131.5</ele>
        <time>2023-11-22T14:43:14Z</time>
      </trkpt>
      <trkpt lat="50.02058" lon="2.33191">
        <ele>131.5</ele>
        <time>2023-11-22T14:43:15Z</time>
      </trkpt>
      <trkpt lat="50.02057" lon="2.3319">
        <ele>131.5</ele>
        <time>2023-11-22T14:43:16Z</time>
      </trkpt>
      <trkpt lat="50.02056" lon="2.33189">
        <ele>131.5</ele>
        <time>2023-11-22T14:43:17Z</time>
      </trkpt>
      <trkpt lat="50.02055" lon="2.33188">
        <ele>131.5</ele>
        <time>2023-11-22T14:43:18Z</time>
      </trkpt>
      <trkpt lat="50.02055" lon="2.33187">
        <ele>131.5</ele>
        <time>2023-11-22T14:43:19Z</time>
      </trkpt>
      <trkpt lat="50.02054" lon="2.33186">
        <ele>131.5</ele>
        <time>2023-11-22T14:43:20Z</time>
      </trkpt>
      <trkpt lat="50.02053" lon="2.33185">
        <ele>131.5</ele>
        <time>2023-11-22T14:43:21Z</time>
      </trkpt>
      <trkpt lat="50.02052" lon="2.33184">
        <ele>131.5</ele>
        <time>2023-11-22T14:43:22Z</time>
      </trkpt>
      <trkpt lat="50.02051" lon="2.33183">
        <ele>131.5</ele>
        <time>2023-11-22T14:43:23Z</time>
      </trkpt>
      <trkpt lat="50.02051" lon="2.33181">
        <ele>131.5</ele>
        <time>2023-11-22T14:43:24Z</time>
      </trkpt>
      <trkpt lat="50.02049" lon="2.33178">
        <ele>131.5</ele>
        <time>2023-11-22T14:43:25Z</time>
      </trkpt>
      <trkpt lat="50.02049" lon="2.33177">
        <ele>131.5</ele>
        <time>2023-11-22T14:43:26Z</time>
      </trkpt>
      <trkpt lat="50.02048" lon="2.33176">
        <ele>131.5</ele>
        <time>2023-11-22T14:43:27Z</time>
      </trkpt>
      <trkpt lat="50.02048" lon="2.33174">
        <ele>131.5</ele>
        <time>2023-11-22T14:43:28Z</time>
      </trkpt>
      <trkpt lat="50.02047" lon="2.33172">
        <ele>131.4</ele>
        <time>2023-11-22T14:43:29Z</time>
      </trkpt>
      <trkpt lat="50.02046" lon="2.3317">
        <ele>131.4</ele>
        <time>2023-11-22T14:43:30Z</time>
      </trkpt>
      <trkpt lat="50.02045" lon="2.33168">
        <ele>131.4</ele>
        <time>2023-11-22T14:43:31Z</time>
      </trkpt>
      <trkpt lat="50.02044" lon="2.33166">
        <ele>131.4</ele>
        <time>2023-11-22T14:43:32Z</time>
      </trkpt>
      <trkpt lat="50.02043" lon="2.33164">
        <ele>131.4</ele>
        <time>2023-11-22T14:43:33Z</time>
      </trkpt>
      <trkpt lat="50.02042" lon="2.33161">
        <ele>131.4</ele>
        <time>2023-11-22T14:43:34Z</time>
      </trkpt>
      <trkpt lat="50.02042" lon="2.3316">
        <ele>131.4</ele>
        <time>2023-11-22T14:43:35Z</time>
      </trkpt>
      <trkpt lat="50.02041" lon="2.33159">
        <ele>131.4</ele>
        <time>2023-11-22T14:43:36Z</time>
      </trkpt>
      <trkpt lat="50.02041" lon="2.33157">
        <ele>131.4</ele>
        <time>2023-11-22T14:43:37Z</time>
      </trkpt>
      <trkpt lat="50.0204" lon="2.33156">
        <ele>131.4</ele>
        <time>2023-11-22T14:43:38Z</time>
      </trkpt>
      <trkpt lat="50.02039" lon="2.33155">
        <ele>131.4</ele>
        <time>2023-11-22T14:43:39Z</time>
      </trkpt>
      <trkpt lat="50.02039" lon="2.33154">
        <ele>131.4</ele>
        <time>2023-11-22T14:43:40Z</time>
      </trkpt>
      <trkpt lat="50.02038" lon="2.33152">
        <ele>131.4</ele>
        <time>2023-11-22T14:43:41Z</time>
      </trkpt>
      <trkpt lat="50.02037" lon="2.33151">
        <ele>131.4</ele>
        <time>2023-11-22T14:43:42Z</time>
      </trkpt>
      <trkpt lat="50.02035" lon="2.3315">
        <ele>131.4</ele>
        <time>2023-11-22T14:43:43Z</time>
      </trkpt>
      <trkpt lat="50.02035" lon="2.33149">
        <ele>131.4</ele>
        <time>2023-11-22T14:43:44Z</time>
      </trkpt>
      <trkpt lat="50.02034" lon="2.33148">
        <ele>131.4</ele>
        <time>2023-11-22T14:43:45Z</time>
      </trkpt>
      <trkpt lat="50.02033" lon="2.33147">
        <ele>131.4</ele>
        <time>2023-11-22T14:43:46Z</time>
      </trkpt>
      <trkpt lat="50.02032" lon="2.33146">
        <ele>131.4</ele>
        <time>2023-11-22T14:43:47Z</time>
      </trkpt>
      <trkpt lat="50.02032" lon="2.33145">
        <ele>131.4</ele>
        <time>2023-11-22T14:43:48Z</time>
      </trkpt>
      <trkpt lat="50.02031" lon="2.33144">
        <ele>131.4</ele>
        <time>2023-11-22T14:43:49Z</time>
      </trkpt>
      <trkpt lat="50.0203" lon="2.33143">
        <ele>131.4</ele>
        <time>2023-11-22T14:43:50Z</time>
      </trkpt>
      <trkpt lat="50.02029" lon="2.33142">
        <ele>131.4</ele>
        <time>2023-11-22T14:43:51Z</time>
      </trkpt>
      <trkpt lat="50.02029" lon="2.33141">
        <ele>131.4</ele>
        <time>2023-11-22T14:43:52Z</time>
      </trkpt>
      <trkpt lat="50.02028" lon="2.33139">
        <ele>131.4</ele>
        <time>2023-11-22T14:43:53Z</time>
      </trkpt>
      <trkpt lat="50.02027" lon="2.33138">
        <ele>131.4</ele>
        <time>2023-11-22T14:43:54Z</time>
      </trkpt>
      <trkpt lat="50.02026" lon="2.33137">
        <ele>131.4</ele>
        <time>2023-11-22T14:43:55Z</time>
      </trkpt>
      <trkpt lat="50.02026" lon="2.33136">
        <ele>131.4</ele>
        <time>2023-11-22T14:43:56Z</time>
      </trkpt>
      <trkpt lat="50.02025" lon="2.33135">
        <ele>131.4</ele>
        <time>2023-11-22T14:43:57Z</time>
      </trkpt>
      <trkpt lat="50.02025" lon="2.33134">
        <ele>131.4</ele>
        <time>2023-11-22T14:43:58Z</time>
      </trkpt>
      <trkpt lat="50.02024" lon="2.33133">
        <ele>131.4</ele>
        <time>2023-11-22T14:43:59Z</time>
      </trkpt>
      <trkpt lat="50.02023" lon="2.33131">
        <ele>131.4</ele>
        <time>2023-11-22T14:44:00Z</time>
      </trkpt>
      <trkpt lat="50.02023" lon="2.3313">
        <ele>131.4</ele>
        <time>2023-11-22T14:44:01Z</time>
      </trkpt>
      <trkpt lat="50.02022" lon="2.33128">
        <ele>131.4</ele>
        <time>2023-11-22T14:44:02Z</time>
      </trkpt>
      <trkpt lat="50.02021" lon="2.33127">
        <ele>131.4</ele>
        <time>2023-11-22T14:44:03Z</time>
      </trkpt>
      <trkpt lat="50.0202" lon="2.33126">
        <ele>131.4</ele>
        <time>2023-11-22T14:44:04Z</time>
      </trkpt>
      <trkpt lat="50.0202" lon="2.33124">
        <ele>131.4</ele>
        <time>2023-11-22T14:44:05Z</time>
      </trkpt>
      <trkpt lat="50.02019" lon="2.33123">
        <ele>131.4</ele>
        <time>2023-11-22T14:44:06Z</time>
      </trkpt>
      <trkpt lat="50.02018" lon="2.33122">
        <ele>131.4</ele>
        <time>2023-11-22T14:44:07Z</time>
      </trkpt>
      <trkpt lat="50.02017" lon="2.33121">
        <ele>131.4</ele>
        <time>2023-11-22T14:44:08Z</time>
      </trkpt>
      <trkpt lat="50.02017" lon="2.33121">
        <ele>131.4</ele>
        <time>2023-11-22T14:44:09Z</time>
      </trkpt>
      <trkpt lat="50.02016" lon="2.3312">
        <ele>131.4</ele>
        <time>2023-11-22T14:44:10Z</time>
      </trkpt>
      <trkpt lat="50.02015" lon="2.33119">
        <ele>131.4</ele>
        <time>2023-11-22T14:44:11Z</time>
      </trkpt>
      <trkpt lat="50.02015" lon="2.33118">
        <ele>131.4</ele>
        <time>2023-11-22T14:44:12Z</time>
      </trkpt>
      <trkpt lat="50.02014" lon="2.33117">
        <ele>131.4</ele>
        <time>2023-11-22T14:44:13Z</time>
      </trkpt>
      <trkpt lat="50.02014" lon="2.33116">
        <ele>131.4</ele>
        <time>2023-11-22T14:44:14Z</time>
      </trkpt>
      <trkpt lat="50.02013" lon="2.33116">
        <ele>131.4</ele>
        <time>2023-11-22T14:44:15Z</time>
      </trkpt>
      <trkpt lat="50.02013" lon="2.33115">
        <ele>131.4</ele>
        <time>2023-11-22T14:44:16Z</time>
      </trkpt>
      <trkpt lat="50.02012" lon="2.33115">
        <ele>131.4</ele>
        <time>2023-11-22T14:44:17Z</time>
      </trkpt>
      <trkpt lat="50.02012" lon="2.33115">
        <ele>131.4</ele>
        <time>2023-11-22T14:44:18Z</time>
      </trkpt>
      <trkpt lat="50.02012" lon="2.33115">
        <ele>131.4</ele>
        <time>2023-11-22T14:44:19Z</time>
      </trkpt>
      <trkpt lat="50.02011" lon="2.33115">
        <ele>131.4</ele>
        <time>2023-11-22T14:44:20Z</time>
      </trkpt>
      <trkpt lat="50.02011" lon="2.33115">
        <ele>131.4</ele>
        <time>2023-11-22T14:44:21Z</time>
      </trkpt>
      <trkpt lat="50.02011" lon="2.33115">
        <ele>131.4</ele>
        <time>2023-11-22T14:44:22Z</time>
      </trkpt>
      <trkpt lat="50.02011" lon="2.33115">
        <ele>131.4</ele>
        <time>2023-11-22T14:44:23Z</time>
      </trkpt>
      <trkpt lat="50.02011" lon="2.33115">
        <ele>131.4</ele>
        <time>2023-11-22T14:44:24Z</time>
      </trkpt>
      <trkpt lat="50.02012" lon="2.33114">
        <ele>131.4</ele>
        <time>2023-11-22T14:44:25Z</time>
      </trkpt>
      <trkpt lat="50.02012" lon="2.33114">
        <ele>131.4</ele>
        <time>2023-11-22T14:44:26Z</time>
      </trkpt>
      <trkpt lat="50.02012" lon="2.33113">
        <ele>131.4</ele>
        <time>2023-11-22T14:44:27Z</time>
      </trkpt>
      <trkpt lat="50.02012" lon="2.33112">
        <ele>131.4</ele>
        <time>2023-11-22T14:44:28Z</time>
      </trkpt>
      <trkpt lat="50.02013" lon="2.33111">
        <ele>131.4</ele>
        <time>2023-11-22T14:44:29Z</time>
      </trkpt>
      <trkpt lat="50.02013" lon="2.33111">
        <ele>131.3</ele>
        <time>2023-11-22T14:44:30Z</time>
      </trkpt>
      <trkpt lat="50.02013" lon="2.3311">
        <ele>131.3</ele>
        <time>2023-11-22T14:44:31Z</time>
      </trkpt>
      <trkpt lat="50.02014" lon="2.33109">
        <ele>131.3</ele>
        <time>2023-11-22T14:44:32Z</time>
      </trkpt>
      <trkpt lat="50.02014" lon="2.33108">
        <ele>131.3</ele>
        <time>2023-11-22T14:44:33Z</time>
      </trkpt>
      <trkpt lat="50.02015" lon="2.33107">
        <ele>131.3</ele>
        <time>2023-11-22T14:44:34Z</time>
      </trkpt>
      <trkpt lat="50.02016" lon="2.33106">
        <ele>131.3</ele>
        <time>2023-11-22T14:44:35Z</time>
      </trkpt>
      <trkpt lat="50.02016" lon="2.33104">
        <ele>131.2</ele>
        <time>2023-11-22T14:44:36Z</time>
      </trkpt>
      <trkpt lat="50.02017" lon="2.33103">
        <ele>131.2</ele>
        <time>2023-11-22T14:44:37Z</time>
      </trkpt>
      <trkpt lat="50.02018" lon="2.33102">
        <ele>131.2</ele>
        <time>2023-11-22T14:44:38Z</time>
      </trkpt>
      <trkpt lat="50.02018" lon="2.331">
        <ele>131.2</ele>
        <time>2023-11-22T14:44:39Z</time>
      </trkpt>
      <trkpt lat="50.02019" lon="2.33098">
        <ele>131.2</ele>
        <time>2023-11-22T14:44:40Z</time>
      </trkpt>
      <trkpt lat="50.0202" lon="2.33097">
        <ele>131.2</ele>
        <time>2023-11-22T14:44:41Z</time>
      </trkpt>
      <trkpt lat="50.0202" lon="2.33096">
        <ele>131.1</ele>
        <time>2023-11-22T14:44:42Z</time>
      </trkpt>
      <trkpt lat="50.02021" lon="2.33095">
        <ele>131.1</ele>
        <time>2023-11-22T14:44:43Z</time>
      </trkpt>
      <trkpt lat="50.02022" lon="2.33094">
        <ele>131.1</ele>
        <time>2023-11-22T14:44:44Z</time>
      </trkpt>
      <trkpt lat="50.02022" lon="2.33092">
        <ele>131.1</ele>
        <time>2023-11-22T14:44:45Z</time>
      </trkpt>
      <trkpt lat="50.02023" lon="2.33091">
        <ele>131.1</ele>
        <time>2023-11-22T14:44:46Z</time>
      </trkpt>
      <trkpt lat="50.02025" lon="2.33089">
        <ele>131</ele>
        <time>2023-11-22T14:44:47Z</time>
      </trkpt>
      <trkpt lat="50.02026" lon="2.33088">
        <ele>131</ele>
        <time>2023-11-22T14:44:48Z</time>
      </trkpt>
      <trkpt lat="50.02026" lon="2.33087">
        <ele>131</ele>
        <time>2023-11-22T14:44:49Z</time>
      </trkpt>
      <trkpt lat="50.02028" lon="2.33085">
        <ele>131</ele>
        <time>2023-11-22T14:44:50Z</time>
      </trkpt>
      <trkpt lat="50.02028" lon="2.33084">
        <ele>131</ele>
        <time>2023-11-22T14:44:51Z</time>
      </trkpt>
      <trkpt lat="50.02029" lon="2.33083">
        <ele>131</ele>
        <time>2023-11-22T14:44:52Z</time>
      </trkpt>
      <trkpt lat="50.0203" lon="2.33082">
        <ele>131</ele>
        <time>2023-11-22T14:44:53Z</time>
      </trkpt>
      <trkpt lat="50.02031" lon="2.33081">
        <ele>130.9</ele>
        <time>2023-11-22T14:44:54Z</time>
      </trkpt>
      <trkpt lat="50.02032" lon="2.3308">
        <ele>130.9</ele>
        <time>2023-11-22T14:44:55Z</time>
      </trkpt>
      <trkpt lat="50.02034" lon="2.33078">
        <ele>130.9</ele>
        <time>2023-11-22T14:44:56Z</time>
      </trkpt>
      <trkpt lat="50.02034" lon="2.33077">
        <ele>130.9</ele>
        <time>2023-11-22T14:44:57Z</time>
      </trkpt>
      <trkpt lat="50.02035" lon="2.33076">
        <ele>130.9</ele>
        <time>2023-11-22T14:44:58Z</time>
      </trkpt>
      <trkpt lat="50.02037" lon="2.33074">
        <ele>130.8</ele>
        <time>2023-11-22T14:44:59Z</time>
      </trkpt>
      <trkpt lat="50.02037" lon="2.33073">
        <ele>130.8</ele>
        <time>2023-11-22T14:45:00Z</time>
      </trkpt>
      <trkpt lat="50.02038" lon="2.33072">
        <ele>130.8</ele>
        <time>2023-11-22T14:45:01Z</time>
      </trkpt>
      <trkpt lat="50.02039" lon="2.3307">
        <ele>130.8</ele>
        <time>2023-11-22T14:45:02Z</time>
      </trkpt>
      <trkpt lat="50.0204" lon="2.33069">
        <ele>130.7</ele>
        <time>2023-11-22T14:45:03Z</time>
      </trkpt>
      <trkpt lat="50.02041" lon="2.33068">
        <ele>130.7</ele>
        <time>2023-11-22T14:45:04Z</time>
      </trkpt>
      <trkpt lat="50.02041" lon="2.33067">
        <ele>130.7</ele>
        <time>2023-11-22T14:45:05Z</time>
      </trkpt>
      <trkpt lat="50.02042" lon="2.33066">
        <ele>130.7</ele>
        <time>2023-11-22T14:45:06Z</time>
      </trkpt>
      <trkpt lat="50.02043" lon="2.33065">
        <ele>130.7</ele>
        <time>2023-11-22T14:45:07Z</time>
      </trkpt>
      <trkpt lat="50.02043" lon="2.33064">
        <ele>130.7</ele>
        <time>2023-11-22T14:45:08Z</time>
      </trkpt>
      <trkpt lat="50.02044" lon="2.33062">
        <ele>130.6</ele>
        <time>2023-11-22T14:45:09Z</time>
      </trkpt>
      <trkpt lat="50.02045" lon="2.33061">
        <ele>130.6</ele>
        <time>2023-11-22T14:45:10Z</time>
      </trkpt>
      <trkpt lat="50.02046" lon="2.3306">
        <ele>130.6</ele>
        <time>2023-11-22T14:45:11Z</time>
      </trkpt>
      <trkpt lat="50.02046" lon="2.33059">
        <ele>130.6</ele>
        <time>2023-11-22T14:45:12Z</time>
      </trkpt>
      <trkpt lat="50.02047" lon="2.33058">
        <ele>130.6</ele>
        <time>2023-11-22T14:45:13Z</time>
      </trkpt>
      <trkpt lat="50.02048" lon="2.33057">
        <ele>130.6</ele>
        <time>2023-11-22T14:45:14Z</time>
      </trkpt>
      <trkpt lat="50.02049" lon="2.33056">
        <ele>130.5</ele>
        <time>2023-11-22T14:45:15Z</time>
      </trkpt>
      <trkpt lat="50.0205" lon="2.33055">
        <ele>130.5</ele>
        <time>2023-11-22T14:45:16Z</time>
      </trkpt>
      <trkpt lat="50.02051" lon="2.33053">
        <ele>130.5</ele>
        <time>2023-11-22T14:45:17Z</time>
      </trkpt>
      <trkpt lat="50.02051" lon="2.33052">
        <ele>130.5</ele>
        <time>2023-11-22T14:45:18Z</time>
      </trkpt>
      <trkpt lat="50.02052" lon="2.33051">
        <ele>130.5</ele>
        <time>2023-11-22T14:45:19Z</time>
      </trkpt>
      <trkpt lat="50.02053" lon="2.3305">
        <ele>130.5</ele>
        <time>2023-11-22T14:45:20Z</time>
      </trkpt>
      <trkpt lat="50.02053" lon="2.33049">
        <ele>130.4</ele>
        <time>2023-11-22T14:45:21Z</time>
      </trkpt>
      <trkpt lat="50.02054" lon="2.33048">
        <ele>130.4</ele>
        <time>2023-11-22T14:45:22Z</time>
      </trkpt>
      <trkpt lat="50.02055" lon="2.33047">
        <ele>130.4</ele>
        <time>2023-11-22T14:45:23Z</time>
      </trkpt>
      <trkpt lat="50.02056" lon="2.33045">
        <ele>130.4</ele>
        <time>2023-11-22T14:45:24Z</time>
      </trkpt>
      <trkpt lat="50.02056" lon="2.33044">
        <ele>130.4</ele>
        <time>2023-11-22T14:45:25Z</time>
      </trkpt>
      <trkpt lat="50.02057" lon="2.33043">
        <ele>130.4</ele>
        <time>2023-11-22T14:45:26Z</time>
      </trkpt>
      <trkpt lat="50.02058" lon="2.33041">
        <ele>130.3</ele>
        <time>2023-11-22T14:45:27Z</time>
      </trkpt>
      <trkpt lat="50.02059" lon="2.3304">
        <ele>130.3</ele>
        <time>2023-11-22T14:45:28Z</time>
      </trkpt>
      <trkpt lat="50.0206" lon="2.33039">
        <ele>130.3</ele>
        <time>2023-11-22T14:45:29Z</time>
      </trkpt>
      <trkpt lat="50.0206" lon="2.33038">
        <ele>130.3</ele>
        <time>2023-11-22T14:45:30Z</time>
      </trkpt>
      <trkpt lat="50.02061" lon="2.33036">
        <ele>130.3</ele>
        <time>2023-11-22T14:45:31Z</time>
      </trkpt>
      <trkpt lat="50.02062" lon="2.33036">
        <ele>130.3</ele>
        <time>2023-11-22T14:45:32Z</time>
      </trkpt>
      <trkpt lat="50.02062" lon="2.33034">
        <ele>130.3</ele>
        <time>2023-11-22T14:45:33Z</time>
      </trkpt>
      <trkpt lat="50.02063" lon="2.33033">
        <ele>130.2</ele>
        <time>2023-11-22T14:45:34Z</time>
      </trkpt>
      <trkpt lat="50.02064" lon="2.33032">
        <ele>130.2</ele>
        <time>2023-11-22T14:45:35Z</time>
      </trkpt>
      <trkpt lat="50.02065" lon="2.33031">
        <ele>130.2</ele>
        <time>2023-11-22T14:45:36Z</time>
      </trkpt>
      <trkpt lat="50.02066" lon="2.3303">
        <ele>130.2</ele>
        <time>2023-11-22T14:45:37Z</time>
      </trkpt>
      <trkpt lat="50.02067" lon="2.33028">
        <ele>130.2</ele>
        <time>2023-11-22T14:45:38Z</time>
      </trkpt>
      <trkpt lat="50.02068" lon="2.33027">
        <ele>130.2</ele>
        <time>2023-11-22T14:45:39Z</time>
      </trkpt>
      <trkpt lat="50.02069" lon="2.33026">
        <ele>130.2</ele>
        <time>2023-11-22T14:45:40Z</time>
      </trkpt>
      <trkpt lat="50.0207" lon="2.33024">
        <ele>130.1</ele>
        <time>2023-11-22T14:45:41Z</time>
      </trkpt>
      <trkpt lat="50.02071" lon="2.33023">
        <ele>130.1</ele>
        <time>2023-11-22T14:45:42Z</time>
      </trkpt>
      <trkpt lat="50.02072" lon="2.33021">
        <ele>130.1</ele>
        <time>2023-11-22T14:45:43Z</time>
      </trkpt>
      <trkpt lat="50.02073" lon="2.3302">
        <ele>130.1</ele>
        <time>2023-11-22T14:45:44Z</time>
      </trkpt>
      <trkpt lat="50.02073" lon="2.33019">
        <ele>130.1</ele>
        <time>2023-11-22T14:45:45Z</time>
      </trkpt>
      <trkpt lat="50.02074" lon="2.33017">
        <ele>130.1</ele>
        <time>2023-11-22T14:45:46Z</time>
      </trkpt>
      <trkpt lat="50.02075" lon="2.33016">
        <ele>130.1</ele>
        <time>2023-11-22T14:45:47Z</time>
      </trkpt>
      <trkpt lat="50.02076" lon="2.33015">
        <ele>130</ele>
        <time>2023-11-22T14:45:48Z</time>
      </trkpt>
      <trkpt lat="50.02077" lon="2.33012">
        <ele>130</ele>
        <time>2023-11-22T14:45:49Z</time>
      </trkpt>
      <trkpt lat="50.02077" lon="2.33011">
        <ele>130</ele>
        <time>2023-11-22T14:45:50Z</time>
      </trkpt>
      <trkpt lat="50.02078" lon="2.3301">
        <ele>130</ele>
        <time>2023-11-22T14:45:51Z</time>
      </trkpt>
      <trkpt lat="50.02079" lon="2.33007">
        <ele>130</ele>
        <time>2023-11-22T14:45:52Z</time>
      </trkpt>
      <trkpt lat="50.02079" lon="2.33005">
        <ele>130</ele>
        <time>2023-11-22T14:45:53Z</time>
      </trkpt>
      <trkpt lat="50.02079" lon="2.33004">
        <ele>130</ele>
        <time>2023-11-22T14:45:54Z</time>
      </trkpt>
      <trkpt lat="50.02079" lon="2.33002">
        <ele>130</ele>
        <time>2023-11-22T14:45:55Z</time>
      </trkpt>
      <trkpt lat="50.02079" lon="2.33">
        <ele>130</ele>
        <time>2023-11-22T14:45:56Z</time>
      </trkpt>
      <trkpt lat="50.02079" lon="2.32999">
        <ele>130</ele>
        <time>2023-11-22T14:45:57Z</time>
      </trkpt>
      <trkpt lat="50.02079" lon="2.32997">
        <ele>130</ele>
        <time>2023-11-22T14:45:58Z</time>
      </trkpt>
      <trkpt lat="50.02079" lon="2.32996">
        <ele>130</ele>
        <time>2023-11-22T14:45:59Z</time>
      </trkpt>
      <trkpt lat="50.02078" lon="2.32995">
        <ele>130.1</ele>
        <time>2023-11-22T14:46:00Z</time>
      </trkpt>
      <trkpt lat="50.02077" lon="2.32994">
        <ele>130.1</ele>
        <time>2023-11-22T14:46:01Z</time>
      </trkpt>
      <trkpt lat="50.02076" lon="2.32993">
        <ele>130.1</ele>
        <time>2023-11-22T14:46:02Z</time>
      </trkpt>
      <trkpt lat="50.02075" lon="2.32992">
        <ele>130.1</ele>
        <time>2023-11-22T14:46:03Z</time>
      </trkpt>
      <trkpt lat="50.02074" lon="2.32992">
        <ele>130.2</ele>
        <time>2023-11-22T14:46:04Z</time>
      </trkpt>
      <trkpt lat="50.02073" lon="2.32991">
        <ele>130.2</ele>
        <time>2023-11-22T14:46:05Z</time>
      </trkpt>
      <trkpt lat="50.02073" lon="2.32991">
        <ele>130.2</ele>
        <time>2023-11-22T14:46:06Z</time>
      </trkpt>
      <trkpt lat="50.02072" lon="2.3299">
        <ele>130.2</ele>
        <time>2023-11-22T14:46:07Z</time>
      </trkpt>
      <trkpt lat="50.02071" lon="2.3299">
        <ele>130.2</ele>
        <time>2023-11-22T14:46:08Z</time>
      </trkpt>
      <trkpt lat="50.0207" lon="2.32989">
        <ele>130.2</ele>
        <time>2023-11-22T14:46:09Z</time>
      </trkpt>
      <trkpt lat="50.02069" lon="2.32988">
        <ele>130.3</ele>
        <time>2023-11-22T14:46:10Z</time>
      </trkpt>
      <trkpt lat="50.02068" lon="2.32988">
        <ele>130.3</ele>
        <time>2023-11-22T14:46:11Z</time>
      </trkpt>
      <trkpt lat="50.02067" lon="2.32987">
        <ele>130.3</ele>
        <time>2023-11-22T14:46:12Z</time>
      </trkpt>
      <trkpt lat="50.02066" lon="2.32987">
        <ele>130.3</ele>
        <time>2023-11-22T14:46:13Z</time>
      </trkpt>
      <trkpt lat="50.02065" lon="2.32986">
        <ele>130.3</ele>
        <time>2023-11-22T14:46:14Z</time>
      </trkpt>
      <trkpt lat="50.02065" lon="2.32986">
        <ele>130.3</ele>
        <time>2023-11-22T14:46:15Z</time>
      </trkpt>
      <trkpt lat="50.02064" lon="2.32986">
        <ele>130.4</ele>
        <time>2023-11-22T14:46:16Z</time>
      </trkpt>
      <trkpt lat="50.02063" lon="2.32985">
        <ele>130.4</ele>
        <time>2023-11-22T14:46:17Z</time>
      </trkpt>
      <trkpt lat="50.02062" lon="2.32985">
        <ele>130.4</ele>
        <time>2023-11-22T14:46:18Z</time>
      </trkpt>
      <trkpt lat="50.02061" lon="2.32984">
        <ele>130.4</ele>
        <time>2023-11-22T14:46:19Z</time>
      </trkpt>
      <trkpt lat="50.0206" lon="2.32984">
        <ele>130.4</ele>
        <time>2023-11-22T14:46:20Z</time>
      </trkpt>
      <trkpt lat="50.02059" lon="2.32983">
        <ele>130.5</ele>
        <time>2023-11-22T14:46:21Z</time>
      </trkpt>
      <trkpt lat="50.02058" lon="2.32983">
        <ele>130.5</ele>
        <time>2023-11-22T14:46:22Z</time>
      </trkpt>
      <trkpt lat="50.02057" lon="2.32982">
        <ele>130.5</ele>
        <time>2023-11-22T14:46:23Z</time>
      </trkpt>
      <trkpt lat="50.02056" lon="2.32982">
        <ele>130.5</ele>
        <time>2023-11-22T14:46:24Z</time>
      </trkpt>
      <trkpt lat="50.02055" lon="2.32982">
        <ele>130.5</ele>
        <time>2023-11-22T14:46:25Z</time>
      </trkpt>
      <trkpt lat="50.02054" lon="2.32981">
        <ele>130.5</ele>
        <time>2023-11-22T14:46:26Z</time>
      </trkpt>
      <trkpt lat="50.02053" lon="2.3298">
        <ele>130.6</ele>
        <time>2023-11-22T14:46:27Z</time>
      </trkpt>
      <trkpt lat="50.02052" lon="2.3298">
        <ele>130.6</ele>
        <time>2023-11-22T14:46:28Z</time>
      </trkpt>
      <trkpt lat="50.02051" lon="2.32979">
        <ele>130.6</ele>
        <time>2023-11-22T14:46:29Z</time>
      </trkpt>
      <trkpt lat="50.0205" lon="2.32978">
        <ele>130.6</ele>
        <time>2023-11-22T14:46:30Z</time>
      </trkpt>
      <trkpt lat="50.02049" lon="2.32977">
        <ele>130.6</ele>
        <time>2023-11-22T14:46:31Z</time>
      </trkpt>
      <trkpt lat="50.02048" lon="2.32976">
        <ele>130.7</ele>
        <time>2023-11-22T14:46:32Z</time>
      </trkpt>
      <trkpt lat="50.02048" lon="2.32975">
        <ele>130.7</ele>
        <time>2023-11-22T14:46:33Z</time>
      </trkpt>
      <trkpt lat="50.02047" lon="2.32975">
        <ele>130.7</ele>
        <time>2023-11-22T14:46:34Z</time>
      </trkpt>
      <trkpt lat="50.02046" lon="2.32974">
        <ele>130.7</ele>
        <time>2023-11-22T14:46:35Z</time>
      </trkpt>
      <trkpt lat="50.02046" lon="2.32973">
        <ele>130.7</ele>
        <time>2023-11-22T14:46:36Z</time>
      </trkpt>
      <trkpt lat="50.02045" lon="2.32972">
        <ele>130.7</ele>
        <time>2023-11-22T14:46:37Z</time>
      </trkpt>
      <trkpt lat="50.02044" lon="2.32971">
        <ele>130.7</ele>
        <time>2023-11-22T14:46:38Z</time>
      </trkpt>
      <trkpt lat="50.02043" lon="2.3297">
        <ele>130.8</ele>
        <time>2023-11-22T14:46:39Z</time>
      </trkpt>
      <trkpt lat="50.02042" lon="2.32969">
        <ele>130.8</ele>
        <time>2023-11-22T14:46:40Z</time>
      </trkpt>
      <trkpt lat="50.02041" lon="2.32968">
        <ele>130.8</ele>
        <time>2023-11-22T14:46:41Z</time>
      </trkpt>
      <trkpt lat="50.0204" lon="2.32967">
        <ele>130.8</ele>
        <time>2023-11-22T14:46:42Z</time>
      </trkpt>
      <trkpt lat="50.02039" lon="2.32967">
        <ele>130.8</ele>
        <time>2023-11-22T14:46:43Z</time>
      </trkpt>
      <trkpt lat="50.02038" lon="2.32966">
        <ele>130.8</ele>
        <time>2023-11-22T14:46:44Z</time>
      </trkpt>
      <trkpt lat="50.02037" lon="2.32965">
        <ele>130.8</ele>
        <time>2023-11-22T14:46:45Z</time>
      </trkpt>
      <trkpt lat="50.02036" lon="2.32964">
        <ele>130.8</ele>
        <time>2023-11-22T14:46:46Z</time>
      </trkpt>
      <trkpt lat="50.02036" lon="2.32963">
        <ele>130.9</ele>
        <time>2023-11-22T14:46:47Z</time>
      </trkpt>
      <trkpt lat="50.02035" lon="2.32962">
        <ele>130.9</ele>
        <time>2023-11-22T14:46:48Z</time>
      </trkpt>
      <trkpt lat="50.02034" lon="2.32962">
        <ele>130.9</ele>
        <time>2023-11-22T14:46:49Z</time>
      </trkpt>
      <trkpt lat="50.02032" lon="2.32961">
        <ele>130.9</ele>
        <time>2023-11-22T14:46:50Z</time>
      </trkpt>
      <trkpt lat="50.02031" lon="2.3296">
        <ele>130.9</ele>
        <time>2023-11-22T14:46:51Z</time>
      </trkpt>
      <trkpt lat="50.0203" lon="2.32959">
        <ele>130.9</ele>
        <time>2023-11-22T14:46:52Z</time>
      </trkpt>
      <trkpt lat="50.02029" lon="2.32958">
        <ele>131</ele>
        <time>2023-11-22T14:46:53Z</time>
      </trkpt>
      <trkpt lat="50.02029" lon="2.32957">
        <ele>131</ele>
        <time>2023-11-22T14:46:54Z</time>
      </trkpt>
      <trkpt lat="50.02028" lon="2.32956">
        <ele>131</ele>
        <time>2023-11-22T14:46:55Z</time>
      </trkpt>
      <trkpt lat="50.02027" lon="2.32956">
        <ele>131</ele>
        <time>2023-11-22T14:46:56Z</time>
      </trkpt>
      <trkpt lat="50.02026" lon="2.32955">
        <ele>131</ele>
        <time>2023-11-22T14:46:57Z</time>
      </trkpt>
      <trkpt lat="50.02025" lon="2.32954">
        <ele>131.1</ele>
        <time>2023-11-22T14:46:58Z</time>
      </trkpt>
      <trkpt lat="50.02024" lon="2.32953">
        <ele>131.1</ele>
        <time>2023-11-22T14:46:59Z</time>
      </trkpt>
      <trkpt lat="50.02023" lon="2.32952">
        <ele>131.1</ele>
        <time>2023-11-22T14:47:00Z</time>
      </trkpt>
      <trkpt lat="50.02022" lon="2.32951">
        <ele>131.1</ele>
        <time>2023-11-22T14:47:01Z</time>
      </trkpt>
      <trkpt lat="50.02021" lon="2.3295">
        <ele>131.1</ele>
        <time>2023-11-22T14:47:02Z</time>
      </trkpt>
      <trkpt lat="50.02021" lon="2.32949">
        <ele>131.2</ele>
        <time>2023-11-22T14:47:03Z</time>
      </trkpt>
      <trkpt lat="50.0202" lon="2.32948">
        <ele>131.2</ele>
        <time>2023-11-22T14:47:04Z</time>
      </trkpt>
      <trkpt lat="50.02019" lon="2.32948">
        <ele>131.2</ele>
        <time>2023-11-22T14:47:05Z</time>
      </trkpt>
      <trkpt lat="50.02018" lon="2.32947">
        <ele>131.2</ele>
        <time>2023-11-22T14:47:06Z</time>
      </trkpt>
      <trkpt lat="50.02018" lon="2.32946">
        <ele>131.2</ele>
        <time>2023-11-22T14:47:07Z</time>
      </trkpt>
      <trkpt lat="50.02017" lon="2.32945">
        <ele>131.3</ele>
        <time>2023-11-22T14:47:08Z</time>
      </trkpt>
      <trkpt lat="50.02016" lon="2.32944">
        <ele>131.3</ele>
        <time>2023-11-22T14:47:09Z</time>
      </trkpt>
      <trkpt lat="50.02015" lon="2.32943">
        <ele>131.3</ele>
        <time>2023-11-22T14:47:10Z</time>
      </trkpt>
      <trkpt lat="50.02014" lon="2.32942">
        <ele>131.3</ele>
        <time>2023-11-22T14:47:11Z</time>
      </trkpt>
      <trkpt lat="50.02014" lon="2.32941">
        <ele>131.3</ele>
        <time>2023-11-22T14:47:12Z</time>
      </trkpt>
      <trkpt lat="50.02013" lon="2.3294">
        <ele>131.3</ele>
        <time>2023-11-22T14:47:13Z</time>
      </trkpt>
      <trkpt lat="50.02012" lon="2.32939">
        <ele>131.3</ele>
        <time>2023-11-22T14:47:14Z</time>
      </trkpt>
      <trkpt lat="50.02011" lon="2.32938">
        <ele>131.4</ele>
        <time>2023-11-22T14:47:15Z</time>
      </trkpt>
      <trkpt lat="50.0201" lon="2.32937">
        <ele>131.4</ele>
        <time>2023-11-22T14:47:16Z</time>
      </trkpt>
      <trkpt lat="50.0201" lon="2.32936">
        <ele>131.4</ele>
        <time>2023-11-22T14:47:17Z</time>
      </trkpt>
      <trkpt lat="50.02009" lon="2.32936">
        <ele>131.4</ele>
        <time>2023-11-22T14:47:18Z</time>
      </trkpt>
      <trkpt lat="50.02008" lon="2.32935">
        <ele>131.4</ele>
        <time>2023-11-22T14:47:19Z</time>
      </trkpt>
      <trkpt lat="50.02007" lon="2.32934">
        <ele>131.4</ele>
        <time>2023-11-22T14:47:20Z</time>
      </trkpt>
      <trkpt lat="50.02006" lon="2.32933">
        <ele>131.4</ele>
        <time>2023-11-22T14:47:21Z</time>
      </trkpt>
      <trkpt lat="50.02006" lon="2.32932">
        <ele>131.4</ele>
        <time>2023-11-22T14:47:22Z</time>
      </trkpt>
      <trkpt lat="50.02005" lon="2.32931">
        <ele>131.4</ele>
        <time>2023-11-22T14:47:23Z</time>
      </trkpt>
      <trkpt lat="50.02004" lon="2.3293">
        <ele>131.5</ele>
        <time>2023-11-22T14:47:24Z</time>
      </trkpt>
      <trkpt lat="50.02003" lon="2.32929">
        <ele>131.5</ele>
        <time>2023-11-22T14:47:25Z</time>
      </trkpt>
      <trkpt lat="50.02002" lon="2.32928">
        <ele>131.5</ele>
        <time>2023-11-22T14:47:26Z</time>
      </trkpt>
      <trkpt lat="50.02001" lon="2.32927">
        <ele>131.5</ele>
        <time>2023-11-22T14:47:27Z</time>
      </trkpt>
      <trkpt lat="50.02001" lon="2.32926">
        <ele>131.5</ele>
        <time>2023-11-22T14:47:28Z</time>
      </trkpt>
      <trkpt lat="50.02" lon="2.32925">
        <ele>131.5</ele>
        <time>2023-11-22T14:47:29Z</time>
      </trkpt>
      <trkpt lat="50.01999" lon="2.32925">
        <ele>131.5</ele>
        <time>2023-11-22T14:47:30Z</time>
      </trkpt>
      <trkpt lat="50.01998" lon="2.32924">
        <ele>131.5</ele>
        <time>2023-11-22T14:47:31Z</time>
      </trkpt>
      <trkpt lat="50.01997" lon="2.32923">
        <ele>131.5</ele>
        <time>2023-11-22T14:47:32Z</time>
      </trkpt>
      <trkpt lat="50.01996" lon="2.32922">
        <ele>131.5</ele>
        <time>2023-11-22T14:47:33Z</time>
      </trkpt>
      <trkpt lat="50.01995" lon="2.32921">
        <ele>131.5</ele>
        <time>2023-11-22T14:47:34Z</time>
      </trkpt>
      <trkpt lat="50.01994" lon="2.3292">
        <ele>131.5</ele>
        <time>2023-11-22T14:47:35Z</time>
      </trkpt>
      <trkpt lat="50.01993" lon="2.32919">
        <ele>131.5</ele>
        <time>2023-11-22T14:47:36Z</time>
      </trkpt>
      <trkpt lat="50.01992" lon="2.32918">
        <ele>131.5</ele>
        <time>2023-11-22T14:47:37Z</time>
      </trkpt>
      <trkpt lat="50.01991" lon="2.32917">
        <ele>131.5</ele>
        <time>2023-11-22T14:47:38Z</time>
      </trkpt>
      <trkpt lat="50.0199" lon="2.32917">
        <ele>131.5</ele>
        <time>2023-11-22T14:47:39Z</time>
      </trkpt>
      <trkpt lat="50.01989" lon="2.32916">
        <ele>131.5</ele>
        <time>2023-11-22T14:47:40Z</time>
      </trkpt>
      <trkpt lat="50.01988" lon="2.32915">
        <ele>131.5</ele>
        <time>2023-11-22T14:47:41Z</time>
      </trkpt>
      <trkpt lat="50.01987" lon="2.32914">
        <ele>131.5</ele>
        <time>2023-11-22T14:47:42Z</time>
      </trkpt>
      <trkpt lat="50.01986" lon="2.32913">
        <ele>131.5</ele>
        <time>2023-11-22T14:47:43Z</time>
      </trkpt>
      <trkpt lat="50.01985" lon="2.32912">
        <ele>131.5</ele>
        <time>2023-11-22T14:47:44Z</time>
      </trkpt>
      <trkpt lat="50.01984" lon="2.32911">
        <ele>131.5</ele>
        <time>2023-11-22T14:47:45Z</time>
      </trkpt>
      <trkpt lat="50.01983" lon="2.3291">
        <ele>131.5</ele>
        <time>2023-11-22T14:47:46Z</time>
      </trkpt>
      <trkpt lat="50.01982" lon="2.3291">
        <ele>131.5</ele>
        <time>2023-11-22T14:47:47Z</time>
      </trkpt>
      <trkpt lat="50.01981" lon="2.32909">
        <ele>131.5</ele>
        <time>2023-11-22T14:47:48Z</time>
      </trkpt>
      <trkpt lat="50.0198" lon="2.32908">
        <ele>131.5</ele>
        <time>2023-11-22T14:47:49Z</time>
      </trkpt>
      <trkpt lat="50.01979" lon="2.32908">
        <ele>131.5</ele>
        <time>2023-11-22T14:47:50Z</time>
      </trkpt>
      <trkpt lat="50.01977" lon="2.32906">
        <ele>131.4</ele>
        <time>2023-11-22T14:47:51Z</time>
      </trkpt>
      <trkpt lat="50.01977" lon="2.32906">
        <ele>131.4</ele>
        <time>2023-11-22T14:47:52Z</time>
      </trkpt>
      <trkpt lat="50.01976" lon="2.32905">
        <ele>131.4</ele>
        <time>2023-11-22T14:47:53Z</time>
      </trkpt>
      <trkpt lat="50.01974" lon="2.32903">
        <ele>131.4</ele>
        <time>2023-11-22T14:47:54Z</time>
      </trkpt>
      <trkpt lat="50.01974" lon="2.32902">
        <ele>131.4</ele>
        <time>2023-11-22T14:47:55Z</time>
      </trkpt>
      <trkpt lat="50.01973" lon="2.32902">
        <ele>131.4</ele>
        <time>2023-11-22T14:47:56Z</time>
      </trkpt>
      <trkpt lat="50.01972" lon="2.32901">
        <ele>131.4</ele>
        <time>2023-11-22T14:47:57Z</time>
      </trkpt>
      <trkpt lat="50.01971" lon="2.329">
        <ele>131.4</ele>
        <time>2023-11-22T14:47:58Z</time>
      </trkpt>
      <trkpt lat="50.01971" lon="2.32899">
        <ele>131.4</ele>
        <time>2023-11-22T14:47:59Z</time>
      </trkpt>
      <trkpt lat="50.0197" lon="2.32898">
        <ele>131.4</ele>
        <time>2023-11-22T14:48:00Z</time>
      </trkpt>
      <trkpt lat="50.01969" lon="2.32897">
        <ele>131.4</ele>
        <time>2023-11-22T14:48:01Z</time>
      </trkpt>
      <trkpt lat="50.01968" lon="2.32896">
        <ele>131.4</ele>
        <time>2023-11-22T14:48:02Z</time>
      </trkpt>
      <trkpt lat="50.01967" lon="2.32895">
        <ele>131.4</ele>
        <time>2023-11-22T14:48:03Z</time>
      </trkpt>
      <trkpt lat="50.01966" lon="2.32894">
        <ele>131.4</ele>
        <time>2023-11-22T14:48:04Z</time>
      </trkpt>
      <trkpt lat="50.01966" lon="2.32894">
        <ele>131.4</ele>
        <time>2023-11-22T14:48:05Z</time>
      </trkpt>
      <trkpt lat="50.01965" lon="2.32893">
        <ele>131.3</ele>
        <time>2023-11-22T14:48:06Z</time>
      </trkpt>
      <trkpt lat="50.01965" lon="2.32892">
        <ele>131.3</ele>
        <time>2023-11-22T14:48:07Z</time>
      </trkpt>
      <trkpt lat="50.01964" lon="2.32891">
        <ele>131.3</ele>
        <time>2023-11-22T14:48:08Z</time>
      </trkpt>
      <trkpt lat="50.01963" lon="2.3289">
        <ele>131.3</ele>
        <time>2023-11-22T14:48:09Z</time>
      </trkpt>
      <trkpt lat="50.01962" lon="2.32889">
        <ele>131.3</ele>
        <time>2023-11-22T14:48:10Z</time>
      </trkpt>
      <trkpt lat="50.01962" lon="2.32889">
        <ele>131.3</ele>
        <time>2023-11-22T14:48:11Z</time>
      </trkpt>
      <trkpt lat="50.01961" lon="2.32888">
        <ele>131.3</ele>
        <time>2023-11-22T14:48:12Z</time>
      </trkpt>
      <trkpt lat="50.0196" lon="2.32887">
        <ele>131.3</ele>
        <time>2023-11-22T14:48:13Z</time>
      </trkpt>
      <trkpt lat="50.01959" lon="2.32886">
        <ele>131.3</ele>
        <time>2023-11-22T14:48:14Z</time>
      </trkpt>
      <trkpt lat="50.01959" lon="2.32886">
        <ele>131.3</ele>
        <time>2023-11-22T14:48:15Z</time>
      </trkpt>
      <trkpt lat="50.01958" lon="2.32885">
        <ele>131.3</ele>
        <time>2023-11-22T14:48:16Z</time>
      </trkpt>
      <trkpt lat="50.01957" lon="2.32884">
        <ele>131.3</ele>
        <time>2023-11-22T14:48:17Z</time>
      </trkpt>
      <trkpt lat="50.01957" lon="2.32883">
        <ele>131.3</ele>
        <time>2023-11-22T14:48:18Z</time>
      </trkpt>
      <trkpt lat="50.01956" lon="2.32882">
        <ele>131.3</ele>
        <time>2023-11-22T14:48:19Z</time>
      </trkpt>
      <trkpt lat="50.01955" lon="2.32881">
        <ele>131.2</ele>
        <time>2023-11-22T14:48:20Z</time>
      </trkpt>
      <trkpt lat="50.01954" lon="2.3288">
        <ele>131.2</ele>
        <time>2023-11-22T14:48:21Z</time>
      </trkpt>
      <trkpt lat="50.01953" lon="2.32879">
        <ele>131.2</ele>
        <time>2023-11-22T14:48:22Z</time>
      </trkpt>
      <trkpt lat="50.01953" lon="2.32878">
        <ele>131.2</ele>
        <time>2023-11-22T14:48:23Z</time>
      </trkpt>
      <trkpt lat="50.01952" lon="2.32877">
        <ele>131.2</ele>
        <time>2023-11-22T14:48:24Z</time>
      </trkpt>
      <trkpt lat="50.01951" lon="2.32876">
        <ele>131.2</ele>
        <time>2023-11-22T14:48:25Z</time>
      </trkpt>
      <trkpt lat="50.0195" lon="2.32875">
        <ele>131.2</ele>
        <time>2023-11-22T14:48:26Z</time>
      </trkpt>
      <trkpt lat="50.01949" lon="2.32874">
        <ele>131.2</ele>
        <time>2023-11-22T14:48:27Z</time>
      </trkpt>
      <trkpt lat="50.01948" lon="2.32873">
        <ele>131.2</ele>
        <time>2023-11-22T14:48:28Z</time>
      </trkpt>
      <trkpt lat="50.01947" lon="2.32873">
        <ele>131.2</ele>
        <time>2023-11-22T14:48:29Z</time>
      </trkpt>
      <trkpt lat="50.01946" lon="2.32872">
        <ele>131.2</ele>
        <time>2023-11-22T14:48:30Z</time>
      </trkpt>
      <trkpt lat="50.01946" lon="2.32871">
        <ele>131.2</ele>
        <time>2023-11-22T14:48:31Z</time>
      </trkpt>
      <trkpt lat="50.01945" lon="2.3287">
        <ele>131.1</ele>
        <time>2023-11-22T14:48:32Z</time>
      </trkpt>
      <trkpt lat="50.01944" lon="2.32869">
        <ele>131.1</ele>
        <time>2023-11-22T14:48:33Z</time>
      </trkpt>
      <trkpt lat="50.01943" lon="2.32868">
        <ele>131.1</ele>
        <time>2023-11-22T14:48:34Z</time>
      </trkpt>
      <trkpt lat="50.01942" lon="2.32867">
        <ele>131.1</ele>
        <time>2023-11-22T14:48:35Z</time>
      </trkpt>
      <trkpt lat="50.01941" lon="2.32866">
        <ele>131.1</ele>
        <time>2023-11-22T14:48:36Z</time>
      </trkpt>
      <trkpt lat="50.0194" lon="2.32865">
        <ele>131.1</ele>
        <time>2023-11-22T14:48:37Z</time>
      </trkpt>
      <trkpt lat="50.0194" lon="2.32864">
        <ele>131.1</ele>
        <time>2023-11-22T14:48:38Z</time>
      </trkpt>
      <trkpt lat="50.01939" lon="2.32864">
        <ele>131.1</ele>
        <time>2023-11-22T14:48:39Z</time>
      </trkpt>
      <trkpt lat="50.01938" lon="2.32863">
        <ele>131.1</ele>
        <time>2023-11-22T14:48:40Z</time>
      </trkpt>
      <trkpt lat="50.01937" lon="2.32862">
        <ele>131.1</ele>
        <time>2023-11-22T14:48:41Z</time>
      </trkpt>
      <trkpt lat="50.01936" lon="2.32861">
        <ele>131.1</ele>
        <time>2023-11-22T14:48:42Z</time>
      </trkpt>
      <trkpt lat="50.01936" lon="2.3286">
        <ele>131</ele>
        <time>2023-11-22T14:48:43Z</time>
      </trkpt>
      <trkpt lat="50.01935" lon="2.32859">
        <ele>131</ele>
        <time>2023-11-22T14:48:44Z</time>
      </trkpt>
      <trkpt lat="50.01934" lon="2.32858">
        <ele>131</ele>
        <time>2023-11-22T14:48:45Z</time>
      </trkpt>
      <trkpt lat="50.01933" lon="2.32857">
        <ele>131</ele>
        <time>2023-11-22T14:48:46Z</time>
      </trkpt>
      <trkpt lat="50.01932" lon="2.32856">
        <ele>131</ele>
        <time>2023-11-22T14:48:47Z</time>
      </trkpt>
      <trkpt lat="50.01931" lon="2.32856">
        <ele>131</ele>
        <time>2023-11-22T14:48:48Z</time>
      </trkpt>
      <trkpt lat="50.0193" lon="2.32855">
        <ele>131</ele>
        <time>2023-11-22T14:48:49Z</time>
      </trkpt>
      <trkpt lat="50.01929" lon="2.32854">
        <ele>131</ele>
        <time>2023-11-22T14:48:50Z</time>
      </trkpt>
      <trkpt lat="50.01928" lon="2.32853">
        <ele>131</ele>
        <time>2023-11-22T14:48:51Z</time>
      </trkpt>
      <trkpt lat="50.01928" lon="2.32852">
        <ele>131</ele>
        <time>2023-11-22T14:48:52Z</time>
      </trkpt>
      <trkpt lat="50.01927" lon="2.32851">
        <ele>130.9</ele>
        <time>2023-11-22T14:48:53Z</time>
      </trkpt>
      <trkpt lat="50.01926" lon="2.3285">
        <ele>130.9</ele>
        <time>2023-11-22T14:48:54Z</time>
      </trkpt>
      <trkpt lat="50.01925" lon="2.32849">
        <ele>130.9</ele>
        <time>2023-11-22T14:48:55Z</time>
      </trkpt>
      <trkpt lat="50.01924" lon="2.32848">
        <ele>130.9</ele>
        <time>2023-11-22T14:48:56Z</time>
      </trkpt>
      <trkpt lat="50.01923" lon="2.32847">
        <ele>130.9</ele>
        <time>2023-11-22T14:48:57Z</time>
      </trkpt>
      <trkpt lat="50.01923" lon="2.32846">
        <ele>130.9</ele>
        <time>2023-11-22T14:48:58Z</time>
      </trkpt>
      <trkpt lat="50.01922" lon="2.32845">
        <ele>130.9</ele>
        <time>2023-11-22T14:48:59Z</time>
      </trkpt>
      <trkpt lat="50.01921" lon="2.32845">
        <ele>130.9</ele>
        <time>2023-11-22T14:49:00Z</time>
      </trkpt>
      <trkpt lat="50.0192" lon="2.32844">
        <ele>130.9</ele>
        <time>2023-11-22T14:49:01Z</time>
      </trkpt>
      <trkpt lat="50.01919" lon="2.32843">
        <ele>130.9</ele>
        <time>2023-11-22T14:49:02Z</time>
      </trkpt>
      <trkpt lat="50.01918" lon="2.32842">
        <ele>130.9</ele>
        <time>2023-11-22T14:49:03Z</time>
      </trkpt>
      <trkpt lat="50.01917" lon="2.32841">
        <ele>130.8</ele>
        <time>2023-11-22T14:49:04Z</time>
      </trkpt>
      <trkpt lat="50.01916" lon="2.32841">
        <ele>130.8</ele>
        <time>2023-11-22T14:49:05Z</time>
      </trkpt>
      <trkpt lat="50.01914" lon="2.32839">
        <ele>130.8</ele>
        <time>2023-11-22T14:49:06Z</time>
      </trkpt>
      <trkpt lat="50.01913" lon="2.32839">
        <ele>130.8</ele>
        <time>2023-11-22T14:49:07Z</time>
      </trkpt>
      <trkpt lat="50.01913" lon="2.32838">
        <ele>130.8</ele>
        <time>2023-11-22T14:49:08Z</time>
      </trkpt>
      <trkpt lat="50.01911" lon="2.32838">
        <ele>130.8</ele>
        <time>2023-11-22T14:49:09Z</time>
      </trkpt>
      <trkpt lat="50.0191" lon="2.32837">
        <ele>130.8</ele>
        <time>2023-11-22T14:49:10Z</time>
      </trkpt>
      <trkpt lat="50.01909" lon="2.32836">
        <ele>130.8</ele>
        <time>2023-11-22T14:49:11Z</time>
      </trkpt>
      <trkpt lat="50.01908" lon="2.32836">
        <ele>130.8</ele>
        <time>2023-11-22T14:49:12Z</time>
      </trkpt>
      <trkpt lat="50.01908" lon="2.32835">
        <ele>130.8</ele>
        <time>2023-11-22T14:49:13Z</time>
      </trkpt>
      <trkpt lat="50.01907" lon="2.32834">
        <ele>130.8</ele>
        <time>2023-11-22T14:49:14Z</time>
      </trkpt>
      <trkpt lat="50.01906" lon="2.32833">
        <ele>130.7</ele>
        <time>2023-11-22T14:49:15Z</time>
      </trkpt>
      <trkpt lat="50.01905" lon="2.32832">
        <ele>130.7</ele>
        <time>2023-11-22T14:49:16Z</time>
      </trkpt>
      <trkpt lat="50.01904" lon="2.32831">
        <ele>130.7</ele>
        <time>2023-11-22T14:49:17Z</time>
      </trkpt>
      <trkpt lat="50.01903" lon="2.32831">
        <ele>130.7</ele>
        <time>2023-11-22T14:49:18Z</time>
      </trkpt>
      <trkpt lat="50.01902" lon="2.3283">
        <ele>130.7</ele>
        <time>2023-11-22T14:49:19Z</time>
      </trkpt>
      <trkpt lat="50.01901" lon="2.32829">
        <ele>130.7</ele>
        <time>2023-11-22T14:49:20Z</time>
      </trkpt>
      <trkpt lat="50.019" lon="2.32828">
        <ele>130.7</ele>
        <time>2023-11-22T14:49:21Z</time>
      </trkpt>
      <trkpt lat="50.01899" lon="2.32827">
        <ele>130.7</ele>
        <time>2023-11-22T14:49:22Z</time>
      </trkpt>
      <trkpt lat="50.01898" lon="2.32827">
        <ele>130.7</ele>
        <time>2023-11-22T14:49:23Z</time>
      </trkpt>
      <trkpt lat="50.01898" lon="2.32826">
        <ele>130.7</ele>
        <time>2023-11-22T14:49:24Z</time>
      </trkpt>
      <trkpt lat="50.01897" lon="2.32825">
        <ele>130.7</ele>
        <time>2023-11-22T14:49:25Z</time>
      </trkpt>
      <trkpt lat="50.01896" lon="2.32824">
        <ele>130.7</ele>
        <time>2023-11-22T14:49:26Z</time>
      </trkpt>
      <trkpt lat="50.01896" lon="2.32823">
        <ele>130.7</ele>
        <time>2023-11-22T14:49:27Z</time>
      </trkpt>
      <trkpt lat="50.01895" lon="2.32822">
        <ele>130.6</ele>
        <time>2023-11-22T14:49:28Z</time>
      </trkpt>
      <trkpt lat="50.01894" lon="2.32821">
        <ele>130.6</ele>
        <time>2023-11-22T14:49:29Z</time>
      </trkpt>
      <trkpt lat="50.01893" lon="2.3282">
        <ele>130.6</ele>
        <time>2023-11-22T14:49:30Z</time>
      </trkpt>
      <trkpt lat="50.01893" lon="2.32819">
        <ele>130.6</ele>
        <time>2023-11-22T14:49:31Z</time>
      </trkpt>
      <trkpt lat="50.01892" lon="2.32818">
        <ele>130.6</ele>
        <time>2023-11-22T14:49:32Z</time>
      </trkpt>
      <trkpt lat="50.01891" lon="2.32818">
        <ele>130.6</ele>
        <time>2023-11-22T14:49:33Z</time>
      </trkpt>
      <trkpt lat="50.0189" lon="2.32816">
        <ele>130.6</ele>
        <time>2023-11-22T14:49:34Z</time>
      </trkpt>
      <trkpt lat="50.0189" lon="2.32815">
        <ele>130.5</ele>
        <time>2023-11-22T14:49:35Z</time>
      </trkpt>
      <trkpt lat="50.01889" lon="2.32814">
        <ele>130.5</ele>
        <time>2023-11-22T14:49:36Z</time>
      </trkpt>
      <trkpt lat="50.01888" lon="2.32813">
        <ele>130.5</ele>
        <time>2023-11-22T14:49:37Z</time>
      </trkpt>
      <trkpt lat="50.01887" lon="2.32813">
        <ele>130.5</ele>
        <time>2023-11-22T14:49:38Z</time>
      </trkpt>
      <trkpt lat="50.01887" lon="2.32812">
        <ele>130.5</ele>
        <time>2023-11-22T14:49:39Z</time>
      </trkpt>
      <trkpt lat="50.01886" lon="2.32811">
        <ele>130.5</ele>
        <time>2023-11-22T14:49:40Z</time>
      </trkpt>
      <trkpt lat="50.01885" lon="2.32811">
        <ele>130.5</ele>
        <time>2023-11-22T14:49:41Z</time>
      </trkpt>
      <trkpt lat="50.01884" lon="2.3281">
        <ele>130.4</ele>
        <time>2023-11-22T14:49:42Z</time>
      </trkpt>
      <trkpt lat="50.01884" lon="2.32809">
        <ele>130.4</ele>
        <time>2023-11-22T14:49:43Z</time>
      </trkpt>
      <trkpt lat="50.01883" lon="2.32808">
        <ele>130.4</ele>
        <time>2023-11-22T14:49:44Z</time>
      </trkpt>
      <trkpt lat="50.01882" lon="2.32807">
        <ele>130.4</ele>
        <time>2023-11-22T14:49:45Z</time>
      </trkpt>
      <trkpt lat="50.01881" lon="2.32807">
        <ele>130.4</ele>
        <time>2023-11-22T14:49:46Z</time>
      </trkpt>
      <trkpt lat="50.0188" lon="2.32806">
        <ele>130.4</ele>
        <time>2023-11-22T14:49:47Z</time>
      </trkpt>
      <trkpt lat="50.0188" lon="2.32805">
        <ele>130.4</ele>
        <time>2023-11-22T14:49:48Z</time>
      </trkpt>
      <trkpt lat="50.01879" lon="2.32805">
        <ele>130.3</ele>
        <time>2023-11-22T14:49:49Z</time>
      </trkpt>
      <trkpt lat="50.01878" lon="2.32804">
        <ele>130.3</ele>
        <time>2023-11-22T14:49:50Z</time>
      </trkpt>
      <trkpt lat="50.01877" lon="2.32803">
        <ele>130.3</ele>
        <time>2023-11-22T14:49:51Z</time>
      </trkpt>
      <trkpt lat="50.01876" lon="2.32801">
        <ele>130.3</ele>
        <time>2023-11-22T14:49:52Z</time>
      </trkpt>
      <trkpt lat="50.01875" lon="2.328">
        <ele>130.3</ele>
        <time>2023-11-22T14:49:53Z</time>
      </trkpt>
      <trkpt lat="50.01874" lon="2.32799">
        <ele>130.3</ele>
        <time>2023-11-22T14:49:54Z</time>
      </trkpt>
      <trkpt lat="50.01874" lon="2.32798">
        <ele>130.3</ele>
        <time>2023-11-22T14:49:55Z</time>
      </trkpt>
      <trkpt lat="50.01873" lon="2.32797">
        <ele>130.2</ele>
        <time>2023-11-22T14:49:56Z</time>
      </trkpt>
      <trkpt lat="50.01872" lon="2.32796">
        <ele>130.2</ele>
        <time>2023-11-22T14:49:57Z</time>
      </trkpt>
      <trkpt lat="50.01871" lon="2.32795">
        <ele>130.2</ele>
        <time>2023-11-22T14:49:58Z</time>
      </trkpt>
      <trkpt lat="50.0187" lon="2.32794">
        <ele>130.2</ele>
        <time>2023-11-22T14:49:59Z</time>
      </trkpt>
      <trkpt lat="50.01869" lon="2.32793">
        <ele>130.2</ele>
        <time>2023-11-22T14:50:00Z</time>
      </trkpt>
      <trkpt lat="50.01869" lon="2.32792">
        <ele>130.2</ele>
        <time>2023-11-22T14:50:01Z</time>
      </trkpt>
      <trkpt lat="50.01868" lon="2.32792">
        <ele>130.2</ele>
        <time>2023-11-22T14:50:02Z</time>
      </trkpt>
      <trkpt lat="50.01867" lon="2.32791">
        <ele>130.2</ele>
        <time>2023-11-22T14:50:03Z</time>
      </trkpt>
      <trkpt lat="50.01866" lon="2.3279">
        <ele>130.2</ele>
        <time>2023-11-22T14:50:04Z</time>
      </trkpt>
      <trkpt lat="50.01865" lon="2.3279">
        <ele>130.2</ele>
        <time>2023-11-22T14:50:05Z</time>
      </trkpt>
      <trkpt lat="50.01864" lon="2.32789">
        <ele>130.2</ele>
        <time>2023-11-22T14:50:06Z</time>
      </trkpt>
      <trkpt lat="50.01863" lon="2.32789">
        <ele>130.2</ele>
        <time>2023-11-22T14:50:07Z</time>
      </trkpt>
      <trkpt lat="50.01863" lon="2.32788">
        <ele>130.2</ele>
        <time>2023-11-22T14:50:08Z</time>
      </trkpt>
      <trkpt lat="50.01862" lon="2.32788">
        <ele>130.2</ele>
        <time>2023-11-22T14:50:09Z</time>
      </trkpt>
      <trkpt lat="50.01861" lon="2.32787">
        <ele>130.2</ele>
        <time>2023-11-22T14:50:10Z</time>
      </trkpt>
      <trkpt lat="50.01861" lon="2.32786">
        <ele>130.2</ele>
        <time>2023-11-22T14:50:11Z</time>
      </trkpt>
      <trkpt lat="50.0186" lon="2.32786">
        <ele>130.2</ele>
        <time>2023-11-22T14:50:12Z</time>
      </trkpt>
      <trkpt lat="50.0186" lon="2.32785">
        <ele>130.2</ele>
        <time>2023-11-22T14:50:13Z</time>
      </trkpt>
      <trkpt lat="50.01859" lon="2.32784">
        <ele>130.2</ele>
        <time>2023-11-22T14:50:14Z</time>
      </trkpt>
      <trkpt lat="50.01859" lon="2.32783">
        <ele>130.2</ele>
        <time>2023-11-22T14:50:15Z</time>
      </trkpt>
      <trkpt lat="50.01858" lon="2.32782">
        <ele>130.2</ele>
        <time>2023-11-22T14:50:16Z</time>
      </trkpt>
      <trkpt lat="50.01858" lon="2.32781">
        <ele>130.2</ele>
        <time>2023-11-22T14:50:17Z</time>
      </trkpt>
      <trkpt lat="50.01857" lon="2.3278">
        <ele>130.1</ele>
        <time>2023-11-22T14:50:18Z</time>
      </trkpt>
      <trkpt lat="50.01856" lon="2.3278">
        <ele>130.1</ele>
        <time>2023-11-22T14:50:19Z</time>
      </trkpt>
      <trkpt lat="50.01856" lon="2.32779">
        <ele>130.1</ele>
        <time>2023-11-22T14:50:20Z</time>
      </trkpt>
      <trkpt lat="50.01855" lon="2.32778">
        <ele>130.1</ele>
        <time>2023-11-22T14:50:21Z</time>
      </trkpt>
      <trkpt lat="50.01855" lon="2.32778">
        <ele>130.1</ele>
        <time>2023-11-22T14:50:22Z</time>
      </trkpt>
      <trkpt lat="50.01854" lon="2.32777">
        <ele>130.1</ele>
        <time>2023-11-22T14:50:23Z</time>
      </trkpt>
      <trkpt lat="50.01853" lon="2.32776">
        <ele>130.1</ele>
        <time>2023-11-22T14:50:24Z</time>
      </trkpt>
      <trkpt lat="50.01852" lon="2.32776">
        <ele>130.1</ele>
        <time>2023-11-22T14:50:25Z</time>
      </trkpt>
      <trkpt lat="50.01852" lon="2.32775">
        <ele>130.1</ele>
        <time>2023-11-22T14:50:26Z</time>
      </trkpt>
      <trkpt lat="50.01851" lon="2.32774">
        <ele>130.1</ele>
        <time>2023-11-22T14:50:27Z</time>
      </trkpt>
      <trkpt lat="50.0185" lon="2.32773">
        <ele>130.1</ele>
        <time>2023-11-22T14:50:28Z</time>
      </trkpt>
      <trkpt lat="50.01849" lon="2.32772">
        <ele>130.1</ele>
        <time>2023-11-22T14:50:29Z</time>
      </trkpt>
      <trkpt lat="50.01848" lon="2.32771">
        <ele>130.1</ele>
        <time>2023-11-22T14:50:30Z</time>
      </trkpt>
      <trkpt lat="50.01848" lon="2.3277">
        <ele>130.1</ele>
        <time>2023-11-22T14:50:31Z</time>
      </trkpt>
      <trkpt lat="50.01847" lon="2.32769">
        <ele>130.1</ele>
        <time>2023-11-22T14:50:32Z</time>
      </trkpt>
      <trkpt lat="50.01846" lon="2.32768">
        <ele>130.1</ele>
        <time>2023-11-22T14:50:33Z</time>
      </trkpt>
      <trkpt lat="50.01846" lon="2.32767">
        <ele>130.1</ele>
        <time>2023-11-22T14:50:34Z</time>
      </trkpt>
      <trkpt lat="50.01845" lon="2.32766">
        <ele>130.1</ele>
        <time>2023-11-22T14:50:35Z</time>
      </trkpt>
      <trkpt lat="50.01844" lon="2.32764">
        <ele>130.1</ele>
        <time>2023-11-22T14:50:36Z</time>
      </trkpt>
      <trkpt lat="50.01843" lon="2.32764">
        <ele>130.1</ele>
        <time>2023-11-22T14:50:37Z</time>
      </trkpt>
      <trkpt lat="50.01843" lon="2.32763">
        <ele>130.1</ele>
        <time>2023-11-22T14:50:38Z</time>
      </trkpt>
      <trkpt lat="50.01842" lon="2.32762">
        <ele>130.1</ele>
        <time>2023-11-22T14:50:39Z</time>
      </trkpt>
      <trkpt lat="50.01841" lon="2.32761">
        <ele>130.1</ele>
        <time>2023-11-22T14:50:40Z</time>
      </trkpt>
      <trkpt lat="50.01841" lon="2.3276">
        <ele>130.1</ele>
        <time>2023-11-22T14:50:41Z</time>
      </trkpt>
      <trkpt lat="50.0184" lon="2.32759">
        <ele>130.1</ele>
        <time>2023-11-22T14:50:42Z</time>
      </trkpt>
      <trkpt lat="50.01839" lon="2.32759">
        <ele>130.1</ele>
        <time>2023-11-22T14:50:43Z</time>
      </trkpt>
      <trkpt lat="50.01838" lon="2.32758">
        <ele>130.1</ele>
        <time>2023-11-22T14:50:44Z</time>
      </trkpt>
      <trkpt lat="50.01838" lon="2.32758">
        <ele>130.1</ele>
        <time>2023-11-22T14:50:45Z</time>
      </trkpt>
      <trkpt lat="50.01837" lon="2.32758">
        <ele>130.1</ele>
        <time>2023-11-22T14:50:46Z</time>
      </trkpt>
      <trkpt lat="50.01836" lon="2.32758">
        <ele>130.1</ele>
        <time>2023-11-22T14:50:47Z</time>
      </trkpt>
      <trkpt lat="50.01835" lon="2.32758">
        <ele>130.1</ele>
        <time>2023-11-22T14:50:48Z</time>
      </trkpt>
      <trkpt lat="50.01834" lon="2.32759">
        <ele>130.1</ele>
        <time>2023-11-22T14:50:49Z</time>
      </trkpt>
      <trkpt lat="50.01834" lon="2.32759">
        <ele>130.1</ele>
        <time>2023-11-22T14:50:50Z</time>
      </trkpt>
      <trkpt lat="50.01833" lon="2.32759">
        <ele>130.1</ele>
        <time>2023-11-22T14:50:51Z</time>
      </trkpt>
      <trkpt lat="50.01832" lon="2.32759">
        <ele>130.1</ele>
        <time>2023-11-22T14:50:52Z</time>
      </trkpt>
      <trkpt lat="50.01832" lon="2.32758">
        <ele>130.1</ele>
        <time>2023-11-22T14:50:53Z</time>
      </trkpt>
      <trkpt lat="50.01831" lon="2.32757">
        <ele>130.1</ele>
        <time>2023-11-22T14:50:54Z</time>
      </trkpt>
      <trkpt lat="50.0183" lon="2.32757">
        <ele>130.1</ele>
        <time>2023-11-22T14:50:55Z</time>
      </trkpt>
      <trkpt lat="50.0183" lon="2.32756">
        <ele>130.1</ele>
        <time>2023-11-22T14:50:56Z</time>
      </trkpt>
      <trkpt lat="50.01829" lon="2.32755">
        <ele>130.1</ele>
        <time>2023-11-22T14:50:57Z</time>
      </trkpt>
      <trkpt lat="50.01829" lon="2.32754">
        <ele>130.1</ele>
        <time>2023-11-22T14:50:58Z</time>
      </trkpt>
      <trkpt lat="50.01828" lon="2.32753">
        <ele>130.1</ele>
        <time>2023-11-22T14:50:59Z</time>
      </trkpt>
      <trkpt lat="50.01827" lon="2.32751">
        <ele>130</ele>
        <time>2023-11-22T14:51:00Z</time>
      </trkpt>
      <trkpt lat="50.01826" lon="2.3275">
        <ele>130</ele>
        <time>2023-11-22T14:51:01Z</time>
      </trkpt>
      <trkpt lat="50.01825" lon="2.32749">
        <ele>130</ele>
        <time>2023-11-22T14:51:02Z</time>
      </trkpt>
      <trkpt lat="50.01824" lon="2.32748">
        <ele>130</ele>
        <time>2023-11-22T14:51:03Z</time>
      </trkpt>
      <trkpt lat="50.01824" lon="2.32747">
        <ele>130</ele>
        <time>2023-11-22T14:51:04Z</time>
      </trkpt>
      <trkpt lat="50.01823" lon="2.32745">
        <ele>130</ele>
        <time>2023-11-22T14:51:05Z</time>
      </trkpt>
      <trkpt lat="50.01822" lon="2.32744">
        <ele>130</ele>
        <time>2023-11-22T14:51:06Z</time>
      </trkpt>
      <trkpt lat="50.01821" lon="2.32743">
        <ele>130</ele>
        <time>2023-11-22T14:51:07Z</time>
      </trkpt>
      <trkpt lat="50.0182" lon="2.32742">
        <ele>130</ele>
        <time>2023-11-22T14:51:08Z</time>
      </trkpt>
      <trkpt lat="50.01819" lon="2.32741">
        <ele>129.9</ele>
        <time>2023-11-22T14:51:09Z</time>
      </trkpt>
      <trkpt lat="50.01819" lon="2.32741">
        <ele>129.9</ele>
        <time>2023-11-22T14:51:10Z</time>
      </trkpt>
      <trkpt lat="50.01818" lon="2.3274">
        <ele>129.9</ele>
        <time>2023-11-22T14:51:11Z</time>
      </trkpt>
      <trkpt lat="50.01817" lon="2.32739">
        <ele>129.9</ele>
        <time>2023-11-22T14:51:12Z</time>
      </trkpt>
      <trkpt lat="50.01816" lon="2.32738">
        <ele>129.9</ele>
        <time>2023-11-22T14:51:13Z</time>
      </trkpt>
      <trkpt lat="50.01815" lon="2.32737">
        <ele>129.9</ele>
        <time>2023-11-22T14:51:14Z</time>
      </trkpt>
      <trkpt lat="50.01814" lon="2.32736">
        <ele>129.9</ele>
        <time>2023-11-22T14:51:15Z</time>
      </trkpt>
      <trkpt lat="50.01813" lon="2.32735">
        <ele>129.9</ele>
        <time>2023-11-22T14:51:16Z</time>
      </trkpt>
      <trkpt lat="50.01812" lon="2.32734">
        <ele>129.9</ele>
        <time>2023-11-22T14:51:17Z</time>
      </trkpt>
      <trkpt lat="50.01812" lon="2.32733">
        <ele>129.8</ele>
        <time>2023-11-22T14:51:18Z</time>
      </trkpt>
      <trkpt lat="50.01811" lon="2.32732">
        <ele>129.8</ele>
        <time>2023-11-22T14:51:19Z</time>
      </trkpt>
      <trkpt lat="50.0181" lon="2.32732">
        <ele>129.8</ele>
        <time>2023-11-22T14:51:20Z</time>
      </trkpt>
      <trkpt lat="50.01809" lon="2.32731">
        <ele>129.8</ele>
        <time>2023-11-22T14:51:21Z</time>
      </trkpt>
      <trkpt lat="50.01809" lon="2.3273">
        <ele>129.8</ele>
        <time>2023-11-22T14:51:22Z</time>
      </trkpt>
      <trkpt lat="50.01808" lon="2.32729">
        <ele>129.8</ele>
        <time>2023-11-22T14:51:23Z</time>
      </trkpt>
      <trkpt lat="50.01807" lon="2.32728">
        <ele>129.8</ele>
        <time>2023-11-22T14:51:24Z</time>
      </trkpt>
      <trkpt lat="50.01806" lon="2.32728">
        <ele>129.8</ele>
        <time>2023-11-22T14:51:25Z</time>
      </trkpt>
      <trkpt lat="50.01805" lon="2.32727">
        <ele>129.8</ele>
        <time>2023-11-22T14:51:26Z</time>
      </trkpt>
      <trkpt lat="50.01805" lon="2.32726">
        <ele>129.8</ele>
        <time>2023-11-22T14:51:27Z</time>
      </trkpt>
      <trkpt lat="50.01804" lon="2.32726">
        <ele>129.8</ele>
        <time>2023-11-22T14:51:28Z</time>
      </trkpt>
      <trkpt lat="50.01803" lon="2.32725">
        <ele>129.8</ele>
        <time>2023-11-22T14:51:29Z</time>
      </trkpt>
      <trkpt lat="50.01802" lon="2.32724">
        <ele>129.8</ele>
        <time>2023-11-22T14:51:30Z</time>
      </trkpt>
      <trkpt lat="50.01801" lon="2.32723">
        <ele>129.8</ele>
        <time>2023-11-22T14:51:31Z</time>
      </trkpt>
      <trkpt lat="50.018" lon="2.32723">
        <ele>129.7</ele>
        <time>2023-11-22T14:51:32Z</time>
      </trkpt>
      <trkpt lat="50.01799" lon="2.32722">
        <ele>129.7</ele>
        <time>2023-11-22T14:51:33Z</time>
      </trkpt>
      <trkpt lat="50.01798" lon="2.32721">
        <ele>129.7</ele>
        <time>2023-11-22T14:51:34Z</time>
      </trkpt>
      <trkpt lat="50.01798" lon="2.3272">
        <ele>129.7</ele>
        <time>2023-11-22T14:51:35Z</time>
      </trkpt>
      <trkpt lat="50.01797" lon="2.32719">
        <ele>129.7</ele>
        <time>2023-11-22T14:51:36Z</time>
      </trkpt>
      <trkpt lat="50.01796" lon="2.32719">
        <ele>129.7</ele>
        <time>2023-11-22T14:51:37Z</time>
      </trkpt>
      <trkpt lat="50.01795" lon="2.32718">
        <ele>129.7</ele>
        <time>2023-11-22T14:51:38Z</time>
      </trkpt>
      <trkpt lat="50.01794" lon="2.32717">
        <ele>129.7</ele>
        <time>2023-11-22T14:51:39Z</time>
      </trkpt>
      <trkpt lat="50.01793" lon="2.32716">
        <ele>129.7</ele>
        <time>2023-11-22T14:51:40Z</time>
      </trkpt>
      <trkpt lat="50.01792" lon="2.32715">
        <ele>129.7</ele>
        <time>2023-11-22T14:51:41Z</time>
      </trkpt>
      <trkpt lat="50.01791" lon="2.32714">
        <ele>129.6</ele>
        <time>2023-11-22T14:51:42Z</time>
      </trkpt>
      <trkpt lat="50.0179" lon="2.32714">
        <ele>129.6</ele>
        <time>2023-11-22T14:51:43Z</time>
      </trkpt>
      <trkpt lat="50.0179" lon="2.32713">
        <ele>129.6</ele>
        <time>2023-11-22T14:51:44Z</time>
      </trkpt>
      <trkpt lat="50.01789" lon="2.32712">
        <ele>129.6</ele>
        <time>2023-11-22T14:51:45Z</time>
      </trkpt>
      <trkpt lat="50.01788" lon="2.32711">
        <ele>129.6</ele>
        <time>2023-11-22T14:51:46Z</time>
      </trkpt>
      <trkpt lat="50.01787" lon="2.3271">
        <ele>129.6</ele>
        <time>2023-11-22T14:51:47Z</time>
      </trkpt>
      <trkpt lat="50.01786" lon="2.32709">
        <ele>129.6</ele>
        <time>2023-11-22T14:51:48Z</time>
      </trkpt>
      <trkpt lat="50.01785" lon="2.32708">
        <ele>129.6</ele>
        <time>2023-11-22T14:51:49Z</time>
      </trkpt>
      <trkpt lat="50.01784" lon="2.32707">
        <ele>129.6</ele>
        <time>2023-11-22T14:51:50Z</time>
      </trkpt>
      <trkpt lat="50.01784" lon="2.32707">
        <ele>129.6</ele>
        <time>2023-11-22T14:51:51Z</time>
      </trkpt>
      <trkpt lat="50.01783" lon="2.32706">
        <ele>129.6</ele>
        <time>2023-11-22T14:51:52Z</time>
      </trkpt>
      <trkpt lat="50.01782" lon="2.32706">
        <ele>129.5</ele>
        <time>2023-11-22T14:51:53Z</time>
      </trkpt>
      <trkpt lat="50.01781" lon="2.32705">
        <ele>129.5</ele>
        <time>2023-11-22T14:51:54Z</time>
      </trkpt>
      <trkpt lat="50.01781" lon="2.32704">
        <ele>129.5</ele>
        <time>2023-11-22T14:51:55Z</time>
      </trkpt>
      <trkpt lat="50.0178" lon="2.32704">
        <ele>129.5</ele>
        <time>2023-11-22T14:51:56Z</time>
      </trkpt>
      <trkpt lat="50.0178" lon="2.32704">
        <ele>129.5</ele>
        <time>2023-11-22T14:51:57Z</time>
      </trkpt>
      <trkpt lat="50.01779" lon="2.32703">
        <ele>129.5</ele>
        <time>2023-11-22T14:51:58Z</time>
      </trkpt>
      <trkpt lat="50.01778" lon="2.32702">
        <ele>129.5</ele>
        <time>2023-11-22T14:51:59Z</time>
      </trkpt>
      <trkpt lat="50.01777" lon="2.32702">
        <ele>129.5</ele>
        <time>2023-11-22T14:52:00Z</time>
      </trkpt>
      <trkpt lat="50.01776" lon="2.32701">
        <ele>129.5</ele>
        <time>2023-11-22T14:52:01Z</time>
      </trkpt>
      <trkpt lat="50.01776" lon="2.327">
        <ele>129.5</ele>
        <time>2023-11-22T14:52:02Z</time>
      </trkpt>
      <trkpt lat="50.01775" lon="2.327">
        <ele>129.5</ele>
        <time>2023-11-22T14:52:03Z</time>
      </trkpt>
      <trkpt lat="50.01774" lon="2.32699">
        <ele>129.5</ele>
        <time>2023-11-22T14:52:04Z</time>
      </trkpt>
      <trkpt lat="50.01773" lon="2.32698">
        <ele>129.5</ele>
        <time>2023-11-22T14:52:05Z</time>
      </trkpt>
      <trkpt lat="50.01772" lon="2.32697">
        <ele>129.4</ele>
        <time>2023-11-22T14:52:06Z</time>
      </trkpt>
      <trkpt lat="50.01771" lon="2.32696">
        <ele>129.4</ele>
        <time>2023-11-22T14:52:07Z</time>
      </trkpt>
      <trkpt lat="50.0177" lon="2.32695">
        <ele>129.4</ele>
        <time>2023-11-22T14:52:08Z</time>
      </trkpt>
      <trkpt lat="50.01769" lon="2.32694">
        <ele>129.4</ele>
        <time>2023-11-22T14:52:09Z</time>
      </trkpt>
      <trkpt lat="50.01768" lon="2.32693">
        <ele>129.4</ele>
        <time>2023-11-22T14:52:10Z</time>
      </trkpt>
      <trkpt lat="50.01767" lon="2.32692">
        <ele>129.4</ele>
        <time>2023-11-22T14:52:11Z</time>
      </trkpt>
      <trkpt lat="50.01766" lon="2.32691">
        <ele>129.4</ele>
        <time>2023-11-22T14:52:12Z</time>
      </trkpt>
      <trkpt lat="50.01766" lon="2.3269">
        <ele>129.4</ele>
        <time>2023-11-22T14:52:13Z</time>
      </trkpt>
      <trkpt lat="50.01765" lon="2.32689">
        <ele>129.4</ele>
        <time>2023-11-22T14:52:14Z</time>
      </trkpt>
      <trkpt lat="50.01764" lon="2.32689">
        <ele>129.4</ele>
        <time>2023-11-22T14:52:15Z</time>
      </trkpt>
      <trkpt lat="50.01763" lon="2.32688">
        <ele>129.4</ele>
        <time>2023-11-22T14:52:16Z</time>
      </trkpt>
      <trkpt lat="50.01762" lon="2.32687">
        <ele>129.4</ele>
        <time>2023-11-22T14:52:17Z</time>
      </trkpt>
      <trkpt lat="50.01761" lon="2.32686">
        <ele>129.3</ele>
        <time>2023-11-22T14:52:18Z</time>
      </trkpt>
      <trkpt lat="50.0176" lon="2.32685">
        <ele>129.3</ele>
        <time>2023-11-22T14:52:19Z</time>
      </trkpt>
      <trkpt lat="50.01759" lon="2.32685">
        <ele>129.3</ele>
        <time>2023-11-22T14:52:20Z</time>
      </trkpt>
      <trkpt lat="50.01758" lon="2.32684">
        <ele>129.3</ele>
        <time>2023-11-22T14:52:21Z</time>
      </trkpt>
      <trkpt lat="50.01757" lon="2.32683">
        <ele>129.3</ele>
        <time>2023-11-22T14:52:22Z</time>
      </trkpt>
      <trkpt lat="50.01756" lon="2.32682">
        <ele>129.3</ele>
        <time>2023-11-22T14:52:23Z</time>
      </trkpt>
      <trkpt lat="50.01756" lon="2.32681">
        <ele>129.3</ele>
        <time>2023-11-22T14:52:24Z</time>
      </trkpt>
      <trkpt lat="50.01755" lon="2.3268">
        <ele>129.3</ele>
        <time>2023-11-22T14:52:25Z</time>
      </trkpt>
      <trkpt lat="50.01754" lon="2.32679">
        <ele>129.3</ele>
        <time>2023-11-22T14:52:26Z</time>
      </trkpt>
      <trkpt lat="50.01754" lon="2.32678">
        <ele>129.3</ele>
        <time>2023-11-22T14:52:27Z</time>
      </trkpt>
      <trkpt lat="50.01753" lon="2.32678">
        <ele>129.3</ele>
        <time>2023-11-22T14:52:28Z</time>
      </trkpt>
      <trkpt lat="50.01752" lon="2.32677">
        <ele>129.3</ele>
        <time>2023-11-22T14:52:29Z</time>
      </trkpt>
      <trkpt lat="50.01751" lon="2.32676">
        <ele>129.2</ele>
        <time>2023-11-22T14:52:30Z</time>
      </trkpt>
      <trkpt lat="50.0175" lon="2.32675">
        <ele>129.2</ele>
        <time>2023-11-22T14:52:31Z</time>
      </trkpt>
      <trkpt lat="50.01749" lon="2.32675">
        <ele>129.2</ele>
        <time>2023-11-22T14:52:32Z</time>
      </trkpt>
      <trkpt lat="50.01748" lon="2.32674">
        <ele>129.2</ele>
        <time>2023-11-22T14:52:33Z</time>
      </trkpt>
      <trkpt lat="50.01748" lon="2.32673">
        <ele>129.2</ele>
        <time>2023-11-22T14:52:34Z</time>
      </trkpt>
      <trkpt lat="50.01747" lon="2.32672">
        <ele>129.2</ele>
        <time>2023-11-22T14:52:35Z</time>
      </trkpt>
      <trkpt lat="50.01746" lon="2.32671">
        <ele>129.2</ele>
        <time>2023-11-22T14:52:36Z</time>
      </trkpt>
      <trkpt lat="50.01745" lon="2.3267">
        <ele>129.2</ele>
        <time>2023-11-22T14:52:37Z</time>
      </trkpt>
      <trkpt lat="50.01744" lon="2.32669">
        <ele>129.2</ele>
        <time>2023-11-22T14:52:38Z</time>
      </trkpt>
      <trkpt lat="50.01743" lon="2.32668">
        <ele>129.2</ele>
        <time>2023-11-22T14:52:39Z</time>
      </trkpt>
      <trkpt lat="50.01742" lon="2.32667">
        <ele>129.1</ele>
        <time>2023-11-22T14:52:40Z</time>
      </trkpt>
      <trkpt lat="50.01741" lon="2.32666">
        <ele>129.1</ele>
        <time>2023-11-22T14:52:41Z</time>
      </trkpt>
      <trkpt lat="50.01741" lon="2.32665">
        <ele>129.1</ele>
        <time>2023-11-22T14:52:42Z</time>
      </trkpt>
      <trkpt lat="50.0174" lon="2.32664">
        <ele>129.1</ele>
        <time>2023-11-22T14:52:43Z</time>
      </trkpt>
      <trkpt lat="50.01739" lon="2.32664">
        <ele>129.1</ele>
        <time>2023-11-22T14:52:44Z</time>
      </trkpt>
      <trkpt lat="50.01738" lon="2.32663">
        <ele>129.1</ele>
        <time>2023-11-22T14:52:45Z</time>
      </trkpt>
      <trkpt lat="50.01737" lon="2.32662">
        <ele>129.1</ele>
        <time>2023-11-22T14:52:46Z</time>
      </trkpt>
      <trkpt lat="50.01736" lon="2.32661">
        <ele>129.1</ele>
        <time>2023-11-22T14:52:47Z</time>
      </trkpt>
      <trkpt lat="50.01736" lon="2.3266">
        <ele>129.1</ele>
        <time>2023-11-22T14:52:48Z</time>
      </trkpt>
      <trkpt lat="50.01735" lon="2.3266">
        <ele>129.1</ele>
        <time>2023-11-22T14:52:49Z</time>
      </trkpt>
      <trkpt lat="50.01734" lon="2.32659">
        <ele>129.1</ele>
        <time>2023-11-22T14:52:50Z</time>
      </trkpt>
      <trkpt lat="50.01733" lon="2.32658">
        <ele>129</ele>
        <time>2023-11-22T14:52:51Z</time>
      </trkpt>
      <trkpt lat="50.01732" lon="2.32657">
        <ele>129</ele>
        <time>2023-11-22T14:52:52Z</time>
      </trkpt>
      <trkpt lat="50.01731" lon="2.32656">
        <ele>129</ele>
        <time>2023-11-22T14:52:53Z</time>
      </trkpt>
      <trkpt lat="50.0173" lon="2.32655">
        <ele>129</ele>
        <time>2023-11-22T14:52:54Z</time>
      </trkpt>
      <trkpt lat="50.0173" lon="2.32654">
        <ele>129</ele>
        <time>2023-11-22T14:52:55Z</time>
      </trkpt>
      <trkpt lat="50.01729" lon="2.32653">
        <ele>129</ele>
        <time>2023-11-22T14:52:56Z</time>
      </trkpt>
      <trkpt lat="50.01728" lon="2.32652">
        <ele>129</ele>
        <time>2023-11-22T14:52:57Z</time>
      </trkpt>
      <trkpt lat="50.01727" lon="2.32651">
        <ele>129</ele>
        <time>2023-11-22T14:52:58Z</time>
      </trkpt>
      <trkpt lat="50.01726" lon="2.32651">
        <ele>129</ele>
        <time>2023-11-22T14:52:59Z</time>
      </trkpt>
      <trkpt lat="50.01725" lon="2.3265">
        <ele>128.9</ele>
        <time>2023-11-22T14:53:00Z</time>
      </trkpt>
      <trkpt lat="50.01724" lon="2.32649">
        <ele>128.9</ele>
        <time>2023-11-22T14:53:01Z</time>
      </trkpt>
      <trkpt lat="50.01723" lon="2.32648">
        <ele>128.9</ele>
        <time>2023-11-22T14:53:02Z</time>
      </trkpt>
      <trkpt lat="50.01722" lon="2.32648">
        <ele>128.9</ele>
        <time>2023-11-22T14:53:03Z</time>
      </trkpt>
      <trkpt lat="50.01722" lon="2.32647">
        <ele>128.9</ele>
        <time>2023-11-22T14:53:04Z</time>
      </trkpt>
      <trkpt lat="50.01721" lon="2.32646">
        <ele>128.9</ele>
        <time>2023-11-22T14:53:05Z</time>
      </trkpt>
      <trkpt lat="50.0172" lon="2.32645">
        <ele>128.9</ele>
        <time>2023-11-22T14:53:06Z</time>
      </trkpt>
      <trkpt lat="50.01719" lon="2.32644">
        <ele>128.9</ele>
        <time>2023-11-22T14:53:07Z</time>
      </trkpt>
      <trkpt lat="50.01718" lon="2.32643">
        <ele>128.9</ele>
        <time>2023-11-22T14:53:08Z</time>
      </trkpt>
      <trkpt lat="50.01717" lon="2.32642">
        <ele>128.9</ele>
        <time>2023-11-22T14:53:09Z</time>
      </trkpt>
      <trkpt lat="50.01717" lon="2.32641">
        <ele>128.9</ele>
        <time>2023-11-22T14:53:10Z</time>
      </trkpt>
      <trkpt lat="50.01716" lon="2.3264">
        <ele>128.8</ele>
        <time>2023-11-22T14:53:11Z</time>
      </trkpt>
      <trkpt lat="50.01715" lon="2.32639">
        <ele>128.8</ele>
        <time>2023-11-22T14:53:12Z</time>
      </trkpt>
      <trkpt lat="50.01714" lon="2.32638">
        <ele>128.8</ele>
        <time>2023-11-22T14:53:13Z</time>
      </trkpt>
      <trkpt lat="50.01713" lon="2.32637">
        <ele>128.8</ele>
        <time>2023-11-22T14:53:14Z</time>
      </trkpt>
      <trkpt lat="50.01712" lon="2.32636">
        <ele>128.8</ele>
        <time>2023-11-22T14:53:15Z</time>
      </trkpt>
      <trkpt lat="50.01712" lon="2.32635">
        <ele>128.8</ele>
        <time>2023-11-22T14:53:16Z</time>
      </trkpt>
      <trkpt lat="50.01711" lon="2.32634">
        <ele>128.8</ele>
        <time>2023-11-22T14:53:17Z</time>
      </trkpt>
      <trkpt lat="50.0171" lon="2.32633">
        <ele>128.7</ele>
        <time>2023-11-22T14:53:18Z</time>
      </trkpt>
      <trkpt lat="50.01709" lon="2.32633">
        <ele>128.7</ele>
        <time>2023-11-22T14:53:19Z</time>
      </trkpt>
      <trkpt lat="50.01708" lon="2.32632">
        <ele>128.7</ele>
        <time>2023-11-22T14:53:20Z</time>
      </trkpt>
      <trkpt lat="50.01708" lon="2.32632">
        <ele>128.7</ele>
        <time>2023-11-22T14:53:21Z</time>
      </trkpt>
      <trkpt lat="50.01707" lon="2.32631">
        <ele>128.7</ele>
        <time>2023-11-22T14:53:22Z</time>
      </trkpt>
      <trkpt lat="50.01706" lon="2.3263">
        <ele>128.7</ele>
        <time>2023-11-22T14:53:23Z</time>
      </trkpt>
      <trkpt lat="50.01705" lon="2.32629">
        <ele>128.7</ele>
        <time>2023-11-22T14:53:24Z</time>
      </trkpt>
      <trkpt lat="50.01704" lon="2.32629">
        <ele>128.7</ele>
        <time>2023-11-22T14:53:25Z</time>
      </trkpt>
      <trkpt lat="50.01703" lon="2.32628">
        <ele>128.6</ele>
        <time>2023-11-22T14:53:26Z</time>
      </trkpt>
      <trkpt lat="50.01703" lon="2.32628">
        <ele>128.6</ele>
        <time>2023-11-22T14:53:27Z</time>
      </trkpt>
      <trkpt lat="50.01702" lon="2.32627">
        <ele>128.6</ele>
        <time>2023-11-22T14:53:28Z</time>
      </trkpt>
      <trkpt lat="50.01701" lon="2.32626">
        <ele>128.6</ele>
        <time>2023-11-22T14:53:29Z</time>
      </trkpt>
      <trkpt lat="50.017" lon="2.32625">
        <ele>128.6</ele>
        <time>2023-11-22T14:53:30Z</time>
      </trkpt>
      <trkpt lat="50.01699" lon="2.32624">
        <ele>128.6</ele>
        <time>2023-11-22T14:53:31Z</time>
      </trkpt>
      <trkpt lat="50.01697" lon="2.32623">
        <ele>128.5</ele>
        <time>2023-11-22T14:53:32Z</time>
      </trkpt>
      <trkpt lat="50.01696" lon="2.32622">
        <ele>128.5</ele>
        <time>2023-11-22T14:53:33Z</time>
      </trkpt>
      <trkpt lat="50.01695" lon="2.32622">
        <ele>128.5</ele>
        <time>2023-11-22T14:53:34Z</time>
      </trkpt>
      <trkpt lat="50.01694" lon="2.32621">
        <ele>128.5</ele>
        <time>2023-11-22T14:53:35Z</time>
      </trkpt>
      <trkpt lat="50.01693" lon="2.3262">
        <ele>128.5</ele>
        <time>2023-11-22T14:53:36Z</time>
      </trkpt>
      <trkpt lat="50.01693" lon="2.3262">
        <ele>128.5</ele>
        <time>2023-11-22T14:53:37Z</time>
      </trkpt>
      <trkpt lat="50.01692" lon="2.32619">
        <ele>128.5</ele>
        <time>2023-11-22T14:53:38Z</time>
      </trkpt>
      <trkpt lat="50.01691" lon="2.32618">
        <ele>128.5</ele>
        <time>2023-11-22T14:53:39Z</time>
      </trkpt>
      <trkpt lat="50.0169" lon="2.32617">
        <ele>128.5</ele>
        <time>2023-11-22T14:53:40Z</time>
      </trkpt>
      <trkpt lat="50.01688" lon="2.32615">
        <ele>128.4</ele>
        <time>2023-11-22T14:53:41Z</time>
      </trkpt>
      <trkpt lat="50.01687" lon="2.32615">
        <ele>128.4</ele>
        <time>2023-11-22T14:53:42Z</time>
      </trkpt>
      <trkpt lat="50.01686" lon="2.32614">
        <ele>128.4</ele>
        <time>2023-11-22T14:53:43Z</time>
      </trkpt>
      <trkpt lat="50.01685" lon="2.32613">
        <ele>128.4</ele>
        <time>2023-11-22T14:53:44Z</time>
      </trkpt>
      <trkpt lat="50.01685" lon="2.32612">
        <ele>128.4</ele>
        <time>2023-11-22T14:53:45Z</time>
      </trkpt>
      <trkpt lat="50.01684" lon="2.32611">
        <ele>128.4</ele>
        <time>2023-11-22T14:53:46Z</time>
      </trkpt>
      <trkpt lat="50.01683" lon="2.3261">
        <ele>128.4</ele>
        <time>2023-11-22T14:53:47Z</time>
      </trkpt>
      <trkpt lat="50.01682" lon="2.32609">
        <ele>128.4</ele>
        <time>2023-11-22T14:53:48Z</time>
      </trkpt>
      <trkpt lat="50.01681" lon="2.32608">
        <ele>128.4</ele>
        <time>2023-11-22T14:53:49Z</time>
      </trkpt>
      <trkpt lat="50.0168" lon="2.32607">
        <ele>128.4</ele>
        <time>2023-11-22T14:53:50Z</time>
      </trkpt>
      <trkpt lat="50.01679" lon="2.32606">
        <ele>128.3</ele>
        <time>2023-11-22T14:53:51Z</time>
      </trkpt>
      <trkpt lat="50.01678" lon="2.32605">
        <ele>128.3</ele>
        <time>2023-11-22T14:53:52Z</time>
      </trkpt>
      <trkpt lat="50.01677" lon="2.32604">
        <ele>128.3</ele>
        <time>2023-11-22T14:53:53Z</time>
      </trkpt>
      <trkpt lat="50.01676" lon="2.32603">
        <ele>128.3</ele>
        <time>2023-11-22T14:53:54Z</time>
      </trkpt>
      <trkpt lat="50.01675" lon="2.32602">
        <ele>128.3</ele>
        <time>2023-11-22T14:53:55Z</time>
      </trkpt>
      <trkpt lat="50.01675" lon="2.32601">
        <ele>128.3</ele>
        <time>2023-11-22T14:53:56Z</time>
      </trkpt>
      <trkpt lat="50.01674" lon="2.326">
        <ele>128.2</ele>
        <time>2023-11-22T14:53:57Z</time>
      </trkpt>
      <trkpt lat="50.01673" lon="2.32599">
        <ele>128.2</ele>
        <time>2023-11-22T14:53:58Z</time>
      </trkpt>
      <trkpt lat="50.01672" lon="2.32598">
        <ele>128.2</ele>
        <time>2023-11-22T14:53:59Z</time>
      </trkpt>
      <trkpt lat="50.01671" lon="2.32598">
        <ele>128.2</ele>
        <time>2023-11-22T14:54:00Z</time>
      </trkpt>
      <trkpt lat="50.0167" lon="2.32597">
        <ele>128.2</ele>
        <time>2023-11-22T14:54:01Z</time>
      </trkpt>
      <trkpt lat="50.01669" lon="2.32595">
        <ele>128.1</ele>
        <time>2023-11-22T14:54:02Z</time>
      </trkpt>
      <trkpt lat="50.01668" lon="2.32594">
        <ele>128.1</ele>
        <time>2023-11-22T14:54:03Z</time>
      </trkpt>
      <trkpt lat="50.01667" lon="2.32594">
        <ele>128.1</ele>
        <time>2023-11-22T14:54:04Z</time>
      </trkpt>
      <trkpt lat="50.01666" lon="2.32593">
        <ele>128.1</ele>
        <time>2023-11-22T14:54:05Z</time>
      </trkpt>
      <trkpt lat="50.01665" lon="2.32592">
        <ele>128.1</ele>
        <time>2023-11-22T14:54:06Z</time>
      </trkpt>
      <trkpt lat="50.01664" lon="2.32591">
        <ele>128.1</ele>
        <time>2023-11-22T14:54:07Z</time>
      </trkpt>
      <trkpt lat="50.01663" lon="2.3259">
        <ele>128.1</ele>
        <time>2023-11-22T14:54:08Z</time>
      </trkpt>
      <trkpt lat="50.01662" lon="2.32589">
        <ele>128</ele>
        <time>2023-11-22T14:54:09Z</time>
      </trkpt>
      <trkpt lat="50.01662" lon="2.32589">
        <ele>128</ele>
        <time>2023-11-22T14:54:10Z</time>
      </trkpt>
      <trkpt lat="50.0166" lon="2.32588">
        <ele>128</ele>
        <time>2023-11-22T14:54:11Z</time>
      </trkpt>
      <trkpt lat="50.01659" lon="2.32587">
        <ele>128</ele>
        <time>2023-11-22T14:54:12Z</time>
      </trkpt>
      <trkpt lat="50.01658" lon="2.32586">
        <ele>128</ele>
        <time>2023-11-22T14:54:13Z</time>
      </trkpt>
      <trkpt lat="50.01657" lon="2.32585">
        <ele>128</ele>
        <time>2023-11-22T14:54:14Z</time>
      </trkpt>
      <trkpt lat="50.01657" lon="2.32584">
        <ele>127.9</ele>
        <time>2023-11-22T14:54:15Z</time>
      </trkpt>
      <trkpt lat="50.01656" lon="2.32583">
        <ele>127.9</ele>
        <time>2023-11-22T14:54:16Z</time>
      </trkpt>
      <trkpt lat="50.01655" lon="2.32582">
        <ele>127.9</ele>
        <time>2023-11-22T14:54:17Z</time>
      </trkpt>
      <trkpt lat="50.01654" lon="2.32582">
        <ele>127.9</ele>
        <time>2023-11-22T14:54:18Z</time>
      </trkpt>
      <trkpt lat="50.01653" lon="2.32581">
        <ele>127.9</ele>
        <time>2023-11-22T14:54:19Z</time>
      </trkpt>
      <trkpt lat="50.01652" lon="2.3258">
        <ele>127.9</ele>
        <time>2023-11-22T14:54:20Z</time>
      </trkpt>
      <trkpt lat="50.01651" lon="2.32579">
        <ele>127.9</ele>
        <time>2023-11-22T14:54:21Z</time>
      </trkpt>
      <trkpt lat="50.0165" lon="2.32578">
        <ele>127.9</ele>
        <time>2023-11-22T14:54:22Z</time>
      </trkpt>
      <trkpt lat="50.0165" lon="2.32578">
        <ele>127.8</ele>
        <time>2023-11-22T14:54:23Z</time>
      </trkpt>
      <trkpt lat="50.01649" lon="2.32577">
        <ele>127.8</ele>
        <time>2023-11-22T14:54:24Z</time>
      </trkpt>
      <trkpt lat="50.01648" lon="2.32576">
        <ele>127.8</ele>
        <time>2023-11-22T14:54:25Z</time>
      </trkpt>
      <trkpt lat="50.01647" lon="2.32575">
        <ele>127.8</ele>
        <time>2023-11-22T14:54:26Z</time>
      </trkpt>
      <trkpt lat="50.01646" lon="2.32574">
        <ele>127.8</ele>
        <time>2023-11-22T14:54:27Z</time>
      </trkpt>
      <trkpt lat="50.01645" lon="2.32573">
        <ele>127.8</ele>
        <time>2023-11-22T14:54:28Z</time>
      </trkpt>
      <trkpt lat="50.01644" lon="2.32572">
        <ele>127.7</ele>
        <time>2023-11-22T14:54:29Z</time>
      </trkpt>
      <trkpt lat="50.01643" lon="2.32571">
        <ele>127.7</ele>
        <time>2023-11-22T14:54:30Z</time>
      </trkpt>
      <trkpt lat="50.01642" lon="2.3257">
        <ele>127.7</ele>
        <time>2023-11-22T14:54:31Z</time>
      </trkpt>
      <trkpt lat="50.01641" lon="2.32569">
        <ele>127.7</ele>
        <time>2023-11-22T14:54:32Z</time>
      </trkpt>
      <trkpt lat="50.0164" lon="2.32568">
        <ele>127.7</ele>
        <time>2023-11-22T14:54:33Z</time>
      </trkpt>
      <trkpt lat="50.0164" lon="2.32567">
        <ele>127.6</ele>
        <time>2023-11-22T14:54:34Z</time>
      </trkpt>
      <trkpt lat="50.01639" lon="2.32566">
        <ele>127.6</ele>
        <time>2023-11-22T14:54:35Z</time>
      </trkpt>
      <trkpt lat="50.01638" lon="2.32565">
        <ele>127.6</ele>
        <time>2023-11-22T14:54:36Z</time>
      </trkpt>
      <trkpt lat="50.01637" lon="2.32564">
        <ele>127.6</ele>
        <time>2023-11-22T14:54:37Z</time>
      </trkpt>
      <trkpt lat="50.01636" lon="2.32563">
        <ele>127.5</ele>
        <time>2023-11-22T14:54:38Z</time>
      </trkpt>
      <trkpt lat="50.01635" lon="2.32562">
        <ele>127.5</ele>
        <time>2023-11-22T14:54:39Z</time>
      </trkpt>
      <trkpt lat="50.01634" lon="2.32561">
        <ele>127.5</ele>
        <time>2023-11-22T14:54:40Z</time>
      </trkpt>
      <trkpt lat="50.01633" lon="2.3256">
        <ele>127.5</ele>
        <time>2023-11-22T14:54:41Z</time>
      </trkpt>
      <trkpt lat="50.01632" lon="2.32559">
        <ele>127.5</ele>
        <time>2023-11-22T14:54:42Z</time>
      </trkpt>
      <trkpt lat="50.01631" lon="2.32558">
        <ele>127.4</ele>
        <time>2023-11-22T14:54:43Z</time>
      </trkpt>
      <trkpt lat="50.0163" lon="2.32557">
        <ele>127.4</ele>
        <time>2023-11-22T14:54:44Z</time>
      </trkpt>
      <trkpt lat="50.01629" lon="2.32557">
        <ele>127.4</ele>
        <time>2023-11-22T14:54:45Z</time>
      </trkpt>
      <trkpt lat="50.01628" lon="2.32556">
        <ele>127.4</ele>
        <time>2023-11-22T14:54:46Z</time>
      </trkpt>
      <trkpt lat="50.01627" lon="2.32555">
        <ele>127.3</ele>
        <time>2023-11-22T14:54:47Z</time>
      </trkpt>
      <trkpt lat="50.01626" lon="2.32554">
        <ele>127.3</ele>
        <time>2023-11-22T14:54:48Z</time>
      </trkpt>
      <trkpt lat="50.01625" lon="2.32553">
        <ele>127.3</ele>
        <time>2023-11-22T14:54:49Z</time>
      </trkpt>
      <trkpt lat="50.01624" lon="2.32552">
        <ele>127.3</ele>
        <time>2023-11-22T14:54:50Z</time>
      </trkpt>
      <trkpt lat="50.01623" lon="2.32551">
        <ele>127.2</ele>
        <time>2023-11-22T14:54:51Z</time>
      </trkpt>
      <trkpt lat="50.01622" lon="2.3255">
        <ele>127.2</ele>
        <time>2023-11-22T14:54:52Z</time>
      </trkpt>
      <trkpt lat="50.01621" lon="2.32549">
        <ele>127.2</ele>
        <time>2023-11-22T14:54:53Z</time>
      </trkpt>
      <trkpt lat="50.0162" lon="2.32548">
        <ele>127.2</ele>
        <time>2023-11-22T14:54:54Z</time>
      </trkpt>
      <trkpt lat="50.01619" lon="2.32547">
        <ele>127.2</ele>
        <time>2023-11-22T14:54:55Z</time>
      </trkpt>
      <trkpt lat="50.01619" lon="2.32546">
        <ele>127.1</ele>
        <time>2023-11-22T14:54:56Z</time>
      </trkpt>
      <trkpt lat="50.01618" lon="2.32546">
        <ele>127.1</ele>
        <time>2023-11-22T14:54:57Z</time>
      </trkpt>
      <trkpt lat="50.01617" lon="2.32545">
        <ele>127.1</ele>
        <time>2023-11-22T14:54:58Z</time>
      </trkpt>
      <trkpt lat="50.01616" lon="2.32544">
        <ele>127.1</ele>
        <time>2023-11-22T14:54:59Z</time>
      </trkpt>
      <trkpt lat="50.01615" lon="2.32543">
        <ele>127</ele>
        <time>2023-11-22T14:55:00Z</time>
      </trkpt>
      <trkpt lat="50.01614" lon="2.32542">
        <ele>127</ele>
        <time>2023-11-22T14:55:01Z</time>
      </trkpt>
      <trkpt lat="50.01613" lon="2.32542">
        <ele>127</ele>
        <time>2023-11-22T14:55:02Z</time>
      </trkpt>
      <trkpt lat="50.01612" lon="2.32541">
        <ele>127</ele>
        <time>2023-11-22T14:55:03Z</time>
      </trkpt>
      <trkpt lat="50.01611" lon="2.3254">
        <ele>126.9</ele>
        <time>2023-11-22T14:55:04Z</time>
      </trkpt>
      <trkpt lat="50.0161" lon="2.32539">
        <ele>126.9</ele>
        <time>2023-11-22T14:55:05Z</time>
      </trkpt>
      <trkpt lat="50.01609" lon="2.32538">
        <ele>126.9</ele>
        <time>2023-11-22T14:55:06Z</time>
      </trkpt>
      <trkpt lat="50.01608" lon="2.32538">
        <ele>126.9</ele>
        <time>2023-11-22T14:55:07Z</time>
      </trkpt>
      <trkpt lat="50.01607" lon="2.32537">
        <ele>126.9</ele>
        <time>2023-11-22T14:55:08Z</time>
      </trkpt>
      <trkpt lat="50.01606" lon="2.32536">
        <ele>126.9</ele>
        <time>2023-11-22T14:55:09Z</time>
      </trkpt>
      <trkpt lat="50.01605" lon="2.32535">
        <ele>126.8</ele>
        <time>2023-11-22T14:55:10Z</time>
      </trkpt>
      <trkpt lat="50.01605" lon="2.32534">
        <ele>126.8</ele>
        <time>2023-11-22T14:55:11Z</time>
      </trkpt>
      <trkpt lat="50.01604" lon="2.32533">
        <ele>126.8</ele>
        <time>2023-11-22T14:55:12Z</time>
      </trkpt>
      <trkpt lat="50.01603" lon="2.32533">
        <ele>126.8</ele>
        <time>2023-11-22T14:55:13Z</time>
      </trkpt>
      <trkpt lat="50.01602" lon="2.32532">
        <ele>126.8</ele>
        <time>2023-11-22T14:55:14Z</time>
      </trkpt>
      <trkpt lat="50.01601" lon="2.32531">
        <ele>126.8</ele>
        <time>2023-11-22T14:55:15Z</time>
      </trkpt>
      <trkpt lat="50.016" lon="2.3253">
        <ele>126.7</ele>
        <time>2023-11-22T14:55:16Z</time>
      </trkpt>
      <trkpt lat="50.01599" lon="2.32529">
        <ele>126.7</ele>
        <time>2023-11-22T14:55:17Z</time>
      </trkpt>
      <trkpt lat="50.01598" lon="2.32528">
        <ele>126.7</ele>
        <time>2023-11-22T14:55:18Z</time>
      </trkpt>
      <trkpt lat="50.01597" lon="2.32527">
        <ele>126.7</ele>
        <time>2023-11-22T14:55:19Z</time>
      </trkpt>
      <trkpt lat="50.01596" lon="2.32526">
        <ele>126.7</ele>
        <time>2023-11-22T14:55:20Z</time>
      </trkpt>
      <trkpt lat="50.01595" lon="2.32525">
        <ele>126.7</ele>
        <time>2023-11-22T14:55:21Z</time>
      </trkpt>
      <trkpt lat="50.01594" lon="2.32525">
        <ele>126.6</ele>
        <time>2023-11-22T14:55:22Z</time>
      </trkpt>
      <trkpt lat="50.01593" lon="2.32524">
        <ele>126.6</ele>
        <time>2023-11-22T14:55:23Z</time>
      </trkpt>
      <trkpt lat="50.01592" lon="2.32523">
        <ele>126.6</ele>
        <time>2023-11-22T14:55:24Z</time>
      </trkpt>
      <trkpt lat="50.01591" lon="2.32522">
        <ele>126.6</ele>
        <time>2023-11-22T14:55:25Z</time>
      </trkpt>
      <trkpt lat="50.01589" lon="2.3252">
        <ele>126.6</ele>
        <time>2023-11-22T14:55:26Z</time>
      </trkpt>
      <trkpt lat="50.01588" lon="2.3252">
        <ele>126.6</ele>
        <time>2023-11-22T14:55:27Z</time>
      </trkpt>
      <trkpt lat="50.01588" lon="2.32519">
        <ele>126.5</ele>
        <time>2023-11-22T14:55:28Z</time>
      </trkpt>
      <trkpt lat="50.01586" lon="2.32518">
        <ele>126.5</ele>
        <time>2023-11-22T14:55:29Z</time>
      </trkpt>
      <trkpt lat="50.01585" lon="2.32517">
        <ele>126.5</ele>
        <time>2023-11-22T14:55:30Z</time>
      </trkpt>
      <trkpt lat="50.01585" lon="2.32516">
        <ele>126.5</ele>
        <time>2023-11-22T14:55:31Z</time>
      </trkpt>
      <trkpt lat="50.01584" lon="2.32515">
        <ele>126.5</ele>
        <time>2023-11-22T14:55:32Z</time>
      </trkpt>
      <trkpt lat="50.01583" lon="2.32515">
        <ele>126.5</ele>
        <time>2023-11-22T14:55:33Z</time>
      </trkpt>
      <trkpt lat="50.01582" lon="2.32514">
        <ele>126.4</ele>
        <time>2023-11-22T14:55:34Z</time>
      </trkpt>
      <trkpt lat="50.01581" lon="2.32513">
        <ele>126.4</ele>
        <time>2023-11-22T14:55:35Z</time>
      </trkpt>
      <trkpt lat="50.0158" lon="2.32512">
        <ele>126.4</ele>
        <time>2023-11-22T14:55:36Z</time>
      </trkpt>
      <trkpt lat="50.01579" lon="2.32511">
        <ele>126.4</ele>
        <time>2023-11-22T14:55:37Z</time>
      </trkpt>
      <trkpt lat="50.01577" lon="2.3251">
        <ele>126.4</ele>
        <time>2023-11-22T14:55:38Z</time>
      </trkpt>
      <trkpt lat="50.01576" lon="2.32509">
        <ele>126.3</ele>
        <time>2023-11-22T14:55:39Z</time>
      </trkpt>
      <trkpt lat="50.01576" lon="2.32508">
        <ele>126.3</ele>
        <time>2023-11-22T14:55:40Z</time>
      </trkpt>
      <trkpt lat="50.01575" lon="2.32508">
        <ele>126.3</ele>
        <time>2023-11-22T14:55:41Z</time>
      </trkpt>
      <trkpt lat="50.01574" lon="2.32507">
        <ele>126.3</ele>
        <time>2023-11-22T14:55:42Z</time>
      </trkpt>
      <trkpt lat="50.01573" lon="2.32506">
        <ele>126.3</ele>
        <time>2023-11-22T14:55:43Z</time>
      </trkpt>
      <trkpt lat="50.01572" lon="2.32505">
        <ele>126.3</ele>
        <time>2023-11-22T14:55:44Z</time>
      </trkpt>
      <trkpt lat="50.01571" lon="2.32505">
        <ele>126.3</ele>
        <time>2023-11-22T14:55:45Z</time>
      </trkpt>
      <trkpt lat="50.0157" lon="2.32504">
        <ele>126.2</ele>
        <time>2023-11-22T14:55:46Z</time>
      </trkpt>
      <trkpt lat="50.01569" lon="2.32503">
        <ele>126.2</ele>
        <time>2023-11-22T14:55:47Z</time>
      </trkpt>
      <trkpt lat="50.01568" lon="2.32502">
        <ele>126.2</ele>
        <time>2023-11-22T14:55:48Z</time>
      </trkpt>
      <trkpt lat="50.01567" lon="2.32501">
        <ele>126.2</ele>
        <time>2023-11-22T14:55:49Z</time>
      </trkpt>
      <trkpt lat="50.01566" lon="2.325">
        <ele>126.2</ele>
        <time>2023-11-22T14:55:50Z</time>
      </trkpt>
      <trkpt lat="50.01565" lon="2.325">
        <ele>126.2</ele>
        <time>2023-11-22T14:55:51Z</time>
      </trkpt>
      <trkpt lat="50.01564" lon="2.32499">
        <ele>126.1</ele>
        <time>2023-11-22T14:55:52Z</time>
      </trkpt>
      <trkpt lat="50.01563" lon="2.32498">
        <ele>126.1</ele>
        <time>2023-11-22T14:55:53Z</time>
      </trkpt>
      <trkpt lat="50.01563" lon="2.32498">
        <ele>126.1</ele>
        <time>2023-11-22T14:55:54Z</time>
      </trkpt>
      <trkpt lat="50.01562" lon="2.32497">
        <ele>126.1</ele>
        <time>2023-11-22T14:55:55Z</time>
      </trkpt>
      <trkpt lat="50.01561" lon="2.32496">
        <ele>126.1</ele>
        <time>2023-11-22T14:55:56Z</time>
      </trkpt>
      <trkpt lat="50.0156" lon="2.32495">
        <ele>126.1</ele>
        <time>2023-11-22T14:55:57Z</time>
      </trkpt>
      <trkpt lat="50.01559" lon="2.32495">
        <ele>126.1</ele>
        <time>2023-11-22T14:55:58Z</time>
      </trkpt>
      <trkpt lat="50.01558" lon="2.32494">
        <ele>126</ele>
        <time>2023-11-22T14:55:59Z</time>
      </trkpt>
      <trkpt lat="50.01557" lon="2.32493">
        <ele>126</ele>
        <time>2023-11-22T14:56:00Z</time>
      </trkpt>
      <trkpt lat="50.01556" lon="2.32492">
        <ele>126</ele>
        <time>2023-11-22T14:56:01Z</time>
      </trkpt>
      <trkpt lat="50.01556" lon="2.32492">
        <ele>126</ele>
        <time>2023-11-22T14:56:02Z</time>
      </trkpt>
      <trkpt lat="50.01555" lon="2.32491">
        <ele>126</ele>
        <time>2023-11-22T14:56:03Z</time>
      </trkpt>
      <trkpt lat="50.01554" lon="2.3249">
        <ele>126</ele>
        <time>2023-11-22T14:56:04Z</time>
      </trkpt>
      <trkpt lat="50.01553" lon="2.32489">
        <ele>125.9</ele>
        <time>2023-11-22T14:56:05Z</time>
      </trkpt>
      <trkpt lat="50.01552" lon="2.32488">
        <ele>125.9</ele>
        <time>2023-11-22T14:56:06Z</time>
      </trkpt>
      <trkpt lat="50.01551" lon="2.32487">
        <ele>125.9</ele>
        <time>2023-11-22T14:56:07Z</time>
      </trkpt>
      <trkpt lat="50.0155" lon="2.32486">
        <ele>125.9</ele>
        <time>2023-11-22T14:56:08Z</time>
      </trkpt>
      <trkpt lat="50.01549" lon="2.32485">
        <ele>125.9</ele>
        <time>2023-11-22T14:56:09Z</time>
      </trkpt>
      <trkpt lat="50.01548" lon="2.32485">
        <ele>125.9</ele>
        <time>2023-11-22T14:56:10Z</time>
      </trkpt>
      <trkpt lat="50.01548" lon="2.32484">
        <ele>125.9</ele>
        <time>2023-11-22T14:56:11Z</time>
      </trkpt>
      <trkpt lat="50.01547" lon="2.32483">
        <ele>125.8</ele>
        <time>2023-11-22T14:56:12Z</time>
      </trkpt>
      <trkpt lat="50.01546" lon="2.32482">
        <ele>125.8</ele>
        <time>2023-11-22T14:56:13Z</time>
      </trkpt>
      <trkpt lat="50.01545" lon="2.32481">
        <ele>125.8</ele>
        <time>2023-11-22T14:56:14Z</time>
      </trkpt>
      <trkpt lat="50.01544" lon="2.3248">
        <ele>125.8</ele>
        <time>2023-11-22T14:56:15Z</time>
      </trkpt>
      <trkpt lat="50.01543" lon="2.32479">
        <ele>125.8</ele>
        <time>2023-11-22T14:56:16Z</time>
      </trkpt>
      <trkpt lat="50.01542" lon="2.32478">
        <ele>125.8</ele>
        <time>2023-11-22T14:56:17Z</time>
      </trkpt>
      <trkpt lat="50.01541" lon="2.32477">
        <ele>125.8</ele>
        <time>2023-11-22T14:56:18Z</time>
      </trkpt>
      <trkpt lat="50.0154" lon="2.32476">
        <ele>125.7</ele>
        <time>2023-11-22T14:56:19Z</time>
      </trkpt>
      <trkpt lat="50.0154" lon="2.32475">
        <ele>125.7</ele>
        <time>2023-11-22T14:56:20Z</time>
      </trkpt>
      <trkpt lat="50.01539" lon="2.32474">
        <ele>125.7</ele>
        <time>2023-11-22T14:56:21Z</time>
      </trkpt>
      <trkpt lat="50.01538" lon="2.32473">
        <ele>125.7</ele>
        <time>2023-11-22T14:56:22Z</time>
      </trkpt>
      <trkpt lat="50.01537" lon="2.32472">
        <ele>125.7</ele>
        <time>2023-11-22T14:56:23Z</time>
      </trkpt>
      <trkpt lat="50.01536" lon="2.32472">
        <ele>125.7</ele>
        <time>2023-11-22T14:56:24Z</time>
      </trkpt>
      <trkpt lat="50.01535" lon="2.32471">
        <ele>125.7</ele>
        <time>2023-11-22T14:56:25Z</time>
      </trkpt>
      <trkpt lat="50.01534" lon="2.3247">
        <ele>125.7</ele>
        <time>2023-11-22T14:56:26Z</time>
      </trkpt>
      <trkpt lat="50.01533" lon="2.32469">
        <ele>125.6</ele>
        <time>2023-11-22T14:56:27Z</time>
      </trkpt>
      <trkpt lat="50.01532" lon="2.32468">
        <ele>125.6</ele>
        <time>2023-11-22T14:56:28Z</time>
      </trkpt>
      <trkpt lat="50.01531" lon="2.32466">
        <ele>125.6</ele>
        <time>2023-11-22T14:56:29Z</time>
      </trkpt>
      <trkpt lat="50.0153" lon="2.32466">
        <ele>125.5</ele>
        <time>2023-11-22T14:56:30Z</time>
      </trkpt>
      <trkpt lat="50.01529" lon="2.32465">
        <ele>125.5</ele>
        <time>2023-11-22T14:56:31Z</time>
      </trkpt>
      <trkpt lat="50.01528" lon="2.32464">
        <ele>125.5</ele>
        <time>2023-11-22T14:56:32Z</time>
      </trkpt>
      <trkpt lat="50.01527" lon="2.32464">
        <ele>125.5</ele>
        <time>2023-11-22T14:56:33Z</time>
      </trkpt>
      <trkpt lat="50.01526" lon="2.32463">
        <ele>125.5</ele>
        <time>2023-11-22T14:56:34Z</time>
      </trkpt>
      <trkpt lat="50.01525" lon="2.32462">
        <ele>125.4</ele>
        <time>2023-11-22T14:56:35Z</time>
      </trkpt>
      <trkpt lat="50.01524" lon="2.32462">
        <ele>125.4</ele>
        <time>2023-11-22T14:56:36Z</time>
      </trkpt>
      <trkpt lat="50.01523" lon="2.32461">
        <ele>125.4</ele>
        <time>2023-11-22T14:56:37Z</time>
      </trkpt>
      <trkpt lat="50.01522" lon="2.32461">
        <ele>125.4</ele>
        <time>2023-11-22T14:56:38Z</time>
      </trkpt>
      <trkpt lat="50.01521" lon="2.3246">
        <ele>125.3</ele>
        <time>2023-11-22T14:56:39Z</time>
      </trkpt>
      <trkpt lat="50.01521" lon="2.3246">
        <ele>125.3</ele>
        <time>2023-11-22T14:56:40Z</time>
      </trkpt>
      <trkpt lat="50.0152" lon="2.32459">
        <ele>125.3</ele>
        <time>2023-11-22T14:56:41Z</time>
      </trkpt>
      <trkpt lat="50.01519" lon="2.32458">
        <ele>125.3</ele>
        <time>2023-11-22T14:56:42Z</time>
      </trkpt>
      <trkpt lat="50.01518" lon="2.32458">
        <ele>125.3</ele>
        <time>2023-11-22T14:56:43Z</time>
      </trkpt>
      <trkpt lat="50.01517" lon="2.32457">
        <ele>125.2</ele>
        <time>2023-11-22T14:56:44Z</time>
      </trkpt>
      <trkpt lat="50.01516" lon="2.32456">
        <ele>125.2</ele>
        <time>2023-11-22T14:56:45Z</time>
      </trkpt>
      <trkpt lat="50.01515" lon="2.32455">
        <ele>125.2</ele>
        <time>2023-11-22T14:56:46Z</time>
      </trkpt>
      <trkpt lat="50.01514" lon="2.32455">
        <ele>125.2</ele>
        <time>2023-11-22T14:56:47Z</time>
      </trkpt>
      <trkpt lat="50.01513" lon="2.32454">
        <ele>125.1</ele>
        <time>2023-11-22T14:56:48Z</time>
      </trkpt>
      <trkpt lat="50.01512" lon="2.32454">
        <ele>125.1</ele>
        <time>2023-11-22T14:56:49Z</time>
      </trkpt>
      <trkpt lat="50.01511" lon="2.32453">
        <ele>125.1</ele>
        <time>2023-11-22T14:56:50Z</time>
      </trkpt>
      <trkpt lat="50.0151" lon="2.32452">
        <ele>125</ele>
        <time>2023-11-22T14:56:51Z</time>
      </trkpt>
      <trkpt lat="50.01509" lon="2.32451">
        <ele>125</ele>
        <time>2023-11-22T14:56:52Z</time>
      </trkpt>
      <trkpt lat="50.01508" lon="2.32451">
        <ele>125</ele>
        <time>2023-11-22T14:56:53Z</time>
      </trkpt>
      <trkpt lat="50.01507" lon="2.3245">
        <ele>125</ele>
        <time>2023-11-22T14:56:54Z</time>
      </trkpt>
      <trkpt lat="50.01506" lon="2.32449">
        <ele>124.9</ele>
        <time>2023-11-22T14:56:55Z</time>
      </trkpt>
      <trkpt lat="50.01505" lon="2.32449">
        <ele>124.9</ele>
        <time>2023-11-22T14:56:56Z</time>
      </trkpt>
      <trkpt lat="50.01504" lon="2.32448">
        <ele>124.9</ele>
        <time>2023-11-22T14:56:57Z</time>
      </trkpt>
      <trkpt lat="50.01503" lon="2.32447">
        <ele>124.9</ele>
        <time>2023-11-22T14:56:58Z</time>
      </trkpt>
      <trkpt lat="50.01502" lon="2.32447">
        <ele>124.8</ele>
        <time>2023-11-22T14:56:59Z</time>
      </trkpt>
      <trkpt lat="50.015" lon="2.32446">
        <ele>124.8</ele>
        <time>2023-11-22T14:57:00Z</time>
      </trkpt>
      <trkpt lat="50.015" lon="2.32445">
        <ele>124.8</ele>
        <time>2023-11-22T14:57:01Z</time>
      </trkpt>
      <trkpt lat="50.01499" lon="2.32445">
        <ele>124.7</ele>
        <time>2023-11-22T14:57:02Z</time>
      </trkpt>
      <trkpt lat="50.01497" lon="2.32444">
        <ele>124.7</ele>
        <time>2023-11-22T14:57:03Z</time>
      </trkpt>
      <trkpt lat="50.01496" lon="2.32443">
        <ele>124.7</ele>
        <time>2023-11-22T14:57:04Z</time>
      </trkpt>
      <trkpt lat="50.01495" lon="2.32443">
        <ele>124.7</ele>
        <time>2023-11-22T14:57:05Z</time>
      </trkpt>
      <trkpt lat="50.01493" lon="2.32442">
        <ele>124.6</ele>
        <time>2023-11-22T14:57:06Z</time>
      </trkpt>
      <trkpt lat="50.01493" lon="2.32442">
        <ele>124.6</ele>
        <time>2023-11-22T14:57:07Z</time>
      </trkpt>
      <trkpt lat="50.01492" lon="2.32441">
        <ele>124.6</ele>
        <time>2023-11-22T14:57:08Z</time>
      </trkpt>
      <trkpt lat="50.0149" lon="2.32441">
        <ele>124.5</ele>
        <time>2023-11-22T14:57:09Z</time>
      </trkpt>
      <trkpt lat="50.01489" lon="2.3244">
        <ele>124.5</ele>
        <time>2023-11-22T14:57:10Z</time>
      </trkpt>
      <trkpt lat="50.01488" lon="2.3244">
        <ele>124.5</ele>
        <time>2023-11-22T14:57:11Z</time>
      </trkpt>
      <trkpt lat="50.01486" lon="2.3244">
        <ele>124.4</ele>
        <time>2023-11-22T14:57:12Z</time>
      </trkpt>
      <trkpt lat="50.01485" lon="2.32439">
        <ele>124.4</ele>
        <time>2023-11-22T14:57:13Z</time>
      </trkpt>
      <trkpt lat="50.01485" lon="2.32439">
        <ele>124.4</ele>
        <time>2023-11-22T14:57:14Z</time>
      </trkpt>
      <trkpt lat="50.01482" lon="2.32438">
        <ele>124.3</ele>
        <time>2023-11-22T14:57:15Z</time>
      </trkpt>
      <trkpt lat="50.01482" lon="2.32438">
        <ele>124.3</ele>
        <time>2023-11-22T14:57:16Z</time>
      </trkpt>
      <trkpt lat="50.01481" lon="2.32438">
        <ele>124.3</ele>
        <time>2023-11-22T14:57:17Z</time>
      </trkpt>
      <trkpt lat="50.0148" lon="2.32437">
        <ele>124.3</ele>
        <time>2023-11-22T14:57:18Z</time>
      </trkpt>
      <trkpt lat="50.01479" lon="2.32437">
        <ele>124.2</ele>
        <time>2023-11-22T14:57:19Z</time>
      </trkpt>
      <trkpt lat="50.01478" lon="2.32437">
        <ele>124.2</ele>
        <time>2023-11-22T14:57:20Z</time>
      </trkpt>
      <trkpt lat="50.01476" lon="2.32436">
        <ele>124.1</ele>
        <time>2023-11-22T14:57:21Z</time>
      </trkpt>
      <trkpt lat="50.01475" lon="2.32436">
        <ele>124.1</ele>
        <time>2023-11-22T14:57:22Z</time>
      </trkpt>
      <trkpt lat="50.01474" lon="2.32436">
        <ele>124.1</ele>
        <time>2023-11-22T14:57:23Z</time>
      </trkpt>
      <trkpt lat="50.01472" lon="2.32435">
        <ele>124</ele>
        <time>2023-11-22T14:57:24Z</time>
      </trkpt>
      <trkpt lat="50.01471" lon="2.32435">
        <ele>124</ele>
        <time>2023-11-22T14:57:25Z</time>
      </trkpt>
      <trkpt lat="50.0147" lon="2.32434">
        <ele>124</ele>
        <time>2023-11-22T14:57:26Z</time>
      </trkpt>
      <trkpt lat="50.01468" lon="2.32434">
        <ele>123.9</ele>
        <time>2023-11-22T14:57:27Z</time>
      </trkpt>
      <trkpt lat="50.01467" lon="2.32433">
        <ele>123.9</ele>
        <time>2023-11-22T14:57:28Z</time>
      </trkpt>
      <trkpt lat="50.01466" lon="2.32433">
        <ele>123.9</ele>
        <time>2023-11-22T14:57:29Z</time>
      </trkpt>
      <trkpt lat="50.01464" lon="2.32432">
        <ele>123.8</ele>
        <time>2023-11-22T14:57:30Z</time>
      </trkpt>
      <trkpt lat="50.01464" lon="2.32432">
        <ele>123.8</ele>
        <time>2023-11-22T14:57:31Z</time>
      </trkpt>
      <trkpt lat="50.01463" lon="2.32431">
        <ele>123.8</ele>
        <time>2023-11-22T14:57:32Z</time>
      </trkpt>
      <trkpt lat="50.01462" lon="2.32431">
        <ele>123.7</ele>
        <time>2023-11-22T14:57:33Z</time>
      </trkpt>
      <trkpt lat="50.01461" lon="2.32431">
        <ele>123.7</ele>
        <time>2023-11-22T14:57:34Z</time>
      </trkpt>
      <trkpt lat="50.01459" lon="2.3243">
        <ele>123.7</ele>
        <time>2023-11-22T14:57:35Z</time>
      </trkpt>
      <trkpt lat="50.01459" lon="2.3243">
        <ele>123.6</ele>
        <time>2023-11-22T14:57:36Z</time>
      </trkpt>
      <trkpt lat="50.01458" lon="2.32429">
        <ele>123.6</ele>
        <time>2023-11-22T14:57:37Z</time>
      </trkpt>
      <trkpt lat="50.01457" lon="2.32428">
        <ele>123.6</ele>
        <time>2023-11-22T14:57:38Z</time>
      </trkpt>
      <trkpt lat="50.01456" lon="2.32428">
        <ele>123.5</ele>
        <time>2023-11-22T14:57:39Z</time>
      </trkpt>
      <trkpt lat="50.01455" lon="2.32427">
        <ele>123.5</ele>
        <time>2023-11-22T14:57:40Z</time>
      </trkpt>
      <trkpt lat="50.01454" lon="2.32427">
        <ele>123.5</ele>
        <time>2023-11-22T14:57:41Z</time>
      </trkpt>
      <trkpt lat="50.01453" lon="2.32426">
        <ele>123.4</ele>
        <time>2023-11-22T14:57:42Z</time>
      </trkpt>
      <trkpt lat="50.01452" lon="2.32426">
        <ele>123.4</ele>
        <time>2023-11-22T14:57:43Z</time>
      </trkpt>
      <trkpt lat="50.01451" lon="2.32425">
        <ele>123.3</ele>
        <time>2023-11-22T14:57:44Z</time>
      </trkpt>
      <trkpt lat="50.0145" lon="2.32424">
        <ele>123.3</ele>
        <time>2023-11-22T14:57:45Z</time>
      </trkpt>
      <trkpt lat="50.01449" lon="2.32424">
        <ele>123.2</ele>
        <time>2023-11-22T14:57:46Z</time>
      </trkpt>
      <trkpt lat="50.01448" lon="2.32423">
        <ele>123.2</ele>
        <time>2023-11-22T14:57:47Z</time>
      </trkpt>
      <trkpt lat="50.01447" lon="2.32422">
        <ele>123.1</ele>
        <time>2023-11-22T14:57:48Z</time>
      </trkpt>
      <trkpt lat="50.01446" lon="2.32422">
        <ele>123.1</ele>
        <time>2023-11-22T14:57:49Z</time>
      </trkpt>
      <trkpt lat="50.01445" lon="2.32422">
        <ele>123</ele>
        <time>2023-11-22T14:57:50Z</time>
      </trkpt>
      <trkpt lat="50.01444" lon="2.32421">
        <ele>123</ele>
        <time>2023-11-22T14:57:51Z</time>
      </trkpt>
      <trkpt lat="50.01443" lon="2.32421">
        <ele>122.9</ele>
        <time>2023-11-22T14:57:52Z</time>
      </trkpt>
      <trkpt lat="50.01442" lon="2.3242">
        <ele>122.9</ele>
        <time>2023-11-22T14:57:53Z</time>
      </trkpt>
      <trkpt lat="50.01441" lon="2.3242">
        <ele>122.8</ele>
        <time>2023-11-22T14:57:54Z</time>
      </trkpt>
      <trkpt lat="50.0144" lon="2.32419">
        <ele>122.8</ele>
        <time>2023-11-22T14:57:55Z</time>
      </trkpt>
      <trkpt lat="50.01438" lon="2.32419">
        <ele>122.7</ele>
        <time>2023-11-22T14:57:56Z</time>
      </trkpt>
      <trkpt lat="50.01437" lon="2.32419">
        <ele>122.7</ele>
        <time>2023-11-22T14:57:57Z</time>
      </trkpt>
      <trkpt lat="50.01436" lon="2.32418">
        <ele>122.6</ele>
        <time>2023-11-22T14:57:58Z</time>
      </trkpt>
      <trkpt lat="50.01435" lon="2.32418">
        <ele>122.6</ele>
        <time>2023-11-22T14:57:59Z</time>
      </trkpt>
      <trkpt lat="50.01434" lon="2.32417">
        <ele>122.5</ele>
        <time>2023-11-22T14:58:00Z</time>
      </trkpt>
      <trkpt lat="50.01433" lon="2.32417">
        <ele>122.5</ele>
        <time>2023-11-22T14:58:01Z</time>
      </trkpt>
      <trkpt lat="50.01433" lon="2.32417">
        <ele>122.4</ele>
        <time>2023-11-22T14:58:02Z</time>
      </trkpt>
      <trkpt lat="50.01432" lon="2.32416">
        <ele>122.4</ele>
        <time>2023-11-22T14:58:03Z</time>
      </trkpt>
      <trkpt lat="50.01431" lon="2.32416">
        <ele>122.3</ele>
        <time>2023-11-22T14:58:04Z</time>
      </trkpt>
      <trkpt lat="50.01429" lon="2.32416">
        <ele>122.3</ele>
        <time>2023-11-22T14:58:05Z</time>
      </trkpt>
      <trkpt lat="50.01428" lon="2.32415">
        <ele>122.2</ele>
        <time>2023-11-22T14:58:06Z</time>
      </trkpt>
      <trkpt lat="50.01427" lon="2.32415">
        <ele>122.2</ele>
        <time>2023-11-22T14:58:07Z</time>
      </trkpt>
      <trkpt lat="50.01426" lon="2.32414">
        <ele>122.1</ele>
        <time>2023-11-22T14:58:08Z</time>
      </trkpt>
      <trkpt lat="50.01425" lon="2.32414">
        <ele>122.1</ele>
        <time>2023-11-22T14:58:09Z</time>
      </trkpt>
      <trkpt lat="50.01424" lon="2.32413">
        <ele>122</ele>
        <time>2023-11-22T14:58:10Z</time>
      </trkpt>
      <trkpt lat="50.01423" lon="2.32413">
        <ele>122</ele>
        <time>2023-11-22T14:58:11Z</time>
      </trkpt>
      <trkpt lat="50.01422" lon="2.32412">
        <ele>121.9</ele>
        <time>2023-11-22T14:58:12Z</time>
      </trkpt>
      <trkpt lat="50.01421" lon="2.32412">
        <ele>121.8</ele>
        <time>2023-11-22T14:58:13Z</time>
      </trkpt>
      <trkpt lat="50.0142" lon="2.32411">
        <ele>121.8</ele>
        <time>2023-11-22T14:58:14Z</time>
      </trkpt>
      <trkpt lat="50.0142" lon="2.3241">
        <ele>121.7</ele>
        <time>2023-11-22T14:58:15Z</time>
      </trkpt>
      <trkpt lat="50.01419" lon="2.32409">
        <ele>121.7</ele>
        <time>2023-11-22T14:58:16Z</time>
      </trkpt>
      <trkpt lat="50.01418" lon="2.32408">
        <ele>121.6</ele>
        <time>2023-11-22T14:58:17Z</time>
      </trkpt>
      <trkpt lat="50.01417" lon="2.32407">
        <ele>121.6</ele>
        <time>2023-11-22T14:58:18Z</time>
      </trkpt>
      <trkpt lat="50.01416" lon="2.32407">
        <ele>121.5</ele>
        <time>2023-11-22T14:58:19Z</time>
      </trkpt>
      <trkpt lat="50.01415" lon="2.32406">
        <ele>121.4</ele>
        <time>2023-11-22T14:58:20Z</time>
      </trkpt>
      <trkpt lat="50.01413" lon="2.32404">
        <ele>121.3</ele>
        <time>2023-11-22T14:58:21Z</time>
      </trkpt>
      <trkpt lat="50.01412" lon="2.32404">
        <ele>121.2</ele>
        <time>2023-11-22T14:58:22Z</time>
      </trkpt>
      <trkpt lat="50.01412" lon="2.32403">
        <ele>121.2</ele>
        <time>2023-11-22T14:58:23Z</time>
      </trkpt>
      <trkpt lat="50.01411" lon="2.32402">
        <ele>121.1</ele>
        <time>2023-11-22T14:58:24Z</time>
      </trkpt>
      <trkpt lat="50.01409" lon="2.32401">
        <ele>121</ele>
        <time>2023-11-22T14:58:25Z</time>
      </trkpt>
      <trkpt lat="50.01408" lon="2.324">
        <ele>120.9</ele>
        <time>2023-11-22T14:58:26Z</time>
      </trkpt>
      <trkpt lat="50.01407" lon="2.32399">
        <ele>120.8</ele>
        <time>2023-11-22T14:58:27Z</time>
      </trkpt>
      <trkpt lat="50.01405" lon="2.32397">
        <ele>120.7</ele>
        <time>2023-11-22T14:58:28Z</time>
      </trkpt>
      <trkpt lat="50.01405" lon="2.32396">
        <ele>120.6</ele>
        <time>2023-11-22T14:58:29Z</time>
      </trkpt>
      <trkpt lat="50.01404" lon="2.32395">
        <ele>120.5</ele>
        <time>2023-11-22T14:58:30Z</time>
      </trkpt>
      <trkpt lat="50.01402" lon="2.32394">
        <ele>120.4</ele>
        <time>2023-11-22T14:58:31Z</time>
      </trkpt>
      <trkpt lat="50.01401" lon="2.32393">
        <ele>120.3</ele>
        <time>2023-11-22T14:58:32Z</time>
      </trkpt>
      <trkpt lat="50.014" lon="2.32392">
        <ele>120.3</ele>
        <time>2023-11-22T14:58:33Z</time>
      </trkpt>
      <trkpt lat="50.01399" lon="2.32391">
        <ele>120.2</ele>
        <time>2023-11-22T14:58:34Z</time>
      </trkpt>
      <trkpt lat="50.01399" lon="2.3239">
        <ele>120.1</ele>
        <time>2023-11-22T14:58:35Z</time>
      </trkpt>
      <trkpt lat="50.01398" lon="2.32389">
        <ele>120</ele>
        <time>2023-11-22T14:58:36Z</time>
      </trkpt>
      <trkpt lat="50.01397" lon="2.32388">
        <ele>119.9</ele>
        <time>2023-11-22T14:58:37Z</time>
      </trkpt>
      <trkpt lat="50.01396" lon="2.32387">
        <ele>119.8</ele>
        <time>2023-11-22T14:58:38Z</time>
      </trkpt>
      <trkpt lat="50.01395" lon="2.32386">
        <ele>119.8</ele>
        <time>2023-11-22T14:58:39Z</time>
      </trkpt>
      <trkpt lat="50.01393" lon="2.32383">
        <ele>119.6</ele>
        <time>2023-11-22T14:58:40Z</time>
      </trkpt>
      <trkpt lat="50.01393" lon="2.32383">
        <ele>119.5</ele>
        <time>2023-11-22T14:58:41Z</time>
      </trkpt>
      <trkpt lat="50.01392" lon="2.32382">
        <ele>119.5</ele>
        <time>2023-11-22T14:58:42Z</time>
      </trkpt>
      <trkpt lat="50.01391" lon="2.32379">
        <ele>119.3</ele>
        <time>2023-11-22T14:58:43Z</time>
      </trkpt>
      <trkpt lat="50.0139" lon="2.32379">
        <ele>119.2</ele>
        <time>2023-11-22T14:58:44Z</time>
      </trkpt>
      <trkpt lat="50.01389" lon="2.32378">
        <ele>119.2</ele>
        <time>2023-11-22T14:58:45Z</time>
      </trkpt>
      <trkpt lat="50.01387" lon="2.32376">
        <ele>119</ele>
        <time>2023-11-22T14:58:46Z</time>
      </trkpt>
      <trkpt lat="50.01387" lon="2.32375">
        <ele>118.9</ele>
        <time>2023-11-22T14:58:47Z</time>
      </trkpt>
      <trkpt lat="50.01386" lon="2.32374">
        <ele>118.9</ele>
        <time>2023-11-22T14:58:48Z</time>
      </trkpt>
      <trkpt lat="50.01385" lon="2.32372">
        <ele>118.7</ele>
        <time>2023-11-22T14:58:49Z</time>
      </trkpt>
      <trkpt lat="50.01384" lon="2.32371">
        <ele>118.7</ele>
        <time>2023-11-22T14:58:50Z</time>
      </trkpt>
      <trkpt lat="50.01383" lon="2.3237">
        <ele>118.6</ele>
        <time>2023-11-22T14:58:51Z</time>
      </trkpt>
      <trkpt lat="50.01383" lon="2.32369">
        <ele>118.5</ele>
        <time>2023-11-22T14:58:52Z</time>
      </trkpt>
      <trkpt lat="50.01382" lon="2.32368">
        <ele>118.4</ele>
        <time>2023-11-22T14:58:53Z</time>
      </trkpt>
      <trkpt lat="50.01381" lon="2.32367">
        <ele>118.3</ele>
        <time>2023-11-22T14:58:54Z</time>
      </trkpt>
      <trkpt lat="50.01379" lon="2.32364">
        <ele>118.2</ele>
        <time>2023-11-22T14:58:55Z</time>
      </trkpt>
      <trkpt lat="50.01379" lon="2.32364">
        <ele>118.1</ele>
        <time>2023-11-22T14:58:56Z</time>
      </trkpt>
      <trkpt lat="50.01378" lon="2.32363">
        <ele>118</ele>
        <time>2023-11-22T14:58:57Z</time>
      </trkpt>
      <trkpt lat="50.01377" lon="2.3236">
        <ele>117.9</ele>
        <time>2023-11-22T14:58:58Z</time>
      </trkpt>
      <trkpt lat="50.01376" lon="2.3236">
        <ele>117.8</ele>
        <time>2023-11-22T14:58:59Z</time>
      </trkpt>
      <trkpt lat="50.01375" lon="2.32359">
        <ele>117.7</ele>
        <time>2023-11-22T14:59:00Z</time>
      </trkpt>
      <trkpt lat="50.01374" lon="2.32357">
        <ele>117.6</ele>
        <time>2023-11-22T14:59:01Z</time>
      </trkpt>
      <trkpt lat="50.01373" lon="2.32356">
        <ele>117.5</ele>
        <time>2023-11-22T14:59:02Z</time>
      </trkpt>
      <trkpt lat="50.01373" lon="2.32355">
        <ele>117.4</ele>
        <time>2023-11-22T14:59:03Z</time>
      </trkpt>
      <trkpt lat="50.01372" lon="2.32354">
        <ele>117.4</ele>
        <time>2023-11-22T14:59:04Z</time>
      </trkpt>
      <trkpt lat="50.01371" lon="2.32353">
        <ele>117.3</ele>
        <time>2023-11-22T14:59:05Z</time>
      </trkpt>
      <trkpt lat="50.0137" lon="2.32352">
        <ele>117.2</ele>
        <time>2023-11-22T14:59:06Z</time>
      </trkpt>
      <trkpt lat="50.01368" lon="2.3235">
        <ele>117</ele>
        <time>2023-11-22T14:59:07Z</time>
      </trkpt>
      <trkpt lat="50.01367" lon="2.32349">
        <ele>116.9</ele>
        <time>2023-11-22T14:59:08Z</time>
      </trkpt>
      <trkpt lat="50.01367" lon="2.32348">
        <ele>116.9</ele>
        <time>2023-11-22T14:59:09Z</time>
      </trkpt>
      <trkpt lat="50.01365" lon="2.32346">
        <ele>116.7</ele>
        <time>2023-11-22T14:59:10Z</time>
      </trkpt>
      <trkpt lat="50.01364" lon="2.32345">
        <ele>116.7</ele>
        <time>2023-11-22T14:59:11Z</time>
      </trkpt>
      <trkpt lat="50.01364" lon="2.32345">
        <ele>116.6</ele>
        <time>2023-11-22T14:59:12Z</time>
      </trkpt>
      <trkpt lat="50.01362" lon="2.32342">
        <ele>116.4</ele>
        <time>2023-11-22T14:59:13Z</time>
      </trkpt>
      <trkpt lat="50.01361" lon="2.32342">
        <ele>116.4</ele>
        <time>2023-11-22T14:59:14Z</time>
      </trkpt>
      <trkpt lat="50.01361" lon="2.32341">
        <ele>116.3</ele>
        <time>2023-11-22T14:59:15Z</time>
      </trkpt>
      <trkpt lat="50.0136" lon="2.3234">
        <ele>116.2</ele>
        <time>2023-11-22T14:59:16Z</time>
      </trkpt>
      <trkpt lat="50.01359" lon="2.32339">
        <ele>116.2</ele>
        <time>2023-11-22T14:59:17Z</time>
      </trkpt>
      <trkpt lat="50.01358" lon="2.32337">
        <ele>116.1</ele>
        <time>2023-11-22T14:59:18Z</time>
      </trkpt>
      <trkpt lat="50.01357" lon="2.32336">
        <ele>116</ele>
        <time>2023-11-22T14:59:19Z</time>
      </trkpt>
      <trkpt lat="50.01356" lon="2.32336">
        <ele>116</ele>
        <time>2023-11-22T14:59:20Z</time>
      </trkpt>
      <trkpt lat="50.01355" lon="2.32335">
        <ele>115.9</ele>
        <time>2023-11-22T14:59:21Z</time>
      </trkpt>
      <trkpt lat="50.01354" lon="2.32334">
        <ele>115.8</ele>
        <time>2023-11-22T14:59:22Z</time>
      </trkpt>
      <trkpt lat="50.01353" lon="2.32333">
        <ele>115.7</ele>
        <time>2023-11-22T14:59:23Z</time>
      </trkpt>
      <trkpt lat="50.01352" lon="2.32333">
        <ele>115.7</ele>
        <time>2023-11-22T14:59:24Z</time>
      </trkpt>
      <trkpt lat="50.0135" lon="2.32332">
        <ele>115.5</ele>
        <time>2023-11-22T14:59:25Z</time>
      </trkpt>
      <trkpt lat="50.01349" lon="2.32332">
        <ele>115.5</ele>
        <time>2023-11-22T14:59:26Z</time>
      </trkpt>
      <trkpt lat="50.01348" lon="2.32332">
        <ele>115.4</ele>
        <time>2023-11-22T14:59:27Z</time>
      </trkpt>
      <trkpt lat="50.01346" lon="2.32333">
        <ele>115.2</ele>
        <time>2023-11-22T14:59:28Z</time>
      </trkpt>
      <trkpt lat="50.01345" lon="2.32333">
        <ele>115.2</ele>
        <time>2023-11-22T14:59:29Z</time>
      </trkpt>
      <trkpt lat="50.01344" lon="2.32333">
        <ele>115.1</ele>
        <time>2023-11-22T14:59:30Z</time>
      </trkpt>
      <trkpt lat="50.01342" lon="2.32334">
        <ele>114.9</ele>
        <time>2023-11-22T14:59:31Z</time>
      </trkpt>
      <trkpt lat="50.01341" lon="2.32335">
        <ele>114.9</ele>
        <time>2023-11-22T14:59:32Z</time>
      </trkpt>
      <trkpt lat="50.01341" lon="2.32335">
        <ele>114.8</ele>
        <time>2023-11-22T14:59:33Z</time>
      </trkpt>
      <trkpt lat="50.0134" lon="2.32336">
        <ele>114.7</ele>
        <time>2023-11-22T14:59:34Z</time>
      </trkpt>
      <trkpt lat="50.01339" lon="2.32336">
        <ele>114.6</ele>
        <time>2023-11-22T14:59:35Z</time>
      </trkpt>
      <trkpt lat="50.01338" lon="2.32337">
        <ele>114.5</ele>
        <time>2023-11-22T14:59:36Z</time>
      </trkpt>
      <trkpt lat="50.01337" lon="2.32337">
        <ele>114.4</ele>
        <time>2023-11-22T14:59:37Z</time>
      </trkpt>
      <trkpt lat="50.01336" lon="2.32338">
        <ele>114.3</ele>
        <time>2023-11-22T14:59:38Z</time>
      </trkpt>
      <trkpt lat="50.01335" lon="2.32338">
        <ele>114.2</ele>
        <time>2023-11-22T14:59:39Z</time>
      </trkpt>
      <trkpt lat="50.01334" lon="2.32339">
        <ele>114.1</ele>
        <time>2023-11-22T14:59:40Z</time>
      </trkpt>
      <trkpt lat="50.01333" lon="2.32339">
        <ele>114</ele>
        <time>2023-11-22T14:59:41Z</time>
      </trkpt>
      <trkpt lat="50.01332" lon="2.3234">
        <ele>113.9</ele>
        <time>2023-11-22T14:59:42Z</time>
      </trkpt>
      <trkpt lat="50.01331" lon="2.3234">
        <ele>113.8</ele>
        <time>2023-11-22T14:59:43Z</time>
      </trkpt>
      <trkpt lat="50.0133" lon="2.3234">
        <ele>113.7</ele>
        <time>2023-11-22T14:59:44Z</time>
      </trkpt>
      <trkpt lat="50.01329" lon="2.32341">
        <ele>113.6</ele>
        <time>2023-11-22T14:59:45Z</time>
      </trkpt>
      <trkpt lat="50.01328" lon="2.32341">
        <ele>113.5</ele>
        <time>2023-11-22T14:59:46Z</time>
      </trkpt>
      <trkpt lat="50.01328" lon="2.32342">
        <ele>113.5</ele>
        <time>2023-11-22T14:59:47Z</time>
      </trkpt>
      <trkpt lat="50.01327" lon="2.32342">
        <ele>113.4</ele>
        <time>2023-11-22T14:59:48Z</time>
      </trkpt>
      <trkpt lat="50.01327" lon="2.32342">
        <ele>113.4</ele>
        <time>2023-11-22T14:59:49Z</time>
      </trkpt>
      <trkpt lat="50.01327" lon="2.32343">
        <ele>113.3</ele>
        <time>2023-11-22T14:59:50Z</time>
      </trkpt>
      <trkpt lat="50.01327" lon="2.32343">
        <ele>113.3</ele>
        <time>2023-11-22T14:59:51Z</time>
      </trkpt>
      <trkpt lat="50.01326" lon="2.32343">
        <ele>113.3</ele>
        <time>2023-11-22T14:59:52Z</time>
      </trkpt>
      <trkpt lat="50.01326" lon="2.32343">
        <ele>113.2</ele>
        <time>2023-11-22T14:59:53Z</time>
      </trkpt>
      <trkpt lat="50.01325" lon="2.32344">
        <ele>113.2</ele>
        <time>2023-11-22T14:59:54Z</time>
      </trkpt>
      <trkpt lat="50.01325" lon="2.32344">
        <ele>113.1</ele>
        <time>2023-11-22T14:59:55Z</time>
      </trkpt>
      <trkpt lat="50.01325" lon="2.32344">
        <ele>113.1</ele>
        <time>2023-11-22T14:59:56Z</time>
      </trkpt>
      <trkpt lat="50.01325" lon="2.32343">
        <ele>113.1</ele>
        <time>2023-11-22T14:59:57Z</time>
      </trkpt>
      <trkpt lat="50.01324" lon="2.32343">
        <ele>113</ele>
        <time>2023-11-22T14:59:58Z</time>
      </trkpt>
      <trkpt lat="50.01323" lon="2.32343">
        <ele>112.9</ele>
        <time>2023-11-22T14:59:59Z</time>
      </trkpt>
      <trkpt lat="50.01321" lon="2.32344">
        <ele>112.7</ele>
        <time>2023-11-22T15:00:00Z</time>
      </trkpt>
      <trkpt lat="50.0132" lon="2.32344">
        <ele>112.6</ele>
        <time>2023-11-22T15:00:01Z</time>
      </trkpt>
      <trkpt lat="50.0132" lon="2.32344">
        <ele>112.5</ele>
        <time>2023-11-22T15:00:02Z</time>
      </trkpt>
      <trkpt lat="50.01318" lon="2.32344">
        <ele>112.4</ele>
        <time>2023-11-22T15:00:03Z</time>
      </trkpt>
      <trkpt lat="50.01317" lon="2.32344">
        <ele>112.2</ele>
        <time>2023-11-22T15:00:04Z</time>
      </trkpt>
      <trkpt lat="50.01315" lon="2.32344">
        <ele>112.1</ele>
        <time>2023-11-22T15:00:05Z</time>
      </trkpt>
      <trkpt lat="50.01313" lon="2.32344">
        <ele>111.8</ele>
        <time>2023-11-22T15:00:06Z</time>
      </trkpt>
      <trkpt lat="50.01312" lon="2.32344">
        <ele>111.7</ele>
        <time>2023-11-22T15:00:07Z</time>
      </trkpt>
      <trkpt lat="50.0131" lon="2.32344">
        <ele>111.5</ele>
        <time>2023-11-22T15:00:08Z</time>
      </trkpt>
      <trkpt lat="50.01309" lon="2.32344">
        <ele>111.4</ele>
        <time>2023-11-22T15:00:09Z</time>
      </trkpt>
      <trkpt lat="50.01308" lon="2.32345">
        <ele>111.3</ele>
        <time>2023-11-22T15:00:10Z</time>
      </trkpt>
      <trkpt lat="50.01306" lon="2.32345">
        <ele>111.2</ele>
        <time>2023-11-22T15:00:11Z</time>
      </trkpt>
      <trkpt lat="50.01306" lon="2.32345">
        <ele>111.1</ele>
        <time>2023-11-22T15:00:12Z</time>
      </trkpt>
      <trkpt lat="50.01305" lon="2.32346">
        <ele>111</ele>
        <time>2023-11-22T15:00:13Z</time>
      </trkpt>
      <trkpt lat="50.01304" lon="2.32346">
        <ele>110.9</ele>
        <time>2023-11-22T15:00:14Z</time>
      </trkpt>
      <trkpt lat="50.01303" lon="2.32346">
        <ele>110.8</ele>
        <time>2023-11-22T15:00:15Z</time>
      </trkpt>
      <trkpt lat="50.01302" lon="2.32346">
        <ele>110.7</ele>
        <time>2023-11-22T15:00:16Z</time>
      </trkpt>
      <trkpt lat="50.01301" lon="2.32347">
        <ele>110.6</ele>
        <time>2023-11-22T15:00:17Z</time>
      </trkpt>
      <trkpt lat="50.013" lon="2.32347">
        <ele>110.5</ele>
        <time>2023-11-22T15:00:18Z</time>
      </trkpt>
      <trkpt lat="50.01299" lon="2.32347">
        <ele>110.4</ele>
        <time>2023-11-22T15:00:19Z</time>
      </trkpt>
      <trkpt lat="50.01298" lon="2.32347">
        <ele>110.4</ele>
        <time>2023-11-22T15:00:20Z</time>
      </trkpt>
      <trkpt lat="50.01297" lon="2.32347">
        <ele>110.3</ele>
        <time>2023-11-22T15:00:21Z</time>
      </trkpt>
      <trkpt lat="50.01296" lon="2.32347">
        <ele>110.2</ele>
        <time>2023-11-22T15:00:22Z</time>
      </trkpt>
      <trkpt lat="50.01295" lon="2.32348">
        <ele>110.1</ele>
        <time>2023-11-22T15:00:23Z</time>
      </trkpt>
      <trkpt lat="50.01294" lon="2.32348">
        <ele>110</ele>
        <time>2023-11-22T15:00:24Z</time>
      </trkpt>
      <trkpt lat="50.01292" lon="2.32348">
        <ele>109.9</ele>
        <time>2023-11-22T15:00:25Z</time>
      </trkpt>
      <trkpt lat="50.01291" lon="2.32348">
        <ele>109.8</ele>
        <time>2023-11-22T15:00:26Z</time>
      </trkpt>
      <trkpt lat="50.0129" lon="2.32347">
        <ele>109.7</ele>
        <time>2023-11-22T15:00:27Z</time>
      </trkpt>
      <trkpt lat="50.01289" lon="2.32347">
        <ele>109.6</ele>
        <time>2023-11-22T15:00:28Z</time>
      </trkpt>
      <trkpt lat="50.01288" lon="2.32347">
        <ele>109.5</ele>
        <time>2023-11-22T15:00:29Z</time>
      </trkpt>
      <trkpt lat="50.01287" lon="2.32346">
        <ele>109.4</ele>
        <time>2023-11-22T15:00:30Z</time>
      </trkpt>
      <trkpt lat="50.01285" lon="2.32346">
        <ele>109.2</ele>
        <time>2023-11-22T15:00:31Z</time>
      </trkpt>
      <trkpt lat="50.01284" lon="2.32345">
        <ele>109.1</ele>
        <time>2023-11-22T15:00:32Z</time>
      </trkpt>
      <trkpt lat="50.01282" lon="2.32345">
        <ele>109</ele>
        <time>2023-11-22T15:00:33Z</time>
      </trkpt>
      <trkpt lat="50.01281" lon="2.32344">
        <ele>108.9</ele>
        <time>2023-11-22T15:00:34Z</time>
      </trkpt>
      <trkpt lat="50.01279" lon="2.32343">
        <ele>108.7</ele>
        <time>2023-11-22T15:00:35Z</time>
      </trkpt>
      <trkpt lat="50.01278" lon="2.32343">
        <ele>108.6</ele>
        <time>2023-11-22T15:00:36Z</time>
      </trkpt>
      <trkpt lat="50.01276" lon="2.32342">
        <ele>108.5</ele>
        <time>2023-11-22T15:00:37Z</time>
      </trkpt>
      <trkpt lat="50.01275" lon="2.32342">
        <ele>108.4</ele>
        <time>2023-11-22T15:00:38Z</time>
      </trkpt>
      <trkpt lat="50.01274" lon="2.32342">
        <ele>108.3</ele>
        <time>2023-11-22T15:00:39Z</time>
      </trkpt>
      <trkpt lat="50.01273" lon="2.32342">
        <ele>108.2</ele>
        <time>2023-11-22T15:00:40Z</time>
      </trkpt>
      <trkpt lat="50.01272" lon="2.32342">
        <ele>108.2</ele>
        <time>2023-11-22T15:00:41Z</time>
      </trkpt>
      <trkpt lat="50.01271" lon="2.32341">
        <ele>108.1</ele>
        <time>2023-11-22T15:00:42Z</time>
      </trkpt>
      <trkpt lat="50.0127" lon="2.32341">
        <ele>108</ele>
        <time>2023-11-22T15:00:43Z</time>
      </trkpt>
      <trkpt lat="50.01269" lon="2.32341">
        <ele>107.9</ele>
        <time>2023-11-22T15:00:44Z</time>
      </trkpt>
      <trkpt lat="50.01269" lon="2.32341">
        <ele>107.8</ele>
        <time>2023-11-22T15:00:45Z</time>
      </trkpt>
      <trkpt lat="50.01268" lon="2.3234">
        <ele>107.8</ele>
        <time>2023-11-22T15:00:46Z</time>
      </trkpt>
      <trkpt lat="50.01267" lon="2.3234">
        <ele>107.7</ele>
        <time>2023-11-22T15:00:47Z</time>
      </trkpt>
      <trkpt lat="50.01266" lon="2.3234">
        <ele>107.6</ele>
        <time>2023-11-22T15:00:48Z</time>
      </trkpt>
      <trkpt lat="50.01266" lon="2.3234">
        <ele>107.6</ele>
        <time>2023-11-22T15:00:49Z</time>
      </trkpt>
      <trkpt lat="50.01265" lon="2.3234">
        <ele>107.5</ele>
        <time>2023-11-22T15:00:50Z</time>
      </trkpt>
      <trkpt lat="50.01264" lon="2.32339">
        <ele>107.5</ele>
        <time>2023-11-22T15:00:51Z</time>
      </trkpt>
      <trkpt lat="50.01263" lon="2.32339">
        <ele>107.4</ele>
        <time>2023-11-22T15:00:52Z</time>
      </trkpt>
      <trkpt lat="50.01263" lon="2.32338">
        <ele>107.3</ele>
        <time>2023-11-22T15:00:53Z</time>
      </trkpt>
      <trkpt lat="50.01262" lon="2.32338">
        <ele>107.3</ele>
        <time>2023-11-22T15:00:54Z</time>
      </trkpt>
      <trkpt lat="50.01261" lon="2.32337">
        <ele>107.2</ele>
        <time>2023-11-22T15:00:55Z</time>
      </trkpt>
      <trkpt lat="50.0126" lon="2.32336">
        <ele>107.1</ele>
        <time>2023-11-22T15:00:56Z</time>
      </trkpt>
      <trkpt lat="50.0126" lon="2.32335">
        <ele>107</ele>
        <time>2023-11-22T15:00:57Z</time>
      </trkpt>
      <trkpt lat="50.01259" lon="2.32334">
        <ele>106.9</ele>
        <time>2023-11-22T15:00:58Z</time>
      </trkpt>
      <trkpt lat="50.01258" lon="2.32333">
        <ele>106.8</ele>
        <time>2023-11-22T15:00:59Z</time>
      </trkpt>
      <trkpt lat="50.01256" lon="2.32332">
        <ele>106.7</ele>
        <time>2023-11-22T15:01:00Z</time>
      </trkpt>
      <trkpt lat="50.01255" lon="2.32331">
        <ele>106.6</ele>
        <time>2023-11-22T15:01:01Z</time>
      </trkpt>
      <trkpt lat="50.01254" lon="2.3233">
        <ele>106.6</ele>
        <time>2023-11-22T15:01:02Z</time>
      </trkpt>
      <trkpt lat="50.01252" lon="2.32329">
        <ele>106.4</ele>
        <time>2023-11-22T15:01:03Z</time>
      </trkpt>
      <trkpt lat="50.01251" lon="2.32328">
        <ele>106.3</ele>
        <time>2023-11-22T15:01:04Z</time>
      </trkpt>
      <trkpt lat="50.01251" lon="2.32327">
        <ele>106.3</ele>
        <time>2023-11-22T15:01:05Z</time>
      </trkpt>
      <trkpt lat="50.0125" lon="2.32326">
        <ele>106.2</ele>
        <time>2023-11-22T15:01:06Z</time>
      </trkpt>
      <trkpt lat="50.01248" lon="2.32325">
        <ele>106.1</ele>
        <time>2023-11-22T15:01:07Z</time>
      </trkpt>
      <trkpt lat="50.01247" lon="2.32323">
        <ele>106</ele>
        <time>2023-11-22T15:01:08Z</time>
      </trkpt>
      <trkpt lat="50.01246" lon="2.32321">
        <ele>105.8</ele>
        <time>2023-11-22T15:01:09Z</time>
      </trkpt>
      <trkpt lat="50.01245" lon="2.32319">
        <ele>105.7</ele>
        <time>2023-11-22T15:01:10Z</time>
      </trkpt>
      <trkpt lat="50.01244" lon="2.32317">
        <ele>105.6</ele>
        <time>2023-11-22T15:01:11Z</time>
      </trkpt>
      <trkpt lat="50.01243" lon="2.32315">
        <ele>105.5</ele>
        <time>2023-11-22T15:01:12Z</time>
      </trkpt>
      <trkpt lat="50.01242" lon="2.32313">
        <ele>105.3</ele>
        <time>2023-11-22T15:01:13Z</time>
      </trkpt>
      <trkpt lat="50.01241" lon="2.32311">
        <ele>105.2</ele>
        <time>2023-11-22T15:01:14Z</time>
      </trkpt>
      <trkpt lat="50.0124" lon="2.32309">
        <ele>105.1</ele>
        <time>2023-11-22T15:01:15Z</time>
      </trkpt>
      <trkpt lat="50.01239" lon="2.32306">
        <ele>104.9</ele>
        <time>2023-11-22T15:01:16Z</time>
      </trkpt>
      <trkpt lat="50.01238" lon="2.32304">
        <ele>104.8</ele>
        <time>2023-11-22T15:01:17Z</time>
      </trkpt>
      <trkpt lat="50.01237" lon="2.32301">
        <ele>104.7</ele>
        <time>2023-11-22T15:01:18Z</time>
      </trkpt>
      <trkpt lat="50.01237" lon="2.32299">
        <ele>104.5</ele>
        <time>2023-11-22T15:01:19Z</time>
      </trkpt>
      <trkpt lat="50.01236" lon="2.32296">
        <ele>104.4</ele>
        <time>2023-11-22T15:01:20Z</time>
      </trkpt>
      <trkpt lat="50.01236" lon="2.32294">
        <ele>104.3</ele>
        <time>2023-11-22T15:01:21Z</time>
      </trkpt>
      <trkpt lat="50.01235" lon="2.32291">
        <ele>104.1</ele>
        <time>2023-11-22T15:01:22Z</time>
      </trkpt>
      <trkpt lat="50.01235" lon="2.32289">
        <ele>104</ele>
        <time>2023-11-22T15:01:23Z</time>
      </trkpt>
      <trkpt lat="50.01234" lon="2.32287">
        <ele>103.9</ele>
        <time>2023-11-22T15:01:24Z</time>
      </trkpt>
      <trkpt lat="50.01234" lon="2.32285">
        <ele>103.8</ele>
        <time>2023-11-22T15:01:25Z</time>
      </trkpt>
      <trkpt lat="50.01234" lon="2.32282">
        <ele>103.7</ele>
        <time>2023-11-22T15:01:26Z</time>
      </trkpt>
      <trkpt lat="50.01233" lon="2.3228">
        <ele>103.6</ele>
        <time>2023-11-22T15:01:27Z</time>
      </trkpt>
      <trkpt lat="50.01233" lon="2.32278">
        <ele>103.5</ele>
        <time>2023-11-22T15:01:28Z</time>
      </trkpt>
      <trkpt lat="50.01232" lon="2.32275">
        <ele>103.4</ele>
        <time>2023-11-22T15:01:29Z</time>
      </trkpt>
      <trkpt lat="50.01232" lon="2.32273">
        <ele>103.3</ele>
        <time>2023-11-22T15:01:30Z</time>
      </trkpt>
      <trkpt lat="50.01231" lon="2.32271">
        <ele>103.2</ele>
        <time>2023-11-22T15:01:31Z</time>
      </trkpt>
      <trkpt lat="50.01231" lon="2.32269">
        <ele>103.1</ele>
        <time>2023-11-22T15:01:32Z</time>
      </trkpt>
      <trkpt lat="50.0123" lon="2.32267">
        <ele>103</ele>
        <time>2023-11-22T15:01:33Z</time>
      </trkpt>
      <trkpt lat="50.01229" lon="2.32264">
        <ele>102.9</ele>
        <time>2023-11-22T15:01:34Z</time>
      </trkpt>
      <trkpt lat="50.01229" lon="2.32263">
        <ele>102.8</ele>
        <time>2023-11-22T15:01:35Z</time>
      </trkpt>
      <trkpt lat="50.01228" lon="2.32261">
        <ele>102.8</ele>
        <time>2023-11-22T15:01:36Z</time>
      </trkpt>
      <trkpt lat="50.01227" lon="2.32259">
        <ele>102.7</ele>
        <time>2023-11-22T15:01:37Z</time>
      </trkpt>
      <trkpt lat="50.01227" lon="2.32258">
        <ele>102.7</ele>
        <time>2023-11-22T15:01:38Z</time>
      </trkpt>
      <trkpt lat="50.01227" lon="2.32256">
        <ele>102.6</ele>
        <time>2023-11-22T15:01:39Z</time>
      </trkpt>
      <trkpt lat="50.01225" lon="2.32254">
        <ele>102.5</ele>
        <time>2023-11-22T15:01:40Z</time>
      </trkpt>
      <trkpt lat="50.01225" lon="2.32253">
        <ele>102.5</ele>
        <time>2023-11-22T15:01:41Z</time>
      </trkpt>
      <trkpt lat="50.01225" lon="2.32252">
        <ele>102.5</ele>
        <time>2023-11-22T15:01:42Z</time>
      </trkpt>
      <trkpt lat="50.01224" lon="2.3225">
        <ele>102.4</ele>
        <time>2023-11-22T15:01:43Z</time>
      </trkpt>
      <trkpt lat="50.01223" lon="2.32249">
        <ele>102.4</ele>
        <time>2023-11-22T15:01:44Z</time>
      </trkpt>
      <trkpt lat="50.01223" lon="2.32248">
        <ele>102.3</ele>
        <time>2023-11-22T15:01:45Z</time>
      </trkpt>
      <trkpt lat="50.01222" lon="2.32246">
        <ele>102.3</ele>
        <time>2023-11-22T15:01:46Z</time>
      </trkpt>
      <trkpt lat="50.01222" lon="2.32245">
        <ele>102.2</ele>
        <time>2023-11-22T15:01:47Z</time>
      </trkpt>
      <trkpt lat="50.01221" lon="2.32243">
        <ele>102.2</ele>
        <time>2023-11-22T15:01:48Z</time>
      </trkpt>
      <trkpt lat="50.0122" lon="2.32242">
        <ele>102.1</ele>
        <time>2023-11-22T15:01:49Z</time>
      </trkpt>
      <trkpt lat="50.0122" lon="2.32241">
        <ele>102.1</ele>
        <time>2023-11-22T15:01:50Z</time>
      </trkpt>
      <trkpt lat="50.01219" lon="2.32239">
        <ele>102.1</ele>
        <time>2023-11-22T15:01:51Z</time>
      </trkpt>
      <trkpt lat="50.01218" lon="2.32238">
        <ele>102</ele>
        <time>2023-11-22T15:01:52Z</time>
      </trkpt>
      <trkpt lat="50.01217" lon="2.32237">
        <ele>102</ele>
        <time>2023-11-22T15:01:53Z</time>
      </trkpt>
      <trkpt lat="50.01217" lon="2.32235">
        <ele>101.9</ele>
        <time>2023-11-22T15:01:54Z</time>
      </trkpt>
      <trkpt lat="50.01216" lon="2.32234">
        <ele>101.9</ele>
        <time>2023-11-22T15:01:55Z</time>
      </trkpt>
      <trkpt lat="50.01215" lon="2.32233">
        <ele>101.9</ele>
        <time>2023-11-22T15:01:56Z</time>
      </trkpt>
      <trkpt lat="50.01215" lon="2.32232">
        <ele>101.8</ele>
        <time>2023-11-22T15:01:57Z</time>
      </trkpt>
      <trkpt lat="50.01214" lon="2.32231">
        <ele>101.8</ele>
        <time>2023-11-22T15:01:58Z</time>
      </trkpt>
      <trkpt lat="50.01213" lon="2.3223">
        <ele>101.8</ele>
        <time>2023-11-22T15:01:59Z</time>
      </trkpt>
      <trkpt lat="50.01212" lon="2.32229">
        <ele>101.7</ele>
        <time>2023-11-22T15:02:00Z</time>
      </trkpt>
      <trkpt lat="50.01211" lon="2.32228">
        <ele>101.7</ele>
        <time>2023-11-22T15:02:01Z</time>
      </trkpt>
      <trkpt lat="50.0121" lon="2.32228">
        <ele>101.7</ele>
        <time>2023-11-22T15:02:02Z</time>
      </trkpt>
      <trkpt lat="50.01209" lon="2.32227">
        <ele>101.6</ele>
        <time>2023-11-22T15:02:03Z</time>
      </trkpt>
      <trkpt lat="50.01208" lon="2.32226">
        <ele>101.6</ele>
        <time>2023-11-22T15:02:04Z</time>
      </trkpt>
      <trkpt lat="50.01208" lon="2.32226">
        <ele>101.6</ele>
        <time>2023-11-22T15:02:05Z</time>
      </trkpt>
      <trkpt lat="50.01207" lon="2.32225">
        <ele>101.5</ele>
        <time>2023-11-22T15:02:06Z</time>
      </trkpt>
      <trkpt lat="50.01206" lon="2.32224">
        <ele>101.5</ele>
        <time>2023-11-22T15:02:07Z</time>
      </trkpt>
      <trkpt lat="50.01205" lon="2.32223">
        <ele>101.5</ele>
        <time>2023-11-22T15:02:08Z</time>
      </trkpt>
      <trkpt lat="50.01204" lon="2.32223">
        <ele>101.5</ele>
        <time>2023-11-22T15:02:09Z</time>
      </trkpt>
      <trkpt lat="50.01203" lon="2.32222">
        <ele>101.4</ele>
        <time>2023-11-22T15:02:10Z</time>
      </trkpt>
      <trkpt lat="50.01202" lon="2.32221">
        <ele>101.4</ele>
        <time>2023-11-22T15:02:11Z</time>
      </trkpt>
      <trkpt lat="50.01201" lon="2.3222">
        <ele>101.4</ele>
        <time>2023-11-22T15:02:12Z</time>
      </trkpt>
      <trkpt lat="50.01201" lon="2.32219">
        <ele>101.3</ele>
        <time>2023-11-22T15:02:13Z</time>
      </trkpt>
      <trkpt lat="50.012" lon="2.32219">
        <ele>101.3</ele>
        <time>2023-11-22T15:02:14Z</time>
      </trkpt>
      <trkpt lat="50.01199" lon="2.32218">
        <ele>101.3</ele>
        <time>2023-11-22T15:02:15Z</time>
      </trkpt>
      <trkpt lat="50.01198" lon="2.32218">
        <ele>101.3</ele>
        <time>2023-11-22T15:02:16Z</time>
      </trkpt>
      <trkpt lat="50.01197" lon="2.32219">
        <ele>101.3</ele>
        <time>2023-11-22T15:02:17Z</time>
      </trkpt>
      <trkpt lat="50.01197" lon="2.32219">
        <ele>101.3</ele>
        <time>2023-11-22T15:02:18Z</time>
      </trkpt>
      <trkpt lat="50.01196" lon="2.32219">
        <ele>101.3</ele>
        <time>2023-11-22T15:02:19Z</time>
      </trkpt>
      <trkpt lat="50.01196" lon="2.3222">
        <ele>101.3</ele>
        <time>2023-11-22T15:02:20Z</time>
      </trkpt>
      <trkpt lat="50.01196" lon="2.3222">
        <ele>101.2</ele>
        <time>2023-11-22T15:02:21Z</time>
      </trkpt>
      <trkpt lat="50.01196" lon="2.3222">
        <ele>101.2</ele>
        <time>2023-11-22T15:02:22Z</time>
      </trkpt>
      <trkpt lat="50.01196" lon="2.3222">
        <ele>101.2</ele>
        <time>2023-11-22T15:02:23Z</time>
      </trkpt>
      <trkpt lat="50.01196" lon="2.3222">
        <ele>101.2</ele>
        <time>2023-11-22T15:02:24Z</time>
      </trkpt>
      <trkpt lat="50.01196" lon="2.3222">
        <ele>101.2</ele>
        <time>2023-11-22T15:02:25Z</time>
      </trkpt>
      <trkpt lat="50.01196" lon="2.3222">
        <ele>101.2</ele>
        <time>2023-11-22T15:02:26Z</time>
      </trkpt>
      <trkpt lat="50.01196" lon="2.3222">
        <ele>101.2</ele>
        <time>2023-11-22T15:02:27Z</time>
      </trkpt>
      <trkpt lat="50.01196" lon="2.3222">
        <ele>101.2</ele>
        <time>2023-11-22T15:02:28Z</time>
      </trkpt>
      <trkpt lat="50.01196" lon="2.3222">
        <ele>101.2</ele>
        <time>2023-11-22T15:02:29Z</time>
      </trkpt>
      <trkpt lat="50.01196" lon="2.3222">
        <ele>101.2</ele>
        <time>2023-11-22T15:02:30Z</time>
      </trkpt>
      <trkpt lat="50.01196" lon="2.3222">
        <ele>101.2</ele>
        <time>2023-11-22T15:02:31Z</time>
      </trkpt>
      <trkpt lat="50.01196" lon="2.3222">
        <ele>101.2</ele>
        <time>2023-11-22T15:02:32Z</time>
      </trkpt>
      <trkpt lat="50.01196" lon="2.3222">
        <ele>101.2</ele>
        <time>2023-11-22T15:02:33Z</time>
      </trkpt>
      <trkpt lat="50.01196" lon="2.3222">
        <ele>101.2</ele>
        <time>2023-11-22T15:02:34Z</time>
      </trkpt>
      <trkpt lat="50.01196" lon="2.3222">
        <ele>101.2</ele>
        <time>2023-11-22T15:02:35Z</time>
      </trkpt>
      <trkpt lat="50.01196" lon="2.3222">
        <ele>101.2</ele>
        <time>2023-11-22T15:02:36Z</time>
      </trkpt>
      <trkpt lat="50.01196" lon="2.3222">
        <ele>101.2</ele>
        <time>2023-11-22T15:02:37Z</time>
      </trkpt>
      <trkpt lat="50.01196" lon="2.32217">
        <ele>101.2</ele>
        <time>2023-11-22T15:04:10Z</time>
      </trkpt>
      <trkpt lat="50.01195" lon="2.32217">
        <ele>101.2</ele>
        <time>2023-11-22T15:04:11Z</time>
      </trkpt>
      <trkpt lat="50.01193" lon="2.32216">
        <ele>101.2</ele>
        <time>2023-11-22T15:04:12Z</time>
      </trkpt>
      <trkpt lat="50.01191" lon="2.32216">
        <ele>101.1</ele>
        <time>2023-11-22T15:04:13Z</time>
      </trkpt>
      <trkpt lat="50.0119" lon="2.32215">
        <ele>101.1</ele>
        <time>2023-11-22T15:04:14Z</time>
      </trkpt>
      <trkpt lat="50.0119" lon="2.32215">
        <ele>101.1</ele>
        <time>2023-11-22T15:04:15Z</time>
      </trkpt>
      <trkpt lat="50.01188" lon="2.32214">
        <ele>101.1</ele>
        <time>2023-11-22T15:04:16Z</time>
      </trkpt>
      <trkpt lat="50.01187" lon="2.32214">
        <ele>101.1</ele>
        <time>2023-11-22T15:04:17Z</time>
      </trkpt>
      <trkpt lat="50.01186" lon="2.32214">
        <ele>101.1</ele>
        <time>2023-11-22T15:04:18Z</time>
      </trkpt>
      <trkpt lat="50.01185" lon="2.32213">
        <ele>101.1</ele>
        <time>2023-11-22T15:04:19Z</time>
      </trkpt>
      <trkpt lat="50.01184" lon="2.32212">
        <ele>101.1</ele>
        <time>2023-11-22T15:04:20Z</time>
      </trkpt>
      <trkpt lat="50.01183" lon="2.32212">
        <ele>101.1</ele>
        <time>2023-11-22T15:04:21Z</time>
      </trkpt>
      <trkpt lat="50.01182" lon="2.32212">
        <ele>101.1</ele>
        <time>2023-11-22T15:04:22Z</time>
      </trkpt>
      <trkpt lat="50.0118" lon="2.32211">
        <ele>101.1</ele>
        <time>2023-11-22T15:04:23Z</time>
      </trkpt>
      <trkpt lat="50.01179" lon="2.32211">
        <ele>101.1</ele>
        <time>2023-11-22T15:04:24Z</time>
      </trkpt>
      <trkpt lat="50.01179" lon="2.32211">
        <ele>101.1</ele>
        <time>2023-11-22T15:04:25Z</time>
      </trkpt>
      <trkpt lat="50.01178" lon="2.3221">
        <ele>101.1</ele>
        <time>2023-11-22T15:04:26Z</time>
      </trkpt>
      <trkpt lat="50.01176" lon="2.32209">
        <ele>101.1</ele>
        <time>2023-11-22T15:04:27Z</time>
      </trkpt>
      <trkpt lat="50.01175" lon="2.32208">
        <ele>101.1</ele>
        <time>2023-11-22T15:04:28Z</time>
      </trkpt>
      <trkpt lat="50.01174" lon="2.32207">
        <ele>101.1</ele>
        <time>2023-11-22T15:04:29Z</time>
      </trkpt>
      <trkpt lat="50.01173" lon="2.32206">
        <ele>101.1</ele>
        <time>2023-11-22T15:04:30Z</time>
      </trkpt>
      <trkpt lat="50.01172" lon="2.32206">
        <ele>101.1</ele>
        <time>2023-11-22T15:04:31Z</time>
      </trkpt>
      <trkpt lat="50.01171" lon="2.32205">
        <ele>101.1</ele>
        <time>2023-11-22T15:04:32Z</time>
      </trkpt>
      <trkpt lat="50.0117" lon="2.32204">
        <ele>101.1</ele>
        <time>2023-11-22T15:04:33Z</time>
      </trkpt>
      <trkpt lat="50.01169" lon="2.32204">
        <ele>101.1</ele>
        <time>2023-11-22T15:04:34Z</time>
      </trkpt>
      <trkpt lat="50.01168" lon="2.32203">
        <ele>101.1</ele>
        <time>2023-11-22T15:04:35Z</time>
      </trkpt>
      <trkpt lat="50.01167" lon="2.32202">
        <ele>101.1</ele>
        <time>2023-11-22T15:04:36Z</time>
      </trkpt>
      <trkpt lat="50.01166" lon="2.32201">
        <ele>101.1</ele>
        <time>2023-11-22T15:04:37Z</time>
      </trkpt>
      <trkpt lat="50.01165" lon="2.322">
        <ele>101.1</ele>
        <time>2023-11-22T15:04:38Z</time>
      </trkpt>
      <trkpt lat="50.01164" lon="2.322">
        <ele>101.1</ele>
        <time>2023-11-22T15:04:39Z</time>
      </trkpt>
      <trkpt lat="50.01163" lon="2.32199">
        <ele>101.2</ele>
        <time>2023-11-22T15:04:40Z</time>
      </trkpt>
      <trkpt lat="50.01162" lon="2.32198">
        <ele>101.2</ele>
        <time>2023-11-22T15:04:41Z</time>
      </trkpt>
      <trkpt lat="50.01161" lon="2.32197">
        <ele>101.2</ele>
        <time>2023-11-22T15:04:42Z</time>
      </trkpt>
      <trkpt lat="50.0116" lon="2.32197">
        <ele>101.2</ele>
        <time>2023-11-22T15:04:43Z</time>
      </trkpt>
      <trkpt lat="50.01159" lon="2.32196">
        <ele>101.2</ele>
        <time>2023-11-22T15:04:44Z</time>
      </trkpt>
      <trkpt lat="50.01158" lon="2.32195">
        <ele>101.2</ele>
        <time>2023-11-22T15:04:45Z</time>
      </trkpt>
      <trkpt lat="50.01157" lon="2.32194">
        <ele>101.3</ele>
        <time>2023-11-22T15:04:46Z</time>
      </trkpt>
      <trkpt lat="50.01156" lon="2.32194">
        <ele>101.3</ele>
        <time>2023-11-22T15:04:47Z</time>
      </trkpt>
      <trkpt lat="50.01155" lon="2.32193">
        <ele>101.3</ele>
        <time>2023-11-22T15:04:48Z</time>
      </trkpt>
      <trkpt lat="50.01154" lon="2.32192">
        <ele>101.3</ele>
        <time>2023-11-22T15:04:49Z</time>
      </trkpt>
      <trkpt lat="50.01153" lon="2.32191">
        <ele>101.3</ele>
        <time>2023-11-22T15:04:50Z</time>
      </trkpt>
      <trkpt lat="50.01152" lon="2.3219">
        <ele>101.3</ele>
        <time>2023-11-22T15:04:51Z</time>
      </trkpt>
      <trkpt lat="50.01151" lon="2.32189">
        <ele>101.4</ele>
        <time>2023-11-22T15:04:52Z</time>
      </trkpt>
      <trkpt lat="50.0115" lon="2.32188">
        <ele>101.4</ele>
        <time>2023-11-22T15:04:53Z</time>
      </trkpt>
      <trkpt lat="50.01149" lon="2.32187">
        <ele>101.4</ele>
        <time>2023-11-22T15:04:54Z</time>
      </trkpt>
      <trkpt lat="50.01148" lon="2.32186">
        <ele>101.4</ele>
        <time>2023-11-22T15:04:55Z</time>
      </trkpt>
      <trkpt lat="50.01147" lon="2.32185">
        <ele>101.5</ele>
        <time>2023-11-22T15:04:56Z</time>
      </trkpt>
      <trkpt lat="50.01146" lon="2.32185">
        <ele>101.5</ele>
        <time>2023-11-22T15:04:57Z</time>
      </trkpt>
      <trkpt lat="50.01145" lon="2.32184">
        <ele>101.5</ele>
        <time>2023-11-22T15:04:58Z</time>
      </trkpt>
      <trkpt lat="50.01144" lon="2.32183">
        <ele>101.6</ele>
        <time>2023-11-22T15:04:59Z</time>
      </trkpt>
      <trkpt lat="50.01143" lon="2.32182">
        <ele>101.6</ele>
        <time>2023-11-22T15:05:00Z</time>
      </trkpt>
      <trkpt lat="50.01141" lon="2.32181">
        <ele>101.7</ele>
        <time>2023-11-22T15:05:01Z</time>
      </trkpt>
      <trkpt lat="50.0114" lon="2.3218">
        <ele>101.7</ele>
        <time>2023-11-22T15:05:02Z</time>
      </trkpt>
      <trkpt lat="50.0114" lon="2.3218">
        <ele>101.7</ele>
        <time>2023-11-22T15:05:03Z</time>
      </trkpt>
      <trkpt lat="50.01138" lon="2.32178">
        <ele>101.8</ele>
        <time>2023-11-22T15:05:04Z</time>
      </trkpt>
      <trkpt lat="50.01137" lon="2.32177">
        <ele>101.8</ele>
        <time>2023-11-22T15:05:05Z</time>
      </trkpt>
      <trkpt lat="50.01137" lon="2.32177">
        <ele>101.8</ele>
        <time>2023-11-22T15:05:06Z</time>
      </trkpt>
      <trkpt lat="50.01136" lon="2.32176">
        <ele>101.9</ele>
        <time>2023-11-22T15:05:07Z</time>
      </trkpt>
      <trkpt lat="50.01135" lon="2.32175">
        <ele>101.9</ele>
        <time>2023-11-22T15:05:08Z</time>
      </trkpt>
      <trkpt lat="50.01134" lon="2.32174">
        <ele>101.9</ele>
        <time>2023-11-22T15:05:09Z</time>
      </trkpt>
      <trkpt lat="50.01133" lon="2.32173">
        <ele>102</ele>
        <time>2023-11-22T15:05:10Z</time>
      </trkpt>
      <trkpt lat="50.01132" lon="2.32173">
        <ele>102</ele>
        <time>2023-11-22T15:05:11Z</time>
      </trkpt>
      <trkpt lat="50.01131" lon="2.32172">
        <ele>102</ele>
        <time>2023-11-22T15:05:12Z</time>
      </trkpt>
      <trkpt lat="50.01131" lon="2.32171">
        <ele>102.1</ele>
        <time>2023-11-22T15:05:13Z</time>
      </trkpt>
      <trkpt lat="50.0113" lon="2.32171">
        <ele>102.1</ele>
        <time>2023-11-22T15:05:14Z</time>
      </trkpt>
      <trkpt lat="50.01129" lon="2.3217">
        <ele>102.1</ele>
        <time>2023-11-22T15:05:15Z</time>
      </trkpt>
      <trkpt lat="50.01129" lon="2.32169">
        <ele>102.2</ele>
        <time>2023-11-22T15:05:16Z</time>
      </trkpt>
      <trkpt lat="50.01128" lon="2.32168">
        <ele>102.2</ele>
        <time>2023-11-22T15:05:17Z</time>
      </trkpt>
      <trkpt lat="50.01127" lon="2.32168">
        <ele>102.3</ele>
        <time>2023-11-22T15:05:18Z</time>
      </trkpt>
      <trkpt lat="50.01126" lon="2.32167">
        <ele>102.3</ele>
        <time>2023-11-22T15:05:19Z</time>
      </trkpt>
      <trkpt lat="50.01125" lon="2.32166">
        <ele>102.3</ele>
        <time>2023-11-22T15:05:20Z</time>
      </trkpt>
      <trkpt lat="50.01124" lon="2.32166">
        <ele>102.4</ele>
        <time>2023-11-22T15:05:21Z</time>
      </trkpt>
      <trkpt lat="50.01123" lon="2.32165">
        <ele>102.4</ele>
        <time>2023-11-22T15:05:22Z</time>
      </trkpt>
      <trkpt lat="50.01122" lon="2.32164">
        <ele>102.4</ele>
        <time>2023-11-22T15:05:23Z</time>
      </trkpt>
      <trkpt lat="50.01121" lon="2.32163">
        <ele>102.5</ele>
        <time>2023-11-22T15:05:24Z</time>
      </trkpt>
      <trkpt lat="50.0112" lon="2.32162">
        <ele>102.5</ele>
        <time>2023-11-22T15:05:25Z</time>
      </trkpt>
      <trkpt lat="50.01119" lon="2.32162">
        <ele>102.6</ele>
        <time>2023-11-22T15:05:26Z</time>
      </trkpt>
      <trkpt lat="50.01118" lon="2.32161">
        <ele>102.6</ele>
        <time>2023-11-22T15:05:27Z</time>
      </trkpt>
      <trkpt lat="50.01117" lon="2.3216">
        <ele>102.7</ele>
        <time>2023-11-22T15:05:28Z</time>
      </trkpt>
      <trkpt lat="50.01116" lon="2.32159">
        <ele>102.7</ele>
        <time>2023-11-22T15:05:29Z</time>
      </trkpt>
      <trkpt lat="50.01115" lon="2.32159">
        <ele>102.8</ele>
        <time>2023-11-22T15:05:30Z</time>
      </trkpt>
      <trkpt lat="50.01114" lon="2.32158">
        <ele>102.8</ele>
        <time>2023-11-22T15:05:31Z</time>
      </trkpt>
      <trkpt lat="50.01114" lon="2.32157">
        <ele>102.9</ele>
        <time>2023-11-22T15:05:32Z</time>
      </trkpt>
      <trkpt lat="50.01113" lon="2.32156">
        <ele>102.9</ele>
        <time>2023-11-22T15:05:33Z</time>
      </trkpt>
      <trkpt lat="50.01112" lon="2.32156">
        <ele>102.9</ele>
        <time>2023-11-22T15:05:34Z</time>
      </trkpt>
      <trkpt lat="50.01111" lon="2.32155">
        <ele>103</ele>
        <time>2023-11-22T15:05:35Z</time>
      </trkpt>
      <trkpt lat="50.0111" lon="2.32154">
        <ele>103</ele>
        <time>2023-11-22T15:05:36Z</time>
      </trkpt>
      <trkpt lat="50.01109" lon="2.32153">
        <ele>103.1</ele>
        <time>2023-11-22T15:05:37Z</time>
      </trkpt>
      <trkpt lat="50.01108" lon="2.32153">
        <ele>103.1</ele>
        <time>2023-11-22T15:05:38Z</time>
      </trkpt>
      <trkpt lat="50.01107" lon="2.32152">
        <ele>103.2</ele>
        <time>2023-11-22T15:05:39Z</time>
      </trkpt>
      <trkpt lat="50.01106" lon="2.32151">
        <ele>103.2</ele>
        <time>2023-11-22T15:05:40Z</time>
      </trkpt>
      <trkpt lat="50.01105" lon="2.3215">
        <ele>103.3</ele>
        <time>2023-11-22T15:05:41Z</time>
      </trkpt>
      <trkpt lat="50.01105" lon="2.32149">
        <ele>103.3</ele>
        <time>2023-11-22T15:05:42Z</time>
      </trkpt>
      <trkpt lat="50.01104" lon="2.32148">
        <ele>103.4</ele>
        <time>2023-11-22T15:05:43Z</time>
      </trkpt>
      <trkpt lat="50.01103" lon="2.32147">
        <ele>103.4</ele>
        <time>2023-11-22T15:05:44Z</time>
      </trkpt>
      <trkpt lat="50.01102" lon="2.32146">
        <ele>103.5</ele>
        <time>2023-11-22T15:05:45Z</time>
      </trkpt>
      <trkpt lat="50.01101" lon="2.32146">
        <ele>103.5</ele>
        <time>2023-11-22T15:05:46Z</time>
      </trkpt>
      <trkpt lat="50.011" lon="2.32145">
        <ele>103.6</ele>
        <time>2023-11-22T15:05:47Z</time>
      </trkpt>
      <trkpt lat="50.01099" lon="2.32144">
        <ele>103.6</ele>
        <time>2023-11-22T15:05:48Z</time>
      </trkpt>
      <trkpt lat="50.01098" lon="2.32144">
        <ele>103.7</ele>
        <time>2023-11-22T15:05:49Z</time>
      </trkpt>
      <trkpt lat="50.01097" lon="2.32143">
        <ele>103.7</ele>
        <time>2023-11-22T15:05:50Z</time>
      </trkpt>
      <trkpt lat="50.01096" lon="2.32143">
        <ele>103.8</ele>
        <time>2023-11-22T15:05:51Z</time>
      </trkpt>
      <trkpt lat="50.01095" lon="2.32142">
        <ele>103.8</ele>
        <time>2023-11-22T15:05:52Z</time>
      </trkpt>
      <trkpt lat="50.01094" lon="2.32141">
        <ele>103.9</ele>
        <time>2023-11-22T15:05:53Z</time>
      </trkpt>
      <trkpt lat="50.01093" lon="2.32141">
        <ele>103.9</ele>
        <time>2023-11-22T15:05:54Z</time>
      </trkpt>
      <trkpt lat="50.01093" lon="2.3214">
        <ele>104</ele>
        <time>2023-11-22T15:05:55Z</time>
      </trkpt>
      <trkpt lat="50.01092" lon="2.3214">
        <ele>104</ele>
        <time>2023-11-22T15:05:56Z</time>
      </trkpt>
      <trkpt lat="50.01091" lon="2.32139">
        <ele>104.1</ele>
        <time>2023-11-22T15:05:57Z</time>
      </trkpt>
      <trkpt lat="50.0109" lon="2.32138">
        <ele>104.1</ele>
        <time>2023-11-22T15:05:58Z</time>
      </trkpt>
      <trkpt lat="50.01089" lon="2.32138">
        <ele>104.2</ele>
        <time>2023-11-22T15:05:59Z</time>
      </trkpt>
      <trkpt lat="50.01088" lon="2.32137">
        <ele>104.3</ele>
        <time>2023-11-22T15:06:00Z</time>
      </trkpt>
      <trkpt lat="50.01087" lon="2.32137">
        <ele>104.3</ele>
        <time>2023-11-22T15:06:01Z</time>
      </trkpt>
      <trkpt lat="50.01086" lon="2.32136">
        <ele>104.4</ele>
        <time>2023-11-22T15:06:02Z</time>
      </trkpt>
      <trkpt lat="50.01085" lon="2.32136">
        <ele>104.5</ele>
        <time>2023-11-22T15:06:03Z</time>
      </trkpt>
      <trkpt lat="50.01084" lon="2.32135">
        <ele>104.5</ele>
        <time>2023-11-22T15:06:04Z</time>
      </trkpt>
      <trkpt lat="50.01083" lon="2.32135">
        <ele>104.6</ele>
        <time>2023-11-22T15:06:05Z</time>
      </trkpt>
      <trkpt lat="50.01082" lon="2.32135">
        <ele>104.6</ele>
        <time>2023-11-22T15:06:06Z</time>
      </trkpt>
      <trkpt lat="50.01081" lon="2.32134">
        <ele>104.7</ele>
        <time>2023-11-22T15:06:07Z</time>
      </trkpt>
      <trkpt lat="50.01079" lon="2.32134">
        <ele>104.8</ele>
        <time>2023-11-22T15:06:08Z</time>
      </trkpt>
      <trkpt lat="50.01078" lon="2.32133">
        <ele>104.9</ele>
        <time>2023-11-22T15:06:09Z</time>
      </trkpt>
      <trkpt lat="50.01077" lon="2.32133">
        <ele>104.9</ele>
        <time>2023-11-22T15:06:10Z</time>
      </trkpt>
      <trkpt lat="50.01076" lon="2.32133">
        <ele>105</ele>
        <time>2023-11-22T15:06:11Z</time>
      </trkpt>
      <trkpt lat="50.01075" lon="2.32133">
        <ele>105</ele>
        <time>2023-11-22T15:06:12Z</time>
      </trkpt>
      <trkpt lat="50.01074" lon="2.32132">
        <ele>105.1</ele>
        <time>2023-11-22T15:06:13Z</time>
      </trkpt>
      <trkpt lat="50.01073" lon="2.32132">
        <ele>105.2</ele>
        <time>2023-11-22T15:06:14Z</time>
      </trkpt>
      <trkpt lat="50.01072" lon="2.32132">
        <ele>105.2</ele>
        <time>2023-11-22T15:06:15Z</time>
      </trkpt>
      <trkpt lat="50.01071" lon="2.32132">
        <ele>105.3</ele>
        <time>2023-11-22T15:06:16Z</time>
      </trkpt>
      <trkpt lat="50.01069" lon="2.32132">
        <ele>105.4</ele>
        <time>2023-11-22T15:06:17Z</time>
      </trkpt>
      <trkpt lat="50.01068" lon="2.32132">
        <ele>105.5</ele>
        <time>2023-11-22T15:06:18Z</time>
      </trkpt>
      <trkpt lat="50.01067" lon="2.32132">
        <ele>105.5</ele>
        <time>2023-11-22T15:06:19Z</time>
      </trkpt>
      <trkpt lat="50.01066" lon="2.32132">
        <ele>105.6</ele>
        <time>2023-11-22T15:06:20Z</time>
      </trkpt>
      <trkpt lat="50.01065" lon="2.32132">
        <ele>105.7</ele>
        <time>2023-11-22T15:06:21Z</time>
      </trkpt>
      <trkpt lat="50.01064" lon="2.32132">
        <ele>105.7</ele>
        <time>2023-11-22T15:06:22Z</time>
      </trkpt>
      <trkpt lat="50.01063" lon="2.32132">
        <ele>105.8</ele>
        <time>2023-11-22T15:06:23Z</time>
      </trkpt>
      <trkpt lat="50.01061" lon="2.32132">
        <ele>105.9</ele>
        <time>2023-11-22T15:06:24Z</time>
      </trkpt>
      <trkpt lat="50.0106" lon="2.32132">
        <ele>106</ele>
        <time>2023-11-22T15:06:25Z</time>
      </trkpt>
      <trkpt lat="50.01059" lon="2.32132">
        <ele>106</ele>
        <time>2023-11-22T15:06:26Z</time>
      </trkpt>
      <trkpt lat="50.01058" lon="2.32133">
        <ele>106.1</ele>
        <time>2023-11-22T15:06:27Z</time>
      </trkpt>
      <trkpt lat="50.01057" lon="2.32133">
        <ele>106.2</ele>
        <time>2023-11-22T15:06:28Z</time>
      </trkpt>
      <trkpt lat="50.01056" lon="2.32133">
        <ele>106.2</ele>
        <time>2023-11-22T15:06:29Z</time>
      </trkpt>
      <trkpt lat="50.01055" lon="2.32133">
        <ele>106.3</ele>
        <time>2023-11-22T15:06:30Z</time>
      </trkpt>
      <trkpt lat="50.01054" lon="2.32133">
        <ele>106.4</ele>
        <time>2023-11-22T15:06:31Z</time>
      </trkpt>
      <trkpt lat="50.01053" lon="2.32132">
        <ele>106.4</ele>
        <time>2023-11-22T15:06:32Z</time>
      </trkpt>
      <trkpt lat="50.01053" lon="2.32131">
        <ele>106.5</ele>
        <time>2023-11-22T15:06:33Z</time>
      </trkpt>
      <trkpt lat="50.01052" lon="2.32129">
        <ele>106.6</ele>
        <time>2023-11-22T15:06:34Z</time>
      </trkpt>
      <trkpt lat="50.01051" lon="2.32129">
        <ele>106.6</ele>
        <time>2023-11-22T15:06:35Z</time>
      </trkpt>
      <trkpt lat="50.01051" lon="2.32128">
        <ele>106.7</ele>
        <time>2023-11-22T15:06:36Z</time>
      </trkpt>
      <trkpt lat="50.0105" lon="2.32128">
        <ele>106.7</ele>
        <time>2023-11-22T15:06:37Z</time>
      </trkpt>
      <trkpt lat="50.01049" lon="2.32129">
        <ele>106.8</ele>
        <time>2023-11-22T15:06:38Z</time>
      </trkpt>
      <trkpt lat="50.01048" lon="2.32129">
        <ele>106.9</ele>
        <time>2023-11-22T15:06:39Z</time>
      </trkpt>
      <trkpt lat="50.01047" lon="2.32129">
        <ele>106.9</ele>
        <time>2023-11-22T15:06:40Z</time>
      </trkpt>
      <trkpt lat="50.01046" lon="2.3213">
        <ele>107</ele>
        <time>2023-11-22T15:06:41Z</time>
      </trkpt>
      <trkpt lat="50.01044" lon="2.3213">
        <ele>107.1</ele>
        <time>2023-11-22T15:06:42Z</time>
      </trkpt>
      <trkpt lat="50.01044" lon="2.3213">
        <ele>107.2</ele>
        <time>2023-11-22T15:06:43Z</time>
      </trkpt>
      <trkpt lat="50.01043" lon="2.3213">
        <ele>107.2</ele>
        <time>2023-11-22T15:06:44Z</time>
      </trkpt>
      <trkpt lat="50.01042" lon="2.3213">
        <ele>107.3</ele>
        <time>2023-11-22T15:06:45Z</time>
      </trkpt>
      <trkpt lat="50.01042" lon="2.3213">
        <ele>107.3</ele>
        <time>2023-11-22T15:06:46Z</time>
      </trkpt>
      <trkpt lat="50.01041" lon="2.3213">
        <ele>107.4</ele>
        <time>2023-11-22T15:06:47Z</time>
      </trkpt>
      <trkpt lat="50.0104" lon="2.3213">
        <ele>107.4</ele>
        <time>2023-11-22T15:06:48Z</time>
      </trkpt>
      <trkpt lat="50.01039" lon="2.32131">
        <ele>107.5</ele>
        <time>2023-11-22T15:06:49Z</time>
      </trkpt>
      <trkpt lat="50.01038" lon="2.32131">
        <ele>107.6</ele>
        <time>2023-11-22T15:06:50Z</time>
      </trkpt>
      <trkpt lat="50.01037" lon="2.32131">
        <ele>107.6</ele>
        <time>2023-11-22T15:06:51Z</time>
      </trkpt>
      <trkpt lat="50.01036" lon="2.32132">
        <ele>107.7</ele>
        <time>2023-11-22T15:06:52Z</time>
      </trkpt>
      <trkpt lat="50.01035" lon="2.32132">
        <ele>107.8</ele>
        <time>2023-11-22T15:06:53Z</time>
      </trkpt>
      <trkpt lat="50.01034" lon="2.32132">
        <ele>107.9</ele>
        <time>2023-11-22T15:06:54Z</time>
      </trkpt>
      <trkpt lat="50.01033" lon="2.32132">
        <ele>107.9</ele>
        <time>2023-11-22T15:06:55Z</time>
      </trkpt>
      <trkpt lat="50.01032" lon="2.32133">
        <ele>108</ele>
        <time>2023-11-22T15:06:56Z</time>
      </trkpt>
      <trkpt lat="50.01031" lon="2.32133">
        <ele>108.1</ele>
        <time>2023-11-22T15:06:57Z</time>
      </trkpt>
      <trkpt lat="50.0103" lon="2.32133">
        <ele>108.1</ele>
        <time>2023-11-22T15:06:58Z</time>
      </trkpt>
      <trkpt lat="50.01029" lon="2.32133">
        <ele>108.2</ele>
        <time>2023-11-22T15:06:59Z</time>
      </trkpt>
      <trkpt lat="50.01028" lon="2.32134">
        <ele>108.3</ele>
        <time>2023-11-22T15:07:00Z</time>
      </trkpt>
      <trkpt lat="50.01026" lon="2.32134">
        <ele>108.4</ele>
        <time>2023-11-22T15:07:01Z</time>
      </trkpt>
      <trkpt lat="50.01025" lon="2.32134">
        <ele>108.4</ele>
        <time>2023-11-22T15:07:02Z</time>
      </trkpt>
      <trkpt lat="50.01024" lon="2.32134">
        <ele>108.5</ele>
        <time>2023-11-22T15:07:03Z</time>
      </trkpt>
      <trkpt lat="50.01023" lon="2.32134">
        <ele>108.6</ele>
        <time>2023-11-22T15:07:04Z</time>
      </trkpt>
      <trkpt lat="50.01022" lon="2.32134">
        <ele>108.6</ele>
        <time>2023-11-22T15:07:05Z</time>
      </trkpt>
      <trkpt lat="50.01021" lon="2.32135">
        <ele>108.7</ele>
        <time>2023-11-22T15:07:06Z</time>
      </trkpt>
      <trkpt lat="50.0102" lon="2.32135">
        <ele>108.8</ele>
        <time>2023-11-22T15:07:07Z</time>
      </trkpt>
      <trkpt lat="50.01019" lon="2.32135">
        <ele>108.8</ele>
        <time>2023-11-22T15:07:08Z</time>
      </trkpt>
      <trkpt lat="50.01018" lon="2.32135">
        <ele>108.9</ele>
        <time>2023-11-22T15:07:09Z</time>
      </trkpt>
      <trkpt lat="50.01017" lon="2.32135">
        <ele>109</ele>
        <time>2023-11-22T15:07:10Z</time>
      </trkpt>
      <trkpt lat="50.01016" lon="2.32135">
        <ele>109.1</ele>
        <time>2023-11-22T15:07:11Z</time>
      </trkpt>
      <trkpt lat="50.01015" lon="2.32135">
        <ele>109.1</ele>
        <time>2023-11-22T15:07:12Z</time>
      </trkpt>
      <trkpt lat="50.01014" lon="2.32136">
        <ele>109.2</ele>
        <time>2023-11-22T15:07:13Z</time>
      </trkpt>
      <trkpt lat="50.01013" lon="2.32136">
        <ele>109.3</ele>
        <time>2023-11-22T15:07:14Z</time>
      </trkpt>
      <trkpt lat="50.01012" lon="2.32136">
        <ele>109.4</ele>
        <time>2023-11-22T15:07:15Z</time>
      </trkpt>
      <trkpt lat="50.01011" lon="2.32136">
        <ele>109.4</ele>
        <time>2023-11-22T15:07:16Z</time>
      </trkpt>
      <trkpt lat="50.0101" lon="2.32136">
        <ele>109.5</ele>
        <time>2023-11-22T15:07:17Z</time>
      </trkpt>
      <trkpt lat="50.01008" lon="2.32136">
        <ele>109.6</ele>
        <time>2023-11-22T15:07:18Z</time>
      </trkpt>
      <trkpt lat="50.01007" lon="2.32136">
        <ele>109.6</ele>
        <time>2023-11-22T15:07:19Z</time>
      </trkpt>
      <trkpt lat="50.01006" lon="2.32137">
        <ele>109.7</ele>
        <time>2023-11-22T15:07:20Z</time>
      </trkpt>
      <trkpt lat="50.01005" lon="2.32137">
        <ele>109.8</ele>
        <time>2023-11-22T15:07:21Z</time>
      </trkpt>
      <trkpt lat="50.01004" lon="2.32137">
        <ele>109.9</ele>
        <time>2023-11-22T15:07:22Z</time>
      </trkpt>
      <trkpt lat="50.01003" lon="2.32137">
        <ele>109.9</ele>
        <time>2023-11-22T15:07:23Z</time>
      </trkpt>
      <trkpt lat="50.01002" lon="2.32137">
        <ele>110</ele>
        <time>2023-11-22T15:07:24Z</time>
      </trkpt>
      <trkpt lat="50.01001" lon="2.32136">
        <ele>110.1</ele>
        <time>2023-11-22T15:07:25Z</time>
      </trkpt>
      <trkpt lat="50.00999" lon="2.32136">
        <ele>110.1</ele>
        <time>2023-11-22T15:07:26Z</time>
      </trkpt>
      <trkpt lat="50.00998" lon="2.32136">
        <ele>110.2</ele>
        <time>2023-11-22T15:07:27Z</time>
      </trkpt>
      <trkpt lat="50.00997" lon="2.32136">
        <ele>110.3</ele>
        <time>2023-11-22T15:07:28Z</time>
      </trkpt>
      <trkpt lat="50.00995" lon="2.32135">
        <ele>110.4</ele>
        <time>2023-11-22T15:07:29Z</time>
      </trkpt>
      <trkpt lat="50.00994" lon="2.32135">
        <ele>110.5</ele>
        <time>2023-11-22T15:07:30Z</time>
      </trkpt>
      <trkpt lat="50.00994" lon="2.32134">
        <ele>110.5</ele>
        <time>2023-11-22T15:07:31Z</time>
      </trkpt>
      <trkpt lat="50.00993" lon="2.32134">
        <ele>110.6</ele>
        <time>2023-11-22T15:07:32Z</time>
      </trkpt>
      <trkpt lat="50.00992" lon="2.32134">
        <ele>110.6</ele>
        <time>2023-11-22T15:07:33Z</time>
      </trkpt>
      <trkpt lat="50.0099" lon="2.32133">
        <ele>110.7</ele>
        <time>2023-11-22T15:07:34Z</time>
      </trkpt>
      <trkpt lat="50.00989" lon="2.32133">
        <ele>110.8</ele>
        <time>2023-11-22T15:07:35Z</time>
      </trkpt>
      <trkpt lat="50.00988" lon="2.32133">
        <ele>110.8</ele>
        <time>2023-11-22T15:07:36Z</time>
      </trkpt>
      <trkpt lat="50.00987" lon="2.32132">
        <ele>110.9</ele>
        <time>2023-11-22T15:07:37Z</time>
      </trkpt>
      <trkpt lat="50.00986" lon="2.32132">
        <ele>110.9</ele>
        <time>2023-11-22T15:07:38Z</time>
      </trkpt>
      <trkpt lat="50.00985" lon="2.32131">
        <ele>111</ele>
        <time>2023-11-22T15:07:39Z</time>
      </trkpt>
      <trkpt lat="50.00985" lon="2.3213">
        <ele>111</ele>
        <time>2023-11-22T15:07:40Z</time>
      </trkpt>
      <trkpt lat="50.00984" lon="2.32129">
        <ele>111.1</ele>
        <time>2023-11-22T15:07:41Z</time>
      </trkpt>
      <trkpt lat="50.00983" lon="2.32129">
        <ele>111.1</ele>
        <time>2023-11-22T15:07:42Z</time>
      </trkpt>
      <trkpt lat="50.00982" lon="2.32128">
        <ele>111.2</ele>
        <time>2023-11-22T15:07:43Z</time>
      </trkpt>
      <trkpt lat="50.00981" lon="2.32127">
        <ele>111.2</ele>
        <time>2023-11-22T15:07:44Z</time>
      </trkpt>
      <trkpt lat="50.0098" lon="2.32126">
        <ele>111.3</ele>
        <time>2023-11-22T15:07:45Z</time>
      </trkpt>
      <trkpt lat="50.00979" lon="2.32125">
        <ele>111.4</ele>
        <time>2023-11-22T15:07:46Z</time>
      </trkpt>
      <trkpt lat="50.00978" lon="2.32125">
        <ele>111.4</ele>
        <time>2023-11-22T15:07:47Z</time>
      </trkpt>
      <trkpt lat="50.00977" lon="2.32124">
        <ele>111.5</ele>
        <time>2023-11-22T15:07:48Z</time>
      </trkpt>
      <trkpt lat="50.00976" lon="2.32123">
        <ele>111.5</ele>
        <time>2023-11-22T15:07:49Z</time>
      </trkpt>
      <trkpt lat="50.00975" lon="2.32123">
        <ele>111.6</ele>
        <time>2023-11-22T15:07:50Z</time>
      </trkpt>
      <trkpt lat="50.00974" lon="2.32122">
        <ele>111.6</ele>
        <time>2023-11-22T15:07:51Z</time>
      </trkpt>
      <trkpt lat="50.00973" lon="2.32122">
        <ele>111.7</ele>
        <time>2023-11-22T15:07:52Z</time>
      </trkpt>
      <trkpt lat="50.00972" lon="2.32121">
        <ele>111.7</ele>
        <time>2023-11-22T15:07:53Z</time>
      </trkpt>
      <trkpt lat="50.00971" lon="2.32121">
        <ele>111.8</ele>
        <time>2023-11-22T15:07:54Z</time>
      </trkpt>
      <trkpt lat="50.0097" lon="2.3212">
        <ele>111.8</ele>
        <time>2023-11-22T15:07:55Z</time>
      </trkpt>
      <trkpt lat="50.00968" lon="2.32119">
        <ele>111.9</ele>
        <time>2023-11-22T15:07:56Z</time>
      </trkpt>
      <trkpt lat="50.00967" lon="2.32119">
        <ele>112</ele>
        <time>2023-11-22T15:07:57Z</time>
      </trkpt>
      <trkpt lat="50.00966" lon="2.32119">
        <ele>112</ele>
        <time>2023-11-22T15:07:58Z</time>
      </trkpt>
      <trkpt lat="50.00965" lon="2.32118">
        <ele>112</ele>
        <time>2023-11-22T15:07:59Z</time>
      </trkpt>
      <trkpt lat="50.00964" lon="2.32118">
        <ele>112.1</ele>
        <time>2023-11-22T15:08:00Z</time>
      </trkpt>
      <trkpt lat="50.00963" lon="2.32117">
        <ele>112.1</ele>
        <time>2023-11-22T15:08:01Z</time>
      </trkpt>
      <trkpt lat="50.00962" lon="2.32117">
        <ele>112.2</ele>
        <time>2023-11-22T15:08:02Z</time>
      </trkpt>
      <trkpt lat="50.00961" lon="2.32116">
        <ele>112.2</ele>
        <time>2023-11-22T15:08:03Z</time>
      </trkpt>
      <trkpt lat="50.0096" lon="2.32116">
        <ele>112.3</ele>
        <time>2023-11-22T15:08:04Z</time>
      </trkpt>
      <trkpt lat="50.00959" lon="2.32115">
        <ele>112.3</ele>
        <time>2023-11-22T15:08:05Z</time>
      </trkpt>
      <trkpt lat="50.00958" lon="2.32115">
        <ele>112.4</ele>
        <time>2023-11-22T15:08:06Z</time>
      </trkpt>
      <trkpt lat="50.00957" lon="2.32114">
        <ele>112.4</ele>
        <time>2023-11-22T15:08:07Z</time>
      </trkpt>
      <trkpt lat="50.00956" lon="2.32114">
        <ele>112.5</ele>
        <time>2023-11-22T15:08:08Z</time>
      </trkpt>
      <trkpt lat="50.00955" lon="2.32114">
        <ele>112.5</ele>
        <time>2023-11-22T15:08:09Z</time>
      </trkpt>
      <trkpt lat="50.00954" lon="2.32113">
        <ele>112.6</ele>
        <time>2023-11-22T15:08:10Z</time>
      </trkpt>
      <trkpt lat="50.00953" lon="2.32113">
        <ele>112.6</ele>
        <time>2023-11-22T15:08:11Z</time>
      </trkpt>
      <trkpt lat="50.00951" lon="2.32113">
        <ele>112.6</ele>
        <time>2023-11-22T15:08:12Z</time>
      </trkpt>
      <trkpt lat="50.0095" lon="2.32112">
        <ele>112.7</ele>
        <time>2023-11-22T15:08:13Z</time>
      </trkpt>
      <trkpt lat="50.00948" lon="2.32111">
        <ele>112.8</ele>
        <time>2023-11-22T15:08:14Z</time>
      </trkpt>
      <trkpt lat="50.00947" lon="2.32111">
        <ele>112.8</ele>
        <time>2023-11-22T15:08:15Z</time>
      </trkpt>
      <trkpt lat="50.00946" lon="2.32111">
        <ele>112.8</ele>
        <time>2023-11-22T15:08:16Z</time>
      </trkpt>
      <trkpt lat="50.00945" lon="2.3211">
        <ele>112.9</ele>
        <time>2023-11-22T15:08:17Z</time>
      </trkpt>
      <trkpt lat="50.00944" lon="2.3211">
        <ele>112.9</ele>
        <time>2023-11-22T15:08:18Z</time>
      </trkpt>
      <trkpt lat="50.00942" lon="2.32109">
        <ele>113</ele>
        <time>2023-11-22T15:08:19Z</time>
      </trkpt>
      <trkpt lat="50.00941" lon="2.32109">
        <ele>113</ele>
        <time>2023-11-22T15:08:20Z</time>
      </trkpt>
      <trkpt lat="50.0094" lon="2.32109">
        <ele>113</ele>
        <time>2023-11-22T15:08:21Z</time>
      </trkpt>
      <trkpt lat="50.00939" lon="2.32109">
        <ele>113.1</ele>
        <time>2023-11-22T15:08:22Z</time>
      </trkpt>
      <trkpt lat="50.00938" lon="2.32108">
        <ele>113.1</ele>
        <time>2023-11-22T15:08:23Z</time>
      </trkpt>
      <trkpt lat="50.00937" lon="2.32108">
        <ele>113.2</ele>
        <time>2023-11-22T15:08:24Z</time>
      </trkpt>
      <trkpt lat="50.00935" lon="2.32107">
        <ele>113.2</ele>
        <time>2023-11-22T15:08:25Z</time>
      </trkpt>
      <trkpt lat="50.00934" lon="2.32107">
        <ele>113.3</ele>
        <time>2023-11-22T15:08:26Z</time>
      </trkpt>
      <trkpt lat="50.00933" lon="2.32107">
        <ele>113.3</ele>
        <time>2023-11-22T15:08:27Z</time>
      </trkpt>
      <trkpt lat="50.00931" lon="2.32106">
        <ele>113.4</ele>
        <time>2023-11-22T15:08:28Z</time>
      </trkpt>
      <trkpt lat="50.0093" lon="2.32106">
        <ele>113.4</ele>
        <time>2023-11-22T15:08:29Z</time>
      </trkpt>
      <trkpt lat="50.00929" lon="2.32106">
        <ele>113.4</ele>
        <time>2023-11-22T15:08:30Z</time>
      </trkpt>
      <trkpt lat="50.00927" lon="2.32105">
        <ele>113.5</ele>
        <time>2023-11-22T15:08:31Z</time>
      </trkpt>
      <trkpt lat="50.00927" lon="2.32105">
        <ele>113.5</ele>
        <time>2023-11-22T15:08:32Z</time>
      </trkpt>
      <trkpt lat="50.00926" lon="2.32105">
        <ele>113.5</ele>
        <time>2023-11-22T15:08:33Z</time>
      </trkpt>
      <trkpt lat="50.00925" lon="2.32104">
        <ele>113.6</ele>
        <time>2023-11-22T15:08:34Z</time>
      </trkpt>
      <trkpt lat="50.00924" lon="2.32104">
        <ele>113.6</ele>
        <time>2023-11-22T15:08:35Z</time>
      </trkpt>
      <trkpt lat="50.00922" lon="2.32103">
        <ele>113.6</ele>
        <time>2023-11-22T15:08:36Z</time>
      </trkpt>
      <trkpt lat="50.00922" lon="2.32103">
        <ele>113.7</ele>
        <time>2023-11-22T15:08:37Z</time>
      </trkpt>
      <trkpt lat="50.00921" lon="2.32102">
        <ele>113.7</ele>
        <time>2023-11-22T15:08:38Z</time>
      </trkpt>
      <trkpt lat="50.0092" lon="2.32102">
        <ele>113.7</ele>
        <time>2023-11-22T15:08:39Z</time>
      </trkpt>
      <trkpt lat="50.00919" lon="2.32101">
        <ele>113.8</ele>
        <time>2023-11-22T15:08:40Z</time>
      </trkpt>
      <trkpt lat="50.00918" lon="2.32101">
        <ele>113.8</ele>
        <time>2023-11-22T15:08:41Z</time>
      </trkpt>
      <trkpt lat="50.00917" lon="2.321">
        <ele>113.8</ele>
        <time>2023-11-22T15:08:42Z</time>
      </trkpt>
      <trkpt lat="50.00916" lon="2.321">
        <ele>113.9</ele>
        <time>2023-11-22T15:08:43Z</time>
      </trkpt>
      <trkpt lat="50.00915" lon="2.32099">
        <ele>113.9</ele>
        <time>2023-11-22T15:08:44Z</time>
      </trkpt>
      <trkpt lat="50.00913" lon="2.32099">
        <ele>113.9</ele>
        <time>2023-11-22T15:08:45Z</time>
      </trkpt>
      <trkpt lat="50.00912" lon="2.32098">
        <ele>114</ele>
        <time>2023-11-22T15:08:46Z</time>
      </trkpt>
      <trkpt lat="50.00911" lon="2.32098">
        <ele>114</ele>
        <time>2023-11-22T15:08:47Z</time>
      </trkpt>
      <trkpt lat="50.0091" lon="2.32098">
        <ele>114.1</ele>
        <time>2023-11-22T15:08:48Z</time>
      </trkpt>
      <trkpt lat="50.00909" lon="2.32097">
        <ele>114.1</ele>
        <time>2023-11-22T15:08:49Z</time>
      </trkpt>
      <trkpt lat="50.00908" lon="2.32097">
        <ele>114.1</ele>
        <time>2023-11-22T15:08:50Z</time>
      </trkpt>
      <trkpt lat="50.00907" lon="2.32096">
        <ele>114.1</ele>
        <time>2023-11-22T15:08:51Z</time>
      </trkpt>
      <trkpt lat="50.00906" lon="2.32096">
        <ele>114.2</ele>
        <time>2023-11-22T15:08:52Z</time>
      </trkpt>
      <trkpt lat="50.00905" lon="2.32095">
        <ele>114.2</ele>
        <time>2023-11-22T15:08:53Z</time>
      </trkpt>
      <trkpt lat="50.00904" lon="2.32095">
        <ele>114.3</ele>
        <time>2023-11-22T15:08:54Z</time>
      </trkpt>
      <trkpt lat="50.00903" lon="2.32095">
        <ele>114.3</ele>
        <time>2023-11-22T15:08:55Z</time>
      </trkpt>
      <trkpt lat="50.00902" lon="2.32094">
        <ele>114.3</ele>
        <time>2023-11-22T15:08:56Z</time>
      </trkpt>
      <trkpt lat="50.00901" lon="2.32094">
        <ele>114.4</ele>
        <time>2023-11-22T15:08:57Z</time>
      </trkpt>
      <trkpt lat="50.00899" lon="2.32093">
        <ele>114.4</ele>
        <time>2023-11-22T15:08:58Z</time>
      </trkpt>
      <trkpt lat="50.00898" lon="2.32092">
        <ele>114.4</ele>
        <time>2023-11-22T15:08:59Z</time>
      </trkpt>
      <trkpt lat="50.00898" lon="2.32091">
        <ele>114.5</ele>
        <time>2023-11-22T15:09:00Z</time>
      </trkpt>
      <trkpt lat="50.00897" lon="2.32091">
        <ele>114.5</ele>
        <time>2023-11-22T15:09:01Z</time>
      </trkpt>
      <trkpt lat="50.00896" lon="2.32091">
        <ele>114.5</ele>
        <time>2023-11-22T15:09:02Z</time>
      </trkpt>
      <trkpt lat="50.00895" lon="2.32091">
        <ele>114.6</ele>
        <time>2023-11-22T15:09:03Z</time>
      </trkpt>
      <trkpt lat="50.00894" lon="2.32091">
        <ele>114.6</ele>
        <time>2023-11-22T15:09:04Z</time>
      </trkpt>
      <trkpt lat="50.00893" lon="2.32092">
        <ele>114.7</ele>
        <time>2023-11-22T15:09:05Z</time>
      </trkpt>
      <trkpt lat="50.00892" lon="2.32092">
        <ele>114.7</ele>
        <time>2023-11-22T15:09:06Z</time>
      </trkpt>
      <trkpt lat="50.0089" lon="2.32092">
        <ele>114.7</ele>
        <time>2023-11-22T15:09:07Z</time>
      </trkpt>
      <trkpt lat="50.00889" lon="2.32092">
        <ele>114.8</ele>
        <time>2023-11-22T15:09:08Z</time>
      </trkpt>
      <trkpt lat="50.00888" lon="2.32092">
        <ele>114.8</ele>
        <time>2023-11-22T15:09:09Z</time>
      </trkpt>
      <trkpt lat="50.00887" lon="2.32092">
        <ele>114.8</ele>
        <time>2023-11-22T15:09:10Z</time>
      </trkpt>
      <trkpt lat="50.00886" lon="2.32091">
        <ele>114.9</ele>
        <time>2023-11-22T15:09:11Z</time>
      </trkpt>
      <trkpt lat="50.00885" lon="2.32091">
        <ele>114.9</ele>
        <time>2023-11-22T15:09:12Z</time>
      </trkpt>
      <trkpt lat="50.00884" lon="2.3209">
        <ele>115</ele>
        <time>2023-11-22T15:09:13Z</time>
      </trkpt>
      <trkpt lat="50.00883" lon="2.3209">
        <ele>115</ele>
        <time>2023-11-22T15:09:14Z</time>
      </trkpt>
      <trkpt lat="50.00882" lon="2.3209">
        <ele>115</ele>
        <time>2023-11-22T15:09:15Z</time>
      </trkpt>
      <trkpt lat="50.00881" lon="2.32089">
        <ele>115.1</ele>
        <time>2023-11-22T15:09:16Z</time>
      </trkpt>
      <trkpt lat="50.0088" lon="2.32089">
        <ele>115.1</ele>
        <time>2023-11-22T15:09:17Z</time>
      </trkpt>
      <trkpt lat="50.00879" lon="2.32089">
        <ele>115.2</ele>
        <time>2023-11-22T15:09:18Z</time>
      </trkpt>
      <trkpt lat="50.00879" lon="2.32088">
        <ele>115.2</ele>
        <time>2023-11-22T15:09:19Z</time>
      </trkpt>
      <trkpt lat="50.00878" lon="2.32088">
        <ele>115.2</ele>
        <time>2023-11-22T15:09:20Z</time>
      </trkpt>
      <trkpt lat="50.00877" lon="2.32088">
        <ele>115.3</ele>
        <time>2023-11-22T15:09:21Z</time>
      </trkpt>
      <trkpt lat="50.00876" lon="2.32087">
        <ele>115.3</ele>
        <time>2023-11-22T15:09:22Z</time>
      </trkpt>
      <trkpt lat="50.00875" lon="2.32087">
        <ele>115.3</ele>
        <time>2023-11-22T15:09:23Z</time>
      </trkpt>
      <trkpt lat="50.00874" lon="2.32087">
        <ele>115.4</ele>
        <time>2023-11-22T15:09:24Z</time>
      </trkpt>
      <trkpt lat="50.00873" lon="2.32086">
        <ele>115.4</ele>
        <time>2023-11-22T15:09:25Z</time>
      </trkpt>
      <trkpt lat="50.00872" lon="2.32086">
        <ele>115.5</ele>
        <time>2023-11-22T15:09:26Z</time>
      </trkpt>
      <trkpt lat="50.0087" lon="2.32086">
        <ele>115.5</ele>
        <time>2023-11-22T15:09:27Z</time>
      </trkpt>
      <trkpt lat="50.00869" lon="2.32085">
        <ele>115.6</ele>
        <time>2023-11-22T15:09:28Z</time>
      </trkpt>
      <trkpt lat="50.00868" lon="2.32085">
        <ele>115.6</ele>
        <time>2023-11-22T15:09:29Z</time>
      </trkpt>
      <trkpt lat="50.00867" lon="2.32085">
        <ele>115.6</ele>
        <time>2023-11-22T15:09:30Z</time>
      </trkpt>
      <trkpt lat="50.00866" lon="2.32085">
        <ele>115.7</ele>
        <time>2023-11-22T15:09:31Z</time>
      </trkpt>
      <trkpt lat="50.00865" lon="2.32084">
        <ele>115.7</ele>
        <time>2023-11-22T15:09:32Z</time>
      </trkpt>
      <trkpt lat="50.00864" lon="2.32084">
        <ele>115.7</ele>
        <time>2023-11-22T15:09:33Z</time>
      </trkpt>
      <trkpt lat="50.00864" lon="2.32083">
        <ele>115.8</ele>
        <time>2023-11-22T15:09:34Z</time>
      </trkpt>
      <trkpt lat="50.00863" lon="2.32083">
        <ele>115.8</ele>
        <time>2023-11-22T15:09:35Z</time>
      </trkpt>
      <trkpt lat="50.00861" lon="2.32082">
        <ele>115.9</ele>
        <time>2023-11-22T15:09:36Z</time>
      </trkpt>
      <trkpt lat="50.0086" lon="2.32082">
        <ele>115.9</ele>
        <time>2023-11-22T15:09:37Z</time>
      </trkpt>
      <trkpt lat="50.00859" lon="2.32081">
        <ele>115.9</ele>
        <time>2023-11-22T15:09:38Z</time>
      </trkpt>
      <trkpt lat="50.00858" lon="2.32081">
        <ele>116</ele>
        <time>2023-11-22T15:09:39Z</time>
      </trkpt>
      <trkpt lat="50.00856" lon="2.3208">
        <ele>116.1</ele>
        <time>2023-11-22T15:09:40Z</time>
      </trkpt>
      <trkpt lat="50.00855" lon="2.32079">
        <ele>116.1</ele>
        <time>2023-11-22T15:09:41Z</time>
      </trkpt>
      <trkpt lat="50.00855" lon="2.32079">
        <ele>116.1</ele>
        <time>2023-11-22T15:09:42Z</time>
      </trkpt>
      <trkpt lat="50.00854" lon="2.32078">
        <ele>116.2</ele>
        <time>2023-11-22T15:09:43Z</time>
      </trkpt>
      <trkpt lat="50.00853" lon="2.32078">
        <ele>116.2</ele>
        <time>2023-11-22T15:09:44Z</time>
      </trkpt>
      <trkpt lat="50.00852" lon="2.32077">
        <ele>116.2</ele>
        <time>2023-11-22T15:09:45Z</time>
      </trkpt>
      <trkpt lat="50.0085" lon="2.32077">
        <ele>116.3</ele>
        <time>2023-11-22T15:09:46Z</time>
      </trkpt>
      <trkpt lat="50.00849" lon="2.32076">
        <ele>116.3</ele>
        <time>2023-11-22T15:09:47Z</time>
      </trkpt>
      <trkpt lat="50.00848" lon="2.32076">
        <ele>116.4</ele>
        <time>2023-11-22T15:09:48Z</time>
      </trkpt>
      <trkpt lat="50.00847" lon="2.32075">
        <ele>116.4</ele>
        <time>2023-11-22T15:09:49Z</time>
      </trkpt>
      <trkpt lat="50.00846" lon="2.32075">
        <ele>116.5</ele>
        <time>2023-11-22T15:09:50Z</time>
      </trkpt>
      <trkpt lat="50.00845" lon="2.32075">
        <ele>116.5</ele>
        <time>2023-11-22T15:09:51Z</time>
      </trkpt>
      <trkpt lat="50.00844" lon="2.32074">
        <ele>116.5</ele>
        <time>2023-11-22T15:09:52Z</time>
      </trkpt>
      <trkpt lat="50.00843" lon="2.32074">
        <ele>116.6</ele>
        <time>2023-11-22T15:09:53Z</time>
      </trkpt>
      <trkpt lat="50.00842" lon="2.32074">
        <ele>116.6</ele>
        <time>2023-11-22T15:09:54Z</time>
      </trkpt>
      <trkpt lat="50.00841" lon="2.32073">
        <ele>116.6</ele>
        <time>2023-11-22T15:09:55Z</time>
      </trkpt>
      <trkpt lat="50.0084" lon="2.32073">
        <ele>116.7</ele>
        <time>2023-11-22T15:09:56Z</time>
      </trkpt>
      <trkpt lat="50.00839" lon="2.32073">
        <ele>116.7</ele>
        <time>2023-11-22T15:09:57Z</time>
      </trkpt>
      <trkpt lat="50.00838" lon="2.32072">
        <ele>116.7</ele>
        <time>2023-11-22T15:09:58Z</time>
      </trkpt>
      <trkpt lat="50.00837" lon="2.32072">
        <ele>116.8</ele>
        <time>2023-11-22T15:09:59Z</time>
      </trkpt>
      <trkpt lat="50.00836" lon="2.32072">
        <ele>116.8</ele>
        <time>2023-11-22T15:10:00Z</time>
      </trkpt>
      <trkpt lat="50.00835" lon="2.32071">
        <ele>116.9</ele>
        <time>2023-11-22T15:10:01Z</time>
      </trkpt>
      <trkpt lat="50.00834" lon="2.32071">
        <ele>116.9</ele>
        <time>2023-11-22T15:10:02Z</time>
      </trkpt>
      <trkpt lat="50.00833" lon="2.3207">
        <ele>116.9</ele>
        <time>2023-11-22T15:10:03Z</time>
      </trkpt>
      <trkpt lat="50.00832" lon="2.3207">
        <ele>117</ele>
        <time>2023-11-22T15:10:04Z</time>
      </trkpt>
      <trkpt lat="50.00831" lon="2.32069">
        <ele>117</ele>
        <time>2023-11-22T15:10:05Z</time>
      </trkpt>
      <trkpt lat="50.0083" lon="2.32069">
        <ele>117</ele>
        <time>2023-11-22T15:10:06Z</time>
      </trkpt>
      <trkpt lat="50.00829" lon="2.32068">
        <ele>117.1</ele>
        <time>2023-11-22T15:10:07Z</time>
      </trkpt>
      <trkpt lat="50.00828" lon="2.32067">
        <ele>117.1</ele>
        <time>2023-11-22T15:10:08Z</time>
      </trkpt>
      <trkpt lat="50.00827" lon="2.32067">
        <ele>117.1</ele>
        <time>2023-11-22T15:10:09Z</time>
      </trkpt>
      <trkpt lat="50.00826" lon="2.32066">
        <ele>117.2</ele>
        <time>2023-11-22T15:10:10Z</time>
      </trkpt>
      <trkpt lat="50.00825" lon="2.32066">
        <ele>117.2</ele>
        <time>2023-11-22T15:10:11Z</time>
      </trkpt>
      <trkpt lat="50.00824" lon="2.32065">
        <ele>117.2</ele>
        <time>2023-11-22T15:10:12Z</time>
      </trkpt>
      <trkpt lat="50.00824" lon="2.32065">
        <ele>117.2</ele>
        <time>2023-11-22T15:10:13Z</time>
      </trkpt>
      <trkpt lat="50.00823" lon="2.32065">
        <ele>117.3</ele>
        <time>2023-11-22T15:10:14Z</time>
      </trkpt>
      <trkpt lat="50.00822" lon="2.32064">
        <ele>117.3</ele>
        <time>2023-11-22T15:10:15Z</time>
      </trkpt>
      <trkpt lat="50.00821" lon="2.32064">
        <ele>117.3</ele>
        <time>2023-11-22T15:10:16Z</time>
      </trkpt>
      <trkpt lat="50.00821" lon="2.32063">
        <ele>117.3</ele>
        <time>2023-11-22T15:10:17Z</time>
      </trkpt>
      <trkpt lat="50.0082" lon="2.32063">
        <ele>117.3</ele>
        <time>2023-11-22T15:10:18Z</time>
      </trkpt>
      <trkpt lat="50.00819" lon="2.32062">
        <ele>117.4</ele>
        <time>2023-11-22T15:10:19Z</time>
      </trkpt>
      <trkpt lat="50.00818" lon="2.32062">
        <ele>117.4</ele>
        <time>2023-11-22T15:10:20Z</time>
      </trkpt>
      <trkpt lat="50.00817" lon="2.32062">
        <ele>117.4</ele>
        <time>2023-11-22T15:10:21Z</time>
      </trkpt>
      <trkpt lat="50.00817" lon="2.32061">
        <ele>117.4</ele>
        <time>2023-11-22T15:10:22Z</time>
      </trkpt>
      <trkpt lat="50.00816" lon="2.32061">
        <ele>117.5</ele>
        <time>2023-11-22T15:10:23Z</time>
      </trkpt>
      <trkpt lat="50.00815" lon="2.32061">
        <ele>117.5</ele>
        <time>2023-11-22T15:10:24Z</time>
      </trkpt>
      <trkpt lat="50.00813" lon="2.3206">
        <ele>117.5</ele>
        <time>2023-11-22T15:10:25Z</time>
      </trkpt>
      <trkpt lat="50.00812" lon="2.3206">
        <ele>117.6</ele>
        <time>2023-11-22T15:10:26Z</time>
      </trkpt>
      <trkpt lat="50.00811" lon="2.3206">
        <ele>117.6</ele>
        <time>2023-11-22T15:10:27Z</time>
      </trkpt>
      <trkpt lat="50.0081" lon="2.32059">
        <ele>117.6</ele>
        <time>2023-11-22T15:10:28Z</time>
      </trkpt>
      <trkpt lat="50.00809" lon="2.32059">
        <ele>117.6</ele>
        <time>2023-11-22T15:10:29Z</time>
      </trkpt>
      <trkpt lat="50.00808" lon="2.32059">
        <ele>117.7</ele>
        <time>2023-11-22T15:10:30Z</time>
      </trkpt>
      <trkpt lat="50.00807" lon="2.32058">
        <ele>117.7</ele>
        <time>2023-11-22T15:10:31Z</time>
      </trkpt>
      <trkpt lat="50.00806" lon="2.32058">
        <ele>117.7</ele>
        <time>2023-11-22T15:10:32Z</time>
      </trkpt>
      <trkpt lat="50.00805" lon="2.32057">
        <ele>117.7</ele>
        <time>2023-11-22T15:10:33Z</time>
      </trkpt>
      <trkpt lat="50.00804" lon="2.32057">
        <ele>117.8</ele>
        <time>2023-11-22T15:10:34Z</time>
      </trkpt>
      <trkpt lat="50.00803" lon="2.32057">
        <ele>117.8</ele>
        <time>2023-11-22T15:10:35Z</time>
      </trkpt>
      <trkpt lat="50.00802" lon="2.32056">
        <ele>117.8</ele>
        <time>2023-11-22T15:10:36Z</time>
      </trkpt>
      <trkpt lat="50.00801" lon="2.32056">
        <ele>117.8</ele>
        <time>2023-11-22T15:10:37Z</time>
      </trkpt>
      <trkpt lat="50.008" lon="2.32056">
        <ele>117.9</ele>
        <time>2023-11-22T15:10:38Z</time>
      </trkpt>
      <trkpt lat="50.00799" lon="2.32055">
        <ele>117.9</ele>
        <time>2023-11-22T15:10:39Z</time>
      </trkpt>
      <trkpt lat="50.00798" lon="2.32055">
        <ele>117.9</ele>
        <time>2023-11-22T15:10:40Z</time>
      </trkpt>
      <trkpt lat="50.00797" lon="2.32055">
        <ele>117.9</ele>
        <time>2023-11-22T15:10:41Z</time>
      </trkpt>
      <trkpt lat="50.00796" lon="2.32055">
        <ele>117.9</ele>
        <time>2023-11-22T15:10:42Z</time>
      </trkpt>
      <trkpt lat="50.00795" lon="2.32054">
        <ele>118</ele>
        <time>2023-11-22T15:10:43Z</time>
      </trkpt>
      <trkpt lat="50.00794" lon="2.32054">
        <ele>118</ele>
        <time>2023-11-22T15:10:44Z</time>
      </trkpt>
      <trkpt lat="50.00793" lon="2.32054">
        <ele>118</ele>
        <time>2023-11-22T15:10:45Z</time>
      </trkpt>
      <trkpt lat="50.00792" lon="2.32053">
        <ele>118</ele>
        <time>2023-11-22T15:10:46Z</time>
      </trkpt>
      <trkpt lat="50.00791" lon="2.32053">
        <ele>118</ele>
        <time>2023-11-22T15:10:47Z</time>
      </trkpt>
      <trkpt lat="50.0079" lon="2.32053">
        <ele>118.1</ele>
        <time>2023-11-22T15:10:48Z</time>
      </trkpt>
      <trkpt lat="50.00789" lon="2.32052">
        <ele>118.1</ele>
        <time>2023-11-22T15:10:49Z</time>
      </trkpt>
      <trkpt lat="50.00788" lon="2.32052">
        <ele>118.1</ele>
        <time>2023-11-22T15:10:50Z</time>
      </trkpt>
      <trkpt lat="50.00787" lon="2.32052">
        <ele>118.1</ele>
        <time>2023-11-22T15:10:51Z</time>
      </trkpt>
      <trkpt lat="50.00786" lon="2.32051">
        <ele>118.1</ele>
        <time>2023-11-22T15:10:52Z</time>
      </trkpt>
      <trkpt lat="50.00785" lon="2.32051">
        <ele>118.2</ele>
        <time>2023-11-22T15:10:53Z</time>
      </trkpt>
      <trkpt lat="50.00784" lon="2.32051">
        <ele>118.2</ele>
        <time>2023-11-22T15:10:54Z</time>
      </trkpt>
      <trkpt lat="50.00783" lon="2.3205">
        <ele>118.2</ele>
        <time>2023-11-22T15:10:55Z</time>
      </trkpt>
      <trkpt lat="50.00782" lon="2.3205">
        <ele>118.2</ele>
        <time>2023-11-22T15:10:56Z</time>
      </trkpt>
      <trkpt lat="50.00781" lon="2.3205">
        <ele>118.2</ele>
        <time>2023-11-22T15:10:57Z</time>
      </trkpt>
      <trkpt lat="50.0078" lon="2.32049">
        <ele>118.3</ele>
        <time>2023-11-22T15:10:58Z</time>
      </trkpt>
      <trkpt lat="50.00779" lon="2.32049">
        <ele>118.3</ele>
        <time>2023-11-22T15:10:59Z</time>
      </trkpt>
      <trkpt lat="50.00778" lon="2.32049">
        <ele>118.3</ele>
        <time>2023-11-22T15:11:00Z</time>
      </trkpt>
      <trkpt lat="50.00777" lon="2.32048">
        <ele>118.3</ele>
        <time>2023-11-22T15:11:01Z</time>
      </trkpt>
      <trkpt lat="50.00776" lon="2.32048">
        <ele>118.3</ele>
        <time>2023-11-22T15:11:02Z</time>
      </trkpt>
      <trkpt lat="50.00774" lon="2.32048">
        <ele>118.3</ele>
        <time>2023-11-22T15:11:03Z</time>
      </trkpt>
      <trkpt lat="50.00773" lon="2.32047">
        <ele>118.4</ele>
        <time>2023-11-22T15:11:04Z</time>
      </trkpt>
      <trkpt lat="50.00772" lon="2.32047">
        <ele>118.4</ele>
        <time>2023-11-22T15:11:05Z</time>
      </trkpt>
      <trkpt lat="50.00771" lon="2.32047">
        <ele>118.4</ele>
        <time>2023-11-22T15:11:06Z</time>
      </trkpt>
      <trkpt lat="50.0077" lon="2.32046">
        <ele>118.4</ele>
        <time>2023-11-22T15:11:07Z</time>
      </trkpt>
      <trkpt lat="50.00769" lon="2.32046">
        <ele>118.4</ele>
        <time>2023-11-22T15:11:08Z</time>
      </trkpt>
      <trkpt lat="50.00768" lon="2.32046">
        <ele>118.5</ele>
        <time>2023-11-22T15:11:09Z</time>
      </trkpt>
      <trkpt lat="50.00766" lon="2.32046">
        <ele>118.5</ele>
        <time>2023-11-22T15:11:10Z</time>
      </trkpt>
      <trkpt lat="50.00765" lon="2.32046">
        <ele>118.5</ele>
        <time>2023-11-22T15:11:11Z</time>
      </trkpt>
      <trkpt lat="50.00764" lon="2.32046">
        <ele>118.5</ele>
        <time>2023-11-22T15:11:12Z</time>
      </trkpt>
      <trkpt lat="50.00763" lon="2.32045">
        <ele>118.5</ele>
        <time>2023-11-22T15:11:13Z</time>
      </trkpt>
      <trkpt lat="50.00762" lon="2.32045">
        <ele>118.6</ele>
        <time>2023-11-22T15:11:14Z</time>
      </trkpt>
      <trkpt lat="50.00761" lon="2.32045">
        <ele>118.6</ele>
        <time>2023-11-22T15:11:15Z</time>
      </trkpt>
      <trkpt lat="50.0076" lon="2.32045">
        <ele>118.6</ele>
        <time>2023-11-22T15:11:16Z</time>
      </trkpt>
      <trkpt lat="50.00759" lon="2.32045">
        <ele>118.6</ele>
        <time>2023-11-22T15:11:17Z</time>
      </trkpt>
      <trkpt lat="50.00757" lon="2.32045">
        <ele>118.7</ele>
        <time>2023-11-22T15:11:18Z</time>
      </trkpt>
      <trkpt lat="50.00756" lon="2.32045">
        <ele>118.7</ele>
        <time>2023-11-22T15:11:19Z</time>
      </trkpt>
      <trkpt lat="50.00755" lon="2.32044">
        <ele>118.7</ele>
        <time>2023-11-22T15:11:20Z</time>
      </trkpt>
      <trkpt lat="50.00754" lon="2.32044">
        <ele>118.7</ele>
        <time>2023-11-22T15:11:21Z</time>
      </trkpt>
      <trkpt lat="50.00753" lon="2.32044">
        <ele>118.8</ele>
        <time>2023-11-22T15:11:22Z</time>
      </trkpt>
      <trkpt lat="50.00752" lon="2.32044">
        <ele>118.8</ele>
        <time>2023-11-22T15:11:23Z</time>
      </trkpt>
      <trkpt lat="50.0075" lon="2.32044">
        <ele>118.8</ele>
        <time>2023-11-22T15:11:24Z</time>
      </trkpt>
      <trkpt lat="50.00749" lon="2.32044">
        <ele>118.9</ele>
        <time>2023-11-22T15:11:25Z</time>
      </trkpt>
      <trkpt lat="50.00748" lon="2.32044">
        <ele>118.9</ele>
        <time>2023-11-22T15:11:26Z</time>
      </trkpt>
      <trkpt lat="50.00746" lon="2.32044">
        <ele>118.9</ele>
        <time>2023-11-22T15:11:27Z</time>
      </trkpt>
      <trkpt lat="50.00745" lon="2.32044">
        <ele>119</ele>
        <time>2023-11-22T15:11:28Z</time>
      </trkpt>
      <trkpt lat="50.00744" lon="2.32044">
        <ele>119</ele>
        <time>2023-11-22T15:11:29Z</time>
      </trkpt>
      <trkpt lat="50.00743" lon="2.32044">
        <ele>119</ele>
        <time>2023-11-22T15:11:30Z</time>
      </trkpt>
      <trkpt lat="50.00742" lon="2.32044">
        <ele>119</ele>
        <time>2023-11-22T15:11:31Z</time>
      </trkpt>
      <trkpt lat="50.00741" lon="2.32044">
        <ele>119.1</ele>
        <time>2023-11-22T15:11:32Z</time>
      </trkpt>
      <trkpt lat="50.0074" lon="2.32043">
        <ele>119.1</ele>
        <time>2023-11-22T15:11:33Z</time>
      </trkpt>
      <trkpt lat="50.00739" lon="2.32043">
        <ele>119.1</ele>
        <time>2023-11-22T15:11:34Z</time>
      </trkpt>
      <trkpt lat="50.00738" lon="2.32043">
        <ele>119.1</ele>
        <time>2023-11-22T15:11:35Z</time>
      </trkpt>
      <trkpt lat="50.00737" lon="2.32043">
        <ele>119.2</ele>
        <time>2023-11-22T15:11:36Z</time>
      </trkpt>
      <trkpt lat="50.00736" lon="2.32043">
        <ele>119.2</ele>
        <time>2023-11-22T15:11:37Z</time>
      </trkpt>
      <trkpt lat="50.00735" lon="2.32043">
        <ele>119.2</ele>
        <time>2023-11-22T15:11:38Z</time>
      </trkpt>
      <trkpt lat="50.00734" lon="2.32043">
        <ele>119.3</ele>
        <time>2023-11-22T15:11:39Z</time>
      </trkpt>
      <trkpt lat="50.00733" lon="2.32043">
        <ele>119.3</ele>
        <time>2023-11-22T15:11:40Z</time>
      </trkpt>
      <trkpt lat="50.00732" lon="2.32043">
        <ele>119.3</ele>
        <time>2023-11-22T15:11:41Z</time>
      </trkpt>
      <trkpt lat="50.00731" lon="2.32043">
        <ele>119.3</ele>
        <time>2023-11-22T15:11:42Z</time>
      </trkpt>
      <trkpt lat="50.0073" lon="2.32043">
        <ele>119.4</ele>
        <time>2023-11-22T15:11:43Z</time>
      </trkpt>
      <trkpt lat="50.00729" lon="2.32043">
        <ele>119.4</ele>
        <time>2023-11-22T15:11:44Z</time>
      </trkpt>
      <trkpt lat="50.00728" lon="2.32043">
        <ele>119.4</ele>
        <time>2023-11-22T15:11:45Z</time>
      </trkpt>
      <trkpt lat="50.00727" lon="2.32043">
        <ele>119.4</ele>
        <time>2023-11-22T15:11:46Z</time>
      </trkpt>
      <trkpt lat="50.00726" lon="2.32043">
        <ele>119.5</ele>
        <time>2023-11-22T15:11:47Z</time>
      </trkpt>
      <trkpt lat="50.00724" lon="2.32043">
        <ele>119.5</ele>
        <time>2023-11-22T15:11:48Z</time>
      </trkpt>
      <trkpt lat="50.00723" lon="2.32043">
        <ele>119.5</ele>
        <time>2023-11-22T15:11:49Z</time>
      </trkpt>
      <trkpt lat="50.00722" lon="2.32043">
        <ele>119.6</ele>
        <time>2023-11-22T15:11:50Z</time>
      </trkpt>
      <trkpt lat="50.00721" lon="2.32043">
        <ele>119.6</ele>
        <time>2023-11-22T15:11:51Z</time>
      </trkpt>
      <trkpt lat="50.0072" lon="2.32043">
        <ele>119.6</ele>
        <time>2023-11-22T15:11:52Z</time>
      </trkpt>
      <trkpt lat="50.00719" lon="2.32043">
        <ele>119.6</ele>
        <time>2023-11-22T15:11:53Z</time>
      </trkpt>
      <trkpt lat="50.00718" lon="2.32043">
        <ele>119.7</ele>
        <time>2023-11-22T15:11:54Z</time>
      </trkpt>
      <trkpt lat="50.00717" lon="2.32043">
        <ele>119.7</ele>
        <time>2023-11-22T15:11:55Z</time>
      </trkpt>
      <trkpt lat="50.00716" lon="2.32043">
        <ele>119.7</ele>
        <time>2023-11-22T15:11:56Z</time>
      </trkpt>
      <trkpt lat="50.00715" lon="2.32043">
        <ele>119.7</ele>
        <time>2023-11-22T15:11:57Z</time>
      </trkpt>
      <trkpt lat="50.00714" lon="2.32043">
        <ele>119.8</ele>
        <time>2023-11-22T15:11:58Z</time>
      </trkpt>
      <trkpt lat="50.00713" lon="2.32043">
        <ele>119.8</ele>
        <time>2023-11-22T15:11:59Z</time>
      </trkpt>
      <trkpt lat="50.00711" lon="2.32043">
        <ele>119.8</ele>
        <time>2023-11-22T15:12:00Z</time>
      </trkpt>
      <trkpt lat="50.0071" lon="2.32042">
        <ele>119.8</ele>
        <time>2023-11-22T15:12:01Z</time>
      </trkpt>
      <trkpt lat="50.00709" lon="2.32042">
        <ele>119.9</ele>
        <time>2023-11-22T15:12:02Z</time>
      </trkpt>
      <trkpt lat="50.00707" lon="2.32042">
        <ele>119.9</ele>
        <time>2023-11-22T15:12:03Z</time>
      </trkpt>
      <trkpt lat="50.00706" lon="2.32042">
        <ele>119.9</ele>
        <time>2023-11-22T15:12:04Z</time>
      </trkpt>
      <trkpt lat="50.00705" lon="2.32042">
        <ele>120</ele>
        <time>2023-11-22T15:12:05Z</time>
      </trkpt>
      <trkpt lat="50.00703" lon="2.32042">
        <ele>120</ele>
        <time>2023-11-22T15:12:06Z</time>
      </trkpt>
      <trkpt lat="50.00703" lon="2.32042">
        <ele>120</ele>
        <time>2023-11-22T15:12:07Z</time>
      </trkpt>
      <trkpt lat="50.00702" lon="2.32042">
        <ele>120.1</ele>
        <time>2023-11-22T15:12:08Z</time>
      </trkpt>
      <trkpt lat="50.007" lon="2.32042">
        <ele>120.1</ele>
        <time>2023-11-22T15:12:09Z</time>
      </trkpt>
      <trkpt lat="50.00699" lon="2.32042">
        <ele>120.1</ele>
        <time>2023-11-22T15:12:10Z</time>
      </trkpt>
      <trkpt lat="50.00698" lon="2.32043">
        <ele>120.1</ele>
        <time>2023-11-22T15:12:11Z</time>
      </trkpt>
      <trkpt lat="50.00697" lon="2.32043">
        <ele>120.2</ele>
        <time>2023-11-22T15:12:12Z</time>
      </trkpt>
      <trkpt lat="50.00696" lon="2.32043">
        <ele>120.2</ele>
        <time>2023-11-22T15:12:13Z</time>
      </trkpt>
      <trkpt lat="50.00695" lon="2.32043">
        <ele>120.2</ele>
        <time>2023-11-22T15:12:14Z</time>
      </trkpt>
      <trkpt lat="50.00694" lon="2.32043">
        <ele>120.2</ele>
        <time>2023-11-22T15:12:15Z</time>
      </trkpt>
      <trkpt lat="50.00693" lon="2.32043">
        <ele>120.3</ele>
        <time>2023-11-22T15:12:16Z</time>
      </trkpt>
      <trkpt lat="50.00692" lon="2.32044">
        <ele>120.3</ele>
        <time>2023-11-22T15:12:17Z</time>
      </trkpt>
      <trkpt lat="50.00691" lon="2.32044">
        <ele>120.3</ele>
        <time>2023-11-22T15:12:18Z</time>
      </trkpt>
      <trkpt lat="50.0069" lon="2.32044">
        <ele>120.3</ele>
        <time>2023-11-22T15:12:19Z</time>
      </trkpt>
      <trkpt lat="50.00689" lon="2.32045">
        <ele>120.4</ele>
        <time>2023-11-22T15:12:20Z</time>
      </trkpt>
      <trkpt lat="50.00687" lon="2.32045">
        <ele>120.4</ele>
        <time>2023-11-22T15:12:21Z</time>
      </trkpt>
      <trkpt lat="50.00686" lon="2.32045">
        <ele>120.4</ele>
        <time>2023-11-22T15:12:22Z</time>
      </trkpt>
      <trkpt lat="50.00685" lon="2.32045">
        <ele>120.5</ele>
        <time>2023-11-22T15:12:23Z</time>
      </trkpt>
      <trkpt lat="50.00684" lon="2.32045">
        <ele>120.5</ele>
        <time>2023-11-22T15:12:24Z</time>
      </trkpt>
      <trkpt lat="50.00683" lon="2.32045">
        <ele>120.5</ele>
        <time>2023-11-22T15:12:25Z</time>
      </trkpt>
      <trkpt lat="50.00682" lon="2.32046">
        <ele>120.5</ele>
        <time>2023-11-22T15:12:26Z</time>
      </trkpt>
      <trkpt lat="50.00681" lon="2.32046">
        <ele>120.6</ele>
        <time>2023-11-22T15:12:27Z</time>
      </trkpt>
      <trkpt lat="50.0068" lon="2.32046">
        <ele>120.6</ele>
        <time>2023-11-22T15:12:28Z</time>
      </trkpt>
      <trkpt lat="50.00679" lon="2.32046">
        <ele>120.6</ele>
        <time>2023-11-22T15:12:29Z</time>
      </trkpt>
      <trkpt lat="50.00678" lon="2.32046">
        <ele>120.6</ele>
        <time>2023-11-22T15:12:30Z</time>
      </trkpt>
      <trkpt lat="50.00676" lon="2.32047">
        <ele>120.7</ele>
        <time>2023-11-22T15:12:31Z</time>
      </trkpt>
      <trkpt lat="50.00675" lon="2.32047">
        <ele>120.7</ele>
        <time>2023-11-22T15:12:32Z</time>
      </trkpt>
      <trkpt lat="50.00674" lon="2.32047">
        <ele>120.7</ele>
        <time>2023-11-22T15:12:33Z</time>
      </trkpt>
      <trkpt lat="50.00673" lon="2.32047">
        <ele>120.8</ele>
        <time>2023-11-22T15:12:34Z</time>
      </trkpt>
      <trkpt lat="50.00672" lon="2.32047">
        <ele>120.8</ele>
        <time>2023-11-22T15:12:35Z</time>
      </trkpt>
      <trkpt lat="50.00671" lon="2.32047">
        <ele>120.8</ele>
        <time>2023-11-22T15:12:36Z</time>
      </trkpt>
      <trkpt lat="50.0067" lon="2.32047">
        <ele>120.9</ele>
        <time>2023-11-22T15:12:37Z</time>
      </trkpt>
      <trkpt lat="50.00669" lon="2.32047">
        <ele>120.9</ele>
        <time>2023-11-22T15:12:38Z</time>
      </trkpt>
      <trkpt lat="50.00668" lon="2.32047">
        <ele>120.9</ele>
        <time>2023-11-22T15:12:39Z</time>
      </trkpt>
      <trkpt lat="50.00667" lon="2.32047">
        <ele>121</ele>
        <time>2023-11-22T15:12:40Z</time>
      </trkpt>
      <trkpt lat="50.00665" lon="2.32047">
        <ele>121</ele>
        <time>2023-11-22T15:12:41Z</time>
      </trkpt>
      <trkpt lat="50.00663" lon="2.32048">
        <ele>121</ele>
        <time>2023-11-22T15:12:42Z</time>
      </trkpt>
      <trkpt lat="50.00663" lon="2.32048">
        <ele>121.1</ele>
        <time>2023-11-22T15:12:43Z</time>
      </trkpt>
      <trkpt lat="50.00662" lon="2.32048">
        <ele>121.1</ele>
        <time>2023-11-22T15:12:44Z</time>
      </trkpt>
      <trkpt lat="50.00661" lon="2.32048">
        <ele>121.1</ele>
        <time>2023-11-22T15:12:45Z</time>
      </trkpt>
      <trkpt lat="50.00659" lon="2.32048">
        <ele>121.2</ele>
        <time>2023-11-22T15:12:46Z</time>
      </trkpt>
      <trkpt lat="50.00658" lon="2.32048">
        <ele>121.2</ele>
        <time>2023-11-22T15:12:47Z</time>
      </trkpt>
      <trkpt lat="50.00657" lon="2.32048">
        <ele>121.2</ele>
        <time>2023-11-22T15:12:48Z</time>
      </trkpt>
      <trkpt lat="50.00656" lon="2.32048">
        <ele>121.2</ele>
        <time>2023-11-22T15:12:49Z</time>
      </trkpt>
      <trkpt lat="50.00655" lon="2.32048">
        <ele>121.3</ele>
        <time>2023-11-22T15:12:50Z</time>
      </trkpt>
      <trkpt lat="50.00654" lon="2.32048">
        <ele>121.3</ele>
        <time>2023-11-22T15:12:51Z</time>
      </trkpt>
      <trkpt lat="50.00653" lon="2.32048">
        <ele>121.3</ele>
        <time>2023-11-22T15:12:52Z</time>
      </trkpt>
      <trkpt lat="50.00652" lon="2.32048">
        <ele>121.4</ele>
        <time>2023-11-22T15:12:53Z</time>
      </trkpt>
      <trkpt lat="50.0065" lon="2.32049">
        <ele>121.4</ele>
        <time>2023-11-22T15:12:54Z</time>
      </trkpt>
      <trkpt lat="50.00649" lon="2.32049">
        <ele>121.4</ele>
        <time>2023-11-22T15:12:55Z</time>
      </trkpt>
      <trkpt lat="50.00648" lon="2.32049">
        <ele>121.4</ele>
        <time>2023-11-22T15:12:56Z</time>
      </trkpt>
      <trkpt lat="50.00647" lon="2.32049">
        <ele>121.5</ele>
        <time>2023-11-22T15:12:57Z</time>
      </trkpt>
      <trkpt lat="50.00646" lon="2.32049">
        <ele>121.5</ele>
        <time>2023-11-22T15:12:58Z</time>
      </trkpt>
      <trkpt lat="50.00645" lon="2.32049">
        <ele>121.5</ele>
        <time>2023-11-22T15:12:59Z</time>
      </trkpt>
      <trkpt lat="50.00644" lon="2.32049">
        <ele>121.5</ele>
        <time>2023-11-22T15:13:00Z</time>
      </trkpt>
      <trkpt lat="50.00643" lon="2.32049">
        <ele>121.6</ele>
        <time>2023-11-22T15:13:01Z</time>
      </trkpt>
      <trkpt lat="50.00642" lon="2.32049">
        <ele>121.6</ele>
        <time>2023-11-22T15:13:02Z</time>
      </trkpt>
      <trkpt lat="50.00641" lon="2.32049">
        <ele>121.6</ele>
        <time>2023-11-22T15:13:03Z</time>
      </trkpt>
      <trkpt lat="50.0064" lon="2.32049">
        <ele>121.7</ele>
        <time>2023-11-22T15:13:04Z</time>
      </trkpt>
      <trkpt lat="50.00639" lon="2.32049">
        <ele>121.7</ele>
        <time>2023-11-22T15:13:05Z</time>
      </trkpt>
      <trkpt lat="50.00637" lon="2.32049">
        <ele>121.7</ele>
        <time>2023-11-22T15:13:06Z</time>
      </trkpt>
      <trkpt lat="50.00636" lon="2.32049">
        <ele>121.8</ele>
        <time>2023-11-22T15:13:07Z</time>
      </trkpt>
      <trkpt lat="50.00635" lon="2.32049">
        <ele>121.8</ele>
        <time>2023-11-22T15:13:08Z</time>
      </trkpt>
      <trkpt lat="50.00634" lon="2.32049">
        <ele>121.8</ele>
        <time>2023-11-22T15:13:09Z</time>
      </trkpt>
      <trkpt lat="50.00633" lon="2.32049">
        <ele>121.8</ele>
        <time>2023-11-22T15:13:10Z</time>
      </trkpt>
      <trkpt lat="50.00632" lon="2.32049">
        <ele>121.9</ele>
        <time>2023-11-22T15:13:11Z</time>
      </trkpt>
      <trkpt lat="50.00631" lon="2.32049">
        <ele>121.9</ele>
        <time>2023-11-22T15:13:12Z</time>
      </trkpt>
      <trkpt lat="50.0063" lon="2.32049">
        <ele>121.9</ele>
        <time>2023-11-22T15:13:13Z</time>
      </trkpt>
      <trkpt lat="50.00629" lon="2.32049">
        <ele>121.9</ele>
        <time>2023-11-22T15:13:14Z</time>
      </trkpt>
      <trkpt lat="50.00627" lon="2.32049">
        <ele>122</ele>
        <time>2023-11-22T15:13:15Z</time>
      </trkpt>
      <trkpt lat="50.00626" lon="2.32049">
        <ele>122</ele>
        <time>2023-11-22T15:13:16Z</time>
      </trkpt>
      <trkpt lat="50.00625" lon="2.32049">
        <ele>122</ele>
        <time>2023-11-22T15:13:17Z</time>
      </trkpt>
      <trkpt lat="50.00624" lon="2.32049">
        <ele>122.1</ele>
        <time>2023-11-22T15:13:18Z</time>
      </trkpt>
      <trkpt lat="50.00623" lon="2.32049">
        <ele>122.1</ele>
        <time>2023-11-22T15:13:19Z</time>
      </trkpt>
      <trkpt lat="50.00622" lon="2.32049">
        <ele>122.1</ele>
        <time>2023-11-22T15:13:20Z</time>
      </trkpt>
      <trkpt lat="50.0062" lon="2.32049">
        <ele>122.2</ele>
        <time>2023-11-22T15:13:21Z</time>
      </trkpt>
      <trkpt lat="50.00619" lon="2.32049">
        <ele>122.2</ele>
        <time>2023-11-22T15:13:22Z</time>
      </trkpt>
      <trkpt lat="50.00618" lon="2.32049">
        <ele>122.2</ele>
        <time>2023-11-22T15:13:23Z</time>
      </trkpt>
      <trkpt lat="50.00617" lon="2.32049">
        <ele>122.3</ele>
        <time>2023-11-22T15:13:24Z</time>
      </trkpt>
      <trkpt lat="50.00616" lon="2.32049">
        <ele>122.3</ele>
        <time>2023-11-22T15:13:25Z</time>
      </trkpt>
      <trkpt lat="50.00615" lon="2.32049">
        <ele>122.3</ele>
        <time>2023-11-22T15:13:26Z</time>
      </trkpt>
      <trkpt lat="50.00613" lon="2.3205">
        <ele>122.4</ele>
        <time>2023-11-22T15:13:27Z</time>
      </trkpt>
      <trkpt lat="50.00612" lon="2.3205">
        <ele>122.4</ele>
        <time>2023-11-22T15:13:28Z</time>
      </trkpt>
      <trkpt lat="50.00611" lon="2.3205">
        <ele>122.4</ele>
        <time>2023-11-22T15:13:29Z</time>
      </trkpt>
      <trkpt lat="50.00609" lon="2.3205">
        <ele>122.5</ele>
        <time>2023-11-22T15:13:30Z</time>
      </trkpt>
      <trkpt lat="50.00608" lon="2.3205">
        <ele>122.5</ele>
        <time>2023-11-22T15:13:31Z</time>
      </trkpt>
      <trkpt lat="50.00607" lon="2.32051">
        <ele>122.5</ele>
        <time>2023-11-22T15:13:32Z</time>
      </trkpt>
      <trkpt lat="50.00606" lon="2.32051">
        <ele>122.6</ele>
        <time>2023-11-22T15:13:33Z</time>
      </trkpt>
      <trkpt lat="50.00605" lon="2.32051">
        <ele>122.6</ele>
        <time>2023-11-22T15:13:34Z</time>
      </trkpt>
      <trkpt lat="50.00604" lon="2.32051">
        <ele>122.6</ele>
        <time>2023-11-22T15:13:35Z</time>
      </trkpt>
      <trkpt lat="50.00603" lon="2.32051">
        <ele>122.7</ele>
        <time>2023-11-22T15:13:36Z</time>
      </trkpt>
      <trkpt lat="50.00602" lon="2.32051">
        <ele>122.7</ele>
        <time>2023-11-22T15:13:37Z</time>
      </trkpt>
      <trkpt lat="50.00601" lon="2.32051">
        <ele>122.7</ele>
        <time>2023-11-22T15:13:38Z</time>
      </trkpt>
      <trkpt lat="50.006" lon="2.32051">
        <ele>122.8</ele>
        <time>2023-11-22T15:13:39Z</time>
      </trkpt>
      <trkpt lat="50.00599" lon="2.3205">
        <ele>122.8</ele>
        <time>2023-11-22T15:13:40Z</time>
      </trkpt>
      <trkpt lat="50.00597" lon="2.3205">
        <ele>122.8</ele>
        <time>2023-11-22T15:13:41Z</time>
      </trkpt>
      <trkpt lat="50.00596" lon="2.3205">
        <ele>122.9</ele>
        <time>2023-11-22T15:13:42Z</time>
      </trkpt>
      <trkpt lat="50.00595" lon="2.3205">
        <ele>122.9</ele>
        <time>2023-11-22T15:13:43Z</time>
      </trkpt>
      <trkpt lat="50.00594" lon="2.3205">
        <ele>122.9</ele>
        <time>2023-11-22T15:13:44Z</time>
      </trkpt>
      <trkpt lat="50.00593" lon="2.3205">
        <ele>122.9</ele>
        <time>2023-11-22T15:13:45Z</time>
      </trkpt>
      <trkpt lat="50.00592" lon="2.3205">
        <ele>123</ele>
        <time>2023-11-22T15:13:46Z</time>
      </trkpt>
      <trkpt lat="50.00591" lon="2.32051">
        <ele>123</ele>
        <time>2023-11-22T15:13:47Z</time>
      </trkpt>
      <trkpt lat="50.0059" lon="2.32051">
        <ele>123</ele>
        <time>2023-11-22T15:13:48Z</time>
      </trkpt>
      <trkpt lat="50.00589" lon="2.32051">
        <ele>123.1</ele>
        <time>2023-11-22T15:13:49Z</time>
      </trkpt>
      <trkpt lat="50.00588" lon="2.32051">
        <ele>123.1</ele>
        <time>2023-11-22T15:13:50Z</time>
      </trkpt>
      <trkpt lat="50.00587" lon="2.32051">
        <ele>123.1</ele>
        <time>2023-11-22T15:13:51Z</time>
      </trkpt>
      <trkpt lat="50.00586" lon="2.32051">
        <ele>123.2</ele>
        <time>2023-11-22T15:13:52Z</time>
      </trkpt>
      <trkpt lat="50.00585" lon="2.32051">
        <ele>123.2</ele>
        <time>2023-11-22T15:13:53Z</time>
      </trkpt>
      <trkpt lat="50.00584" lon="2.32051">
        <ele>123.2</ele>
        <time>2023-11-22T15:13:54Z</time>
      </trkpt>
      <trkpt lat="50.00583" lon="2.32051">
        <ele>123.2</ele>
        <time>2023-11-22T15:13:55Z</time>
      </trkpt>
      <trkpt lat="50.00582" lon="2.32051">
        <ele>123.3</ele>
        <time>2023-11-22T15:13:56Z</time>
      </trkpt>
      <trkpt lat="50.00581" lon="2.32051">
        <ele>123.3</ele>
        <time>2023-11-22T15:13:57Z</time>
      </trkpt>
      <trkpt lat="50.00579" lon="2.32051">
        <ele>123.3</ele>
        <time>2023-11-22T15:13:58Z</time>
      </trkpt>
      <trkpt lat="50.00578" lon="2.32051">
        <ele>123.4</ele>
        <time>2023-11-22T15:13:59Z</time>
      </trkpt>
      <trkpt lat="50.00577" lon="2.32051">
        <ele>123.4</ele>
        <time>2023-11-22T15:14:00Z</time>
      </trkpt>
      <trkpt lat="50.00576" lon="2.32051">
        <ele>123.4</ele>
        <time>2023-11-22T15:14:01Z</time>
      </trkpt>
      <trkpt lat="50.00575" lon="2.32051">
        <ele>123.4</ele>
        <time>2023-11-22T15:14:02Z</time>
      </trkpt>
      <trkpt lat="50.00574" lon="2.3205">
        <ele>123.5</ele>
        <time>2023-11-22T15:14:03Z</time>
      </trkpt>
      <trkpt lat="50.00573" lon="2.3205">
        <ele>123.5</ele>
        <time>2023-11-22T15:14:04Z</time>
      </trkpt>
      <trkpt lat="50.00572" lon="2.3205">
        <ele>123.5</ele>
        <time>2023-11-22T15:14:05Z</time>
      </trkpt>
      <trkpt lat="50.00572" lon="2.3205">
        <ele>123.5</ele>
        <time>2023-11-22T15:14:06Z</time>
      </trkpt>
      <trkpt lat="50.00571" lon="2.3205">
        <ele>123.6</ele>
        <time>2023-11-22T15:14:07Z</time>
      </trkpt>
      <trkpt lat="50.0057" lon="2.3205">
        <ele>123.6</ele>
        <time>2023-11-22T15:14:08Z</time>
      </trkpt>
      <trkpt lat="50.00569" lon="2.3205">
        <ele>123.6</ele>
        <time>2023-11-22T15:14:09Z</time>
      </trkpt>
      <trkpt lat="50.00567" lon="2.3205">
        <ele>123.6</ele>
        <time>2023-11-22T15:14:10Z</time>
      </trkpt>
      <trkpt lat="50.00566" lon="2.3205">
        <ele>123.7</ele>
        <time>2023-11-22T15:14:11Z</time>
      </trkpt>
      <trkpt lat="50.00565" lon="2.3205">
        <ele>123.7</ele>
        <time>2023-11-22T15:14:12Z</time>
      </trkpt>
      <trkpt lat="50.00564" lon="2.3205">
        <ele>123.7</ele>
        <time>2023-11-22T15:14:13Z</time>
      </trkpt>
      <trkpt lat="50.00563" lon="2.3205">
        <ele>123.7</ele>
        <time>2023-11-22T15:14:14Z</time>
      </trkpt>
      <trkpt lat="50.00562" lon="2.3205">
        <ele>123.8</ele>
        <time>2023-11-22T15:14:15Z</time>
      </trkpt>
      <trkpt lat="50.00561" lon="2.3205">
        <ele>123.8</ele>
        <time>2023-11-22T15:14:16Z</time>
      </trkpt>
      <trkpt lat="50.0056" lon="2.3205">
        <ele>123.8</ele>
        <time>2023-11-22T15:14:17Z</time>
      </trkpt>
      <trkpt lat="50.00559" lon="2.3205">
        <ele>123.8</ele>
        <time>2023-11-22T15:14:18Z</time>
      </trkpt>
      <trkpt lat="50.00558" lon="2.3205">
        <ele>123.9</ele>
        <time>2023-11-22T15:14:19Z</time>
      </trkpt>
      <trkpt lat="50.00557" lon="2.3205">
        <ele>123.9</ele>
        <time>2023-11-22T15:14:20Z</time>
      </trkpt>
      <trkpt lat="50.00554" lon="2.3205">
        <ele>123.9</ele>
        <time>2023-11-22T15:14:21Z</time>
      </trkpt>
      <trkpt lat="50.00554" lon="2.3205">
        <ele>124</ele>
        <time>2023-11-22T15:14:22Z</time>
      </trkpt>
      <trkpt lat="50.00553" lon="2.3205">
        <ele>124</ele>
        <time>2023-11-22T15:14:23Z</time>
      </trkpt>
      <trkpt lat="50.00551" lon="2.3205">
        <ele>124</ele>
        <time>2023-11-22T15:14:24Z</time>
      </trkpt>
      <trkpt lat="50.0055" lon="2.3205">
        <ele>124</ele>
        <time>2023-11-22T15:14:25Z</time>
      </trkpt>
      <trkpt lat="50.00549" lon="2.3205">
        <ele>124.1</ele>
        <time>2023-11-22T15:14:26Z</time>
      </trkpt>
      <trkpt lat="50.00548" lon="2.3205">
        <ele>124.1</ele>
        <time>2023-11-22T15:14:27Z</time>
      </trkpt>
      <trkpt lat="50.00547" lon="2.3205">
        <ele>124.1</ele>
        <time>2023-11-22T15:14:28Z</time>
      </trkpt>
      <trkpt lat="50.00546" lon="2.3205">
        <ele>124.1</ele>
        <time>2023-11-22T15:14:29Z</time>
      </trkpt>
      <trkpt lat="50.00544" lon="2.3205">
        <ele>124.1</ele>
        <time>2023-11-22T15:14:30Z</time>
      </trkpt>
      <trkpt lat="50.00543" lon="2.3205">
        <ele>124.2</ele>
        <time>2023-11-22T15:14:31Z</time>
      </trkpt>
      <trkpt lat="50.00542" lon="2.3205">
        <ele>124.2</ele>
        <time>2023-11-22T15:14:32Z</time>
      </trkpt>
      <trkpt lat="50.00541" lon="2.3205">
        <ele>124.2</ele>
        <time>2023-11-22T15:14:33Z</time>
      </trkpt>
      <trkpt lat="50.0054" lon="2.3205">
        <ele>124.2</ele>
        <time>2023-11-22T15:14:34Z</time>
      </trkpt>
      <trkpt lat="50.00539" lon="2.3205">
        <ele>124.2</ele>
        <time>2023-11-22T15:14:35Z</time>
      </trkpt>
      <trkpt lat="50.00537" lon="2.3205">
        <ele>124.3</ele>
        <time>2023-11-22T15:14:36Z</time>
      </trkpt>
      <trkpt lat="50.00536" lon="2.3205">
        <ele>124.3</ele>
        <time>2023-11-22T15:14:37Z</time>
      </trkpt>
      <trkpt lat="50.00535" lon="2.3205">
        <ele>124.3</ele>
        <time>2023-11-22T15:14:38Z</time>
      </trkpt>
      <trkpt lat="50.00534" lon="2.3205">
        <ele>124.3</ele>
        <time>2023-11-22T15:14:39Z</time>
      </trkpt>
      <trkpt lat="50.00533" lon="2.32049">
        <ele>124.3</ele>
        <time>2023-11-22T15:14:40Z</time>
      </trkpt>
      <trkpt lat="50.00533" lon="2.3205">
        <ele>124.3</ele>
        <time>2023-11-22T15:14:41Z</time>
      </trkpt>
      <trkpt lat="50.00532" lon="2.3205">
        <ele>124.3</ele>
        <time>2023-11-22T15:14:42Z</time>
      </trkpt>
      <trkpt lat="50.00531" lon="2.3205">
        <ele>124.4</ele>
        <time>2023-11-22T15:14:43Z</time>
      </trkpt>
      <trkpt lat="50.00529" lon="2.32051">
        <ele>124.4</ele>
        <time>2023-11-22T15:14:44Z</time>
      </trkpt>
      <trkpt lat="50.00528" lon="2.32051">
        <ele>124.4</ele>
        <time>2023-11-22T15:14:45Z</time>
      </trkpt>
      <trkpt lat="50.00527" lon="2.32051">
        <ele>124.4</ele>
        <time>2023-11-22T15:14:46Z</time>
      </trkpt>
      <trkpt lat="50.00526" lon="2.32052">
        <ele>124.5</ele>
        <time>2023-11-22T15:14:47Z</time>
      </trkpt>
      <trkpt lat="50.00525" lon="2.32052">
        <ele>124.5</ele>
        <time>2023-11-22T15:14:48Z</time>
      </trkpt>
      <trkpt lat="50.00525" lon="2.32052">
        <ele>124.5</ele>
        <time>2023-11-22T15:14:49Z</time>
      </trkpt>
      <trkpt lat="50.00524" lon="2.32053">
        <ele>124.5</ele>
        <time>2023-11-22T15:14:50Z</time>
      </trkpt>
      <trkpt lat="50.00523" lon="2.32053">
        <ele>124.5</ele>
        <time>2023-11-22T15:14:51Z</time>
      </trkpt>
      <trkpt lat="50.00522" lon="2.32053">
        <ele>124.5</ele>
        <time>2023-11-22T15:14:52Z</time>
      </trkpt>
      <trkpt lat="50.00521" lon="2.32053">
        <ele>124.6</ele>
        <time>2023-11-22T15:14:53Z</time>
      </trkpt>
      <trkpt lat="50.00521" lon="2.32053">
        <ele>124.6</ele>
        <time>2023-11-22T15:14:54Z</time>
      </trkpt>
      <trkpt lat="50.0052" lon="2.32054">
        <ele>124.6</ele>
        <time>2023-11-22T15:14:55Z</time>
      </trkpt>
      <trkpt lat="50.00519" lon="2.32054">
        <ele>124.6</ele>
        <time>2023-11-22T15:14:56Z</time>
      </trkpt>
      <trkpt lat="50.00518" lon="2.32053">
        <ele>124.6</ele>
        <time>2023-11-22T15:14:57Z</time>
      </trkpt>
      <trkpt lat="50.00517" lon="2.32053">
        <ele>124.7</ele>
        <time>2023-11-22T15:14:58Z</time>
      </trkpt>
      <trkpt lat="50.00516" lon="2.32053">
        <ele>124.7</ele>
        <time>2023-11-22T15:14:59Z</time>
      </trkpt>
      <trkpt lat="50.00515" lon="2.32052">
        <ele>124.7</ele>
        <time>2023-11-22T15:15:00Z</time>
      </trkpt>
      <trkpt lat="50.00514" lon="2.32052">
        <ele>124.7</ele>
        <time>2023-11-22T15:15:01Z</time>
      </trkpt>
      <trkpt lat="50.00513" lon="2.32051">
        <ele>124.7</ele>
        <time>2023-11-22T15:15:02Z</time>
      </trkpt>
      <trkpt lat="50.00512" lon="2.32051">
        <ele>124.8</ele>
        <time>2023-11-22T15:15:03Z</time>
      </trkpt>
      <trkpt lat="50.00511" lon="2.32051">
        <ele>124.8</ele>
        <time>2023-11-22T15:15:04Z</time>
      </trkpt>
      <trkpt lat="50.00509" lon="2.32051">
        <ele>124.8</ele>
        <time>2023-11-22T15:15:05Z</time>
      </trkpt>
      <trkpt lat="50.00508" lon="2.32051">
        <ele>124.8</ele>
        <time>2023-11-22T15:15:06Z</time>
      </trkpt>
      <trkpt lat="50.00507" lon="2.32051">
        <ele>124.8</ele>
        <time>2023-11-22T15:15:07Z</time>
      </trkpt>
      <trkpt lat="50.00505" lon="2.32051">
        <ele>124.9</ele>
        <time>2023-11-22T15:15:08Z</time>
      </trkpt>
      <trkpt lat="50.00504" lon="2.32051">
        <ele>124.9</ele>
        <time>2023-11-22T15:15:09Z</time>
      </trkpt>
      <trkpt lat="50.00503" lon="2.3205">
        <ele>124.9</ele>
        <time>2023-11-22T15:15:10Z</time>
      </trkpt>
      <trkpt lat="50.00501" lon="2.32051">
        <ele>124.9</ele>
        <time>2023-11-22T15:15:11Z</time>
      </trkpt>
      <trkpt lat="50.005" lon="2.32051">
        <ele>125</ele>
        <time>2023-11-22T15:15:12Z</time>
      </trkpt>
      <trkpt lat="50.00499" lon="2.3205">
        <ele>125</ele>
        <time>2023-11-22T15:15:13Z</time>
      </trkpt>
      <trkpt lat="50.00498" lon="2.32051">
        <ele>125</ele>
        <time>2023-11-22T15:15:14Z</time>
      </trkpt>
      <trkpt lat="50.00497" lon="2.3205">
        <ele>125</ele>
        <time>2023-11-22T15:15:15Z</time>
      </trkpt>
      <trkpt lat="50.00495" lon="2.32051">
        <ele>125</ele>
        <time>2023-11-22T15:15:16Z</time>
      </trkpt>
      <trkpt lat="50.00494" lon="2.32051">
        <ele>125.1</ele>
        <time>2023-11-22T15:15:17Z</time>
      </trkpt>
      <trkpt lat="50.00492" lon="2.32051">
        <ele>125.1</ele>
        <time>2023-11-22T15:15:18Z</time>
      </trkpt>
      <trkpt lat="50.00491" lon="2.32051">
        <ele>125.1</ele>
        <time>2023-11-22T15:15:19Z</time>
      </trkpt>
      <trkpt lat="50.0049" lon="2.32051">
        <ele>125.1</ele>
        <time>2023-11-22T15:15:20Z</time>
      </trkpt>
      <trkpt lat="50.00488" lon="2.3205">
        <ele>125.2</ele>
        <time>2023-11-22T15:15:21Z</time>
      </trkpt>
      <trkpt lat="50.00487" lon="2.3205">
        <ele>125.2</ele>
        <time>2023-11-22T15:15:22Z</time>
      </trkpt>
      <trkpt lat="50.00486" lon="2.3205">
        <ele>125.2</ele>
        <time>2023-11-22T15:15:23Z</time>
      </trkpt>
      <trkpt lat="50.00485" lon="2.3205">
        <ele>125.2</ele>
        <time>2023-11-22T15:15:24Z</time>
      </trkpt>
      <trkpt lat="50.00484" lon="2.3205">
        <ele>125.2</ele>
        <time>2023-11-22T15:15:25Z</time>
      </trkpt>
      <trkpt lat="50.00482" lon="2.3205">
        <ele>125.3</ele>
        <time>2023-11-22T15:15:26Z</time>
      </trkpt>
      <trkpt lat="50.00481" lon="2.3205">
        <ele>125.3</ele>
        <time>2023-11-22T15:15:27Z</time>
      </trkpt>
      <trkpt lat="50.0048" lon="2.3205">
        <ele>125.3</ele>
        <time>2023-11-22T15:15:28Z</time>
      </trkpt>
      <trkpt lat="50.00479" lon="2.3205">
        <ele>125.3</ele>
        <time>2023-11-22T15:15:29Z</time>
      </trkpt>
      <trkpt lat="50.00478" lon="2.3205">
        <ele>125.4</ele>
        <time>2023-11-22T15:15:30Z</time>
      </trkpt>
      <trkpt lat="50.00477" lon="2.3205">
        <ele>125.4</ele>
        <time>2023-11-22T15:15:31Z</time>
      </trkpt>
      <trkpt lat="50.00476" lon="2.3205">
        <ele>125.4</ele>
        <time>2023-11-22T15:15:32Z</time>
      </trkpt>
      <trkpt lat="50.00475" lon="2.3205">
        <ele>125.4</ele>
        <time>2023-11-22T15:15:33Z</time>
      </trkpt>
      <trkpt lat="50.00474" lon="2.32049">
        <ele>125.5</ele>
        <time>2023-11-22T15:15:34Z</time>
      </trkpt>
      <trkpt lat="50.00473" lon="2.32049">
        <ele>125.5</ele>
        <time>2023-11-22T15:15:35Z</time>
      </trkpt>
      <trkpt lat="50.00472" lon="2.32049">
        <ele>125.5</ele>
        <time>2023-11-22T15:15:36Z</time>
      </trkpt>
      <trkpt lat="50.0047" lon="2.32049">
        <ele>125.6</ele>
        <time>2023-11-22T15:15:37Z</time>
      </trkpt>
      <trkpt lat="50.00469" lon="2.32049">
        <ele>125.6</ele>
        <time>2023-11-22T15:15:38Z</time>
      </trkpt>
      <trkpt lat="50.00468" lon="2.32049">
        <ele>125.6</ele>
        <time>2023-11-22T15:15:39Z</time>
      </trkpt>
      <trkpt lat="50.00467" lon="2.32048">
        <ele>125.6</ele>
        <time>2023-11-22T15:15:40Z</time>
      </trkpt>
      <trkpt lat="50.00466" lon="2.32048">
        <ele>125.7</ele>
        <time>2023-11-22T15:15:41Z</time>
      </trkpt>
      <trkpt lat="50.00465" lon="2.32048">
        <ele>125.7</ele>
        <time>2023-11-22T15:15:42Z</time>
      </trkpt>
      <trkpt lat="50.00464" lon="2.32048">
        <ele>125.7</ele>
        <time>2023-11-22T15:15:43Z</time>
      </trkpt>
      <trkpt lat="50.00463" lon="2.32047">
        <ele>125.7</ele>
        <time>2023-11-22T15:15:44Z</time>
      </trkpt>
      <trkpt lat="50.00462" lon="2.32047">
        <ele>125.8</ele>
        <time>2023-11-22T15:15:45Z</time>
      </trkpt>
      <trkpt lat="50.0046" lon="2.32047">
        <ele>125.8</ele>
        <time>2023-11-22T15:15:46Z</time>
      </trkpt>
      <trkpt lat="50.00459" lon="2.32047">
        <ele>125.8</ele>
        <time>2023-11-22T15:15:47Z</time>
      </trkpt>
      <trkpt lat="50.00458" lon="2.32047">
        <ele>125.8</ele>
        <time>2023-11-22T15:15:48Z</time>
      </trkpt>
      <trkpt lat="50.00457" lon="2.32046">
        <ele>125.9</ele>
        <time>2023-11-22T15:15:49Z</time>
      </trkpt>
      <trkpt lat="50.00457" lon="2.32046">
        <ele>125.9</ele>
        <time>2023-11-22T15:15:50Z</time>
      </trkpt>
      <trkpt lat="50.00456" lon="2.32046">
        <ele>125.9</ele>
        <time>2023-11-22T15:15:51Z</time>
      </trkpt>
      <trkpt lat="50.00455" lon="2.32046">
        <ele>125.9</ele>
        <time>2023-11-22T15:15:52Z</time>
      </trkpt>
      <trkpt lat="50.00454" lon="2.32046">
        <ele>126</ele>
        <time>2023-11-22T15:15:53Z</time>
      </trkpt>
      <trkpt lat="50.00453" lon="2.32046">
        <ele>126</ele>
        <time>2023-11-22T15:15:54Z</time>
      </trkpt>
      <trkpt lat="50.00452" lon="2.32046">
        <ele>126</ele>
        <time>2023-11-22T15:15:55Z</time>
      </trkpt>
      <trkpt lat="50.0045" lon="2.32046">
        <ele>126</ele>
        <time>2023-11-22T15:15:56Z</time>
      </trkpt>
      <trkpt lat="50.00449" lon="2.32046">
        <ele>126.1</ele>
        <time>2023-11-22T15:15:57Z</time>
      </trkpt>
      <trkpt lat="50.00448" lon="2.32046">
        <ele>126.1</ele>
        <time>2023-11-22T15:15:58Z</time>
      </trkpt>
      <trkpt lat="50.00447" lon="2.32046">
        <ele>126.1</ele>
        <time>2023-11-22T15:15:59Z</time>
      </trkpt>
      <trkpt lat="50.00446" lon="2.32046">
        <ele>126.1</ele>
        <time>2023-11-22T15:16:00Z</time>
      </trkpt>
      <trkpt lat="50.00445" lon="2.32046">
        <ele>126.2</ele>
        <time>2023-11-22T15:16:01Z</time>
      </trkpt>
      <trkpt lat="50.00444" lon="2.32046">
        <ele>126.2</ele>
        <time>2023-11-22T15:16:02Z</time>
      </trkpt>
      <trkpt lat="50.00443" lon="2.32045">
        <ele>126.2</ele>
        <time>2023-11-22T15:16:03Z</time>
      </trkpt>
      <trkpt lat="50.00442" lon="2.32045">
        <ele>126.2</ele>
        <time>2023-11-22T15:16:04Z</time>
      </trkpt>
      <trkpt lat="50.00441" lon="2.32045">
        <ele>126.2</ele>
        <time>2023-11-22T15:16:05Z</time>
      </trkpt>
      <trkpt lat="50.0044" lon="2.32045">
        <ele>126.3</ele>
        <time>2023-11-22T15:16:06Z</time>
      </trkpt>
      <trkpt lat="50.00439" lon="2.32045">
        <ele>126.3</ele>
        <time>2023-11-22T15:16:07Z</time>
      </trkpt>
      <trkpt lat="50.00438" lon="2.32044">
        <ele>126.3</ele>
        <time>2023-11-22T15:16:08Z</time>
      </trkpt>
      <trkpt lat="50.00437" lon="2.32044">
        <ele>126.3</ele>
        <time>2023-11-22T15:16:09Z</time>
      </trkpt>
      <trkpt lat="50.00436" lon="2.32044">
        <ele>126.4</ele>
        <time>2023-11-22T15:16:10Z</time>
      </trkpt>
      <trkpt lat="50.00435" lon="2.32044">
        <ele>126.4</ele>
        <time>2023-11-22T15:16:11Z</time>
      </trkpt>
      <trkpt lat="50.00435" lon="2.32043">
        <ele>126.4</ele>
        <time>2023-11-22T15:16:12Z</time>
      </trkpt>
      <trkpt lat="50.00433" lon="2.32043">
        <ele>126.4</ele>
        <time>2023-11-22T15:16:13Z</time>
      </trkpt>
      <trkpt lat="50.00432" lon="2.32043">
        <ele>126.5</ele>
        <time>2023-11-22T15:16:14Z</time>
      </trkpt>
      <trkpt lat="50.00431" lon="2.32043">
        <ele>126.5</ele>
        <time>2023-11-22T15:16:15Z</time>
      </trkpt>
      <trkpt lat="50.0043" lon="2.32042">
        <ele>126.5</ele>
        <time>2023-11-22T15:16:16Z</time>
      </trkpt>
      <trkpt lat="50.00429" lon="2.32042">
        <ele>126.5</ele>
        <time>2023-11-22T15:16:17Z</time>
      </trkpt>
      <trkpt lat="50.00428" lon="2.32042">
        <ele>126.6</ele>
        <time>2023-11-22T15:16:18Z</time>
      </trkpt>
      <trkpt lat="50.00427" lon="2.32042">
        <ele>126.6</ele>
        <time>2023-11-22T15:16:19Z</time>
      </trkpt>
      <trkpt lat="50.00426" lon="2.32041">
        <ele>126.6</ele>
        <time>2023-11-22T15:16:20Z</time>
      </trkpt>
      <trkpt lat="50.00425" lon="2.32041">
        <ele>126.6</ele>
        <time>2023-11-22T15:16:21Z</time>
      </trkpt>
      <trkpt lat="50.00423" lon="2.32041">
        <ele>126.7</ele>
        <time>2023-11-22T15:16:22Z</time>
      </trkpt>
      <trkpt lat="50.00422" lon="2.32041">
        <ele>126.7</ele>
        <time>2023-11-22T15:16:23Z</time>
      </trkpt>
      <trkpt lat="50.00421" lon="2.32041">
        <ele>126.7</ele>
        <time>2023-11-22T15:16:24Z</time>
      </trkpt>
      <trkpt lat="50.0042" lon="2.3204">
        <ele>126.8</ele>
        <time>2023-11-22T15:16:25Z</time>
      </trkpt>
      <trkpt lat="50.00419" lon="2.3204">
        <ele>126.8</ele>
        <time>2023-11-22T15:16:26Z</time>
      </trkpt>
      <trkpt lat="50.00418" lon="2.3204">
        <ele>126.8</ele>
        <time>2023-11-22T15:16:27Z</time>
      </trkpt>
      <trkpt lat="50.00417" lon="2.3204">
        <ele>126.8</ele>
        <time>2023-11-22T15:16:28Z</time>
      </trkpt>
      <trkpt lat="50.00416" lon="2.32039">
        <ele>126.9</ele>
        <time>2023-11-22T15:16:29Z</time>
      </trkpt>
      <trkpt lat="50.00414" lon="2.32039">
        <ele>126.9</ele>
        <time>2023-11-22T15:16:30Z</time>
      </trkpt>
      <trkpt lat="50.00413" lon="2.32039">
        <ele>126.9</ele>
        <time>2023-11-22T15:16:31Z</time>
      </trkpt>
      <trkpt lat="50.00411" lon="2.32038">
        <ele>127</ele>
        <time>2023-11-22T15:16:32Z</time>
      </trkpt>
      <trkpt lat="50.0041" lon="2.32038">
        <ele>127</ele>
        <time>2023-11-22T15:16:33Z</time>
      </trkpt>
      <trkpt lat="50.0041" lon="2.32038">
        <ele>127</ele>
        <time>2023-11-22T15:16:34Z</time>
      </trkpt>
      <trkpt lat="50.00409" lon="2.32037">
        <ele>127</ele>
        <time>2023-11-22T15:16:35Z</time>
      </trkpt>
      <trkpt lat="50.00408" lon="2.32037">
        <ele>127.1</ele>
        <time>2023-11-22T15:16:36Z</time>
      </trkpt>
      <trkpt lat="50.00407" lon="2.32037">
        <ele>127.1</ele>
        <time>2023-11-22T15:16:37Z</time>
      </trkpt>
      <trkpt lat="50.00406" lon="2.32037">
        <ele>127.1</ele>
        <time>2023-11-22T15:16:38Z</time>
      </trkpt>
      <trkpt lat="50.00404" lon="2.32037">
        <ele>127.1</ele>
        <time>2023-11-22T15:16:39Z</time>
      </trkpt>
      <trkpt lat="50.00403" lon="2.32036">
        <ele>127.2</ele>
        <time>2023-11-22T15:16:40Z</time>
      </trkpt>
      <trkpt lat="50.00401" lon="2.32036">
        <ele>127.2</ele>
        <time>2023-11-22T15:16:41Z</time>
      </trkpt>
      <trkpt lat="50.004" lon="2.32036">
        <ele>127.2</ele>
        <time>2023-11-22T15:16:42Z</time>
      </trkpt>
      <trkpt lat="50.004" lon="2.32036">
        <ele>127.3</ele>
        <time>2023-11-22T15:16:43Z</time>
      </trkpt>
      <trkpt lat="50.00399" lon="2.32036">
        <ele>127.3</ele>
        <time>2023-11-22T15:16:44Z</time>
      </trkpt>
      <trkpt lat="50.00398" lon="2.32036">
        <ele>127.3</ele>
        <time>2023-11-22T15:16:45Z</time>
      </trkpt>
      <trkpt lat="50.00396" lon="2.32036">
        <ele>127.3</ele>
        <time>2023-11-22T15:16:46Z</time>
      </trkpt>
      <trkpt lat="50.00395" lon="2.32035">
        <ele>127.4</ele>
        <time>2023-11-22T15:16:47Z</time>
      </trkpt>
      <trkpt lat="50.00394" lon="2.32035">
        <ele>127.4</ele>
        <time>2023-11-22T15:16:48Z</time>
      </trkpt>
      <trkpt lat="50.00393" lon="2.32035">
        <ele>127.4</ele>
        <time>2023-11-22T15:16:49Z</time>
      </trkpt>
      <trkpt lat="50.00392" lon="2.32034">
        <ele>127.4</ele>
        <time>2023-11-22T15:16:50Z</time>
      </trkpt>
      <trkpt lat="50.00391" lon="2.32034">
        <ele>127.5</ele>
        <time>2023-11-22T15:16:51Z</time>
      </trkpt>
      <trkpt lat="50.0039" lon="2.32034">
        <ele>127.5</ele>
        <time>2023-11-22T15:16:52Z</time>
      </trkpt>
      <trkpt lat="50.00389" lon="2.32034">
        <ele>127.5</ele>
        <time>2023-11-22T15:16:53Z</time>
      </trkpt>
      <trkpt lat="50.00388" lon="2.32034">
        <ele>127.5</ele>
        <time>2023-11-22T15:16:54Z</time>
      </trkpt>
      <trkpt lat="50.00387" lon="2.32034">
        <ele>127.6</ele>
        <time>2023-11-22T15:16:55Z</time>
      </trkpt>
      <trkpt lat="50.00386" lon="2.32034">
        <ele>127.6</ele>
        <time>2023-11-22T15:16:56Z</time>
      </trkpt>
      <trkpt lat="50.00385" lon="2.32033">
        <ele>127.6</ele>
        <time>2023-11-22T15:16:57Z</time>
      </trkpt>
      <trkpt lat="50.00384" lon="2.32033">
        <ele>127.6</ele>
        <time>2023-11-22T15:16:58Z</time>
      </trkpt>
      <trkpt lat="50.00383" lon="2.32033">
        <ele>127.6</ele>
        <time>2023-11-22T15:16:59Z</time>
      </trkpt>
      <trkpt lat="50.00382" lon="2.32033">
        <ele>127.7</ele>
        <time>2023-11-22T15:17:00Z</time>
      </trkpt>
      <trkpt lat="50.00381" lon="2.32033">
        <ele>127.7</ele>
        <time>2023-11-22T15:17:01Z</time>
      </trkpt>
      <trkpt lat="50.00381" lon="2.32033">
        <ele>127.7</ele>
        <time>2023-11-22T15:17:02Z</time>
      </trkpt>
      <trkpt lat="50.0038" lon="2.32033">
        <ele>127.7</ele>
        <time>2023-11-22T15:17:03Z</time>
      </trkpt>
      <trkpt lat="50.00379" lon="2.32033">
        <ele>127.7</ele>
        <time>2023-11-22T15:17:04Z</time>
      </trkpt>
      <trkpt lat="50.00378" lon="2.32033">
        <ele>127.8</ele>
        <time>2023-11-22T15:17:05Z</time>
      </trkpt>
      <trkpt lat="50.00377" lon="2.32033">
        <ele>127.8</ele>
        <time>2023-11-22T15:17:06Z</time>
      </trkpt>
      <trkpt lat="50.00376" lon="2.32033">
        <ele>127.8</ele>
        <time>2023-11-22T15:17:07Z</time>
      </trkpt>
      <trkpt lat="50.00375" lon="2.32032">
        <ele>127.8</ele>
        <time>2023-11-22T15:17:08Z</time>
      </trkpt>
      <trkpt lat="50.00374" lon="2.32032">
        <ele>127.9</ele>
        <time>2023-11-22T15:17:09Z</time>
      </trkpt>
      <trkpt lat="50.00373" lon="2.32032">
        <ele>127.9</ele>
        <time>2023-11-22T15:17:10Z</time>
      </trkpt>
      <trkpt lat="50.00372" lon="2.32032">
        <ele>127.9</ele>
        <time>2023-11-22T15:17:11Z</time>
      </trkpt>
      <trkpt lat="50.00371" lon="2.32031">
        <ele>127.9</ele>
        <time>2023-11-22T15:17:12Z</time>
      </trkpt>
      <trkpt lat="50.0037" lon="2.32031">
        <ele>127.9</ele>
        <time>2023-11-22T15:17:13Z</time>
      </trkpt>
      <trkpt lat="50.00368" lon="2.32031">
        <ele>128</ele>
        <time>2023-11-22T15:17:14Z</time>
      </trkpt>
      <trkpt lat="50.00367" lon="2.32031">
        <ele>128</ele>
        <time>2023-11-22T15:17:15Z</time>
      </trkpt>
      <trkpt lat="50.00366" lon="2.3203">
        <ele>128</ele>
        <time>2023-11-22T15:17:16Z</time>
      </trkpt>
      <trkpt lat="50.00365" lon="2.3203">
        <ele>128</ele>
        <time>2023-11-22T15:17:17Z</time>
      </trkpt>
      <trkpt lat="50.00364" lon="2.32029">
        <ele>128</ele>
        <time>2023-11-22T15:17:18Z</time>
      </trkpt>
      <trkpt lat="50.00363" lon="2.32029">
        <ele>128</ele>
        <time>2023-11-22T15:17:19Z</time>
      </trkpt>
      <trkpt lat="50.00362" lon="2.32029">
        <ele>128.1</ele>
        <time>2023-11-22T15:17:20Z</time>
      </trkpt>
      <trkpt lat="50.00361" lon="2.32028">
        <ele>128.1</ele>
        <time>2023-11-22T15:17:21Z</time>
      </trkpt>
      <trkpt lat="50.0036" lon="2.32028">
        <ele>128.1</ele>
        <time>2023-11-22T15:17:22Z</time>
      </trkpt>
      <trkpt lat="50.00359" lon="2.32028">
        <ele>128.1</ele>
        <time>2023-11-22T15:17:23Z</time>
      </trkpt>
      <trkpt lat="50.00358" lon="2.32027">
        <ele>128.1</ele>
        <time>2023-11-22T15:17:24Z</time>
      </trkpt>
      <trkpt lat="50.00358" lon="2.32026">
        <ele>128.2</ele>
        <time>2023-11-22T15:17:25Z</time>
      </trkpt>
      <trkpt lat="50.00356" lon="2.32026">
        <ele>128.2</ele>
        <time>2023-11-22T15:17:26Z</time>
      </trkpt>
      <trkpt lat="50.00355" lon="2.32025">
        <ele>128.2</ele>
        <time>2023-11-22T15:17:27Z</time>
      </trkpt>
      <trkpt lat="50.00354" lon="2.32025">
        <ele>128.2</ele>
        <time>2023-11-22T15:17:28Z</time>
      </trkpt>
      <trkpt lat="50.00353" lon="2.32025">
        <ele>128.2</ele>
        <time>2023-11-22T15:17:29Z</time>
      </trkpt>
      <trkpt lat="50.00352" lon="2.32024">
        <ele>128.3</ele>
        <time>2023-11-22T15:17:30Z</time>
      </trkpt>
      <trkpt lat="50.00351" lon="2.32024">
        <ele>128.3</ele>
        <time>2023-11-22T15:17:31Z</time>
      </trkpt>
      <trkpt lat="50.0035" lon="2.32023">
        <ele>128.3</ele>
        <time>2023-11-22T15:17:32Z</time>
      </trkpt>
      <trkpt lat="50.00349" lon="2.32023">
        <ele>128.3</ele>
        <time>2023-11-22T15:17:33Z</time>
      </trkpt>
      <trkpt lat="50.00349" lon="2.32022">
        <ele>128.3</ele>
        <time>2023-11-22T15:17:34Z</time>
      </trkpt>
      <trkpt lat="50.00348" lon="2.32022">
        <ele>128.3</ele>
        <time>2023-11-22T15:17:35Z</time>
      </trkpt>
      <trkpt lat="50.00347" lon="2.32021">
        <ele>128.4</ele>
        <time>2023-11-22T15:17:36Z</time>
      </trkpt>
      <trkpt lat="50.00346" lon="2.32021">
        <ele>128.4</ele>
        <time>2023-11-22T15:17:37Z</time>
      </trkpt>
      <trkpt lat="50.00345" lon="2.3202">
        <ele>128.4</ele>
        <time>2023-11-22T15:17:38Z</time>
      </trkpt>
      <trkpt lat="50.00344" lon="2.32019">
        <ele>128.4</ele>
        <time>2023-11-22T15:17:39Z</time>
      </trkpt>
      <trkpt lat="50.00343" lon="2.32019">
        <ele>128.4</ele>
        <time>2023-11-22T15:17:40Z</time>
      </trkpt>
      <trkpt lat="50.00342" lon="2.32019">
        <ele>128.5</ele>
        <time>2023-11-22T15:17:41Z</time>
      </trkpt>
      <trkpt lat="50.00341" lon="2.32018">
        <ele>128.5</ele>
        <time>2023-11-22T15:17:42Z</time>
      </trkpt>
      <trkpt lat="50.0034" lon="2.32018">
        <ele>128.5</ele>
        <time>2023-11-22T15:17:43Z</time>
      </trkpt>
      <trkpt lat="50.00339" lon="2.32018">
        <ele>128.5</ele>
        <time>2023-11-22T15:17:44Z</time>
      </trkpt>
      <trkpt lat="50.00338" lon="2.32018">
        <ele>128.5</ele>
        <time>2023-11-22T15:17:45Z</time>
      </trkpt>
      <trkpt lat="50.00337" lon="2.32017">
        <ele>128.6</ele>
        <time>2023-11-22T15:17:46Z</time>
      </trkpt>
      <trkpt lat="50.00336" lon="2.32017">
        <ele>128.6</ele>
        <time>2023-11-22T15:17:47Z</time>
      </trkpt>
      <trkpt lat="50.00335" lon="2.32016">
        <ele>128.6</ele>
        <time>2023-11-22T15:17:48Z</time>
      </trkpt>
      <trkpt lat="50.00334" lon="2.32016">
        <ele>128.6</ele>
        <time>2023-11-22T15:17:49Z</time>
      </trkpt>
      <trkpt lat="50.00333" lon="2.32016">
        <ele>128.6</ele>
        <time>2023-11-22T15:17:50Z</time>
      </trkpt>
      <trkpt lat="50.00332" lon="2.32015">
        <ele>128.7</ele>
        <time>2023-11-22T15:17:51Z</time>
      </trkpt>
      <trkpt lat="50.00331" lon="2.32014">
        <ele>128.7</ele>
        <time>2023-11-22T15:17:52Z</time>
      </trkpt>
      <trkpt lat="50.0033" lon="2.32014">
        <ele>128.7</ele>
        <time>2023-11-22T15:17:53Z</time>
      </trkpt>
      <trkpt lat="50.00329" lon="2.32013">
        <ele>128.7</ele>
        <time>2023-11-22T15:17:54Z</time>
      </trkpt>
      <trkpt lat="50.00328" lon="2.32013">
        <ele>128.7</ele>
        <time>2023-11-22T15:17:55Z</time>
      </trkpt>
      <trkpt lat="50.00328" lon="2.32012">
        <ele>128.8</ele>
        <time>2023-11-22T15:17:56Z</time>
      </trkpt>
      <trkpt lat="50.00327" lon="2.32012">
        <ele>128.8</ele>
        <time>2023-11-22T15:17:57Z</time>
      </trkpt>
      <trkpt lat="50.00326" lon="2.32012">
        <ele>128.8</ele>
        <time>2023-11-22T15:17:58Z</time>
      </trkpt>
      <trkpt lat="50.00325" lon="2.32011">
        <ele>128.8</ele>
        <time>2023-11-22T15:17:59Z</time>
      </trkpt>
      <trkpt lat="50.00324" lon="2.32011">
        <ele>128.8</ele>
        <time>2023-11-22T15:18:00Z</time>
      </trkpt>
      <trkpt lat="50.00323" lon="2.3201">
        <ele>128.8</ele>
        <time>2023-11-22T15:18:01Z</time>
      </trkpt>
      <trkpt lat="50.00322" lon="2.3201">
        <ele>128.9</ele>
        <time>2023-11-22T15:18:02Z</time>
      </trkpt>
      <trkpt lat="50.00321" lon="2.32009">
        <ele>128.9</ele>
        <time>2023-11-22T15:18:03Z</time>
      </trkpt>
      <trkpt lat="50.0032" lon="2.32009">
        <ele>128.9</ele>
        <time>2023-11-22T15:18:04Z</time>
      </trkpt>
      <trkpt lat="50.0032" lon="2.32008">
        <ele>128.9</ele>
        <time>2023-11-22T15:18:05Z</time>
      </trkpt>
      <trkpt lat="50.00319" lon="2.32007">
        <ele>128.9</ele>
        <time>2023-11-22T15:18:06Z</time>
      </trkpt>
      <trkpt lat="50.00318" lon="2.32006">
        <ele>128.9</ele>
        <time>2023-11-22T15:18:07Z</time>
      </trkpt>
      <trkpt lat="50.00317" lon="2.32006">
        <ele>129</ele>
        <time>2023-11-22T15:18:08Z</time>
      </trkpt>
      <trkpt lat="50.00316" lon="2.32005">
        <ele>129</ele>
        <time>2023-11-22T15:18:09Z</time>
      </trkpt>
      <trkpt lat="50.00316" lon="2.32004">
        <ele>129</ele>
        <time>2023-11-22T15:18:10Z</time>
      </trkpt>
      <trkpt lat="50.00315" lon="2.32004">
        <ele>129</ele>
        <time>2023-11-22T15:18:11Z</time>
      </trkpt>
      <trkpt lat="50.00314" lon="2.32003">
        <ele>129</ele>
        <time>2023-11-22T15:18:12Z</time>
      </trkpt>
      <trkpt lat="50.00314" lon="2.32002">
        <ele>129</ele>
        <time>2023-11-22T15:18:13Z</time>
      </trkpt>
      <trkpt lat="50.00313" lon="2.32002">
        <ele>129</ele>
        <time>2023-11-22T15:18:14Z</time>
      </trkpt>
      <trkpt lat="50.00313" lon="2.32002">
        <ele>129</ele>
        <time>2023-11-22T15:18:15Z</time>
      </trkpt>
      <trkpt lat="50.00313" lon="2.32002">
        <ele>129</ele>
        <time>2023-11-22T15:18:16Z</time>
      </trkpt>
      <trkpt lat="50.00313" lon="2.32002">
        <ele>129</ele>
        <time>2023-11-22T15:18:17Z</time>
      </trkpt>
      <trkpt lat="50.00312" lon="2.32002">
        <ele>129</ele>
        <time>2023-11-22T15:18:18Z</time>
      </trkpt>
      <trkpt lat="50.00312" lon="2.32002">
        <ele>129</ele>
        <time>2023-11-22T15:18:19Z</time>
      </trkpt>
      <trkpt lat="50.00312" lon="2.32001">
        <ele>129.1</ele>
        <time>2023-11-22T15:18:20Z</time>
      </trkpt>
      <trkpt lat="50.00312" lon="2.32001">
        <ele>129.1</ele>
        <time>2023-11-22T15:18:21Z</time>
      </trkpt>
      <trkpt lat="50.00312" lon="2.32001">
        <ele>129.1</ele>
        <time>2023-11-22T15:18:22Z</time>
      </trkpt>
      <trkpt lat="50.00312" lon="2.32001">
        <ele>129.1</ele>
        <time>2023-11-22T15:18:23Z</time>
      </trkpt>
      <trkpt lat="50.00312" lon="2.32002">
        <ele>129.1</ele>
        <time>2023-11-22T15:18:24Z</time>
      </trkpt>
      <trkpt lat="50.00312" lon="2.32002">
        <ele>129.1</ele>
        <time>2023-11-22T15:18:25Z</time>
      </trkpt>
      <trkpt lat="50.00312" lon="2.32002">
        <ele>129.1</ele>
        <time>2023-11-22T15:18:26Z</time>
      </trkpt>
      <trkpt lat="50.00312" lon="2.32002">
        <ele>129.1</ele>
        <time>2023-11-22T15:18:27Z</time>
      </trkpt>
      <trkpt lat="50.00312" lon="2.32002">
        <ele>129.1</ele>
        <time>2023-11-22T15:18:28Z</time>
      </trkpt>
      <trkpt lat="50.00312" lon="2.32002">
        <ele>129.1</ele>
        <time>2023-11-22T15:18:29Z</time>
      </trkpt>
      <trkpt lat="50.00312" lon="2.32002">
        <ele>129.1</ele>
        <time>2023-11-22T15:18:30Z</time>
      </trkpt>
      <trkpt lat="50.00312" lon="2.32002">
        <ele>129.1</ele>
        <time>2023-11-22T15:18:31Z</time>
      </trkpt>
      <trkpt lat="50.00313" lon="2.32002">
        <ele>129.1</ele>
        <time>2023-11-22T15:18:32Z</time>
      </trkpt>
      <trkpt lat="50.00313" lon="2.32001">
        <ele>129.1</ele>
        <time>2023-11-22T15:18:33Z</time>
      </trkpt>
      <trkpt lat="50.00313" lon="2.32001">
        <ele>129.1</ele>
        <time>2023-11-22T15:18:34Z</time>
      </trkpt>
      <trkpt lat="50.00313" lon="2.32">
        <ele>129.1</ele>
        <time>2023-11-22T15:18:35Z</time>
      </trkpt>
      <trkpt lat="50.00313" lon="2.32">
        <ele>129.1</ele>
        <time>2023-11-22T15:18:36Z</time>
      </trkpt>
      <trkpt lat="50.00313" lon="2.32">
        <ele>129.1</ele>
        <time>2023-11-22T15:18:37Z</time>
      </trkpt>
      <trkpt lat="50.00313" lon="2.32">
        <ele>129.1</ele>
        <time>2023-11-22T15:18:38Z</time>
      </trkpt>
      <trkpt lat="50.00313" lon="2.32001">
        <ele>129.1</ele>
        <time>2023-11-22T15:18:39Z</time>
      </trkpt>
      <trkpt lat="50.00313" lon="2.32001">
        <ele>129.1</ele>
        <time>2023-11-22T15:18:40Z</time>
      </trkpt>
      <trkpt lat="50.00313" lon="2.32001">
        <ele>129.1</ele>
        <time>2023-11-22T15:18:41Z</time>
      </trkpt>
      <trkpt lat="50.00313" lon="2.32001">
        <ele>129.1</ele>
        <time>2023-11-22T15:18:42Z</time>
      </trkpt>
      <trkpt lat="50.00313" lon="2.32001">
        <ele>129.1</ele>
        <time>2023-11-22T15:18:43Z</time>
      </trkpt>
      <trkpt lat="50.00313" lon="2.32001">
        <ele>129.1</ele>
        <time>2023-11-22T15:18:44Z</time>
      </trkpt>
      <trkpt lat="50.00313" lon="2.32001">
        <ele>129.1</ele>
        <time>2023-11-22T15:18:45Z</time>
      </trkpt>
      <trkpt lat="50.00313" lon="2.32001">
        <ele>129.1</ele>
        <time>2023-11-22T15:18:46Z</time>
      </trkpt>
      <trkpt lat="50.00313" lon="2.32001">
        <ele>129.1</ele>
        <time>2023-11-22T15:18:47Z</time>
      </trkpt>
      <trkpt lat="50.00315" lon="2.32001">
        <ele>129.1</ele>
        <time>2023-11-22T15:19:18Z</time>
      </trkpt>
      <trkpt lat="50.00314" lon="2.32">
        <ele>129.1</ele>
        <time>2023-11-22T15:19:19Z</time>
      </trkpt>
      <trkpt lat="50.00314" lon="2.32001">
        <ele>129.1</ele>
        <time>2023-11-22T15:19:20Z</time>
      </trkpt>
      <trkpt lat="50.00313" lon="2.32001">
        <ele>129.1</ele>
        <time>2023-11-22T15:19:21Z</time>
      </trkpt>
      <trkpt lat="50.00312" lon="2.32001">
        <ele>129.1</ele>
        <time>2023-11-22T15:19:22Z</time>
      </trkpt>
      <trkpt lat="50.00311" lon="2.32001">
        <ele>129.2</ele>
        <time>2023-11-22T15:19:23Z</time>
      </trkpt>
      <trkpt lat="50.0031" lon="2.32001">
        <ele>129.2</ele>
        <time>2023-11-22T15:19:24Z</time>
      </trkpt>
      <trkpt lat="50.00309" lon="2.32002">
        <ele>129.2</ele>
        <time>2023-11-22T15:19:25Z</time>
      </trkpt>
      <trkpt lat="50.00308" lon="2.32002">
        <ele>129.2</ele>
        <time>2023-11-22T15:19:26Z</time>
      </trkpt>
      <trkpt lat="50.00306" lon="2.32002">
        <ele>129.2</ele>
        <time>2023-11-22T15:19:27Z</time>
      </trkpt>
      <trkpt lat="50.00305" lon="2.32001">
        <ele>129.2</ele>
        <time>2023-11-22T15:19:28Z</time>
      </trkpt>
      <trkpt lat="50.00305" lon="2.32001">
        <ele>129.2</ele>
        <time>2023-11-22T15:19:29Z</time>
      </trkpt>
      <trkpt lat="50.00304" lon="2.32001">
        <ele>129.2</ele>
        <time>2023-11-22T15:19:30Z</time>
      </trkpt>
      <trkpt lat="50.00303" lon="2.32">
        <ele>129.2</ele>
        <time>2023-11-22T15:19:31Z</time>
      </trkpt>
      <trkpt lat="50.00302" lon="2.31999">
        <ele>129.2</ele>
        <time>2023-11-22T15:19:32Z</time>
      </trkpt>
      <trkpt lat="50.00301" lon="2.31998">
        <ele>129.2</ele>
        <time>2023-11-22T15:19:33Z</time>
      </trkpt>
      <trkpt lat="50.003" lon="2.31996">
        <ele>129.2</ele>
        <time>2023-11-22T15:19:34Z</time>
      </trkpt>
      <trkpt lat="50.00299" lon="2.31995">
        <ele>129.3</ele>
        <time>2023-11-22T15:19:35Z</time>
      </trkpt>
      <trkpt lat="50.00299" lon="2.31994">
        <ele>129.3</ele>
        <time>2023-11-22T15:19:36Z</time>
      </trkpt>
      <trkpt lat="50.00298" lon="2.31993">
        <ele>129.3</ele>
        <time>2023-11-22T15:19:37Z</time>
      </trkpt>
      <trkpt lat="50.00297" lon="2.31992">
        <ele>129.3</ele>
        <time>2023-11-22T15:19:38Z</time>
      </trkpt>
      <trkpt lat="50.00297" lon="2.31991">
        <ele>129.3</ele>
        <time>2023-11-22T15:19:39Z</time>
      </trkpt>
      <trkpt lat="50.00296" lon="2.3199">
        <ele>129.3</ele>
        <time>2023-11-22T15:19:40Z</time>
      </trkpt>
      <trkpt lat="50.00295" lon="2.31989">
        <ele>129.3</ele>
        <time>2023-11-22T15:19:41Z</time>
      </trkpt>
      <trkpt lat="50.00295" lon="2.31988">
        <ele>129.3</ele>
        <time>2023-11-22T15:19:42Z</time>
      </trkpt>
      <trkpt lat="50.00294" lon="2.31988">
        <ele>129.3</ele>
        <time>2023-11-22T15:19:43Z</time>
      </trkpt>
      <trkpt lat="50.00293" lon="2.31987">
        <ele>129.3</ele>
        <time>2023-11-22T15:19:44Z</time>
      </trkpt>
      <trkpt lat="50.00293" lon="2.31986">
        <ele>129.3</ele>
        <time>2023-11-22T15:19:45Z</time>
      </trkpt>
      <trkpt lat="50.00292" lon="2.31986">
        <ele>129.3</ele>
        <time>2023-11-22T15:19:46Z</time>
      </trkpt>
      <trkpt lat="50.00291" lon="2.31985">
        <ele>129.3</ele>
        <time>2023-11-22T15:19:47Z</time>
      </trkpt>
      <trkpt lat="50.00291" lon="2.31984">
        <ele>129.3</ele>
        <time>2023-11-22T15:19:48Z</time>
      </trkpt>
      <trkpt lat="50.0029" lon="2.31983">
        <ele>129.3</ele>
        <time>2023-11-22T15:19:49Z</time>
      </trkpt>
      <trkpt lat="50.00289" lon="2.31983">
        <ele>129.3</ele>
        <time>2023-11-22T15:19:50Z</time>
      </trkpt>
      <trkpt lat="50.00288" lon="2.31982">
        <ele>129.3</ele>
        <time>2023-11-22T15:19:51Z</time>
      </trkpt>
      <trkpt lat="50.00288" lon="2.31981">
        <ele>129.3</ele>
        <time>2023-11-22T15:19:52Z</time>
      </trkpt>
      <trkpt lat="50.00287" lon="2.31981">
        <ele>129.3</ele>
        <time>2023-11-22T15:19:53Z</time>
      </trkpt>
      <trkpt lat="50.00286" lon="2.3198">
        <ele>129.3</ele>
        <time>2023-11-22T15:19:54Z</time>
      </trkpt>
      <trkpt lat="50.00285" lon="2.31979">
        <ele>129.3</ele>
        <time>2023-11-22T15:19:55Z</time>
      </trkpt>
      <trkpt lat="50.00284" lon="2.31978">
        <ele>129.3</ele>
        <time>2023-11-22T15:19:56Z</time>
      </trkpt>
      <trkpt lat="50.00284" lon="2.31977">
        <ele>129.4</ele>
        <time>2023-11-22T15:19:57Z</time>
      </trkpt>
      <trkpt lat="50.00283" lon="2.31977">
        <ele>129.4</ele>
        <time>2023-11-22T15:19:58Z</time>
      </trkpt>
      <trkpt lat="50.00282" lon="2.31976">
        <ele>129.4</ele>
        <time>2023-11-22T15:19:59Z</time>
      </trkpt>
      <trkpt lat="50.00281" lon="2.31975">
        <ele>129.4</ele>
        <time>2023-11-22T15:20:00Z</time>
      </trkpt>
      <trkpt lat="50.0028" lon="2.31974">
        <ele>129.4</ele>
        <time>2023-11-22T15:20:01Z</time>
      </trkpt>
      <trkpt lat="50.00279" lon="2.31974">
        <ele>129.4</ele>
        <time>2023-11-22T15:20:02Z</time>
      </trkpt>
      <trkpt lat="50.00278" lon="2.31973">
        <ele>129.4</ele>
        <time>2023-11-22T15:20:03Z</time>
      </trkpt>
      <trkpt lat="50.00277" lon="2.31972">
        <ele>129.4</ele>
        <time>2023-11-22T15:20:04Z</time>
      </trkpt>
      <trkpt lat="50.00276" lon="2.31971">
        <ele>129.4</ele>
        <time>2023-11-22T15:20:05Z</time>
      </trkpt>
      <trkpt lat="50.00275" lon="2.31971">
        <ele>129.4</ele>
        <time>2023-11-22T15:20:06Z</time>
      </trkpt>
      <trkpt lat="50.00275" lon="2.3197">
        <ele>129.4</ele>
        <time>2023-11-22T15:20:07Z</time>
      </trkpt>
      <trkpt lat="50.00274" lon="2.31969">
        <ele>129.4</ele>
        <time>2023-11-22T15:20:08Z</time>
      </trkpt>
      <trkpt lat="50.00273" lon="2.31968">
        <ele>129.4</ele>
        <time>2023-11-22T15:20:09Z</time>
      </trkpt>
      <trkpt lat="50.00272" lon="2.31968">
        <ele>129.4</ele>
        <time>2023-11-22T15:20:10Z</time>
      </trkpt>
      <trkpt lat="50.00271" lon="2.31967">
        <ele>129.4</ele>
        <time>2023-11-22T15:20:11Z</time>
      </trkpt>
      <trkpt lat="50.00269" lon="2.31966">
        <ele>129.4</ele>
        <time>2023-11-22T15:20:12Z</time>
      </trkpt>
      <trkpt lat="50.00268" lon="2.31965">
        <ele>129.4</ele>
        <time>2023-11-22T15:20:13Z</time>
      </trkpt>
      <trkpt lat="50.00267" lon="2.31965">
        <ele>129.4</ele>
        <time>2023-11-22T15:20:14Z</time>
      </trkpt>
      <trkpt lat="50.00266" lon="2.31964">
        <ele>129.5</ele>
        <time>2023-11-22T15:20:15Z</time>
      </trkpt>
      <trkpt lat="50.00265" lon="2.31964">
        <ele>129.5</ele>
        <time>2023-11-22T15:20:16Z</time>
      </trkpt>
      <trkpt lat="50.00264" lon="2.31963">
        <ele>129.5</ele>
        <time>2023-11-22T15:20:17Z</time>
      </trkpt>
      <trkpt lat="50.00263" lon="2.31963">
        <ele>129.5</ele>
        <time>2023-11-22T15:20:18Z</time>
      </trkpt>
      <trkpt lat="50.00262" lon="2.31962">
        <ele>129.5</ele>
        <time>2023-11-22T15:20:19Z</time>
      </trkpt>
      <trkpt lat="50.00261" lon="2.31962">
        <ele>129.5</ele>
        <time>2023-11-22T15:20:20Z</time>
      </trkpt>
      <trkpt lat="50.0026" lon="2.31961">
        <ele>129.5</ele>
        <time>2023-11-22T15:20:21Z</time>
      </trkpt>
      <trkpt lat="50.00259" lon="2.31961">
        <ele>129.5</ele>
        <time>2023-11-22T15:20:22Z</time>
      </trkpt>
      <trkpt lat="50.00258" lon="2.31961">
        <ele>129.5</ele>
        <time>2023-11-22T15:20:23Z</time>
      </trkpt>
      <trkpt lat="50.00257" lon="2.31961">
        <ele>129.5</ele>
        <time>2023-11-22T15:20:24Z</time>
      </trkpt>
      <trkpt lat="50.00256" lon="2.3196">
        <ele>129.5</ele>
        <time>2023-11-22T15:20:25Z</time>
      </trkpt>
      <trkpt lat="50.00256" lon="2.3196">
        <ele>129.5</ele>
        <time>2023-11-22T15:20:26Z</time>
      </trkpt>
      <trkpt lat="50.00255" lon="2.3196">
        <ele>129.5</ele>
        <time>2023-11-22T15:20:27Z</time>
      </trkpt>
      <trkpt lat="50.00254" lon="2.3196">
        <ele>129.5</ele>
        <time>2023-11-22T15:20:28Z</time>
      </trkpt>
      <trkpt lat="50.00254" lon="2.3196">
        <ele>129.5</ele>
        <time>2023-11-22T15:20:29Z</time>
      </trkpt>
      <trkpt lat="50.00253" lon="2.3196">
        <ele>129.5</ele>
        <time>2023-11-22T15:20:30Z</time>
      </trkpt>
      <trkpt lat="50.00252" lon="2.31959">
        <ele>129.5</ele>
        <time>2023-11-22T15:20:31Z</time>
      </trkpt>
      <trkpt lat="50.00252" lon="2.31959">
        <ele>129.5</ele>
        <time>2023-11-22T15:20:32Z</time>
      </trkpt>
      <trkpt lat="50.00251" lon="2.31959">
        <ele>129.5</ele>
        <time>2023-11-22T15:20:33Z</time>
      </trkpt>
      <trkpt lat="50.0025" lon="2.31959">
        <ele>129.5</ele>
        <time>2023-11-22T15:20:34Z</time>
      </trkpt>
      <trkpt lat="50.00249" lon="2.31959">
        <ele>129.5</ele>
        <time>2023-11-22T15:20:35Z</time>
      </trkpt>
      <trkpt lat="50.00248" lon="2.31959">
        <ele>129.5</ele>
        <time>2023-11-22T15:20:36Z</time>
      </trkpt>
      <trkpt lat="50.00248" lon="2.31958">
        <ele>129.5</ele>
        <time>2023-11-22T15:20:37Z</time>
      </trkpt>
      <trkpt lat="50.00247" lon="2.31958">
        <ele>129.6</ele>
        <time>2023-11-22T15:20:38Z</time>
      </trkpt>
      <trkpt lat="50.00246" lon="2.31958">
        <ele>129.6</ele>
        <time>2023-11-22T15:20:39Z</time>
      </trkpt>
      <trkpt lat="50.00245" lon="2.31958">
        <ele>129.6</ele>
        <time>2023-11-22T15:20:40Z</time>
      </trkpt>
      <trkpt lat="50.00244" lon="2.31958">
        <ele>129.6</ele>
        <time>2023-11-22T15:20:41Z</time>
      </trkpt>
      <trkpt lat="50.00243" lon="2.31958">
        <ele>129.6</ele>
        <time>2023-11-22T15:20:42Z</time>
      </trkpt>
      <trkpt lat="50.00243" lon="2.31958">
        <ele>129.6</ele>
        <time>2023-11-22T15:20:43Z</time>
      </trkpt>
      <trkpt lat="50.00242" lon="2.31958">
        <ele>129.6</ele>
        <time>2023-11-22T15:20:44Z</time>
      </trkpt>
      <trkpt lat="50.00241" lon="2.31957">
        <ele>129.6</ele>
        <time>2023-11-22T15:20:45Z</time>
      </trkpt>
      <trkpt lat="50.0024" lon="2.31957">
        <ele>129.6</ele>
        <time>2023-11-22T15:20:46Z</time>
      </trkpt>
      <trkpt lat="50.00239" lon="2.31957">
        <ele>129.6</ele>
        <time>2023-11-22T15:20:47Z</time>
      </trkpt>
      <trkpt lat="50.00238" lon="2.31957">
        <ele>129.6</ele>
        <time>2023-11-22T15:20:48Z</time>
      </trkpt>
      <trkpt lat="50.00237" lon="2.31957">
        <ele>129.6</ele>
        <time>2023-11-22T15:20:49Z</time>
      </trkpt>
      <trkpt lat="50.00236" lon="2.31957">
        <ele>129.6</ele>
        <time>2023-11-22T15:20:50Z</time>
      </trkpt>
      <trkpt lat="50.00236" lon="2.31957">
        <ele>129.6</ele>
        <time>2023-11-22T15:20:51Z</time>
      </trkpt>
      <trkpt lat="50.00235" lon="2.31957">
        <ele>129.6</ele>
        <time>2023-11-22T15:20:52Z</time>
      </trkpt>
      <trkpt lat="50.00233" lon="2.31957">
        <ele>129.6</ele>
        <time>2023-11-22T15:20:53Z</time>
      </trkpt>
      <trkpt lat="50.00232" lon="2.31957">
        <ele>129.6</ele>
        <time>2023-11-22T15:20:54Z</time>
      </trkpt>
      <trkpt lat="50.00231" lon="2.31957">
        <ele>129.6</ele>
        <time>2023-11-22T15:20:55Z</time>
      </trkpt>
      <trkpt lat="50.0023" lon="2.31957">
        <ele>129.6</ele>
        <time>2023-11-22T15:20:56Z</time>
      </trkpt>
      <trkpt lat="50.00229" lon="2.31957">
        <ele>129.6</ele>
        <time>2023-11-22T15:20:57Z</time>
      </trkpt>
      <trkpt lat="50.00228" lon="2.31957">
        <ele>129.6</ele>
        <time>2023-11-22T15:20:58Z</time>
      </trkpt>
      <trkpt lat="50.00228" lon="2.31956">
        <ele>129.7</ele>
        <time>2023-11-22T15:20:59Z</time>
      </trkpt>
      <trkpt lat="50.00227" lon="2.31956">
        <ele>129.7</ele>
        <time>2023-11-22T15:21:00Z</time>
      </trkpt>
      <trkpt lat="50.00226" lon="2.31956">
        <ele>129.7</ele>
        <time>2023-11-22T15:21:01Z</time>
      </trkpt>
      <trkpt lat="50.00225" lon="2.31956">
        <ele>129.7</ele>
        <time>2023-11-22T15:21:02Z</time>
      </trkpt>
      <trkpt lat="50.00224" lon="2.31955">
        <ele>129.7</ele>
        <time>2023-11-22T15:21:03Z</time>
      </trkpt>
      <trkpt lat="50.00223" lon="2.31955">
        <ele>129.7</ele>
        <time>2023-11-22T15:21:04Z</time>
      </trkpt>
      <trkpt lat="50.00222" lon="2.31955">
        <ele>129.7</ele>
        <time>2023-11-22T15:21:05Z</time>
      </trkpt>
      <trkpt lat="50.00221" lon="2.31955">
        <ele>129.7</ele>
        <time>2023-11-22T15:21:06Z</time>
      </trkpt>
      <trkpt lat="50.0022" lon="2.31955">
        <ele>129.7</ele>
        <time>2023-11-22T15:21:07Z</time>
      </trkpt>
      <trkpt lat="50.00218" lon="2.31955">
        <ele>129.7</ele>
        <time>2023-11-22T15:21:08Z</time>
      </trkpt>
      <trkpt lat="50.00217" lon="2.31955">
        <ele>129.7</ele>
        <time>2023-11-22T15:21:09Z</time>
      </trkpt>
      <trkpt lat="50.00214" lon="2.31955">
        <ele>129.7</ele>
        <time>2023-11-22T15:21:11Z</time>
      </trkpt>
      <trkpt lat="50.00213" lon="2.31955">
        <ele>129.7</ele>
        <time>2023-11-22T15:21:12Z</time>
      </trkpt>
      <trkpt lat="50.00211" lon="2.31956">
        <ele>129.7</ele>
        <time>2023-11-22T15:21:13Z</time>
      </trkpt>
      <trkpt lat="50.0021" lon="2.31956">
        <ele>129.7</ele>
        <time>2023-11-22T15:21:14Z</time>
      </trkpt>
      <trkpt lat="50.00209" lon="2.31956">
        <ele>129.7</ele>
        <time>2023-11-22T15:21:15Z</time>
      </trkpt>
      <trkpt lat="50.00207" lon="2.31957">
        <ele>129.7</ele>
        <time>2023-11-22T15:21:16Z</time>
      </trkpt>
      <trkpt lat="50.00206" lon="2.31957">
        <ele>129.7</ele>
        <time>2023-11-22T15:21:17Z</time>
      </trkpt>
      <trkpt lat="50.00206" lon="2.31957">
        <ele>129.7</ele>
        <time>2023-11-22T15:21:18Z</time>
      </trkpt>
      <trkpt lat="50.00204" lon="2.31957">
        <ele>129.7</ele>
        <time>2023-11-22T15:21:19Z</time>
      </trkpt>
      <trkpt lat="50.00203" lon="2.31958">
        <ele>129.8</ele>
        <time>2023-11-22T15:21:20Z</time>
      </trkpt>
      <trkpt lat="50.00202" lon="2.31958">
        <ele>129.8</ele>
        <time>2023-11-22T15:21:21Z</time>
      </trkpt>
      <trkpt lat="50.00201" lon="2.31958">
        <ele>129.8</ele>
        <time>2023-11-22T15:21:22Z</time>
      </trkpt>
      <trkpt lat="50.002" lon="2.31959">
        <ele>129.8</ele>
        <time>2023-11-22T15:21:23Z</time>
      </trkpt>
      <trkpt lat="50.00199" lon="2.31959">
        <ele>129.8</ele>
        <time>2023-11-22T15:21:24Z</time>
      </trkpt>
      <trkpt lat="50.00198" lon="2.31959">
        <ele>129.8</ele>
        <time>2023-11-22T15:21:25Z</time>
      </trkpt>
      <trkpt lat="50.00197" lon="2.3196">
        <ele>129.8</ele>
        <time>2023-11-22T15:21:26Z</time>
      </trkpt>
      <trkpt lat="50.00196" lon="2.3196">
        <ele>129.8</ele>
        <time>2023-11-22T15:21:27Z</time>
      </trkpt>
      <trkpt lat="50.00195" lon="2.3196">
        <ele>129.8</ele>
        <time>2023-11-22T15:21:28Z</time>
      </trkpt>
      <trkpt lat="50.00193" lon="2.31961">
        <ele>129.8</ele>
        <time>2023-11-22T15:21:29Z</time>
      </trkpt>
      <trkpt lat="50.00192" lon="2.31961">
        <ele>129.8</ele>
        <time>2023-11-22T15:21:30Z</time>
      </trkpt>
      <trkpt lat="50.00191" lon="2.31961">
        <ele>129.8</ele>
        <time>2023-11-22T15:21:31Z</time>
      </trkpt>
      <trkpt lat="50.0019" lon="2.31961">
        <ele>129.8</ele>
        <time>2023-11-22T15:21:32Z</time>
      </trkpt>
      <trkpt lat="50.00189" lon="2.31962">
        <ele>129.8</ele>
        <time>2023-11-22T15:21:33Z</time>
      </trkpt>
      <trkpt lat="50.00188" lon="2.31962">
        <ele>129.8</ele>
        <time>2023-11-22T15:21:34Z</time>
      </trkpt>
      <trkpt lat="50.00187" lon="2.31962">
        <ele>129.8</ele>
        <time>2023-11-22T15:21:35Z</time>
      </trkpt>
      <trkpt lat="50.00186" lon="2.31962">
        <ele>129.8</ele>
        <time>2023-11-22T15:21:36Z</time>
      </trkpt>
      <trkpt lat="50.00185" lon="2.31961">
        <ele>129.8</ele>
        <time>2023-11-22T15:21:37Z</time>
      </trkpt>
      <trkpt lat="50.00184" lon="2.31961">
        <ele>129.8</ele>
        <time>2023-11-22T15:21:38Z</time>
      </trkpt>
      <trkpt lat="50.00183" lon="2.31961">
        <ele>129.8</ele>
        <time>2023-11-22T15:21:39Z</time>
      </trkpt>
      <trkpt lat="50.00183" lon="2.3196">
        <ele>129.8</ele>
        <time>2023-11-22T15:21:40Z</time>
      </trkpt>
      <trkpt lat="50.00182" lon="2.3196">
        <ele>129.8</ele>
        <time>2023-11-22T15:21:41Z</time>
      </trkpt>
      <trkpt lat="50.00181" lon="2.3196">
        <ele>129.8</ele>
        <time>2023-11-22T15:21:42Z</time>
      </trkpt>
      <trkpt lat="50.0018" lon="2.31959">
        <ele>129.8</ele>
        <time>2023-11-22T15:21:43Z</time>
      </trkpt>
      <trkpt lat="50.00179" lon="2.31959">
        <ele>129.8</ele>
        <time>2023-11-22T15:21:44Z</time>
      </trkpt>
      <trkpt lat="50.00178" lon="2.31958">
        <ele>129.8</ele>
        <time>2023-11-22T15:21:45Z</time>
      </trkpt>
      <trkpt lat="50.00177" lon="2.31958">
        <ele>129.8</ele>
        <time>2023-11-22T15:21:46Z</time>
      </trkpt>
      <trkpt lat="50.00176" lon="2.31957">
        <ele>129.8</ele>
        <time>2023-11-22T15:21:47Z</time>
      </trkpt>
      <trkpt lat="50.00175" lon="2.31957">
        <ele>129.8</ele>
        <time>2023-11-22T15:21:48Z</time>
      </trkpt>
      <trkpt lat="50.00174" lon="2.31956">
        <ele>129.9</ele>
        <time>2023-11-22T15:21:49Z</time>
      </trkpt>
      <trkpt lat="50.00173" lon="2.31956">
        <ele>129.9</ele>
        <time>2023-11-22T15:21:50Z</time>
      </trkpt>
      <trkpt lat="50.00172" lon="2.31956">
        <ele>129.9</ele>
        <time>2023-11-22T15:21:51Z</time>
      </trkpt>
      <trkpt lat="50.00171" lon="2.31956">
        <ele>129.9</ele>
        <time>2023-11-22T15:21:52Z</time>
      </trkpt>
      <trkpt lat="50.0017" lon="2.31955">
        <ele>129.9</ele>
        <time>2023-11-22T15:21:53Z</time>
      </trkpt>
      <trkpt lat="50.00169" lon="2.31955">
        <ele>129.9</ele>
        <time>2023-11-22T15:21:54Z</time>
      </trkpt>
      <trkpt lat="50.00168" lon="2.31955">
        <ele>129.9</ele>
        <time>2023-11-22T15:21:55Z</time>
      </trkpt>
      <trkpt lat="50.00167" lon="2.31954">
        <ele>129.9</ele>
        <time>2023-11-22T15:21:56Z</time>
      </trkpt>
      <trkpt lat="50.00166" lon="2.31954">
        <ele>129.9</ele>
        <time>2023-11-22T15:21:57Z</time>
      </trkpt>
      <trkpt lat="50.00165" lon="2.31953">
        <ele>129.9</ele>
        <time>2023-11-22T15:21:58Z</time>
      </trkpt>
      <trkpt lat="50.00164" lon="2.31953">
        <ele>129.9</ele>
        <time>2023-11-22T15:21:59Z</time>
      </trkpt>
      <trkpt lat="50.00163" lon="2.31953">
        <ele>129.9</ele>
        <time>2023-11-22T15:22:00Z</time>
      </trkpt>
      <trkpt lat="50.00162" lon="2.31953">
        <ele>129.9</ele>
        <time>2023-11-22T15:22:01Z</time>
      </trkpt>
      <trkpt lat="50.00161" lon="2.31952">
        <ele>129.9</ele>
        <time>2023-11-22T15:22:02Z</time>
      </trkpt>
      <trkpt lat="50.0016" lon="2.31952">
        <ele>129.9</ele>
        <time>2023-11-22T15:22:03Z</time>
      </trkpt>
      <trkpt lat="50.00159" lon="2.31951">
        <ele>129.9</ele>
        <time>2023-11-22T15:22:04Z</time>
      </trkpt>
      <trkpt lat="50.00158" lon="2.31951">
        <ele>129.9</ele>
        <time>2023-11-22T15:22:05Z</time>
      </trkpt>
      <trkpt lat="50.00157" lon="2.31951">
        <ele>129.9</ele>
        <time>2023-11-22T15:22:06Z</time>
      </trkpt>
      <trkpt lat="50.00155" lon="2.31951">
        <ele>129.9</ele>
        <time>2023-11-22T15:22:07Z</time>
      </trkpt>
      <trkpt lat="50.00154" lon="2.3195">
        <ele>129.9</ele>
        <time>2023-11-22T15:22:08Z</time>
      </trkpt>
      <trkpt lat="50.00153" lon="2.3195">
        <ele>129.9</ele>
        <time>2023-11-22T15:22:09Z</time>
      </trkpt>
      <trkpt lat="50.00152" lon="2.3195">
        <ele>129.9</ele>
        <time>2023-11-22T15:22:10Z</time>
      </trkpt>
      <trkpt lat="50.00151" lon="2.3195">
        <ele>129.9</ele>
        <time>2023-11-22T15:22:11Z</time>
      </trkpt>
      <trkpt lat="50.0015" lon="2.3195">
        <ele>129.9</ele>
        <time>2023-11-22T15:22:12Z</time>
      </trkpt>
      <trkpt lat="50.00149" lon="2.3195">
        <ele>129.9</ele>
        <time>2023-11-22T15:22:13Z</time>
      </trkpt>
      <trkpt lat="50.00148" lon="2.31949">
        <ele>129.9</ele>
        <time>2023-11-22T15:22:14Z</time>
      </trkpt>
      <trkpt lat="50.00146" lon="2.31949">
        <ele>129.9</ele>
        <time>2023-11-22T15:22:15Z</time>
      </trkpt>
      <trkpt lat="50.00145" lon="2.31949">
        <ele>129.9</ele>
        <time>2023-11-22T15:22:16Z</time>
      </trkpt>
      <trkpt lat="50.00144" lon="2.31949">
        <ele>129.9</ele>
        <time>2023-11-22T15:22:17Z</time>
      </trkpt>
      <trkpt lat="50.00143" lon="2.31949">
        <ele>129.9</ele>
        <time>2023-11-22T15:22:18Z</time>
      </trkpt>
      <trkpt lat="50.00142" lon="2.31949">
        <ele>129.9</ele>
        <time>2023-11-22T15:22:19Z</time>
      </trkpt>
      <trkpt lat="50.00141" lon="2.31949">
        <ele>129.9</ele>
        <time>2023-11-22T15:22:20Z</time>
      </trkpt>
      <trkpt lat="50.0014" lon="2.31949">
        <ele>129.9</ele>
        <time>2023-11-22T15:22:21Z</time>
      </trkpt>
      <trkpt lat="50.00139" lon="2.31949">
        <ele>129.9</ele>
        <time>2023-11-22T15:22:22Z</time>
      </trkpt>
      <trkpt lat="50.00138" lon="2.31949">
        <ele>129.9</ele>
        <time>2023-11-22T15:22:23Z</time>
      </trkpt>
      <trkpt lat="50.00137" lon="2.31948">
        <ele>129.9</ele>
        <time>2023-11-22T15:22:24Z</time>
      </trkpt>
      <trkpt lat="50.00136" lon="2.31948">
        <ele>129.9</ele>
        <time>2023-11-22T15:22:25Z</time>
      </trkpt>
      <trkpt lat="50.00135" lon="2.31948">
        <ele>129.9</ele>
        <time>2023-11-22T15:22:26Z</time>
      </trkpt>
      <trkpt lat="50.00134" lon="2.31948">
        <ele>129.9</ele>
        <time>2023-11-22T15:22:27Z</time>
      </trkpt>
      <trkpt lat="50.00133" lon="2.31949">
        <ele>129.9</ele>
        <time>2023-11-22T15:22:28Z</time>
      </trkpt>
      <trkpt lat="50.00132" lon="2.31948">
        <ele>129.9</ele>
        <time>2023-11-22T15:22:29Z</time>
      </trkpt>
      <trkpt lat="50.00131" lon="2.31948">
        <ele>129.9</ele>
        <time>2023-11-22T15:22:30Z</time>
      </trkpt>
      <trkpt lat="50.0013" lon="2.31948">
        <ele>129.9</ele>
        <time>2023-11-22T15:22:31Z</time>
      </trkpt>
      <trkpt lat="50.00129" lon="2.31948">
        <ele>129.9</ele>
        <time>2023-11-22T15:22:32Z</time>
      </trkpt>
      <trkpt lat="50.00128" lon="2.31948">
        <ele>129.9</ele>
        <time>2023-11-22T15:22:33Z</time>
      </trkpt>
      <trkpt lat="50.00126" lon="2.31948">
        <ele>129.9</ele>
        <time>2023-11-22T15:22:34Z</time>
      </trkpt>
      <trkpt lat="50.00125" lon="2.31948">
        <ele>129.9</ele>
        <time>2023-11-22T15:22:35Z</time>
      </trkpt>
      <trkpt lat="50.00124" lon="2.31948">
        <ele>129.9</ele>
        <time>2023-11-22T15:22:36Z</time>
      </trkpt>
      <trkpt lat="50.00124" lon="2.31947">
        <ele>129.9</ele>
        <time>2023-11-22T15:22:37Z</time>
      </trkpt>
      <trkpt lat="50.00123" lon="2.31947">
        <ele>129.9</ele>
        <time>2023-11-22T15:22:38Z</time>
      </trkpt>
      <trkpt lat="50.00122" lon="2.31947">
        <ele>129.9</ele>
        <time>2023-11-22T15:22:39Z</time>
      </trkpt>
      <trkpt lat="50.00121" lon="2.31947">
        <ele>129.9</ele>
        <time>2023-11-22T15:22:40Z</time>
      </trkpt>
      <trkpt lat="50.0012" lon="2.31947">
        <ele>129.9</ele>
        <time>2023-11-22T15:22:41Z</time>
      </trkpt>
      <trkpt lat="50.00118" lon="2.31947">
        <ele>129.9</ele>
        <time>2023-11-22T15:22:42Z</time>
      </trkpt>
      <trkpt lat="50.00117" lon="2.31947">
        <ele>130</ele>
        <time>2023-11-22T15:22:43Z</time>
      </trkpt>
      <trkpt lat="50.00115" lon="2.31946">
        <ele>130</ele>
        <time>2023-11-22T15:22:44Z</time>
      </trkpt>
      <trkpt lat="50.00114" lon="2.31946">
        <ele>130</ele>
        <time>2023-11-22T15:22:45Z</time>
      </trkpt>
      <trkpt lat="50.00114" lon="2.31946">
        <ele>130</ele>
        <time>2023-11-22T15:22:46Z</time>
      </trkpt>
      <trkpt lat="50.00113" lon="2.31945">
        <ele>130</ele>
        <time>2023-11-22T15:22:47Z</time>
      </trkpt>
      <trkpt lat="50.00112" lon="2.31945">
        <ele>130</ele>
        <time>2023-11-22T15:22:48Z</time>
      </trkpt>
      <trkpt lat="50.00111" lon="2.31945">
        <ele>130</ele>
        <time>2023-11-22T15:22:49Z</time>
      </trkpt>
      <trkpt lat="50.0011" lon="2.31945">
        <ele>130</ele>
        <time>2023-11-22T15:22:50Z</time>
      </trkpt>
      <trkpt lat="50.00109" lon="2.31944">
        <ele>130</ele>
        <time>2023-11-22T15:22:51Z</time>
      </trkpt>
      <trkpt lat="50.00108" lon="2.31944">
        <ele>130</ele>
        <time>2023-11-22T15:22:52Z</time>
      </trkpt>
      <trkpt lat="50.00106" lon="2.31944">
        <ele>130</ele>
        <time>2023-11-22T15:22:53Z</time>
      </trkpt>
      <trkpt lat="50.00105" lon="2.31944">
        <ele>130</ele>
        <time>2023-11-22T15:22:54Z</time>
      </trkpt>
      <trkpt lat="50.00104" lon="2.31944">
        <ele>130</ele>
        <time>2023-11-22T15:22:55Z</time>
      </trkpt>
      <trkpt lat="50.00103" lon="2.31944">
        <ele>130</ele>
        <time>2023-11-22T15:22:56Z</time>
      </trkpt>
      <trkpt lat="50.00103" lon="2.31944">
        <ele>130</ele>
        <time>2023-11-22T15:22:57Z</time>
      </trkpt>
      <trkpt lat="50.00102" lon="2.31943">
        <ele>130</ele>
        <time>2023-11-22T15:22:58Z</time>
      </trkpt>
      <trkpt lat="50.00101" lon="2.31943">
        <ele>130</ele>
        <time>2023-11-22T15:22:59Z</time>
      </trkpt>
      <trkpt lat="50.001" lon="2.31943">
        <ele>130</ele>
        <time>2023-11-22T15:23:00Z</time>
      </trkpt>
      <trkpt lat="50.00098" lon="2.31943">
        <ele>130</ele>
        <time>2023-11-22T15:23:01Z</time>
      </trkpt>
      <trkpt lat="50.00097" lon="2.31943">
        <ele>130</ele>
        <time>2023-11-22T15:23:02Z</time>
      </trkpt>
      <trkpt lat="50.00096" lon="2.31942">
        <ele>130</ele>
        <time>2023-11-22T15:23:03Z</time>
      </trkpt>
      <trkpt lat="50.00095" lon="2.31942">
        <ele>130</ele>
        <time>2023-11-22T15:23:04Z</time>
      </trkpt>
      <trkpt lat="50.00094" lon="2.31942">
        <ele>130</ele>
        <time>2023-11-22T15:23:05Z</time>
      </trkpt>
      <trkpt lat="50.00093" lon="2.31942">
        <ele>130</ele>
        <time>2023-11-22T15:23:06Z</time>
      </trkpt>
      <trkpt lat="50.00092" lon="2.31941">
        <ele>130</ele>
        <time>2023-11-22T15:23:07Z</time>
      </trkpt>
      <trkpt lat="50.00091" lon="2.31941">
        <ele>130</ele>
        <time>2023-11-22T15:23:08Z</time>
      </trkpt>
      <trkpt lat="50.0009" lon="2.31941">
        <ele>130</ele>
        <time>2023-11-22T15:23:09Z</time>
      </trkpt>
      <trkpt lat="50.00089" lon="2.31941">
        <ele>130</ele>
        <time>2023-11-22T15:23:10Z</time>
      </trkpt>
      <trkpt lat="50.00088" lon="2.3194">
        <ele>130</ele>
        <time>2023-11-22T15:23:11Z</time>
      </trkpt>
      <trkpt lat="50.00087" lon="2.3194">
        <ele>130</ele>
        <time>2023-11-22T15:23:12Z</time>
      </trkpt>
      <trkpt lat="50.00086" lon="2.3194">
        <ele>130</ele>
        <time>2023-11-22T15:23:13Z</time>
      </trkpt>
      <trkpt lat="50.00085" lon="2.31939">
        <ele>130</ele>
        <time>2023-11-22T15:23:14Z</time>
      </trkpt>
      <trkpt lat="50.00084" lon="2.31939">
        <ele>130</ele>
        <time>2023-11-22T15:23:15Z</time>
      </trkpt>
      <trkpt lat="50.00083" lon="2.31939">
        <ele>130</ele>
        <time>2023-11-22T15:23:16Z</time>
      </trkpt>
      <trkpt lat="50.00082" lon="2.31939">
        <ele>130</ele>
        <time>2023-11-22T15:23:17Z</time>
      </trkpt>
      <trkpt lat="50.00081" lon="2.31938">
        <ele>130</ele>
        <time>2023-11-22T15:23:18Z</time>
      </trkpt>
      <trkpt lat="50.0008" lon="2.31938">
        <ele>130</ele>
        <time>2023-11-22T15:23:19Z</time>
      </trkpt>
      <trkpt lat="50.00079" lon="2.31938">
        <ele>130</ele>
        <time>2023-11-22T15:23:20Z</time>
      </trkpt>
      <trkpt lat="50.00078" lon="2.31937">
        <ele>130.1</ele>
        <time>2023-11-22T15:23:21Z</time>
      </trkpt>
      <trkpt lat="50.00077" lon="2.31937">
        <ele>130.1</ele>
        <time>2023-11-22T15:23:22Z</time>
      </trkpt>
      <trkpt lat="50.00077" lon="2.31937">
        <ele>130.1</ele>
        <time>2023-11-22T15:23:23Z</time>
      </trkpt>
      <trkpt lat="50.00076" lon="2.31937">
        <ele>130.1</ele>
        <time>2023-11-22T15:23:24Z</time>
      </trkpt>
      <trkpt lat="50.00074" lon="2.31937">
        <ele>130.1</ele>
        <time>2023-11-22T15:23:26Z</time>
      </trkpt>
      <trkpt lat="50.00073" lon="2.31937">
        <ele>130.1</ele>
        <time>2023-11-22T15:23:27Z</time>
      </trkpt>
      <trkpt lat="50.00072" lon="2.31937">
        <ele>130.1</ele>
        <time>2023-11-22T15:23:28Z</time>
      </trkpt>
      <trkpt lat="50.00071" lon="2.31937">
        <ele>130.1</ele>
        <time>2023-11-22T15:23:29Z</time>
      </trkpt>
      <trkpt lat="50.0007" lon="2.31937">
        <ele>130.1</ele>
        <time>2023-11-22T15:23:30Z</time>
      </trkpt>
      <trkpt lat="50.00069" lon="2.31937">
        <ele>130.1</ele>
        <time>2023-11-22T15:23:31Z</time>
      </trkpt>
      <trkpt lat="50.00069" lon="2.31937">
        <ele>130.1</ele>
        <time>2023-11-22T15:23:32Z</time>
      </trkpt>
      <trkpt lat="50.00068" lon="2.31937">
        <ele>130.1</ele>
        <time>2023-11-22T15:23:33Z</time>
      </trkpt>
      <trkpt lat="50.00067" lon="2.31937">
        <ele>130.1</ele>
        <time>2023-11-22T15:23:34Z</time>
      </trkpt>
      <trkpt lat="50.00066" lon="2.31937">
        <ele>130.1</ele>
        <time>2023-11-22T15:23:35Z</time>
      </trkpt>
      <trkpt lat="50.00065" lon="2.31937">
        <ele>130.1</ele>
        <time>2023-11-22T15:23:36Z</time>
      </trkpt>
      <trkpt lat="50.00064" lon="2.31936">
        <ele>130.1</ele>
        <time>2023-11-22T15:23:37Z</time>
      </trkpt>
      <trkpt lat="50.00063" lon="2.31936">
        <ele>130.1</ele>
        <time>2023-11-22T15:23:38Z</time>
      </trkpt>
      <trkpt lat="50.00062" lon="2.31936">
        <ele>130.1</ele>
        <time>2023-11-22T15:23:39Z</time>
      </trkpt>
      <trkpt lat="50.00061" lon="2.31935">
        <ele>130.1</ele>
        <time>2023-11-22T15:23:40Z</time>
      </trkpt>
      <trkpt lat="50.0006" lon="2.31935">
        <ele>130.1</ele>
        <time>2023-11-22T15:23:41Z</time>
      </trkpt>
      <trkpt lat="50.00059" lon="2.31934">
        <ele>130.1</ele>
        <time>2023-11-22T15:23:42Z</time>
      </trkpt>
      <trkpt lat="50.00056" lon="2.31933">
        <ele>130.1</ele>
        <time>2023-11-22T15:23:43Z</time>
      </trkpt>
      <trkpt lat="50.00056" lon="2.31933">
        <ele>130.1</ele>
        <time>2023-11-22T15:23:44Z</time>
      </trkpt>
      <trkpt lat="50.00055" lon="2.31932">
        <ele>130.1</ele>
        <time>2023-11-22T15:23:45Z</time>
      </trkpt>
      <trkpt lat="50.00054" lon="2.31932">
        <ele>130.1</ele>
        <time>2023-11-22T15:23:46Z</time>
      </trkpt>
      <trkpt lat="50.00052" lon="2.31931">
        <ele>130.2</ele>
        <time>2023-11-22T15:23:47Z</time>
      </trkpt>
      <trkpt lat="50.00051" lon="2.3193">
        <ele>130.2</ele>
        <time>2023-11-22T15:23:48Z</time>
      </trkpt>
      <trkpt lat="50.0005" lon="2.3193">
        <ele>130.2</ele>
        <time>2023-11-22T15:23:49Z</time>
      </trkpt>
      <trkpt lat="50.00049" lon="2.31929">
        <ele>130.2</ele>
        <time>2023-11-22T15:23:50Z</time>
      </trkpt>
      <trkpt lat="50.00048" lon="2.31929">
        <ele>130.2</ele>
        <time>2023-11-22T15:23:51Z</time>
      </trkpt>
      <trkpt lat="50.00047" lon="2.31929">
        <ele>130.2</ele>
        <time>2023-11-22T15:23:52Z</time>
      </trkpt>
      <trkpt lat="50.00046" lon="2.31928">
        <ele>130.2</ele>
        <time>2023-11-22T15:23:53Z</time>
      </trkpt>
      <trkpt lat="50.00045" lon="2.31928">
        <ele>130.2</ele>
        <time>2023-11-22T15:23:54Z</time>
      </trkpt>
      <trkpt lat="50.00044" lon="2.31928">
        <ele>130.2</ele>
        <time>2023-11-22T15:23:55Z</time>
      </trkpt>
      <trkpt lat="50.00043" lon="2.31927">
        <ele>130.2</ele>
        <time>2023-11-22T15:23:56Z</time>
      </trkpt>
      <trkpt lat="50.00042" lon="2.31927">
        <ele>130.2</ele>
        <time>2023-11-22T15:23:57Z</time>
      </trkpt>
      <trkpt lat="50.00041" lon="2.31927">
        <ele>130.2</ele>
        <time>2023-11-22T15:23:58Z</time>
      </trkpt>
      <trkpt lat="50.0004" lon="2.31927">
        <ele>130.2</ele>
        <time>2023-11-22T15:23:59Z</time>
      </trkpt>
      <trkpt lat="50.00039" lon="2.31927">
        <ele>130.2</ele>
        <time>2023-11-22T15:24:00Z</time>
      </trkpt>
      <trkpt lat="50.00038" lon="2.31927">
        <ele>130.2</ele>
        <time>2023-11-22T15:24:01Z</time>
      </trkpt>
      <trkpt lat="50.00037" lon="2.31927">
        <ele>130.2</ele>
        <time>2023-11-22T15:24:02Z</time>
      </trkpt>
      <trkpt lat="50.00036" lon="2.31927">
        <ele>130.2</ele>
        <time>2023-11-22T15:24:03Z</time>
      </trkpt>
      <trkpt lat="50.00035" lon="2.31927">
        <ele>130.2</ele>
        <time>2023-11-22T15:24:04Z</time>
      </trkpt>
      <trkpt lat="50.00034" lon="2.31927">
        <ele>130.2</ele>
        <time>2023-11-22T15:24:05Z</time>
      </trkpt>
      <trkpt lat="50.00033" lon="2.31927">
        <ele>130.2</ele>
        <time>2023-11-22T15:24:06Z</time>
      </trkpt>
      <trkpt lat="50.00032" lon="2.31927">
        <ele>130.2</ele>
        <time>2023-11-22T15:24:07Z</time>
      </trkpt>
      <trkpt lat="50.00031" lon="2.31927">
        <ele>130.2</ele>
        <time>2023-11-22T15:24:08Z</time>
      </trkpt>
      <trkpt lat="50.0003" lon="2.31927">
        <ele>130.2</ele>
        <time>2023-11-22T15:24:09Z</time>
      </trkpt>
      <trkpt lat="50.00029" lon="2.31927">
        <ele>130.2</ele>
        <time>2023-11-22T15:24:10Z</time>
      </trkpt>
      <trkpt lat="50.00027" lon="2.31926">
        <ele>130.2</ele>
        <time>2023-11-22T15:24:11Z</time>
      </trkpt>
      <trkpt lat="50.00026" lon="2.31926">
        <ele>130.2</ele>
        <time>2023-11-22T15:24:12Z</time>
      </trkpt>
      <trkpt lat="50.00025" lon="2.31926">
        <ele>130.2</ele>
        <time>2023-11-22T15:24:13Z</time>
      </trkpt>
      <trkpt lat="50.00024" lon="2.31926">
        <ele>130.2</ele>
        <time>2023-11-22T15:24:14Z</time>
      </trkpt>
      <trkpt lat="50.00023" lon="2.31926">
        <ele>130.2</ele>
        <time>2023-11-22T15:24:15Z</time>
      </trkpt>
      <trkpt lat="50.00022" lon="2.31926">
        <ele>130.2</ele>
        <time>2023-11-22T15:24:16Z</time>
      </trkpt>
      <trkpt lat="50.00021" lon="2.31926">
        <ele>130.2</ele>
        <time>2023-11-22T15:24:17Z</time>
      </trkpt>
      <trkpt lat="50.00019" lon="2.31926">
        <ele>130.2</ele>
        <time>2023-11-22T15:24:18Z</time>
      </trkpt>
      <trkpt lat="50.00018" lon="2.31925">
        <ele>130.2</ele>
        <time>2023-11-22T15:24:19Z</time>
      </trkpt>
      <trkpt lat="50.00017" lon="2.31925">
        <ele>130.2</ele>
        <time>2023-11-22T15:24:20Z</time>
      </trkpt>
      <trkpt lat="50.00015" lon="2.31925">
        <ele>130.2</ele>
        <time>2023-11-22T15:24:21Z</time>
      </trkpt>
      <trkpt lat="50.00014" lon="2.31925">
        <ele>130.2</ele>
        <time>2023-11-22T15:24:22Z</time>
      </trkpt>
      <trkpt lat="50.00013" lon="2.31925">
        <ele>130.2</ele>
        <time>2023-11-22T15:24:23Z</time>
      </trkpt>
      <trkpt lat="50.00012" lon="2.31924">
        <ele>130.2</ele>
        <time>2023-11-22T15:24:24Z</time>
      </trkpt>
      <trkpt lat="50.00011" lon="2.31924">
        <ele>130.2</ele>
        <time>2023-11-22T15:24:25Z</time>
      </trkpt>
      <trkpt lat="50.0001" lon="2.31924">
        <ele>130.2</ele>
        <time>2023-11-22T15:24:26Z</time>
      </trkpt>
      <trkpt lat="50.00009" lon="2.31924">
        <ele>130.2</ele>
        <time>2023-11-22T15:24:27Z</time>
      </trkpt>
      <trkpt lat="50.00008" lon="2.31923">
        <ele>130.2</ele>
        <time>2023-11-22T15:24:28Z</time>
      </trkpt>
      <trkpt lat="50.00007" lon="2.31923">
        <ele>130.2</ele>
        <time>2023-11-22T15:24:29Z</time>
      </trkpt>
      <trkpt lat="50.00006" lon="2.31923">
        <ele>130.2</ele>
        <time>2023-11-22T15:24:30Z</time>
      </trkpt>
      <trkpt lat="50.00005" lon="2.31922">
        <ele>130.2</ele>
        <time>2023-11-22T15:24:31Z</time>
      </trkpt>
      <trkpt lat="50.00004" lon="2.31922">
        <ele>130.2</ele>
        <time>2023-11-22T15:24:32Z</time>
      </trkpt>
      <trkpt lat="50.00003" lon="2.31922">
        <ele>130.2</ele>
        <time>2023-11-22T15:24:33Z</time>
      </trkpt>
      <trkpt lat="50.00002" lon="2.31922">
        <ele>130.2</ele>
        <time>2023-11-22T15:24:34Z</time>
      </trkpt>
      <trkpt lat="50.00001" lon="2.31922">
        <ele>130.2</ele>
        <time>2023-11-22T15:24:35Z</time>
      </trkpt>
      <trkpt lat="50" lon="2.31921">
        <ele>130.2</ele>
        <time>2023-11-22T15:24:36Z</time>
      </trkpt>
      <trkpt lat="49.99999" lon="2.31921">
        <ele>130.2</ele>
        <time>2023-11-22T15:24:37Z</time>
      </trkpt>
      <trkpt lat="49.99998" lon="2.31921">
        <ele>130.2</ele>
        <time>2023-11-22T15:24:38Z</time>
      </trkpt>
      <trkpt lat="49.99997" lon="2.31921">
        <ele>130.2</ele>
        <time>2023-11-22T15:24:39Z</time>
      </trkpt>
      <trkpt lat="49.99996" lon="2.31921">
        <ele>130.2</ele>
        <time>2023-11-22T15:24:40Z</time>
      </trkpt>
      <trkpt lat="49.99994" lon="2.3192">
        <ele>130.2</ele>
        <time>2023-11-22T15:24:41Z</time>
      </trkpt>
      <trkpt lat="49.99993" lon="2.3192">
        <ele>130.2</ele>
        <time>2023-11-22T15:24:42Z</time>
      </trkpt>
      <trkpt lat="49.99992" lon="2.3192">
        <ele>130.2</ele>
        <time>2023-11-22T15:24:43Z</time>
      </trkpt>
      <trkpt lat="49.99991" lon="2.3192">
        <ele>130.1</ele>
        <time>2023-11-22T15:24:44Z</time>
      </trkpt>
      <trkpt lat="49.9999" lon="2.3192">
        <ele>130.1</ele>
        <time>2023-11-22T15:24:45Z</time>
      </trkpt>
      <trkpt lat="49.99989" lon="2.3192">
        <ele>130.1</ele>
        <time>2023-11-22T15:24:46Z</time>
      </trkpt>
      <trkpt lat="49.99988" lon="2.3192">
        <ele>130.1</ele>
        <time>2023-11-22T15:24:47Z</time>
      </trkpt>
      <trkpt lat="49.99988" lon="2.3192">
        <ele>130.1</ele>
        <time>2023-11-22T15:24:48Z</time>
      </trkpt>
      <trkpt lat="49.99987" lon="2.3192">
        <ele>130.1</ele>
        <time>2023-11-22T15:24:49Z</time>
      </trkpt>
      <trkpt lat="49.99986" lon="2.3192">
        <ele>130.1</ele>
        <time>2023-11-22T15:24:50Z</time>
      </trkpt>
      <trkpt lat="49.99985" lon="2.3192">
        <ele>130.1</ele>
        <time>2023-11-22T15:24:51Z</time>
      </trkpt>
      <trkpt lat="49.99983" lon="2.3192">
        <ele>130.1</ele>
        <time>2023-11-22T15:24:52Z</time>
      </trkpt>
      <trkpt lat="49.99982" lon="2.3192">
        <ele>130.1</ele>
        <time>2023-11-22T15:24:53Z</time>
      </trkpt>
      <trkpt lat="49.99981" lon="2.3192">
        <ele>130.1</ele>
        <time>2023-11-22T15:24:54Z</time>
      </trkpt>
      <trkpt lat="49.9998" lon="2.3192">
        <ele>130.1</ele>
        <time>2023-11-22T15:24:55Z</time>
      </trkpt>
      <trkpt lat="49.99979" lon="2.3192">
        <ele>130.1</ele>
        <time>2023-11-22T15:24:56Z</time>
      </trkpt>
      <trkpt lat="49.99978" lon="2.3192">
        <ele>130.1</ele>
        <time>2023-11-22T15:24:57Z</time>
      </trkpt>
      <trkpt lat="49.99977" lon="2.3192">
        <ele>130.1</ele>
        <time>2023-11-22T15:24:58Z</time>
      </trkpt>
      <trkpt lat="49.99976" lon="2.31921">
        <ele>130.1</ele>
        <time>2023-11-22T15:24:59Z</time>
      </trkpt>
      <trkpt lat="49.99975" lon="2.31921">
        <ele>130.1</ele>
        <time>2023-11-22T15:25:00Z</time>
      </trkpt>
      <trkpt lat="49.99974" lon="2.31921">
        <ele>130.1</ele>
        <time>2023-11-22T15:25:01Z</time>
      </trkpt>
      <trkpt lat="49.99973" lon="2.31921">
        <ele>130.1</ele>
        <time>2023-11-22T15:25:02Z</time>
      </trkpt>
      <trkpt lat="49.99972" lon="2.31921">
        <ele>130.1</ele>
        <time>2023-11-22T15:25:03Z</time>
      </trkpt>
      <trkpt lat="49.99971" lon="2.3192">
        <ele>130.1</ele>
        <time>2023-11-22T15:25:04Z</time>
      </trkpt>
      <trkpt lat="49.9997" lon="2.3192">
        <ele>130.1</ele>
        <time>2023-11-22T15:25:05Z</time>
      </trkpt>
      <trkpt lat="49.99969" lon="2.3192">
        <ele>130.1</ele>
        <time>2023-11-22T15:25:06Z</time>
      </trkpt>
      <trkpt lat="49.99968" lon="2.31919">
        <ele>130.1</ele>
        <time>2023-11-22T15:25:07Z</time>
      </trkpt>
      <trkpt lat="49.99967" lon="2.31919">
        <ele>130.1</ele>
        <time>2023-11-22T15:25:08Z</time>
      </trkpt>
      <trkpt lat="49.99966" lon="2.31919">
        <ele>130.1</ele>
        <time>2023-11-22T15:25:09Z</time>
      </trkpt>
      <trkpt lat="49.99965" lon="2.31918">
        <ele>130.1</ele>
        <time>2023-11-22T15:25:10Z</time>
      </trkpt>
      <trkpt lat="49.99964" lon="2.31918">
        <ele>130.1</ele>
        <time>2023-11-22T15:25:11Z</time>
      </trkpt>
      <trkpt lat="49.99963" lon="2.31918">
        <ele>130</ele>
        <time>2023-11-22T15:25:12Z</time>
      </trkpt>
      <trkpt lat="49.99962" lon="2.31917">
        <ele>130</ele>
        <time>2023-11-22T15:25:13Z</time>
      </trkpt>
      <trkpt lat="49.99961" lon="2.31917">
        <ele>130</ele>
        <time>2023-11-22T15:25:14Z</time>
      </trkpt>
      <trkpt lat="49.9996" lon="2.31916">
        <ele>130</ele>
        <time>2023-11-22T15:25:15Z</time>
      </trkpt>
      <trkpt lat="49.99959" lon="2.31915">
        <ele>130</ele>
        <time>2023-11-22T15:25:16Z</time>
      </trkpt>
      <trkpt lat="49.99958" lon="2.31915">
        <ele>130</ele>
        <time>2023-11-22T15:25:17Z</time>
      </trkpt>
      <trkpt lat="49.99957" lon="2.31915">
        <ele>130</ele>
        <time>2023-11-22T15:25:18Z</time>
      </trkpt>
      <trkpt lat="49.99956" lon="2.31915">
        <ele>130</ele>
        <time>2023-11-22T15:25:19Z</time>
      </trkpt>
      <trkpt lat="49.99955" lon="2.31914">
        <ele>130</ele>
        <time>2023-11-22T15:25:20Z</time>
      </trkpt>
      <trkpt lat="49.99954" lon="2.31914">
        <ele>130</ele>
        <time>2023-11-22T15:25:21Z</time>
      </trkpt>
      <trkpt lat="49.99953" lon="2.31914">
        <ele>130</ele>
        <time>2023-11-22T15:25:22Z</time>
      </trkpt>
      <trkpt lat="49.99952" lon="2.31914">
        <ele>130</ele>
        <time>2023-11-22T15:25:23Z</time>
      </trkpt>
      <trkpt lat="49.99951" lon="2.31914">
        <ele>130</ele>
        <time>2023-11-22T15:25:24Z</time>
      </trkpt>
      <trkpt lat="49.99949" lon="2.31914">
        <ele>130</ele>
        <time>2023-11-22T15:25:25Z</time>
      </trkpt>
      <trkpt lat="49.99948" lon="2.31914">
        <ele>130</ele>
        <time>2023-11-22T15:25:26Z</time>
      </trkpt>
      <trkpt lat="49.99947" lon="2.31914">
        <ele>130</ele>
        <time>2023-11-22T15:25:27Z</time>
      </trkpt>
      <trkpt lat="49.99945" lon="2.31914">
        <ele>130</ele>
        <time>2023-11-22T15:25:28Z</time>
      </trkpt>
      <trkpt lat="49.99945" lon="2.31914">
        <ele>130.1</ele>
        <time>2023-11-22T15:25:29Z</time>
      </trkpt>
      <trkpt lat="49.99944" lon="2.31914">
        <ele>130.1</ele>
        <time>2023-11-22T15:25:30Z</time>
      </trkpt>
      <trkpt lat="49.99942" lon="2.31914">
        <ele>130.1</ele>
        <time>2023-11-22T15:25:31Z</time>
      </trkpt>
      <trkpt lat="49.99941" lon="2.31914">
        <ele>130.1</ele>
        <time>2023-11-22T15:25:32Z</time>
      </trkpt>
      <trkpt lat="49.9994" lon="2.31914">
        <ele>130.2</ele>
        <time>2023-11-22T15:25:33Z</time>
      </trkpt>
      <trkpt lat="49.99939" lon="2.31914">
        <ele>130.2</ele>
        <time>2023-11-22T15:25:34Z</time>
      </trkpt>
      <trkpt lat="49.99937" lon="2.31913">
        <ele>130.2</ele>
        <time>2023-11-22T15:25:35Z</time>
      </trkpt>
      <trkpt lat="49.99935" lon="2.31914">
        <ele>130.3</ele>
        <time>2023-11-22T15:25:36Z</time>
      </trkpt>
      <trkpt lat="49.99934" lon="2.31914">
        <ele>130.3</ele>
        <time>2023-11-22T15:25:37Z</time>
      </trkpt>
      <trkpt lat="49.99934" lon="2.31914">
        <ele>130.3</ele>
        <time>2023-11-22T15:25:38Z</time>
      </trkpt>
      <trkpt lat="49.99932" lon="2.31914">
        <ele>130.3</ele>
        <time>2023-11-22T15:25:39Z</time>
      </trkpt>
      <trkpt lat="49.99931" lon="2.31915">
        <ele>130.3</ele>
        <time>2023-11-22T15:25:40Z</time>
      </trkpt>
      <trkpt lat="49.9993" lon="2.31915">
        <ele>130.4</ele>
        <time>2023-11-22T15:25:41Z</time>
      </trkpt>
      <trkpt lat="49.99929" lon="2.31915">
        <ele>130.4</ele>
        <time>2023-11-22T15:25:42Z</time>
      </trkpt>
      <trkpt lat="49.99928" lon="2.31915">
        <ele>130.4</ele>
        <time>2023-11-22T15:25:43Z</time>
      </trkpt>
      <trkpt lat="49.99927" lon="2.31915">
        <ele>130.4</ele>
        <time>2023-11-22T15:25:44Z</time>
      </trkpt>
      <trkpt lat="49.99926" lon="2.31915">
        <ele>130.5</ele>
        <time>2023-11-22T15:25:45Z</time>
      </trkpt>
      <trkpt lat="49.99925" lon="2.31915">
        <ele>130.5</ele>
        <time>2023-11-22T15:25:46Z</time>
      </trkpt>
      <trkpt lat="49.99924" lon="2.31915">
        <ele>130.5</ele>
        <time>2023-11-22T15:25:47Z</time>
      </trkpt>
      <trkpt lat="49.99923" lon="2.31915">
        <ele>130.5</ele>
        <time>2023-11-22T15:25:48Z</time>
      </trkpt>
      <trkpt lat="49.99921" lon="2.31915">
        <ele>130.5</ele>
        <time>2023-11-22T15:25:49Z</time>
      </trkpt>
      <trkpt lat="49.9992" lon="2.31915">
        <ele>130.6</ele>
        <time>2023-11-22T15:25:50Z</time>
      </trkpt>
      <trkpt lat="49.99919" lon="2.31915">
        <ele>130.6</ele>
        <time>2023-11-22T15:25:51Z</time>
      </trkpt>
      <trkpt lat="49.99918" lon="2.31916">
        <ele>130.6</ele>
        <time>2023-11-22T15:25:52Z</time>
      </trkpt>
      <trkpt lat="49.99917" lon="2.31916">
        <ele>130.6</ele>
        <time>2023-11-22T15:25:53Z</time>
      </trkpt>
      <trkpt lat="49.99916" lon="2.31916">
        <ele>130.6</ele>
        <time>2023-11-22T15:25:54Z</time>
      </trkpt>
      <trkpt lat="49.99915" lon="2.31916">
        <ele>130.6</ele>
        <time>2023-11-22T15:25:55Z</time>
      </trkpt>
      <trkpt lat="49.99914" lon="2.31916">
        <ele>130.6</ele>
        <time>2023-11-22T15:25:56Z</time>
      </trkpt>
      <trkpt lat="49.99913" lon="2.31916">
        <ele>130.6</ele>
        <time>2023-11-22T15:25:57Z</time>
      </trkpt>
      <trkpt lat="49.99912" lon="2.31917">
        <ele>130.6</ele>
        <time>2023-11-22T15:25:58Z</time>
      </trkpt>
      <trkpt lat="49.99911" lon="2.31917">
        <ele>130.6</ele>
        <time>2023-11-22T15:25:59Z</time>
      </trkpt>
      <trkpt lat="49.9991" lon="2.31917">
        <ele>130.6</ele>
        <time>2023-11-22T15:26:00Z</time>
      </trkpt>
      <trkpt lat="49.99909" lon="2.31917">
        <ele>130.6</ele>
        <time>2023-11-22T15:26:01Z</time>
      </trkpt>
      <trkpt lat="49.99908" lon="2.31917">
        <ele>130.6</ele>
        <time>2023-11-22T15:26:02Z</time>
      </trkpt>
      <trkpt lat="49.99907" lon="2.31917">
        <ele>130.5</ele>
        <time>2023-11-22T15:26:03Z</time>
      </trkpt>
      <trkpt lat="49.99906" lon="2.31917">
        <ele>130.5</ele>
        <time>2023-11-22T15:26:04Z</time>
      </trkpt>
      <trkpt lat="49.99905" lon="2.31917">
        <ele>130.5</ele>
        <time>2023-11-22T15:26:05Z</time>
      </trkpt>
      <trkpt lat="49.99905" lon="2.31918">
        <ele>130.5</ele>
        <time>2023-11-22T15:26:06Z</time>
      </trkpt>
      <trkpt lat="49.99903" lon="2.31918">
        <ele>130.5</ele>
        <time>2023-11-22T15:26:07Z</time>
      </trkpt>
      <trkpt lat="49.99903" lon="2.31919">
        <ele>130.5</ele>
        <time>2023-11-22T15:26:08Z</time>
      </trkpt>
      <trkpt lat="49.99902" lon="2.31919">
        <ele>130.5</ele>
        <time>2023-11-22T15:26:09Z</time>
      </trkpt>
      <trkpt lat="49.99901" lon="2.31919">
        <ele>130.5</ele>
        <time>2023-11-22T15:26:10Z</time>
      </trkpt>
      <trkpt lat="49.999" lon="2.3192">
        <ele>130.5</ele>
        <time>2023-11-22T15:26:11Z</time>
      </trkpt>
      <trkpt lat="49.99899" lon="2.3192">
        <ele>130.5</ele>
        <time>2023-11-22T15:26:12Z</time>
      </trkpt>
      <trkpt lat="49.99898" lon="2.3192">
        <ele>130.5</ele>
        <time>2023-11-22T15:26:13Z</time>
      </trkpt>
      <trkpt lat="49.99897" lon="2.31921">
        <ele>130.5</ele>
        <time>2023-11-22T15:26:14Z</time>
      </trkpt>
      <trkpt lat="49.99897" lon="2.31921">
        <ele>130.5</ele>
        <time>2023-11-22T15:26:15Z</time>
      </trkpt>
      <trkpt lat="49.99896" lon="2.31921">
        <ele>130.5</ele>
        <time>2023-11-22T15:26:16Z</time>
      </trkpt>
      <trkpt lat="49.99895" lon="2.31922">
        <ele>130.5</ele>
        <time>2023-11-22T15:26:17Z</time>
      </trkpt>
      <trkpt lat="49.99894" lon="2.31922">
        <ele>130.5</ele>
        <time>2023-11-22T15:26:18Z</time>
      </trkpt>
      <trkpt lat="49.99893" lon="2.31922">
        <ele>130.5</ele>
        <time>2023-11-22T15:26:19Z</time>
      </trkpt>
      <trkpt lat="49.99892" lon="2.31923">
        <ele>130.5</ele>
        <time>2023-11-22T15:26:20Z</time>
      </trkpt>
      <trkpt lat="49.99891" lon="2.31923">
        <ele>130.5</ele>
        <time>2023-11-22T15:26:21Z</time>
      </trkpt>
      <trkpt lat="49.9989" lon="2.31924">
        <ele>130.5</ele>
        <time>2023-11-22T15:26:22Z</time>
      </trkpt>
      <trkpt lat="49.99889" lon="2.31924">
        <ele>130.5</ele>
        <time>2023-11-22T15:26:23Z</time>
      </trkpt>
      <trkpt lat="49.99888" lon="2.31925">
        <ele>130.6</ele>
        <time>2023-11-22T15:26:24Z</time>
      </trkpt>
      <trkpt lat="49.99887" lon="2.31926">
        <ele>130.6</ele>
        <time>2023-11-22T15:26:25Z</time>
      </trkpt>
      <trkpt lat="49.99886" lon="2.31926">
        <ele>130.6</ele>
        <time>2023-11-22T15:26:26Z</time>
      </trkpt>
      <trkpt lat="49.99884" lon="2.31926">
        <ele>130.6</ele>
        <time>2023-11-22T15:26:27Z</time>
      </trkpt>
      <trkpt lat="49.99883" lon="2.31926">
        <ele>130.6</ele>
        <time>2023-11-22T15:26:28Z</time>
      </trkpt>
      <trkpt lat="49.99882" lon="2.31926">
        <ele>130.6</ele>
        <time>2023-11-22T15:26:29Z</time>
      </trkpt>
      <trkpt lat="49.9988" lon="2.31926">
        <ele>130.6</ele>
        <time>2023-11-22T15:26:30Z</time>
      </trkpt>
      <trkpt lat="49.99879" lon="2.31926">
        <ele>130.6</ele>
        <time>2023-11-22T15:26:31Z</time>
      </trkpt>
      <trkpt lat="49.99879" lon="2.31926">
        <ele>130.6</ele>
        <time>2023-11-22T15:26:32Z</time>
      </trkpt>
      <trkpt lat="49.99877" lon="2.31926">
        <ele>130.6</ele>
        <time>2023-11-22T15:26:33Z</time>
      </trkpt>
      <trkpt lat="49.99876" lon="2.31927">
        <ele>130.6</ele>
        <time>2023-11-22T15:26:34Z</time>
      </trkpt>
      <trkpt lat="49.99875" lon="2.31927">
        <ele>130.6</ele>
        <time>2023-11-22T15:26:35Z</time>
      </trkpt>
      <trkpt lat="49.99874" lon="2.31928">
        <ele>130.6</ele>
        <time>2023-11-22T15:26:36Z</time>
      </trkpt>
      <trkpt lat="49.99873" lon="2.31928">
        <ele>130.7</ele>
        <time>2023-11-22T15:26:37Z</time>
      </trkpt>
      <trkpt lat="49.99872" lon="2.31928">
        <ele>130.7</ele>
        <time>2023-11-22T15:26:38Z</time>
      </trkpt>
      <trkpt lat="49.99871" lon="2.31929">
        <ele>130.7</ele>
        <time>2023-11-22T15:26:39Z</time>
      </trkpt>
      <trkpt lat="49.99869" lon="2.31929">
        <ele>130.7</ele>
        <time>2023-11-22T15:26:40Z</time>
      </trkpt>
      <trkpt lat="49.99868" lon="2.31929">
        <ele>130.7</ele>
        <time>2023-11-22T15:26:41Z</time>
      </trkpt>
      <trkpt lat="49.99866" lon="2.31929">
        <ele>130.7</ele>
        <time>2023-11-22T15:26:42Z</time>
      </trkpt>
      <trkpt lat="49.99865" lon="2.31929">
        <ele>130.7</ele>
        <time>2023-11-22T15:26:43Z</time>
      </trkpt>
      <trkpt lat="49.99864" lon="2.3193">
        <ele>130.7</ele>
        <time>2023-11-22T15:26:44Z</time>
      </trkpt>
      <trkpt lat="49.99863" lon="2.3193">
        <ele>130.7</ele>
        <time>2023-11-22T15:26:45Z</time>
      </trkpt>
      <trkpt lat="49.99862" lon="2.31929">
        <ele>130.8</ele>
        <time>2023-11-22T15:26:46Z</time>
      </trkpt>
      <trkpt lat="49.9986" lon="2.3193">
        <ele>130.8</ele>
        <time>2023-11-22T15:26:47Z</time>
      </trkpt>
      <trkpt lat="49.99859" lon="2.3193">
        <ele>130.8</ele>
        <time>2023-11-22T15:26:48Z</time>
      </trkpt>
      <trkpt lat="49.99858" lon="2.3193">
        <ele>130.8</ele>
        <time>2023-11-22T15:26:49Z</time>
      </trkpt>
      <trkpt lat="49.99857" lon="2.31931">
        <ele>130.8</ele>
        <time>2023-11-22T15:26:50Z</time>
      </trkpt>
      <trkpt lat="49.99856" lon="2.31931">
        <ele>130.8</ele>
        <time>2023-11-22T15:26:51Z</time>
      </trkpt>
      <trkpt lat="49.99855" lon="2.3193">
        <ele>130.8</ele>
        <time>2023-11-22T15:26:52Z</time>
      </trkpt>
      <trkpt lat="49.99854" lon="2.3193">
        <ele>130.9</ele>
        <time>2023-11-22T15:26:53Z</time>
      </trkpt>
      <trkpt lat="49.99853" lon="2.31929">
        <ele>130.9</ele>
        <time>2023-11-22T15:26:54Z</time>
      </trkpt>
      <trkpt lat="49.99851" lon="2.31929">
        <ele>130.9</ele>
        <time>2023-11-22T15:26:55Z</time>
      </trkpt>
      <trkpt lat="49.9985" lon="2.31929">
        <ele>130.9</ele>
        <time>2023-11-22T15:26:56Z</time>
      </trkpt>
      <trkpt lat="49.99849" lon="2.3193">
        <ele>130.9</ele>
        <time>2023-11-22T15:26:57Z</time>
      </trkpt>
      <trkpt lat="49.99848" lon="2.3193">
        <ele>130.9</ele>
        <time>2023-11-22T15:26:58Z</time>
      </trkpt>
      <trkpt lat="49.99847" lon="2.3193">
        <ele>130.9</ele>
        <time>2023-11-22T15:26:59Z</time>
      </trkpt>
      <trkpt lat="49.99846" lon="2.31931">
        <ele>131</ele>
        <time>2023-11-22T15:27:00Z</time>
      </trkpt>
      <trkpt lat="49.99845" lon="2.31931">
        <ele>131</ele>
        <time>2023-11-22T15:27:01Z</time>
      </trkpt>
      <trkpt lat="49.99843" lon="2.31931">
        <ele>131</ele>
        <time>2023-11-22T15:27:02Z</time>
      </trkpt>
      <trkpt lat="49.99843" lon="2.31932">
        <ele>131</ele>
        <time>2023-11-22T15:27:03Z</time>
      </trkpt>
      <trkpt lat="49.99842" lon="2.31932">
        <ele>131</ele>
        <time>2023-11-22T15:27:04Z</time>
      </trkpt>
      <trkpt lat="49.99841" lon="2.31932">
        <ele>131</ele>
        <time>2023-11-22T15:27:05Z</time>
      </trkpt>
      <trkpt lat="49.9984" lon="2.31932">
        <ele>131</ele>
        <time>2023-11-22T15:27:06Z</time>
      </trkpt>
      <trkpt lat="49.99839" lon="2.31933">
        <ele>131</ele>
        <time>2023-11-22T15:27:07Z</time>
      </trkpt>
      <trkpt lat="49.99838" lon="2.31933">
        <ele>131</ele>
        <time>2023-11-22T15:27:08Z</time>
      </trkpt>
      <trkpt lat="49.99837" lon="2.31934">
        <ele>131.1</ele>
        <time>2023-11-22T15:27:09Z</time>
      </trkpt>
      <trkpt lat="49.99836" lon="2.31935">
        <ele>131.1</ele>
        <time>2023-11-22T15:27:10Z</time>
      </trkpt>
      <trkpt lat="49.99835" lon="2.31935">
        <ele>131.1</ele>
        <time>2023-11-22T15:27:11Z</time>
      </trkpt>
      <trkpt lat="49.99834" lon="2.31936">
        <ele>131.1</ele>
        <time>2023-11-22T15:27:12Z</time>
      </trkpt>
      <trkpt lat="49.99834" lon="2.31937">
        <ele>131.1</ele>
        <time>2023-11-22T15:27:13Z</time>
      </trkpt>
      <trkpt lat="49.99833" lon="2.31937">
        <ele>131.1</ele>
        <time>2023-11-22T15:27:14Z</time>
      </trkpt>
      <trkpt lat="49.99831" lon="2.31938">
        <ele>131.1</ele>
        <time>2023-11-22T15:27:15Z</time>
      </trkpt>
      <trkpt lat="49.9983" lon="2.31939">
        <ele>131.2</ele>
        <time>2023-11-22T15:27:16Z</time>
      </trkpt>
      <trkpt lat="49.99829" lon="2.31939">
        <ele>131.2</ele>
        <time>2023-11-22T15:27:17Z</time>
      </trkpt>
      <trkpt lat="49.99828" lon="2.3194">
        <ele>131.2</ele>
        <time>2023-11-22T15:27:18Z</time>
      </trkpt>
      <trkpt lat="49.99827" lon="2.31941">
        <ele>131.2</ele>
        <time>2023-11-22T15:27:19Z</time>
      </trkpt>
      <trkpt lat="49.99826" lon="2.31941">
        <ele>131.2</ele>
        <time>2023-11-22T15:27:20Z</time>
      </trkpt>
      <trkpt lat="49.99825" lon="2.31942">
        <ele>131.2</ele>
        <time>2023-11-22T15:27:21Z</time>
      </trkpt>
      <trkpt lat="49.99824" lon="2.31943">
        <ele>131.2</ele>
        <time>2023-11-22T15:27:22Z</time>
      </trkpt>
      <trkpt lat="49.99823" lon="2.31943">
        <ele>131.3</ele>
        <time>2023-11-22T15:27:23Z</time>
      </trkpt>
      <trkpt lat="49.99822" lon="2.31944">
        <ele>131.3</ele>
        <time>2023-11-22T15:27:24Z</time>
      </trkpt>
      <trkpt lat="49.99821" lon="2.31945">
        <ele>131.3</ele>
        <time>2023-11-22T15:27:25Z</time>
      </trkpt>
      <trkpt lat="49.9982" lon="2.31945">
        <ele>131.3</ele>
        <time>2023-11-22T15:27:26Z</time>
      </trkpt>
      <trkpt lat="49.99819" lon="2.31946">
        <ele>131.3</ele>
        <time>2023-11-22T15:27:27Z</time>
      </trkpt>
      <trkpt lat="49.99818" lon="2.31947">
        <ele>131.3</ele>
        <time>2023-11-22T15:27:28Z</time>
      </trkpt>
      <trkpt lat="49.99818" lon="2.31948">
        <ele>131.4</ele>
        <time>2023-11-22T15:27:29Z</time>
      </trkpt>
      <trkpt lat="49.99817" lon="2.31948">
        <ele>131.4</ele>
        <time>2023-11-22T15:27:30Z</time>
      </trkpt>
      <trkpt lat="49.99816" lon="2.31949">
        <ele>131.4</ele>
        <time>2023-11-22T15:27:31Z</time>
      </trkpt>
      <trkpt lat="49.99815" lon="2.3195">
        <ele>131.4</ele>
        <time>2023-11-22T15:27:32Z</time>
      </trkpt>
      <trkpt lat="49.99814" lon="2.3195">
        <ele>131.4</ele>
        <time>2023-11-22T15:27:33Z</time>
      </trkpt>
      <trkpt lat="49.99813" lon="2.31951">
        <ele>131.4</ele>
        <time>2023-11-22T15:27:34Z</time>
      </trkpt>
      <trkpt lat="49.99813" lon="2.31951">
        <ele>131.4</ele>
        <time>2023-11-22T15:27:35Z</time>
      </trkpt>
      <trkpt lat="49.99812" lon="2.31952">
        <ele>131.5</ele>
        <time>2023-11-22T15:27:36Z</time>
      </trkpt>
      <trkpt lat="49.99811" lon="2.31952">
        <ele>131.5</ele>
        <time>2023-11-22T15:27:37Z</time>
      </trkpt>
      <trkpt lat="49.9981" lon="2.31953">
        <ele>131.5</ele>
        <time>2023-11-22T15:27:38Z</time>
      </trkpt>
      <trkpt lat="49.99809" lon="2.31953">
        <ele>131.5</ele>
        <time>2023-11-22T15:27:39Z</time>
      </trkpt>
      <trkpt lat="49.99808" lon="2.31954">
        <ele>131.5</ele>
        <time>2023-11-22T15:27:40Z</time>
      </trkpt>
      <trkpt lat="49.99807" lon="2.31954">
        <ele>131.5</ele>
        <time>2023-11-22T15:27:41Z</time>
      </trkpt>
      <trkpt lat="49.99806" lon="2.31955">
        <ele>131.6</ele>
        <time>2023-11-22T15:27:42Z</time>
      </trkpt>
      <trkpt lat="49.99805" lon="2.31956">
        <ele>131.6</ele>
        <time>2023-11-22T15:27:43Z</time>
      </trkpt>
      <trkpt lat="49.99804" lon="2.31956">
        <ele>131.6</ele>
        <time>2023-11-22T15:27:44Z</time>
      </trkpt>
      <trkpt lat="49.99803" lon="2.31957">
        <ele>131.6</ele>
        <time>2023-11-22T15:27:45Z</time>
      </trkpt>
      <trkpt lat="49.99803" lon="2.31958">
        <ele>131.6</ele>
        <time>2023-11-22T15:27:46Z</time>
      </trkpt>
      <trkpt lat="49.99802" lon="2.31959">
        <ele>131.7</ele>
        <time>2023-11-22T15:27:47Z</time>
      </trkpt>
      <trkpt lat="49.99801" lon="2.3196">
        <ele>131.7</ele>
        <time>2023-11-22T15:27:48Z</time>
      </trkpt>
      <trkpt lat="49.99799" lon="2.3196">
        <ele>131.7</ele>
        <time>2023-11-22T15:27:49Z</time>
      </trkpt>
      <trkpt lat="49.99798" lon="2.31961">
        <ele>131.7</ele>
        <time>2023-11-22T15:27:50Z</time>
      </trkpt>
      <trkpt lat="49.99797" lon="2.31962">
        <ele>131.7</ele>
        <time>2023-11-22T15:27:51Z</time>
      </trkpt>
      <trkpt lat="49.99797" lon="2.31963">
        <ele>131.8</ele>
        <time>2023-11-22T15:27:52Z</time>
      </trkpt>
      <trkpt lat="49.99796" lon="2.31964">
        <ele>131.8</ele>
        <time>2023-11-22T15:27:53Z</time>
      </trkpt>
      <trkpt lat="49.99795" lon="2.31965">
        <ele>131.8</ele>
        <time>2023-11-22T15:27:54Z</time>
      </trkpt>
      <trkpt lat="49.99795" lon="2.31966">
        <ele>131.8</ele>
        <time>2023-11-22T15:27:55Z</time>
      </trkpt>
      <trkpt lat="49.99794" lon="2.31967">
        <ele>131.8</ele>
        <time>2023-11-22T15:27:56Z</time>
      </trkpt>
      <trkpt lat="49.99793" lon="2.31968">
        <ele>131.8</ele>
        <time>2023-11-22T15:27:57Z</time>
      </trkpt>
      <trkpt lat="49.99792" lon="2.31968">
        <ele>131.9</ele>
        <time>2023-11-22T15:27:58Z</time>
      </trkpt>
      <trkpt lat="49.99791" lon="2.31969">
        <ele>131.9</ele>
        <time>2023-11-22T15:27:59Z</time>
      </trkpt>
      <trkpt lat="49.9979" lon="2.31969">
        <ele>131.9</ele>
        <time>2023-11-22T15:28:00Z</time>
      </trkpt>
      <trkpt lat="49.99789" lon="2.31969">
        <ele>131.9</ele>
        <time>2023-11-22T15:28:01Z</time>
      </trkpt>
      <trkpt lat="49.99788" lon="2.3197">
        <ele>131.9</ele>
        <time>2023-11-22T15:28:02Z</time>
      </trkpt>
      <trkpt lat="49.99787" lon="2.31971">
        <ele>132</ele>
        <time>2023-11-22T15:28:03Z</time>
      </trkpt>
      <trkpt lat="49.99786" lon="2.31971">
        <ele>132</ele>
        <time>2023-11-22T15:28:04Z</time>
      </trkpt>
      <trkpt lat="49.99785" lon="2.31972">
        <ele>132</ele>
        <time>2023-11-22T15:28:05Z</time>
      </trkpt>
      <trkpt lat="49.99784" lon="2.31972">
        <ele>132</ele>
        <time>2023-11-22T15:28:06Z</time>
      </trkpt>
      <trkpt lat="49.99783" lon="2.31972">
        <ele>132</ele>
        <time>2023-11-22T15:28:07Z</time>
      </trkpt>
      <trkpt lat="49.99782" lon="2.31971">
        <ele>131.9</ele>
        <time>2023-11-22T15:28:08Z</time>
      </trkpt>
      <trkpt lat="49.99781" lon="2.3197">
        <ele>131.9</ele>
        <time>2023-11-22T15:28:09Z</time>
      </trkpt>
      <trkpt lat="49.9978" lon="2.31969">
        <ele>131.8</ele>
        <time>2023-11-22T15:28:10Z</time>
      </trkpt>
      <trkpt lat="49.99779" lon="2.31968">
        <ele>131.7</ele>
        <time>2023-11-22T15:28:11Z</time>
      </trkpt>
      <trkpt lat="49.99778" lon="2.31967">
        <ele>131.7</ele>
        <time>2023-11-22T15:28:12Z</time>
      </trkpt>
      <trkpt lat="49.99777" lon="2.31966">
        <ele>131.6</ele>
        <time>2023-11-22T15:28:13Z</time>
      </trkpt>
      <trkpt lat="49.99776" lon="2.31965">
        <ele>131.6</ele>
        <time>2023-11-22T15:28:14Z</time>
      </trkpt>
      <trkpt lat="49.99775" lon="2.31964">
        <ele>131.5</ele>
        <time>2023-11-22T15:28:15Z</time>
      </trkpt>
      <trkpt lat="49.99774" lon="2.31963">
        <ele>131.5</ele>
        <time>2023-11-22T15:28:16Z</time>
      </trkpt>
      <trkpt lat="49.99773" lon="2.31962">
        <ele>131.5</ele>
        <time>2023-11-22T15:28:17Z</time>
      </trkpt>
      <trkpt lat="49.99772" lon="2.31961">
        <ele>131.4</ele>
        <time>2023-11-22T15:28:18Z</time>
      </trkpt>
      <trkpt lat="49.9977" lon="2.31959">
        <ele>131.4</ele>
        <time>2023-11-22T15:28:19Z</time>
      </trkpt>
      <trkpt lat="49.9977" lon="2.31958">
        <ele>131.4</ele>
        <time>2023-11-22T15:28:20Z</time>
      </trkpt>
      <trkpt lat="49.99769" lon="2.31957">
        <ele>131.4</ele>
        <time>2023-11-22T15:28:21Z</time>
      </trkpt>
      <trkpt lat="49.99769" lon="2.31956">
        <ele>131.4</ele>
        <time>2023-11-22T15:28:22Z</time>
      </trkpt>
      <trkpt lat="49.99768" lon="2.31954">
        <ele>131.4</ele>
        <time>2023-11-22T15:28:23Z</time>
      </trkpt>
      <trkpt lat="49.99767" lon="2.31953">
        <ele>131.4</ele>
        <time>2023-11-22T15:28:24Z</time>
      </trkpt>
      <trkpt lat="49.99766" lon="2.31952">
        <ele>131.4</ele>
        <time>2023-11-22T15:28:25Z</time>
      </trkpt>
      <trkpt lat="49.99765" lon="2.31951">
        <ele>131.4</ele>
        <time>2023-11-22T15:28:26Z</time>
      </trkpt>
      <trkpt lat="49.99765" lon="2.3195">
        <ele>131.5</ele>
        <time>2023-11-22T15:28:27Z</time>
      </trkpt>
      <trkpt lat="49.99764" lon="2.31949">
        <ele>131.5</ele>
        <time>2023-11-22T15:28:28Z</time>
      </trkpt>
      <trkpt lat="49.99763" lon="2.31948">
        <ele>131.5</ele>
        <time>2023-11-22T15:28:29Z</time>
      </trkpt>
      <trkpt lat="49.99762" lon="2.31947">
        <ele>131.5</ele>
        <time>2023-11-22T15:28:30Z</time>
      </trkpt>
      <trkpt lat="49.99761" lon="2.31946">
        <ele>131.5</ele>
        <time>2023-11-22T15:28:31Z</time>
      </trkpt>
      <trkpt lat="49.9976" lon="2.31945">
        <ele>131.5</ele>
        <time>2023-11-22T15:28:32Z</time>
      </trkpt>
      <trkpt lat="49.99759" lon="2.31945">
        <ele>131.5</ele>
        <time>2023-11-22T15:28:33Z</time>
      </trkpt>
      <trkpt lat="49.99759" lon="2.31944">
        <ele>131.6</ele>
        <time>2023-11-22T15:28:34Z</time>
      </trkpt>
      <trkpt lat="49.99758" lon="2.31943">
        <ele>131.6</ele>
        <time>2023-11-22T15:28:35Z</time>
      </trkpt>
      <trkpt lat="49.99757" lon="2.31942">
        <ele>131.6</ele>
        <time>2023-11-22T15:28:36Z</time>
      </trkpt>
      <trkpt lat="49.99757" lon="2.31942">
        <ele>131.6</ele>
        <time>2023-11-22T15:28:37Z</time>
      </trkpt>
      <trkpt lat="49.99756" lon="2.31941">
        <ele>131.6</ele>
        <time>2023-11-22T15:28:38Z</time>
      </trkpt>
      <trkpt lat="49.99755" lon="2.3194">
        <ele>131.6</ele>
        <time>2023-11-22T15:28:39Z</time>
      </trkpt>
      <trkpt lat="49.99754" lon="2.3194">
        <ele>131.7</ele>
        <time>2023-11-22T15:28:40Z</time>
      </trkpt>
      <trkpt lat="49.99753" lon="2.31939">
        <ele>131.7</ele>
        <time>2023-11-22T15:28:41Z</time>
      </trkpt>
      <trkpt lat="49.99752" lon="2.31939">
        <ele>131.7</ele>
        <time>2023-11-22T15:28:42Z</time>
      </trkpt>
      <trkpt lat="49.99751" lon="2.31939">
        <ele>131.7</ele>
        <time>2023-11-22T15:28:43Z</time>
      </trkpt>
      <trkpt lat="49.9975" lon="2.31938">
        <ele>131.8</ele>
        <time>2023-11-22T15:28:44Z</time>
      </trkpt>
      <trkpt lat="49.99749" lon="2.31938">
        <ele>131.8</ele>
        <time>2023-11-22T15:28:45Z</time>
      </trkpt>
      <trkpt lat="49.99747" lon="2.31937">
        <ele>131.8</ele>
        <time>2023-11-22T15:28:46Z</time>
      </trkpt>
      <trkpt lat="49.99746" lon="2.31937">
        <ele>131.8</ele>
        <time>2023-11-22T15:28:47Z</time>
      </trkpt>
      <trkpt lat="49.99745" lon="2.31936">
        <ele>131.9</ele>
        <time>2023-11-22T15:28:48Z</time>
      </trkpt>
      <trkpt lat="49.99744" lon="2.31936">
        <ele>131.9</ele>
        <time>2023-11-22T15:28:49Z</time>
      </trkpt>
      <trkpt lat="49.99743" lon="2.31935">
        <ele>131.9</ele>
        <time>2023-11-22T15:28:50Z</time>
      </trkpt>
      <trkpt lat="49.99742" lon="2.31934">
        <ele>131.9</ele>
        <time>2023-11-22T15:28:51Z</time>
      </trkpt>
      <trkpt lat="49.99742" lon="2.31934">
        <ele>132</ele>
        <time>2023-11-22T15:28:52Z</time>
      </trkpt>
      <trkpt lat="49.99741" lon="2.31933">
        <ele>132</ele>
        <time>2023-11-22T15:28:53Z</time>
      </trkpt>
      <trkpt lat="49.9974" lon="2.31932">
        <ele>132</ele>
        <time>2023-11-22T15:28:54Z</time>
      </trkpt>
      <trkpt lat="49.99739" lon="2.31931">
        <ele>132</ele>
        <time>2023-11-22T15:28:55Z</time>
      </trkpt>
      <trkpt lat="49.99738" lon="2.3193">
        <ele>132</ele>
        <time>2023-11-22T15:28:56Z</time>
      </trkpt>
      <trkpt lat="49.99738" lon="2.31929">
        <ele>132</ele>
        <time>2023-11-22T15:28:57Z</time>
      </trkpt>
      <trkpt lat="49.99737" lon="2.31928">
        <ele>132</ele>
        <time>2023-11-22T15:28:58Z</time>
      </trkpt>
      <trkpt lat="49.99736" lon="2.31927">
        <ele>132</ele>
        <time>2023-11-22T15:28:59Z</time>
      </trkpt>
      <trkpt lat="49.99735" lon="2.31927">
        <ele>132.1</ele>
        <time>2023-11-22T15:29:00Z</time>
      </trkpt>
      <trkpt lat="49.99734" lon="2.31926">
        <ele>132.1</ele>
        <time>2023-11-22T15:29:01Z</time>
      </trkpt>
      <trkpt lat="49.99733" lon="2.31925">
        <ele>132.1</ele>
        <time>2023-11-22T15:29:02Z</time>
      </trkpt>
      <trkpt lat="49.99732" lon="2.31925">
        <ele>132.1</ele>
        <time>2023-11-22T15:29:03Z</time>
      </trkpt>
      <trkpt lat="49.99731" lon="2.31924">
        <ele>132.1</ele>
        <time>2023-11-22T15:29:04Z</time>
      </trkpt>
      <trkpt lat="49.9973" lon="2.31924">
        <ele>132.1</ele>
        <time>2023-11-22T15:29:05Z</time>
      </trkpt>
      <trkpt lat="49.99729" lon="2.31923">
        <ele>132.1</ele>
        <time>2023-11-22T15:29:06Z</time>
      </trkpt>
      <trkpt lat="49.99728" lon="2.31923">
        <ele>132.2</ele>
        <time>2023-11-22T15:29:07Z</time>
      </trkpt>
      <trkpt lat="49.99727" lon="2.31922">
        <ele>132.2</ele>
        <time>2023-11-22T15:29:08Z</time>
      </trkpt>
      <trkpt lat="49.99726" lon="2.31922">
        <ele>132.2</ele>
        <time>2023-11-22T15:29:09Z</time>
      </trkpt>
      <trkpt lat="49.99725" lon="2.31921">
        <ele>132.2</ele>
        <time>2023-11-22T15:29:10Z</time>
      </trkpt>
      <trkpt lat="49.99724" lon="2.3192">
        <ele>132.2</ele>
        <time>2023-11-22T15:29:11Z</time>
      </trkpt>
      <trkpt lat="49.99723" lon="2.31918">
        <ele>132.2</ele>
        <time>2023-11-22T15:29:12Z</time>
      </trkpt>
      <trkpt lat="49.99722" lon="2.31918">
        <ele>132.2</ele>
        <time>2023-11-22T15:29:13Z</time>
      </trkpt>
      <trkpt lat="49.99721" lon="2.31917">
        <ele>132.3</ele>
        <time>2023-11-22T15:29:14Z</time>
      </trkpt>
      <trkpt lat="49.9972" lon="2.31916">
        <ele>132.3</ele>
        <time>2023-11-22T15:29:15Z</time>
      </trkpt>
      <trkpt lat="49.99719" lon="2.31915">
        <ele>132.3</ele>
        <time>2023-11-22T15:29:16Z</time>
      </trkpt>
      <trkpt lat="49.99718" lon="2.31915">
        <ele>132.3</ele>
        <time>2023-11-22T15:29:17Z</time>
      </trkpt>
      <trkpt lat="49.99717" lon="2.31914">
        <ele>132.3</ele>
        <time>2023-11-22T15:29:18Z</time>
      </trkpt>
      <trkpt lat="49.99716" lon="2.31913">
        <ele>132.3</ele>
        <time>2023-11-22T15:29:19Z</time>
      </trkpt>
      <trkpt lat="49.99715" lon="2.31913">
        <ele>132.3</ele>
        <time>2023-11-22T15:29:20Z</time>
      </trkpt>
      <trkpt lat="49.99714" lon="2.31911">
        <ele>132.4</ele>
        <time>2023-11-22T15:29:21Z</time>
      </trkpt>
      <trkpt lat="49.99713" lon="2.3191">
        <ele>132.4</ele>
        <time>2023-11-22T15:29:22Z</time>
      </trkpt>
      <trkpt lat="49.99712" lon="2.31909">
        <ele>132.4</ele>
        <time>2023-11-22T15:29:23Z</time>
      </trkpt>
      <trkpt lat="49.99711" lon="2.31908">
        <ele>132.4</ele>
        <time>2023-11-22T15:29:24Z</time>
      </trkpt>
      <trkpt lat="49.9971" lon="2.31907">
        <ele>132.4</ele>
        <time>2023-11-22T15:29:25Z</time>
      </trkpt>
      <trkpt lat="49.9971" lon="2.31906">
        <ele>132.4</ele>
        <time>2023-11-22T15:29:26Z</time>
      </trkpt>
      <trkpt lat="49.99709" lon="2.31905">
        <ele>132.4</ele>
        <time>2023-11-22T15:29:27Z</time>
      </trkpt>
      <trkpt lat="49.99708" lon="2.31905">
        <ele>132.4</ele>
        <time>2023-11-22T15:29:28Z</time>
      </trkpt>
      <trkpt lat="49.99707" lon="2.31904">
        <ele>132.5</ele>
        <time>2023-11-22T15:29:29Z</time>
      </trkpt>
      <trkpt lat="49.99706" lon="2.31903">
        <ele>132.5</ele>
        <time>2023-11-22T15:29:30Z</time>
      </trkpt>
      <trkpt lat="49.99705" lon="2.31902">
        <ele>132.5</ele>
        <time>2023-11-22T15:29:31Z</time>
      </trkpt>
      <trkpt lat="49.99704" lon="2.31901">
        <ele>132.5</ele>
        <time>2023-11-22T15:29:32Z</time>
      </trkpt>
      <trkpt lat="49.99703" lon="2.31901">
        <ele>132.5</ele>
        <time>2023-11-22T15:29:33Z</time>
      </trkpt>
      <trkpt lat="49.99703" lon="2.319">
        <ele>132.5</ele>
        <time>2023-11-22T15:29:34Z</time>
      </trkpt>
      <trkpt lat="49.99702" lon="2.31899">
        <ele>132.5</ele>
        <time>2023-11-22T15:29:35Z</time>
      </trkpt>
      <trkpt lat="49.99701" lon="2.31898">
        <ele>132.5</ele>
        <time>2023-11-22T15:29:36Z</time>
      </trkpt>
      <trkpt lat="49.997" lon="2.31897">
        <ele>132.6</ele>
        <time>2023-11-22T15:29:37Z</time>
      </trkpt>
      <trkpt lat="49.99699" lon="2.31897">
        <ele>132.6</ele>
        <time>2023-11-22T15:29:38Z</time>
      </trkpt>
      <trkpt lat="49.99698" lon="2.31896">
        <ele>132.6</ele>
        <time>2023-11-22T15:29:39Z</time>
      </trkpt>
      <trkpt lat="49.99697" lon="2.31895">
        <ele>132.6</ele>
        <time>2023-11-22T15:29:40Z</time>
      </trkpt>
      <trkpt lat="49.99696" lon="2.31895">
        <ele>132.6</ele>
        <time>2023-11-22T15:29:41Z</time>
      </trkpt>
      <trkpt lat="49.99695" lon="2.31894">
        <ele>132.6</ele>
        <time>2023-11-22T15:29:42Z</time>
      </trkpt>
      <trkpt lat="49.99694" lon="2.31894">
        <ele>132.6</ele>
        <time>2023-11-22T15:29:43Z</time>
      </trkpt>
      <trkpt lat="49.99693" lon="2.31893">
        <ele>132.7</ele>
        <time>2023-11-22T15:29:44Z</time>
      </trkpt>
      <trkpt lat="49.99692" lon="2.31893">
        <ele>132.7</ele>
        <time>2023-11-22T15:29:45Z</time>
      </trkpt>
      <trkpt lat="49.9969" lon="2.31893">
        <ele>132.8</ele>
        <time>2023-11-22T15:29:46Z</time>
      </trkpt>
      <trkpt lat="49.99689" lon="2.31893">
        <ele>132.8</ele>
        <time>2023-11-22T15:29:47Z</time>
      </trkpt>
      <trkpt lat="49.99688" lon="2.31893">
        <ele>132.8</ele>
        <time>2023-11-22T15:29:48Z</time>
      </trkpt>
      <trkpt lat="49.99687" lon="2.31893">
        <ele>132.9</ele>
        <time>2023-11-22T15:29:49Z</time>
      </trkpt>
      <trkpt lat="49.99686" lon="2.31894">
        <ele>132.9</ele>
        <time>2023-11-22T15:29:50Z</time>
      </trkpt>
      <trkpt lat="49.99685" lon="2.31894">
        <ele>132.9</ele>
        <time>2023-11-22T15:29:51Z</time>
      </trkpt>
      <trkpt lat="49.99684" lon="2.31895">
        <ele>133</ele>
        <time>2023-11-22T15:29:52Z</time>
      </trkpt>
      <trkpt lat="49.99683" lon="2.31895">
        <ele>133</ele>
        <time>2023-11-22T15:29:53Z</time>
      </trkpt>
      <trkpt lat="49.99682" lon="2.31895">
        <ele>133</ele>
        <time>2023-11-22T15:29:54Z</time>
      </trkpt>
      <trkpt lat="49.99681" lon="2.31896">
        <ele>133</ele>
        <time>2023-11-22T15:29:55Z</time>
      </trkpt>
      <trkpt lat="49.9968" lon="2.31897">
        <ele>133</ele>
        <time>2023-11-22T15:29:56Z</time>
      </trkpt>
      <trkpt lat="49.99679" lon="2.31897">
        <ele>133</ele>
        <time>2023-11-22T15:29:57Z</time>
      </trkpt>
      <trkpt lat="49.99679" lon="2.31898">
        <ele>133</ele>
        <time>2023-11-22T15:29:58Z</time>
      </trkpt>
      <trkpt lat="49.99678" lon="2.31898">
        <ele>133</ele>
        <time>2023-11-22T15:29:59Z</time>
      </trkpt>
      <trkpt lat="49.99678" lon="2.31898">
        <ele>133</ele>
        <time>2023-11-22T15:30:00Z</time>
      </trkpt>
      <trkpt lat="49.99678" lon="2.31898">
        <ele>133</ele>
        <time>2023-11-22T15:30:01Z</time>
      </trkpt>
      <trkpt lat="49.99678" lon="2.31898">
        <ele>133</ele>
        <time>2023-11-22T15:30:02Z</time>
      </trkpt>
      <trkpt lat="49.99678" lon="2.31899">
        <ele>133</ele>
        <time>2023-11-22T15:30:03Z</time>
      </trkpt>
      <trkpt lat="49.99678" lon="2.31899">
        <ele>133</ele>
        <time>2023-11-22T15:30:04Z</time>
      </trkpt>
      <trkpt lat="49.99677" lon="2.31899">
        <ele>133</ele>
        <time>2023-11-22T15:30:05Z</time>
      </trkpt>
      <trkpt lat="49.99677" lon="2.31899">
        <ele>133</ele>
        <time>2023-11-22T15:30:06Z</time>
      </trkpt>
      <trkpt lat="49.99677" lon="2.319">
        <ele>133</ele>
        <time>2023-11-22T15:30:07Z</time>
      </trkpt>
      <trkpt lat="49.99676" lon="2.319">
        <ele>133</ele>
        <time>2023-11-22T15:30:08Z</time>
      </trkpt>
      <trkpt lat="49.99675" lon="2.319">
        <ele>133</ele>
        <time>2023-11-22T15:30:09Z</time>
      </trkpt>
      <trkpt lat="49.99675" lon="2.319">
        <ele>133</ele>
        <time>2023-11-22T15:30:10Z</time>
      </trkpt>
      <trkpt lat="49.99674" lon="2.31901">
        <ele>133</ele>
        <time>2023-11-22T15:30:11Z</time>
      </trkpt>
      <trkpt lat="49.99674" lon="2.31901">
        <ele>133</ele>
        <time>2023-11-22T15:30:12Z</time>
      </trkpt>
      <trkpt lat="49.99673" lon="2.31901">
        <ele>133</ele>
        <time>2023-11-22T15:30:13Z</time>
      </trkpt>
      <trkpt lat="49.99672" lon="2.319">
        <ele>133</ele>
        <time>2023-11-22T15:30:14Z</time>
      </trkpt>
      <trkpt lat="49.99672" lon="2.319">
        <ele>133</ele>
        <time>2023-11-22T15:30:15Z</time>
      </trkpt>
      <trkpt lat="49.99671" lon="2.319">
        <ele>133</ele>
        <time>2023-11-22T15:30:16Z</time>
      </trkpt>
      <trkpt lat="49.9967" lon="2.31899">
        <ele>133</ele>
        <time>2023-11-22T15:30:17Z</time>
      </trkpt>
      <trkpt lat="49.9967" lon="2.31899">
        <ele>133</ele>
        <time>2023-11-22T15:30:18Z</time>
      </trkpt>
      <trkpt lat="49.99669" lon="2.31899">
        <ele>133</ele>
        <time>2023-11-22T15:30:19Z</time>
      </trkpt>
      <trkpt lat="49.99668" lon="2.31899">
        <ele>133</ele>
        <time>2023-11-22T15:30:20Z</time>
      </trkpt>
      <trkpt lat="49.99668" lon="2.31899">
        <ele>133</ele>
        <time>2023-11-22T15:30:21Z</time>
      </trkpt>
      <trkpt lat="49.99667" lon="2.31899">
        <ele>133</ele>
        <time>2023-11-22T15:30:22Z</time>
      </trkpt>
      <trkpt lat="49.99666" lon="2.31899">
        <ele>133</ele>
        <time>2023-11-22T15:30:23Z</time>
      </trkpt>
      <trkpt lat="49.99666" lon="2.31898">
        <ele>133</ele>
        <time>2023-11-22T15:30:24Z</time>
      </trkpt>
      <trkpt lat="49.99665" lon="2.31898">
        <ele>133</ele>
        <time>2023-11-22T15:30:25Z</time>
      </trkpt>
      <trkpt lat="49.99664" lon="2.31898">
        <ele>133</ele>
        <time>2023-11-22T15:30:26Z</time>
      </trkpt>
      <trkpt lat="49.99663" lon="2.31898">
        <ele>133</ele>
        <time>2023-11-22T15:30:27Z</time>
      </trkpt>
      <trkpt lat="49.99663" lon="2.31897">
        <ele>133</ele>
        <time>2023-11-22T15:30:28Z</time>
      </trkpt>
      <trkpt lat="49.99662" lon="2.31897">
        <ele>133</ele>
        <time>2023-11-22T15:30:29Z</time>
      </trkpt>
      <trkpt lat="49.99662" lon="2.31897">
        <ele>133</ele>
        <time>2023-11-22T15:30:30Z</time>
      </trkpt>
      <trkpt lat="49.99661" lon="2.31897">
        <ele>133</ele>
        <time>2023-11-22T15:30:31Z</time>
      </trkpt>
      <trkpt lat="49.99661" lon="2.31897">
        <ele>133.1</ele>
        <time>2023-11-22T15:30:32Z</time>
      </trkpt>
      <trkpt lat="49.9966" lon="2.31897">
        <ele>133.1</ele>
        <time>2023-11-22T15:30:33Z</time>
      </trkpt>
      <trkpt lat="49.9966" lon="2.31897">
        <ele>133.1</ele>
        <time>2023-11-22T15:30:34Z</time>
      </trkpt>
      <trkpt lat="49.9966" lon="2.31897">
        <ele>133.1</ele>
        <time>2023-11-22T15:30:35Z</time>
      </trkpt>
      <trkpt lat="49.99659" lon="2.31897">
        <ele>133.1</ele>
        <time>2023-11-22T15:30:36Z</time>
      </trkpt>
      <trkpt lat="49.99659" lon="2.31897">
        <ele>133.1</ele>
        <time>2023-11-22T15:30:37Z</time>
      </trkpt>
      <trkpt lat="49.99658" lon="2.31897">
        <ele>133.1</ele>
        <time>2023-11-22T15:30:38Z</time>
      </trkpt>
      <trkpt lat="49.99659" lon="2.31898">
        <ele>133.1</ele>
        <time>2023-11-22T15:30:39Z</time>
      </trkpt>
      <trkpt lat="49.99659" lon="2.31898">
        <ele>133.1</ele>
        <time>2023-11-22T15:30:40Z</time>
      </trkpt>
      <trkpt lat="49.99659" lon="2.31899">
        <ele>133.1</ele>
        <time>2023-11-22T15:30:41Z</time>
      </trkpt>
      <trkpt lat="49.9966" lon="2.31899">
        <ele>133.1</ele>
        <time>2023-11-22T15:30:42Z</time>
      </trkpt>
      <trkpt lat="49.9966" lon="2.31899">
        <ele>133.1</ele>
        <time>2023-11-22T15:30:43Z</time>
      </trkpt>
      <trkpt lat="49.9966" lon="2.31899">
        <ele>133.1</ele>
        <time>2023-11-22T15:30:44Z</time>
      </trkpt>
      <trkpt lat="49.9966" lon="2.31899">
        <ele>133.1</ele>
        <time>2023-11-22T15:30:45Z</time>
      </trkpt>
      <trkpt lat="49.9966" lon="2.31899">
        <ele>133.1</ele>
        <time>2023-11-22T15:30:46Z</time>
      </trkpt>
      <trkpt lat="49.99661" lon="2.31899">
        <ele>133.1</ele>
        <time>2023-11-22T15:30:47Z</time>
      </trkpt>
      <trkpt lat="49.99661" lon="2.31899">
        <ele>133.1</ele>
        <time>2023-11-22T15:30:48Z</time>
      </trkpt>
      <trkpt lat="49.99661" lon="2.31899">
        <ele>133.1</ele>
        <time>2023-11-22T15:30:49Z</time>
      </trkpt>
      <trkpt lat="49.99661" lon="2.31899">
        <ele>133.1</ele>
        <time>2023-11-22T15:30:50Z</time>
      </trkpt>
      <trkpt lat="49.99661" lon="2.31899">
        <ele>133.1</ele>
        <time>2023-11-22T15:30:51Z</time>
      </trkpt>
      <trkpt lat="49.99661" lon="2.31899">
        <ele>133.1</ele>
        <time>2023-11-22T15:30:52Z</time>
      </trkpt>
      <trkpt lat="49.99661" lon="2.31899">
        <ele>133.1</ele>
        <time>2023-11-22T15:30:53Z</time>
      </trkpt>
      <trkpt lat="49.99655" lon="2.31892">
        <ele>133.1</ele>
        <time>2023-11-22T15:34:54Z</time>
      </trkpt>
      <trkpt lat="49.99654" lon="2.31891">
        <ele>133.1</ele>
        <time>2023-11-22T15:34:55Z</time>
      </trkpt>
      <trkpt lat="49.99654" lon="2.3189">
        <ele>133.1</ele>
        <time>2023-11-22T15:34:56Z</time>
      </trkpt>
      <trkpt lat="49.99654" lon="2.31891">
        <ele>133.1</ele>
        <time>2023-11-22T15:34:57Z</time>
      </trkpt>
      <trkpt lat="49.99654" lon="2.31891">
        <ele>133.1</ele>
        <time>2023-11-22T15:34:58Z</time>
      </trkpt>
      <trkpt lat="49.99655" lon="2.31891">
        <ele>133.1</ele>
        <time>2023-11-22T15:34:59Z</time>
      </trkpt>
      <trkpt lat="49.99655" lon="2.31891">
        <ele>133.1</ele>
        <time>2023-11-22T15:35:00Z</time>
      </trkpt>
      <trkpt lat="49.99655" lon="2.31891">
        <ele>133.1</ele>
        <time>2023-11-22T15:35:01Z</time>
      </trkpt>
      <trkpt lat="49.99655" lon="2.31891">
        <ele>133.1</ele>
        <time>2023-11-22T15:35:02Z</time>
      </trkpt>
      <trkpt lat="49.99656" lon="2.31891">
        <ele>133.1</ele>
        <time>2023-11-22T15:35:03Z</time>
      </trkpt>
      <trkpt lat="49.99656" lon="2.31891">
        <ele>133.1</ele>
        <time>2023-11-22T15:35:04Z</time>
      </trkpt>
      <trkpt lat="49.99656" lon="2.31891">
        <ele>133.1</ele>
        <time>2023-11-22T15:35:05Z</time>
      </trkpt>
      <trkpt lat="49.99656" lon="2.31892">
        <ele>133.1</ele>
        <time>2023-11-22T15:35:06Z</time>
      </trkpt>
      <trkpt lat="49.99656" lon="2.31892">
        <ele>133.1</ele>
        <time>2023-11-22T15:35:07Z</time>
      </trkpt>
      <trkpt lat="49.99656" lon="2.31892">
        <ele>133.1</ele>
        <time>2023-11-22T15:35:08Z</time>
      </trkpt>
      <trkpt lat="49.99656" lon="2.31892">
        <ele>133.1</ele>
        <time>2023-11-22T15:35:09Z</time>
      </trkpt>
      <trkpt lat="49.99656" lon="2.31892">
        <ele>133.1</ele>
        <time>2023-11-22T15:35:10Z</time>
      </trkpt>
      <trkpt lat="49.99656" lon="2.31892">
        <ele>133.1</ele>
        <time>2023-11-22T15:35:11Z</time>
      </trkpt>
      <trkpt lat="49.99656" lon="2.31892">
        <ele>133.1</ele>
        <time>2023-11-22T15:35:12Z</time>
      </trkpt>
      <trkpt lat="49.99656" lon="2.31892">
        <ele>133.1</ele>
        <time>2023-11-22T15:35:13Z</time>
      </trkpt>
      <trkpt lat="49.99656" lon="2.31892">
        <ele>133.1</ele>
        <time>2023-11-22T15:35:14Z</time>
      </trkpt>
      <trkpt lat="49.99656" lon="2.31893">
        <ele>133.1</ele>
        <time>2023-11-22T15:35:15Z</time>
      </trkpt>
      <trkpt lat="49.99656" lon="2.31893">
        <ele>133.1</ele>
        <time>2023-11-22T15:35:16Z</time>
      </trkpt>
      <trkpt lat="49.99656" lon="2.31893">
        <ele>133.1</ele>
        <time>2023-11-22T15:35:17Z</time>
      </trkpt>
      <trkpt lat="49.99656" lon="2.31893">
        <ele>133.1</ele>
        <time>2023-11-22T15:35:18Z</time>
      </trkpt>
      <trkpt lat="49.99656" lon="2.31893">
        <ele>133.1</ele>
        <time>2023-11-22T15:35:19Z</time>
      </trkpt>
      <trkpt lat="49.99656" lon="2.31893">
        <ele>133.1</ele>
        <time>2023-11-22T15:35:20Z</time>
      </trkpt>
      <trkpt lat="49.99656" lon="2.31893">
        <ele>133.1</ele>
        <time>2023-11-22T15:35:21Z</time>
      </trkpt>
      <trkpt lat="49.99663" lon="2.31888">
        <ele>133.1</ele>
        <time>2023-11-22T15:37:10Z</time>
      </trkpt>
      <trkpt lat="49.99664" lon="2.31888">
        <ele>133.1</ele>
        <time>2023-11-22T15:37:11Z</time>
      </trkpt>
      <trkpt lat="49.99663" lon="2.31888">
        <ele>133.1</ele>
        <time>2023-11-22T15:37:12Z</time>
      </trkpt>
      <trkpt lat="49.99664" lon="2.31888">
        <ele>133.1</ele>
        <time>2023-11-22T15:37:13Z</time>
      </trkpt>
      <trkpt lat="49.99664" lon="2.31889">
        <ele>133.1</ele>
        <time>2023-11-22T15:37:14Z</time>
      </trkpt>
      <trkpt lat="49.99665" lon="2.31888">
        <ele>133.1</ele>
        <time>2023-11-22T15:37:15Z</time>
      </trkpt>
      <trkpt lat="49.99665" lon="2.31887">
        <ele>133.1</ele>
        <time>2023-11-22T15:37:16Z</time>
      </trkpt>
      <trkpt lat="49.99666" lon="2.31887">
        <ele>133.1</ele>
        <time>2023-11-22T15:37:17Z</time>
      </trkpt>
      <trkpt lat="49.99666" lon="2.31887">
        <ele>133.1</ele>
        <time>2023-11-22T15:37:18Z</time>
      </trkpt>
      <trkpt lat="49.99666" lon="2.31887">
        <ele>133.1</ele>
        <time>2023-11-22T15:37:19Z</time>
      </trkpt>
      <trkpt lat="49.99666" lon="2.31887">
        <ele>133.1</ele>
        <time>2023-11-22T15:37:20Z</time>
      </trkpt>
      <trkpt lat="49.99667" lon="2.31887">
        <ele>133.1</ele>
        <time>2023-11-22T15:37:21Z</time>
      </trkpt>
      <trkpt lat="49.99667" lon="2.31886">
        <ele>133.1</ele>
        <time>2023-11-22T15:37:22Z</time>
      </trkpt>
      <trkpt lat="49.99667" lon="2.31886">
        <ele>133.1</ele>
        <time>2023-11-22T15:37:23Z</time>
      </trkpt>
      <trkpt lat="49.99667" lon="2.31886">
        <ele>133.1</ele>
        <time>2023-11-22T15:37:24Z</time>
      </trkpt>
      <trkpt lat="49.99667" lon="2.31886">
        <ele>133.1</ele>
        <time>2023-11-22T15:37:25Z</time>
      </trkpt>
      <trkpt lat="49.99667" lon="2.31886">
        <ele>133.1</ele>
        <time>2023-11-22T15:37:26Z</time>
      </trkpt>
      <trkpt lat="49.99669" lon="2.31886">
        <ele>133.2</ele>
        <time>2023-11-22T15:38:00Z</time>
      </trkpt>
      <trkpt lat="49.99669" lon="2.31886">
        <ele>133.2</ele>
        <time>2023-11-22T15:38:01Z</time>
      </trkpt>
      <trkpt lat="49.99669" lon="2.31887">
        <ele>133.2</ele>
        <time>2023-11-22T15:38:02Z</time>
      </trkpt>
      <trkpt lat="49.99669" lon="2.31887">
        <ele>133.2</ele>
        <time>2023-11-22T15:38:03Z</time>
      </trkpt>
      <trkpt lat="49.99669" lon="2.31887">
        <ele>133.2</ele>
        <time>2023-11-22T15:38:04Z</time>
      </trkpt>
      <trkpt lat="49.99669" lon="2.31887">
        <ele>133.2</ele>
        <time>2023-11-22T15:38:05Z</time>
      </trkpt>
      <trkpt lat="49.99669" lon="2.31887">
        <ele>133.2</ele>
        <time>2023-11-22T15:38:06Z</time>
      </trkpt>
      <trkpt lat="49.99669" lon="2.31887">
        <ele>133.2</ele>
        <time>2023-11-22T15:38:07Z</time>
      </trkpt>
      <trkpt lat="49.99669" lon="2.31887">
        <ele>133.2</ele>
        <time>2023-11-22T15:38:08Z</time>
      </trkpt>
      <trkpt lat="49.99669" lon="2.31887">
        <ele>133.2</ele>
        <time>2023-11-22T15:38:09Z</time>
      </trkpt>
      <trkpt lat="49.99669" lon="2.31887">
        <ele>133.2</ele>
        <time>2023-11-22T15:38:10Z</time>
      </trkpt>
      <trkpt lat="49.99669" lon="2.31887">
        <ele>133.2</ele>
        <time>2023-11-22T15:38:11Z</time>
      </trkpt>
      <trkpt lat="49.99668" lon="2.31887">
        <ele>133.2</ele>
        <time>2023-11-22T15:38:12Z</time>
      </trkpt>
      <trkpt lat="49.99666" lon="2.31887">
        <ele>133.2</ele>
        <time>2023-11-22T15:38:56Z</time>
      </trkpt>
      <trkpt lat="49.99665" lon="2.31888">
        <ele>133.2</ele>
        <time>2023-11-22T15:38:57Z</time>
      </trkpt>
      <trkpt lat="49.99665" lon="2.31888">
        <ele>133.2</ele>
        <time>2023-11-22T15:38:58Z</time>
      </trkpt>
      <trkpt lat="49.99664" lon="2.31888">
        <ele>133.2</ele>
        <time>2023-11-22T15:38:59Z</time>
      </trkpt>
      <trkpt lat="49.99663" lon="2.31888">
        <ele>133.2</ele>
        <time>2023-11-22T15:39:00Z</time>
      </trkpt>
      <trkpt lat="49.99662" lon="2.31889">
        <ele>133.2</ele>
        <time>2023-11-22T15:39:01Z</time>
      </trkpt>
      <trkpt lat="49.99662" lon="2.31889">
        <ele>133.2</ele>
        <time>2023-11-22T15:39:02Z</time>
      </trkpt>
      <trkpt lat="49.99661" lon="2.31889">
        <ele>133.2</ele>
        <time>2023-11-22T15:39:03Z</time>
      </trkpt>
      <trkpt lat="49.99661" lon="2.31889">
        <ele>133.2</ele>
        <time>2023-11-22T15:39:04Z</time>
      </trkpt>
      <trkpt lat="49.99661" lon="2.31889">
        <ele>133.2</ele>
        <time>2023-11-22T15:39:05Z</time>
      </trkpt>
      <trkpt lat="49.9966" lon="2.3189">
        <ele>133.2</ele>
        <time>2023-11-22T15:39:06Z</time>
      </trkpt>
      <trkpt lat="49.9966" lon="2.3189">
        <ele>133.2</ele>
        <time>2023-11-22T15:39:07Z</time>
      </trkpt>
      <trkpt lat="49.9966" lon="2.31889">
        <ele>133.2</ele>
        <time>2023-11-22T15:39:08Z</time>
      </trkpt>
      <trkpt lat="49.99661" lon="2.31889">
        <ele>133.2</ele>
        <time>2023-11-22T15:39:09Z</time>
      </trkpt>
      <trkpt lat="49.99661" lon="2.31889">
        <ele>133.2</ele>
        <time>2023-11-22T15:39:10Z</time>
      </trkpt>
      <trkpt lat="49.99661" lon="2.31889">
        <ele>133.2</ele>
        <time>2023-11-22T15:39:11Z</time>
      </trkpt>
      <trkpt lat="49.99661" lon="2.31889">
        <ele>133.2</ele>
        <time>2023-11-22T15:39:12Z</time>
      </trkpt>
      <trkpt lat="49.99661" lon="2.31889">
        <ele>133.2</ele>
        <time>2023-11-22T15:39:13Z</time>
      </trkpt>
      <trkpt lat="49.99661" lon="2.31889">
        <ele>133.2</ele>
        <time>2023-11-22T15:39:14Z</time>
      </trkpt>
      <trkpt lat="49.99661" lon="2.31889">
        <ele>133.2</ele>
        <time>2023-11-22T15:39:15Z</time>
      </trkpt>
      <trkpt lat="49.99661" lon="2.31889">
        <ele>133.2</ele>
        <time>2023-11-22T15:39:16Z</time>
      </trkpt>
    </trkseg>
  </trk>
</gpx>